<?xml version='1.0' encoding='UTF-8'?><gpx version="1.1" creator="JPX - https://github.com/jenetics/jpx" xmlns="http://www.topografix.com/GPX/1/1"><trk><trkseg><trkpt lat="44.1507781" lon="10.4125791"><ele>546.0</ele><time>2026-04-07T07:58:00.834Z</time></trkpt><trkpt lat="44.1507984" lon="10.4124814"><ele>546.0</ele><time>2026-04-07T07:58:02.917Z</time></trkpt><trkpt lat="44.1507947" lon="10.4123719"><ele>546.0</ele><time>2026-04-07T07:58:03.924Z</time></trkpt><trkpt lat="44.15081" lon="10.4122632"><ele>546.0</ele><time>2026-04-07T07:58:06.922Z</time></trkpt><trkpt lat="44.1508422" lon="10.4121488"><ele>546.0</ele><time>2026-04-07T07:58:08.912Z</time></trkpt><trkpt lat="44.1509045" lon="10.4121276"><ele>546.0</ele><time>2026-04-07T07:58:11.919Z</time></trkpt><trkpt lat="44.1509861" lon="10.4121083"><ele>543.8571428571429</ele><time>2026-04-07T07:58:15.922Z</time></trkpt><trkpt lat="44.1510499" lon="10.412098"><ele>541.7142857142858</ele><time>2026-04-07T07:58:18.914Z</time></trkpt><trkpt lat="44.151083" lon="10.4120159"><ele>539.5714285714286</ele><time>2026-04-07T07:58:21.935Z</time></trkpt><trkpt lat="44.1510419" lon="10.4119488"><ele>537.4285714285714</ele><time>2026-04-07T07:58:24.919Z</time></trkpt><trkpt lat="44.1509765" lon="10.4118815"><ele>535.2857142857143</ele><time>2026-04-07T07:58:28.925Z</time></trkpt><trkpt lat="44.1509176" lon="10.4118293"><ele>533.1428571428571</ele><time>2026-04-07T07:58:32.932Z</time></trkpt><trkpt lat="44.1508464" lon="10.4117958"><ele>531.0</ele><time>2026-04-07T07:58:35.93Z</time></trkpt><trkpt lat="44.1507754" lon="10.4117921"><ele>530.8</ele><time>2026-04-07T07:58:37.927Z</time></trkpt><trkpt lat="44.1506848" lon="10.4117998"><ele>530.6</ele><time>2026-04-07T07:58:39.926Z</time></trkpt><trkpt lat="44.1505707" lon="10.4117937"><ele>530.4</ele><time>2026-04-07T07:58:41.924Z</time></trkpt><trkpt lat="44.1504501" lon="10.411745"><ele>530.2</ele><time>2026-04-07T07:58:43.93Z</time></trkpt><trkpt lat="44.1503888" lon="10.4117087"><ele>530.0</ele><time>2026-04-07T07:58:44.923Z</time></trkpt><trkpt lat="44.1503218" lon="10.4116773"><ele>530.0</ele><time>2026-04-07T07:58:45.924Z</time></trkpt><trkpt lat="44.1502529" lon="10.4116406"><ele>530.0</ele><time>2026-04-07T07:58:46.921Z</time></trkpt><trkpt lat="44.1501801" lon="10.411608"><ele>530.0</ele><time>2026-04-07T07:58:47.932Z</time></trkpt><trkpt lat="44.150109" lon="10.4115713"><ele>530.0</ele><time>2026-04-07T07:58:48.919Z</time></trkpt><trkpt lat="44.1500387" lon="10.411535"><ele>530.0</ele><time>2026-04-07T07:58:49.926Z</time></trkpt><trkpt lat="44.1499686" lon="10.4114953"><ele>530.0</ele><time>2026-04-07T07:58:50.923Z</time></trkpt><trkpt lat="44.1498971" lon="10.4114569"><ele>529.0</ele><time>2026-04-07T07:58:51.918Z</time></trkpt><trkpt lat="44.1498251" lon="10.4114233"><ele>528.0</ele><time>2026-04-07T07:58:52.923Z</time></trkpt><trkpt lat="44.1497534" lon="10.4113812"><ele>527.0</ele><time>2026-04-07T07:58:53.926Z</time></trkpt><trkpt lat="44.1496822" lon="10.4113481"><ele>526.0</ele><time>2026-04-07T07:58:54.917Z</time></trkpt><trkpt lat="44.1496102" lon="10.4113082"><ele>525.0</ele><time>2026-04-07T07:58:55.927Z</time></trkpt><trkpt lat="44.1495403" lon="10.4112692"><ele>524.0</ele><time>2026-04-07T07:58:56.921Z</time></trkpt><trkpt lat="44.1494756" lon="10.4112346"><ele>524.1428571428571</ele><time>2026-04-07T07:58:57.921Z</time></trkpt><trkpt lat="44.1494087" lon="10.4111976"><ele>524.2857142857143</ele><time>2026-04-07T07:58:58.916Z</time></trkpt><trkpt lat="44.1493441" lon="10.4111595"><ele>524.4285714285714</ele><time>2026-04-07T07:58:59.914Z</time></trkpt><trkpt lat="44.1492754" lon="10.4111311"><ele>524.5714285714286</ele><time>2026-04-07T07:59:00.93Z</time></trkpt><trkpt lat="44.1492026" lon="10.411128"><ele>524.7142857142858</ele><time>2026-04-07T07:59:01.924Z</time></trkpt><trkpt lat="44.149139" lon="10.4111505"><ele>524.8571428571429</ele><time>2026-04-07T07:59:02.929Z</time></trkpt><trkpt lat="44.1490807" lon="10.4111864"><ele>525.0</ele><time>2026-04-07T07:59:03.93Z</time></trkpt><trkpt lat="44.1489737" lon="10.4112599"><ele>525.0</ele><time>2026-04-07T07:59:05.919Z</time></trkpt><trkpt lat="44.1488883" lon="10.4113381"><ele>525.0</ele><time>2026-04-07T07:59:07.922Z</time></trkpt><trkpt lat="44.1487893" lon="10.4113833"><ele>525.0</ele><time>2026-04-07T07:59:09.928Z</time></trkpt><trkpt lat="44.1486977" lon="10.4113741"><ele>525.0</ele><time>2026-04-07T07:59:11.931Z</time></trkpt><trkpt lat="44.1486344" lon="10.4113085"><ele>525.0</ele><time>2026-04-07T07:59:13.926Z</time></trkpt><trkpt lat="44.1485829" lon="10.4112163"><ele>525.0</ele><time>2026-04-07T07:59:15.939Z</time></trkpt><trkpt lat="44.1485353" lon="10.4111151"><ele>525.0</ele><time>2026-04-07T07:59:17.923Z</time></trkpt><trkpt lat="44.1484897" lon="10.4110136"><ele>525.0</ele><time>2026-04-07T07:59:19.914Z</time></trkpt><trkpt lat="44.1484499" lon="10.4109029"><ele>525.0</ele><time>2026-04-07T07:59:21.921Z</time></trkpt><trkpt lat="44.148416" lon="10.4107809"><ele>525.0</ele><time>2026-04-07T07:59:23.94Z</time></trkpt><trkpt lat="44.1483769" lon="10.4106716"><ele>525.0</ele><time>2026-04-07T07:59:25.93Z</time></trkpt><trkpt lat="44.1483315" lon="10.4105552"><ele>525.8</ele><time>2026-04-07T07:59:27.923Z</time></trkpt><trkpt lat="44.1482979" lon="10.4104254"><ele>526.6</ele><time>2026-04-07T07:59:29.931Z</time></trkpt><trkpt lat="44.1482647" lon="10.4102901"><ele>527.4</ele><time>2026-04-07T07:59:31.92Z</time></trkpt><trkpt lat="44.1482362" lon="10.4101646"><ele>528.2</ele><time>2026-04-07T07:59:33.913Z</time></trkpt><trkpt lat="44.1482102" lon="10.4100362"><ele>529.0</ele><time>2026-04-07T07:59:35.934Z</time></trkpt><trkpt lat="44.148185" lon="10.4099048"><ele>525.0</ele><time>2026-04-07T07:59:37.921Z</time></trkpt><trkpt lat="44.1481578" lon="10.4097669"><ele>521.0</ele><time>2026-04-07T07:59:39.932Z</time></trkpt><trkpt lat="44.1481434" lon="10.4096142"><ele>517.0</ele><time>2026-04-07T07:59:41.942Z</time></trkpt><trkpt lat="44.1481301" lon="10.4094533"><ele>513.0</ele><time>2026-04-07T07:59:43.933Z</time></trkpt><trkpt lat="44.1481139" lon="10.4092949"><ele>509.0</ele><time>2026-04-07T07:59:45.929Z</time></trkpt><trkpt lat="44.1480987" lon="10.40914"><ele>509.0</ele><time>2026-04-07T07:59:47.935Z</time></trkpt><trkpt lat="44.1480867" lon="10.4089843"><ele>509.0</ele><time>2026-04-07T07:59:49.935Z</time></trkpt><trkpt lat="44.1480758" lon="10.4088219"><ele>509.0</ele><time>2026-04-07T07:59:51.943Z</time></trkpt><trkpt lat="44.1480606" lon="10.4086548"><ele>509.0</ele><time>2026-04-07T07:59:53.938Z</time></trkpt><trkpt lat="44.1480442" lon="10.40849"><ele>508.8333333333333</ele><time>2026-04-07T07:59:55.926Z</time></trkpt><trkpt lat="44.1480352" lon="10.4083066"><ele>508.66666666666663</ele><time>2026-04-07T07:59:57.931Z</time></trkpt><trkpt lat="44.1480274" lon="10.4082094"><ele>508.5</ele><time>2026-04-07T07:59:58.947Z</time></trkpt><trkpt lat="44.1480175" lon="10.4081116"><ele>508.33333333333337</ele><time>2026-04-07T07:59:59.919Z</time></trkpt><trkpt lat="44.1480041" lon="10.408014"><ele>508.1666666666667</ele><time>2026-04-07T08:00:00.924Z</time></trkpt><trkpt lat="44.1479814" lon="10.4079276"><ele>508.0</ele><time>2026-04-07T08:00:01.926Z</time></trkpt><trkpt lat="44.1479407" lon="10.4078554"><ele>508.00000000000006</ele><time>2026-04-07T08:00:02.943Z</time></trkpt><trkpt lat="44.1478231" lon="10.4077688"><ele>508.0</ele><time>2026-04-07T08:00:04.923Z</time></trkpt><trkpt lat="44.1477546" lon="10.4077524"><ele>508.0</ele><time>2026-04-07T08:00:05.923Z</time></trkpt><trkpt lat="44.1476882" lon="10.4077379"><ele>508.0</ele><time>2026-04-07T08:00:06.943Z</time></trkpt><trkpt lat="44.1476171" lon="10.4077236"><ele>508.00000000000006</ele><time>2026-04-07T08:00:07.922Z</time></trkpt><trkpt lat="44.1475492" lon="10.4077125"><ele>508.0</ele><time>2026-04-07T08:00:08.938Z</time></trkpt><trkpt lat="44.1474435" lon="10.4077031"><ele>506.4</ele><time>2026-04-07T08:00:10.934Z</time></trkpt><trkpt lat="44.1473587" lon="10.4077275"><ele>504.79999999999995</ele><time>2026-04-07T08:00:12.938Z</time></trkpt><trkpt lat="44.1472663" lon="10.407784"><ele>503.2</ele><time>2026-04-07T08:00:14.916Z</time></trkpt><trkpt lat="44.147181" lon="10.4078907"><ele>501.6</ele><time>2026-04-07T08:00:16.937Z</time></trkpt><trkpt lat="44.1471733" lon="10.4080292"><ele>500.0</ele><time>2026-04-07T08:00:18.926Z</time></trkpt><trkpt lat="44.1472412" lon="10.4081511"><ele>500.0</ele><time>2026-04-07T08:00:20.942Z</time></trkpt><trkpt lat="44.1472864" lon="10.4082125"><ele>500.0</ele><time>2026-04-07T08:00:21.921Z</time></trkpt><trkpt lat="44.1473327" lon="10.4082857"><ele>500.0</ele><time>2026-04-07T08:00:22.935Z</time></trkpt><trkpt lat="44.14737" lon="10.4083738"><ele>500.0</ele><time>2026-04-07T08:00:23.926Z</time></trkpt><trkpt lat="44.1474088" lon="10.4084708"><ele>500.0</ele><time>2026-04-07T08:00:24.938Z</time></trkpt><trkpt lat="44.1474401" lon="10.4085732"><ele>500.0</ele><time>2026-04-07T08:00:25.939Z</time></trkpt><trkpt lat="44.1474619" lon="10.4086821"><ele>500.0</ele><time>2026-04-07T08:00:26.935Z</time></trkpt><trkpt lat="44.1474846" lon="10.4088002"><ele>501.8</ele><time>2026-04-07T08:00:27.93Z</time></trkpt><trkpt lat="44.1475025" lon="10.4089203"><ele>503.6</ele><time>2026-04-07T08:00:28.919Z</time></trkpt><trkpt lat="44.1475226" lon="10.4090375"><ele>505.4</ele><time>2026-04-07T08:00:29.918Z</time></trkpt><trkpt lat="44.1475432" lon="10.4091585"><ele>507.2</ele><time>2026-04-07T08:00:30.924Z</time></trkpt><trkpt lat="44.1475707" lon="10.4092848"><ele>509.0</ele><time>2026-04-07T08:00:31.924Z</time></trkpt><trkpt lat="44.1475884" lon="10.4094121"><ele>509.0</ele><time>2026-04-07T08:00:32.935Z</time></trkpt><trkpt lat="44.1476066" lon="10.409546"><ele>509.0</ele><time>2026-04-07T08:00:33.923Z</time></trkpt><trkpt lat="44.1476256" lon="10.4096804"><ele>509.0</ele><time>2026-04-07T08:00:34.926Z</time></trkpt><trkpt lat="44.1476438" lon="10.4098143"><ele>509.0</ele><time>2026-04-07T08:00:35.924Z</time></trkpt><trkpt lat="44.1476616" lon="10.4099525"><ele>509.0</ele><time>2026-04-07T08:00:36.927Z</time></trkpt><trkpt lat="44.1476772" lon="10.4100845"><ele>507.0</ele><time>2026-04-07T08:00:37.925Z</time></trkpt><trkpt lat="44.1476964" lon="10.4102192"><ele>505.0</ele><time>2026-04-07T08:00:38.932Z</time></trkpt><trkpt lat="44.1477175" lon="10.4103553"><ele>503.0</ele><time>2026-04-07T08:00:39.932Z</time></trkpt><trkpt lat="44.1477366" lon="10.4104921"><ele>501.0</ele><time>2026-04-07T08:00:40.927Z</time></trkpt><trkpt lat="44.1477625" lon="10.410634"><ele>499.0</ele><time>2026-04-07T08:00:41.933Z</time></trkpt><trkpt lat="44.1477865" lon="10.4107754"><ele>498.0</ele><time>2026-04-07T08:00:42.926Z</time></trkpt><trkpt lat="44.1478111" lon="10.410917"><ele>497.0</ele><time>2026-04-07T08:00:43.926Z</time></trkpt><trkpt lat="44.1478355" lon="10.4110588"><ele>496.0</ele><time>2026-04-07T08:00:44.924Z</time></trkpt><trkpt lat="44.1478608" lon="10.4112017"><ele>495.0</ele><time>2026-04-07T08:00:45.925Z</time></trkpt><trkpt lat="44.1478872" lon="10.4113464"><ele>494.0</ele><time>2026-04-07T08:00:46.92Z</time></trkpt><trkpt lat="44.1479126" lon="10.411487"><ele>493.4</ele><time>2026-04-07T08:00:47.929Z</time></trkpt><trkpt lat="44.1479374" lon="10.4116279"><ele>492.79999999999995</ele><time>2026-04-07T08:00:48.931Z</time></trkpt><trkpt lat="44.1479638" lon="10.411764"><ele>492.20000000000005</ele><time>2026-04-07T08:00:49.939Z</time></trkpt><trkpt lat="44.1479872" lon="10.4119056"><ele>491.6</ele><time>2026-04-07T08:00:50.926Z</time></trkpt><trkpt lat="44.1480099" lon="10.4120459"><ele>491.0</ele><time>2026-04-07T08:00:51.926Z</time></trkpt><trkpt lat="44.1480339" lon="10.4121882"><ele>491.0</ele><time>2026-04-07T08:00:52.93Z</time></trkpt><trkpt lat="44.1480618" lon="10.4123243"><ele>491.0</ele><time>2026-04-07T08:00:53.931Z</time></trkpt><trkpt lat="44.1480903" lon="10.4124626"><ele>491.0</ele><time>2026-04-07T08:00:54.93Z</time></trkpt><trkpt lat="44.1481161" lon="10.4125874"><ele>491.0</ele><time>2026-04-07T08:00:55.925Z</time></trkpt><trkpt lat="44.1481406" lon="10.4127029"><ele>491.0</ele><time>2026-04-07T08:00:56.931Z</time></trkpt><trkpt lat="44.1481593" lon="10.4128102"><ele>490.99999999999994</ele><time>2026-04-07T08:00:57.928Z</time></trkpt><trkpt lat="44.1481823" lon="10.412904"><ele>491.0</ele><time>2026-04-07T08:00:58.93Z</time></trkpt><trkpt lat="44.1481954" lon="10.4129936"><ele>491.0</ele><time>2026-04-07T08:00:59.931Z</time></trkpt><trkpt lat="44.1481758" lon="10.4131457"><ele>491.0</ele><time>2026-04-07T08:01:01.913Z</time></trkpt><trkpt lat="44.1481851" lon="10.4132543"><ele>490.99999999999994</ele><time>2026-04-07T08:01:03.925Z</time></trkpt><trkpt lat="44.1481999" lon="10.4133404"><ele>491.0</ele><time>2026-04-07T08:01:05.921Z</time></trkpt><trkpt lat="44.1481753" lon="10.4134515"><ele>490.99999999999994</ele><time>2026-04-07T08:01:08.921Z</time></trkpt><trkpt lat="44.1480818" lon="10.4134386"><ele>491.0</ele><time>2026-04-07T08:01:11.925Z</time></trkpt><trkpt lat="44.147995" lon="10.4133842"><ele>491.0</ele><time>2026-04-07T08:01:14.914Z</time></trkpt><trkpt lat="44.1479267" lon="10.4133379"><ele>491.0</ele><time>2026-04-07T08:01:16.926Z</time></trkpt><trkpt lat="44.1478523" lon="10.413287"><ele>490.99999999999994</ele><time>2026-04-07T08:01:18.925Z</time></trkpt><trkpt lat="44.1477827" lon="10.4132187"><ele>491.0</ele><time>2026-04-07T08:01:20.933Z</time></trkpt><trkpt lat="44.1477215" lon="10.413147"><ele>490.99999999999994</ele><time>2026-04-07T08:01:22.919Z</time></trkpt><trkpt lat="44.1476545" lon="10.4130967"><ele>491.0</ele><time>2026-04-07T08:01:24.915Z</time></trkpt><trkpt lat="44.1475913" lon="10.413071"><ele>491.0</ele><time>2026-04-07T08:01:26.927Z</time></trkpt><trkpt lat="44.1475059" lon="10.4130695"><ele>491.0</ele><time>2026-04-07T08:01:29.929Z</time></trkpt><trkpt lat="44.1474321" lon="10.4130901"><ele>490.99999999999994</ele><time>2026-04-07T08:01:32.924Z</time></trkpt><trkpt lat="44.1473628" lon="10.4131695"><ele>491.0</ele><time>2026-04-07T08:01:35.919Z</time></trkpt><trkpt lat="44.1473248" lon="10.4132762"><ele>490.20000000000005</ele><time>2026-04-07T08:01:37.932Z</time></trkpt><trkpt lat="44.1472915" lon="10.4133809"><ele>489.40000000000003</ele><time>2026-04-07T08:01:39.924Z</time></trkpt><trkpt lat="44.1471736" lon="10.4134147"><ele>488.6</ele><time>2026-04-07T08:01:41.92Z</time></trkpt><trkpt lat="44.1470909" lon="10.4134299"><ele>487.8</ele><time>2026-04-07T08:01:42.945Z</time></trkpt><trkpt lat="44.1470051" lon="10.4134399"><ele>487.0</ele><time>2026-04-07T08:01:43.921Z</time></trkpt><trkpt lat="44.1469154" lon="10.4134529"><ele>487.00000000000006</ele><time>2026-04-07T08:01:44.93Z</time></trkpt><trkpt lat="44.1468445" lon="10.4134561"><ele>487.0</ele><time>2026-04-07T08:01:45.921Z</time></trkpt><trkpt lat="44.1467386" lon="10.4134742"><ele>487.0</ele><time>2026-04-07T08:01:47.925Z</time></trkpt><trkpt lat="44.1466879" lon="10.4135417"><ele>487.0</ele><time>2026-04-07T08:01:49.922Z</time></trkpt><trkpt lat="44.1466564" lon="10.4136361"><ele>487.00000000000006</ele><time>2026-04-07T08:01:52.92Z</time></trkpt><trkpt lat="44.1465759" lon="10.4136956"><ele>487.0</ele><time>2026-04-07T08:01:55.915Z</time></trkpt><trkpt lat="44.1464864" lon="10.4136621"><ele>484.00000000000006</ele><time>2026-04-07T08:01:57.933Z</time></trkpt><trkpt lat="44.1463937" lon="10.4136064"><ele>481.0</ele><time>2026-04-07T08:01:59.932Z</time></trkpt><trkpt lat="44.1463358" lon="10.4135686"><ele>478.0</ele><time>2026-04-07T08:02:02.912Z</time></trkpt><trkpt lat="44.1462428" lon="10.4135814"><ele>475.0</ele><time>2026-04-07T08:02:04.921Z</time></trkpt><trkpt lat="44.1461742" lon="10.4135752"><ele>472.00000000000006</ele><time>2026-04-07T08:02:06.919Z</time></trkpt><trkpt lat="44.1461035" lon="10.4135507"><ele>469.0</ele><time>2026-04-07T08:02:09.926Z</time></trkpt><trkpt lat="44.1460842" lon="10.4136536"><ele>469.00000000000006</ele><time>2026-04-07T08:02:13.92Z</time></trkpt><trkpt lat="44.1460098" lon="10.4136859"><ele>469.0</ele><time>2026-04-07T08:02:17.92Z</time></trkpt><trkpt lat="44.1459235" lon="10.4137099"><ele>469.0</ele><time>2026-04-07T08:02:21.93Z</time></trkpt><trkpt lat="44.1458454" lon="10.4137017"><ele>469.0</ele><time>2026-04-07T08:02:23.926Z</time></trkpt><trkpt lat="44.1457566" lon="10.4136891"><ele>469.00000000000006</ele><time>2026-04-07T08:02:25.92Z</time></trkpt><trkpt lat="44.1456723" lon="10.4137508"><ele>469.0</ele><time>2026-04-07T08:02:27.912Z</time></trkpt><trkpt lat="44.1456101" lon="10.4138607"><ele>463.0</ele><time>2026-04-07T08:02:30.941Z</time></trkpt><trkpt lat="44.1456076" lon="10.4139902"><ele>457.0</ele><time>2026-04-07T08:02:32.933Z</time></trkpt><trkpt lat="44.1455741" lon="10.4141364"><ele>451.0</ele><time>2026-04-07T08:02:34.918Z</time></trkpt><trkpt lat="44.1455308" lon="10.4142307"><ele>445.0</ele><time>2026-04-07T08:02:35.93Z</time></trkpt><trkpt lat="44.145481" lon="10.4143701"><ele>439.0</ele><time>2026-04-07T08:02:37.927Z</time></trkpt><trkpt lat="44.1454348" lon="10.4145142"><ele>439.00000000000006</ele><time>2026-04-07T08:02:39.931Z</time></trkpt><trkpt lat="44.1453813" lon="10.4146437"><ele>439.0</ele><time>2026-04-07T08:02:41.923Z</time></trkpt><trkpt lat="44.1453382" lon="10.4147377"><ele>439.0</ele><time>2026-04-07T08:02:43.924Z</time></trkpt><trkpt lat="44.1452893" lon="10.4148256"><ele>439.0</ele><time>2026-04-07T08:02:45.924Z</time></trkpt><trkpt lat="44.1452235" lon="10.4148655"><ele>439.00000000000006</ele><time>2026-04-07T08:02:47.937Z</time></trkpt><trkpt lat="44.1451598" lon="10.4149048"><ele>439.0</ele><time>2026-04-07T08:02:49.931Z</time></trkpt><trkpt lat="44.1450884" lon="10.4149717"><ele>437.33333333333337</ele><time>2026-04-07T08:02:52.939Z</time></trkpt><trkpt lat="44.1450126" lon="10.4150088"><ele>435.6666666666667</ele><time>2026-04-07T08:02:55.943Z</time></trkpt><trkpt lat="44.144958" lon="10.4150544"><ele>434.0</ele><time>2026-04-07T08:02:58.931Z</time></trkpt><trkpt lat="44.144893" lon="10.4150053"><ele>432.33333333333337</ele><time>2026-04-07T08:03:02.919Z</time></trkpt><trkpt lat="44.1447836" lon="10.4149498"><ele>430.6666666666667</ele><time>2026-04-07T08:03:05.93Z</time></trkpt><trkpt lat="44.1446909" lon="10.4149207"><ele>429.0</ele><time>2026-04-07T08:03:07.924Z</time></trkpt><trkpt lat="44.1446226" lon="10.414887"><ele>427.3333333333333</ele><time>2026-04-07T08:03:09.921Z</time></trkpt><trkpt lat="44.1445596" lon="10.4148701"><ele>425.66666666666663</ele><time>2026-04-07T08:03:11.927Z</time></trkpt><trkpt lat="44.1444779" lon="10.4148367"><ele>424.0</ele><time>2026-04-07T08:03:14.921Z</time></trkpt><trkpt lat="44.1443972" lon="10.4148026"><ele>422.3333333333333</ele><time>2026-04-07T08:03:18.928Z</time></trkpt><trkpt lat="44.1443288" lon="10.4147729"><ele>420.66666666666663</ele><time>2026-04-07T08:03:21.932Z</time></trkpt><trkpt lat="44.1442517" lon="10.41476"><ele>419.0</ele><time>2026-04-07T08:03:24.926Z</time></trkpt><trkpt lat="44.1441957" lon="10.4148538"><ele>419.0</ele><time>2026-04-07T08:03:26.919Z</time></trkpt><trkpt lat="44.144144" lon="10.4149287"><ele>419.0</ele><time>2026-04-07T08:03:29.914Z</time></trkpt><trkpt lat="44.1440932" lon="10.4150094"><ele>419.0</ele><time>2026-04-07T08:03:31.934Z</time></trkpt><trkpt lat="44.1440082" lon="10.4150668"><ele>419.0</ele><time>2026-04-07T08:03:33.931Z</time></trkpt><trkpt lat="44.1438978" lon="10.4150366"><ele>419.0</ele><time>2026-04-07T08:03:35.928Z</time></trkpt><trkpt lat="44.1437712" lon="10.4149955"><ele>418.3333333333333</ele><time>2026-04-07T08:03:37.941Z</time></trkpt><trkpt lat="44.1437025" lon="10.4149665"><ele>417.66666666666663</ele><time>2026-04-07T08:03:38.931Z</time></trkpt><trkpt lat="44.1436306" lon="10.4149362"><ele>417.0</ele><time>2026-04-07T08:03:39.931Z</time></trkpt><trkpt lat="44.1435565" lon="10.4149166"><ele>416.33333333333337</ele><time>2026-04-07T08:03:40.932Z</time></trkpt><trkpt lat="44.14348" lon="10.4148952"><ele>415.6666666666667</ele><time>2026-04-07T08:03:41.925Z</time></trkpt><trkpt lat="44.1434005" lon="10.4148659"><ele>415.0</ele><time>2026-04-07T08:03:42.925Z</time></trkpt><trkpt lat="44.1433197" lon="10.4148403"><ele>415.0</ele><time>2026-04-07T08:03:43.923Z</time></trkpt><trkpt lat="44.1432287" lon="10.414833"><ele>415.0</ele><time>2026-04-07T08:03:44.921Z</time></trkpt><trkpt lat="44.1431345" lon="10.4148446"><ele>415.0</ele><time>2026-04-07T08:03:45.922Z</time></trkpt><trkpt lat="44.143037" lon="10.4148677"><ele>415.0</ele><time>2026-04-07T08:03:46.928Z</time></trkpt><trkpt lat="44.1429421" lon="10.4148903"><ele>415.0</ele><time>2026-04-07T08:03:47.926Z</time></trkpt><trkpt lat="44.1428389" lon="10.4149139"><ele>412.6</ele><time>2026-04-07T08:03:48.928Z</time></trkpt><trkpt lat="44.1427316" lon="10.4149262"><ele>410.2</ele><time>2026-04-07T08:03:49.931Z</time></trkpt><trkpt lat="44.1426227" lon="10.4149263"><ele>407.79999999999995</ele><time>2026-04-07T08:03:50.928Z</time></trkpt><trkpt lat="44.1425117" lon="10.4149183"><ele>405.4</ele><time>2026-04-07T08:03:51.924Z</time></trkpt><trkpt lat="44.1423971" lon="10.4148938"><ele>403.0</ele><time>2026-04-07T08:03:52.929Z</time></trkpt><trkpt lat="44.14228" lon="10.4148699"><ele>401.5</ele><time>2026-04-07T08:03:53.944Z</time></trkpt><trkpt lat="44.1421613" lon="10.4148439"><ele>400.0</ele><time>2026-04-07T08:03:54.93Z</time></trkpt><trkpt lat="44.1420441" lon="10.4148181"><ele>398.5</ele><time>2026-04-07T08:03:55.934Z</time></trkpt><trkpt lat="44.1419267" lon="10.4148045"><ele>397.0</ele><time>2026-04-07T08:03:56.931Z</time></trkpt><trkpt lat="44.1418094" lon="10.41481"><ele>397.0</ele><time>2026-04-07T08:03:57.934Z</time></trkpt><trkpt lat="44.1416992" lon="10.4148309"><ele>397.0</ele><time>2026-04-07T08:03:58.941Z</time></trkpt><trkpt lat="44.1415953" lon="10.4148583"><ele>397.0</ele><time>2026-04-07T08:03:59.928Z</time></trkpt><trkpt lat="44.1414993" lon="10.4148848"><ele>397.0</ele><time>2026-04-07T08:04:00.933Z</time></trkpt><trkpt lat="44.1414103" lon="10.4149045"><ele>397.0</ele><time>2026-04-07T08:04:01.931Z</time></trkpt><trkpt lat="44.141326" lon="10.4149055"><ele>396.33333333333337</ele><time>2026-04-07T08:04:02.93Z</time></trkpt><trkpt lat="44.1412458" lon="10.4148849"><ele>395.6666666666667</ele><time>2026-04-07T08:04:03.942Z</time></trkpt><trkpt lat="44.1411776" lon="10.4148294"><ele>395.0</ele><time>2026-04-07T08:04:04.928Z</time></trkpt><trkpt lat="44.1411279" lon="10.4147481"><ele>394.33333333333337</ele><time>2026-04-07T08:04:05.917Z</time></trkpt><trkpt lat="44.1411014" lon="10.4146497"><ele>393.6666666666667</ele><time>2026-04-07T08:04:06.915Z</time></trkpt><trkpt lat="44.1410894" lon="10.4145412"><ele>393.0</ele><time>2026-04-07T08:04:07.917Z</time></trkpt><trkpt lat="44.1410764" lon="10.4144273"><ele>393.0</ele><time>2026-04-07T08:04:08.918Z</time></trkpt><trkpt lat="44.1410534" lon="10.41432"><ele>393.0</ele><time>2026-04-07T08:04:09.92Z</time></trkpt><trkpt lat="44.1410054" lon="10.4142315"><ele>393.0</ele><time>2026-04-07T08:04:10.922Z</time></trkpt><trkpt lat="44.1409355" lon="10.4141675"><ele>393.0</ele><time>2026-04-07T08:04:11.922Z</time></trkpt><trkpt lat="44.1408541" lon="10.4141425"><ele>393.0</ele><time>2026-04-07T08:04:12.914Z</time></trkpt><trkpt lat="44.1407735" lon="10.4141681"><ele>393.0</ele><time>2026-04-07T08:04:13.916Z</time></trkpt><trkpt lat="44.1407072" lon="10.4142437"><ele>391.0</ele><time>2026-04-07T08:04:14.922Z</time></trkpt><trkpt lat="44.1406665" lon="10.4143507"><ele>389.0</ele><time>2026-04-07T08:04:15.914Z</time></trkpt><trkpt lat="44.14065" lon="10.4144675"><ele>387.0</ele><time>2026-04-07T08:04:16.921Z</time></trkpt><trkpt lat="44.1406497" lon="10.414591"><ele>385.0</ele><time>2026-04-07T08:04:17.917Z</time></trkpt><trkpt lat="44.140652" lon="10.4147118"><ele>383.0</ele><time>2026-04-07T08:04:18.915Z</time></trkpt><trkpt lat="44.1406549" lon="10.4148386"><ele>381.0</ele><time>2026-04-07T08:04:19.922Z</time></trkpt><trkpt lat="44.1406631" lon="10.4149672"><ele>380.5</ele><time>2026-04-07T08:04:20.915Z</time></trkpt><trkpt lat="44.1406717" lon="10.4150911"><ele>380.0</ele><time>2026-04-07T08:04:21.916Z</time></trkpt><trkpt lat="44.1406773" lon="10.4152143"><ele>379.5</ele><time>2026-04-07T08:04:22.919Z</time></trkpt><trkpt lat="44.1406794" lon="10.4153335"><ele>379.0</ele><time>2026-04-07T08:04:23.933Z</time></trkpt><trkpt lat="44.1406831" lon="10.4154546"><ele>378.5</ele><time>2026-04-07T08:04:24.92Z</time></trkpt><trkpt lat="44.1406799" lon="10.4155765"><ele>378.0</ele><time>2026-04-07T08:04:25.922Z</time></trkpt><trkpt lat="44.1406704" lon="10.4156979"><ele>378.0</ele><time>2026-04-07T08:04:26.914Z</time></trkpt><trkpt lat="44.1406513" lon="10.4158125"><ele>378.0</ele><time>2026-04-07T08:04:27.923Z</time></trkpt><trkpt lat="44.1406381" lon="10.4159241"><ele>378.0</ele><time>2026-04-07T08:04:28.924Z</time></trkpt><trkpt lat="44.1406221" lon="10.4160333"><ele>378.0</ele><time>2026-04-07T08:04:29.918Z</time></trkpt><trkpt lat="44.1406072" lon="10.4161351"><ele>378.0</ele><time>2026-04-07T08:04:30.917Z</time></trkpt><trkpt lat="44.1405925" lon="10.416239"><ele>378.0</ele><time>2026-04-07T08:04:31.933Z</time></trkpt><trkpt lat="44.140578" lon="10.4163396"><ele>378.0</ele><time>2026-04-07T08:04:32.942Z</time></trkpt><trkpt lat="44.1405646" lon="10.4164365"><ele>378.0</ele><time>2026-04-07T08:04:33.928Z</time></trkpt><trkpt lat="44.1405548" lon="10.4165337"><ele>378.0</ele><time>2026-04-07T08:04:34.927Z</time></trkpt><trkpt lat="44.1405454" lon="10.4166222"><ele>378.0</ele><time>2026-04-07T08:04:35.916Z</time></trkpt><trkpt lat="44.1405312" lon="10.4167087"><ele>378.0</ele><time>2026-04-07T08:04:36.915Z</time></trkpt><trkpt lat="44.1405055" lon="10.4168747"><ele>378.0</ele><time>2026-04-07T08:04:38.917Z</time></trkpt><trkpt lat="44.1404834" lon="10.417028"><ele>379.0</ele><time>2026-04-07T08:04:40.935Z</time></trkpt><trkpt lat="44.1404652" lon="10.4171756"><ele>380.0</ele><time>2026-04-07T08:04:42.93Z</time></trkpt><trkpt lat="44.1404469" lon="10.4173119"><ele>381.0</ele><time>2026-04-07T08:04:44.931Z</time></trkpt><trkpt lat="44.1404345" lon="10.4174537"><ele>382.0</ele><time>2026-04-07T08:04:46.918Z</time></trkpt><trkpt lat="44.1404111" lon="10.4175838"><ele>383.0</ele><time>2026-04-07T08:04:48.927Z</time></trkpt><trkpt lat="44.1403882" lon="10.4177105"><ele>383.0</ele><time>2026-04-07T08:04:50.92Z</time></trkpt><trkpt lat="44.1403599" lon="10.4178333"><ele>383.0</ele><time>2026-04-07T08:04:52.939Z</time></trkpt><trkpt lat="44.1403075" lon="10.4179441"><ele>383.0</ele><time>2026-04-07T08:04:54.931Z</time></trkpt><trkpt lat="44.1402455" lon="10.4180298"><ele>383.0</ele><time>2026-04-07T08:04:56.917Z</time></trkpt><trkpt lat="44.1401729" lon="10.4180889"><ele>383.0</ele><time>2026-04-07T08:04:58.929Z</time></trkpt><trkpt lat="44.1401002" lon="10.4181203"><ele>383.0</ele><time>2026-04-07T08:05:00.92Z</time></trkpt><trkpt lat="44.140023" lon="10.4181362"><ele>385.1666666666667</ele><time>2026-04-07T08:05:02.921Z</time></trkpt><trkpt lat="44.1399407" lon="10.4181475"><ele>387.33333333333337</ele><time>2026-04-07T08:05:04.925Z</time></trkpt><trkpt lat="44.1398624" lon="10.4181608"><ele>389.5</ele><time>2026-04-07T08:05:06.918Z</time></trkpt><trkpt lat="44.139783" lon="10.4181716"><ele>391.6666666666667</ele><time>2026-04-07T08:05:08.929Z</time></trkpt><trkpt lat="44.1397034" lon="10.4181782"><ele>393.8333333333333</ele><time>2026-04-07T08:05:10.915Z</time></trkpt><trkpt lat="44.1396254" lon="10.4181859"><ele>396.0</ele><time>2026-04-07T08:05:12.918Z</time></trkpt><trkpt lat="44.1395464" lon="10.418191"><ele>396.0</ele><time>2026-04-07T08:05:14.92Z</time></trkpt><trkpt lat="44.1394682" lon="10.4182003"><ele>396.0</ele><time>2026-04-07T08:05:16.915Z</time></trkpt><trkpt lat="44.1393889" lon="10.4182055"><ele>396.0</ele><time>2026-04-07T08:05:18.93Z</time></trkpt><trkpt lat="44.1393082" lon="10.4181975"><ele>396.0</ele><time>2026-04-07T08:05:20.928Z</time></trkpt><trkpt lat="44.1392285" lon="10.4181849"><ele>396.0</ele><time>2026-04-07T08:05:22.936Z</time></trkpt><trkpt lat="44.1391457" lon="10.4181708"><ele>396.0</ele><time>2026-04-07T08:05:24.925Z</time></trkpt><trkpt lat="44.1390617" lon="10.4181585"><ele>397.0</ele><time>2026-04-07T08:05:26.93Z</time></trkpt><trkpt lat="44.1389854" lon="10.418159"><ele>398.0</ele><time>2026-04-07T08:05:28.936Z</time></trkpt><trkpt lat="44.1389098" lon="10.4181693"><ele>399.0</ele><time>2026-04-07T08:05:30.931Z</time></trkpt><trkpt lat="44.1388344" lon="10.4181857"><ele>400.0</ele><time>2026-04-07T08:05:32.937Z</time></trkpt><trkpt lat="44.1387609" lon="10.4181858"><ele>401.0</ele><time>2026-04-07T08:05:34.937Z</time></trkpt><trkpt lat="44.138689" lon="10.418186"><ele>402.0</ele><time>2026-04-07T08:05:36.91Z</time></trkpt><trkpt lat="44.1386181" lon="10.4181827"><ele>403.0</ele><time>2026-04-07T08:05:38.936Z</time></trkpt><trkpt lat="44.1385493" lon="10.4181782"><ele>403.0</ele><time>2026-04-07T08:05:40.937Z</time></trkpt><trkpt lat="44.1384796" lon="10.4181716"><ele>403.0</ele><time>2026-04-07T08:05:42.917Z</time></trkpt><trkpt lat="44.1384082" lon="10.4181566"><ele>403.0</ele><time>2026-04-07T08:05:44.917Z</time></trkpt><trkpt lat="44.1383397" lon="10.4181322"><ele>403.0</ele><time>2026-04-07T08:05:46.924Z</time></trkpt><trkpt lat="44.1382732" lon="10.4181035"><ele>403.0</ele><time>2026-04-07T08:05:48.933Z</time></trkpt><trkpt lat="44.138208" lon="10.4180665"><ele>403.0</ele><time>2026-04-07T08:05:50.923Z</time></trkpt><trkpt lat="44.1381408" lon="10.418027"><ele>403.0</ele><time>2026-04-07T08:05:52.928Z</time></trkpt><trkpt lat="44.1380821" lon="10.4179915"><ele>402.5714285714286</ele><time>2026-04-07T08:05:54.922Z</time></trkpt><trkpt lat="44.1380169" lon="10.4179472"><ele>402.1428571428571</ele><time>2026-04-07T08:05:56.913Z</time></trkpt><trkpt lat="44.137957" lon="10.4178929"><ele>401.7142857142857</ele><time>2026-04-07T08:05:58.919Z</time></trkpt><trkpt lat="44.1378998" lon="10.4178311"><ele>401.28571428571433</ele><time>2026-04-07T08:06:00.923Z</time></trkpt><trkpt lat="44.1378442" lon="10.4177682"><ele>400.8571428571429</ele><time>2026-04-07T08:06:02.934Z</time></trkpt><trkpt lat="44.1377867" lon="10.4177077"><ele>400.42857142857144</ele><time>2026-04-07T08:06:04.932Z</time></trkpt><trkpt lat="44.1377305" lon="10.4176476"><ele>400.0</ele><time>2026-04-07T08:06:06.925Z</time></trkpt><trkpt lat="44.1376749" lon="10.4175847"><ele>400.00000000000006</ele><time>2026-04-07T08:06:08.931Z</time></trkpt><trkpt lat="44.1376196" lon="10.417521"><ele>400.0</ele><time>2026-04-07T08:06:10.925Z</time></trkpt><trkpt lat="44.1375631" lon="10.4174582"><ele>400.0</ele><time>2026-04-07T08:06:12.918Z</time></trkpt><trkpt lat="44.1375048" lon="10.4174004"><ele>400.0</ele><time>2026-04-07T08:06:14.916Z</time></trkpt><trkpt lat="44.1374481" lon="10.4173432"><ele>400.0</ele><time>2026-04-07T08:06:16.922Z</time></trkpt><trkpt lat="44.1373962" lon="10.4172866"><ele>400.00000000000006</ele><time>2026-04-07T08:06:18.918Z</time></trkpt><trkpt lat="44.1373407" lon="10.4172233"><ele>400.0</ele><time>2026-04-07T08:06:20.933Z</time></trkpt><trkpt lat="44.1372757" lon="10.417144"><ele>398.5</ele><time>2026-04-07T08:06:22.95Z</time></trkpt><trkpt lat="44.1371965" lon="10.4170613"><ele>397.0</ele><time>2026-04-07T08:06:24.922Z</time></trkpt><trkpt lat="44.1371074" lon="10.4169644"><ele>395.5</ele><time>2026-04-07T08:06:26.929Z</time></trkpt><trkpt lat="44.1370144" lon="10.4168581"><ele>394.0</ele><time>2026-04-07T08:06:28.934Z</time></trkpt><trkpt lat="44.1369079" lon="10.4167529"><ele>394.0</ele><time>2026-04-07T08:06:30.93Z</time></trkpt><trkpt lat="44.1368557" lon="10.4166988"><ele>394.0</ele><time>2026-04-07T08:06:31.939Z</time></trkpt><trkpt lat="44.1368016" lon="10.4166407"><ele>394.0</ele><time>2026-04-07T08:06:32.924Z</time></trkpt><trkpt lat="44.136748" lon="10.4165846"><ele>394.0</ele><time>2026-04-07T08:06:33.926Z</time></trkpt><trkpt lat="44.1366903" lon="10.4165249"><ele>394.0</ele><time>2026-04-07T08:06:34.924Z</time></trkpt><trkpt lat="44.1366295" lon="10.4164648"><ele>394.0</ele><time>2026-04-07T08:06:35.922Z</time></trkpt><trkpt lat="44.1365681" lon="10.4164067"><ele>394.0</ele><time>2026-04-07T08:06:36.924Z</time></trkpt><trkpt lat="44.1365046" lon="10.4163446"><ele>393.00000000000006</ele><time>2026-04-07T08:06:37.924Z</time></trkpt><trkpt lat="44.1364413" lon="10.4162791"><ele>392.0</ele><time>2026-04-07T08:06:38.923Z</time></trkpt><trkpt lat="44.1363748" lon="10.4162165"><ele>391.0</ele><time>2026-04-07T08:06:39.924Z</time></trkpt><trkpt lat="44.1363011" lon="10.416159"><ele>390.0</ele><time>2026-04-07T08:06:40.919Z</time></trkpt><trkpt lat="44.1362268" lon="10.4161064"><ele>389.00000000000006</ele><time>2026-04-07T08:06:41.942Z</time></trkpt><trkpt lat="44.1361495" lon="10.4160565"><ele>388.0</ele><time>2026-04-07T08:06:42.922Z</time></trkpt><trkpt lat="44.1360669" lon="10.4160123"><ele>388.0</ele><time>2026-04-07T08:06:43.93Z</time></trkpt><trkpt lat="44.1359831" lon="10.4159731"><ele>388.0</ele><time>2026-04-07T08:06:44.935Z</time></trkpt><trkpt lat="44.1358979" lon="10.4159408"><ele>388.0</ele><time>2026-04-07T08:06:45.92Z</time></trkpt><trkpt lat="44.1358132" lon="10.4159067"><ele>388.0</ele><time>2026-04-07T08:06:46.921Z</time></trkpt><trkpt lat="44.135725" lon="10.4158644"><ele>388.0</ele><time>2026-04-07T08:06:47.927Z</time></trkpt><trkpt lat="44.1356353" lon="10.4158254"><ele>387.2</ele><time>2026-04-07T08:06:48.94Z</time></trkpt><trkpt lat="44.1355442" lon="10.415784"><ele>386.4</ele><time>2026-04-07T08:06:49.936Z</time></trkpt><trkpt lat="44.1354531" lon="10.4157421"><ele>385.59999999999997</ele><time>2026-04-07T08:06:50.929Z</time></trkpt><trkpt lat="44.1353627" lon="10.415706"><ele>384.79999999999995</ele><time>2026-04-07T08:06:51.926Z</time></trkpt><trkpt lat="44.1352716" lon="10.4156649"><ele>384.0</ele><time>2026-04-07T08:06:52.926Z</time></trkpt><trkpt lat="44.1351788" lon="10.4156221"><ele>384.0</ele><time>2026-04-07T08:06:53.934Z</time></trkpt><trkpt lat="44.1350839" lon="10.4155752"><ele>384.0</ele><time>2026-04-07T08:06:54.942Z</time></trkpt><trkpt lat="44.134991" lon="10.4155266"><ele>384.0</ele><time>2026-04-07T08:06:55.923Z</time></trkpt><trkpt lat="44.1349005" lon="10.4154655"><ele>384.0</ele><time>2026-04-07T08:06:56.948Z</time></trkpt><trkpt lat="44.1348124" lon="10.4153919"><ele>384.0</ele><time>2026-04-07T08:06:57.922Z</time></trkpt><trkpt lat="44.134729" lon="10.415307"><ele>383.6</ele><time>2026-04-07T08:06:58.924Z</time></trkpt><trkpt lat="44.1346464" lon="10.4152205"><ele>383.2</ele><time>2026-04-07T08:06:59.923Z</time></trkpt><trkpt lat="44.1345649" lon="10.4151259"><ele>382.8</ele><time>2026-04-07T08:07:00.938Z</time></trkpt><trkpt lat="44.134483" lon="10.4150343"><ele>382.40000000000003</ele><time>2026-04-07T08:07:01.923Z</time></trkpt><trkpt lat="44.1344032" lon="10.4149435"><ele>382.0</ele><time>2026-04-07T08:07:02.936Z</time></trkpt><trkpt lat="44.1343225" lon="10.4148516"><ele>382.0</ele><time>2026-04-07T08:07:03.936Z</time></trkpt><trkpt lat="44.1342404" lon="10.4147589"><ele>382.0</ele><time>2026-04-07T08:07:04.924Z</time></trkpt><trkpt lat="44.1341601" lon="10.414668"><ele>382.0</ele><time>2026-04-07T08:07:05.927Z</time></trkpt><trkpt lat="44.13408" lon="10.4145776"><ele>382.0</ele><time>2026-04-07T08:07:06.942Z</time></trkpt><trkpt lat="44.1339963" lon="10.4144949"><ele>382.0</ele><time>2026-04-07T08:07:07.941Z</time></trkpt><trkpt lat="44.1339133" lon="10.4144081"><ele>381.20000000000005</ele><time>2026-04-07T08:07:08.934Z</time></trkpt><trkpt lat="44.1338327" lon="10.4143137"><ele>380.4</ele><time>2026-04-07T08:07:09.944Z</time></trkpt><trkpt lat="44.1337555" lon="10.4142287"><ele>379.6</ele><time>2026-04-07T08:07:10.926Z</time></trkpt><trkpt lat="44.1336766" lon="10.4141415"><ele>378.79999999999995</ele><time>2026-04-07T08:07:11.92Z</time></trkpt><trkpt lat="44.1335948" lon="10.4140538"><ele>378.0</ele><time>2026-04-07T08:07:12.921Z</time></trkpt><trkpt lat="44.1335191" lon="10.4139825"><ele>378.0</ele><time>2026-04-07T08:07:13.926Z</time></trkpt><trkpt lat="44.1334394" lon="10.4139217"><ele>378.0</ele><time>2026-04-07T08:07:14.929Z</time></trkpt><trkpt lat="44.1333578" lon="10.4138713"><ele>378.0</ele><time>2026-04-07T08:07:15.917Z</time></trkpt><trkpt lat="44.1332646" lon="10.4138201"><ele>378.0</ele><time>2026-04-07T08:07:16.934Z</time></trkpt><trkpt lat="44.1331746" lon="10.4137774"><ele>378.0</ele><time>2026-04-07T08:07:17.928Z</time></trkpt><trkpt lat="44.1330831" lon="10.4137324"><ele>377.0</ele><time>2026-04-07T08:07:18.93Z</time></trkpt><trkpt lat="44.1329876" lon="10.4136884"><ele>376.0</ele><time>2026-04-07T08:07:19.941Z</time></trkpt><trkpt lat="44.1328951" lon="10.4136499"><ele>375.0</ele><time>2026-04-07T08:07:20.938Z</time></trkpt><trkpt lat="44.1327995" lon="10.4136085"><ele>374.0</ele><time>2026-04-07T08:07:21.935Z</time></trkpt><trkpt lat="44.1327042" lon="10.4135688"><ele>373.0</ele><time>2026-04-07T08:07:22.932Z</time></trkpt><trkpt lat="44.1326055" lon="10.4135269"><ele>373.0</ele><time>2026-04-07T08:07:23.945Z</time></trkpt><trkpt lat="44.1325097" lon="10.4134825"><ele>373.0</ele><time>2026-04-07T08:07:24.939Z</time></trkpt><trkpt lat="44.1324104" lon="10.4134395"><ele>373.0</ele><time>2026-04-07T08:07:25.923Z</time></trkpt><trkpt lat="44.1323099" lon="10.4134025"><ele>373.0</ele><time>2026-04-07T08:07:26.921Z</time></trkpt><trkpt lat="44.1322038" lon="10.4133597"><ele>373.0</ele><time>2026-04-07T08:07:27.932Z</time></trkpt><trkpt lat="44.1321027" lon="10.4133199"><ele>372.0</ele><time>2026-04-07T08:07:28.924Z</time></trkpt><trkpt lat="44.1320004" lon="10.4132751"><ele>371.0</ele><time>2026-04-07T08:07:29.941Z</time></trkpt><trkpt lat="44.1318971" lon="10.4132356"><ele>370.0</ele><time>2026-04-07T08:07:30.946Z</time></trkpt><trkpt lat="44.1317929" lon="10.4131919"><ele>369.0</ele><time>2026-04-07T08:07:31.928Z</time></trkpt><trkpt lat="44.1316944" lon="10.4131413"><ele>368.0</ele><time>2026-04-07T08:07:32.93Z</time></trkpt><trkpt lat="44.1316061" lon="10.4130964"><ele>367.59999999999997</ele><time>2026-04-07T08:07:33.916Z</time></trkpt><trkpt lat="44.1315226" lon="10.4130459"><ele>367.2</ele><time>2026-04-07T08:07:34.933Z</time></trkpt><trkpt lat="44.1314381" lon="10.4129926"><ele>366.8</ele><time>2026-04-07T08:07:35.94Z</time></trkpt><trkpt lat="44.1313546" lon="10.4129375"><ele>366.4</ele><time>2026-04-07T08:07:36.934Z</time></trkpt><trkpt lat="44.1312725" lon="10.4128803"><ele>366.0</ele><time>2026-04-07T08:07:37.929Z</time></trkpt><trkpt lat="44.131191" lon="10.4128238"><ele>365.6</ele><time>2026-04-07T08:07:38.926Z</time></trkpt><trkpt lat="44.1311085" lon="10.4127701"><ele>365.20000000000005</ele><time>2026-04-07T08:07:39.922Z</time></trkpt><trkpt lat="44.1310237" lon="10.4127146"><ele>364.79999999999995</ele><time>2026-04-07T08:07:40.933Z</time></trkpt><trkpt lat="44.1309416" lon="10.4126534"><ele>364.4</ele><time>2026-04-07T08:07:41.933Z</time></trkpt><trkpt lat="44.1308631" lon="10.4125994"><ele>364.0</ele><time>2026-04-07T08:07:42.923Z</time></trkpt><trkpt lat="44.1307778" lon="10.4125396"><ele>363.79999999999995</ele><time>2026-04-07T08:07:43.927Z</time></trkpt><trkpt lat="44.1306961" lon="10.4124754"><ele>363.59999999999997</ele><time>2026-04-07T08:07:44.933Z</time></trkpt><trkpt lat="44.1306121" lon="10.412415"><ele>363.4</ele><time>2026-04-07T08:07:45.919Z</time></trkpt><trkpt lat="44.130523" lon="10.4123567"><ele>363.2</ele><time>2026-04-07T08:07:46.92Z</time></trkpt><trkpt lat="44.1304364" lon="10.412299"><ele>363.0</ele><time>2026-04-07T08:07:47.929Z</time></trkpt><trkpt lat="44.1303482" lon="10.4122421"><ele>363.0</ele><time>2026-04-07T08:07:48.928Z</time></trkpt><trkpt lat="44.1302623" lon="10.4121867"><ele>363.0</ele><time>2026-04-07T08:07:49.942Z</time></trkpt><trkpt lat="44.1301818" lon="10.412131"><ele>363.0</ele><time>2026-04-07T08:07:50.938Z</time></trkpt><trkpt lat="44.1300991" lon="10.4120684"><ele>363.0</ele><time>2026-04-07T08:07:51.941Z</time></trkpt><trkpt lat="44.1300121" lon="10.412014"><ele>363.0</ele><time>2026-04-07T08:07:52.943Z</time></trkpt><trkpt lat="44.1299302" lon="10.4119596"><ele>361.4</ele><time>2026-04-07T08:07:53.935Z</time></trkpt><trkpt lat="44.129844" lon="10.4119062"><ele>359.79999999999995</ele><time>2026-04-07T08:07:54.921Z</time></trkpt><trkpt lat="44.1297624" lon="10.4118634"><ele>358.2</ele><time>2026-04-07T08:07:55.938Z</time></trkpt><trkpt lat="44.1296757" lon="10.4118288"><ele>356.6</ele><time>2026-04-07T08:07:56.936Z</time></trkpt><trkpt lat="44.1295886" lon="10.4117983"><ele>355.0</ele><time>2026-04-07T08:07:57.936Z</time></trkpt><trkpt lat="44.1294993" lon="10.4117661"><ele>355.0</ele><time>2026-04-07T08:07:58.942Z</time></trkpt><trkpt lat="44.1294093" lon="10.4117265"><ele>355.0</ele><time>2026-04-07T08:07:59.932Z</time></trkpt><trkpt lat="44.1293169" lon="10.4116872"><ele>355.0</ele><time>2026-04-07T08:08:00.935Z</time></trkpt><trkpt lat="44.1292377" lon="10.4116594"><ele>355.0</ele><time>2026-04-07T08:08:01.934Z</time></trkpt><trkpt lat="44.1291686" lon="10.4116302"><ele>355.0</ele><time>2026-04-07T08:08:02.927Z</time></trkpt><trkpt lat="44.1291078" lon="10.4116063"><ele>355.0</ele><time>2026-04-07T08:08:03.945Z</time></trkpt><trkpt lat="44.1290232" lon="10.4115266"><ele>354.6</ele><time>2026-04-07T08:08:05.95Z</time></trkpt><trkpt lat="44.1289708" lon="10.411401"><ele>354.2</ele><time>2026-04-07T08:08:07.941Z</time></trkpt><trkpt lat="44.128878" lon="10.4113604"><ele>353.79999999999995</ele><time>2026-04-07T08:08:09.936Z</time></trkpt><trkpt lat="44.1287797" lon="10.4113756"><ele>353.4</ele><time>2026-04-07T08:08:11.937Z</time></trkpt><trkpt lat="44.1286744" lon="10.4113637"><ele>353.0</ele><time>2026-04-07T08:08:13.924Z</time></trkpt><trkpt lat="44.1285632" lon="10.4113541"><ele>353.0</ele><time>2026-04-07T08:08:15.927Z</time></trkpt><trkpt lat="44.1284397" lon="10.4113552"><ele>353.0</ele><time>2026-04-07T08:08:17.928Z</time></trkpt><trkpt lat="44.1283139" lon="10.4113298"><ele>353.0</ele><time>2026-04-07T08:08:19.942Z</time></trkpt><trkpt lat="44.1282474" lon="10.4113086"><ele>353.0</ele><time>2026-04-07T08:08:20.938Z</time></trkpt><trkpt lat="44.1281846" lon="10.4112831"><ele>353.0</ele><time>2026-04-07T08:08:21.928Z</time></trkpt><trkpt lat="44.1281196" lon="10.4112641"><ele>352.57142857142856</ele><time>2026-04-07T08:08:22.934Z</time></trkpt><trkpt lat="44.1280576" lon="10.4112398"><ele>352.14285714285717</ele><time>2026-04-07T08:08:23.937Z</time></trkpt><trkpt lat="44.1279954" lon="10.4112156"><ele>351.7142857142857</ele><time>2026-04-07T08:08:24.956Z</time></trkpt><trkpt lat="44.1279305" lon="10.4111898"><ele>351.2857142857143</ele><time>2026-04-07T08:08:25.94Z</time></trkpt><trkpt lat="44.1278698" lon="10.4111648"><ele>350.8571428571429</ele><time>2026-04-07T08:08:26.923Z</time></trkpt><trkpt lat="44.1278089" lon="10.4111391"><ele>350.42857142857144</ele><time>2026-04-07T08:08:27.926Z</time></trkpt><trkpt lat="44.1277436" lon="10.411118"><ele>350.0</ele><time>2026-04-07T08:08:28.954Z</time></trkpt><trkpt lat="44.1276825" lon="10.4110952"><ele>350.0</ele><time>2026-04-07T08:08:29.93Z</time></trkpt><trkpt lat="44.1276172" lon="10.4110763"><ele>350.0</ele><time>2026-04-07T08:08:30.947Z</time></trkpt><trkpt lat="44.1275537" lon="10.4110591"><ele>350.0</ele><time>2026-04-07T08:08:31.926Z</time></trkpt><trkpt lat="44.1274896" lon="10.4110394"><ele>350.0</ele><time>2026-04-07T08:08:32.941Z</time></trkpt><trkpt lat="44.1274278" lon="10.4110203"><ele>350.0</ele><time>2026-04-07T08:08:33.93Z</time></trkpt><trkpt lat="44.1273651" lon="10.4109994"><ele>350.0</ele><time>2026-04-07T08:08:34.921Z</time></trkpt><trkpt lat="44.1272991" lon="10.4109809"><ele>350.0</ele><time>2026-04-07T08:08:35.932Z</time></trkpt><trkpt lat="44.1271754" lon="10.4109453"><ele>349.8</ele><time>2026-04-07T08:08:37.926Z</time></trkpt><trkpt lat="44.1271101" lon="10.4109279"><ele>349.6</ele><time>2026-04-07T08:08:38.935Z</time></trkpt><trkpt lat="44.126991" lon="10.4108957"><ele>349.4</ele><time>2026-04-07T08:08:40.927Z</time></trkpt><trkpt lat="44.1269273" lon="10.4108775"><ele>349.2</ele><time>2026-04-07T08:08:41.922Z</time></trkpt><trkpt lat="44.1268007" lon="10.4108381"><ele>349.0</ele><time>2026-04-07T08:08:43.944Z</time></trkpt><trkpt lat="44.126735" lon="10.410819"><ele>349.0</ele><time>2026-04-07T08:08:44.924Z</time></trkpt><trkpt lat="44.1266677" lon="10.4108051"><ele>349.0</ele><time>2026-04-07T08:08:45.923Z</time></trkpt><trkpt lat="44.1266022" lon="10.4107872"><ele>349.0</ele><time>2026-04-07T08:08:46.928Z</time></trkpt><trkpt lat="44.1264924" lon="10.4107591"><ele>349.0</ele><time>2026-04-07T08:08:48.933Z</time></trkpt><trkpt lat="44.1264239" lon="10.4107363"><ele>349.0</ele><time>2026-04-07T08:08:50.95Z</time></trkpt><trkpt lat="44.12634" lon="10.4107178"><ele>349.0</ele><time>2026-04-07T08:09:08.923Z</time></trkpt><trkpt lat="44.1262502" lon="10.4106969"><ele>348.8333333333333</ele><time>2026-04-07T08:09:11.925Z</time></trkpt><trkpt lat="44.1261762" lon="10.4106791"><ele>348.66666666666663</ele><time>2026-04-07T08:09:13.93Z</time></trkpt><trkpt lat="44.1260947" lon="10.4106604"><ele>348.5</ele><time>2026-04-07T08:09:15.914Z</time></trkpt><trkpt lat="44.1260066" lon="10.4106295"><ele>348.3333333333333</ele><time>2026-04-07T08:09:17.925Z</time></trkpt><trkpt lat="44.125913" lon="10.4105877"><ele>348.1666666666667</ele><time>2026-04-07T08:09:19.93Z</time></trkpt><trkpt lat="44.1258156" lon="10.4105624"><ele>348.0</ele><time>2026-04-07T08:09:21.933Z</time></trkpt><trkpt lat="44.1257163" lon="10.4105226"><ele>347.2</ele><time>2026-04-07T08:09:23.931Z</time></trkpt><trkpt lat="44.1256096" lon="10.410473"><ele>346.4</ele><time>2026-04-07T08:09:25.923Z</time></trkpt><trkpt lat="44.125502" lon="10.4104205"><ele>345.59999999999997</ele><time>2026-04-07T08:09:27.926Z</time></trkpt><trkpt lat="44.1253868" lon="10.4103687"><ele>344.79999999999995</ele><time>2026-04-07T08:09:29.919Z</time></trkpt><trkpt lat="44.1253275" lon="10.4103361"><ele>344.0</ele><time>2026-04-07T08:09:30.944Z</time></trkpt><trkpt lat="44.1252356" lon="10.4102743"><ele>344.0</ele><time>2026-04-07T08:09:32.929Z</time></trkpt><trkpt lat="44.1251806" lon="10.4102137"><ele>344.0</ele><time>2026-04-07T08:09:34.916Z</time></trkpt><trkpt lat="44.1251425" lon="10.4101432"><ele>344.0</ele><time>2026-04-07T08:09:36.924Z</time></trkpt><trkpt lat="44.1251065" lon="10.410055"><ele>344.0</ele><time>2026-04-07T08:09:38.933Z</time></trkpt><trkpt lat="44.1250597" lon="10.4099686"><ele>344.0</ele><time>2026-04-07T08:09:40.927Z</time></trkpt><trkpt lat="44.1249905" lon="10.4099058"><ele>344.0</ele><time>2026-04-07T08:09:42.913Z</time></trkpt><trkpt lat="44.124904" lon="10.4098878"><ele>343.2</ele><time>2026-04-07T08:09:44.924Z</time></trkpt><trkpt lat="44.1248151" lon="10.4099053"><ele>342.4</ele><time>2026-04-07T08:09:46.922Z</time></trkpt><trkpt lat="44.124726" lon="10.4099468"><ele>341.6</ele><time>2026-04-07T08:09:48.922Z</time></trkpt><trkpt lat="44.1246346" lon="10.4099714"><ele>340.8</ele><time>2026-04-07T08:09:50.92Z</time></trkpt><trkpt lat="44.1245304" lon="10.4099564"><ele>340.0</ele><time>2026-04-07T08:09:52.922Z</time></trkpt><trkpt lat="44.1244242" lon="10.4099064"><ele>340.0</ele><time>2026-04-07T08:09:54.924Z</time></trkpt><trkpt lat="44.1243142" lon="10.4098478"><ele>340.0</ele><time>2026-04-07T08:09:56.919Z</time></trkpt><trkpt lat="44.1242565" lon="10.4098106"><ele>340.0</ele><time>2026-04-07T08:09:57.939Z</time></trkpt><trkpt lat="44.1241398" lon="10.4097486"><ele>340.0</ele><time>2026-04-07T08:09:59.923Z</time></trkpt><trkpt lat="44.1240798" lon="10.4097178"><ele>340.0</ele><time>2026-04-07T08:10:00.92Z</time></trkpt><trkpt lat="44.1240175" lon="10.4096906"><ele>340.0</ele><time>2026-04-07T08:10:01.921Z</time></trkpt><trkpt lat="44.1239541" lon="10.409664"><ele>339.2857142857143</ele><time>2026-04-07T08:10:02.924Z</time></trkpt><trkpt lat="44.1238894" lon="10.409638"><ele>338.57142857142856</ele><time>2026-04-07T08:10:03.938Z</time></trkpt><trkpt lat="44.1238247" lon="10.409611"><ele>337.85714285714283</ele><time>2026-04-07T08:10:04.92Z</time></trkpt><trkpt lat="44.1237624" lon="10.40959"><ele>337.1428571428571</ele><time>2026-04-07T08:10:05.921Z</time></trkpt><trkpt lat="44.1237008" lon="10.4095711"><ele>336.42857142857144</ele><time>2026-04-07T08:10:06.924Z</time></trkpt><trkpt lat="44.1236379" lon="10.4095526"><ele>335.71428571428567</ele><time>2026-04-07T08:10:07.926Z</time></trkpt><trkpt lat="44.123574" lon="10.4095281"><ele>335.0</ele><time>2026-04-07T08:10:08.933Z</time></trkpt><trkpt lat="44.1235103" lon="10.4095037"><ele>334.99999999999994</ele><time>2026-04-07T08:10:09.927Z</time></trkpt><trkpt lat="44.1234438" lon="10.409481"><ele>335.0</ele><time>2026-04-07T08:10:10.918Z</time></trkpt><trkpt lat="44.1233787" lon="10.4094585"><ele>335.0</ele><time>2026-04-07T08:10:11.911Z</time></trkpt><trkpt lat="44.1233136" lon="10.4094345"><ele>335.0</ele><time>2026-04-07T08:10:12.927Z</time></trkpt><trkpt lat="44.1232493" lon="10.4094122"><ele>335.0</ele><time>2026-04-07T08:10:13.921Z</time></trkpt><trkpt lat="44.123184" lon="10.4093888"><ele>334.99999999999994</ele><time>2026-04-07T08:10:14.918Z</time></trkpt><trkpt lat="44.1231205" lon="10.4093676"><ele>335.0</ele><time>2026-04-07T08:10:15.932Z</time></trkpt><trkpt lat="44.1230555" lon="10.4093504"><ele>334.71428571428567</ele><time>2026-04-07T08:10:16.918Z</time></trkpt><trkpt lat="44.1229903" lon="10.409326"><ele>334.42857142857144</ele><time>2026-04-07T08:10:17.932Z</time></trkpt><trkpt lat="44.1229226" lon="10.409305"><ele>334.1428571428571</ele><time>2026-04-07T08:10:18.942Z</time></trkpt><trkpt lat="44.1228557" lon="10.4092903"><ele>333.85714285714283</ele><time>2026-04-07T08:10:19.926Z</time></trkpt><trkpt lat="44.1227849" lon="10.4092808"><ele>333.57142857142856</ele><time>2026-04-07T08:10:20.936Z</time></trkpt><trkpt lat="44.1227134" lon="10.4092748"><ele>333.2857142857143</ele><time>2026-04-07T08:10:21.94Z</time></trkpt><trkpt lat="44.1226437" lon="10.4092686"><ele>333.0</ele><time>2026-04-07T08:10:22.935Z</time></trkpt><trkpt lat="44.1225731" lon="10.4092615"><ele>333.0</ele><time>2026-04-07T08:10:23.923Z</time></trkpt><trkpt lat="44.1224995" lon="10.4092506"><ele>333.0</ele><time>2026-04-07T08:10:24.931Z</time></trkpt><trkpt lat="44.1224283" lon="10.4092408"><ele>333.0</ele><time>2026-04-07T08:10:25.935Z</time></trkpt><trkpt lat="44.1223541" lon="10.4092342"><ele>333.0</ele><time>2026-04-07T08:10:26.922Z</time></trkpt><trkpt lat="44.1222824" lon="10.4092201"><ele>333.0</ele><time>2026-04-07T08:10:27.923Z</time></trkpt><trkpt lat="44.1222079" lon="10.4091988"><ele>333.0</ele><time>2026-04-07T08:10:28.927Z</time></trkpt><trkpt lat="44.1221321" lon="10.40918"><ele>333.0</ele><time>2026-04-07T08:10:29.926Z</time></trkpt><trkpt lat="44.1220562" lon="10.4091645"><ele>332.5</ele><time>2026-04-07T08:10:30.922Z</time></trkpt><trkpt lat="44.1219798" lon="10.4091516"><ele>332.0</ele><time>2026-04-07T08:10:31.939Z</time></trkpt><trkpt lat="44.1219018" lon="10.4091339"><ele>331.5</ele><time>2026-04-07T08:10:32.92Z</time></trkpt><trkpt lat="44.1218228" lon="10.409118"><ele>331.0</ele><time>2026-04-07T08:10:33.932Z</time></trkpt><trkpt lat="44.1217422" lon="10.4091028"><ele>330.5</ele><time>2026-04-07T08:10:34.919Z</time></trkpt><trkpt lat="44.1216606" lon="10.4090887"><ele>330.0</ele><time>2026-04-07T08:10:35.929Z</time></trkpt><trkpt lat="44.1215808" lon="10.4090753"><ele>329.5</ele><time>2026-04-07T08:10:36.938Z</time></trkpt><trkpt lat="44.1214982" lon="10.409068"><ele>329.0</ele><time>2026-04-07T08:10:37.934Z</time></trkpt><trkpt lat="44.1214145" lon="10.409061"><ele>328.5</ele><time>2026-04-07T08:10:38.926Z</time></trkpt><trkpt lat="44.1213306" lon="10.4090515"><ele>328.0</ele><time>2026-04-07T08:10:39.922Z</time></trkpt><trkpt lat="44.1212433" lon="10.4090457"><ele>327.5</ele><time>2026-04-07T08:10:40.929Z</time></trkpt><trkpt lat="44.1211577" lon="10.4090387"><ele>327.0</ele><time>2026-04-07T08:10:41.926Z</time></trkpt><trkpt lat="44.1210711" lon="10.4090318"><ele>327.0</ele><time>2026-04-07T08:10:42.927Z</time></trkpt><trkpt lat="44.1209833" lon="10.4090289"><ele>327.0</ele><time>2026-04-07T08:10:43.917Z</time></trkpt><trkpt lat="44.1208968" lon="10.4090233"><ele>327.0</ele><time>2026-04-07T08:10:44.927Z</time></trkpt><trkpt lat="44.1208097" lon="10.4090144"><ele>327.0</ele><time>2026-04-07T08:10:45.93Z</time></trkpt><trkpt lat="44.1207274" lon="10.4090076"><ele>327.0</ele><time>2026-04-07T08:10:46.931Z</time></trkpt><trkpt lat="44.1206512" lon="10.4089966"><ele>327.0</ele><time>2026-04-07T08:10:47.927Z</time></trkpt><trkpt lat="44.1205598" lon="10.4089578"><ele>326.6666666666667</ele><time>2026-04-07T08:10:49.943Z</time></trkpt><trkpt lat="44.1205449" lon="10.4088552"><ele>326.3333333333333</ele><time>2026-04-07T08:10:51.922Z</time></trkpt><trkpt lat="44.1205945" lon="10.40875"><ele>326.0</ele><time>2026-04-07T08:10:53.938Z</time></trkpt><trkpt lat="44.1206466" lon="10.4086623"><ele>325.66666666666663</ele><time>2026-04-07T08:10:55.936Z</time></trkpt><trkpt lat="44.1206935" lon="10.4085789"><ele>325.3333333333333</ele><time>2026-04-07T08:10:57.926Z</time></trkpt><trkpt lat="44.1207404" lon="10.4084987"><ele>325.0</ele><time>2026-04-07T08:10:59.924Z</time></trkpt><trkpt lat="44.1207899" lon="10.408417"><ele>325.0</ele><time>2026-04-07T08:11:01.918Z</time></trkpt><trkpt lat="44.1208358" lon="10.4083283"><ele>325.0</ele><time>2026-04-07T08:11:03.917Z</time></trkpt><trkpt lat="44.1208875" lon="10.4082435"><ele>325.0</ele><time>2026-04-07T08:11:05.927Z</time></trkpt><trkpt lat="44.1209459" lon="10.4081743"><ele>325.0</ele><time>2026-04-07T08:11:07.927Z</time></trkpt><trkpt lat="44.1209967" lon="10.4080943"><ele>325.0</ele><time>2026-04-07T08:11:09.918Z</time></trkpt><trkpt lat="44.1210483" lon="10.4080138"><ele>325.0</ele><time>2026-04-07T08:11:11.942Z</time></trkpt><trkpt lat="44.121096" lon="10.4079329"><ele>323.5</ele><time>2026-04-07T08:11:13.922Z</time></trkpt><trkpt lat="44.1211429" lon="10.4078512"><ele>322.0</ele><time>2026-04-07T08:11:15.924Z</time></trkpt><trkpt lat="44.1211933" lon="10.4077759"><ele>320.5</ele><time>2026-04-07T08:11:17.913Z</time></trkpt><trkpt lat="44.1212443" lon="10.4076985"><ele>319.0</ele><time>2026-04-07T08:11:19.925Z</time></trkpt><trkpt lat="44.1212939" lon="10.4076176"><ele>317.5</ele><time>2026-04-07T08:11:21.926Z</time></trkpt><trkpt lat="44.1213399" lon="10.4075331"><ele>316.0</ele><time>2026-04-07T08:11:23.934Z</time></trkpt><trkpt lat="44.1213902" lon="10.4074537"><ele>316.00000000000006</ele><time>2026-04-07T08:11:25.923Z</time></trkpt><trkpt lat="44.1214399" lon="10.4073741"><ele>316.0</ele><time>2026-04-07T08:11:27.926Z</time></trkpt><trkpt lat="44.1214896" lon="10.4072962"><ele>316.0</ele><time>2026-04-07T08:11:29.927Z</time></trkpt><trkpt lat="44.1215361" lon="10.4072185"><ele>316.0</ele><time>2026-04-07T08:11:31.918Z</time></trkpt><trkpt lat="44.121584" lon="10.40714"><ele>316.0</ele><time>2026-04-07T08:11:33.919Z</time></trkpt><trkpt lat="44.121632" lon="10.407064"><ele>316.00000000000006</ele><time>2026-04-07T08:11:35.934Z</time></trkpt><trkpt lat="44.1216797" lon="10.4069873"><ele>316.0</ele><time>2026-04-07T08:11:37.921Z</time></trkpt><trkpt lat="44.1217301" lon="10.4069118"><ele>316.7142857142857</ele><time>2026-04-07T08:11:39.938Z</time></trkpt><trkpt lat="44.1217764" lon="10.4068311"><ele>317.42857142857144</ele><time>2026-04-07T08:11:41.926Z</time></trkpt><trkpt lat="44.1218226" lon="10.4067511"><ele>318.1428571428571</ele><time>2026-04-07T08:11:43.948Z</time></trkpt><trkpt lat="44.1218694" lon="10.4066717"><ele>318.8571428571429</ele><time>2026-04-07T08:11:45.942Z</time></trkpt><trkpt lat="44.1219183" lon="10.4065952"><ele>319.57142857142856</ele><time>2026-04-07T08:11:47.917Z</time></trkpt><trkpt lat="44.1219675" lon="10.4065201"><ele>320.2857142857143</ele><time>2026-04-07T08:11:49.918Z</time></trkpt><trkpt lat="44.1220135" lon="10.4064366"><ele>321.0</ele><time>2026-04-07T08:11:51.929Z</time></trkpt><trkpt lat="44.1220625" lon="10.4063573"><ele>318.6666666666667</ele><time>2026-04-07T08:11:53.92Z</time></trkpt><trkpt lat="44.1221108" lon="10.4062766"><ele>316.3333333333333</ele><time>2026-04-07T08:11:55.936Z</time></trkpt><trkpt lat="44.1221605" lon="10.4061976"><ele>314.0</ele><time>2026-04-07T08:11:57.918Z</time></trkpt><trkpt lat="44.1222089" lon="10.4061145"><ele>311.66666666666663</ele><time>2026-04-07T08:11:59.923Z</time></trkpt><trkpt lat="44.1222575" lon="10.4060329"><ele>309.3333333333333</ele><time>2026-04-07T08:12:01.925Z</time></trkpt><trkpt lat="44.1223062" lon="10.4059516"><ele>307.0</ele><time>2026-04-07T08:12:03.941Z</time></trkpt><trkpt lat="44.1223605" lon="10.4058707"><ele>309.66666666666663</ele><time>2026-04-07T08:12:05.938Z</time></trkpt><trkpt lat="44.1224132" lon="10.405788"><ele>312.3333333333333</ele><time>2026-04-07T08:12:07.928Z</time></trkpt><trkpt lat="44.1224648" lon="10.4057058"><ele>315.0</ele><time>2026-04-07T08:12:09.956Z</time></trkpt><trkpt lat="44.122515" lon="10.4056256"><ele>317.6666666666667</ele><time>2026-04-07T08:12:11.93Z</time></trkpt><trkpt lat="44.1225629" lon="10.4055487"><ele>320.33333333333337</ele><time>2026-04-07T08:12:13.93Z</time></trkpt><trkpt lat="44.1226144" lon="10.4054751"><ele>323.0</ele><time>2026-04-07T08:12:15.923Z</time></trkpt><trkpt lat="44.1226638" lon="10.4054005"><ele>323.00000000000006</ele><time>2026-04-07T08:12:17.922Z</time></trkpt><trkpt lat="44.1227107" lon="10.405324"><ele>323.0</ele><time>2026-04-07T08:12:19.939Z</time></trkpt><trkpt lat="44.122758" lon="10.4052465"><ele>323.0</ele><time>2026-04-07T08:12:21.936Z</time></trkpt><trkpt lat="44.1228049" lon="10.4051673"><ele>323.0</ele><time>2026-04-07T08:12:23.919Z</time></trkpt><trkpt lat="44.1228525" lon="10.4050864"><ele>323.0</ele><time>2026-04-07T08:12:25.925Z</time></trkpt><trkpt lat="44.1229007" lon="10.4050073"><ele>323.00000000000006</ele><time>2026-04-07T08:12:27.925Z</time></trkpt><trkpt lat="44.1229464" lon="10.4049286"><ele>323.0</ele><time>2026-04-07T08:12:29.944Z</time></trkpt><trkpt lat="44.1229906" lon="10.4048472"><ele>323.00000000000006</ele><time>2026-04-07T08:12:31.931Z</time></trkpt><trkpt lat="44.1230402" lon="10.4047708"><ele>323.0</ele><time>2026-04-07T08:12:33.929Z</time></trkpt><trkpt lat="44.1230887" lon="10.4046928"><ele>323.0</ele><time>2026-04-07T08:12:35.925Z</time></trkpt><trkpt lat="44.1231346" lon="10.4046172"><ele>323.0</ele><time>2026-04-07T08:12:37.929Z</time></trkpt><trkpt lat="44.1231824" lon="10.4045419"><ele>323.0</ele><time>2026-04-07T08:12:39.921Z</time></trkpt><trkpt lat="44.1232295" lon="10.4044648"><ele>323.00000000000006</ele><time>2026-04-07T08:12:41.945Z</time></trkpt><trkpt lat="44.123275" lon="10.4043873"><ele>323.0</ele><time>2026-04-07T08:12:43.926Z</time></trkpt><trkpt lat="44.1233191" lon="10.4043093"><ele>323.14285714285717</ele><time>2026-04-07T08:12:45.921Z</time></trkpt><trkpt lat="44.1233645" lon="10.404232"><ele>323.2857142857143</ele><time>2026-04-07T08:12:47.92Z</time></trkpt><trkpt lat="44.123414" lon="10.4041564"><ele>323.42857142857144</ele><time>2026-04-07T08:12:49.927Z</time></trkpt><trkpt lat="44.1234613" lon="10.4040758"><ele>323.57142857142856</ele><time>2026-04-07T08:12:51.934Z</time></trkpt><trkpt lat="44.1235056" lon="10.4039993"><ele>323.7142857142857</ele><time>2026-04-07T08:12:53.925Z</time></trkpt><trkpt lat="44.1235491" lon="10.4039209"><ele>323.8571428571429</ele><time>2026-04-07T08:12:55.929Z</time></trkpt><trkpt lat="44.1235968" lon="10.4038484"><ele>324.0</ele><time>2026-04-07T08:12:57.931Z</time></trkpt><trkpt lat="44.1236418" lon="10.4037677"><ele>323.57142857142856</ele><time>2026-04-07T08:12:59.929Z</time></trkpt><trkpt lat="44.123684" lon="10.4036882"><ele>323.1428571428571</ele><time>2026-04-07T08:13:01.925Z</time></trkpt><trkpt lat="44.123729" lon="10.4036105"><ele>322.71428571428567</ele><time>2026-04-07T08:13:03.937Z</time></trkpt><trkpt lat="44.1237739" lon="10.4035308"><ele>322.2857142857143</ele><time>2026-04-07T08:13:05.926Z</time></trkpt><trkpt lat="44.123823" lon="10.4034531"><ele>321.85714285714283</ele><time>2026-04-07T08:13:07.94Z</time></trkpt><trkpt lat="44.1238719" lon="10.4033772"><ele>321.4285714285714</ele><time>2026-04-07T08:13:09.925Z</time></trkpt><trkpt lat="44.1239177" lon="10.4033"><ele>321.0</ele><time>2026-04-07T08:13:11.924Z</time></trkpt><trkpt lat="44.1239619" lon="10.4032225"><ele>320.99999999999994</ele><time>2026-04-07T08:13:13.932Z</time></trkpt><trkpt lat="44.1240044" lon="10.4031466"><ele>321.0</ele><time>2026-04-07T08:13:15.925Z</time></trkpt><trkpt lat="44.1240474" lon="10.4030701"><ele>321.0</ele><time>2026-04-07T08:13:17.93Z</time></trkpt><trkpt lat="44.124098" lon="10.402995"><ele>321.0</ele><time>2026-04-07T08:13:19.92Z</time></trkpt><trkpt lat="44.124149" lon="10.4029199"><ele>321.0</ele><time>2026-04-07T08:13:21.929Z</time></trkpt><trkpt lat="44.1241966" lon="10.4028419"><ele>320.99999999999994</ele><time>2026-04-07T08:13:23.941Z</time></trkpt><trkpt lat="44.1242432" lon="10.402762"><ele>321.0</ele><time>2026-04-07T08:13:25.94Z</time></trkpt><trkpt lat="44.1242918" lon="10.4026806"><ele>321.1428571428571</ele><time>2026-04-07T08:13:27.931Z</time></trkpt><trkpt lat="44.1243395" lon="10.4025991"><ele>321.2857142857143</ele><time>2026-04-07T08:13:29.923Z</time></trkpt><trkpt lat="44.1243895" lon="10.402521"><ele>321.42857142857144</ele><time>2026-04-07T08:13:31.926Z</time></trkpt><trkpt lat="44.1244384" lon="10.4024451"><ele>321.57142857142856</ele><time>2026-04-07T08:13:33.941Z</time></trkpt><trkpt lat="44.1244884" lon="10.4023686"><ele>321.7142857142857</ele><time>2026-04-07T08:13:35.921Z</time></trkpt><trkpt lat="44.1245359" lon="10.4022917"><ele>321.85714285714283</ele><time>2026-04-07T08:13:37.931Z</time></trkpt><trkpt lat="44.124586" lon="10.402214"><ele>322.0</ele><time>2026-04-07T08:13:39.943Z</time></trkpt><trkpt lat="44.1246349" lon="10.4021378"><ele>322.2857142857143</ele><time>2026-04-07T08:13:41.935Z</time></trkpt><trkpt lat="44.1246844" lon="10.4020587"><ele>322.57142857142856</ele><time>2026-04-07T08:13:43.931Z</time></trkpt><trkpt lat="44.1247353" lon="10.401979"><ele>322.8571428571429</ele><time>2026-04-07T08:13:45.927Z</time></trkpt><trkpt lat="44.1247868" lon="10.4019013"><ele>323.1428571428571</ele><time>2026-04-07T08:13:47.927Z</time></trkpt><trkpt lat="44.1248335" lon="10.4018201"><ele>323.42857142857144</ele><time>2026-04-07T08:13:49.927Z</time></trkpt><trkpt lat="44.1248818" lon="10.4017418"><ele>323.7142857142857</ele><time>2026-04-07T08:13:51.92Z</time></trkpt><trkpt lat="44.1249258" lon="10.4016622"><ele>324.0</ele><time>2026-04-07T08:13:53.926Z</time></trkpt><trkpt lat="44.1249716" lon="10.4015877"><ele>324.0</ele><time>2026-04-07T08:13:55.945Z</time></trkpt><trkpt lat="44.1250198" lon="10.4015143"><ele>324.0</ele><time>2026-04-07T08:13:57.938Z</time></trkpt><trkpt lat="44.1250645" lon="10.4014374"><ele>324.0</ele><time>2026-04-07T08:13:59.924Z</time></trkpt><trkpt lat="44.1251106" lon="10.4013631"><ele>324.0</ele><time>2026-04-07T08:14:01.931Z</time></trkpt><trkpt lat="44.1251589" lon="10.4012907"><ele>324.0</ele><time>2026-04-07T08:14:03.934Z</time></trkpt><trkpt lat="44.1252051" lon="10.4012156"><ele>324.0</ele><time>2026-04-07T08:14:05.928Z</time></trkpt><trkpt lat="44.1252459" lon="10.4011373"><ele>324.0</ele><time>2026-04-07T08:14:07.918Z</time></trkpt><trkpt lat="44.1252913" lon="10.4010672"><ele>323.42857142857144</ele><time>2026-04-07T08:14:09.935Z</time></trkpt><trkpt lat="44.1253444" lon="10.4010001"><ele>322.85714285714283</ele><time>2026-04-07T08:14:12.933Z</time></trkpt><trkpt lat="44.1254046" lon="10.4009269"><ele>322.2857142857143</ele><time>2026-04-07T08:14:17.915Z</time></trkpt><trkpt lat="44.1254522" lon="10.400853"><ele>321.7142857142857</ele><time>2026-04-07T08:14:20.915Z</time></trkpt><trkpt lat="44.1255066" lon="10.4007814"><ele>321.14285714285717</ele><time>2026-04-07T08:14:23.912Z</time></trkpt><trkpt lat="44.1255522" lon="10.4007039"><ele>320.57142857142856</ele><time>2026-04-07T08:14:26.922Z</time></trkpt><trkpt lat="44.1255995" lon="10.4006256"><ele>320.0</ele><time>2026-04-07T08:14:30.927Z</time></trkpt><trkpt lat="44.1256339" lon="10.400548"><ele>320.0</ele><time>2026-04-07T08:14:34.916Z</time></trkpt><trkpt lat="44.1256276" lon="10.4004409"><ele>320.0</ele><time>2026-04-07T08:14:38.922Z</time></trkpt><trkpt lat="44.1256752" lon="10.4003595"><ele>320.0</ele><time>2026-04-07T08:14:44.921Z</time></trkpt><trkpt lat="44.1257511" lon="10.4003429"><ele>320.0</ele><time>2026-04-07T08:14:49.922Z</time></trkpt><trkpt lat="44.1257604" lon="10.4002512"><ele>320.0</ele><time>2026-04-07T08:14:54.93Z</time></trkpt><trkpt lat="44.1257474" lon="10.4001622"><ele>320.0</ele><time>2026-04-07T08:14:56.925Z</time></trkpt><trkpt lat="44.1257297" lon="10.4000697"><ele>320.0</ele><time>2026-04-07T08:14:58.911Z</time></trkpt><trkpt lat="44.1257696" lon="10.4001731"><ele>320.0</ele><time>2026-04-07T08:15:05.913Z</time></trkpt><trkpt lat="44.1257906" lon="10.4002836"><ele>320.0</ele><time>2026-04-07T08:15:07.918Z</time></trkpt><trkpt lat="44.1258094" lon="10.4004124"><ele>320.0</ele><time>2026-04-07T08:15:09.915Z</time></trkpt><trkpt lat="44.1258748" lon="10.4004562"><ele>320.0</ele><time>2026-04-07T08:15:12.92Z</time></trkpt><trkpt lat="44.125936" lon="10.4004143"><ele>320.0</ele><time>2026-04-07T08:15:15.917Z</time></trkpt><trkpt lat="44.1259" lon="10.4003155"><ele>320.0</ele><time>2026-04-07T08:15:18.916Z</time></trkpt><trkpt lat="44.1258627" lon="10.4002219"><ele>320.0</ele><time>2026-04-07T08:15:20.924Z</time></trkpt><trkpt lat="44.1259124" lon="10.4000905"><ele>320.0</ele><time>2026-04-07T08:15:22.916Z</time></trkpt><trkpt lat="44.1259975" lon="10.3999826"><ele>320.0</ele><time>2026-04-07T08:15:24.921Z</time></trkpt><trkpt lat="44.1260531" lon="10.3999368"><ele>320.0</ele><time>2026-04-07T08:15:25.932Z</time></trkpt><trkpt lat="44.1261138" lon="10.3998967"><ele>320.0</ele><time>2026-04-07T08:15:26.916Z</time></trkpt><trkpt lat="44.1261841" lon="10.3998656"><ele>320.0</ele><time>2026-04-07T08:15:27.919Z</time></trkpt><trkpt lat="44.1262517" lon="10.3998315"><ele>320.0</ele><time>2026-04-07T08:15:28.919Z</time></trkpt><trkpt lat="44.1263225" lon="10.3998005"><ele>320.0</ele><time>2026-04-07T08:15:29.936Z</time></trkpt><trkpt lat="44.1263985" lon="10.3997708"><ele>320.0</ele><time>2026-04-07T08:15:30.931Z</time></trkpt><trkpt lat="44.1264691" lon="10.3997341"><ele>320.0</ele><time>2026-04-07T08:15:31.929Z</time></trkpt><trkpt lat="44.1265441" lon="10.3996967"><ele>320.0</ele><time>2026-04-07T08:15:32.938Z</time></trkpt><trkpt lat="44.1266218" lon="10.3996707"><ele>320.0</ele><time>2026-04-07T08:15:33.926Z</time></trkpt><trkpt lat="44.1266999" lon="10.3996415"><ele>319.0</ele><time>2026-04-07T08:15:34.921Z</time></trkpt><trkpt lat="44.126777" lon="10.3996043"><ele>318.0</ele><time>2026-04-07T08:15:35.935Z</time></trkpt><trkpt lat="44.1268549" lon="10.3995717"><ele>317.0</ele><time>2026-04-07T08:15:36.922Z</time></trkpt><trkpt lat="44.1269284" lon="10.3995229"><ele>316.0</ele><time>2026-04-07T08:15:37.93Z</time></trkpt><trkpt lat="44.1269865" lon="10.3994522"><ele>315.0</ele><time>2026-04-07T08:15:38.922Z</time></trkpt><trkpt lat="44.1270245" lon="10.3993641"><ele>314.0</ele><time>2026-04-07T08:15:39.933Z</time></trkpt><trkpt lat="44.1270502" lon="10.3992747"><ele>314.0</ele><time>2026-04-07T08:15:40.93Z</time></trkpt><trkpt lat="44.1270362" lon="10.3991854"><ele>314.0</ele><time>2026-04-07T08:15:41.935Z</time></trkpt><trkpt lat="44.1269943" lon="10.3990415"><ele>314.0</ele><time>2026-04-07T08:15:43.923Z</time></trkpt><trkpt lat="44.1269533" lon="10.3989272"><ele>314.0</ele><time>2026-04-07T08:15:45.939Z</time></trkpt><trkpt lat="44.1269222" lon="10.3988384"><ele>314.0</ele><time>2026-04-07T08:15:47.913Z</time></trkpt><trkpt lat="44.1268782" lon="10.3987346"><ele>314.0</ele><time>2026-04-07T08:15:50.942Z</time></trkpt><trkpt lat="44.1268391" lon="10.3986304"><ele>315.33333333333337</ele><time>2026-04-07T08:15:53.924Z</time></trkpt><trkpt lat="44.1267966" lon="10.3985287"><ele>316.6666666666667</ele><time>2026-04-07T08:15:56.917Z</time></trkpt><trkpt lat="44.1267606" lon="10.3984292"><ele>318.0</ele><time>2026-04-07T08:15:59.933Z</time></trkpt><trkpt lat="44.1267204" lon="10.3983306"><ele>319.3333333333333</ele><time>2026-04-07T08:16:02.922Z</time></trkpt><trkpt lat="44.1266803" lon="10.3982284"><ele>320.66666666666663</ele><time>2026-04-07T08:16:05.943Z</time></trkpt><trkpt lat="44.12664" lon="10.3981274"><ele>322.0</ele><time>2026-04-07T08:16:08.929Z</time></trkpt><trkpt lat="44.1266048" lon="10.3980322"><ele>322.5</ele><time>2026-04-07T08:16:11.915Z</time></trkpt><trkpt lat="44.1265887" lon="10.3979269"><ele>323.0</ele><time>2026-04-07T08:16:14.924Z</time></trkpt><trkpt lat="44.1265911" lon="10.3978126"><ele>323.5</ele><time>2026-04-07T08:16:17.939Z</time></trkpt><trkpt lat="44.1266138" lon="10.3977014"><ele>324.0</ele><time>2026-04-07T08:16:20.925Z</time></trkpt><trkpt lat="44.126656" lon="10.3976056"><ele>324.5</ele><time>2026-04-07T08:16:23.924Z</time></trkpt><trkpt lat="44.1267079" lon="10.3975139"><ele>325.0</ele><time>2026-04-07T08:16:26.944Z</time></trkpt><trkpt lat="44.12676" lon="10.3974236"><ele>325.0</ele><time>2026-04-07T08:16:29.923Z</time></trkpt><trkpt lat="44.1268045" lon="10.3973277"><ele>325.0</ele><time>2026-04-07T08:16:32.928Z</time></trkpt><trkpt lat="44.1268484" lon="10.3972312"><ele>325.0</ele><time>2026-04-07T08:16:35.919Z</time></trkpt><trkpt lat="44.1268922" lon="10.3971365"><ele>325.0</ele><time>2026-04-07T08:16:38.928Z</time></trkpt><trkpt lat="44.1269343" lon="10.3970402"><ele>325.0</ele><time>2026-04-07T08:16:41.93Z</time></trkpt><trkpt lat="44.1269699" lon="10.3969387"><ele>325.0</ele><time>2026-04-07T08:16:44.926Z</time></trkpt><trkpt lat="44.127008" lon="10.3968428"><ele>323.8333333333333</ele><time>2026-04-07T08:16:47.931Z</time></trkpt><trkpt lat="44.1270578" lon="10.3967477"><ele>322.66666666666663</ele><time>2026-04-07T08:16:50.925Z</time></trkpt><trkpt lat="44.127108" lon="10.3966582"><ele>321.5</ele><time>2026-04-07T08:16:53.928Z</time></trkpt><trkpt lat="44.1271576" lon="10.3965608"><ele>320.3333333333333</ele><time>2026-04-07T08:16:56.918Z</time></trkpt><trkpt lat="44.1272081" lon="10.3964729"><ele>319.1666666666667</ele><time>2026-04-07T08:16:59.928Z</time></trkpt><trkpt lat="44.127262" lon="10.396384"><ele>318.0</ele><time>2026-04-07T08:17:02.935Z</time></trkpt><trkpt lat="44.1273133" lon="10.3962918"><ele>317.6666666666667</ele><time>2026-04-07T08:17:05.924Z</time></trkpt><trkpt lat="44.1273604" lon="10.3961973"><ele>317.3333333333333</ele><time>2026-04-07T08:17:08.928Z</time></trkpt><trkpt lat="44.1274113" lon="10.3961024"><ele>317.0</ele><time>2026-04-07T08:17:11.922Z</time></trkpt><trkpt lat="44.127457" lon="10.3960077"><ele>316.66666666666663</ele><time>2026-04-07T08:17:14.921Z</time></trkpt><trkpt lat="44.1274952" lon="10.3958977"><ele>316.3333333333333</ele><time>2026-04-07T08:17:17.92Z</time></trkpt><trkpt lat="44.127525" lon="10.3957829"><ele>316.0</ele><time>2026-04-07T08:17:20.934Z</time></trkpt><trkpt lat="44.127553" lon="10.3956676"><ele>317.5</ele><time>2026-04-07T08:17:23.923Z</time></trkpt><trkpt lat="44.1275666" lon="10.395553"><ele>319.0</ele><time>2026-04-07T08:17:26.925Z</time></trkpt><trkpt lat="44.1275795" lon="10.3954359"><ele>320.5</ele><time>2026-04-07T08:17:29.923Z</time></trkpt><trkpt lat="44.127589" lon="10.395314"><ele>322.0</ele><time>2026-04-07T08:17:32.93Z</time></trkpt><trkpt lat="44.1275996" lon="10.3951937"><ele>323.5</ele><time>2026-04-07T08:17:35.922Z</time></trkpt><trkpt lat="44.1276106" lon="10.3950774"><ele>325.0</ele><time>2026-04-07T08:17:38.931Z</time></trkpt><trkpt lat="44.1276221" lon="10.3949634"><ele>325.0</ele><time>2026-04-07T08:17:41.93Z</time></trkpt><trkpt lat="44.1276358" lon="10.3948467"><ele>325.0</ele><time>2026-04-07T08:17:44.931Z</time></trkpt><trkpt lat="44.1276453" lon="10.3947336"><ele>325.0</ele><time>2026-04-07T08:17:47.929Z</time></trkpt><trkpt lat="44.1276575" lon="10.3946222"><ele>325.0</ele><time>2026-04-07T08:17:50.932Z</time></trkpt><trkpt lat="44.1276706" lon="10.3945069"><ele>325.0</ele><time>2026-04-07T08:17:53.927Z</time></trkpt><trkpt lat="44.1276858" lon="10.3943944"><ele>325.0</ele><time>2026-04-07T08:17:56.922Z</time></trkpt><trkpt lat="44.1277043" lon="10.394281"><ele>324.8333333333333</ele><time>2026-04-07T08:17:59.922Z</time></trkpt><trkpt lat="44.1277294" lon="10.3941726"><ele>324.66666666666663</ele><time>2026-04-07T08:18:02.929Z</time></trkpt><trkpt lat="44.1277658" lon="10.3940671"><ele>324.5</ele><time>2026-04-07T08:18:05.929Z</time></trkpt><trkpt lat="44.1278119" lon="10.3939709"><ele>324.3333333333333</ele><time>2026-04-07T08:18:08.925Z</time></trkpt><trkpt lat="44.1278721" lon="10.3938952"><ele>324.1666666666667</ele><time>2026-04-07T08:18:11.926Z</time></trkpt><trkpt lat="44.1279419" lon="10.3938252"><ele>324.0</ele><time>2026-04-07T08:18:14.925Z</time></trkpt><trkpt lat="44.1280181" lon="10.3937725"><ele>323.8333333333333</ele><time>2026-04-07T08:18:17.919Z</time></trkpt><trkpt lat="44.1280975" lon="10.3937397"><ele>323.6666666666667</ele><time>2026-04-07T08:18:20.93Z</time></trkpt><trkpt lat="44.1281806" lon="10.3937124"><ele>323.5</ele><time>2026-04-07T08:18:23.934Z</time></trkpt><trkpt lat="44.1282628" lon="10.3936892"><ele>323.33333333333337</ele><time>2026-04-07T08:18:26.923Z</time></trkpt><trkpt lat="44.1283445" lon="10.3936558"><ele>323.1666666666667</ele><time>2026-04-07T08:18:29.938Z</time></trkpt><trkpt lat="44.128428" lon="10.3936254"><ele>323.0</ele><time>2026-04-07T08:18:32.923Z</time></trkpt><trkpt lat="44.128511" lon="10.3935997"><ele>324.6666666666667</ele><time>2026-04-07T08:18:35.917Z</time></trkpt><trkpt lat="44.1285894" lon="10.3935691"><ele>326.33333333333337</ele><time>2026-04-07T08:18:38.936Z</time></trkpt><trkpt lat="44.1286679" lon="10.3935374"><ele>328.0</ele><time>2026-04-07T08:18:41.93Z</time></trkpt><trkpt lat="44.1287454" lon="10.393501"><ele>329.6666666666667</ele><time>2026-04-07T08:18:44.927Z</time></trkpt><trkpt lat="44.128817" lon="10.3934469"><ele>331.3333333333333</ele><time>2026-04-07T08:18:47.931Z</time></trkpt><trkpt lat="44.1288892" lon="10.393391"><ele>333.0</ele><time>2026-04-07T08:18:50.928Z</time></trkpt><trkpt lat="44.1289535" lon="10.3933412"><ele>333.0</ele><time>2026-04-07T08:18:53.927Z</time></trkpt><trkpt lat="44.1290213" lon="10.3932802"><ele>333.0</ele><time>2026-04-07T08:18:57.922Z</time></trkpt><trkpt lat="44.1290727" lon="10.3932252"><ele>333.0</ele><time>2026-04-07T08:19:00.926Z</time></trkpt><trkpt lat="44.1291354" lon="10.3931592"><ele>333.0</ele><time>2026-04-07T08:19:03.932Z</time></trkpt><trkpt lat="44.1291977" lon="10.3930853"><ele>333.0</ele><time>2026-04-07T08:19:06.941Z</time></trkpt><trkpt lat="44.1292543" lon="10.393003"><ele>333.0</ele><time>2026-04-07T08:19:09.942Z</time></trkpt><trkpt lat="44.1293073" lon="10.3929188"><ele>333.3333333333333</ele><time>2026-04-07T08:19:12.931Z</time></trkpt><trkpt lat="44.1293649" lon="10.3928307"><ele>333.6666666666667</ele><time>2026-04-07T08:19:15.944Z</time></trkpt><trkpt lat="44.1294208" lon="10.3927422"><ele>334.0</ele><time>2026-04-07T08:19:18.923Z</time></trkpt><trkpt lat="44.1294761" lon="10.3926525"><ele>334.33333333333337</ele><time>2026-04-07T08:19:21.934Z</time></trkpt><trkpt lat="44.1295291" lon="10.3925644"><ele>334.6666666666667</ele><time>2026-04-07T08:19:24.922Z</time></trkpt><trkpt lat="44.1295835" lon="10.3924781"><ele>335.0</ele><time>2026-04-07T08:19:27.93Z</time></trkpt><trkpt lat="44.1296394" lon="10.3923925"><ele>335.0</ele><time>2026-04-07T08:19:30.921Z</time></trkpt><trkpt lat="44.1297096" lon="10.3923209"><ele>335.0</ele><time>2026-04-07T08:19:33.918Z</time></trkpt><trkpt lat="44.129783" lon="10.3922628"><ele>335.0</ele><time>2026-04-07T08:19:36.927Z</time></trkpt><trkpt lat="44.1298586" lon="10.392221"><ele>335.0</ele><time>2026-04-07T08:19:39.92Z</time></trkpt><trkpt lat="44.1299343" lon="10.3921916"><ele>335.0</ele><time>2026-04-07T08:19:42.935Z</time></trkpt><trkpt lat="44.1300146" lon="10.3921771"><ele>335.0</ele><time>2026-04-07T08:19:45.931Z</time></trkpt><trkpt lat="44.130093" lon="10.3921565"><ele>335.5</ele><time>2026-04-07T08:19:48.925Z</time></trkpt><trkpt lat="44.130171" lon="10.3921377"><ele>336.0</ele><time>2026-04-07T08:19:51.931Z</time></trkpt><trkpt lat="44.1302522" lon="10.3921173"><ele>336.5</ele><time>2026-04-07T08:19:54.923Z</time></trkpt><trkpt lat="44.1303308" lon="10.3920979"><ele>337.0</ele><time>2026-04-07T08:19:57.925Z</time></trkpt><trkpt lat="44.130412" lon="10.3920825"><ele>337.5</ele><time>2026-04-07T08:20:00.933Z</time></trkpt><trkpt lat="44.130497" lon="10.3920665"><ele>338.0</ele><time>2026-04-07T08:20:03.927Z</time></trkpt><trkpt lat="44.1305818" lon="10.3920486"><ele>338.0</ele><time>2026-04-07T08:20:06.93Z</time></trkpt><trkpt lat="44.1306635" lon="10.3920389"><ele>338.0</ele><time>2026-04-07T08:20:09.929Z</time></trkpt><trkpt lat="44.1307441" lon="10.3920473"><ele>338.0</ele><time>2026-04-07T08:20:12.935Z</time></trkpt><trkpt lat="44.1308261" lon="10.3920618"><ele>338.0</ele><time>2026-04-07T08:20:15.93Z</time></trkpt><trkpt lat="44.1309099" lon="10.3920791"><ele>338.0</ele><time>2026-04-07T08:20:18.954Z</time></trkpt><trkpt lat="44.130994" lon="10.3921025"><ele>338.0</ele><time>2026-04-07T08:20:21.936Z</time></trkpt><trkpt lat="44.1310822" lon="10.3921233"><ele>338.6666666666667</ele><time>2026-04-07T08:20:24.925Z</time></trkpt><trkpt lat="44.1311691" lon="10.3921428"><ele>339.33333333333337</ele><time>2026-04-07T08:20:27.922Z</time></trkpt><trkpt lat="44.1312518" lon="10.3921653"><ele>340.0</ele><time>2026-04-07T08:20:30.926Z</time></trkpt><trkpt lat="44.1313408" lon="10.3921906"><ele>340.6666666666667</ele><time>2026-04-07T08:20:33.933Z</time></trkpt><trkpt lat="44.1314237" lon="10.3922266"><ele>341.3333333333333</ele><time>2026-04-07T08:20:36.921Z</time></trkpt><trkpt lat="44.1315006" lon="10.392276"><ele>342.0</ele><time>2026-04-07T08:20:39.922Z</time></trkpt><trkpt lat="44.1315761" lon="10.3923338"><ele>344.1428571428571</ele><time>2026-04-07T08:20:42.924Z</time></trkpt><trkpt lat="44.1316573" lon="10.3923997"><ele>346.2857142857143</ele><time>2026-04-07T08:20:45.952Z</time></trkpt><trkpt lat="44.131714" lon="10.3924402"><ele>348.42857142857144</ele><time>2026-04-07T08:20:47.92Z</time></trkpt><trkpt lat="44.1317675" lon="10.3924868"><ele>350.57142857142856</ele><time>2026-04-07T08:20:49.929Z</time></trkpt><trkpt lat="44.1318463" lon="10.3925579"><ele>352.7142857142857</ele><time>2026-04-07T08:20:52.929Z</time></trkpt><trkpt lat="44.1319042" lon="10.3926"><ele>354.85714285714283</ele><time>2026-04-07T08:20:54.919Z</time></trkpt><trkpt lat="44.1319584" lon="10.3926453"><ele>357.0</ele><time>2026-04-07T08:20:56.932Z</time></trkpt><trkpt lat="44.1320176" lon="10.3926782"><ele>357.0</ele><time>2026-04-07T08:20:58.929Z</time></trkpt><trkpt lat="44.1321035" lon="10.3927238"><ele>357.0</ele><time>2026-04-07T08:21:01.927Z</time></trkpt><trkpt lat="44.1321934" lon="10.3927533"><ele>357.0</ele><time>2026-04-07T08:21:04.936Z</time></trkpt><trkpt lat="44.1322846" lon="10.3927583"><ele>357.0</ele><time>2026-04-07T08:21:07.924Z</time></trkpt><trkpt lat="44.1323496" lon="10.3927497"><ele>357.0</ele><time>2026-04-07T08:21:09.927Z</time></trkpt><trkpt lat="44.1324178" lon="10.3927391"><ele>357.0</ele><time>2026-04-07T08:21:11.931Z</time></trkpt><trkpt lat="44.1324869" lon="10.3927189"><ele>355.5</ele><time>2026-04-07T08:21:13.935Z</time></trkpt><trkpt lat="44.1325576" lon="10.3927001"><ele>354.0</ele><time>2026-04-07T08:21:15.923Z</time></trkpt><trkpt lat="44.1326305" lon="10.3926849"><ele>352.5</ele><time>2026-04-07T08:21:17.935Z</time></trkpt><trkpt lat="44.1327063" lon="10.3926721"><ele>351.0</ele><time>2026-04-07T08:21:19.924Z</time></trkpt><trkpt lat="44.1327851" lon="10.3926549"><ele>349.5</ele><time>2026-04-07T08:21:21.926Z</time></trkpt><trkpt lat="44.1328686" lon="10.3926518"><ele>348.0</ele><time>2026-04-07T08:21:23.952Z</time></trkpt><trkpt lat="44.1329583" lon="10.3926811"><ele>348.0</ele><time>2026-04-07T08:21:25.928Z</time></trkpt><trkpt lat="44.1330594" lon="10.3927325"><ele>348.0</ele><time>2026-04-07T08:21:27.931Z</time></trkpt><trkpt lat="44.1331687" lon="10.3927885"><ele>348.0</ele><time>2026-04-07T08:21:29.915Z</time></trkpt><trkpt lat="44.1332795" lon="10.3928526"><ele>348.0</ele><time>2026-04-07T08:21:31.924Z</time></trkpt><trkpt lat="44.1333883" lon="10.3929169"><ele>348.1428571428571</ele><time>2026-04-07T08:21:33.925Z</time></trkpt><trkpt lat="44.1334469" lon="10.3929501"><ele>348.2857142857143</ele><time>2026-04-07T08:21:34.922Z</time></trkpt><trkpt lat="44.1335072" lon="10.3929849"><ele>348.42857142857144</ele><time>2026-04-07T08:21:35.93Z</time></trkpt><trkpt lat="44.1335679" lon="10.3930195"><ele>348.57142857142856</ele><time>2026-04-07T08:21:36.926Z</time></trkpt><trkpt lat="44.1336287" lon="10.3930502"><ele>348.7142857142857</ele><time>2026-04-07T08:21:37.935Z</time></trkpt><trkpt lat="44.1336984" lon="10.3930693"><ele>348.85714285714283</ele><time>2026-04-07T08:21:38.927Z</time></trkpt><trkpt lat="44.1337638" lon="10.3930832"><ele>349.0</ele><time>2026-04-07T08:21:39.935Z</time></trkpt><trkpt lat="44.1338322" lon="10.3930903"><ele>348.99999999999994</ele><time>2026-04-07T08:21:40.92Z</time></trkpt><trkpt lat="44.1339014" lon="10.3930937"><ele>349.0</ele><time>2026-04-07T08:21:41.934Z</time></trkpt><trkpt lat="44.1339735" lon="10.3930978"><ele>349.0</ele><time>2026-04-07T08:21:42.928Z</time></trkpt><trkpt lat="44.1340424" lon="10.3930976"><ele>349.0</ele><time>2026-04-07T08:21:43.923Z</time></trkpt><trkpt lat="44.1341148" lon="10.3930903"><ele>349.0</ele><time>2026-04-07T08:21:44.93Z</time></trkpt><trkpt lat="44.1341922" lon="10.393073"><ele>348.99999999999994</ele><time>2026-04-07T08:21:45.938Z</time></trkpt><trkpt lat="44.1342672" lon="10.3930448"><ele>349.0</ele><time>2026-04-07T08:21:46.931Z</time></trkpt><trkpt lat="44.1343399" lon="10.3929942"><ele>346.6</ele><time>2026-04-07T08:21:47.935Z</time></trkpt><trkpt lat="44.1344082" lon="10.3929339"><ele>344.2</ele><time>2026-04-07T08:21:48.927Z</time></trkpt><trkpt lat="44.1344874" lon="10.3928846"><ele>341.8</ele><time>2026-04-07T08:21:49.937Z</time></trkpt><trkpt lat="44.134575" lon="10.3928437"><ele>339.40000000000003</ele><time>2026-04-07T08:21:50.921Z</time></trkpt><trkpt lat="44.1346682" lon="10.3928216"><ele>337.0</ele><time>2026-04-07T08:21:51.923Z</time></trkpt><trkpt lat="44.1347642" lon="10.3928265"><ele>337.0</ele><time>2026-04-07T08:21:52.927Z</time></trkpt><trkpt lat="44.1348575" lon="10.3928261"><ele>337.0</ele><time>2026-04-07T08:21:53.932Z</time></trkpt><trkpt lat="44.1349532" lon="10.3928137"><ele>337.0</ele><time>2026-04-07T08:21:54.938Z</time></trkpt><trkpt lat="44.1350425" lon="10.3927722"><ele>337.0</ele><time>2026-04-07T08:21:55.919Z</time></trkpt><trkpt lat="44.1351305" lon="10.3927133"><ele>337.0</ele><time>2026-04-07T08:21:56.92Z</time></trkpt><trkpt lat="44.1352141" lon="10.392642"><ele>336.5</ele><time>2026-04-07T08:21:57.932Z</time></trkpt><trkpt lat="44.1352907" lon="10.3925637"><ele>336.0</ele><time>2026-04-07T08:21:58.924Z</time></trkpt><trkpt lat="44.1353622" lon="10.3924922"><ele>335.5</ele><time>2026-04-07T08:21:59.929Z</time></trkpt><trkpt lat="44.1354266" lon="10.3924204"><ele>335.0</ele><time>2026-04-07T08:22:00.921Z</time></trkpt><trkpt lat="44.135476" lon="10.39234"><ele>334.5</ele><time>2026-04-07T08:22:01.929Z</time></trkpt><trkpt lat="44.1355082" lon="10.3922555"><ele>334.0</ele><time>2026-04-07T08:22:02.93Z</time></trkpt><trkpt lat="44.1355293" lon="10.392108"><ele>333.8333333333333</ele><time>2026-04-07T08:22:04.92Z</time></trkpt><trkpt lat="44.1355106" lon="10.3920049"><ele>333.66666666666663</ele><time>2026-04-07T08:22:06.922Z</time></trkpt><trkpt lat="44.1354873" lon="10.3919013"><ele>333.5</ele><time>2026-04-07T08:22:09.929Z</time></trkpt><trkpt lat="44.1354435" lon="10.3918213"><ele>333.3333333333333</ele><time>2026-04-07T08:22:12.94Z</time></trkpt><trkpt lat="44.1353964" lon="10.3917481"><ele>333.1666666666667</ele><time>2026-04-07T08:22:15.93Z</time></trkpt><trkpt lat="44.1353504" lon="10.3916581"><ele>333.0</ele><time>2026-04-07T08:22:18.927Z</time></trkpt><trkpt lat="44.1352991" lon="10.3915738"><ele>333.0</ele><time>2026-04-07T08:22:21.934Z</time></trkpt><trkpt lat="44.135247" lon="10.3914825"><ele>333.0</ele><time>2026-04-07T08:22:24.923Z</time></trkpt><trkpt lat="44.1351938" lon="10.3913975"><ele>333.0</ele><time>2026-04-07T08:22:27.948Z</time></trkpt><trkpt lat="44.1351489" lon="10.3913072"><ele>333.0</ele><time>2026-04-07T08:22:30.926Z</time></trkpt><trkpt lat="44.1351032" lon="10.3912281"><ele>333.0</ele><time>2026-04-07T08:22:33.927Z</time></trkpt><trkpt lat="44.1350587" lon="10.3911423"><ele>333.0</ele><time>2026-04-07T08:22:36.928Z</time></trkpt><trkpt lat="44.1350195" lon="10.3910562"><ele>332.5</ele><time>2026-04-07T08:22:39.925Z</time></trkpt><trkpt lat="44.1349788" lon="10.390962"><ele>332.0</ele><time>2026-04-07T08:22:42.938Z</time></trkpt><trkpt lat="44.1349414" lon="10.3908724"><ele>331.5</ele><time>2026-04-07T08:22:45.92Z</time></trkpt><trkpt lat="44.1349063" lon="10.390777"><ele>331.0</ele><time>2026-04-07T08:22:48.937Z</time></trkpt><trkpt lat="44.1348714" lon="10.3906738"><ele>330.5</ele><time>2026-04-07T08:22:51.93Z</time></trkpt><trkpt lat="44.1348358" lon="10.3905778"><ele>330.0</ele><time>2026-04-07T08:22:54.927Z</time></trkpt><trkpt lat="44.1347973" lon="10.3904805"><ele>330.0</ele><time>2026-04-07T08:22:57.923Z</time></trkpt><trkpt lat="44.1347632" lon="10.3903865"><ele>330.0</ele><time>2026-04-07T08:23:00.933Z</time></trkpt><trkpt lat="44.1347261" lon="10.3902891"><ele>330.0</ele><time>2026-04-07T08:23:03.932Z</time></trkpt><trkpt lat="44.1346902" lon="10.3901926"><ele>330.0</ele><time>2026-04-07T08:23:06.926Z</time></trkpt><trkpt lat="44.1346542" lon="10.3900953"><ele>330.0</ele><time>2026-04-07T08:23:09.938Z</time></trkpt><trkpt lat="44.134622" lon="10.3899926"><ele>330.0</ele><time>2026-04-07T08:23:12.922Z</time></trkpt><trkpt lat="44.1346016" lon="10.3898827"><ele>330.0</ele><time>2026-04-07T08:23:15.951Z</time></trkpt><trkpt lat="44.1345986" lon="10.3897785"><ele>330.0</ele><time>2026-04-07T08:23:18.962Z</time></trkpt><trkpt lat="44.1346248" lon="10.3896746"><ele>330.0</ele><time>2026-04-07T08:23:21.92Z</time></trkpt><trkpt lat="44.1346617" lon="10.389575"><ele>330.0</ele><time>2026-04-07T08:23:24.931Z</time></trkpt><trkpt lat="44.1346912" lon="10.3894774"><ele>330.0</ele><time>2026-04-07T08:23:27.939Z</time></trkpt><trkpt lat="44.1347292" lon="10.3893812"><ele>330.0</ele><time>2026-04-07T08:23:30.928Z</time></trkpt><trkpt lat="44.1347682" lon="10.3892837"><ele>331.8333333333333</ele><time>2026-04-07T08:23:33.933Z</time></trkpt><trkpt lat="44.1347952" lon="10.389181"><ele>333.6666666666667</ele><time>2026-04-07T08:23:36.927Z</time></trkpt><trkpt lat="44.1348197" lon="10.3890758"><ele>335.5</ele><time>2026-04-07T08:23:39.934Z</time></trkpt><trkpt lat="44.1348298" lon="10.3889713"><ele>337.33333333333337</ele><time>2026-04-07T08:23:42.935Z</time></trkpt><trkpt lat="44.1348379" lon="10.3888568"><ele>339.1666666666667</ele><time>2026-04-07T08:23:45.927Z</time></trkpt><trkpt lat="44.1348416" lon="10.3887437"><ele>341.0</ele><time>2026-04-07T08:23:48.922Z</time></trkpt><trkpt lat="44.1348466" lon="10.3886315"><ele>341.5</ele><time>2026-04-07T08:23:51.928Z</time></trkpt><trkpt lat="44.1348617" lon="10.3885212"><ele>342.0</ele><time>2026-04-07T08:23:54.917Z</time></trkpt><trkpt lat="44.1348886" lon="10.388413"><ele>342.5</ele><time>2026-04-07T08:23:57.937Z</time></trkpt><trkpt lat="44.1349201" lon="10.3883078"><ele>343.0</ele><time>2026-04-07T08:24:00.924Z</time></trkpt><trkpt lat="44.1349564" lon="10.3882116"><ele>343.5</ele><time>2026-04-07T08:24:03.917Z</time></trkpt><trkpt lat="44.1349914" lon="10.3881139"><ele>344.0</ele><time>2026-04-07T08:24:06.936Z</time></trkpt><trkpt lat="44.1350251" lon="10.3880118"><ele>345.5714285714286</ele><time>2026-04-07T08:24:09.929Z</time></trkpt><trkpt lat="44.1350571" lon="10.3879015"><ele>347.14285714285717</ele><time>2026-04-07T08:24:12.921Z</time></trkpt><trkpt lat="44.1350813" lon="10.3878205"><ele>348.7142857142857</ele><time>2026-04-07T08:24:14.927Z</time></trkpt><trkpt lat="44.1351094" lon="10.3877414"><ele>350.28571428571433</ele><time>2026-04-07T08:24:16.929Z</time></trkpt><trkpt lat="44.1351395" lon="10.3876612"><ele>351.8571428571429</ele><time>2026-04-07T08:24:18.923Z</time></trkpt><trkpt lat="44.1351676" lon="10.3875783"><ele>353.42857142857144</ele><time>2026-04-07T08:24:20.927Z</time></trkpt><trkpt lat="44.1351964" lon="10.3874969"><ele>355.0</ele><time>2026-04-07T08:24:22.915Z</time></trkpt><trkpt lat="44.1352264" lon="10.387417"><ele>355.0</ele><time>2026-04-07T08:24:24.925Z</time></trkpt><trkpt lat="44.1352567" lon="10.3873388"><ele>355.0</ele><time>2026-04-07T08:24:26.918Z</time></trkpt><trkpt lat="44.1352867" lon="10.387258"><ele>355.0</ele><time>2026-04-07T08:24:28.944Z</time></trkpt><trkpt lat="44.1353185" lon="10.3871784"><ele>355.0</ele><time>2026-04-07T08:24:30.917Z</time></trkpt><trkpt lat="44.1353556" lon="10.3871022"><ele>355.0</ele><time>2026-04-07T08:24:32.927Z</time></trkpt><trkpt lat="44.1354017" lon="10.3870387"><ele>355.0</ele><time>2026-04-07T08:24:34.919Z</time></trkpt><trkpt lat="44.1354589" lon="10.3869967"><ele>355.0</ele><time>2026-04-07T08:24:36.933Z</time></trkpt><trkpt lat="44.1355463" lon="10.3869411"><ele>354.42857142857144</ele><time>2026-04-07T08:24:39.933Z</time></trkpt><trkpt lat="44.1356121" lon="10.3869126"><ele>353.8571428571429</ele><time>2026-04-07T08:24:41.934Z</time></trkpt><trkpt lat="44.1356777" lon="10.3868818"><ele>353.28571428571433</ele><time>2026-04-07T08:24:43.921Z</time></trkpt><trkpt lat="44.1357441" lon="10.3868544"><ele>352.7142857142857</ele><time>2026-04-07T08:24:45.925Z</time></trkpt><trkpt lat="44.1358132" lon="10.3868264"><ele>352.14285714285717</ele><time>2026-04-07T08:24:47.931Z</time></trkpt><trkpt lat="44.1358782" lon="10.3867941"><ele>351.5714285714286</ele><time>2026-04-07T08:24:49.935Z</time></trkpt><trkpt lat="44.1359426" lon="10.3867685"><ele>351.0</ele><time>2026-04-07T08:24:51.928Z</time></trkpt><trkpt lat="44.136005" lon="10.386744"><ele>352.14285714285717</ele><time>2026-04-07T08:24:53.928Z</time></trkpt><trkpt lat="44.13607" lon="10.386721"><ele>353.2857142857143</ele><time>2026-04-07T08:24:55.936Z</time></trkpt><trkpt lat="44.1361332" lon="10.3866925"><ele>354.42857142857144</ele><time>2026-04-07T08:24:57.928Z</time></trkpt><trkpt lat="44.1361941" lon="10.3866631"><ele>355.57142857142856</ele><time>2026-04-07T08:24:59.945Z</time></trkpt><trkpt lat="44.1362562" lon="10.3866333"><ele>356.7142857142857</ele><time>2026-04-07T08:25:01.927Z</time></trkpt><trkpt lat="44.1363187" lon="10.386604"><ele>357.8571428571429</ele><time>2026-04-07T08:25:03.92Z</time></trkpt><trkpt lat="44.1363801" lon="10.3865751"><ele>359.0</ele><time>2026-04-07T08:25:05.921Z</time></trkpt><trkpt lat="44.1364441" lon="10.3865514"><ele>359.0</ele><time>2026-04-07T08:25:07.932Z</time></trkpt><trkpt lat="44.1365062" lon="10.3865276"><ele>359.0</ele><time>2026-04-07T08:25:09.918Z</time></trkpt><trkpt lat="44.1365673" lon="10.3865005"><ele>359.0</ele><time>2026-04-07T08:25:11.926Z</time></trkpt><trkpt lat="44.1366289" lon="10.3864763"><ele>359.0</ele><time>2026-04-07T08:25:13.939Z</time></trkpt><trkpt lat="44.1366902" lon="10.386456"><ele>359.0</ele><time>2026-04-07T08:25:15.928Z</time></trkpt><trkpt lat="44.1367744" lon="10.3864015"><ele>359.0</ele><time>2026-04-07T08:25:18.931Z</time></trkpt><trkpt lat="44.1368469" lon="10.3863199"><ele>359.0</ele><time>2026-04-07T08:25:21.919Z</time></trkpt><trkpt lat="44.1368961" lon="10.386208"><ele>359.83333333333337</ele><time>2026-04-07T08:25:24.915Z</time></trkpt><trkpt lat="44.136906" lon="10.3860813"><ele>360.6666666666667</ele><time>2026-04-07T08:25:27.929Z</time></trkpt><trkpt lat="44.1368946" lon="10.3859556"><ele>361.5</ele><time>2026-04-07T08:25:30.92Z</time></trkpt><trkpt lat="44.1368784" lon="10.3858244"><ele>362.3333333333333</ele><time>2026-04-07T08:25:33.922Z</time></trkpt><trkpt lat="44.1368652" lon="10.3857324"><ele>363.16666666666663</ele><time>2026-04-07T08:25:35.938Z</time></trkpt><trkpt lat="44.1368535" lon="10.3856417"><ele>364.0</ele><time>2026-04-07T08:25:37.93Z</time></trkpt><trkpt lat="44.1368406" lon="10.3855503"><ele>364.57142857142856</ele><time>2026-04-07T08:25:39.922Z</time></trkpt><trkpt lat="44.1368275" lon="10.3854607"><ele>365.1428571428571</ele><time>2026-04-07T08:25:41.92Z</time></trkpt><trkpt lat="44.1368114" lon="10.3853309"><ele>365.7142857142857</ele><time>2026-04-07T08:25:44.925Z</time></trkpt><trkpt lat="44.1367935" lon="10.3852057"><ele>366.2857142857143</ele><time>2026-04-07T08:25:47.931Z</time></trkpt><trkpt lat="44.1367802" lon="10.3851166"><ele>366.85714285714283</ele><time>2026-04-07T08:25:49.923Z</time></trkpt><trkpt lat="44.1367663" lon="10.385029"><ele>367.42857142857144</ele><time>2026-04-07T08:25:51.931Z</time></trkpt><trkpt lat="44.1367532" lon="10.3849415"><ele>368.0</ele><time>2026-04-07T08:25:53.926Z</time></trkpt><trkpt lat="44.1367402" lon="10.3848525"><ele>368.0</ele><time>2026-04-07T08:25:55.941Z</time></trkpt><trkpt lat="44.136728" lon="10.3847619"><ele>368.0</ele><time>2026-04-07T08:25:57.931Z</time></trkpt><trkpt lat="44.1367145" lon="10.3846762"><ele>368.0</ele><time>2026-04-07T08:25:59.92Z</time></trkpt><trkpt lat="44.1366974" lon="10.3845454"><ele>368.0</ele><time>2026-04-07T08:26:02.922Z</time></trkpt><trkpt lat="44.1366814" lon="10.3844155"><ele>368.0</ele><time>2026-04-07T08:26:05.93Z</time></trkpt><trkpt lat="44.1366664" lon="10.3843279"><ele>368.0</ele><time>2026-04-07T08:26:07.934Z</time></trkpt><trkpt lat="44.1366557" lon="10.3842399"><ele>368.0</ele><time>2026-04-07T08:26:09.936Z</time></trkpt><trkpt lat="44.136645" lon="10.3841503"><ele>369.0</ele><time>2026-04-07T08:26:11.927Z</time></trkpt><trkpt lat="44.1366343" lon="10.3840617"><ele>370.0</ele><time>2026-04-07T08:26:13.92Z</time></trkpt><trkpt lat="44.1366218" lon="10.3839305"><ele>371.0</ele><time>2026-04-07T08:26:16.941Z</time></trkpt><trkpt lat="44.1366091" lon="10.3838038"><ele>372.0</ele><time>2026-04-07T08:26:19.924Z</time></trkpt><trkpt lat="44.1366015" lon="10.3836834"><ele>373.0</ele><time>2026-04-07T08:26:22.923Z</time></trkpt><trkpt lat="44.1365985" lon="10.3835614"><ele>374.0</ele><time>2026-04-07T08:26:25.921Z</time></trkpt><trkpt lat="44.1366038" lon="10.3834687"><ele>374.0</ele><time>2026-04-07T08:26:27.929Z</time></trkpt><trkpt lat="44.1366181" lon="10.3833772"><ele>374.0</ele><time>2026-04-07T08:26:29.918Z</time></trkpt><trkpt lat="44.1366546" lon="10.3832579"><ele>374.0</ele><time>2026-04-07T08:26:32.925Z</time></trkpt><trkpt lat="44.1366865" lon="10.3831819"><ele>374.0</ele><time>2026-04-07T08:26:34.93Z</time></trkpt><trkpt lat="44.1367251" lon="10.3831095"><ele>374.0</ele><time>2026-04-07T08:26:36.927Z</time></trkpt><trkpt lat="44.1367897" lon="10.3830149"><ele>374.0</ele><time>2026-04-07T08:26:39.924Z</time></trkpt><trkpt lat="44.1368655" lon="10.3829402"><ele>373.0</ele><time>2026-04-07T08:26:42.924Z</time></trkpt><trkpt lat="44.1369476" lon="10.382879"><ele>372.0</ele><time>2026-04-07T08:26:45.923Z</time></trkpt><trkpt lat="44.1370052" lon="10.382843"><ele>371.0</ele><time>2026-04-07T08:26:47.928Z</time></trkpt><trkpt lat="44.1370918" lon="10.3827887"><ele>370.0</ele><time>2026-04-07T08:26:50.93Z</time></trkpt><trkpt lat="44.1371526" lon="10.3827523"><ele>369.0</ele><time>2026-04-07T08:26:52.928Z</time></trkpt><trkpt lat="44.1372125" lon="10.3827192"><ele>368.0</ele><time>2026-04-07T08:26:54.917Z</time></trkpt><trkpt lat="44.1372735" lon="10.3826896"><ele>367.0</ele><time>2026-04-07T08:26:56.935Z</time></trkpt><trkpt lat="44.1373349" lon="10.3826571"><ele>369.1428571428571</ele><time>2026-04-07T08:26:58.929Z</time></trkpt><trkpt lat="44.1373917" lon="10.3826171"><ele>371.28571428571433</ele><time>2026-04-07T08:27:00.916Z</time></trkpt><trkpt lat="44.1374506" lon="10.3825831"><ele>373.42857142857144</ele><time>2026-04-07T08:27:02.919Z</time></trkpt><trkpt lat="44.1375065" lon="10.3825424"><ele>375.57142857142856</ele><time>2026-04-07T08:27:04.931Z</time></trkpt><trkpt lat="44.1375565" lon="10.3824879"><ele>377.71428571428567</ele><time>2026-04-07T08:27:06.946Z</time></trkpt><trkpt lat="44.1376063" lon="10.3824286"><ele>379.8571428571429</ele><time>2026-04-07T08:27:08.917Z</time></trkpt><trkpt lat="44.1376489" lon="10.3823635"><ele>382.0</ele><time>2026-04-07T08:27:10.93Z</time></trkpt><trkpt lat="44.1377057" lon="10.3822622"><ele>382.0</ele><time>2026-04-07T08:27:13.922Z</time></trkpt><trkpt lat="44.1377432" lon="10.3821914"><ele>382.0</ele><time>2026-04-07T08:27:15.934Z</time></trkpt><trkpt lat="44.1377915" lon="10.3820803"><ele>382.0</ele><time>2026-04-07T08:27:18.918Z</time></trkpt><trkpt lat="44.1378402" lon="10.3819676"><ele>382.0</ele><time>2026-04-07T08:27:21.938Z</time></trkpt><trkpt lat="44.1378893" lon="10.381859"><ele>382.0</ele><time>2026-04-07T08:27:24.923Z</time></trkpt><trkpt lat="44.1379485" lon="10.3817655"><ele>382.0</ele><time>2026-04-07T08:27:27.93Z</time></trkpt><trkpt lat="44.1380091" lon="10.3816989"><ele>381.5714285714286</ele><time>2026-04-07T08:27:29.923Z</time></trkpt><trkpt lat="44.1380898" lon="10.3816401"><ele>381.1428571428571</ele><time>2026-04-07T08:27:32.933Z</time></trkpt><trkpt lat="44.1381735" lon="10.3815895"><ele>380.7142857142857</ele><time>2026-04-07T08:27:35.917Z</time></trkpt><trkpt lat="44.1382234" lon="10.3815321"><ele>380.28571428571433</ele><time>2026-04-07T08:27:37.918Z</time></trkpt><trkpt lat="44.1382664" lon="10.3814642"><ele>379.8571428571429</ele><time>2026-04-07T08:27:39.915Z</time></trkpt><trkpt lat="44.1383061" lon="10.3813957"><ele>379.42857142857144</ele><time>2026-04-07T08:27:41.923Z</time></trkpt><trkpt lat="44.1383464" lon="10.3813254"><ele>379.0</ele><time>2026-04-07T08:27:43.922Z</time></trkpt><trkpt lat="44.1383886" lon="10.3812562"><ele>379.00000000000006</ele><time>2026-04-07T08:27:45.927Z</time></trkpt><trkpt lat="44.1384323" lon="10.3811911"><ele>379.0</ele><time>2026-04-07T08:27:47.927Z</time></trkpt><trkpt lat="44.1384814" lon="10.3811325"><ele>379.0</ele><time>2026-04-07T08:27:49.956Z</time></trkpt><trkpt lat="44.1385339" lon="10.3810805"><ele>379.0</ele><time>2026-04-07T08:27:51.933Z</time></trkpt><trkpt lat="44.1386017" lon="10.3810005"><ele>379.0</ele><time>2026-04-07T08:27:54.927Z</time></trkpt><trkpt lat="44.138655" lon="10.3809537"><ele>379.00000000000006</ele><time>2026-04-07T08:27:56.916Z</time></trkpt><trkpt lat="44.1387096" lon="10.3809079"><ele>379.0</ele><time>2026-04-07T08:27:58.918Z</time></trkpt><trkpt lat="44.1387848" lon="10.3808363"><ele>379.0</ele><time>2026-04-07T08:28:01.918Z</time></trkpt><trkpt lat="44.1388567" lon="10.3807658"><ele>379.0</ele><time>2026-04-07T08:28:04.929Z</time></trkpt><trkpt lat="44.1389297" lon="10.3807015"><ele>379.0</ele><time>2026-04-07T08:28:07.925Z</time></trkpt><trkpt lat="44.1389943" lon="10.3806245"><ele>379.0</ele><time>2026-04-07T08:28:10.919Z</time></trkpt><trkpt lat="44.1390648" lon="10.3805436"><ele>379.0</ele><time>2026-04-07T08:28:13.929Z</time></trkpt><trkpt lat="44.139109" lon="10.3804768"><ele>379.0</ele><time>2026-04-07T08:28:15.937Z</time></trkpt><trkpt lat="44.1391668" lon="10.3803753"><ele>380.5</ele><time>2026-04-07T08:28:18.924Z</time></trkpt><trkpt lat="44.1392007" lon="10.3802984"><ele>382.0</ele><time>2026-04-07T08:28:20.936Z</time></trkpt><trkpt lat="44.1392444" lon="10.3801864"><ele>383.5</ele><time>2026-04-07T08:28:23.929Z</time></trkpt><trkpt lat="44.1392907" lon="10.3800852"><ele>385.0</ele><time>2026-04-07T08:28:26.937Z</time></trkpt><trkpt lat="44.1393309" lon="10.379972"><ele>386.50000000000006</ele><time>2026-04-07T08:28:29.921Z</time></trkpt><trkpt lat="44.1393902" lon="10.3798757"><ele>388.0</ele><time>2026-04-07T08:28:32.92Z</time></trkpt><trkpt lat="44.139438" lon="10.3797618"><ele>387.1666666666667</ele><time>2026-04-07T08:28:35.934Z</time></trkpt><trkpt lat="44.1394869" lon="10.3796549"><ele>386.33333333333337</ele><time>2026-04-07T08:28:38.921Z</time></trkpt><trkpt lat="44.1395322" lon="10.3795933"><ele>385.5</ele><time>2026-04-07T08:28:40.936Z</time></trkpt><trkpt lat="44.1395829" lon="10.3795393"><ele>384.6666666666667</ele><time>2026-04-07T08:28:42.932Z</time></trkpt><trkpt lat="44.1396565" lon="10.3794592"><ele>383.83333333333337</ele><time>2026-04-07T08:28:45.93Z</time></trkpt><trkpt lat="44.1397248" lon="10.3793709"><ele>383.0</ele><time>2026-04-07T08:28:48.935Z</time></trkpt><trkpt lat="44.1397709" lon="10.3793083"><ele>383.0</ele><time>2026-04-07T08:28:50.928Z</time></trkpt><trkpt lat="44.1398189" lon="10.3792491"><ele>383.0</ele><time>2026-04-07T08:28:52.922Z</time></trkpt><trkpt lat="44.1398815" lon="10.3791525"><ele>383.0</ele><time>2026-04-07T08:28:55.932Z</time></trkpt><trkpt lat="44.1399312" lon="10.3790942"><ele>383.0</ele><time>2026-04-07T08:28:57.936Z</time></trkpt><trkpt lat="44.1399954" lon="10.3789979"><ele>383.0</ele><time>2026-04-07T08:29:00.941Z</time></trkpt><trkpt lat="44.1400281" lon="10.378919"><ele>383.0</ele><time>2026-04-07T08:29:02.926Z</time></trkpt><trkpt lat="44.1400527" lon="10.3788346"><ele>383.0</ele><time>2026-04-07T08:29:04.935Z</time></trkpt><trkpt lat="44.1400813" lon="10.3787544"><ele>385.33333333333337</ele><time>2026-04-07T08:29:06.932Z</time></trkpt><trkpt lat="44.1401172" lon="10.3786334"><ele>387.6666666666667</ele><time>2026-04-07T08:29:09.941Z</time></trkpt><trkpt lat="44.1401367" lon="10.3785491"><ele>390.0</ele><time>2026-04-07T08:29:11.92Z</time></trkpt><trkpt lat="44.1401662" lon="10.3784681"><ele>392.33333333333337</ele><time>2026-04-07T08:29:13.932Z</time></trkpt><trkpt lat="44.1402241" lon="10.3783798"><ele>394.6666666666667</ele><time>2026-04-07T08:29:16.937Z</time></trkpt><trkpt lat="44.1402847" lon="10.378294"><ele>397.0</ele><time>2026-04-07T08:29:19.93Z</time></trkpt><trkpt lat="44.1403492" lon="10.3782001"><ele>397.00000000000006</ele><time>2026-04-07T08:29:22.921Z</time></trkpt><trkpt lat="44.1404262" lon="10.378125"><ele>397.0</ele><time>2026-04-07T08:29:25.918Z</time></trkpt><trkpt lat="44.1404878" lon="10.3780929"><ele>397.0</ele><time>2026-04-07T08:29:27.932Z</time></trkpt><trkpt lat="44.1405756" lon="10.3780684"><ele>397.0</ele><time>2026-04-07T08:29:30.928Z</time></trkpt><trkpt lat="44.1406399" lon="10.3780467"><ele>397.00000000000006</ele><time>2026-04-07T08:29:32.959Z</time></trkpt><trkpt lat="44.1407302" lon="10.3780415"><ele>397.0</ele><time>2026-04-07T08:29:35.929Z</time></trkpt><trkpt lat="44.1408186" lon="10.3780477"><ele>397.2857142857143</ele><time>2026-04-07T08:29:38.94Z</time></trkpt><trkpt lat="44.1409071" lon="10.3780412"><ele>397.57142857142856</ele><time>2026-04-07T08:29:41.928Z</time></trkpt><trkpt lat="44.1409708" lon="10.3780261"><ele>397.8571428571429</ele><time>2026-04-07T08:29:43.925Z</time></trkpt><trkpt lat="44.1410309" lon="10.3779999"><ele>398.1428571428571</ele><time>2026-04-07T08:29:45.933Z</time></trkpt><trkpt lat="44.1411134" lon="10.3779445"><ele>398.42857142857144</ele><time>2026-04-07T08:29:48.925Z</time></trkpt><trkpt lat="44.1411722" lon="10.3778945"><ele>398.7142857142857</ele><time>2026-04-07T08:29:50.933Z</time></trkpt><trkpt lat="44.1412281" lon="10.3778506"><ele>399.0</ele><time>2026-04-07T08:29:52.932Z</time></trkpt><trkpt lat="44.1412839" lon="10.3778045"><ele>399.0</ele><time>2026-04-07T08:29:54.934Z</time></trkpt><trkpt lat="44.141336" lon="10.3777498"><ele>399.0</ele><time>2026-04-07T08:29:56.941Z</time></trkpt><trkpt lat="44.1413899" lon="10.3776982"><ele>399.0</ele><time>2026-04-07T08:29:58.924Z</time></trkpt><trkpt lat="44.1414464" lon="10.3776454"><ele>399.0</ele><time>2026-04-07T08:30:00.923Z</time></trkpt><trkpt lat="44.141501" lon="10.3775918"><ele>399.0</ele><time>2026-04-07T08:30:02.935Z</time></trkpt><trkpt lat="44.1415534" lon="10.3775386"><ele>399.0</ele><time>2026-04-07T08:30:04.948Z</time></trkpt><trkpt lat="44.1416091" lon="10.3774949"><ele>399.0</ele><time>2026-04-07T08:30:06.917Z</time></trkpt><trkpt lat="44.1416687" lon="10.3774552"><ele>399.0</ele><time>2026-04-07T08:30:08.93Z</time></trkpt><trkpt lat="44.1417264" lon="10.3774123"><ele>399.0</ele><time>2026-04-07T08:30:10.934Z</time></trkpt><trkpt lat="44.1417775" lon="10.3773589"><ele>399.0</ele><time>2026-04-07T08:30:12.931Z</time></trkpt><trkpt lat="44.1418255" lon="10.3773018"><ele>399.0</ele><time>2026-04-07T08:30:14.917Z</time></trkpt><trkpt lat="44.1418683" lon="10.3772336"><ele>399.0</ele><time>2026-04-07T08:30:16.935Z</time></trkpt><trkpt lat="44.1419259" lon="10.3771284"><ele>399.0</ele><time>2026-04-07T08:30:19.922Z</time></trkpt><trkpt lat="44.1419653" lon="10.377054"><ele>399.0</ele><time>2026-04-07T08:30:21.93Z</time></trkpt><trkpt lat="44.1419995" lon="10.3769768"><ele>399.0</ele><time>2026-04-07T08:30:23.939Z</time></trkpt><trkpt lat="44.142031" lon="10.3768976"><ele>399.0</ele><time>2026-04-07T08:30:25.921Z</time></trkpt><trkpt lat="44.1420633" lon="10.3768196"><ele>399.0</ele><time>2026-04-07T08:30:27.917Z</time></trkpt><trkpt lat="44.1420932" lon="10.376736"><ele>399.0</ele><time>2026-04-07T08:30:29.921Z</time></trkpt><trkpt lat="44.1421219" lon="10.3766547"><ele>399.0</ele><time>2026-04-07T08:30:31.914Z</time></trkpt><trkpt lat="44.142148" lon="10.3765714"><ele>399.0</ele><time>2026-04-07T08:30:33.929Z</time></trkpt><trkpt lat="44.142172" lon="10.3764841"><ele>399.0</ele><time>2026-04-07T08:30:35.92Z</time></trkpt><trkpt lat="44.1422" lon="10.3763981"><ele>398.42857142857144</ele><time>2026-04-07T08:30:37.918Z</time></trkpt><trkpt lat="44.1422253" lon="10.3763116"><ele>397.8571428571429</ele><time>2026-04-07T08:30:39.919Z</time></trkpt><trkpt lat="44.1422358" lon="10.3762198"><ele>397.2857142857143</ele><time>2026-04-07T08:30:41.916Z</time></trkpt><trkpt lat="44.1422428" lon="10.3761295"><ele>396.7142857142857</ele><time>2026-04-07T08:30:43.839Z</time></trkpt><trkpt lat="44.1422637" lon="10.3760403"><ele>396.14285714285717</ele><time>2026-04-07T08:30:45.917Z</time></trkpt><trkpt lat="44.1422782" lon="10.3759513"><ele>395.57142857142856</ele><time>2026-04-07T08:30:47.923Z</time></trkpt><trkpt lat="44.1422802" lon="10.3758587"><ele>395.0</ele><time>2026-04-07T08:30:49.919Z</time></trkpt><trkpt lat="44.1422878" lon="10.3757681"><ele>394.99999999999994</ele><time>2026-04-07T08:30:51.917Z</time></trkpt><trkpt lat="44.1422954" lon="10.3756581"><ele>395.0</ele><time>2026-04-07T08:30:54.943Z</time></trkpt><trkpt lat="44.1422987" lon="10.3755591"><ele>395.0</ele><time>2026-04-07T08:30:56.917Z</time></trkpt><trkpt lat="44.1422992" lon="10.3754646"><ele>395.0</ele><time>2026-04-07T08:30:58.918Z</time></trkpt><trkpt lat="44.1423033" lon="10.3753758"><ele>394.99999999999994</ele><time>2026-04-07T08:31:00.918Z</time></trkpt><trkpt lat="44.1423209" lon="10.3752466"><ele>395.0</ele><time>2026-04-07T08:31:03.923Z</time></trkpt><trkpt lat="44.1423468" lon="10.3751233"><ele>394.85714285714283</ele><time>2026-04-07T08:31:06.938Z</time></trkpt><trkpt lat="44.1423694" lon="10.3750404"><ele>394.7142857142857</ele><time>2026-04-07T08:31:08.92Z</time></trkpt><trkpt lat="44.1424062" lon="10.3749228"><ele>394.57142857142856</ele><time>2026-04-07T08:31:11.943Z</time></trkpt><trkpt lat="44.1424293" lon="10.3748408"><ele>394.42857142857144</ele><time>2026-04-07T08:31:13.921Z</time></trkpt><trkpt lat="44.1424541" lon="10.3747584"><ele>394.28571428571433</ele><time>2026-04-07T08:31:15.916Z</time></trkpt><trkpt lat="44.1424792" lon="10.3746752"><ele>394.14285714285717</ele><time>2026-04-07T08:31:17.921Z</time></trkpt><trkpt lat="44.1425066" lon="10.3745937"><ele>394.0</ele><time>2026-04-07T08:31:19.919Z</time></trkpt><trkpt lat="44.1425333" lon="10.3745111"><ele>396.2857142857143</ele><time>2026-04-07T08:31:21.933Z</time></trkpt><trkpt lat="44.1425587" lon="10.3744277"><ele>398.57142857142856</ele><time>2026-04-07T08:31:23.935Z</time></trkpt><trkpt lat="44.1425843" lon="10.3743425"><ele>400.8571428571429</ele><time>2026-04-07T08:31:25.922Z</time></trkpt><trkpt lat="44.1426078" lon="10.3742594"><ele>403.1428571428571</ele><time>2026-04-07T08:31:27.926Z</time></trkpt><trkpt lat="44.1426433" lon="10.3741373"><ele>405.4285714285714</ele><time>2026-04-07T08:31:30.934Z</time></trkpt><trkpt lat="44.1426684" lon="10.3740551"><ele>407.7142857142857</ele><time>2026-04-07T08:31:32.922Z</time></trkpt><trkpt lat="44.1426904" lon="10.3739707"><ele>410.0</ele><time>2026-04-07T08:31:34.927Z</time></trkpt><trkpt lat="44.1427275" lon="10.3738499"><ele>410.2857142857143</ele><time>2026-04-07T08:31:37.916Z</time></trkpt><trkpt lat="44.1427823" lon="10.373746"><ele>410.57142857142856</ele><time>2026-04-07T08:31:40.919Z</time></trkpt><trkpt lat="44.1428305" lon="10.3736875"><ele>410.85714285714283</ele><time>2026-04-07T08:31:42.929Z</time></trkpt><trkpt lat="44.1428899" lon="10.3736469"><ele>411.1428571428571</ele><time>2026-04-07T08:31:44.93Z</time></trkpt><trkpt lat="44.1429542" lon="10.3736351"><ele>411.42857142857144</ele><time>2026-04-07T08:31:46.94Z</time></trkpt><trkpt lat="44.1430216" lon="10.3736453"><ele>411.71428571428567</ele><time>2026-04-07T08:31:48.92Z</time></trkpt><trkpt lat="44.1430887" lon="10.3736801"><ele>412.0</ele><time>2026-04-07T08:31:50.924Z</time></trkpt><trkpt lat="44.1431505" lon="10.3737233"><ele>411.99999999999994</ele><time>2026-04-07T08:31:52.938Z</time></trkpt><trkpt lat="44.143212" lon="10.3737678"><ele>412.0</ele><time>2026-04-07T08:31:54.92Z</time></trkpt><trkpt lat="44.1432753" lon="10.3738153"><ele>412.0</ele><time>2026-04-07T08:31:56.919Z</time></trkpt><trkpt lat="44.1433384" lon="10.3738585"><ele>412.0</ele><time>2026-04-07T08:31:58.926Z</time></trkpt><trkpt lat="44.1433983" lon="10.3739021"><ele>412.0</ele><time>2026-04-07T08:32:00.932Z</time></trkpt><trkpt lat="44.1434576" lon="10.3739452"><ele>411.99999999999994</ele><time>2026-04-07T08:32:02.933Z</time></trkpt><trkpt lat="44.1435171" lon="10.3739846"><ele>412.0</ele><time>2026-04-07T08:32:04.929Z</time></trkpt><trkpt lat="44.1435774" lon="10.374022"><ele>412.4285714285714</ele><time>2026-04-07T08:32:06.926Z</time></trkpt><trkpt lat="44.1436685" lon="10.3740582"><ele>412.85714285714283</ele><time>2026-04-07T08:32:09.918Z</time></trkpt><trkpt lat="44.1437324" lon="10.3740754"><ele>413.2857142857143</ele><time>2026-04-07T08:32:11.933Z</time></trkpt><trkpt lat="44.1437988" lon="10.3740825"><ele>413.71428571428567</ele><time>2026-04-07T08:32:13.928Z</time></trkpt><trkpt lat="44.1438641" lon="10.3740826"><ele>414.14285714285717</ele><time>2026-04-07T08:32:15.918Z</time></trkpt><trkpt lat="44.143929" lon="10.3740785"><ele>414.57142857142856</ele><time>2026-04-07T08:32:17.936Z</time></trkpt><trkpt lat="44.1439939" lon="10.3740661"><ele>415.0</ele><time>2026-04-07T08:32:19.929Z</time></trkpt><trkpt lat="44.1440621" lon="10.3740561"><ele>415.57142857142856</ele><time>2026-04-07T08:32:21.926Z</time></trkpt><trkpt lat="44.1441268" lon="10.3740354"><ele>416.14285714285717</ele><time>2026-04-07T08:32:23.928Z</time></trkpt><trkpt lat="44.1441917" lon="10.3740068"><ele>416.71428571428567</ele><time>2026-04-07T08:32:25.928Z</time></trkpt><trkpt lat="44.1442557" lon="10.37398"><ele>417.2857142857143</ele><time>2026-04-07T08:32:27.94Z</time></trkpt><trkpt lat="44.1443161" lon="10.3739476"><ele>417.85714285714283</ele><time>2026-04-07T08:32:29.918Z</time></trkpt><trkpt lat="44.1443717" lon="10.3739001"><ele>418.4285714285714</ele><time>2026-04-07T08:32:31.916Z</time></trkpt><trkpt lat="44.1444291" lon="10.3738547"><ele>419.0</ele><time>2026-04-07T08:32:33.917Z</time></trkpt><trkpt lat="44.1444854" lon="10.3738109"><ele>418.4285714285714</ele><time>2026-04-07T08:32:35.932Z</time></trkpt><trkpt lat="44.1445397" lon="10.3737643"><ele>417.85714285714283</ele><time>2026-04-07T08:32:37.949Z</time></trkpt><trkpt lat="44.1445935" lon="10.3737152"><ele>417.2857142857143</ele><time>2026-04-07T08:32:39.914Z</time></trkpt><trkpt lat="44.1446499" lon="10.3736706"><ele>416.71428571428567</ele><time>2026-04-07T08:32:41.924Z</time></trkpt><trkpt lat="44.1447052" lon="10.3736238"><ele>416.14285714285717</ele><time>2026-04-07T08:32:43.919Z</time></trkpt><trkpt lat="44.1447603" lon="10.3735747"><ele>415.57142857142856</ele><time>2026-04-07T08:32:45.944Z</time></trkpt><trkpt lat="44.1448349" lon="10.3735146"><ele>415.0</ele><time>2026-04-07T08:32:48.923Z</time></trkpt><trkpt lat="44.144894" lon="10.3734661"><ele>415.0</ele><time>2026-04-07T08:32:50.927Z</time></trkpt><trkpt lat="44.1449555" lon="10.3734139"><ele>415.0</ele><time>2026-04-07T08:32:52.931Z</time></trkpt><trkpt lat="44.145014" lon="10.3733633"><ele>415.0</ele><time>2026-04-07T08:32:54.925Z</time></trkpt><trkpt lat="44.1450734" lon="10.3733157"><ele>415.0</ele><time>2026-04-07T08:32:56.935Z</time></trkpt><trkpt lat="44.1451272" lon="10.373263"><ele>415.0</ele><time>2026-04-07T08:32:58.936Z</time></trkpt><trkpt lat="44.145206" lon="10.3731938"><ele>415.0</ele><time>2026-04-07T08:33:01.924Z</time></trkpt><trkpt lat="44.1452606" lon="10.3731474"><ele>415.0</ele><time>2026-04-07T08:33:03.935Z</time></trkpt><trkpt lat="44.1453142" lon="10.3731013"><ele>415.0</ele><time>2026-04-07T08:33:05.928Z</time></trkpt><trkpt lat="44.1453693" lon="10.3730521"><ele>415.0</ele><time>2026-04-07T08:33:07.929Z</time></trkpt><trkpt lat="44.1454245" lon="10.3730024"><ele>415.0</ele><time>2026-04-07T08:33:09.936Z</time></trkpt><trkpt lat="44.1454795" lon="10.3729519"><ele>415.0</ele><time>2026-04-07T08:33:11.922Z</time></trkpt><trkpt lat="44.1455378" lon="10.3729004"><ele>415.0</ele><time>2026-04-07T08:33:13.918Z</time></trkpt><trkpt lat="44.1455934" lon="10.3728513"><ele>415.0</ele><time>2026-04-07T08:33:15.944Z</time></trkpt><trkpt lat="44.1456505" lon="10.3728042"><ele>415.0</ele><time>2026-04-07T08:33:17.927Z</time></trkpt><trkpt lat="44.1457046" lon="10.3727523"><ele>414.7142857142857</ele><time>2026-04-07T08:33:19.936Z</time></trkpt><trkpt lat="44.1457826" lon="10.3727159"><ele>414.42857142857144</ele><time>2026-04-07T08:33:22.932Z</time></trkpt><trkpt lat="44.1458529" lon="10.372736"><ele>414.1428571428571</ele><time>2026-04-07T08:33:24.932Z</time></trkpt><trkpt lat="44.1459201" lon="10.3727647"><ele>413.8571428571429</ele><time>2026-04-07T08:33:26.923Z</time></trkpt><trkpt lat="44.1459877" lon="10.3727942"><ele>413.57142857142856</ele><time>2026-04-07T08:33:28.928Z</time></trkpt><trkpt lat="44.1460502" lon="10.3728163"><ele>413.2857142857143</ele><time>2026-04-07T08:33:30.923Z</time></trkpt><trkpt lat="44.1461156" lon="10.3728417"><ele>413.0</ele><time>2026-04-07T08:33:32.919Z</time></trkpt><trkpt lat="44.146181" lon="10.3728688"><ele>413.0</ele><time>2026-04-07T08:33:34.939Z</time></trkpt><trkpt lat="44.14625" lon="10.3728941"><ele>413.0</ele><time>2026-04-07T08:33:36.938Z</time></trkpt><trkpt lat="44.1463165" lon="10.3729177"><ele>413.0</ele><time>2026-04-07T08:33:38.929Z</time></trkpt><trkpt lat="44.1463808" lon="10.3729394"><ele>413.0</ele><time>2026-04-07T08:33:40.933Z</time></trkpt><trkpt lat="44.1464462" lon="10.3729451"><ele>413.0</ele><time>2026-04-07T08:33:42.931Z</time></trkpt><trkpt lat="44.1465142" lon="10.3729549"><ele>413.0</ele><time>2026-04-07T08:33:44.926Z</time></trkpt><trkpt lat="44.1465801" lon="10.3729655"><ele>413.0</ele><time>2026-04-07T08:33:46.93Z</time></trkpt><trkpt lat="44.1466457" lon="10.372959"><ele>413.7142857142857</ele><time>2026-04-07T08:33:48.923Z</time></trkpt><trkpt lat="44.1467326" lon="10.3729188"><ele>414.42857142857144</ele><time>2026-04-07T08:33:51.922Z</time></trkpt><trkpt lat="44.1467832" lon="10.3728632"><ele>415.1428571428571</ele><time>2026-04-07T08:33:53.928Z</time></trkpt><trkpt lat="44.1468293" lon="10.3727916"><ele>415.8571428571429</ele><time>2026-04-07T08:33:55.933Z</time></trkpt><trkpt lat="44.1468679" lon="10.3727172"><ele>416.57142857142856</ele><time>2026-04-07T08:33:57.927Z</time></trkpt><trkpt lat="44.1468933" lon="10.3726347"><ele>417.2857142857143</ele><time>2026-04-07T08:33:59.925Z</time></trkpt><trkpt lat="44.1469009" lon="10.372547"><ele>418.0</ele><time>2026-04-07T08:34:01.935Z</time></trkpt><trkpt lat="44.1468953" lon="10.3724525"><ele>418.0</ele><time>2026-04-07T08:34:03.928Z</time></trkpt><trkpt lat="44.1468835" lon="10.3723565"><ele>418.0</ele><time>2026-04-07T08:34:05.919Z</time></trkpt><trkpt lat="44.146871" lon="10.3722623"><ele>418.0</ele><time>2026-04-07T08:34:07.92Z</time></trkpt><trkpt lat="44.1468632" lon="10.3721688"><ele>418.0</ele><time>2026-04-07T08:34:09.923Z</time></trkpt><trkpt lat="44.1468565" lon="10.3720769"><ele>418.0</ele><time>2026-04-07T08:34:11.938Z</time></trkpt><trkpt lat="44.1468505" lon="10.371986"><ele>418.0</ele><time>2026-04-07T08:34:13.922Z</time></trkpt><trkpt lat="44.1468485" lon="10.3718948"><ele>418.0</ele><time>2026-04-07T08:34:15.923Z</time></trkpt><trkpt lat="44.1468496" lon="10.3718026"><ele>418.0</ele><time>2026-04-07T08:34:17.939Z</time></trkpt><trkpt lat="44.1468539" lon="10.3717144"><ele>418.0</ele><time>2026-04-07T08:34:19.923Z</time></trkpt><trkpt lat="44.1468625" lon="10.3716238"><ele>418.0</ele><time>2026-04-07T08:34:21.921Z</time></trkpt><trkpt lat="44.1468734" lon="10.3715356"><ele>418.0</ele><time>2026-04-07T08:34:23.934Z</time></trkpt><trkpt lat="44.1468969" lon="10.3714081"><ele>418.0</ele><time>2026-04-07T08:34:26.931Z</time></trkpt><trkpt lat="44.1469194" lon="10.3712811"><ele>418.0</ele><time>2026-04-07T08:34:29.928Z</time></trkpt><trkpt lat="44.1469408" lon="10.3711961"><ele>418.0</ele><time>2026-04-07T08:34:31.945Z</time></trkpt><trkpt lat="44.1469683" lon="10.3711142"><ele>417.33333333333337</ele><time>2026-04-07T08:34:33.933Z</time></trkpt><trkpt lat="44.1470107" lon="10.3710008"><ele>416.6666666666667</ele><time>2026-04-07T08:34:36.917Z</time></trkpt><trkpt lat="44.1470582" lon="10.3708901"><ele>416.0</ele><time>2026-04-07T08:34:39.923Z</time></trkpt><trkpt lat="44.1470967" lon="10.3708189"><ele>415.33333333333337</ele><time>2026-04-07T08:34:41.927Z</time></trkpt><trkpt lat="44.1471558" lon="10.3707217"><ele>414.6666666666667</ele><time>2026-04-07T08:34:43.924Z</time></trkpt><trkpt lat="44.1472145" lon="10.3706358"><ele>414.0</ele><time>2026-04-07T08:34:46.922Z</time></trkpt><trkpt lat="44.1472872" lon="10.3705588"><ele>414.7142857142857</ele><time>2026-04-07T08:34:49.92Z</time></trkpt><trkpt lat="44.1473646" lon="10.3704883"><ele>415.42857142857144</ele><time>2026-04-07T08:34:52.921Z</time></trkpt><trkpt lat="44.1474142" lon="10.3704334"><ele>416.1428571428571</ele><time>2026-04-07T08:34:54.935Z</time></trkpt><trkpt lat="44.1474666" lon="10.3703752"><ele>416.8571428571429</ele><time>2026-04-07T08:34:56.927Z</time></trkpt><trkpt lat="44.1475201" lon="10.3703205"><ele>417.57142857142856</ele><time>2026-04-07T08:34:58.943Z</time></trkpt><trkpt lat="44.1475747" lon="10.3702751"><ele>418.2857142857143</ele><time>2026-04-07T08:35:00.935Z</time></trkpt><trkpt lat="44.1476309" lon="10.3702299"><ele>419.0</ele><time>2026-04-07T08:35:02.928Z</time></trkpt><trkpt lat="44.1476879" lon="10.3701912"><ele>418.99999999999994</ele><time>2026-04-07T08:35:04.931Z</time></trkpt><trkpt lat="44.1477666" lon="10.3701419"><ele>419.0</ele><time>2026-04-07T08:35:07.933Z</time></trkpt><trkpt lat="44.1478459" lon="10.3701091"><ele>419.0</ele><time>2026-04-07T08:35:10.935Z</time></trkpt><trkpt lat="44.1479081" lon="10.3700891"><ele>419.0</ele><time>2026-04-07T08:35:12.918Z</time></trkpt><trkpt lat="44.1479731" lon="10.3700796"><ele>419.0</ele><time>2026-04-07T08:35:14.918Z</time></trkpt><trkpt lat="44.1480391" lon="10.3700644"><ele>418.99999999999994</ele><time>2026-04-07T08:35:16.918Z</time></trkpt><trkpt lat="44.1481041" lon="10.3700327"><ele>419.0</ele><time>2026-04-07T08:35:18.931Z</time></trkpt><trkpt lat="44.1481707" lon="10.3700096"><ele>419.99999999999994</ele><time>2026-04-07T08:35:20.936Z</time></trkpt><trkpt lat="44.1482366" lon="10.369996"><ele>421.0</ele><time>2026-04-07T08:35:22.919Z</time></trkpt><trkpt lat="44.1483006" lon="10.369973"><ele>422.0</ele><time>2026-04-07T08:35:24.944Z</time></trkpt><trkpt lat="44.148385" lon="10.3699173"><ele>423.0</ele><time>2026-04-07T08:35:27.928Z</time></trkpt><trkpt lat="44.1484421" lon="10.3698794"><ele>424.0</ele><time>2026-04-07T08:35:29.933Z</time></trkpt><trkpt lat="44.1484985" lon="10.3698383"><ele>424.99999999999994</ele><time>2026-04-07T08:35:31.924Z</time></trkpt><trkpt lat="44.1485481" lon="10.3697799"><ele>426.0</ele><time>2026-04-07T08:35:33.916Z</time></trkpt><trkpt lat="44.1485971" lon="10.3697144"><ele>424.99999999999994</ele><time>2026-04-07T08:35:35.947Z</time></trkpt><trkpt lat="44.1486417" lon="10.3696438"><ele>424.0</ele><time>2026-04-07T08:35:37.941Z</time></trkpt><trkpt lat="44.148683" lon="10.3695669"><ele>423.0</ele><time>2026-04-07T08:35:39.93Z</time></trkpt><trkpt lat="44.1487158" lon="10.3694865"><ele>422.0</ele><time>2026-04-07T08:35:41.935Z</time></trkpt><trkpt lat="44.1487539" lon="10.3693651"><ele>421.0</ele><time>2026-04-07T08:35:44.925Z</time></trkpt><trkpt lat="44.1487675" lon="10.3692781"><ele>419.99999999999994</ele><time>2026-04-07T08:35:46.915Z</time></trkpt><trkpt lat="44.1487791" lon="10.3691891"><ele>419.0</ele><time>2026-04-07T08:35:48.929Z</time></trkpt><trkpt lat="44.1487857" lon="10.3690958"><ele>418.99999999999994</ele><time>2026-04-07T08:35:50.929Z</time></trkpt><trkpt lat="44.1487917" lon="10.3689996"><ele>419.0</ele><time>2026-04-07T08:35:52.919Z</time></trkpt><trkpt lat="44.148803" lon="10.3689065"><ele>419.0</ele><time>2026-04-07T08:35:54.925Z</time></trkpt><trkpt lat="44.1488056" lon="10.3688096"><ele>419.0</ele><time>2026-04-07T08:35:56.92Z</time></trkpt><trkpt lat="44.1488016" lon="10.3687134"><ele>419.0</ele><time>2026-04-07T08:35:58.935Z</time></trkpt><trkpt lat="44.1487917" lon="10.3686164"><ele>418.99999999999994</ele><time>2026-04-07T08:36:00.921Z</time></trkpt><trkpt lat="44.1487889" lon="10.3685172"><ele>419.0</ele><time>2026-04-07T08:36:02.919Z</time></trkpt><trkpt lat="44.1487911" lon="10.3684119"><ele>417.99999999999994</ele><time>2026-04-07T08:36:04.935Z</time></trkpt><trkpt lat="44.1487875" lon="10.3683076"><ele>417.0</ele><time>2026-04-07T08:36:06.923Z</time></trkpt><trkpt lat="44.1487841" lon="10.3682133"><ele>416.0</ele><time>2026-04-07T08:36:08.937Z</time></trkpt><trkpt lat="44.1487918" lon="10.368125"><ele>415.0</ele><time>2026-04-07T08:36:10.931Z</time></trkpt><trkpt lat="44.1488072" lon="10.3679944"><ele>414.0</ele><time>2026-04-07T08:36:13.921Z</time></trkpt><trkpt lat="44.1488435" lon="10.3679178"><ele>412.99999999999994</ele><time>2026-04-07T08:36:15.922Z</time></trkpt><trkpt lat="44.1488976" lon="10.3678561"><ele>412.0</ele><time>2026-04-07T08:36:17.936Z</time></trkpt><trkpt lat="44.1489594" lon="10.3678347"><ele>413.2857142857143</ele><time>2026-04-07T08:36:19.944Z</time></trkpt><trkpt lat="44.1490484" lon="10.3678062"><ele>414.57142857142856</ele><time>2026-04-07T08:36:22.925Z</time></trkpt><trkpt lat="44.1491107" lon="10.3677722"><ele>415.8571428571429</ele><time>2026-04-07T08:36:24.942Z</time></trkpt><trkpt lat="44.1491746" lon="10.3677259"><ele>417.1428571428571</ele><time>2026-04-07T08:36:26.942Z</time></trkpt><trkpt lat="44.1492336" lon="10.3676878"><ele>418.42857142857144</ele><time>2026-04-07T08:36:28.917Z</time></trkpt><trkpt lat="44.1492964" lon="10.3676647"><ele>419.7142857142857</ele><time>2026-04-07T08:36:30.94Z</time></trkpt><trkpt lat="44.1493612" lon="10.3676475"><ele>421.0</ele><time>2026-04-07T08:36:32.931Z</time></trkpt><trkpt lat="44.149423" lon="10.3676149"><ele>421.00000000000006</ele><time>2026-04-07T08:36:34.933Z</time></trkpt><trkpt lat="44.1495142" lon="10.3675763"><ele>421.0</ele><time>2026-04-07T08:36:37.926Z</time></trkpt><trkpt lat="44.1495817" lon="10.3675549"><ele>421.0</ele><time>2026-04-07T08:36:39.921Z</time></trkpt><trkpt lat="44.1496461" lon="10.3675224"><ele>421.0</ele><time>2026-04-07T08:36:41.924Z</time></trkpt><trkpt lat="44.1497117" lon="10.3674935"><ele>421.0</ele><time>2026-04-07T08:36:43.935Z</time></trkpt><trkpt lat="44.149779" lon="10.3674603"><ele>421.00000000000006</ele><time>2026-04-07T08:36:45.925Z</time></trkpt><trkpt lat="44.1498466" lon="10.3674359"><ele>421.0</ele><time>2026-04-07T08:36:47.934Z</time></trkpt><trkpt lat="44.1499129" lon="10.3674097"><ele>422.42857142857144</ele><time>2026-04-07T08:36:49.933Z</time></trkpt><trkpt lat="44.1499762" lon="10.3673741"><ele>423.8571428571429</ele><time>2026-04-07T08:36:51.928Z</time></trkpt><trkpt lat="44.1500401" lon="10.3673435"><ele>425.28571428571433</ele><time>2026-04-07T08:36:53.923Z</time></trkpt><trkpt lat="44.1501059" lon="10.3673061"><ele>426.7142857142857</ele><time>2026-04-07T08:36:55.923Z</time></trkpt><trkpt lat="44.1501693" lon="10.3672695"><ele>428.1428571428571</ele><time>2026-04-07T08:36:57.923Z</time></trkpt><trkpt lat="44.1502537" lon="10.3672359"><ele>429.5714285714286</ele><time>2026-04-07T08:37:00.926Z</time></trkpt><trkpt lat="44.1503163" lon="10.3672225"><ele>431.0</ele><time>2026-04-07T08:37:02.942Z</time></trkpt><trkpt lat="44.1503827" lon="10.3672187"><ele>430.99999999999994</ele><time>2026-04-07T08:37:04.941Z</time></trkpt><trkpt lat="44.1504466" lon="10.367217"><ele>431.0</ele><time>2026-04-07T08:37:06.917Z</time></trkpt><trkpt lat="44.150512" lon="10.367226"><ele>431.0</ele><time>2026-04-07T08:37:08.922Z</time></trkpt><trkpt lat="44.1506006" lon="10.3672606"><ele>431.0</ele><time>2026-04-07T08:37:11.938Z</time></trkpt><trkpt lat="44.1506774" lon="10.3672723"><ele>430.99999999999994</ele><time>2026-04-07T08:37:14.922Z</time></trkpt><trkpt lat="44.1507415" lon="10.3672483"><ele>431.0</ele><time>2026-04-07T08:37:17.927Z</time></trkpt><trkpt lat="44.1508233" lon="10.3671987"><ele>429.2857142857143</ele><time>2026-04-07T08:37:20.929Z</time></trkpt><trkpt lat="44.1508805" lon="10.367156"><ele>427.57142857142856</ele><time>2026-04-07T08:37:22.926Z</time></trkpt><trkpt lat="44.1509455" lon="10.3671176"><ele>425.85714285714283</ele><time>2026-04-07T08:37:24.922Z</time></trkpt><trkpt lat="44.15101" lon="10.3670819"><ele>424.1428571428571</ele><time>2026-04-07T08:37:26.922Z</time></trkpt><trkpt lat="44.1510693" lon="10.3670329"><ele>422.42857142857144</ele><time>2026-04-07T08:37:28.924Z</time></trkpt><trkpt lat="44.1511303" lon="10.3669959"><ele>420.71428571428567</ele><time>2026-04-07T08:37:30.937Z</time></trkpt><trkpt lat="44.1511945" lon="10.3669689"><ele>419.0</ele><time>2026-04-07T08:37:32.924Z</time></trkpt><trkpt lat="44.1512582" lon="10.3669431"><ele>418.99999999999994</ele><time>2026-04-07T08:37:34.927Z</time></trkpt><trkpt lat="44.1513206" lon="10.3669216"><ele>419.0</ele><time>2026-04-07T08:37:36.924Z</time></trkpt><trkpt lat="44.151413" lon="10.3668973"><ele>419.0</ele><time>2026-04-07T08:37:39.926Z</time></trkpt><trkpt lat="44.1515086" lon="10.3668805"><ele>419.0</ele><time>2026-04-07T08:37:42.945Z</time></trkpt><trkpt lat="44.151573" lon="10.3668718"><ele>418.99999999999994</ele><time>2026-04-07T08:37:44.943Z</time></trkpt><trkpt lat="44.151667" lon="10.3668541"><ele>419.0</ele><time>2026-04-07T08:37:47.917Z</time></trkpt><trkpt lat="44.1517304" lon="10.3668423"><ele>421.16666666666663</ele><time>2026-04-07T08:37:49.919Z</time></trkpt><trkpt lat="44.1517955" lon="10.3668386"><ele>423.3333333333333</ele><time>2026-04-07T08:37:51.927Z</time></trkpt><trkpt lat="44.1518882" lon="10.3668487"><ele>425.5</ele><time>2026-04-07T08:37:54.945Z</time></trkpt><trkpt lat="44.1519513" lon="10.3668291"><ele>427.66666666666663</ele><time>2026-04-07T08:37:56.92Z</time></trkpt><trkpt lat="44.15201" lon="10.3667798"><ele>429.8333333333333</ele><time>2026-04-07T08:37:58.944Z</time></trkpt><trkpt lat="44.1520859" lon="10.3667085"><ele>432.0</ele><time>2026-04-07T08:38:01.928Z</time></trkpt><trkpt lat="44.1521611" lon="10.3666372"><ele>432.0</ele><time>2026-04-07T08:38:04.916Z</time></trkpt><trkpt lat="44.152205" lon="10.3665722"><ele>432.0</ele><time>2026-04-07T08:38:06.935Z</time></trkpt><trkpt lat="44.1522557" lon="10.3665148"><ele>432.0</ele><time>2026-04-07T08:38:08.937Z</time></trkpt><trkpt lat="44.1523121" lon="10.3664613"><ele>432.0</ele><time>2026-04-07T08:38:10.932Z</time></trkpt><trkpt lat="44.152371" lon="10.3664205"><ele>432.0</ele><time>2026-04-07T08:38:12.94Z</time></trkpt><trkpt lat="44.1524602" lon="10.3663855"><ele>432.0</ele><time>2026-04-07T08:38:15.921Z</time></trkpt><trkpt lat="44.1525238" lon="10.366373"><ele>432.0</ele><time>2026-04-07T08:38:17.928Z</time></trkpt><trkpt lat="44.1525876" lon="10.3663689"><ele>432.85714285714283</ele><time>2026-04-07T08:38:19.919Z</time></trkpt><trkpt lat="44.152652" lon="10.366372"><ele>433.71428571428567</ele><time>2026-04-07T08:38:21.92Z</time></trkpt><trkpt lat="44.1527447" lon="10.3663876"><ele>434.57142857142856</ele><time>2026-04-07T08:38:24.947Z</time></trkpt><trkpt lat="44.152838" lon="10.366387"><ele>435.42857142857144</ele><time>2026-04-07T08:38:27.924Z</time></trkpt><trkpt lat="44.1529044" lon="10.3663864"><ele>436.2857142857143</ele><time>2026-04-07T08:38:29.934Z</time></trkpt><trkpt lat="44.1529683" lon="10.3663898"><ele>437.14285714285717</ele><time>2026-04-07T08:38:31.933Z</time></trkpt><trkpt lat="44.1530324" lon="10.3663968"><ele>438.0</ele><time>2026-04-07T08:38:33.931Z</time></trkpt><trkpt lat="44.153125" lon="10.3664005"><ele>438.0</ele><time>2026-04-07T08:38:36.918Z</time></trkpt><trkpt lat="44.1531899" lon="10.3663952"><ele>438.0</ele><time>2026-04-07T08:38:38.92Z</time></trkpt><trkpt lat="44.1532529" lon="10.3664043"><ele>438.0</ele><time>2026-04-07T08:38:40.929Z</time></trkpt><trkpt lat="44.1533165" lon="10.3664159"><ele>438.0</ele><time>2026-04-07T08:38:42.94Z</time></trkpt><trkpt lat="44.1534087" lon="10.3664169"><ele>438.0</ele><time>2026-04-07T08:38:45.939Z</time></trkpt><trkpt lat="44.1535024" lon="10.3664169"><ele>438.0</ele><time>2026-04-07T08:38:48.943Z</time></trkpt><trkpt lat="44.153597" lon="10.3664255"><ele>438.8333333333333</ele><time>2026-04-07T08:38:51.924Z</time></trkpt><trkpt lat="44.1536907" lon="10.3664337"><ele>439.66666666666663</ele><time>2026-04-07T08:38:54.928Z</time></trkpt><trkpt lat="44.153755" lon="10.3664305"><ele>440.5</ele><time>2026-04-07T08:38:56.938Z</time></trkpt><trkpt lat="44.1538453" lon="10.3664363"><ele>441.3333333333333</ele><time>2026-04-07T08:38:59.936Z</time></trkpt><trkpt lat="44.1539102" lon="10.3664483"><ele>442.16666666666663</ele><time>2026-04-07T08:39:01.949Z</time></trkpt><trkpt lat="44.153976" lon="10.3664649"><ele>443.0</ele><time>2026-04-07T08:39:03.939Z</time></trkpt><trkpt lat="44.1540444" lon="10.3664861"><ele>443.0</ele><time>2026-04-07T08:39:05.925Z</time></trkpt><trkpt lat="44.1541118" lon="10.3665063"><ele>443.0</ele><time>2026-04-07T08:39:07.937Z</time></trkpt><trkpt lat="44.1541765" lon="10.3665353"><ele>443.0</ele><time>2026-04-07T08:39:09.926Z</time></trkpt><trkpt lat="44.1542419" lon="10.3665622"><ele>443.0</ele><time>2026-04-07T08:39:11.923Z</time></trkpt><trkpt lat="44.1543062" lon="10.3665877"><ele>443.0</ele><time>2026-04-07T08:39:13.92Z</time></trkpt><trkpt lat="44.15437" lon="10.366616"><ele>443.0</ele><time>2026-04-07T08:39:15.929Z</time></trkpt><trkpt lat="44.154431" lon="10.3666541"><ele>443.0</ele><time>2026-04-07T08:39:17.919Z</time></trkpt><trkpt lat="44.1544892" lon="10.3666976"><ele>442.99999999999994</ele><time>2026-04-07T08:39:19.922Z</time></trkpt><trkpt lat="44.1545482" lon="10.3667356"><ele>443.0</ele><time>2026-04-07T08:39:21.933Z</time></trkpt><trkpt lat="44.1546098" lon="10.3667625"><ele>443.0</ele><time>2026-04-07T08:39:23.927Z</time></trkpt><trkpt lat="44.1546971" lon="10.3668074"><ele>443.0</ele><time>2026-04-07T08:39:26.925Z</time></trkpt><trkpt lat="44.1547818" lon="10.3668506"><ele>442.99999999999994</ele><time>2026-04-07T08:39:29.93Z</time></trkpt><trkpt lat="44.1548446" lon="10.3668658"><ele>443.0</ele><time>2026-04-07T08:39:31.939Z</time></trkpt><trkpt lat="44.1549376" lon="10.3668401"><ele>442.57142857142856</ele><time>2026-04-07T08:39:34.942Z</time></trkpt><trkpt lat="44.1549981" lon="10.3668092"><ele>442.14285714285717</ele><time>2026-04-07T08:39:36.937Z</time></trkpt><trkpt lat="44.1550605" lon="10.3667746"><ele>441.71428571428567</ele><time>2026-04-07T08:39:38.941Z</time></trkpt><trkpt lat="44.1551171" lon="10.3667337"><ele>441.2857142857143</ele><time>2026-04-07T08:39:40.919Z</time></trkpt><trkpt lat="44.1551647" lon="10.3666647"><ele>440.85714285714283</ele><time>2026-04-07T08:39:42.945Z</time></trkpt><trkpt lat="44.1552107" lon="10.3666013"><ele>440.4285714285714</ele><time>2026-04-07T08:39:44.922Z</time></trkpt><trkpt lat="44.1552573" lon="10.3665354"><ele>440.0</ele><time>2026-04-07T08:39:46.925Z</time></trkpt><trkpt lat="44.1553021" lon="10.366465"><ele>439.99999999999994</ele><time>2026-04-07T08:39:48.937Z</time></trkpt><trkpt lat="44.1553478" lon="10.3663962"><ele>440.0</ele><time>2026-04-07T08:39:50.929Z</time></trkpt><trkpt lat="44.1553971" lon="10.3663357"><ele>440.0</ele><time>2026-04-07T08:39:52.925Z</time></trkpt><trkpt lat="44.1554676" lon="10.3662495"><ele>440.0</ele><time>2026-04-07T08:39:55.927Z</time></trkpt><trkpt lat="44.1555414" lon="10.3661662"><ele>439.99999999999994</ele><time>2026-04-07T08:39:58.936Z</time></trkpt><trkpt lat="44.1556001" lon="10.3661261"><ele>440.0</ele><time>2026-04-07T08:40:00.926Z</time></trkpt><trkpt lat="44.1556857" lon="10.3660978"><ele>439.66666666666663</ele><time>2026-04-07T08:40:03.928Z</time></trkpt><trkpt lat="44.155764" lon="10.366085"><ele>439.3333333333333</ele><time>2026-04-07T08:40:06.934Z</time></trkpt><trkpt lat="44.1558588" lon="10.3660951"><ele>439.0</ele><time>2026-04-07T08:40:09.94Z</time></trkpt><trkpt lat="44.1559492" lon="10.3661064"><ele>438.66666666666663</ele><time>2026-04-07T08:40:12.927Z</time></trkpt><trkpt lat="44.1560401" lon="10.3661189"><ele>438.3333333333333</ele><time>2026-04-07T08:40:15.926Z</time></trkpt><trkpt lat="44.1561292" lon="10.3660862"><ele>438.0</ele><time>2026-04-07T08:40:18.936Z</time></trkpt><trkpt lat="44.1562097" lon="10.3660189"><ele>438.0</ele><time>2026-04-07T08:40:21.924Z</time></trkpt><trkpt lat="44.1562664" lon="10.3659205"><ele>438.0</ele><time>2026-04-07T08:40:24.941Z</time></trkpt><trkpt lat="44.1562981" lon="10.3658411"><ele>438.0</ele><time>2026-04-07T08:40:26.942Z</time></trkpt><trkpt lat="44.1563327" lon="10.3657527"><ele>438.0</ele><time>2026-04-07T08:40:28.919Z</time></trkpt><trkpt lat="44.156377" lon="10.3656594"><ele>438.0</ele><time>2026-04-07T08:40:30.91Z</time></trkpt><trkpt lat="44.1564211" lon="10.365576"><ele>438.0</ele><time>2026-04-07T08:40:32.92Z</time></trkpt><trkpt lat="44.1564585" lon="10.3654873"><ele>437.5</ele><time>2026-04-07T08:40:34.923Z</time></trkpt><trkpt lat="44.1564859" lon="10.3654009"><ele>437.0</ele><time>2026-04-07T08:40:36.915Z</time></trkpt><trkpt lat="44.156512" lon="10.3652907"><ele>436.5</ele><time>2026-04-07T08:40:39.931Z</time></trkpt><trkpt lat="44.1564929" lon="10.3651947"><ele>436.0</ele><time>2026-04-07T08:40:42.927Z</time></trkpt><trkpt lat="44.1564475" lon="10.3650702"><ele>435.5</ele><time>2026-04-07T08:40:46.919Z</time></trkpt><trkpt lat="44.1563983" lon="10.3649728"><ele>435.0</ele><time>2026-04-07T08:40:49.923Z</time></trkpt><trkpt lat="44.1563411" lon="10.3648781"><ele>435.0</ele><time>2026-04-07T08:40:52.918Z</time></trkpt><trkpt lat="44.1562912" lon="10.3647784"><ele>435.0</ele><time>2026-04-07T08:40:55.922Z</time></trkpt><trkpt lat="44.1562669" lon="10.3646554"><ele>435.0</ele><time>2026-04-07T08:40:58.934Z</time></trkpt><trkpt lat="44.1562469" lon="10.3645336"><ele>435.0</ele><time>2026-04-07T08:41:01.938Z</time></trkpt><trkpt lat="44.156242" lon="10.3644099"><ele>435.0</ele><time>2026-04-07T08:41:04.851Z</time></trkpt><trkpt lat="44.1562535" lon="10.3643211"><ele>435.0</ele><time>2026-04-07T08:41:06.927Z</time></trkpt><trkpt lat="44.1562801" lon="10.3642024"><ele>434.8</ele><time>2026-04-07T08:41:09.918Z</time></trkpt><trkpt lat="44.1563068" lon="10.3640663"><ele>434.6</ele><time>2026-04-07T08:41:12.918Z</time></trkpt><trkpt lat="44.1563227" lon="10.363958"><ele>434.4</ele><time>2026-04-07T08:41:15.925Z</time></trkpt><trkpt lat="44.15634" lon="10.3638332"><ele>434.2</ele><time>2026-04-07T08:41:18.92Z</time></trkpt><trkpt lat="44.1563616" lon="10.3637098"><ele>434.0</ele><time>2026-04-07T08:41:21.927Z</time></trkpt><trkpt lat="44.1563829" lon="10.3635873"><ele>433.99999999999994</ele><time>2026-04-07T08:41:24.921Z</time></trkpt><trkpt lat="44.1564063" lon="10.3634628"><ele>434.0</ele><time>2026-04-07T08:41:27.927Z</time></trkpt><trkpt lat="44.1564338" lon="10.3633393"><ele>434.0</ele><time>2026-04-07T08:41:30.917Z</time></trkpt><trkpt lat="44.1564547" lon="10.3632291"><ele>434.0</ele><time>2026-04-07T08:41:33.919Z</time></trkpt><trkpt lat="44.1564822" lon="10.3631251"><ele>433.99999999999994</ele><time>2026-04-07T08:41:36.922Z</time></trkpt><trkpt lat="44.1565107" lon="10.3630228"><ele>434.0</ele><time>2026-04-07T08:41:39.926Z</time></trkpt><trkpt lat="44.1565327" lon="10.3629082"><ele>436.99999999999994</ele><time>2026-04-07T08:41:42.922Z</time></trkpt><trkpt lat="44.1565613" lon="10.3627984"><ele>440.0</ele><time>2026-04-07T08:41:45.937Z</time></trkpt><trkpt lat="44.1565896" lon="10.3626992"><ele>443.0</ele><time>2026-04-07T08:41:48.927Z</time></trkpt><trkpt lat="44.1566202" lon="10.3626103"><ele>446.0</ele><time>2026-04-07T08:41:51.924Z</time></trkpt><trkpt lat="44.1566481" lon="10.3625257"><ele>448.99999999999994</ele><time>2026-04-07T08:41:54.928Z</time></trkpt><trkpt lat="44.1566898" lon="10.362434"><ele>452.0</ele><time>2026-04-07T08:41:57.923Z</time></trkpt><trkpt lat="44.1567623" lon="10.3623663"><ele>451.99999999999994</ele><time>2026-04-07T08:42:00.924Z</time></trkpt><trkpt lat="44.1568432" lon="10.3623326"><ele>452.0</ele><time>2026-04-07T08:42:03.928Z</time></trkpt><trkpt lat="44.1569282" lon="10.3623263"><ele>452.0</ele><time>2026-04-07T08:42:06.929Z</time></trkpt><trkpt lat="44.1570079" lon="10.3623368"><ele>452.0</ele><time>2026-04-07T08:42:09.948Z</time></trkpt><trkpt lat="44.1570958" lon="10.3623436"><ele>451.99999999999994</ele><time>2026-04-07T08:42:12.92Z</time></trkpt><trkpt lat="44.1571701" lon="10.3623424"><ele>452.0</ele><time>2026-04-07T08:42:15.944Z</time></trkpt><trkpt lat="44.1572464" lon="10.3623394"><ele>451.99999999999994</ele><time>2026-04-07T08:42:18.924Z</time></trkpt><trkpt lat="44.1573187" lon="10.3623091"><ele>452.0</ele><time>2026-04-07T08:42:21.933Z</time></trkpt><trkpt lat="44.157393" lon="10.3622438"><ele>452.0</ele><time>2026-04-07T08:42:24.917Z</time></trkpt><trkpt lat="44.1574609" lon="10.3621601"><ele>452.0</ele><time>2026-04-07T08:42:27.925Z</time></trkpt><trkpt lat="44.1575213" lon="10.3620727"><ele>451.99999999999994</ele><time>2026-04-07T08:42:30.926Z</time></trkpt><trkpt lat="44.1575941" lon="10.3619766"><ele>452.0</ele><time>2026-04-07T08:42:33.93Z</time></trkpt><trkpt lat="44.1576483" lon="10.3619044"><ele>452.66666666666663</ele><time>2026-04-07T08:42:36.922Z</time></trkpt><trkpt lat="44.1577076" lon="10.3618236"><ele>453.3333333333333</ele><time>2026-04-07T08:42:39.913Z</time></trkpt><trkpt lat="44.1577694" lon="10.3617444"><ele>454.0</ele><time>2026-04-07T08:42:42.916Z</time></trkpt><trkpt lat="44.1578368" lon="10.3616735"><ele>454.66666666666663</ele><time>2026-04-07T08:42:45.934Z</time></trkpt><trkpt lat="44.157897" lon="10.3615957"><ele>455.3333333333333</ele><time>2026-04-07T08:42:48.942Z</time></trkpt><trkpt lat="44.157957" lon="10.3615089"><ele>456.0</ele><time>2026-04-07T08:42:51.926Z</time></trkpt><trkpt lat="44.1580233" lon="10.3614164"><ele>454.8333333333333</ele><time>2026-04-07T08:42:54.925Z</time></trkpt><trkpt lat="44.1580653" lon="10.3613233"><ele>453.66666666666663</ele><time>2026-04-07T08:42:57.935Z</time></trkpt><trkpt lat="44.1581031" lon="10.3612143"><ele>452.5</ele><time>2026-04-07T08:43:00.92Z</time></trkpt><trkpt lat="44.158124" lon="10.3610911"><ele>451.3333333333333</ele><time>2026-04-07T08:43:03.927Z</time></trkpt><trkpt lat="44.1581355" lon="10.3610031"><ele>450.16666666666663</ele><time>2026-04-07T08:43:05.915Z</time></trkpt><trkpt lat="44.1581538" lon="10.3609136"><ele>449.0</ele><time>2026-04-07T08:43:07.918Z</time></trkpt><trkpt lat="44.1581741" lon="10.3608249"><ele>448.99999999999994</ele><time>2026-04-07T08:43:09.927Z</time></trkpt><trkpt lat="44.1581946" lon="10.3607372"><ele>449.0</ele><time>2026-04-07T08:43:11.913Z</time></trkpt><trkpt lat="44.158214" lon="10.3605965"><ele>449.0</ele><time>2026-04-07T08:43:14.92Z</time></trkpt><trkpt lat="44.1582291" lon="10.3605093"><ele>449.0</ele><time>2026-04-07T08:43:16.912Z</time></trkpt><trkpt lat="44.1582541" lon="10.3604239"><ele>448.99999999999994</ele><time>2026-04-07T08:43:18.948Z</time></trkpt><trkpt lat="44.1582727" lon="10.3603398"><ele>449.0</ele><time>2026-04-07T08:43:20.921Z</time></trkpt><trkpt lat="44.1582989" lon="10.3602175"><ele>450.85714285714283</ele><time>2026-04-07T08:43:23.919Z</time></trkpt><trkpt lat="44.1583326" lon="10.3601417"><ele>452.71428571428567</ele><time>2026-04-07T08:43:25.922Z</time></trkpt><trkpt lat="44.1583847" lon="10.3600783"><ele>454.57142857142856</ele><time>2026-04-07T08:43:27.918Z</time></trkpt><trkpt lat="44.158442" lon="10.3600321"><ele>456.42857142857144</ele><time>2026-04-07T08:43:29.915Z</time></trkpt><trkpt lat="44.1585211" lon="10.3599839"><ele>458.2857142857143</ele><time>2026-04-07T08:43:32.926Z</time></trkpt><trkpt lat="44.1586066" lon="10.3599546"><ele>460.1428571428571</ele><time>2026-04-07T08:43:35.92Z</time></trkpt><trkpt lat="44.1586684" lon="10.3599355"><ele>462.0</ele><time>2026-04-07T08:43:37.933Z</time></trkpt><trkpt lat="44.1587298" lon="10.3599059"><ele>462.0</ele><time>2026-04-07T08:43:39.928Z</time></trkpt><trkpt lat="44.1588161" lon="10.3598754"><ele>462.0</ele><time>2026-04-07T08:43:42.923Z</time></trkpt><trkpt lat="44.1589032" lon="10.359853"><ele>462.0</ele><time>2026-04-07T08:43:45.929Z</time></trkpt><trkpt lat="44.1589674" lon="10.3598301"><ele>462.0</ele><time>2026-04-07T08:43:47.927Z</time></trkpt><trkpt lat="44.1590289" lon="10.3598024"><ele>462.0</ele><time>2026-04-07T08:43:49.927Z</time></trkpt><trkpt lat="44.1591111" lon="10.3597748"><ele>462.0</ele><time>2026-04-07T08:43:52.922Z</time></trkpt><trkpt lat="44.1592033" lon="10.3597381"><ele>461.7142857142857</ele><time>2026-04-07T08:43:55.922Z</time></trkpt><trkpt lat="44.1592704" lon="10.359712"><ele>461.42857142857144</ele><time>2026-04-07T08:43:57.923Z</time></trkpt><trkpt lat="44.1593331" lon="10.3596901"><ele>461.1428571428571</ele><time>2026-04-07T08:43:59.928Z</time></trkpt><trkpt lat="44.1593972" lon="10.3596648"><ele>460.85714285714283</ele><time>2026-04-07T08:44:01.926Z</time></trkpt><trkpt lat="44.1594617" lon="10.3596421"><ele>460.57142857142856</ele><time>2026-04-07T08:44:03.934Z</time></trkpt><trkpt lat="44.1595244" lon="10.3596143"><ele>460.2857142857142</ele><time>2026-04-07T08:44:05.925Z</time></trkpt><trkpt lat="44.159614" lon="10.3595767"><ele>459.99999999999994</ele><time>2026-04-07T08:44:08.938Z</time></trkpt><trkpt lat="44.1596759" lon="10.3595483"><ele>459.99999999999994</ele><time>2026-04-07T08:44:10.934Z</time></trkpt><trkpt lat="44.1597413" lon="10.3595229"><ele>460.0</ele><time>2026-04-07T08:44:12.932Z</time></trkpt><trkpt lat="44.1598028" lon="10.3594912"><ele>459.99999999999994</ele><time>2026-04-07T08:44:14.922Z</time></trkpt><trkpt lat="44.1598623" lon="10.3594472"><ele>459.99999999999994</ele><time>2026-04-07T08:44:16.92Z</time></trkpt><trkpt lat="44.1599212" lon="10.3594001"><ele>460.0</ele><time>2026-04-07T08:44:18.938Z</time></trkpt><trkpt lat="44.1599784" lon="10.3593515"><ele>459.99999999999994</ele><time>2026-04-07T08:44:20.927Z</time></trkpt><trkpt lat="44.160036" lon="10.3593063"><ele>459.99999999999994</ele><time>2026-04-07T08:44:22.924Z</time></trkpt><trkpt lat="44.1601095" lon="10.3592238"><ele>461.5714285714285</ele><time>2026-04-07T08:44:25.928Z</time></trkpt><trkpt lat="44.1601501" lon="10.3591525"><ele>463.1428571428571</ele><time>2026-04-07T08:44:27.928Z</time></trkpt><trkpt lat="44.1601928" lon="10.3590824"><ele>464.7142857142857</ele><time>2026-04-07T08:44:29.942Z</time></trkpt><trkpt lat="44.1602352" lon="10.3590134"><ele>466.2857142857143</ele><time>2026-04-07T08:44:31.93Z</time></trkpt><trkpt lat="44.1603003" lon="10.3589194"><ele>467.8571428571429</ele><time>2026-04-07T08:44:34.915Z</time></trkpt><trkpt lat="44.1603451" lon="10.3588552"><ele>469.4285714285715</ele><time>2026-04-07T08:44:36.939Z</time></trkpt><trkpt lat="44.1603867" lon="10.3587869"><ele>471.00000000000006</ele><time>2026-04-07T08:44:38.932Z</time></trkpt><trkpt lat="44.1604329" lon="10.3587233"><ele>471.00000000000006</ele><time>2026-04-07T08:44:40.937Z</time></trkpt><trkpt lat="44.1604754" lon="10.3586562"><ele>471.0</ele><time>2026-04-07T08:44:42.932Z</time></trkpt><trkpt lat="44.1605183" lon="10.3585832"><ele>471.00000000000006</ele><time>2026-04-07T08:44:44.93Z</time></trkpt><trkpt lat="44.1605641" lon="10.3585127"><ele>471.00000000000006</ele><time>2026-04-07T08:44:46.929Z</time></trkpt><trkpt lat="44.160609" lon="10.3584412"><ele>471.0</ele><time>2026-04-07T08:44:48.934Z</time></trkpt><trkpt lat="44.1606471" lon="10.3583668"><ele>471.00000000000006</ele><time>2026-04-07T08:44:50.931Z</time></trkpt><trkpt lat="44.1606895" lon="10.358294"><ele>471.00000000000006</ele><time>2026-04-07T08:44:52.944Z</time></trkpt><trkpt lat="44.1607375" lon="10.358233"><ele>473.0</ele><time>2026-04-07T08:44:54.923Z</time></trkpt><trkpt lat="44.1607793" lon="10.3581644"><ele>475.0</ele><time>2026-04-07T08:44:56.918Z</time></trkpt><trkpt lat="44.1608159" lon="10.3580886"><ele>477.0</ele><time>2026-04-07T08:44:58.948Z</time></trkpt><trkpt lat="44.1608762" lon="10.3580022"><ele>479.0</ele><time>2026-04-07T08:45:01.935Z</time></trkpt><trkpt lat="44.1609193" lon="10.3579041"><ele>481.0</ele><time>2026-04-07T08:45:04.933Z</time></trkpt><trkpt lat="44.1609608" lon="10.3577977"><ele>483.0</ele><time>2026-04-07T08:45:07.931Z</time></trkpt><trkpt lat="44.1609993" lon="10.3576823"><ele>483.0</ele><time>2026-04-07T08:45:10.937Z</time></trkpt><trkpt lat="44.1610391" lon="10.3575666"><ele>483.0</ele><time>2026-04-07T08:45:13.918Z</time></trkpt><trkpt lat="44.1610779" lon="10.3574476"><ele>483.0</ele><time>2026-04-07T08:45:16.93Z</time></trkpt><trkpt lat="44.161095" lon="10.357363"><ele>483.0</ele><time>2026-04-07T08:45:18.924Z</time></trkpt><trkpt lat="44.1611127" lon="10.3572776"><ele>483.0</ele><time>2026-04-07T08:45:20.919Z</time></trkpt><trkpt lat="44.1611458" lon="10.3571565"><ele>483.0</ele><time>2026-04-07T08:45:23.942Z</time></trkpt><trkpt lat="44.1611695" lon="10.3570698"><ele>482.2857142857143</ele><time>2026-04-07T08:45:25.921Z</time></trkpt><trkpt lat="44.1611914" lon="10.3569844"><ele>481.57142857142856</ele><time>2026-04-07T08:45:27.921Z</time></trkpt><trkpt lat="44.161223" lon="10.3568598"><ele>480.8571428571429</ele><time>2026-04-07T08:45:30.929Z</time></trkpt><trkpt lat="44.1612569" lon="10.3567791"><ele>480.14285714285717</ele><time>2026-04-07T08:45:32.932Z</time></trkpt><trkpt lat="44.1612806" lon="10.3566955"><ele>479.42857142857144</ele><time>2026-04-07T08:45:34.927Z</time></trkpt><trkpt lat="44.1613003" lon="10.3566096"><ele>478.7142857142858</ele><time>2026-04-07T08:45:36.942Z</time></trkpt><trkpt lat="44.1613352" lon="10.3564904"><ele>478.00000000000006</ele><time>2026-04-07T08:45:39.935Z</time></trkpt><trkpt lat="44.1613526" lon="10.3564057"><ele>478.83333333333337</ele><time>2026-04-07T08:45:41.928Z</time></trkpt><trkpt lat="44.1613796" lon="10.356326"><ele>479.6666666666667</ele><time>2026-04-07T08:45:43.923Z</time></trkpt><trkpt lat="44.1614155" lon="10.3562063"><ele>480.5</ele><time>2026-04-07T08:45:46.938Z</time></trkpt><trkpt lat="44.1614408" lon="10.3561254"><ele>481.33333333333337</ele><time>2026-04-07T08:45:48.929Z</time></trkpt><trkpt lat="44.161475" lon="10.3560051"><ele>482.1666666666667</ele><time>2026-04-07T08:45:51.911Z</time></trkpt><trkpt lat="44.1614854" lon="10.3558744"><ele>483.0</ele><time>2026-04-07T08:45:54.917Z</time></trkpt><trkpt lat="44.1614493" lon="10.3557577"><ele>483.0</ele><time>2026-04-07T08:45:57.924Z</time></trkpt><trkpt lat="44.1613805" lon="10.3556677"><ele>483.0</ele><time>2026-04-07T08:46:00.935Z</time></trkpt><trkpt lat="44.1613307" lon="10.3556123"><ele>483.0</ele><time>2026-04-07T08:46:02.95Z</time></trkpt><trkpt lat="44.1612611" lon="10.3555246"><ele>483.0</ele><time>2026-04-07T08:46:05.911Z</time></trkpt><trkpt lat="44.1612138" lon="10.3554586"><ele>483.0</ele><time>2026-04-07T08:46:07.917Z</time></trkpt><trkpt lat="44.1611543" lon="10.355364"><ele>483.0</ele><time>2026-04-07T08:46:10.92Z</time></trkpt><trkpt lat="44.1610885" lon="10.3552748"><ele>484.2857142857143</ele><time>2026-04-07T08:46:13.916Z</time></trkpt><trkpt lat="44.1610429" lon="10.3552121"><ele>485.57142857142856</ele><time>2026-04-07T08:46:15.919Z</time></trkpt><trkpt lat="44.1609939" lon="10.3551535"><ele>486.8571428571429</ele><time>2026-04-07T08:46:17.954Z</time></trkpt><trkpt lat="44.1609247" lon="10.3550646"><ele>488.14285714285717</ele><time>2026-04-07T08:46:20.915Z</time></trkpt><trkpt lat="44.1608764" lon="10.3549975"><ele>489.42857142857144</ele><time>2026-04-07T08:46:22.94Z</time></trkpt><trkpt lat="44.1608261" lon="10.3549358"><ele>490.7142857142858</ele><time>2026-04-07T08:46:24.926Z</time></trkpt><trkpt lat="44.1607761" lon="10.3548822"><ele>492.00000000000006</ele><time>2026-04-07T08:46:26.918Z</time></trkpt><trkpt lat="44.160728" lon="10.354821"><ele>492.8333333333333</ele><time>2026-04-07T08:46:28.925Z</time></trkpt><trkpt lat="44.1606802" lon="10.3547083"><ele>493.66666666666663</ele><time>2026-04-07T08:46:31.931Z</time></trkpt><trkpt lat="44.1606507" lon="10.3545869"><ele>494.5</ele><time>2026-04-07T08:46:34.919Z</time></trkpt><trkpt lat="44.1606498" lon="10.3544561"><ele>495.3333333333333</ele><time>2026-04-07T08:46:37.917Z</time></trkpt><trkpt lat="44.1606639" lon="10.3543691"><ele>496.16666666666663</ele><time>2026-04-07T08:46:39.914Z</time></trkpt><trkpt lat="44.1607093" lon="10.3542559"><ele>497.0</ele><time>2026-04-07T08:46:42.921Z</time></trkpt><trkpt lat="44.1607636" lon="10.3541626"><ele>496.99999999999994</ele><time>2026-04-07T08:46:45.914Z</time></trkpt><trkpt lat="44.1608173" lon="10.3540576"><ele>497.0</ele><time>2026-04-07T08:46:48.92Z</time></trkpt><trkpt lat="44.1608701" lon="10.35395"><ele>497.0</ele><time>2026-04-07T08:46:51.922Z</time></trkpt><trkpt lat="44.1609198" lon="10.3538445"><ele>497.0</ele><time>2026-04-07T08:46:54.923Z</time></trkpt><trkpt lat="44.1609726" lon="10.353754"><ele>496.99999999999994</ele><time>2026-04-07T08:46:57.918Z</time></trkpt><trkpt lat="44.1610319" lon="10.3536623"><ele>497.0</ele><time>2026-04-07T08:47:00.916Z</time></trkpt><trkpt lat="44.1611107" lon="10.353592"><ele>497.99999999999994</ele><time>2026-04-07T08:47:03.928Z</time></trkpt><trkpt lat="44.1611995" lon="10.3535887"><ele>499.0</ele><time>2026-04-07T08:47:06.924Z</time></trkpt><trkpt lat="44.1612904" lon="10.3536197"><ele>500.0</ele><time>2026-04-07T08:47:09.923Z</time></trkpt><trkpt lat="44.1613698" lon="10.353683"><ele>501.0</ele><time>2026-04-07T08:47:12.914Z</time></trkpt><trkpt lat="44.1614219" lon="10.3537423"><ele>501.99999999999994</ele><time>2026-04-07T08:47:14.924Z</time></trkpt><trkpt lat="44.1614979" lon="10.3538168"><ele>503.0</ele><time>2026-04-07T08:47:17.926Z</time></trkpt><trkpt lat="44.1615736" lon="10.3538963"><ele>503.0</ele><time>2026-04-07T08:47:20.914Z</time></trkpt><trkpt lat="44.1616265" lon="10.3539502"><ele>503.00000000000006</ele><time>2026-04-07T08:47:22.916Z</time></trkpt><trkpt lat="44.1616791" lon="10.3540053"><ele>503.0</ele><time>2026-04-07T08:47:24.917Z</time></trkpt><trkpt lat="44.1617335" lon="10.3540585"><ele>503.0</ele><time>2026-04-07T08:47:26.919Z</time></trkpt><trkpt lat="44.1617839" lon="10.3541199"><ele>503.00000000000006</ele><time>2026-04-07T08:47:28.919Z</time></trkpt><trkpt lat="44.1618353" lon="10.3541726"><ele>503.0</ele><time>2026-04-07T08:47:30.919Z</time></trkpt><trkpt lat="44.1618869" lon="10.3542255"><ele>503.0</ele><time>2026-04-07T08:47:32.922Z</time></trkpt><trkpt lat="44.1619617" lon="10.3543003"><ele>503.0</ele><time>2026-04-07T08:47:35.918Z</time></trkpt><trkpt lat="44.1620124" lon="10.3543534"><ele>503.00000000000006</ele><time>2026-04-07T08:47:37.921Z</time></trkpt><trkpt lat="44.1620624" lon="10.3544068"><ele>503.0</ele><time>2026-04-07T08:47:39.923Z</time></trkpt><trkpt lat="44.1621168" lon="10.354453"><ele>503.0</ele><time>2026-04-07T08:47:41.916Z</time></trkpt><trkpt lat="44.1621749" lon="10.3544931"><ele>503.00000000000006</ele><time>2026-04-07T08:47:43.92Z</time></trkpt><trkpt lat="44.1622336" lon="10.3545278"><ele>503.0</ele><time>2026-04-07T08:47:45.92Z</time></trkpt><trkpt lat="44.1623154" lon="10.3545708"><ele>503.0</ele><time>2026-04-07T08:47:48.928Z</time></trkpt><trkpt lat="44.1623905" lon="10.3545912"><ele>501.8571428571429</ele><time>2026-04-07T08:47:51.917Z</time></trkpt><trkpt lat="44.1624615" lon="10.3545925"><ele>500.7142857142858</ele><time>2026-04-07T08:47:54.922Z</time></trkpt><trkpt lat="44.1625262" lon="10.354591"><ele>499.57142857142856</ele><time>2026-04-07T08:47:56.927Z</time></trkpt><trkpt lat="44.1625909" lon="10.3545881"><ele>498.42857142857144</ele><time>2026-04-07T08:47:58.926Z</time></trkpt><trkpt lat="44.1626544" lon="10.3545873"><ele>497.2857142857143</ele><time>2026-04-07T08:48:00.921Z</time></trkpt><trkpt lat="44.1627202" lon="10.3545814"><ele>496.1428571428571</ele><time>2026-04-07T08:48:02.92Z</time></trkpt><trkpt lat="44.1627838" lon="10.3545745"><ele>494.99999999999994</ele><time>2026-04-07T08:48:04.924Z</time></trkpt><trkpt lat="44.162877" lon="10.3545558"><ele>494.99999999999994</ele><time>2026-04-07T08:48:07.928Z</time></trkpt><trkpt lat="44.1629687" lon="10.3545409"><ele>495.0</ele><time>2026-04-07T08:48:10.931Z</time></trkpt><trkpt lat="44.1630326" lon="10.3545319"><ele>494.99999999999994</ele><time>2026-04-07T08:48:12.92Z</time></trkpt><trkpt lat="44.1630966" lon="10.3545211"><ele>494.99999999999994</ele><time>2026-04-07T08:48:14.935Z</time></trkpt><trkpt lat="44.1631883" lon="10.3545043"><ele>495.0</ele><time>2026-04-07T08:48:17.934Z</time></trkpt><trkpt lat="44.1632535" lon="10.3544918"><ele>494.99999999999994</ele><time>2026-04-07T08:48:19.945Z</time></trkpt><trkpt lat="44.1633156" lon="10.3544752"><ele>494.99999999999994</ele><time>2026-04-07T08:48:21.92Z</time></trkpt><trkpt lat="44.1633809" lon="10.3544584"><ele>495.1428571428571</ele><time>2026-04-07T08:48:23.934Z</time></trkpt><trkpt lat="44.1634477" lon="10.3544445"><ele>495.2857142857143</ele><time>2026-04-07T08:48:25.919Z</time></trkpt><trkpt lat="44.1635186" lon="10.354434"><ele>495.42857142857144</ele><time>2026-04-07T08:48:27.924Z</time></trkpt><trkpt lat="44.1635913" lon="10.3544234"><ele>495.57142857142856</ele><time>2026-04-07T08:48:29.922Z</time></trkpt><trkpt lat="44.1636613" lon="10.354409"><ele>495.7142857142858</ele><time>2026-04-07T08:48:31.925Z</time></trkpt><trkpt lat="44.1637286" lon="10.3543949"><ele>495.8571428571429</ele><time>2026-04-07T08:48:33.922Z</time></trkpt><trkpt lat="44.1637992" lon="10.354382"><ele>496.0</ele><time>2026-04-07T08:48:35.925Z</time></trkpt><trkpt lat="44.1638687" lon="10.3543703"><ele>496.0</ele><time>2026-04-07T08:48:37.918Z</time></trkpt><trkpt lat="44.1639391" lon="10.3543497"><ele>496.00000000000006</ele><time>2026-04-07T08:48:39.924Z</time></trkpt><trkpt lat="44.1640046" lon="10.3543242"><ele>496.0</ele><time>2026-04-07T08:48:41.918Z</time></trkpt><trkpt lat="44.1640797" lon="10.3542871"><ele>496.0</ele><time>2026-04-07T08:48:44.926Z</time></trkpt><trkpt lat="44.1641377" lon="10.3542506"><ele>496.00000000000006</ele><time>2026-04-07T08:48:46.936Z</time></trkpt><trkpt lat="44.1642013" lon="10.3541991"><ele>496.0</ele><time>2026-04-07T08:48:48.917Z</time></trkpt><trkpt lat="44.1642592" lon="10.3541464"><ele>496.0</ele><time>2026-04-07T08:48:50.932Z</time></trkpt><trkpt lat="44.1643122" lon="10.3540865"><ele>496.14285714285717</ele><time>2026-04-07T08:48:52.923Z</time></trkpt><trkpt lat="44.1643613" lon="10.3540198"><ele>496.28571428571433</ele><time>2026-04-07T08:48:54.934Z</time></trkpt><trkpt lat="44.164407" lon="10.3539542"><ele>496.42857142857144</ele><time>2026-04-07T08:48:56.924Z</time></trkpt><trkpt lat="44.1644643" lon="10.3538627"><ele>496.57142857142856</ele><time>2026-04-07T08:48:59.924Z</time></trkpt><trkpt lat="44.1645136" lon="10.3537968"><ele>496.7142857142857</ele><time>2026-04-07T08:49:01.926Z</time></trkpt><trkpt lat="44.1645622" lon="10.353724"><ele>496.8571428571429</ele><time>2026-04-07T08:49:03.932Z</time></trkpt><trkpt lat="44.1646069" lon="10.3536575"><ele>497.0</ele><time>2026-04-07T08:49:05.916Z</time></trkpt><trkpt lat="44.1646553" lon="10.3535931"><ele>497.66666666666663</ele><time>2026-04-07T08:49:07.931Z</time></trkpt><trkpt lat="44.1647149" lon="10.3534952"><ele>498.3333333333333</ele><time>2026-04-07T08:49:10.919Z</time></trkpt><trkpt lat="44.1647687" lon="10.3534083"><ele>499.0</ele><time>2026-04-07T08:49:13.916Z</time></trkpt><trkpt lat="44.1648295" lon="10.3533268"><ele>499.66666666666663</ele><time>2026-04-07T08:49:16.929Z</time></trkpt><trkpt lat="44.1648968" lon="10.3532448"><ele>500.3333333333333</ele><time>2026-04-07T08:49:19.938Z</time></trkpt><trkpt lat="44.1649743" lon="10.3531703"><ele>501.0</ele><time>2026-04-07T08:49:22.929Z</time></trkpt><trkpt lat="44.1650584" lon="10.3531127"><ele>501.0</ele><time>2026-04-07T08:49:25.922Z</time></trkpt><trkpt lat="44.1651486" lon="10.3530742"><ele>501.0</ele><time>2026-04-07T08:49:28.929Z</time></trkpt><trkpt lat="44.1652098" lon="10.3530525"><ele>501.0</ele><time>2026-04-07T08:49:30.922Z</time></trkpt><trkpt lat="44.1652719" lon="10.3530304"><ele>501.0</ele><time>2026-04-07T08:49:32.926Z</time></trkpt><trkpt lat="44.1653342" lon="10.3530057"><ele>501.0</ele><time>2026-04-07T08:49:34.929Z</time></trkpt><trkpt lat="44.1654235" lon="10.3529698"><ele>501.0</ele><time>2026-04-07T08:49:37.931Z</time></trkpt><trkpt lat="44.1655139" lon="10.3529271"><ele>500.14285714285717</ele><time>2026-04-07T08:49:40.928Z</time></trkpt><trkpt lat="44.1655768" lon="10.3529045"><ele>499.2857142857142</ele><time>2026-04-07T08:49:42.92Z</time></trkpt><trkpt lat="44.1656396" lon="10.3528819"><ele>498.4285714285714</ele><time>2026-04-07T08:49:44.932Z</time></trkpt><trkpt lat="44.1657005" lon="10.3528565"><ele>497.57142857142856</ele><time>2026-04-07T08:49:46.917Z</time></trkpt><trkpt lat="44.1657643" lon="10.3528292"><ele>496.71428571428567</ele><time>2026-04-07T08:49:48.922Z</time></trkpt><trkpt lat="44.1658262" lon="10.3528015"><ele>495.8571428571428</ele><time>2026-04-07T08:49:50.918Z</time></trkpt><trkpt lat="44.1658903" lon="10.3527701"><ele>494.99999999999994</ele><time>2026-04-07T08:49:52.917Z</time></trkpt><trkpt lat="44.1659535" lon="10.3527431"><ele>495.0</ele><time>2026-04-07T08:49:54.921Z</time></trkpt><trkpt lat="44.1660149" lon="10.3527192"><ele>495.0</ele><time>2026-04-07T08:49:56.917Z</time></trkpt><trkpt lat="44.1661027" lon="10.352686"><ele>495.0</ele><time>2026-04-07T08:49:59.924Z</time></trkpt><trkpt lat="44.1661938" lon="10.3526484"><ele>495.0</ele><time>2026-04-07T08:50:02.93Z</time></trkpt><trkpt lat="44.1662844" lon="10.352611"><ele>495.0</ele><time>2026-04-07T08:50:05.919Z</time></trkpt><trkpt lat="44.166348" lon="10.352588"><ele>495.0</ele><time>2026-04-07T08:50:07.932Z</time></trkpt><trkpt lat="44.1664136" lon="10.3525663"><ele>494.99999999999994</ele><time>2026-04-07T08:50:09.92Z</time></trkpt><trkpt lat="44.1664759" lon="10.3525397"><ele>495.0</ele><time>2026-04-07T08:50:11.926Z</time></trkpt><trkpt lat="44.1665386" lon="10.3525169"><ele>494.99999999999994</ele><time>2026-04-07T08:50:13.933Z</time></trkpt><trkpt lat="44.1666032" lon="10.3524969"><ele>494.99999999999994</ele><time>2026-04-07T08:50:15.925Z</time></trkpt><trkpt lat="44.1666665" lon="10.3524703"><ele>495.0</ele><time>2026-04-07T08:50:17.918Z</time></trkpt><trkpt lat="44.1667278" lon="10.3524398"><ele>494.99999999999994</ele><time>2026-04-07T08:50:19.92Z</time></trkpt><trkpt lat="44.1668105" lon="10.352381"><ele>494.99999999999994</ele><time>2026-04-07T08:50:22.921Z</time></trkpt><trkpt lat="44.1668602" lon="10.3523229"><ele>493.8571428571428</ele><time>2026-04-07T08:50:24.92Z</time></trkpt><trkpt lat="44.1669095" lon="10.3522619"><ele>492.71428571428567</ele><time>2026-04-07T08:50:26.934Z</time></trkpt><trkpt lat="44.1669584" lon="10.3522013"><ele>491.57142857142856</ele><time>2026-04-07T08:50:28.935Z</time></trkpt><trkpt lat="44.1670064" lon="10.3521381"><ele>490.4285714285714</ele><time>2026-04-07T08:50:30.932Z</time></trkpt><trkpt lat="44.1670559" lon="10.352081"><ele>489.2857142857142</ele><time>2026-04-07T08:50:32.928Z</time></trkpt><trkpt lat="44.1671049" lon="10.3520189"><ele>488.14285714285717</ele><time>2026-04-07T08:50:34.924Z</time></trkpt><trkpt lat="44.1671544" lon="10.3519575"><ele>487.0</ele><time>2026-04-07T08:50:36.927Z</time></trkpt><trkpt lat="44.1672026" lon="10.3519002"><ele>487.00000000000006</ele><time>2026-04-07T08:50:38.929Z</time></trkpt><trkpt lat="44.1672731" lon="10.3518131"><ele>487.0</ele><time>2026-04-07T08:50:41.928Z</time></trkpt><trkpt lat="44.1673267" lon="10.3517615"><ele>487.0</ele><time>2026-04-07T08:50:43.925Z</time></trkpt><trkpt lat="44.1673831" lon="10.3517188"><ele>487.0</ele><time>2026-04-07T08:50:45.924Z</time></trkpt><trkpt lat="44.1674432" lon="10.35169"><ele>487.00000000000006</ele><time>2026-04-07T08:50:47.928Z</time></trkpt><trkpt lat="44.1675318" lon="10.3516565"><ele>487.0</ele><time>2026-04-07T08:50:50.923Z</time></trkpt><trkpt lat="44.1676244" lon="10.3516517"><ele>491.00000000000006</ele><time>2026-04-07T08:50:53.926Z</time></trkpt><trkpt lat="44.1677175" lon="10.3516575"><ele>495.0</ele><time>2026-04-07T08:50:56.928Z</time></trkpt><trkpt lat="44.1677834" lon="10.3516633"><ele>499.0</ele><time>2026-04-07T08:50:58.925Z</time></trkpt><trkpt lat="44.1678674" lon="10.3516732"><ele>503.0</ele><time>2026-04-07T08:51:01.922Z</time></trkpt><trkpt lat="44.1679292" lon="10.3516921"><ele>507.00000000000006</ele><time>2026-04-07T08:51:03.922Z</time></trkpt><trkpt lat="44.1680176" lon="10.3517258"><ele>511.0</ele><time>2026-04-07T08:51:06.93Z</time></trkpt><trkpt lat="44.1680999" lon="10.3517575"><ele>511.00000000000006</ele><time>2026-04-07T08:51:09.932Z</time></trkpt><trkpt lat="44.1681904" lon="10.3517909"><ele>511.0</ele><time>2026-04-07T08:51:12.929Z</time></trkpt><trkpt lat="44.1682561" lon="10.3518083"><ele>511.0</ele><time>2026-04-07T08:51:14.924Z</time></trkpt><trkpt lat="44.168321" lon="10.3518071"><ele>511.0</ele><time>2026-04-07T08:51:16.926Z</time></trkpt><trkpt lat="44.1683849" lon="10.3517889"><ele>511.00000000000006</ele><time>2026-04-07T08:51:18.916Z</time></trkpt><trkpt lat="44.1684712" lon="10.3517413"><ele>511.0</ele><time>2026-04-07T08:51:21.922Z</time></trkpt><trkpt lat="44.1685457" lon="10.3516644"><ele>509.33333333333337</ele><time>2026-04-07T08:51:24.919Z</time></trkpt><trkpt lat="44.1685914" lon="10.3515552"><ele>507.6666666666667</ele><time>2026-04-07T08:51:27.921Z</time></trkpt><trkpt lat="44.1686153" lon="10.3514244"><ele>506.0</ele><time>2026-04-07T08:51:30.928Z</time></trkpt><trkpt lat="44.1686295" lon="10.3513288"><ele>504.33333333333337</ele><time>2026-04-07T08:51:32.915Z</time></trkpt><trkpt lat="44.1686474" lon="10.3512443"><ele>502.6666666666667</ele><time>2026-04-07T08:51:34.92Z</time></trkpt><trkpt lat="44.1686673" lon="10.351128"><ele>501.0</ele><time>2026-04-07T08:51:37.916Z</time></trkpt><trkpt lat="44.1686803" lon="10.351041"><ele>501.0</ele><time>2026-04-07T08:51:39.923Z</time></trkpt><trkpt lat="44.1686991" lon="10.3509105"><ele>501.0</ele><time>2026-04-07T08:51:42.917Z</time></trkpt><trkpt lat="44.1687067" lon="10.350823"><ele>501.0</ele><time>2026-04-07T08:51:44.92Z</time></trkpt><trkpt lat="44.1686983" lon="10.3506979"><ele>501.0</ele><time>2026-04-07T08:51:47.921Z</time></trkpt><trkpt lat="44.1686606" lon="10.3505815"><ele>501.0</ele><time>2026-04-07T08:51:50.922Z</time></trkpt><trkpt lat="44.1686061" lon="10.3504783"><ele>501.0</ele><time>2026-04-07T08:51:53.915Z</time></trkpt><trkpt lat="44.1685551" lon="10.3503756"><ele>502.1666666666667</ele><time>2026-04-07T08:51:56.925Z</time></trkpt><trkpt lat="44.1685186" lon="10.3502583"><ele>503.33333333333337</ele><time>2026-04-07T08:51:59.92Z</time></trkpt><trkpt lat="44.1684976" lon="10.3501375"><ele>504.5</ele><time>2026-04-07T08:52:02.932Z</time></trkpt><trkpt lat="44.1684846" lon="10.350007"><ele>505.6666666666667</ele><time>2026-04-07T08:52:05.939Z</time></trkpt><trkpt lat="44.1684841" lon="10.3498746"><ele>506.83333333333337</ele><time>2026-04-07T08:52:08.933Z</time></trkpt><trkpt lat="44.1685003" lon="10.349784"><ele>508.0</ele><time>2026-04-07T08:52:10.921Z</time></trkpt><trkpt lat="44.1685215" lon="10.3497005"><ele>508.1666666666667</ele><time>2026-04-07T08:52:12.919Z</time></trkpt><trkpt lat="44.1685582" lon="10.3495895"><ele>508.33333333333337</ele><time>2026-04-07T08:52:15.935Z</time></trkpt><trkpt lat="44.1685942" lon="10.3494861"><ele>508.5</ele><time>2026-04-07T08:52:18.947Z</time></trkpt><trkpt lat="44.168626" lon="10.3493841"><ele>508.66666666666663</ele><time>2026-04-07T08:52:21.923Z</time></trkpt><trkpt lat="44.1686586" lon="10.3492858"><ele>508.8333333333333</ele><time>2026-04-07T08:52:24.916Z</time></trkpt><trkpt lat="44.1686945" lon="10.3491908"><ele>509.0</ele><time>2026-04-07T08:52:27.92Z</time></trkpt><trkpt lat="44.1687262" lon="10.3490911"><ele>508.99999999999994</ele><time>2026-04-07T08:52:30.94Z</time></trkpt><trkpt lat="44.1687568" lon="10.3489881"><ele>509.0</ele><time>2026-04-07T08:52:33.924Z</time></trkpt><trkpt lat="44.168794" lon="10.3488932"><ele>509.0</ele><time>2026-04-07T08:52:36.925Z</time></trkpt><trkpt lat="44.1688245" lon="10.3487938"><ele>509.0</ele><time>2026-04-07T08:52:39.922Z</time></trkpt><trkpt lat="44.1688528" lon="10.348694"><ele>508.99999999999994</ele><time>2026-04-07T08:52:42.926Z</time></trkpt><trkpt lat="44.1688835" lon="10.3486021"><ele>509.0</ele><time>2026-04-07T08:52:45.936Z</time></trkpt><trkpt lat="44.1689151" lon="10.348504"><ele>509.49999999999994</ele><time>2026-04-07T08:52:48.928Z</time></trkpt><trkpt lat="44.1689439" lon="10.3484064"><ele>510.0</ele><time>2026-04-07T08:52:51.922Z</time></trkpt><trkpt lat="44.1689776" lon="10.348309"><ele>510.5</ele><time>2026-04-07T08:52:54.931Z</time></trkpt><trkpt lat="44.1690098" lon="10.348211"><ele>511.0</ele><time>2026-04-07T08:52:57.926Z</time></trkpt><trkpt lat="44.1690257" lon="10.3481058"><ele>511.49999999999994</ele><time>2026-04-07T08:53:00.917Z</time></trkpt><trkpt lat="44.1690277" lon="10.3479945"><ele>512.0</ele><time>2026-04-07T08:53:03.941Z</time></trkpt><trkpt lat="44.1689975" lon="10.3478922"><ele>514.5</ele><time>2026-04-07T08:53:06.928Z</time></trkpt><trkpt lat="44.1689489" lon="10.3478024"><ele>517.0</ele><time>2026-04-07T08:53:09.925Z</time></trkpt><trkpt lat="44.1688831" lon="10.3477451"><ele>519.5</ele><time>2026-04-07T08:53:12.916Z</time></trkpt><trkpt lat="44.1688118" lon="10.3477079"><ele>522.0</ele><time>2026-04-07T08:53:15.936Z</time></trkpt><trkpt lat="44.1687383" lon="10.3476863"><ele>524.5</ele><time>2026-04-07T08:53:18.914Z</time></trkpt><trkpt lat="44.1686627" lon="10.3476727"><ele>527.0</ele><time>2026-04-07T08:53:21.924Z</time></trkpt><trkpt lat="44.1685873" lon="10.347662"><ele>527.0</ele><time>2026-04-07T08:53:24.92Z</time></trkpt><trkpt lat="44.1685112" lon="10.3476279"><ele>527.0</ele><time>2026-04-07T08:53:27.918Z</time></trkpt><trkpt lat="44.1684512" lon="10.3475513"><ele>527.0</ele><time>2026-04-07T08:53:30.932Z</time></trkpt><trkpt lat="44.1684261" lon="10.3474433"><ele>527.0</ele><time>2026-04-07T08:53:33.919Z</time></trkpt><trkpt lat="44.1684416" lon="10.3473352"><ele>527.0</ele><time>2026-04-07T08:53:36.919Z</time></trkpt><trkpt lat="44.1684905" lon="10.3472479"><ele>527.0</ele><time>2026-04-07T08:53:39.934Z</time></trkpt><trkpt lat="44.1685438" lon="10.3471597"><ele>527.0</ele><time>2026-04-07T08:53:42.926Z</time></trkpt><trkpt lat="44.1686039" lon="10.3470844"><ele>527.0</ele><time>2026-04-07T08:53:45.932Z</time></trkpt><trkpt lat="44.1686547" lon="10.3469996"><ele>527.0</ele><time>2026-04-07T08:53:48.924Z</time></trkpt><trkpt lat="44.1687087" lon="10.3469146"><ele>527.0</ele><time>2026-04-07T08:53:51.934Z</time></trkpt><trkpt lat="44.168763" lon="10.3468321"><ele>527.0</ele><time>2026-04-07T08:53:54.921Z</time></trkpt><trkpt lat="44.1688138" lon="10.3467476"><ele>527.0</ele><time>2026-04-07T08:53:57.928Z</time></trkpt><trkpt lat="44.1688543" lon="10.3466501"><ele>527.0</ele><time>2026-04-07T08:54:00.922Z</time></trkpt><trkpt lat="44.1688799" lon="10.3465506"><ele>527.0</ele><time>2026-04-07T08:54:03.93Z</time></trkpt><trkpt lat="44.1688772" lon="10.3464421"><ele>527.0</ele><time>2026-04-07T08:54:06.93Z</time></trkpt><trkpt lat="44.1688598" lon="10.3463325"><ele>527.0</ele><time>2026-04-07T08:54:09.928Z</time></trkpt><trkpt lat="44.1688333" lon="10.3462214"><ele>527.0</ele><time>2026-04-07T08:54:12.923Z</time></trkpt><trkpt lat="44.1688076" lon="10.3461078"><ele>527.0</ele><time>2026-04-07T08:54:15.936Z</time></trkpt><trkpt lat="44.168784" lon="10.3459979"><ele>527.1666666666666</ele><time>2026-04-07T08:54:18.936Z</time></trkpt><trkpt lat="44.1687822" lon="10.3458804"><ele>527.3333333333333</ele><time>2026-04-07T08:54:21.93Z</time></trkpt><trkpt lat="44.1688142" lon="10.3457795"><ele>527.5</ele><time>2026-04-07T08:54:24.933Z</time></trkpt><trkpt lat="44.1688621" lon="10.3456903"><ele>527.6666666666666</ele><time>2026-04-07T08:54:27.918Z</time></trkpt><trkpt lat="44.1689116" lon="10.3456181"><ele>527.8333333333334</ele><time>2026-04-07T08:54:30.925Z</time></trkpt><trkpt lat="44.1689814" lon="10.3455801"><ele>528.0</ele><time>2026-04-07T08:54:33.928Z</time></trkpt><trkpt lat="44.1690693" lon="10.3455569"><ele>530.1666666666666</ele><time>2026-04-07T08:54:36.926Z</time></trkpt><trkpt lat="44.1691424" lon="10.3455517"><ele>532.3333333333334</ele><time>2026-04-07T08:54:38.928Z</time></trkpt><trkpt lat="44.1692232" lon="10.3455808"><ele>534.5</ele><time>2026-04-07T08:54:40.918Z</time></trkpt><trkpt lat="44.1693044" lon="10.3456252"><ele>536.6666666666667</ele><time>2026-04-07T08:54:42.931Z</time></trkpt><trkpt lat="44.1693881" lon="10.345674"><ele>538.8333333333334</ele><time>2026-04-07T08:54:44.937Z</time></trkpt><trkpt lat="44.1694694" lon="10.3457222"><ele>541.0</ele><time>2026-04-07T08:54:46.93Z</time></trkpt><trkpt lat="44.1695513" lon="10.3457763"><ele>541.0</ele><time>2026-04-07T08:54:48.926Z</time></trkpt><trkpt lat="44.1696404" lon="10.3458357"><ele>541.0</ele><time>2026-04-07T08:54:50.947Z</time></trkpt><trkpt lat="44.1697398" lon="10.3459"><ele>541.0</ele><time>2026-04-07T08:54:52.92Z</time></trkpt><trkpt lat="44.169843" lon="10.3459602"><ele>541.0</ele><time>2026-04-07T08:54:54.916Z</time></trkpt><trkpt lat="44.1699555" lon="10.3459863"><ele>541.0</ele><time>2026-04-07T08:54:56.924Z</time></trkpt><trkpt lat="44.170082" lon="10.3459833"><ele>540.5</ele><time>2026-04-07T08:54:58.933Z</time></trkpt><trkpt lat="44.1701465" lon="10.3459544"><ele>540.0</ele><time>2026-04-07T08:54:59.927Z</time></trkpt><trkpt lat="44.1702533" lon="10.3458899"><ele>539.5</ele><time>2026-04-07T08:55:01.922Z</time></trkpt><trkpt lat="44.1703572" lon="10.3457888"><ele>539.0</ele><time>2026-04-07T08:55:03.932Z</time></trkpt><trkpt lat="44.170405" lon="10.3457316"><ele>538.5</ele><time>2026-04-07T08:55:04.927Z</time></trkpt><trkpt lat="44.1704473" lon="10.3456629"><ele>538.0</ele><time>2026-04-07T08:55:05.937Z</time></trkpt><trkpt lat="44.1704819" lon="10.3455834"><ele>536.5714285714286</ele><time>2026-04-07T08:55:06.93Z</time></trkpt><trkpt lat="44.17051" lon="10.3454989"><ele>535.1428571428572</ele><time>2026-04-07T08:55:07.923Z</time></trkpt><trkpt lat="44.1705275" lon="10.3454038"><ele>533.7142857142858</ele><time>2026-04-07T08:55:08.934Z</time></trkpt><trkpt lat="44.1705387" lon="10.3453071"><ele>532.2857142857143</ele><time>2026-04-07T08:55:09.932Z</time></trkpt><trkpt lat="44.1705474" lon="10.3452089"><ele>530.8571428571429</ele><time>2026-04-07T08:55:10.932Z</time></trkpt><trkpt lat="44.1705568" lon="10.345109"><ele>529.4285714285714</ele><time>2026-04-07T08:55:11.933Z</time></trkpt><trkpt lat="44.1705666" lon="10.3450034"><ele>528.0</ele><time>2026-04-07T08:55:12.925Z</time></trkpt><trkpt lat="44.1705749" lon="10.3448924"><ele>528.0</ele><time>2026-04-07T08:55:13.935Z</time></trkpt><trkpt lat="44.1705815" lon="10.3447806"><ele>528.0</ele><time>2026-04-07T08:55:14.926Z</time></trkpt><trkpt lat="44.1705894" lon="10.3446692"><ele>528.0</ele><time>2026-04-07T08:55:15.941Z</time></trkpt><trkpt lat="44.1706002" lon="10.3445497"><ele>528.0</ele><time>2026-04-07T08:55:16.933Z</time></trkpt><trkpt lat="44.1706095" lon="10.3444292"><ele>528.0</ele><time>2026-04-07T08:55:17.935Z</time></trkpt><trkpt lat="44.1706242" lon="10.3443145"><ele>528.0</ele><time>2026-04-07T08:55:18.93Z</time></trkpt><trkpt lat="44.1706417" lon="10.3441981"><ele>527.8333333333334</ele><time>2026-04-07T08:55:19.938Z</time></trkpt><trkpt lat="44.170673" lon="10.3440857"><ele>527.6666666666666</ele><time>2026-04-07T08:55:20.934Z</time></trkpt><trkpt lat="44.1707188" lon="10.3439845"><ele>527.5</ele><time>2026-04-07T08:55:21.94Z</time></trkpt><trkpt lat="44.1707773" lon="10.3438961"><ele>527.3333333333333</ele><time>2026-04-07T08:55:22.936Z</time></trkpt><trkpt lat="44.1708463" lon="10.3438152"><ele>527.1666666666666</ele><time>2026-04-07T08:55:23.938Z</time></trkpt><trkpt lat="44.170918" lon="10.3437429"><ele>527.0</ele><time>2026-04-07T08:55:24.932Z</time></trkpt><trkpt lat="44.170989" lon="10.3436728"><ele>525.3333333333333</ele><time>2026-04-07T08:55:25.937Z</time></trkpt><trkpt lat="44.171059" lon="10.343602"><ele>523.6666666666666</ele><time>2026-04-07T08:55:26.932Z</time></trkpt><trkpt lat="44.1711223" lon="10.3435198"><ele>522.0</ele><time>2026-04-07T08:55:27.939Z</time></trkpt><trkpt lat="44.1711778" lon="10.3434368"><ele>520.3333333333334</ele><time>2026-04-07T08:55:28.932Z</time></trkpt><trkpt lat="44.171224" lon="10.3433372"><ele>518.6666666666667</ele><time>2026-04-07T08:55:29.937Z</time></trkpt><trkpt lat="44.1712704" lon="10.3432413"><ele>517.0</ele><time>2026-04-07T08:55:30.933Z</time></trkpt><trkpt lat="44.1713167" lon="10.3431446"><ele>517.0</ele><time>2026-04-07T08:55:31.934Z</time></trkpt><trkpt lat="44.1713616" lon="10.3430479"><ele>517.0</ele><time>2026-04-07T08:55:32.922Z</time></trkpt><trkpt lat="44.171413" lon="10.3429543"><ele>517.0</ele><time>2026-04-07T08:55:33.933Z</time></trkpt><trkpt lat="44.1714637" lon="10.3428572"><ele>517.0</ele><time>2026-04-07T08:55:34.938Z</time></trkpt><trkpt lat="44.1715107" lon="10.3427603"><ele>517.0</ele><time>2026-04-07T08:55:35.93Z</time></trkpt><trkpt lat="44.1715601" lon="10.3426646"><ele>517.0</ele><time>2026-04-07T08:55:36.929Z</time></trkpt><trkpt lat="44.1716083" lon="10.3425713"><ele>517.3333333333334</ele><time>2026-04-07T08:55:37.923Z</time></trkpt><trkpt lat="44.1716535" lon="10.3424792"><ele>517.6666666666667</ele><time>2026-04-07T08:55:38.929Z</time></trkpt><trkpt lat="44.1716984" lon="10.3423879"><ele>518.0</ele><time>2026-04-07T08:55:39.917Z</time></trkpt><trkpt lat="44.1717429" lon="10.3422978"><ele>518.3333333333334</ele><time>2026-04-07T08:55:40.92Z</time></trkpt><trkpt lat="44.1717868" lon="10.3422078"><ele>518.6666666666666</ele><time>2026-04-07T08:55:41.929Z</time></trkpt><trkpt lat="44.17183" lon="10.3421148"><ele>519.0</ele><time>2026-04-07T08:55:42.923Z</time></trkpt><trkpt lat="44.1718606" lon="10.3420161"><ele>519.0</ele><time>2026-04-07T08:55:43.93Z</time></trkpt><trkpt lat="44.1718826" lon="10.3419152"><ele>519.0</ele><time>2026-04-07T08:55:44.931Z</time></trkpt><trkpt lat="44.1718986" lon="10.3418104"><ele>519.0</ele><time>2026-04-07T08:55:45.936Z</time></trkpt><trkpt lat="44.1719079" lon="10.3417081"><ele>519.0</ele><time>2026-04-07T08:55:46.919Z</time></trkpt><trkpt lat="44.1719114" lon="10.3416014"><ele>519.0</ele><time>2026-04-07T08:55:47.929Z</time></trkpt><trkpt lat="44.1719127" lon="10.3414979"><ele>519.0</ele><time>2026-04-07T08:55:48.936Z</time></trkpt><trkpt lat="44.1719057" lon="10.3413908"><ele>519.5714285714286</ele><time>2026-04-07T08:55:49.943Z</time></trkpt><trkpt lat="44.1718902" lon="10.3412907"><ele>520.1428571428571</ele><time>2026-04-07T08:55:50.938Z</time></trkpt><trkpt lat="44.1718705" lon="10.3411998"><ele>520.7142857142857</ele><time>2026-04-07T08:55:51.944Z</time></trkpt><trkpt lat="44.1718368" lon="10.3411041"><ele>521.2857142857142</ele><time>2026-04-07T08:55:52.931Z</time></trkpt><trkpt lat="44.1718014" lon="10.3410133"><ele>521.8571428571429</ele><time>2026-04-07T08:55:53.931Z</time></trkpt><trkpt lat="44.1717627" lon="10.3409238"><ele>522.4285714285713</ele><time>2026-04-07T08:55:54.932Z</time></trkpt><trkpt lat="44.1717227" lon="10.3408392"><ele>523.0</ele><time>2026-04-07T08:55:55.935Z</time></trkpt><trkpt lat="44.1716881" lon="10.3407493"><ele>522.9999999999999</ele><time>2026-04-07T08:55:56.932Z</time></trkpt><trkpt lat="44.1716581" lon="10.3406611"><ele>523.0</ele><time>2026-04-07T08:55:57.932Z</time></trkpt><trkpt lat="44.1716407" lon="10.3405682"><ele>523.0</ele><time>2026-04-07T08:55:58.931Z</time></trkpt><trkpt lat="44.1716312" lon="10.3404688"><ele>523.0</ele><time>2026-04-07T08:55:59.937Z</time></trkpt><trkpt lat="44.1716289" lon="10.3403623"><ele>523.0</ele><time>2026-04-07T08:56:00.935Z</time></trkpt><trkpt lat="44.17163" lon="10.3402541"><ele>522.9999999999999</ele><time>2026-04-07T08:56:01.93Z</time></trkpt><trkpt lat="44.1716281" lon="10.3401474"><ele>523.0</ele><time>2026-04-07T08:56:02.932Z</time></trkpt><trkpt lat="44.1716284" lon="10.3400414"><ele>522.5</ele><time>2026-04-07T08:56:03.936Z</time></trkpt><trkpt lat="44.1716321" lon="10.3399333"><ele>522.0</ele><time>2026-04-07T08:56:04.933Z</time></trkpt><trkpt lat="44.1716474" lon="10.3398263"><ele>521.5</ele><time>2026-04-07T08:56:05.931Z</time></trkpt><trkpt lat="44.171675" lon="10.3397252"><ele>521.0</ele><time>2026-04-07T08:56:06.925Z</time></trkpt><trkpt lat="44.1717074" lon="10.3396299"><ele>520.5</ele><time>2026-04-07T08:56:07.933Z</time></trkpt><trkpt lat="44.1717454" lon="10.3395318"><ele>520.0</ele><time>2026-04-07T08:56:08.93Z</time></trkpt><trkpt lat="44.1717805" lon="10.3394337"><ele>518.8333333333334</ele><time>2026-04-07T08:56:09.931Z</time></trkpt><trkpt lat="44.1718111" lon="10.3393265"><ele>517.6666666666667</ele><time>2026-04-07T08:56:10.928Z</time></trkpt><trkpt lat="44.1718215" lon="10.3392088"><ele>516.5</ele><time>2026-04-07T08:56:11.934Z</time></trkpt><trkpt lat="44.171813" lon="10.3390946"><ele>515.3333333333334</ele><time>2026-04-07T08:56:12.927Z</time></trkpt><trkpt lat="44.1717861" lon="10.3389876"><ele>514.1666666666666</ele><time>2026-04-07T08:56:13.928Z</time></trkpt><trkpt lat="44.1717495" lon="10.3388762"><ele>513.0</ele><time>2026-04-07T08:56:14.932Z</time></trkpt><trkpt lat="44.1717094" lon="10.3387687"><ele>512.8333333333334</ele><time>2026-04-07T08:56:15.938Z</time></trkpt><trkpt lat="44.1716651" lon="10.3386665"><ele>512.6666666666666</ele><time>2026-04-07T08:56:16.931Z</time></trkpt><trkpt lat="44.1716242" lon="10.3385669"><ele>512.5</ele><time>2026-04-07T08:56:17.935Z</time></trkpt><trkpt lat="44.1715797" lon="10.338469"><ele>512.3333333333333</ele><time>2026-04-07T08:56:18.939Z</time></trkpt><trkpt lat="44.1715365" lon="10.3383717"><ele>512.1666666666666</ele><time>2026-04-07T08:56:19.928Z</time></trkpt><trkpt lat="44.1714921" lon="10.3382727"><ele>512.0</ele><time>2026-04-07T08:56:20.927Z</time></trkpt><trkpt lat="44.1714581" lon="10.3381679"><ele>509.66666666666663</ele><time>2026-04-07T08:56:21.942Z</time></trkpt><trkpt lat="44.1714478" lon="10.3380581"><ele>507.3333333333333</ele><time>2026-04-07T08:56:22.937Z</time></trkpt><trkpt lat="44.1714747" lon="10.3379441"><ele>505.0</ele><time>2026-04-07T08:56:23.935Z</time></trkpt><trkpt lat="44.1715265" lon="10.3378554"><ele>502.66666666666663</ele><time>2026-04-07T08:56:24.951Z</time></trkpt><trkpt lat="44.1715961" lon="10.3377857"><ele>500.3333333333333</ele><time>2026-04-07T08:56:25.93Z</time></trkpt><trkpt lat="44.1716713" lon="10.3377301"><ele>498.0</ele><time>2026-04-07T08:56:26.948Z</time></trkpt><trkpt lat="44.1717493" lon="10.3376904"><ele>498.0</ele><time>2026-04-07T08:56:27.932Z</time></trkpt><trkpt lat="44.1718268" lon="10.3376576"><ele>498.0</ele><time>2026-04-07T08:56:28.934Z</time></trkpt><trkpt lat="44.171906" lon="10.337628"><ele>498.0</ele><time>2026-04-07T08:56:29.937Z</time></trkpt><trkpt lat="44.1719857" lon="10.3376018"><ele>498.0</ele><time>2026-04-07T08:56:30.935Z</time></trkpt><trkpt lat="44.1720719" lon="10.3375829"><ele>498.0</ele><time>2026-04-07T08:56:31.938Z</time></trkpt><trkpt lat="44.1721533" lon="10.3375575"><ele>498.0</ele><time>2026-04-07T08:56:32.922Z</time></trkpt><trkpt lat="44.172234" lon="10.3375314"><ele>498.0</ele><time>2026-04-07T08:56:33.915Z</time></trkpt><trkpt lat="44.1723198" lon="10.3375008"><ele>498.0</ele><time>2026-04-07T08:56:34.927Z</time></trkpt><trkpt lat="44.1723999" lon="10.337468"><ele>498.0</ele><time>2026-04-07T08:56:35.924Z</time></trkpt><trkpt lat="44.1724824" lon="10.3374353"><ele>498.0</ele><time>2026-04-07T08:56:36.919Z</time></trkpt><trkpt lat="44.1725612" lon="10.3374009"><ele>498.0</ele><time>2026-04-07T08:56:37.923Z</time></trkpt><trkpt lat="44.17264" lon="10.3373638"><ele>498.0</ele><time>2026-04-07T08:56:38.919Z</time></trkpt><trkpt lat="44.1727205" lon="10.3373306"><ele>499.5</ele><time>2026-04-07T08:56:39.934Z</time></trkpt><trkpt lat="44.1728001" lon="10.3372916"><ele>501.0</ele><time>2026-04-07T08:56:40.94Z</time></trkpt><trkpt lat="44.1728779" lon="10.3372577"><ele>502.5</ele><time>2026-04-07T08:56:41.923Z</time></trkpt><trkpt lat="44.1729531" lon="10.3372291"><ele>504.0</ele><time>2026-04-07T08:56:42.927Z</time></trkpt><trkpt lat="44.1730298" lon="10.3372011"><ele>505.5</ele><time>2026-04-07T08:56:43.918Z</time></trkpt><trkpt lat="44.1731056" lon="10.337166"><ele>507.0</ele><time>2026-04-07T08:56:44.931Z</time></trkpt><trkpt lat="44.1731795" lon="10.3371158"><ele>506.0</ele><time>2026-04-07T08:56:45.934Z</time></trkpt><trkpt lat="44.1732475" lon="10.3370589"><ele>505.0</ele><time>2026-04-07T08:56:46.919Z</time></trkpt><trkpt lat="44.1733124" lon="10.3369937"><ele>504.0</ele><time>2026-04-07T08:56:47.94Z</time></trkpt><trkpt lat="44.1733716" lon="10.3369245"><ele>503.0</ele><time>2026-04-07T08:56:48.924Z</time></trkpt><trkpt lat="44.1734326" lon="10.3368611"><ele>502.0</ele><time>2026-04-07T08:56:49.935Z</time></trkpt><trkpt lat="44.1734885" lon="10.3367969"><ele>501.0</ele><time>2026-04-07T08:56:50.941Z</time></trkpt><trkpt lat="44.1735461" lon="10.3367372"><ele>501.0</ele><time>2026-04-07T08:56:51.92Z</time></trkpt><trkpt lat="44.1736044" lon="10.3366809"><ele>501.0</ele><time>2026-04-07T08:56:52.927Z</time></trkpt><trkpt lat="44.1736639" lon="10.3366275"><ele>501.0</ele><time>2026-04-07T08:56:53.918Z</time></trkpt><trkpt lat="44.1737235" lon="10.3365802"><ele>501.0</ele><time>2026-04-07T08:56:54.93Z</time></trkpt><trkpt lat="44.1737792" lon="10.3365343"><ele>501.0</ele><time>2026-04-07T08:56:55.934Z</time></trkpt><trkpt lat="44.173894" lon="10.3364586"><ele>501.0</ele><time>2026-04-07T08:56:57.937Z</time></trkpt><trkpt lat="44.1739968" lon="10.3363787"><ele>502.8</ele><time>2026-04-07T08:56:59.935Z</time></trkpt><trkpt lat="44.1740888" lon="10.336287"><ele>504.6</ele><time>2026-04-07T08:57:01.925Z</time></trkpt><trkpt lat="44.1741591" lon="10.3361738"><ele>506.4</ele><time>2026-04-07T08:57:03.939Z</time></trkpt><trkpt lat="44.1742017" lon="10.3360437"><ele>508.2</ele><time>2026-04-07T08:57:05.925Z</time></trkpt><trkpt lat="44.1742251" lon="10.335915"><ele>510.0</ele><time>2026-04-07T08:57:07.932Z</time></trkpt><trkpt lat="44.1742335" lon="10.335791"><ele>510.0</ele><time>2026-04-07T08:57:09.926Z</time></trkpt><trkpt lat="44.1742246" lon="10.3356684"><ele>510.0</ele><time>2026-04-07T08:57:11.915Z</time></trkpt><trkpt lat="44.1741894" lon="10.3355449"><ele>510.0</ele><time>2026-04-07T08:57:13.93Z</time></trkpt><trkpt lat="44.1741414" lon="10.3354172"><ele>510.0</ele><time>2026-04-07T08:57:15.941Z</time></trkpt><trkpt lat="44.1740966" lon="10.3352963"><ele>510.0</ele><time>2026-04-07T08:57:17.932Z</time></trkpt><trkpt lat="44.1740523" lon="10.3351669"><ele>510.0</ele><time>2026-04-07T08:57:19.957Z</time></trkpt><trkpt lat="44.1740252" lon="10.3350223"><ele>510.0</ele><time>2026-04-07T08:57:21.919Z</time></trkpt><trkpt lat="44.1740011" lon="10.3348752"><ele>510.0</ele><time>2026-04-07T08:57:23.921Z</time></trkpt><trkpt lat="44.1739818" lon="10.3347383"><ele>510.0</ele><time>2026-04-07T08:57:25.959Z</time></trkpt><trkpt lat="44.1739533" lon="10.3346023"><ele>510.0</ele><time>2026-04-07T08:57:27.935Z</time></trkpt><trkpt lat="44.1739158" lon="10.3344655"><ele>506.8</ele><time>2026-04-07T08:57:29.931Z</time></trkpt><trkpt lat="44.1738643" lon="10.3343559"><ele>503.6</ele><time>2026-04-07T08:57:31.936Z</time></trkpt><trkpt lat="44.1738" lon="10.3342572"><ele>500.4</ele><time>2026-04-07T08:57:33.936Z</time></trkpt><trkpt lat="44.1737354" lon="10.3341705"><ele>497.2</ele><time>2026-04-07T08:57:35.927Z</time></trkpt><trkpt lat="44.173666" lon="10.3340966"><ele>494.0</ele><time>2026-04-07T08:57:37.924Z</time></trkpt><trkpt lat="44.1735957" lon="10.3340144"><ele>494.0</ele><time>2026-04-07T08:57:39.921Z</time></trkpt><trkpt lat="44.1735305" lon="10.3339189"><ele>494.0</ele><time>2026-04-07T08:57:41.923Z</time></trkpt><trkpt lat="44.1734763" lon="10.3338123"><ele>494.0</ele><time>2026-04-07T08:57:43.924Z</time></trkpt><trkpt lat="44.1734353" lon="10.3337013"><ele>494.0</ele><time>2026-04-07T08:57:45.941Z</time></trkpt><trkpt lat="44.1734076" lon="10.3335863"><ele>494.0</ele><time>2026-04-07T08:57:47.937Z</time></trkpt><trkpt lat="44.173391" lon="10.333463"><ele>495.66666666666663</ele><time>2026-04-07T08:57:49.932Z</time></trkpt><trkpt lat="44.1733792" lon="10.333346"><ele>497.3333333333333</ele><time>2026-04-07T08:57:51.923Z</time></trkpt><trkpt lat="44.1733656" lon="10.3332321"><ele>499.0</ele><time>2026-04-07T08:57:53.937Z</time></trkpt><trkpt lat="44.1733481" lon="10.3331225"><ele>500.66666666666663</ele><time>2026-04-07T08:57:55.942Z</time></trkpt><trkpt lat="44.1733292" lon="10.3330123"><ele>502.3333333333333</ele><time>2026-04-07T08:57:57.925Z</time></trkpt><trkpt lat="44.1733165" lon="10.3328973"><ele>504.0</ele><time>2026-04-07T08:57:59.931Z</time></trkpt><trkpt lat="44.1733008" lon="10.3327942"><ele>504.57142857142856</ele><time>2026-04-07T08:58:01.925Z</time></trkpt><trkpt lat="44.1732876" lon="10.3326729"><ele>505.1428571428571</ele><time>2026-04-07T08:58:03.919Z</time></trkpt><trkpt lat="44.1732798" lon="10.3325601"><ele>505.7142857142857</ele><time>2026-04-07T08:58:05.934Z</time></trkpt><trkpt lat="44.1732637" lon="10.332452"><ele>506.2857142857143</ele><time>2026-04-07T08:58:07.927Z</time></trkpt><trkpt lat="44.1732478" lon="10.3323584"><ele>506.85714285714283</ele><time>2026-04-07T08:58:09.926Z</time></trkpt><trkpt lat="44.1732344" lon="10.3322707"><ele>507.42857142857144</ele><time>2026-04-07T08:58:11.93Z</time></trkpt><trkpt lat="44.1732196" lon="10.3321799"><ele>508.0</ele><time>2026-04-07T08:58:13.931Z</time></trkpt><trkpt lat="44.1732027" lon="10.3320874"><ele>504.57142857142856</ele><time>2026-04-07T08:58:15.935Z</time></trkpt><trkpt lat="44.1731852" lon="10.331994"><ele>501.1428571428571</ele><time>2026-04-07T08:58:17.938Z</time></trkpt><trkpt lat="44.173165" lon="10.3319043"><ele>497.71428571428567</ele><time>2026-04-07T08:58:19.944Z</time></trkpt><trkpt lat="44.1731431" lon="10.3318119"><ele>494.2857142857143</ele><time>2026-04-07T08:58:21.933Z</time></trkpt><trkpt lat="44.1731231" lon="10.3317131"><ele>490.8571428571428</ele><time>2026-04-07T08:58:23.919Z</time></trkpt><trkpt lat="44.1730975" lon="10.3316086"><ele>487.4285714285714</ele><time>2026-04-07T08:58:25.926Z</time></trkpt><trkpt lat="44.1730692" lon="10.3315023"><ele>484.0</ele><time>2026-04-07T08:58:27.935Z</time></trkpt><trkpt lat="44.1730423" lon="10.3313868"><ele>484.0</ele><time>2026-04-07T08:58:29.927Z</time></trkpt><trkpt lat="44.1730272" lon="10.3312767"><ele>484.0</ele><time>2026-04-07T08:58:31.866Z</time></trkpt><trkpt lat="44.1730145" lon="10.3311484"><ele>484.0</ele><time>2026-04-07T08:58:33.937Z</time></trkpt><trkpt lat="44.1729858" lon="10.331014"><ele>484.0</ele><time>2026-04-07T08:58:35.933Z</time></trkpt><trkpt lat="44.1729723" lon="10.3308575"><ele>484.0</ele><time>2026-04-07T08:58:37.936Z</time></trkpt><trkpt lat="44.172954" lon="10.3306925"><ele>485.6666666666667</ele><time>2026-04-07T08:58:39.931Z</time></trkpt><trkpt lat="44.1729191" lon="10.3305428"><ele>487.33333333333337</ele><time>2026-04-07T08:58:41.938Z</time></trkpt><trkpt lat="44.1728774" lon="10.3303891"><ele>489.0</ele><time>2026-04-07T08:58:43.931Z</time></trkpt><trkpt lat="44.1728548" lon="10.3303034"><ele>490.66666666666663</ele><time>2026-04-07T08:58:44.939Z</time></trkpt><trkpt lat="44.1728367" lon="10.330215"><ele>492.3333333333333</ele><time>2026-04-07T08:58:45.938Z</time></trkpt><trkpt lat="44.1728154" lon="10.3301213"><ele>494.0</ele><time>2026-04-07T08:58:46.947Z</time></trkpt><trkpt lat="44.172784" lon="10.3300328"><ele>493.99999999999994</ele><time>2026-04-07T08:58:47.924Z</time></trkpt><trkpt lat="44.1727331" lon="10.3299574"><ele>494.0</ele><time>2026-04-07T08:58:48.929Z</time></trkpt><trkpt lat="44.1726671" lon="10.329907"><ele>494.0</ele><time>2026-04-07T08:58:49.939Z</time></trkpt><trkpt lat="44.1725921" lon="10.3298791"><ele>494.0</ele><time>2026-04-07T08:58:50.933Z</time></trkpt><trkpt lat="44.1725163" lon="10.3298419"><ele>493.99999999999994</ele><time>2026-04-07T08:58:51.931Z</time></trkpt><trkpt lat="44.1724502" lon="10.3297714"><ele>494.0</ele><time>2026-04-07T08:58:52.93Z</time></trkpt><trkpt lat="44.1723965" lon="10.32967"><ele>494.79999999999995</ele><time>2026-04-07T08:58:53.934Z</time></trkpt><trkpt lat="44.172381" lon="10.3295298"><ele>495.59999999999997</ele><time>2026-04-07T08:58:54.932Z</time></trkpt><trkpt lat="44.1723947" lon="10.3293819"><ele>496.4</ele><time>2026-04-07T08:58:55.942Z</time></trkpt><trkpt lat="44.1724287" lon="10.3292397"><ele>497.2</ele><time>2026-04-07T08:58:56.938Z</time></trkpt><trkpt lat="44.1724592" lon="10.3291004"><ele>498.0</ele><time>2026-04-07T08:58:57.929Z</time></trkpt><trkpt lat="44.1724762" lon="10.3289575"><ele>498.4</ele><time>2026-04-07T08:58:58.931Z</time></trkpt><trkpt lat="44.172472" lon="10.3288094"><ele>498.79999999999995</ele><time>2026-04-07T08:58:59.925Z</time></trkpt><trkpt lat="44.172457" lon="10.3286596"><ele>499.2</ele><time>2026-04-07T08:59:00.931Z</time></trkpt><trkpt lat="44.1724381" lon="10.3285087"><ele>499.6</ele><time>2026-04-07T08:59:01.933Z</time></trkpt><trkpt lat="44.1724102" lon="10.328357"><ele>500.0</ele><time>2026-04-07T08:59:02.927Z</time></trkpt><trkpt lat="44.1723692" lon="10.3282066"><ele>494.75</ele><time>2026-04-07T08:59:03.927Z</time></trkpt><trkpt lat="44.1723095" lon="10.3280671"><ele>489.5</ele><time>2026-04-07T08:59:04.921Z</time></trkpt><trkpt lat="44.1722347" lon="10.3279403"><ele>484.25</ele><time>2026-04-07T08:59:05.919Z</time></trkpt><trkpt lat="44.1721525" lon="10.3278202"><ele>479.0</ele><time>2026-04-07T08:59:06.931Z</time></trkpt><trkpt lat="44.1720695" lon="10.3277068"><ele>479.0</ele><time>2026-04-07T08:59:07.927Z</time></trkpt><trkpt lat="44.1719856" lon="10.3275916"><ele>479.0</ele><time>2026-04-07T08:59:08.924Z</time></trkpt><trkpt lat="44.1719079" lon="10.3274684"><ele>479.0</ele><time>2026-04-07T08:59:09.922Z</time></trkpt><trkpt lat="44.1718496" lon="10.3273276"><ele>479.0</ele><time>2026-04-07T08:59:10.924Z</time></trkpt><trkpt lat="44.1718093" lon="10.327173"><ele>477.75</ele><time>2026-04-07T08:59:11.915Z</time></trkpt><trkpt lat="44.1717868" lon="10.3270061"><ele>476.5</ele><time>2026-04-07T08:59:12.921Z</time></trkpt><trkpt lat="44.1717803" lon="10.326842"><ele>475.25</ele><time>2026-04-07T08:59:13.927Z</time></trkpt><trkpt lat="44.1717779" lon="10.3266788"><ele>474.0</ele><time>2026-04-07T08:59:14.941Z</time></trkpt><trkpt lat="44.1717659" lon="10.326529"><ele>472.4</ele><time>2026-04-07T08:59:15.921Z</time></trkpt><trkpt lat="44.1717526" lon="10.326388"><ele>470.79999999999995</ele><time>2026-04-07T08:59:16.921Z</time></trkpt><trkpt lat="44.1717508" lon="10.3262648"><ele>469.20000000000005</ele><time>2026-04-07T08:59:17.931Z</time></trkpt><trkpt lat="44.1717706" lon="10.3261602"><ele>467.6</ele><time>2026-04-07T08:59:18.93Z</time></trkpt><trkpt lat="44.1718104" lon="10.3260575"><ele>466.0</ele><time>2026-04-07T08:59:19.924Z</time></trkpt><trkpt lat="44.1718977" lon="10.3259879"><ele>466.0</ele><time>2026-04-07T08:59:20.922Z</time></trkpt><trkpt lat="44.1719814" lon="10.325952"><ele>466.0</ele><time>2026-04-07T08:59:21.923Z</time></trkpt><trkpt lat="44.1720917" lon="10.3259793"><ele>466.0</ele><time>2026-04-07T08:59:22.918Z</time></trkpt><trkpt lat="44.1721911" lon="10.3260179"><ele>466.0</ele><time>2026-04-07T08:59:23.92Z</time></trkpt><trkpt lat="44.1722789" lon="10.3261052"><ele>466.0</ele><time>2026-04-07T08:59:24.934Z</time></trkpt><trkpt lat="44.1723712" lon="10.3261854"><ele>466.4</ele><time>2026-04-07T08:59:25.932Z</time></trkpt><trkpt lat="44.1724711" lon="10.3262345"><ele>466.8</ele><time>2026-04-07T08:59:26.93Z</time></trkpt><trkpt lat="44.1725805" lon="10.3262389"><ele>467.19999999999993</ele><time>2026-04-07T08:59:27.928Z</time></trkpt><trkpt lat="44.172687" lon="10.3262013"><ele>467.59999999999997</ele><time>2026-04-07T08:59:28.926Z</time></trkpt><trkpt lat="44.1727821" lon="10.3261298"><ele>468.0</ele><time>2026-04-07T08:59:29.929Z</time></trkpt><trkpt lat="44.1728759" lon="10.3260422"><ele>468.0</ele><time>2026-04-07T08:59:30.931Z</time></trkpt><trkpt lat="44.1729692" lon="10.3259572"><ele>467.99999999999994</ele><time>2026-04-07T08:59:31.931Z</time></trkpt><trkpt lat="44.1730594" lon="10.3258645"><ele>467.99999999999994</ele><time>2026-04-07T08:59:32.928Z</time></trkpt><trkpt lat="44.1731508" lon="10.3257744"><ele>468.0</ele><time>2026-04-07T08:59:33.934Z</time></trkpt><trkpt lat="44.1732426" lon="10.3256842"><ele>468.0</ele><time>2026-04-07T08:59:34.929Z</time></trkpt><trkpt lat="44.1733322" lon="10.325602"><ele>468.0</ele><time>2026-04-07T08:59:35.925Z</time></trkpt><trkpt lat="44.1734102" lon="10.3254922"><ele>467.99999999999994</ele><time>2026-04-07T08:59:36.928Z</time></trkpt><trkpt lat="44.1734551" lon="10.3253531"><ele>467.99999999999994</ele><time>2026-04-07T08:59:37.932Z</time></trkpt><trkpt lat="44.1734722" lon="10.3252112"><ele>468.0</ele><time>2026-04-07T08:59:38.932Z</time></trkpt><trkpt lat="44.1734629" lon="10.3250656"><ele>468.0</ele><time>2026-04-07T08:59:39.932Z</time></trkpt><trkpt lat="44.1734296" lon="10.3249376"><ele>468.0</ele><time>2026-04-07T08:59:40.935Z</time></trkpt><trkpt lat="44.1733786" lon="10.3248313"><ele>468.0</ele><time>2026-04-07T08:59:41.926Z</time></trkpt><trkpt lat="44.1733269" lon="10.3247439"><ele>468.0</ele><time>2026-04-07T08:59:42.926Z</time></trkpt><trkpt lat="44.1732673" lon="10.3246651"><ele>468.0</ele><time>2026-04-07T08:59:43.925Z</time></trkpt><trkpt lat="44.1732076" lon="10.3245915"><ele>468.0</ele><time>2026-04-07T08:59:44.926Z</time></trkpt><trkpt lat="44.1731528" lon="10.3245205"><ele>468.0</ele><time>2026-04-07T08:59:45.923Z</time></trkpt><trkpt lat="44.1731029" lon="10.3244495"><ele>464.2</ele><time>2026-04-07T08:59:46.931Z</time></trkpt><trkpt lat="44.1730552" lon="10.3243838"><ele>460.4</ele><time>2026-04-07T08:59:47.919Z</time></trkpt><trkpt lat="44.1730132" lon="10.3243177"><ele>456.59999999999997</ele><time>2026-04-07T08:59:48.93Z</time></trkpt><trkpt lat="44.1729392" lon="10.3241912"><ele>452.79999999999995</ele><time>2026-04-07T08:59:50.92Z</time></trkpt><trkpt lat="44.1728836" lon="10.3240523"><ele>449.0</ele><time>2026-04-07T08:59:52.925Z</time></trkpt><trkpt lat="44.1728294" lon="10.3239291"><ele>450.8333333333333</ele><time>2026-04-07T08:59:54.931Z</time></trkpt><trkpt lat="44.1727854" lon="10.3238241"><ele>452.66666666666663</ele><time>2026-04-07T08:59:56.939Z</time></trkpt><trkpt lat="44.1727592" lon="10.3237292"><ele>454.5</ele><time>2026-04-07T08:59:58.921Z</time></trkpt><trkpt lat="44.1727333" lon="10.3236416"><ele>456.33333333333337</ele><time>2026-04-07T09:00:00.923Z</time></trkpt><trkpt lat="44.1727066" lon="10.323527"><ele>458.1666666666667</ele><time>2026-04-07T09:00:03.931Z</time></trkpt><trkpt lat="44.1726778" lon="10.3234203"><ele>460.0</ele><time>2026-04-07T09:00:06.921Z</time></trkpt><trkpt lat="44.1726561" lon="10.3233112"><ele>460.00000000000006</ele><time>2026-04-07T09:00:09.927Z</time></trkpt><trkpt lat="44.1726373" lon="10.3232081"><ele>460.0</ele><time>2026-04-07T09:00:12.925Z</time></trkpt><trkpt lat="44.1726246" lon="10.3230975"><ele>460.0</ele><time>2026-04-07T09:00:15.944Z</time></trkpt><trkpt lat="44.1726236" lon="10.3229828"><ele>460.0</ele><time>2026-04-07T09:00:18.932Z</time></trkpt><trkpt lat="44.1726307" lon="10.3228664"><ele>460.00000000000006</ele><time>2026-04-07T09:00:21.929Z</time></trkpt><trkpt lat="44.172647" lon="10.3227515"><ele>460.0</ele><time>2026-04-07T09:00:24.938Z</time></trkpt><trkpt lat="44.17266" lon="10.3226378"><ele>460.00000000000006</ele><time>2026-04-07T09:00:27.939Z</time></trkpt><trkpt lat="44.1726752" lon="10.3225323"><ele>460.0</ele><time>2026-04-07T09:00:30.919Z</time></trkpt><trkpt lat="44.1726929" lon="10.3224262"><ele>460.0</ele><time>2026-04-07T09:00:33.928Z</time></trkpt><trkpt lat="44.1727125" lon="10.322322"><ele>460.0</ele><time>2026-04-07T09:00:36.926Z</time></trkpt><trkpt lat="44.172733" lon="10.3222132"><ele>460.00000000000006</ele><time>2026-04-07T09:00:39.927Z</time></trkpt><trkpt lat="44.1727491" lon="10.3221024"><ele>460.0</ele><time>2026-04-07T09:00:42.933Z</time></trkpt><trkpt lat="44.1727692" lon="10.3219968"><ele>460.00000000000006</ele><time>2026-04-07T09:00:45.94Z</time></trkpt><trkpt lat="44.1727867" lon="10.3218921"><ele>460.0</ele><time>2026-04-07T09:00:48.932Z</time></trkpt><trkpt lat="44.172806" lon="10.3217876"><ele>460.0</ele><time>2026-04-07T09:00:51.922Z</time></trkpt><trkpt lat="44.1728259" lon="10.3216828"><ele>460.0</ele><time>2026-04-07T09:00:54.926Z</time></trkpt><trkpt lat="44.1728489" lon="10.3215761"><ele>460.00000000000006</ele><time>2026-04-07T09:00:57.926Z</time></trkpt><trkpt lat="44.1728725" lon="10.3214703"><ele>460.0</ele><time>2026-04-07T09:01:00.926Z</time></trkpt><trkpt lat="44.1728931" lon="10.3213639"><ele>460.00000000000006</ele><time>2026-04-07T09:01:03.93Z</time></trkpt><trkpt lat="44.1729124" lon="10.3212574"><ele>460.0</ele><time>2026-04-07T09:01:06.915Z</time></trkpt><trkpt lat="44.1729345" lon="10.3211513"><ele>460.0</ele><time>2026-04-07T09:01:09.926Z</time></trkpt><trkpt lat="44.1729512" lon="10.321049"><ele>460.0</ele><time>2026-04-07T09:01:12.928Z</time></trkpt><trkpt lat="44.1729673" lon="10.3209479"><ele>460.00000000000006</ele><time>2026-04-07T09:01:15.928Z</time></trkpt><trkpt lat="44.1729809" lon="10.3208396"><ele>460.0</ele><time>2026-04-07T09:01:18.92Z</time></trkpt><trkpt lat="44.1729977" lon="10.3207325"><ele>460.00000000000006</ele><time>2026-04-07T09:01:21.932Z</time></trkpt><trkpt lat="44.1730158" lon="10.3206269"><ele>460.0</ele><time>2026-04-07T09:01:24.934Z</time></trkpt><trkpt lat="44.1730275" lon="10.3205207"><ele>460.0</ele><time>2026-04-07T09:01:27.934Z</time></trkpt><trkpt lat="44.1730249" lon="10.3204141"><ele>460.0</ele><time>2026-04-07T09:01:30.917Z</time></trkpt><trkpt lat="44.1730139" lon="10.3203091"><ele>460.00000000000006</ele><time>2026-04-07T09:01:33.935Z</time></trkpt><trkpt lat="44.1729922" lon="10.3202065"><ele>460.0</ele><time>2026-04-07T09:01:36.918Z</time></trkpt><trkpt lat="44.172949" lon="10.3201141"><ele>460.33333333333337</ele><time>2026-04-07T09:01:39.923Z</time></trkpt><trkpt lat="44.172891" lon="10.3200377"><ele>460.6666666666667</ele><time>2026-04-07T09:01:42.923Z</time></trkpt><trkpt lat="44.1728328" lon="10.319975"><ele>461.0</ele><time>2026-04-07T09:01:45.918Z</time></trkpt><trkpt lat="44.1727671" lon="10.3199154"><ele>461.33333333333337</ele><time>2026-04-07T09:01:48.929Z</time></trkpt><trkpt lat="44.1727067" lon="10.3198521"><ele>461.6666666666667</ele><time>2026-04-07T09:01:51.942Z</time></trkpt><trkpt lat="44.1726465" lon="10.3197865"><ele>462.0</ele><time>2026-04-07T09:01:54.915Z</time></trkpt><trkpt lat="44.1725912" lon="10.3197101"><ele>463.0</ele><time>2026-04-07T09:01:57.925Z</time></trkpt><trkpt lat="44.1725457" lon="10.3196235"><ele>464.0</ele><time>2026-04-07T09:02:00.917Z</time></trkpt><trkpt lat="44.1725147" lon="10.3195279"><ele>465.0</ele><time>2026-04-07T09:02:03.94Z</time></trkpt><trkpt lat="44.172505" lon="10.3194336"><ele>466.0</ele><time>2026-04-07T09:02:06.94Z</time></trkpt><trkpt lat="44.17251" lon="10.3193155"><ele>467.0</ele><time>2026-04-07T09:02:09.929Z</time></trkpt><trkpt lat="44.1725253" lon="10.3191997"><ele>468.0</ele><time>2026-04-07T09:02:12.925Z</time></trkpt><trkpt lat="44.1725421" lon="10.319081"><ele>468.0</ele><time>2026-04-07T09:02:15.927Z</time></trkpt><trkpt lat="44.1725531" lon="10.3189703"><ele>468.0</ele><time>2026-04-07T09:02:18.924Z</time></trkpt><trkpt lat="44.1725654" lon="10.3188598"><ele>468.0</ele><time>2026-04-07T09:02:21.916Z</time></trkpt><trkpt lat="44.1725745" lon="10.3187482"><ele>468.0</ele><time>2026-04-07T09:02:24.916Z</time></trkpt><trkpt lat="44.1725899" lon="10.3186393"><ele>468.0</ele><time>2026-04-07T09:02:27.916Z</time></trkpt><trkpt lat="44.1726046" lon="10.3185314"><ele>468.0</ele><time>2026-04-07T09:02:30.923Z</time></trkpt><trkpt lat="44.1726201" lon="10.3184288"><ele>468.0</ele><time>2026-04-07T09:02:33.932Z</time></trkpt><trkpt lat="44.1726404" lon="10.3183157"><ele>468.0</ele><time>2026-04-07T09:02:36.911Z</time></trkpt><trkpt lat="44.172669" lon="10.3182023"><ele>468.0</ele><time>2026-04-07T09:02:39.915Z</time></trkpt><trkpt lat="44.1727119" lon="10.3181115"><ele>468.0</ele><time>2026-04-07T09:02:42.912Z</time></trkpt><trkpt lat="44.172773" lon="10.3180355"><ele>468.0</ele><time>2026-04-07T09:02:45.917Z</time></trkpt><trkpt lat="44.1728465" lon="10.3179839"><ele>468.0</ele><time>2026-04-07T09:02:48.916Z</time></trkpt><trkpt lat="44.1729199" lon="10.3179534"><ele>466.1666666666667</ele><time>2026-04-07T09:02:51.918Z</time></trkpt><trkpt lat="44.1729937" lon="10.3179414"><ele>464.33333333333337</ele><time>2026-04-07T09:02:54.919Z</time></trkpt><trkpt lat="44.1730775" lon="10.3179327"><ele>462.5</ele><time>2026-04-07T09:02:57.923Z</time></trkpt><trkpt lat="44.1731684" lon="10.3179252"><ele>460.6666666666667</ele><time>2026-04-07T09:03:00.919Z</time></trkpt><trkpt lat="44.1732398" lon="10.3179264"><ele>458.83333333333337</ele><time>2026-04-07T09:03:03.92Z</time></trkpt><trkpt lat="44.1733184" lon="10.3179179"><ele>457.0</ele><time>2026-04-07T09:03:06.921Z</time></trkpt><trkpt lat="44.1734009" lon="10.3179028"><ele>457.00000000000006</ele><time>2026-04-07T09:03:09.939Z</time></trkpt><trkpt lat="44.1734617" lon="10.3178732"><ele>457.0</ele><time>2026-04-07T09:03:11.927Z</time></trkpt><trkpt lat="44.1735268" lon="10.3178388"><ele>457.00000000000006</ele><time>2026-04-07T09:03:13.945Z</time></trkpt><trkpt lat="44.1735955" lon="10.3178022"><ele>457.00000000000006</ele><time>2026-04-07T09:03:15.916Z</time></trkpt><trkpt lat="44.1736625" lon="10.3177627"><ele>457.0</ele><time>2026-04-07T09:03:17.925Z</time></trkpt><trkpt lat="44.1737396" lon="10.3177182"><ele>457.00000000000006</ele><time>2026-04-07T09:03:20.924Z</time></trkpt><trkpt lat="44.1738181" lon="10.3176764"><ele>457.00000000000006</ele><time>2026-04-07T09:03:23.929Z</time></trkpt><trkpt lat="44.1738944" lon="10.3176366"><ele>457.00000000000006</ele><time>2026-04-07T09:03:26.914Z</time></trkpt><trkpt lat="44.1739718" lon="10.3175907"><ele>457.0</ele><time>2026-04-07T09:03:29.916Z</time></trkpt><trkpt lat="44.1740444" lon="10.3175516"><ele>457.0</ele><time>2026-04-07T09:03:32.931Z</time></trkpt><trkpt lat="44.174121" lon="10.3175241"><ele>457.0</ele><time>2026-04-07T09:03:35.934Z</time></trkpt><trkpt lat="44.1741976" lon="10.3175039"><ele>457.00000000000006</ele><time>2026-04-07T09:03:38.935Z</time></trkpt><trkpt lat="44.1742708" lon="10.3174873"><ele>457.0</ele><time>2026-04-07T09:03:41.929Z</time></trkpt><trkpt lat="44.1743411" lon="10.3174786"><ele>460.00000000000006</ele><time>2026-04-07T09:03:44.934Z</time></trkpt><trkpt lat="44.1744229" lon="10.3174544"><ele>463.0</ele><time>2026-04-07T09:03:47.923Z</time></trkpt><trkpt lat="44.1745032" lon="10.3174375"><ele>466.0</ele><time>2026-04-07T09:03:50.929Z</time></trkpt><trkpt lat="44.1745882" lon="10.3174099"><ele>469.0</ele><time>2026-04-07T09:03:53.932Z</time></trkpt><trkpt lat="44.1746716" lon="10.3173842"><ele>472.00000000000006</ele><time>2026-04-07T09:03:56.92Z</time></trkpt><trkpt lat="44.174751" lon="10.3173561"><ele>475.0</ele><time>2026-04-07T09:03:59.916Z</time></trkpt><trkpt lat="44.1748308" lon="10.3173257"><ele>475.00000000000006</ele><time>2026-04-07T09:04:02.931Z</time></trkpt><trkpt lat="44.1749086" lon="10.3172886"><ele>475.0</ele><time>2026-04-07T09:04:05.941Z</time></trkpt><trkpt lat="44.1749809" lon="10.3172248"><ele>475.0</ele><time>2026-04-07T09:04:08.921Z</time></trkpt><trkpt lat="44.175034" lon="10.3171373"><ele>475.0</ele><time>2026-04-07T09:04:11.935Z</time></trkpt><trkpt lat="44.1750808" lon="10.3170368"><ele>475.00000000000006</ele><time>2026-04-07T09:04:14.923Z</time></trkpt><trkpt lat="44.1751233" lon="10.3169322"><ele>475.0</ele><time>2026-04-07T09:04:17.916Z</time></trkpt><trkpt lat="44.1751606" lon="10.3168337"><ele>475.00000000000006</ele><time>2026-04-07T09:04:20.92Z</time></trkpt><trkpt lat="44.1751957" lon="10.3167526"><ele>475.0</ele><time>2026-04-07T09:04:23.919Z</time></trkpt><trkpt lat="44.1752291" lon="10.3166571"><ele>475.0</ele><time>2026-04-07T09:04:26.927Z</time></trkpt><trkpt lat="44.1752712" lon="10.3165656"><ele>475.0</ele><time>2026-04-07T09:04:29.923Z</time></trkpt><trkpt lat="44.175306" lon="10.3164595"><ele>475.00000000000006</ele><time>2026-04-07T09:04:32.936Z</time></trkpt><trkpt lat="44.1753418" lon="10.3163553"><ele>475.0</ele><time>2026-04-07T09:04:35.943Z</time></trkpt><trkpt lat="44.1753722" lon="10.3162517"><ele>473.33333333333337</ele><time>2026-04-07T09:04:38.922Z</time></trkpt><trkpt lat="44.1753991" lon="10.3161443"><ele>471.6666666666667</ele><time>2026-04-07T09:04:41.951Z</time></trkpt><trkpt lat="44.1754241" lon="10.3160353"><ele>470.0</ele><time>2026-04-07T09:04:44.931Z</time></trkpt><trkpt lat="44.1754425" lon="10.3159221"><ele>468.33333333333337</ele><time>2026-04-07T09:04:47.926Z</time></trkpt><trkpt lat="44.1754599" lon="10.3158156"><ele>466.6666666666667</ele><time>2026-04-07T09:04:50.932Z</time></trkpt><trkpt lat="44.1754686" lon="10.3157061"><ele>465.0</ele><time>2026-04-07T09:04:53.93Z</time></trkpt><trkpt lat="44.1754797" lon="10.3155945"><ele>464.6666666666667</ele><time>2026-04-07T09:04:56.924Z</time></trkpt><trkpt lat="44.1754894" lon="10.3154814"><ele>464.33333333333337</ele><time>2026-04-07T09:04:59.923Z</time></trkpt><trkpt lat="44.1754923" lon="10.3153682"><ele>464.0</ele><time>2026-04-07T09:05:02.937Z</time></trkpt><trkpt lat="44.1754931" lon="10.315253"><ele>463.6666666666667</ele><time>2026-04-07T09:05:05.923Z</time></trkpt><trkpt lat="44.1754955" lon="10.315147"><ele>463.33333333333337</ele><time>2026-04-07T09:05:08.926Z</time></trkpt><trkpt lat="44.1754999" lon="10.3150481"><ele>463.0</ele><time>2026-04-07T09:05:11.926Z</time></trkpt><trkpt lat="44.1755043" lon="10.3149449"><ele>463.00000000000006</ele><time>2026-04-07T09:05:14.933Z</time></trkpt><trkpt lat="44.1755144" lon="10.3148415"><ele>463.0</ele><time>2026-04-07T09:05:17.92Z</time></trkpt><trkpt lat="44.1755296" lon="10.3147336"><ele>463.0</ele><time>2026-04-07T09:05:20.927Z</time></trkpt><trkpt lat="44.1755464" lon="10.3146296"><ele>463.0</ele><time>2026-04-07T09:05:23.924Z</time></trkpt><trkpt lat="44.1755629" lon="10.3145287"><ele>463.00000000000006</ele><time>2026-04-07T09:05:26.921Z</time></trkpt><trkpt lat="44.175584" lon="10.3144251"><ele>463.0</ele><time>2026-04-07T09:05:29.919Z</time></trkpt><trkpt lat="44.1756018" lon="10.3143212"><ele>463.50000000000006</ele><time>2026-04-07T09:05:32.924Z</time></trkpt><trkpt lat="44.1756188" lon="10.3142118"><ele>464.0</ele><time>2026-04-07T09:05:35.919Z</time></trkpt><trkpt lat="44.1756426" lon="10.3141061"><ele>464.5</ele><time>2026-04-07T09:05:38.921Z</time></trkpt><trkpt lat="44.175677" lon="10.3140116"><ele>465.0</ele><time>2026-04-07T09:05:41.926Z</time></trkpt><trkpt lat="44.1757211" lon="10.3139232"><ele>465.50000000000006</ele><time>2026-04-07T09:05:44.92Z</time></trkpt><trkpt lat="44.1757789" lon="10.3138504"><ele>466.0</ele><time>2026-04-07T09:05:47.933Z</time></trkpt><trkpt lat="44.1758435" lon="10.3137886"><ele>468.28571428571433</ele><time>2026-04-07T09:05:50.927Z</time></trkpt><trkpt lat="44.1759068" lon="10.3137404"><ele>470.57142857142856</ele><time>2026-04-07T09:05:53.939Z</time></trkpt><trkpt lat="44.1759729" lon="10.3136959"><ele>472.8571428571429</ele><time>2026-04-07T09:05:56.948Z</time></trkpt><trkpt lat="44.1760392" lon="10.3136456"><ele>475.14285714285717</ele><time>2026-04-07T09:05:59.915Z</time></trkpt><trkpt lat="44.1761042" lon="10.3136025"><ele>477.42857142857144</ele><time>2026-04-07T09:06:02.923Z</time></trkpt><trkpt lat="44.1761731" lon="10.3135577"><ele>479.7142857142857</ele><time>2026-04-07T09:06:05.932Z</time></trkpt><trkpt lat="44.1762475" lon="10.3135419"><ele>482.0</ele><time>2026-04-07T09:06:08.942Z</time></trkpt><trkpt lat="44.176323" lon="10.3135494"><ele>481.99999999999994</ele><time>2026-04-07T09:06:11.924Z</time></trkpt><trkpt lat="44.1763889" lon="10.313578"><ele>482.0</ele><time>2026-04-07T09:06:14.926Z</time></trkpt><trkpt lat="44.1764562" lon="10.3136395"><ele>482.0</ele><time>2026-04-07T09:06:17.919Z</time></trkpt><trkpt lat="44.1765165" lon="10.3137162"><ele>482.0</ele><time>2026-04-07T09:06:20.93Z</time></trkpt><trkpt lat="44.1765668" lon="10.3137995"><ele>481.99999999999994</ele><time>2026-04-07T09:06:23.924Z</time></trkpt><trkpt lat="44.1766152" lon="10.3138877"><ele>482.0</ele><time>2026-04-07T09:06:26.925Z</time></trkpt><trkpt lat="44.1766612" lon="10.3139755"><ele>486.16666666666663</ele><time>2026-04-07T09:06:29.931Z</time></trkpt><trkpt lat="44.1767216" lon="10.3140367"><ele>490.3333333333333</ele><time>2026-04-07T09:06:32.946Z</time></trkpt><trkpt lat="44.1767919" lon="10.3140825"><ele>494.5</ele><time>2026-04-07T09:06:35.929Z</time></trkpt><trkpt lat="44.17687" lon="10.3141112"><ele>498.66666666666663</ele><time>2026-04-07T09:06:38.924Z</time></trkpt><trkpt lat="44.1769416" lon="10.3141177"><ele>502.8333333333333</ele><time>2026-04-07T09:06:41.92Z</time></trkpt><trkpt lat="44.1770236" lon="10.3140775"><ele>507.0</ele><time>2026-04-07T09:06:44.918Z</time></trkpt><trkpt lat="44.1770948" lon="10.3140071"><ele>507.0</ele><time>2026-04-07T09:06:47.934Z</time></trkpt><trkpt lat="44.1771491" lon="10.3139174"><ele>507.0</ele><time>2026-04-07T09:06:50.922Z</time></trkpt><trkpt lat="44.1771851" lon="10.3138218"><ele>507.0</ele><time>2026-04-07T09:06:53.942Z</time></trkpt><trkpt lat="44.1771898" lon="10.3137265"><ele>507.0</ele><time>2026-04-07T09:06:56.938Z</time></trkpt><trkpt lat="44.1771833" lon="10.3136131"><ele>507.0</ele><time>2026-04-07T09:06:59.924Z</time></trkpt><trkpt lat="44.1771844" lon="10.3135042"><ele>507.0</ele><time>2026-04-07T09:07:02.932Z</time></trkpt><trkpt lat="44.1771779" lon="10.3133939"><ele>505.8333333333333</ele><time>2026-04-07T09:07:05.922Z</time></trkpt><trkpt lat="44.1771803" lon="10.3132817"><ele>504.66666666666663</ele><time>2026-04-07T09:07:08.926Z</time></trkpt><trkpt lat="44.1771963" lon="10.3131675"><ele>503.5</ele><time>2026-04-07T09:07:11.925Z</time></trkpt><trkpt lat="44.1772327" lon="10.3130611"><ele>502.3333333333333</ele><time>2026-04-07T09:07:14.923Z</time></trkpt><trkpt lat="44.17728" lon="10.3129655"><ele>501.16666666666663</ele><time>2026-04-07T09:07:17.926Z</time></trkpt><trkpt lat="44.1773292" lon="10.3128693"><ele>500.0</ele><time>2026-04-07T09:07:20.931Z</time></trkpt><trkpt lat="44.1773835" lon="10.3127786"><ele>499.99999999999994</ele><time>2026-04-07T09:07:23.928Z</time></trkpt><trkpt lat="44.1774409" lon="10.3126916"><ele>500.0</ele><time>2026-04-07T09:07:26.926Z</time></trkpt><trkpt lat="44.177492" lon="10.3126035"><ele>500.0</ele><time>2026-04-07T09:07:29.929Z</time></trkpt><trkpt lat="44.1775445" lon="10.3125195"><ele>500.0</ele><time>2026-04-07T09:07:32.935Z</time></trkpt><trkpt lat="44.1775962" lon="10.3124309"><ele>499.99999999999994</ele><time>2026-04-07T09:07:35.919Z</time></trkpt><trkpt lat="44.177642" lon="10.3123306"><ele>500.0</ele><time>2026-04-07T09:07:38.928Z</time></trkpt><trkpt lat="44.1776926" lon="10.3122411"><ele>498.49999999999994</ele><time>2026-04-07T09:07:41.934Z</time></trkpt><trkpt lat="44.1777348" lon="10.3121513"><ele>497.0</ele><time>2026-04-07T09:07:44.933Z</time></trkpt><trkpt lat="44.1777674" lon="10.3120509"><ele>495.5</ele><time>2026-04-07T09:07:47.934Z</time></trkpt><trkpt lat="44.1777821" lon="10.3119511"><ele>494.0</ele><time>2026-04-07T09:07:50.924Z</time></trkpt><trkpt lat="44.1778061" lon="10.3118498"><ele>492.49999999999994</ele><time>2026-04-07T09:07:53.919Z</time></trkpt><trkpt lat="44.1778409" lon="10.3117566"><ele>491.0</ele><time>2026-04-07T09:07:56.924Z</time></trkpt><trkpt lat="44.1778875" lon="10.311665"><ele>490.99999999999994</ele><time>2026-04-07T09:07:59.934Z</time></trkpt><trkpt lat="44.177945" lon="10.3115795"><ele>491.0</ele><time>2026-04-07T09:08:02.929Z</time></trkpt><trkpt lat="44.1780044" lon="10.3115026"><ele>491.0</ele><time>2026-04-07T09:08:05.919Z</time></trkpt><trkpt lat="44.178067" lon="10.3114301"><ele>491.0</ele><time>2026-04-07T09:08:08.94Z</time></trkpt><trkpt lat="44.1781292" lon="10.311355"><ele>490.99999999999994</ele><time>2026-04-07T09:08:11.94Z</time></trkpt><trkpt lat="44.1781859" lon="10.3112725"><ele>491.0</ele><time>2026-04-07T09:08:14.927Z</time></trkpt><trkpt lat="44.1782463" lon="10.3111999"><ele>491.8333333333333</ele><time>2026-04-07T09:08:17.924Z</time></trkpt><trkpt lat="44.1783198" lon="10.3111445"><ele>492.66666666666663</ele><time>2026-04-07T09:08:20.932Z</time></trkpt><trkpt lat="44.1783933" lon="10.3111249"><ele>493.5</ele><time>2026-04-07T09:08:23.926Z</time></trkpt><trkpt lat="44.1784736" lon="10.311125"><ele>494.33333333333337</ele><time>2026-04-07T09:08:27.932Z</time></trkpt><trkpt lat="44.1785416" lon="10.3111352"><ele>495.1666666666667</ele><time>2026-04-07T09:08:30.93Z</time></trkpt><trkpt lat="44.1785938" lon="10.3112053"><ele>496.0</ele><time>2026-04-07T09:08:33.933Z</time></trkpt><trkpt lat="44.1786253" lon="10.3113097"><ele>496.00000000000006</ele><time>2026-04-07T09:08:36.929Z</time></trkpt><trkpt lat="44.1786567" lon="10.3114033"><ele>496.0</ele><time>2026-04-07T09:08:39.925Z</time></trkpt><trkpt lat="44.1787072" lon="10.3114792"><ele>496.0</ele><time>2026-04-07T09:08:42.917Z</time></trkpt><trkpt lat="44.1787746" lon="10.3115277"><ele>496.0</ele><time>2026-04-07T09:08:45.926Z</time></trkpt><trkpt lat="44.1788555" lon="10.3115052"><ele>496.00000000000006</ele><time>2026-04-07T09:08:48.927Z</time></trkpt><trkpt lat="44.1789296" lon="10.3114384"><ele>496.0</ele><time>2026-04-07T09:08:51.921Z</time></trkpt><trkpt lat="44.1789823" lon="10.3113515"><ele>498.1666666666667</ele><time>2026-04-07T09:08:54.914Z</time></trkpt><trkpt lat="44.179029" lon="10.3112565"><ele>500.33333333333337</ele><time>2026-04-07T09:08:57.916Z</time></trkpt><trkpt lat="44.1790746" lon="10.3111599"><ele>502.5</ele><time>2026-04-07T09:09:00.923Z</time></trkpt><trkpt lat="44.1791292" lon="10.3110736"><ele>504.66666666666663</ele><time>2026-04-07T09:09:03.92Z</time></trkpt><trkpt lat="44.1791964" lon="10.3110112"><ele>506.8333333333333</ele><time>2026-04-07T09:09:06.92Z</time></trkpt><trkpt lat="44.1792684" lon="10.3109855"><ele>509.0</ele><time>2026-04-07T09:09:09.942Z</time></trkpt><trkpt lat="44.179343" lon="10.3109792"><ele>508.99999999999994</ele><time>2026-04-07T09:09:12.923Z</time></trkpt><trkpt lat="44.1794235" lon="10.3109733"><ele>509.0</ele><time>2026-04-07T09:09:15.922Z</time></trkpt><trkpt lat="44.179506" lon="10.3109714"><ele>509.0</ele><time>2026-04-07T09:09:18.925Z</time></trkpt><trkpt lat="44.1795873" lon="10.3109705"><ele>509.0</ele><time>2026-04-07T09:09:21.931Z</time></trkpt><trkpt lat="44.1796619" lon="10.3109648"><ele>508.99999999999994</ele><time>2026-04-07T09:09:24.928Z</time></trkpt><trkpt lat="44.1797366" lon="10.310955"><ele>509.0</ele><time>2026-04-07T09:09:27.928Z</time></trkpt><trkpt lat="44.1798172" lon="10.3109462"><ele>511.16666666666663</ele><time>2026-04-07T09:09:30.921Z</time></trkpt><trkpt lat="44.1798991" lon="10.3109295"><ele>513.3333333333333</ele><time>2026-04-07T09:09:33.92Z</time></trkpt><trkpt lat="44.1799784" lon="10.3109249"><ele>515.5</ele><time>2026-04-07T09:09:36.923Z</time></trkpt><trkpt lat="44.1800581" lon="10.3109249"><ele>517.6666666666666</ele><time>2026-04-07T09:09:39.928Z</time></trkpt><trkpt lat="44.1801377" lon="10.3109081"><ele>519.8333333333334</ele><time>2026-04-07T09:09:42.931Z</time></trkpt><trkpt lat="44.1802176" lon="10.3108958"><ele>522.0</ele><time>2026-04-07T09:09:45.925Z</time></trkpt><trkpt lat="44.1802965" lon="10.3108737"><ele>522.0</ele><time>2026-04-07T09:09:48.935Z</time></trkpt><trkpt lat="44.1803735" lon="10.3108413"><ele>522.0</ele><time>2026-04-07T09:09:51.935Z</time></trkpt><trkpt lat="44.1804502" lon="10.3108006"><ele>522.0</ele><time>2026-04-07T09:09:54.94Z</time></trkpt><trkpt lat="44.1805255" lon="10.3107585"><ele>522.0</ele><time>2026-04-07T09:09:57.934Z</time></trkpt><trkpt lat="44.1806019" lon="10.3107091"><ele>522.0</ele><time>2026-04-07T09:10:00.937Z</time></trkpt><trkpt lat="44.180675" lon="10.3106599"><ele>522.0</ele><time>2026-04-07T09:10:03.932Z</time></trkpt><trkpt lat="44.1807435" lon="10.3106031"><ele>522.1666666666666</ele><time>2026-04-07T09:10:06.933Z</time></trkpt><trkpt lat="44.1808132" lon="10.310538"><ele>522.3333333333334</ele><time>2026-04-07T09:10:09.928Z</time></trkpt><trkpt lat="44.1808762" lon="10.3104696"><ele>522.5</ele><time>2026-04-07T09:10:12.927Z</time></trkpt><trkpt lat="44.180935" lon="10.3103977"><ele>522.6666666666667</ele><time>2026-04-07T09:10:15.919Z</time></trkpt><trkpt lat="44.1810014" lon="10.310342"><ele>522.8333333333334</ele><time>2026-04-07T09:10:18.929Z</time></trkpt><trkpt lat="44.1810755" lon="10.3102971"><ele>523.0</ele><time>2026-04-07T09:10:21.931Z</time></trkpt><trkpt lat="44.1811422" lon="10.3102448"><ele>522.9999999999999</ele><time>2026-04-07T09:10:24.925Z</time></trkpt><trkpt lat="44.1812023" lon="10.3101835"><ele>523.0</ele><time>2026-04-07T09:10:27.921Z</time></trkpt><trkpt lat="44.1812731" lon="10.3101449"><ele>523.0</ele><time>2026-04-07T09:10:30.929Z</time></trkpt><trkpt lat="44.1813416" lon="10.3100935"><ele>523.0</ele><time>2026-04-07T09:10:33.934Z</time></trkpt><trkpt lat="44.1814003" lon="10.3100356"><ele>523.0</ele><time>2026-04-07T09:10:36.928Z</time></trkpt><trkpt lat="44.1814589" lon="10.3099862"><ele>522.9999999999999</ele><time>2026-04-07T09:10:39.931Z</time></trkpt><trkpt lat="44.1815322" lon="10.3099462"><ele>523.0</ele><time>2026-04-07T09:10:43.93Z</time></trkpt><trkpt lat="44.1815998" lon="10.3099177"><ele>524.6666666666667</ele><time>2026-04-07T09:10:47.923Z</time></trkpt><trkpt lat="44.1816652" lon="10.3099188"><ele>526.3333333333334</ele><time>2026-04-07T09:10:50.924Z</time></trkpt><trkpt lat="44.1817495" lon="10.3099169"><ele>528.0</ele><time>2026-04-07T09:10:53.923Z</time></trkpt><trkpt lat="44.1818197" lon="10.3099201"><ele>529.6666666666666</ele><time>2026-04-07T09:10:55.915Z</time></trkpt><trkpt lat="44.1818979" lon="10.3099337"><ele>531.3333333333333</ele><time>2026-04-07T09:10:57.93Z</time></trkpt><trkpt lat="44.1819791" lon="10.3099458"><ele>533.0</ele><time>2026-04-07T09:10:59.927Z</time></trkpt><trkpt lat="44.1820616" lon="10.3099677"><ele>533.0</ele><time>2026-04-07T09:11:01.927Z</time></trkpt><trkpt lat="44.1821464" lon="10.309984"><ele>533.0</ele><time>2026-04-07T09:11:03.94Z</time></trkpt><trkpt lat="44.1822334" lon="10.3100011"><ele>533.0</ele><time>2026-04-07T09:11:05.932Z</time></trkpt><trkpt lat="44.1823012" lon="10.3100178"><ele>533.0</ele><time>2026-04-07T09:11:07.933Z</time></trkpt><trkpt lat="44.1823647" lon="10.310032"><ele>533.0</ele><time>2026-04-07T09:11:15.936Z</time></trkpt><trkpt lat="44.1824261" lon="10.3099895"><ele>533.0</ele><time>2026-04-07T09:13:06.938Z</time></trkpt><trkpt lat="44.1824817" lon="10.3099353"><ele>533.0</ele><time>2026-04-07T09:13:09.922Z</time></trkpt><trkpt lat="44.1825242" lon="10.3098655"><ele>534.0</ele><time>2026-04-07T09:13:11.927Z</time></trkpt><trkpt lat="44.1825711" lon="10.3097807"><ele>535.0</ele><time>2026-04-07T09:13:13.919Z</time></trkpt><trkpt lat="44.1826237" lon="10.3096832"><ele>536.0</ele><time>2026-04-07T09:13:15.921Z</time></trkpt><trkpt lat="44.1826781" lon="10.3095681"><ele>537.0</ele><time>2026-04-07T09:13:17.924Z</time></trkpt><trkpt lat="44.1827369" lon="10.3094501"><ele>538.0</ele><time>2026-04-07T09:13:19.918Z</time></trkpt><trkpt lat="44.1827964" lon="10.309323"><ele>533.25</ele><time>2026-04-07T09:13:21.925Z</time></trkpt><trkpt lat="44.1828539" lon="10.3091871"><ele>528.5</ele><time>2026-04-07T09:13:23.936Z</time></trkpt><trkpt lat="44.1829091" lon="10.3090481"><ele>523.75</ele><time>2026-04-07T09:13:25.918Z</time></trkpt><trkpt lat="44.1829531" lon="10.3088984"><ele>519.0</ele><time>2026-04-07T09:13:27.922Z</time></trkpt><trkpt lat="44.1830032" lon="10.3087477"><ele>521.8</ele><time>2026-04-07T09:13:29.926Z</time></trkpt><trkpt lat="44.1830398" lon="10.3086689"><ele>524.5999999999999</ele><time>2026-04-07T09:13:30.919Z</time></trkpt><trkpt lat="44.1830814" lon="10.3085985"><ele>527.4</ele><time>2026-04-07T09:13:31.925Z</time></trkpt><trkpt lat="44.1831757" lon="10.3084993"><ele>530.1999999999999</ele><time>2026-04-07T09:13:33.919Z</time></trkpt><trkpt lat="44.1832706" lon="10.3084168"><ele>533.0</ele><time>2026-04-07T09:13:35.926Z</time></trkpt><trkpt lat="44.1833485" lon="10.3083267"><ele>533.0</ele><time>2026-04-07T09:13:37.928Z</time></trkpt><trkpt lat="44.1834236" lon="10.3082253"><ele>533.0</ele><time>2026-04-07T09:13:39.94Z</time></trkpt><trkpt lat="44.1834929" lon="10.3081467"><ele>533.0</ele><time>2026-04-07T09:13:41.938Z</time></trkpt><trkpt lat="44.1835548" lon="10.3080565"><ele>533.0</ele><time>2026-04-07T09:13:43.927Z</time></trkpt><trkpt lat="44.1836071" lon="10.3079584"><ele>533.0</ele><time>2026-04-07T09:13:45.916Z</time></trkpt><trkpt lat="44.1836552" lon="10.3078654"><ele>529.1666666666666</ele><time>2026-04-07T09:13:47.92Z</time></trkpt><trkpt lat="44.1836973" lon="10.3077708"><ele>525.3333333333333</ele><time>2026-04-07T09:13:49.917Z</time></trkpt><trkpt lat="44.1837374" lon="10.3076735"><ele>521.5</ele><time>2026-04-07T09:13:51.921Z</time></trkpt><trkpt lat="44.1837766" lon="10.3075746"><ele>517.6666666666666</ele><time>2026-04-07T09:13:53.922Z</time></trkpt><trkpt lat="44.1838108" lon="10.3074733"><ele>513.8333333333334</ele><time>2026-04-07T09:13:55.919Z</time></trkpt><trkpt lat="44.1838368" lon="10.3073718"><ele>510.0</ele><time>2026-04-07T09:13:57.919Z</time></trkpt><trkpt lat="44.1838588" lon="10.3072719"><ele>507.0</ele><time>2026-04-07T09:13:59.939Z</time></trkpt><trkpt lat="44.1838717" lon="10.3071673"><ele>504.0</ele><time>2026-04-07T09:14:01.932Z</time></trkpt><trkpt lat="44.1838844" lon="10.3070627"><ele>501.0</ele><time>2026-04-07T09:14:03.925Z</time></trkpt><trkpt lat="44.1838992" lon="10.306958"><ele>498.0</ele><time>2026-04-07T09:14:05.92Z</time></trkpt><trkpt lat="44.1839122" lon="10.3068479"><ele>495.0</ele><time>2026-04-07T09:14:07.923Z</time></trkpt><trkpt lat="44.1839227" lon="10.306745"><ele>492.0</ele><time>2026-04-07T09:14:09.919Z</time></trkpt><trkpt lat="44.1839308" lon="10.3066524"><ele>492.0</ele><time>2026-04-07T09:14:11.912Z</time></trkpt><trkpt lat="44.1839438" lon="10.3065657"><ele>492.0</ele><time>2026-04-07T09:14:13.947Z</time></trkpt><trkpt lat="44.1839632" lon="10.3064529"><ele>492.0</ele><time>2026-04-07T09:14:16.937Z</time></trkpt><trkpt lat="44.1839755" lon="10.3063379"><ele>492.0</ele><time>2026-04-07T09:14:19.929Z</time></trkpt><trkpt lat="44.1839907" lon="10.3062224"><ele>492.0</ele><time>2026-04-07T09:14:22.926Z</time></trkpt><trkpt lat="44.1839997" lon="10.3061046"><ele>492.0</ele><time>2026-04-07T09:14:25.938Z</time></trkpt><trkpt lat="44.1840046" lon="10.3059972"><ele>493.6666666666667</ele><time>2026-04-07T09:14:28.923Z</time></trkpt><trkpt lat="44.1840093" lon="10.3058835"><ele>495.33333333333337</ele><time>2026-04-07T09:14:31.927Z</time></trkpt><trkpt lat="44.1840114" lon="10.3057644"><ele>497.0</ele><time>2026-04-07T09:14:34.936Z</time></trkpt><trkpt lat="44.1840112" lon="10.3056515"><ele>498.6666666666667</ele><time>2026-04-07T09:14:37.929Z</time></trkpt><trkpt lat="44.184014" lon="10.3055346"><ele>500.33333333333337</ele><time>2026-04-07T09:14:40.934Z</time></trkpt><trkpt lat="44.1840139" lon="10.3054222"><ele>502.0</ele><time>2026-04-07T09:14:43.938Z</time></trkpt><trkpt lat="44.1840097" lon="10.3053155"><ele>504.6666666666667</ele><time>2026-04-07T09:14:46.919Z</time></trkpt><trkpt lat="44.1840148" lon="10.3052075"><ele>507.33333333333337</ele><time>2026-04-07T09:14:49.924Z</time></trkpt><trkpt lat="44.1840214" lon="10.3050908"><ele>510.0</ele><time>2026-04-07T09:14:52.927Z</time></trkpt><trkpt lat="44.1840498" lon="10.3049845"><ele>512.6666666666666</ele><time>2026-04-07T09:14:55.933Z</time></trkpt><trkpt lat="44.184087" lon="10.3048793"><ele>515.3333333333333</ele><time>2026-04-07T09:14:58.927Z</time></trkpt><trkpt lat="44.1841156" lon="10.3047967"><ele>518.0</ele><time>2026-04-07T09:15:00.921Z</time></trkpt><trkpt lat="44.1841507" lon="10.3047095"><ele>518.0</ele><time>2026-04-07T09:15:02.923Z</time></trkpt><trkpt lat="44.1841893" lon="10.3046241"><ele>518.0</ele><time>2026-04-07T09:15:04.924Z</time></trkpt><trkpt lat="44.18422" lon="10.3045206"><ele>518.0</ele><time>2026-04-07T09:15:06.927Z</time></trkpt><trkpt lat="44.1842091" lon="10.3044007"><ele>518.0</ele><time>2026-04-07T09:15:08.923Z</time></trkpt><trkpt lat="44.1841686" lon="10.3042928"><ele>518.0</ele><time>2026-04-07T09:15:10.923Z</time></trkpt><trkpt lat="44.1841217" lon="10.304193"><ele>518.0</ele><time>2026-04-07T09:15:12.925Z</time></trkpt><trkpt lat="44.1840748" lon="10.3041008"><ele>518.0</ele><time>2026-04-07T09:15:14.927Z</time></trkpt><trkpt lat="44.184031" lon="10.3040111"><ele>518.0</ele><time>2026-04-07T09:15:16.926Z</time></trkpt><trkpt lat="44.1839824" lon="10.3039221"><ele>518.0</ele><time>2026-04-07T09:15:18.931Z</time></trkpt><trkpt lat="44.1839334" lon="10.3038325"><ele>518.0</ele><time>2026-04-07T09:15:20.921Z</time></trkpt><trkpt lat="44.1838846" lon="10.3037477"><ele>518.0</ele><time>2026-04-07T09:15:22.924Z</time></trkpt><trkpt lat="44.1838376" lon="10.3036624"><ele>518.0</ele><time>2026-04-07T09:15:24.924Z</time></trkpt><trkpt lat="44.1837896" lon="10.3035803"><ele>518.1666666666666</ele><time>2026-04-07T09:15:26.927Z</time></trkpt><trkpt lat="44.1837428" lon="10.3034952"><ele>518.3333333333333</ele><time>2026-04-07T09:15:28.922Z</time></trkpt><trkpt lat="44.1836939" lon="10.3034083"><ele>518.5</ele><time>2026-04-07T09:15:30.918Z</time></trkpt><trkpt lat="44.1836487" lon="10.3033177"><ele>518.6666666666666</ele><time>2026-04-07T09:15:32.93Z</time></trkpt><trkpt lat="44.1836015" lon="10.3032292"><ele>518.8333333333334</ele><time>2026-04-07T09:15:34.941Z</time></trkpt><trkpt lat="44.1835589" lon="10.3031371"><ele>519.0</ele><time>2026-04-07T09:15:36.942Z</time></trkpt><trkpt lat="44.1835205" lon="10.3030448"><ele>519.0</ele><time>2026-04-07T09:15:38.935Z</time></trkpt><trkpt lat="44.1834803" lon="10.3029551"><ele>519.0</ele><time>2026-04-07T09:15:40.933Z</time></trkpt><trkpt lat="44.1834478" lon="10.3028597"><ele>519.0</ele><time>2026-04-07T09:15:42.931Z</time></trkpt><trkpt lat="44.1834196" lon="10.3027545"><ele>519.0</ele><time>2026-04-07T09:15:44.936Z</time></trkpt><trkpt lat="44.1833878" lon="10.3026515"><ele>519.0</ele><time>2026-04-07T09:15:46.933Z</time></trkpt><trkpt lat="44.1833708" lon="10.3025507"><ele>519.0</ele><time>2026-04-07T09:15:48.928Z</time></trkpt><trkpt lat="44.1833563" lon="10.302456"><ele>519.0</ele><time>2026-04-07T09:15:50.932Z</time></trkpt><trkpt lat="44.183332" lon="10.3023346"><ele>519.0</ele><time>2026-04-07T09:15:53.922Z</time></trkpt><trkpt lat="44.1833096" lon="10.3022264"><ele>519.0</ele><time>2026-04-07T09:15:56.92Z</time></trkpt><trkpt lat="44.1832945" lon="10.3021186"><ele>519.0</ele><time>2026-04-07T09:15:59.935Z</time></trkpt><trkpt lat="44.1832773" lon="10.302012"><ele>519.0</ele><time>2026-04-07T09:16:02.925Z</time></trkpt><trkpt lat="44.1832737" lon="10.3019061"><ele>519.0</ele><time>2026-04-07T09:16:05.931Z</time></trkpt><trkpt lat="44.1832732" lon="10.3018033"><ele>519.4285714285714</ele><time>2026-04-07T09:16:08.924Z</time></trkpt><trkpt lat="44.1832821" lon="10.3017096"><ele>519.8571428571428</ele><time>2026-04-07T09:16:11.938Z</time></trkpt><trkpt lat="44.1832879" lon="10.3015989"><ele>520.2857142857142</ele><time>2026-04-07T09:16:14.93Z</time></trkpt><trkpt lat="44.1832962" lon="10.3014931"><ele>520.7142857142857</ele><time>2026-04-07T09:16:17.935Z</time></trkpt><trkpt lat="44.1833058" lon="10.3013912"><ele>521.1428571428571</ele><time>2026-04-07T09:16:21.93Z</time></trkpt><trkpt lat="44.1833219" lon="10.3012982"><ele>521.5714285714286</ele><time>2026-04-07T09:16:24.932Z</time></trkpt><trkpt lat="44.1833299" lon="10.3012003"><ele>522.0</ele><time>2026-04-07T09:16:26.931Z</time></trkpt><trkpt lat="44.1833525" lon="10.301082"><ele>522.0</ele><time>2026-04-07T09:16:28.936Z</time></trkpt><trkpt lat="44.1833816" lon="10.3009497"><ele>522.0</ele><time>2026-04-07T09:16:30.925Z</time></trkpt><trkpt lat="44.1833744" lon="10.3007878"><ele>522.0</ele><time>2026-04-07T09:16:32.928Z</time></trkpt><trkpt lat="44.1833514" lon="10.3006122"><ele>522.0</ele><time>2026-04-07T09:16:34.94Z</time></trkpt><trkpt lat="44.1833411" lon="10.3005145"><ele>522.0</ele><time>2026-04-07T09:16:35.932Z</time></trkpt><trkpt lat="44.1833262" lon="10.3004158"><ele>521.7142857142858</ele><time>2026-04-07T09:16:36.936Z</time></trkpt><trkpt lat="44.1833077" lon="10.3003167"><ele>521.4285714285714</ele><time>2026-04-07T09:16:37.934Z</time></trkpt><trkpt lat="44.1832865" lon="10.300214"><ele>521.1428571428571</ele><time>2026-04-07T09:16:38.944Z</time></trkpt><trkpt lat="44.1832659" lon="10.3001113"><ele>520.8571428571429</ele><time>2026-04-07T09:16:39.935Z</time></trkpt><trkpt lat="44.1832494" lon="10.3000152"><ele>520.5714285714286</ele><time>2026-04-07T09:16:40.934Z</time></trkpt><trkpt lat="44.1832304" lon="10.2999177"><ele>520.2857142857143</ele><time>2026-04-07T09:16:41.922Z</time></trkpt><trkpt lat="44.1832108" lon="10.2998233"><ele>520.0</ele><time>2026-04-07T09:16:42.936Z</time></trkpt><trkpt lat="44.1831907" lon="10.2997325"><ele>517.0</ele><time>2026-04-07T09:16:43.922Z</time></trkpt><trkpt lat="44.1831683" lon="10.2996387"><ele>514.0</ele><time>2026-04-07T09:16:44.936Z</time></trkpt><trkpt lat="44.1831435" lon="10.2995373"><ele>511.0</ele><time>2026-04-07T09:16:45.944Z</time></trkpt><trkpt lat="44.1831199" lon="10.299444"><ele>508.0</ele><time>2026-04-07T09:16:46.93Z</time></trkpt><trkpt lat="44.1830966" lon="10.2993511"><ele>505.00000000000006</ele><time>2026-04-07T09:16:47.932Z</time></trkpt><trkpt lat="44.183058" lon="10.2992048"><ele>502.0</ele><time>2026-04-07T09:16:49.934Z</time></trkpt><trkpt lat="44.1830353" lon="10.2991077"><ele>502.00000000000006</ele><time>2026-04-07T09:16:51.928Z</time></trkpt><trkpt lat="44.183004" lon="10.2990066"><ele>502.0</ele><time>2026-04-07T09:16:54.93Z</time></trkpt><trkpt lat="44.1829512" lon="10.2991037"><ele>502.0</ele><time>2026-04-07T09:16:57.917Z</time></trkpt><trkpt lat="44.1829387" lon="10.2992527"><ele>502.0</ele><time>2026-04-07T09:16:59.924Z</time></trkpt><trkpt lat="44.1829289" lon="10.2993506"><ele>502.00000000000006</ele><time>2026-04-07T09:17:00.919Z</time></trkpt><trkpt lat="44.1829164" lon="10.299454"><ele>502.0</ele><time>2026-04-07T09:17:01.916Z</time></trkpt><trkpt lat="44.1829003" lon="10.2995513"><ele>502.00000000000006</ele><time>2026-04-07T09:17:02.917Z</time></trkpt><trkpt lat="44.1828864" lon="10.2996425"><ele>502.0</ele><time>2026-04-07T09:17:03.915Z</time></trkpt><trkpt lat="44.1828623" lon="10.2997557"><ele>502.0</ele><time>2026-04-07T09:17:05.92Z</time></trkpt><trkpt lat="44.1828166" lon="10.2998762"><ele>502.0</ele><time>2026-04-07T09:17:08.911Z</time></trkpt><trkpt lat="44.1827578" lon="10.299949"><ele>502.00000000000006</ele><time>2026-04-07T09:17:10.929Z</time></trkpt><trkpt lat="44.1826885" lon="10.2999718"><ele>502.0</ele><time>2026-04-07T09:17:12.939Z</time></trkpt><trkpt lat="44.1826154" lon="10.3000237"><ele>502.00000000000006</ele><time>2026-04-07T09:17:14.923Z</time></trkpt><trkpt lat="44.1825634" lon="10.3000954"><ele>502.0</ele><time>2026-04-07T09:17:15.938Z</time></trkpt><trkpt lat="44.1825158" lon="10.3001617"><ele>502.0</ele><time>2026-04-07T09:17:16.925Z</time></trkpt><trkpt lat="44.1824646" lon="10.3002222"><ele>502.0</ele><time>2026-04-07T09:17:17.93Z</time></trkpt><trkpt lat="44.1823652" lon="10.3003219"><ele>502.00000000000006</ele><time>2026-04-07T09:17:19.929Z</time></trkpt><trkpt lat="44.182274" lon="10.3003779"><ele>502.0</ele><time>2026-04-07T09:17:21.928Z</time></trkpt><trkpt lat="44.1821685" lon="10.3004436"><ele>499.83333333333337</ele><time>2026-04-07T09:17:23.932Z</time></trkpt><trkpt lat="44.1820858" lon="10.3005054"><ele>497.6666666666667</ele><time>2026-04-07T09:17:25.918Z</time></trkpt><trkpt lat="44.1820289" lon="10.3005663"><ele>495.5</ele><time>2026-04-07T09:17:27.919Z</time></trkpt><trkpt lat="44.1819463" lon="10.3005858"><ele>493.33333333333337</ele><time>2026-04-07T09:17:30.922Z</time></trkpt><trkpt lat="44.1818775" lon="10.3004902"><ele>491.1666666666667</ele><time>2026-04-07T09:17:33.935Z</time></trkpt><trkpt lat="44.1818605" lon="10.3004"><ele>489.0</ele><time>2026-04-07T09:17:35.923Z</time></trkpt><trkpt lat="44.1818635" lon="10.3003103"><ele>489.0</ele><time>2026-04-07T09:17:37.94Z</time></trkpt><trkpt lat="44.1818861" lon="10.300202"><ele>489.0</ele><time>2026-04-07T09:17:40.935Z</time></trkpt><trkpt lat="44.1819081" lon="10.3000899"><ele>489.0</ele><time>2026-04-07T09:17:43.915Z</time></trkpt><trkpt lat="44.1819312" lon="10.2999853"><ele>489.0</ele><time>2026-04-07T09:17:46.927Z</time></trkpt><trkpt lat="44.1819511" lon="10.2998859"><ele>489.0</ele><time>2026-04-07T09:17:49.936Z</time></trkpt><trkpt lat="44.1819773" lon="10.2997936"><ele>489.0</ele><time>2026-04-07T09:17:52.931Z</time></trkpt><trkpt lat="44.1820095" lon="10.2997039"><ele>488.8333333333333</ele><time>2026-04-07T09:17:55.931Z</time></trkpt><trkpt lat="44.1820392" lon="10.2996189"><ele>488.66666666666663</ele><time>2026-04-07T09:17:57.929Z</time></trkpt><trkpt lat="44.1820731" lon="10.2995176"><ele>488.5</ele><time>2026-04-07T09:17:59.92Z</time></trkpt><trkpt lat="44.1820943" lon="10.2994336"><ele>488.3333333333333</ele><time>2026-04-07T09:18:01.924Z</time></trkpt><trkpt lat="44.1820451" lon="10.2993395"><ele>488.16666666666663</ele><time>2026-04-07T09:18:05.914Z</time></trkpt><trkpt lat="44.1819598" lon="10.2993001"><ele>488.0</ele><time>2026-04-07T09:18:07.921Z</time></trkpt><trkpt lat="44.1819049" lon="10.2992262"><ele>487.99999999999994</ele><time>2026-04-07T09:18:09.915Z</time></trkpt><trkpt lat="44.1818758" lon="10.2991424"><ele>488.0</ele><time>2026-04-07T09:18:11.915Z</time></trkpt><trkpt lat="44.1818459" lon="10.2990309"><ele>487.99999999999994</ele><time>2026-04-07T09:18:14.919Z</time></trkpt><trkpt lat="44.181819" lon="10.2989332"><ele>487.99999999999994</ele><time>2026-04-07T09:18:17.918Z</time></trkpt><trkpt lat="44.1817943" lon="10.2988467"><ele>488.0</ele><time>2026-04-07T09:18:20.913Z</time></trkpt><trkpt lat="44.1817663" lon="10.29874"><ele>487.99999999999994</ele><time>2026-04-07T09:18:24.917Z</time></trkpt><trkpt lat="44.1817485" lon="10.2986549"><ele>487.99999999999994</ele><time>2026-04-07T09:18:26.914Z</time></trkpt><trkpt lat="44.1817462" lon="10.2984947"><ele>487.8333333333333</ele><time>2026-04-07T09:18:28.914Z</time></trkpt><trkpt lat="44.1817467" lon="10.2983917"><ele>487.66666666666663</ele><time>2026-04-07T09:18:29.916Z</time></trkpt><trkpt lat="44.1817504" lon="10.2982762"><ele>487.5</ele><time>2026-04-07T09:18:30.92Z</time></trkpt><trkpt lat="44.1817498" lon="10.2981549"><ele>487.33333333333337</ele><time>2026-04-07T09:18:31.92Z</time></trkpt><trkpt lat="44.1817421" lon="10.2980274"><ele>487.1666666666667</ele><time>2026-04-07T09:18:32.919Z</time></trkpt><trkpt lat="44.1817251" lon="10.297897"><ele>487.0</ele><time>2026-04-07T09:18:33.922Z</time></trkpt><trkpt lat="44.1817042" lon="10.2977624"><ele>487.1666666666667</ele><time>2026-04-07T09:18:34.918Z</time></trkpt><trkpt lat="44.1816757" lon="10.2976326"><ele>487.33333333333337</ele><time>2026-04-07T09:18:35.917Z</time></trkpt><trkpt lat="44.1816426" lon="10.2975104"><ele>487.5</ele><time>2026-04-07T09:18:36.932Z</time></trkpt><trkpt lat="44.1816136" lon="10.2974117"><ele>487.66666666666663</ele><time>2026-04-07T09:18:37.931Z</time></trkpt><trkpt lat="44.1815882" lon="10.2973244"><ele>487.8333333333333</ele><time>2026-04-07T09:18:38.945Z</time></trkpt><trkpt lat="44.1815341" lon="10.2971949"><ele>488.0</ele><time>2026-04-07T09:18:40.922Z</time></trkpt><trkpt lat="44.1815129" lon="10.2970867"><ele>487.99999999999994</ele><time>2026-04-07T09:18:42.916Z</time></trkpt><trkpt lat="44.1815084" lon="10.2969761"><ele>488.0</ele><time>2026-04-07T09:18:44.913Z</time></trkpt><trkpt lat="44.1815035" lon="10.2968561"><ele>488.0</ele><time>2026-04-07T09:18:46.925Z</time></trkpt><trkpt lat="44.18143" lon="10.2967668"><ele>488.0</ele><time>2026-04-07T09:18:48.92Z</time></trkpt><trkpt lat="44.1813502" lon="10.2968033"><ele>487.99999999999994</ele><time>2026-04-07T09:18:50.915Z</time></trkpt><trkpt lat="44.181296" lon="10.2968711"><ele>488.0</ele><time>2026-04-07T09:18:52.922Z</time></trkpt><trkpt lat="44.1812474" lon="10.2969614"><ele>488.0</ele><time>2026-04-07T09:18:54.927Z</time></trkpt><trkpt lat="44.1811683" lon="10.2970646"><ele>487.99999999999994</ele><time>2026-04-07T09:18:56.918Z</time></trkpt><trkpt lat="44.1810707" lon="10.2971528"><ele>487.99999999999994</ele><time>2026-04-07T09:18:58.935Z</time></trkpt><trkpt lat="44.1809963" lon="10.2972327"><ele>488.0</ele><time>2026-04-07T09:19:00.918Z</time></trkpt><trkpt lat="44.1809732" lon="10.2971435"><ele>488.0</ele><time>2026-04-07T09:19:05.925Z</time></trkpt><trkpt lat="44.1809734" lon="10.2970287"><ele>487.99999999999994</ele><time>2026-04-07T09:19:10.941Z</time></trkpt><trkpt lat="44.1809537" lon="10.2969302"><ele>488.0</ele><time>2026-04-07T09:19:14.943Z</time></trkpt><trkpt lat="44.1809378" lon="10.2968366"><ele>487.99999999999994</ele><time>2026-04-07T09:19:17.934Z</time></trkpt><trkpt lat="44.1809309" lon="10.2967414"><ele>487.99999999999994</ele><time>2026-04-07T09:19:20.931Z</time></trkpt><trkpt lat="44.1809203" lon="10.2966471"><ele>488.0</ele><time>2026-04-07T09:19:23.929Z</time></trkpt><trkpt lat="44.180923" lon="10.2965404"><ele>487.99999999999994</ele><time>2026-04-07T09:19:26.919Z</time></trkpt><trkpt lat="44.1809519" lon="10.2964224"><ele>487.99999999999994</ele><time>2026-04-07T09:19:29.926Z</time></trkpt><trkpt lat="44.18099" lon="10.2963489"><ele>487.71428571428567</ele><time>2026-04-07T09:19:31.916Z</time></trkpt><trkpt lat="44.1810149" lon="10.2962555"><ele>487.42857142857144</ele><time>2026-04-07T09:19:33.918Z</time></trkpt><trkpt lat="44.1810267" lon="10.2961635"><ele>487.1428571428571</ele><time>2026-04-07T09:19:35.939Z</time></trkpt><trkpt lat="44.1810437" lon="10.2960786"><ele>486.85714285714283</ele><time>2026-04-07T09:19:37.939Z</time></trkpt><trkpt lat="44.1810808" lon="10.2959778"><ele>486.57142857142856</ele><time>2026-04-07T09:19:40.935Z</time></trkpt><trkpt lat="44.1811118" lon="10.295897"><ele>486.2857142857143</ele><time>2026-04-07T09:19:43.941Z</time></trkpt><trkpt lat="44.1811366" lon="10.2957975"><ele>486.0</ele><time>2026-04-07T09:19:46.925Z</time></trkpt><trkpt lat="44.1811597" lon="10.2957061"><ele>486.0</ele><time>2026-04-07T09:19:49.925Z</time></trkpt><trkpt lat="44.1811929" lon="10.2956196"><ele>486.0</ele><time>2026-04-07T09:19:53.923Z</time></trkpt><trkpt lat="44.1812302" lon="10.2955311"><ele>486.0</ele><time>2026-04-07T09:19:57.932Z</time></trkpt><trkpt lat="44.1812445" lon="10.2954432"><ele>486.0</ele><time>2026-04-07T09:20:01.923Z</time></trkpt><trkpt lat="44.1812114" lon="10.2953545"><ele>486.0</ele><time>2026-04-07T09:20:05.925Z</time></trkpt><trkpt lat="44.1811979" lon="10.2952607"><ele>486.0</ele><time>2026-04-07T09:20:09.929Z</time></trkpt><trkpt lat="44.1812146" lon="10.2951655"><ele>486.0</ele><time>2026-04-07T09:20:13.93Z</time></trkpt><trkpt lat="44.1812278" lon="10.2950683"><ele>486.42857142857144</ele><time>2026-04-07T09:20:17.926Z</time></trkpt><trkpt lat="44.1812177" lon="10.2949814"><ele>486.8571428571429</ele><time>2026-04-07T09:20:22.921Z</time></trkpt><trkpt lat="44.1812117" lon="10.2948801"><ele>487.28571428571433</ele><time>2026-04-07T09:20:27.922Z</time></trkpt><trkpt lat="44.1812558" lon="10.2948021"><ele>487.7142857142857</ele><time>2026-04-07T09:20:32.927Z</time></trkpt><trkpt lat="44.1812899" lon="10.2947061"><ele>488.1428571428572</ele><time>2026-04-07T09:20:38.928Z</time></trkpt><trkpt lat="44.1813217" lon="10.2946073"><ele>488.5714285714286</ele><time>2026-04-07T09:20:42.927Z</time></trkpt><trkpt lat="44.1813381" lon="10.2945168"><ele>489.0</ele><time>2026-04-07T09:20:47.937Z</time></trkpt><trkpt lat="44.181344" lon="10.2944191"><ele>489.8571428571429</ele><time>2026-04-07T09:20:51.929Z</time></trkpt><trkpt lat="44.1813507" lon="10.2943221"><ele>490.7142857142858</ele><time>2026-04-07T09:20:56.927Z</time></trkpt><trkpt lat="44.18136" lon="10.2942231"><ele>491.57142857142856</ele><time>2026-04-07T09:21:02.93Z</time></trkpt><trkpt lat="44.1813798" lon="10.2941346"><ele>492.42857142857144</ele><time>2026-04-07T09:21:06.922Z</time></trkpt><trkpt lat="44.1814048" lon="10.2940322"><ele>493.2857142857143</ele><time>2026-04-07T09:21:10.923Z</time></trkpt><trkpt lat="44.1814142" lon="10.2939331"><ele>494.1428571428571</ele><time>2026-04-07T09:21:14.92Z</time></trkpt><trkpt lat="44.181433" lon="10.2938435"><ele>494.99999999999994</ele><time>2026-04-07T09:21:19.929Z</time></trkpt><trkpt lat="44.1814546" lon="10.2937572"><ele>495.1428571428571</ele><time>2026-04-07T09:21:24.932Z</time></trkpt><trkpt lat="44.1814792" lon="10.2936744"><ele>495.2857142857143</ele><time>2026-04-07T09:21:28.922Z</time></trkpt><trkpt lat="44.1815095" lon="10.2935811"><ele>495.42857142857144</ele><time>2026-04-07T09:21:33.916Z</time></trkpt><trkpt lat="44.1815197" lon="10.2934753"><ele>495.57142857142856</ele><time>2026-04-07T09:21:38.926Z</time></trkpt><trkpt lat="44.181518" lon="10.2933643"><ele>495.7142857142858</ele><time>2026-04-07T09:21:43.926Z</time></trkpt><trkpt lat="44.181521" lon="10.2932735"><ele>495.8571428571429</ele><time>2026-04-07T09:21:47.928Z</time></trkpt><trkpt lat="44.1815273" lon="10.2931633"><ele>496.0</ele><time>2026-04-07T09:21:52.923Z</time></trkpt><trkpt lat="44.181537" lon="10.2930643"><ele>496.0</ele><time>2026-04-07T09:21:56.944Z</time></trkpt><trkpt lat="44.1815442" lon="10.2929654"><ele>496.00000000000006</ele><time>2026-04-07T09:22:00.925Z</time></trkpt><trkpt lat="44.1815413" lon="10.2928735"><ele>496.0</ele><time>2026-04-07T09:22:03.915Z</time></trkpt><trkpt lat="44.1815353" lon="10.29278"><ele>496.0</ele><time>2026-04-07T09:22:06.928Z</time></trkpt><trkpt lat="44.1815096" lon="10.2926827"><ele>496.00000000000006</ele><time>2026-04-07T09:22:09.944Z</time></trkpt><trkpt lat="44.1814809" lon="10.2925699"><ele>496.0</ele><time>2026-04-07T09:22:12.93Z</time></trkpt><trkpt lat="44.1814636" lon="10.2924694"><ele>496.0</ele><time>2026-04-07T09:22:15.956Z</time></trkpt><trkpt lat="44.1814498" lon="10.2923784"><ele>498.42857142857144</ele><time>2026-04-07T09:22:19.928Z</time></trkpt><trkpt lat="44.1814345" lon="10.2922914"><ele>500.8571428571429</ele><time>2026-04-07T09:22:23.932Z</time></trkpt><trkpt lat="44.1813971" lon="10.2922073"><ele>503.28571428571433</ele><time>2026-04-07T09:22:27.927Z</time></trkpt><trkpt lat="44.1813512" lon="10.2921412"><ele>505.7142857142858</ele><time>2026-04-07T09:22:31.927Z</time></trkpt><trkpt lat="44.1813015" lon="10.292066"><ele>508.14285714285717</ele><time>2026-04-07T09:22:37.931Z</time></trkpt><trkpt lat="44.1812431" lon="10.291996"><ele>510.57142857142867</ele><time>2026-04-07T09:22:42.918Z</time></trkpt><trkpt lat="44.1812163" lon="10.2918931"><ele>513.0</ele><time>2026-04-07T09:22:48.921Z</time></trkpt><trkpt lat="44.1812056" lon="10.2918006"><ele>513.8333333333334</ele><time>2026-04-07T09:22:51.948Z</time></trkpt><trkpt lat="44.1812633" lon="10.2917474"><ele>514.6666666666666</ele><time>2026-04-07T09:22:59.921Z</time></trkpt><trkpt lat="44.1813233" lon="10.2916878"><ele>515.5</ele><time>2026-04-07T09:23:04.925Z</time></trkpt><trkpt lat="44.1813588" lon="10.2916063"><ele>516.3333333333333</ele><time>2026-04-07T09:23:09.924Z</time></trkpt><trkpt lat="44.1813592" lon="10.291489"><ele>517.1666666666666</ele><time>2026-04-07T09:23:13.923Z</time></trkpt><trkpt lat="44.1813823" lon="10.2913413"><ele>518.0</ele><time>2026-04-07T09:23:15.922Z</time></trkpt><trkpt lat="44.1814171" lon="10.291248"><ele>518.8571428571429</ele><time>2026-04-07T09:23:17.937Z</time></trkpt><trkpt lat="44.181451" lon="10.2911587"><ele>519.7142857142858</ele><time>2026-04-07T09:23:22.926Z</time></trkpt><trkpt lat="44.1815093" lon="10.2911078"><ele>520.5714285714286</ele><time>2026-04-07T09:23:27.927Z</time></trkpt><trkpt lat="44.181575" lon="10.2910793"><ele>521.4285714285714</ele><time>2026-04-07T09:23:31.924Z</time></trkpt><trkpt lat="44.1816173" lon="10.2909922"><ele>522.2857142857143</ele><time>2026-04-07T09:23:36.92Z</time></trkpt><trkpt lat="44.1816853" lon="10.2909339"><ele>523.1428571428571</ele><time>2026-04-07T09:23:40.926Z</time></trkpt><trkpt lat="44.1817551" lon="10.2909068"><ele>524.0</ele><time>2026-04-07T09:23:44.926Z</time></trkpt><trkpt lat="44.1818239" lon="10.2908541"><ele>524.8</ele><time>2026-04-07T09:23:48.938Z</time></trkpt><trkpt lat="44.1818444" lon="10.2907705"><ele>525.5999999999999</ele><time>2026-04-07T09:23:50.928Z</time></trkpt><trkpt lat="44.1819112" lon="10.2906528"><ele>526.4</ele><time>2026-04-07T09:23:52.925Z</time></trkpt><trkpt lat="44.1820104" lon="10.2905571"><ele>527.1999999999999</ele><time>2026-04-07T09:23:54.928Z</time></trkpt><trkpt lat="44.1821081" lon="10.2904646"><ele>528.0</ele><time>2026-04-07T09:23:56.917Z</time></trkpt><trkpt lat="44.182208" lon="10.2903853"><ele>528.0</ele><time>2026-04-07T09:23:58.935Z</time></trkpt><trkpt lat="44.1823218" lon="10.2903483"><ele>528.0</ele><time>2026-04-07T09:24:00.922Z</time></trkpt><trkpt lat="44.1823791" lon="10.2903047"><ele>528.0</ele><time>2026-04-07T09:24:04.943Z</time></trkpt><trkpt lat="44.1824532" lon="10.2902763"><ele>528.0</ele><time>2026-04-07T09:24:08.922Z</time></trkpt><trkpt lat="44.1825154" lon="10.2902607"><ele>528.0</ele><time>2026-04-07T09:24:12.935Z</time></trkpt><trkpt lat="44.1825755" lon="10.2902121"><ele>528.0</ele><time>2026-04-07T09:24:17.916Z</time></trkpt><trkpt lat="44.1826215" lon="10.2901422"><ele>524.5714285714286</ele><time>2026-04-07T09:24:23.925Z</time></trkpt><trkpt lat="44.1826776" lon="10.2900806"><ele>521.1428571428571</ele><time>2026-04-07T09:24:28.921Z</time></trkpt><trkpt lat="44.1827354" lon="10.2900284"><ele>517.7142857142858</ele><time>2026-04-07T09:24:33.932Z</time></trkpt><trkpt lat="44.182796" lon="10.2899764"><ele>514.2857142857142</ele><time>2026-04-07T09:24:38.923Z</time></trkpt><trkpt lat="44.1827967" lon="10.2898838"><ele>510.8571428571429</ele><time>2026-04-07T09:24:44.918Z</time></trkpt><trkpt lat="44.182736" lon="10.2898321"><ele>507.42857142857144</ele><time>2026-04-07T09:24:47.92Z</time></trkpt><trkpt lat="44.1826686" lon="10.2897919"><ele>504.0</ele><time>2026-04-07T09:24:53.93Z</time></trkpt><trkpt lat="44.182615" lon="10.2898535"><ele>504.0</ele><time>2026-04-07T09:24:56.93Z</time></trkpt><trkpt lat="44.1825614" lon="10.2899244"><ele>504.0</ele><time>2026-04-07T09:25:00.932Z</time></trkpt><trkpt lat="44.1826082" lon="10.2898577"><ele>504.0</ele><time>2026-04-07T09:25:06.915Z</time></trkpt><trkpt lat="44.1826855" lon="10.2897942"><ele>504.0</ele><time>2026-04-07T09:25:09.939Z</time></trkpt><trkpt lat="44.1827333" lon="10.289733"><ele>504.0</ele><time>2026-04-07T09:25:11.93Z</time></trkpt><trkpt lat="44.18275" lon="10.2896065"><ele>504.0</ele><time>2026-04-07T09:25:13.922Z</time></trkpt><trkpt lat="44.1827694" lon="10.2894395"><ele>503.2857142857143</ele><time>2026-04-07T09:25:15.929Z</time></trkpt><trkpt lat="44.182777" lon="10.2893444"><ele>502.57142857142856</ele><time>2026-04-07T09:25:16.932Z</time></trkpt><trkpt lat="44.182766" lon="10.289253"><ele>501.8571428571429</ele><time>2026-04-07T09:25:17.941Z</time></trkpt><trkpt lat="44.1827777" lon="10.2891069"><ele>501.14285714285717</ele><time>2026-04-07T09:25:19.932Z</time></trkpt><trkpt lat="44.1828124" lon="10.289033"><ele>500.42857142857144</ele><time>2026-04-07T09:25:22.915Z</time></trkpt><trkpt lat="44.182874" lon="10.288973"><ele>499.7142857142858</ele><time>2026-04-07T09:25:27.923Z</time></trkpt><trkpt lat="44.1829378" lon="10.2889314"><ele>499.00000000000006</ele><time>2026-04-07T09:25:32.915Z</time></trkpt><trkpt lat="44.1830052" lon="10.2888808"><ele>498.50000000000006</ele><time>2026-04-07T09:25:39.934Z</time></trkpt><trkpt lat="44.1830637" lon="10.2887879"><ele>498.0</ele><time>2026-04-07T09:25:41.925Z</time></trkpt><trkpt lat="44.1830964" lon="10.2887117"><ele>497.5</ele><time>2026-04-07T09:25:42.925Z</time></trkpt><trkpt lat="44.1831291" lon="10.2886323"><ele>497.0</ele><time>2026-04-07T09:25:43.927Z</time></trkpt><trkpt lat="44.183175" lon="10.2884903"><ele>496.50000000000006</ele><time>2026-04-07T09:25:45.948Z</time></trkpt><trkpt lat="44.1832159" lon="10.2883607"><ele>496.0</ele><time>2026-04-07T09:25:47.93Z</time></trkpt><trkpt lat="44.1832553" lon="10.2882466"><ele>497.33333333333337</ele><time>2026-04-07T09:25:49.936Z</time></trkpt><trkpt lat="44.1832828" lon="10.2881517"><ele>498.6666666666667</ele><time>2026-04-07T09:25:51.921Z</time></trkpt><trkpt lat="44.1833202" lon="10.2880475"><ele>500.0</ele><time>2026-04-07T09:25:54.938Z</time></trkpt><trkpt lat="44.1833405" lon="10.2879533"><ele>501.33333333333337</ele><time>2026-04-07T09:25:58.927Z</time></trkpt><trkpt lat="44.1833699" lon="10.287853"><ele>502.6666666666667</ele><time>2026-04-07T09:26:02.918Z</time></trkpt><trkpt lat="44.1833982" lon="10.2877724"><ele>504.0</ele><time>2026-04-07T09:26:05.929Z</time></trkpt><trkpt lat="44.1834357" lon="10.2876707"><ele>504.0</ele><time>2026-04-07T09:26:09.93Z</time></trkpt><trkpt lat="44.1834591" lon="10.2875866"><ele>504.0</ele><time>2026-04-07T09:26:12.927Z</time></trkpt><trkpt lat="44.1834821" lon="10.287504"><ele>504.0</ele><time>2026-04-07T09:26:15.935Z</time></trkpt><trkpt lat="44.183508" lon="10.2874214"><ele>504.0</ele><time>2026-04-07T09:26:18.925Z</time></trkpt><trkpt lat="44.1835368" lon="10.2873421"><ele>504.0</ele><time>2026-04-07T09:26:21.923Z</time></trkpt><trkpt lat="44.1835651" lon="10.2872597"><ele>504.0</ele><time>2026-04-07T09:26:24.926Z</time></trkpt><trkpt lat="44.1835875" lon="10.2871737"><ele>504.0</ele><time>2026-04-07T09:26:27.925Z</time></trkpt><trkpt lat="44.1836094" lon="10.2870632"><ele>503.7142857142857</ele><time>2026-04-07T09:26:31.922Z</time></trkpt><trkpt lat="44.1836308" lon="10.2869752"><ele>503.42857142857144</ele><time>2026-04-07T09:26:34.926Z</time></trkpt><trkpt lat="44.1836635" lon="10.2868969"><ele>503.1428571428571</ele><time>2026-04-07T09:26:37.937Z</time></trkpt><trkpt lat="44.1836909" lon="10.2868122"><ele>502.85714285714283</ele><time>2026-04-07T09:26:40.929Z</time></trkpt><trkpt lat="44.1837267" lon="10.2867171"><ele>502.57142857142856</ele><time>2026-04-07T09:26:44.928Z</time></trkpt><trkpt lat="44.1837574" lon="10.2866134"><ele>502.2857142857142</ele><time>2026-04-07T09:26:48.935Z</time></trkpt><trkpt lat="44.1837842" lon="10.2865033"><ele>501.99999999999994</ele><time>2026-04-07T09:26:52.926Z</time></trkpt><trkpt lat="44.1838111" lon="10.2864234"><ele>501.5714285714285</ele><time>2026-04-07T09:26:55.923Z</time></trkpt><trkpt lat="44.1838576" lon="10.2863284"><ele>501.1428571428571</ele><time>2026-04-07T09:26:59.928Z</time></trkpt><trkpt lat="44.1839005" lon="10.2862623"><ele>500.7142857142857</ele><time>2026-04-07T09:27:02.913Z</time></trkpt><trkpt lat="44.1839481" lon="10.2861988"><ele>500.2857142857143</ele><time>2026-04-07T09:27:05.932Z</time></trkpt><trkpt lat="44.1839969" lon="10.2861423"><ele>499.8571428571429</ele><time>2026-04-07T09:27:08.926Z</time></trkpt><trkpt lat="44.1840428" lon="10.286079"><ele>499.4285714285715</ele><time>2026-04-07T09:27:11.929Z</time></trkpt><trkpt lat="44.1840894" lon="10.2860163"><ele>499.00000000000006</ele><time>2026-04-07T09:27:14.921Z</time></trkpt><trkpt lat="44.184149" lon="10.2859376"><ele>499.4285714285715</ele><time>2026-04-07T09:27:18.916Z</time></trkpt><trkpt lat="44.1842138" lon="10.2858644"><ele>499.8571428571429</ele><time>2026-04-07T09:27:22.916Z</time></trkpt><trkpt lat="44.1842687" lon="10.2858192"><ele>500.2857142857143</ele><time>2026-04-07T09:27:25.93Z</time></trkpt><trkpt lat="44.1843172" lon="10.2857619"><ele>500.7142857142857</ele><time>2026-04-07T09:27:28.925Z</time></trkpt><trkpt lat="44.1843794" lon="10.2856813"><ele>501.1428571428571</ele><time>2026-04-07T09:27:32.919Z</time></trkpt><trkpt lat="44.1844331" lon="10.2856277"><ele>501.5714285714285</ele><time>2026-04-07T09:27:35.926Z</time></trkpt><trkpt lat="44.1844956" lon="10.285559"><ele>501.99999999999994</ele><time>2026-04-07T09:27:39.923Z</time></trkpt><trkpt lat="44.1845746" lon="10.2855219"><ele>501.99999999999994</ele><time>2026-04-07T09:27:43.934Z</time></trkpt><trkpt lat="44.1846336" lon="10.2854742"><ele>502.0</ele><time>2026-04-07T09:27:46.929Z</time></trkpt><trkpt lat="44.1847017" lon="10.2854475"><ele>501.99999999999994</ele><time>2026-04-07T09:27:49.933Z</time></trkpt><trkpt lat="44.1847697" lon="10.2854192"><ele>501.99999999999994</ele><time>2026-04-07T09:27:52.931Z</time></trkpt><trkpt lat="44.184832" lon="10.2853723"><ele>502.0</ele><time>2026-04-07T09:27:55.917Z</time></trkpt><trkpt lat="44.1849073" lon="10.285319"><ele>501.99999999999994</ele><time>2026-04-07T09:27:59.928Z</time></trkpt><trkpt lat="44.1849772" lon="10.285259"><ele>501.99999999999994</ele><time>2026-04-07T09:28:03.917Z</time></trkpt><trkpt lat="44.1850428" lon="10.2851947"><ele>502.8571428571428</ele><time>2026-04-07T09:28:07.931Z</time></trkpt><trkpt lat="44.1850933" lon="10.285134"><ele>503.71428571428567</ele><time>2026-04-07T09:28:10.933Z</time></trkpt><trkpt lat="44.1851524" lon="10.2850586"><ele>504.57142857142856</ele><time>2026-04-07T09:28:14.918Z</time></trkpt><trkpt lat="44.1851982" lon="10.2849923"><ele>505.4285714285714</ele><time>2026-04-07T09:28:17.922Z</time></trkpt><trkpt lat="44.1852483" lon="10.2849351"><ele>506.2857142857142</ele><time>2026-04-07T09:28:20.937Z</time></trkpt><trkpt lat="44.1853125" lon="10.284876"><ele>507.14285714285717</ele><time>2026-04-07T09:28:24.921Z</time></trkpt><trkpt lat="44.1853627" lon="10.2848184"><ele>508.0</ele><time>2026-04-07T09:28:28.928Z</time></trkpt><trkpt lat="44.1854151" lon="10.2847556"><ele>508.0</ele><time>2026-04-07T09:28:32.923Z</time></trkpt><trkpt lat="44.1854815" lon="10.2846856"><ele>508.0</ele><time>2026-04-07T09:28:36.926Z</time></trkpt><trkpt lat="44.185528" lon="10.2846231"><ele>508.0</ele><time>2026-04-07T09:28:39.932Z</time></trkpt><trkpt lat="44.1855675" lon="10.2845523"><ele>508.0</ele><time>2026-04-07T09:28:42.936Z</time></trkpt><trkpt lat="44.185596" lon="10.2844682"><ele>508.0</ele><time>2026-04-07T09:28:45.92Z</time></trkpt><trkpt lat="44.1856212" lon="10.2843751"><ele>508.0</ele><time>2026-04-07T09:28:48.916Z</time></trkpt><trkpt lat="44.185649" lon="10.284287"><ele>508.0</ele><time>2026-04-07T09:28:51.926Z</time></trkpt><trkpt lat="44.1856754" lon="10.2842008"><ele>509.14285714285717</ele><time>2026-04-07T09:28:54.93Z</time></trkpt><trkpt lat="44.1856907" lon="10.2841098"><ele>510.2857142857142</ele><time>2026-04-07T09:28:57.935Z</time></trkpt><trkpt lat="44.1857066" lon="10.2840159"><ele>511.4285714285714</ele><time>2026-04-07T09:29:00.919Z</time></trkpt><trkpt lat="44.1857203" lon="10.2839243"><ele>512.5714285714286</ele><time>2026-04-07T09:29:03.919Z</time></trkpt><trkpt lat="44.1857322" lon="10.2838351"><ele>513.7142857142857</ele><time>2026-04-07T09:29:06.924Z</time></trkpt><trkpt lat="44.1857558" lon="10.2837496"><ele>514.8571428571428</ele><time>2026-04-07T09:29:09.922Z</time></trkpt><trkpt lat="44.185778" lon="10.2836664"><ele>516.0</ele><time>2026-04-07T09:29:12.932Z</time></trkpt><trkpt lat="44.185801" lon="10.2835827"><ele>515.9999999999999</ele><time>2026-04-07T09:29:15.929Z</time></trkpt><trkpt lat="44.1858258" lon="10.2834982"><ele>516.0</ele><time>2026-04-07T09:29:18.938Z</time></trkpt><trkpt lat="44.185848" lon="10.2833986"><ele>516.0</ele><time>2026-04-07T09:29:22.931Z</time></trkpt><trkpt lat="44.1858862" lon="10.2832925"><ele>516.0</ele><time>2026-04-07T09:29:26.919Z</time></trkpt><trkpt lat="44.1859277" lon="10.283219"><ele>516.0</ele><time>2026-04-07T09:29:29.919Z</time></trkpt><trkpt lat="44.1859711" lon="10.283145"><ele>515.9999999999999</ele><time>2026-04-07T09:29:32.924Z</time></trkpt><trkpt lat="44.1860128" lon="10.2830787"><ele>516.0</ele><time>2026-04-07T09:29:35.922Z</time></trkpt><trkpt lat="44.1860741" lon="10.2830045"><ele>515.5714285714286</ele><time>2026-04-07T09:29:39.917Z</time></trkpt><trkpt lat="44.1861199" lon="10.282944"><ele>515.1428571428571</ele><time>2026-04-07T09:29:42.925Z</time></trkpt><trkpt lat="44.1861832" lon="10.2828753"><ele>514.7142857142858</ele><time>2026-04-07T09:29:46.917Z</time></trkpt><trkpt lat="44.1862494" lon="10.2828084"><ele>514.2857142857142</ele><time>2026-04-07T09:29:50.931Z</time></trkpt><trkpt lat="44.186317" lon="10.2827468"><ele>513.8571428571429</ele><time>2026-04-07T09:29:54.93Z</time></trkpt><trkpt lat="44.1863727" lon="10.2827058"><ele>513.4285714285714</ele><time>2026-04-07T09:29:57.929Z</time></trkpt><trkpt lat="44.1864323" lon="10.2826697"><ele>513.0</ele><time>2026-04-07T09:30:00.933Z</time></trkpt><trkpt lat="44.1864895" lon="10.2826303"><ele>514.2857142857143</ele><time>2026-04-07T09:30:03.921Z</time></trkpt><trkpt lat="44.1865613" lon="10.2825684"><ele>515.5714285714286</ele><time>2026-04-07T09:30:07.917Z</time></trkpt><trkpt lat="44.1866199" lon="10.2825309"><ele>516.8571428571429</ele><time>2026-04-07T09:30:10.934Z</time></trkpt><trkpt lat="44.1866782" lon="10.2824947"><ele>518.1428571428571</ele><time>2026-04-07T09:30:13.926Z</time></trkpt><trkpt lat="44.1867477" lon="10.2824405"><ele>519.4285714285714</ele><time>2026-04-07T09:30:17.921Z</time></trkpt><trkpt lat="44.1868199" lon="10.2824077"><ele>520.7142857142858</ele><time>2026-04-07T09:30:22.923Z</time></trkpt><trkpt lat="44.1868831" lon="10.2823983"><ele>522.0</ele><time>2026-04-07T09:30:26.93Z</time></trkpt><trkpt lat="44.1869467" lon="10.2823774"><ele>522.0</ele><time>2026-04-07T09:30:30.918Z</time></trkpt><trkpt lat="44.1869957" lon="10.2823221"><ele>522.0</ele><time>2026-04-07T09:30:33.932Z</time></trkpt><trkpt lat="44.1870371" lon="10.2822403"><ele>522.0</ele><time>2026-04-07T09:30:36.923Z</time></trkpt><trkpt lat="44.1870695" lon="10.2821354"><ele>522.0</ele><time>2026-04-07T09:30:40.927Z</time></trkpt><trkpt lat="44.1870691" lon="10.2820238"><ele>522.0</ele><time>2026-04-07T09:30:44.925Z</time></trkpt><trkpt lat="44.1870362" lon="10.2819176"><ele>522.0</ele><time>2026-04-07T09:30:48.928Z</time></trkpt><trkpt lat="44.1869837" lon="10.281827"><ele>521.4285714285714</ele><time>2026-04-07T09:30:51.926Z</time></trkpt><trkpt lat="44.1869334" lon="10.2817425"><ele>520.8571428571429</ele><time>2026-04-07T09:30:54.923Z</time></trkpt><trkpt lat="44.1868879" lon="10.2816628"><ele>520.2857142857142</ele><time>2026-04-07T09:30:57.923Z</time></trkpt><trkpt lat="44.1868415" lon="10.281595"><ele>519.7142857142858</ele><time>2026-04-07T09:31:00.923Z</time></trkpt><trkpt lat="44.1867932" lon="10.2815278"><ele>519.1428571428571</ele><time>2026-04-07T09:31:03.922Z</time></trkpt><trkpt lat="44.1867437" lon="10.2814597"><ele>518.5714285714286</ele><time>2026-04-07T09:31:06.917Z</time></trkpt><trkpt lat="44.1866949" lon="10.2813951"><ele>518.0</ele><time>2026-04-07T09:31:09.928Z</time></trkpt><trkpt lat="44.186629" lon="10.281326"><ele>519.2857142857143</ele><time>2026-04-07T09:31:13.918Z</time></trkpt><trkpt lat="44.1865521" lon="10.281295"><ele>520.5714285714286</ele><time>2026-04-07T09:31:17.918Z</time></trkpt><trkpt lat="44.1864878" lon="10.2812833"><ele>521.8571428571429</ele><time>2026-04-07T09:31:20.919Z</time></trkpt><trkpt lat="44.1864266" lon="10.2812622"><ele>523.1428571428571</ele><time>2026-04-07T09:31:23.919Z</time></trkpt><trkpt lat="44.1863422" lon="10.281262"><ele>524.4285714285714</ele><time>2026-04-07T09:31:27.917Z</time></trkpt><trkpt lat="44.1862747" lon="10.2812778"><ele>525.7142857142858</ele><time>2026-04-07T09:31:30.925Z</time></trkpt><trkpt lat="44.1862123" lon="10.2812959"><ele>527.0</ele><time>2026-04-07T09:31:33.932Z</time></trkpt><trkpt lat="44.1861351" lon="10.2813277"><ele>526.0</ele><time>2026-04-07T09:31:37.944Z</time></trkpt><trkpt lat="44.186056" lon="10.2813525"><ele>525.0</ele><time>2026-04-07T09:31:41.918Z</time></trkpt><trkpt lat="44.1859945" lon="10.2813735"><ele>524.0</ele><time>2026-04-07T09:31:44.914Z</time></trkpt><trkpt lat="44.1859159" lon="10.2814062"><ele>523.0</ele><time>2026-04-07T09:31:48.933Z</time></trkpt><trkpt lat="44.1858369" lon="10.2814331"><ele>522.0</ele><time>2026-04-07T09:31:52.941Z</time></trkpt><trkpt lat="44.1857578" lon="10.2814624"><ele>521.0</ele><time>2026-04-07T09:31:56.921Z</time></trkpt><trkpt lat="44.1856953" lon="10.2814772"><ele>522.5</ele><time>2026-04-07T09:31:59.926Z</time></trkpt><trkpt lat="44.1856191" lon="10.2814987"><ele>524.0</ele><time>2026-04-07T09:32:03.921Z</time></trkpt><trkpt lat="44.1855374" lon="10.281514"><ele>525.5</ele><time>2026-04-07T09:32:07.925Z</time></trkpt><trkpt lat="44.1854569" lon="10.2815331"><ele>527.0</ele><time>2026-04-07T09:32:11.915Z</time></trkpt><trkpt lat="44.1853793" lon="10.2815642"><ele>528.5</ele><time>2026-04-07T09:32:15.942Z</time></trkpt><trkpt lat="44.1852979" lon="10.2815907"><ele>530.0</ele><time>2026-04-07T09:32:19.931Z</time></trkpt><trkpt lat="44.1852158" lon="10.281614"><ele>530.0</ele><time>2026-04-07T09:32:23.938Z</time></trkpt><trkpt lat="44.1851509" lon="10.281612"><ele>530.0</ele><time>2026-04-07T09:32:26.943Z</time></trkpt><trkpt lat="44.185075" lon="10.2815788"><ele>530.0</ele><time>2026-04-07T09:32:30.925Z</time></trkpt><trkpt lat="44.1850089" lon="10.281508"><ele>530.0</ele><time>2026-04-07T09:32:34.923Z</time></trkpt><trkpt lat="44.1849627" lon="10.2814097"><ele>530.0</ele><time>2026-04-07T09:32:38.933Z</time></trkpt><trkpt lat="44.184941" lon="10.2813044"><ele>530.0</ele><time>2026-04-07T09:32:42.941Z</time></trkpt><trkpt lat="44.1849464" lon="10.2811886"><ele>531.5714285714286</ele><time>2026-04-07T09:32:46.927Z</time></trkpt><trkpt lat="44.18495" lon="10.2810889"><ele>533.1428571428571</ele><time>2026-04-07T09:32:49.932Z</time></trkpt><trkpt lat="44.1849499" lon="10.2809989"><ele>534.7142857142858</ele><time>2026-04-07T09:32:52.939Z</time></trkpt><trkpt lat="44.1849565" lon="10.2808824"><ele>536.2857142857142</ele><time>2026-04-07T09:32:56.944Z</time></trkpt><trkpt lat="44.1849711" lon="10.2807691"><ele>537.8571428571429</ele><time>2026-04-07T09:33:00.928Z</time></trkpt><trkpt lat="44.1849698" lon="10.2806558"><ele>539.4285714285714</ele><time>2026-04-07T09:33:04.917Z</time></trkpt><trkpt lat="44.1849568" lon="10.2805667"><ele>541.0</ele><time>2026-04-07T09:33:07.928Z</time></trkpt><trkpt lat="44.1849289" lon="10.2804855"><ele>542.0000000000001</ele><time>2026-04-07T09:33:10.923Z</time></trkpt><trkpt lat="44.1848716" lon="10.2804054"><ele>543.0</ele><time>2026-04-07T09:33:14.925Z</time></trkpt><trkpt lat="44.1848237" lon="10.2803462"><ele>544.0</ele><time>2026-04-07T09:33:17.927Z</time></trkpt><trkpt lat="44.1847689" lon="10.2803012"><ele>545.0</ele><time>2026-04-07T09:33:20.927Z</time></trkpt><trkpt lat="44.1846994" lon="10.2802378"><ele>546.0</ele><time>2026-04-07T09:33:24.928Z</time></trkpt><trkpt lat="44.1846309" lon="10.2801691"><ele>547.0000000000001</ele><time>2026-04-07T09:33:28.928Z</time></trkpt><trkpt lat="44.1845794" lon="10.2801142"><ele>548.0</ele><time>2026-04-07T09:33:31.92Z</time></trkpt><trkpt lat="44.1845259" lon="10.280064"><ele>548.0000000000001</ele><time>2026-04-07T09:33:34.917Z</time></trkpt><trkpt lat="44.1844586" lon="10.2799965"><ele>548.0</ele><time>2026-04-07T09:33:38.911Z</time></trkpt><trkpt lat="44.1844051" lon="10.2799433"><ele>548.0</ele><time>2026-04-07T09:33:41.925Z</time></trkpt><trkpt lat="44.1843374" lon="10.2798835"><ele>548.0</ele><time>2026-04-07T09:33:45.917Z</time></trkpt><trkpt lat="44.1842803" lon="10.2798411"><ele>548.0</ele><time>2026-04-07T09:33:48.915Z</time></trkpt><trkpt lat="44.184212" lon="10.2797776"><ele>548.0000000000001</ele><time>2026-04-07T09:33:52.921Z</time></trkpt><trkpt lat="44.1841598" lon="10.2797284"><ele>548.0</ele><time>2026-04-07T09:33:55.91Z</time></trkpt><trkpt lat="44.1841049" lon="10.2796852"><ele>550.0</ele><time>2026-04-07T09:33:58.919Z</time></trkpt><trkpt lat="44.1840403" lon="10.2796553"><ele>552.0</ele><time>2026-04-07T09:34:01.912Z</time></trkpt><trkpt lat="44.1839716" lon="10.2796407"><ele>554.0</ele><time>2026-04-07T09:34:04.92Z</time></trkpt><trkpt lat="44.1838977" lon="10.2796631"><ele>556.0</ele><time>2026-04-07T09:34:07.925Z</time></trkpt><trkpt lat="44.1838256" lon="10.2797149"><ele>558.0</ele><time>2026-04-07T09:34:10.922Z</time></trkpt><trkpt lat="44.1837619" lon="10.2797846"><ele>560.0</ele><time>2026-04-07T09:34:13.926Z</time></trkpt><trkpt lat="44.1837013" lon="10.2798539"><ele>560.5</ele><time>2026-04-07T09:34:16.932Z</time></trkpt><trkpt lat="44.1836329" lon="10.2799168"><ele>561.0</ele><time>2026-04-07T09:34:19.924Z</time></trkpt><trkpt lat="44.1835662" lon="10.2799742"><ele>561.5</ele><time>2026-04-07T09:34:22.929Z</time></trkpt><trkpt lat="44.1834977" lon="10.2800186"><ele>562.0</ele><time>2026-04-07T09:34:25.928Z</time></trkpt><trkpt lat="44.1834373" lon="10.2800687"><ele>562.5</ele><time>2026-04-07T09:34:28.929Z</time></trkpt><trkpt lat="44.1833719" lon="10.2801246"><ele>563.0</ele><time>2026-04-07T09:34:31.922Z</time></trkpt><trkpt lat="44.183305" lon="10.2801885"><ele>563.0</ele><time>2026-04-07T09:34:34.943Z</time></trkpt><trkpt lat="44.1832363" lon="10.2802456"><ele>563.0</ele><time>2026-04-07T09:34:37.926Z</time></trkpt><trkpt lat="44.1831735" lon="10.2803018"><ele>563.0</ele><time>2026-04-07T09:34:40.933Z</time></trkpt><trkpt lat="44.1831076" lon="10.2803637"><ele>563.0</ele><time>2026-04-07T09:34:43.928Z</time></trkpt><trkpt lat="44.1830388" lon="10.2804297"><ele>563.0</ele><time>2026-04-07T09:34:47.927Z</time></trkpt><trkpt lat="44.1829766" lon="10.2804916"><ele>563.0</ele><time>2026-04-07T09:34:50.93Z</time></trkpt><trkpt lat="44.1829097" lon="10.2805564"><ele>562.3333333333333</ele><time>2026-04-07T09:34:53.916Z</time></trkpt><trkpt lat="44.1828464" lon="10.2806257"><ele>561.6666666666666</ele><time>2026-04-07T09:34:56.914Z</time></trkpt><trkpt lat="44.1827867" lon="10.2806975"><ele>561.0</ele><time>2026-04-07T09:34:59.918Z</time></trkpt><trkpt lat="44.1827186" lon="10.2807458"><ele>560.3333333333334</ele><time>2026-04-07T09:35:02.922Z</time></trkpt><trkpt lat="44.1826474" lon="10.2807956"><ele>559.6666666666667</ele><time>2026-04-07T09:35:05.911Z</time></trkpt><trkpt lat="44.1825771" lon="10.2808369"><ele>559.0</ele><time>2026-04-07T09:35:08.931Z</time></trkpt><trkpt lat="44.1824999" lon="10.2808644"><ele>559.0</ele><time>2026-04-07T09:35:11.923Z</time></trkpt><trkpt lat="44.18243" lon="10.2808854"><ele>559.0</ele><time>2026-04-07T09:35:14.917Z</time></trkpt><trkpt lat="44.1823565" lon="10.2809093"><ele>559.0</ele><time>2026-04-07T09:35:17.931Z</time></trkpt><trkpt lat="44.1822844" lon="10.2809277"><ele>559.0</ele><time>2026-04-07T09:35:20.913Z</time></trkpt><trkpt lat="44.1822137" lon="10.2809464"><ele>559.0</ele><time>2026-04-07T09:35:23.915Z</time></trkpt><trkpt lat="44.1821418" lon="10.2809616"><ele>559.0</ele><time>2026-04-07T09:35:26.92Z</time></trkpt><trkpt lat="44.1820645" lon="10.2809622"><ele>559.0</ele><time>2026-04-07T09:35:29.939Z</time></trkpt><trkpt lat="44.1819905" lon="10.2809321"><ele>560.0</ele><time>2026-04-07T09:35:32.916Z</time></trkpt><trkpt lat="44.1819217" lon="10.2808723"><ele>561.0</ele><time>2026-04-07T09:35:35.927Z</time></trkpt><trkpt lat="44.1818652" lon="10.2807951"><ele>562.0</ele><time>2026-04-07T09:35:38.916Z</time></trkpt><trkpt lat="44.1818086" lon="10.2807188"><ele>563.0</ele><time>2026-04-07T09:35:41.914Z</time></trkpt><trkpt lat="44.1817579" lon="10.2806432"><ele>564.0</ele><time>2026-04-07T09:35:44.923Z</time></trkpt><trkpt lat="44.1817033" lon="10.280567"><ele>565.0</ele><time>2026-04-07T09:35:47.941Z</time></trkpt><trkpt lat="44.1816314" lon="10.2805195"><ele>564.8333333333334</ele><time>2026-04-07T09:35:50.93Z</time></trkpt><trkpt lat="44.1815485" lon="10.2805193"><ele>564.6666666666667</ele><time>2026-04-07T09:35:53.926Z</time></trkpt><trkpt lat="44.1814729" lon="10.2805578"><ele>564.5</ele><time>2026-04-07T09:35:56.916Z</time></trkpt><trkpt lat="44.1814021" lon="10.280614"><ele>564.3333333333334</ele><time>2026-04-07T09:35:59.932Z</time></trkpt><trkpt lat="44.1813296" lon="10.2806576"><ele>564.1666666666666</ele><time>2026-04-07T09:36:02.93Z</time></trkpt><trkpt lat="44.1812607" lon="10.2807132"><ele>564.0</ele><time>2026-04-07T09:36:05.925Z</time></trkpt><trkpt lat="44.1811886" lon="10.2807388"><ele>564.0</ele><time>2026-04-07T09:36:08.919Z</time></trkpt><trkpt lat="44.1811161" lon="10.280729"><ele>564.0</ele><time>2026-04-07T09:36:11.916Z</time></trkpt><trkpt lat="44.1810513" lon="10.2806906"><ele>564.0</ele><time>2026-04-07T09:36:14.935Z</time></trkpt><trkpt lat="44.1809837" lon="10.2806313"><ele>564.0</ele><time>2026-04-07T09:36:17.926Z</time></trkpt><trkpt lat="44.1809197" lon="10.2805658"><ele>564.0</ele><time>2026-04-07T09:36:20.934Z</time></trkpt><trkpt lat="44.1808617" lon="10.2804928"><ele>564.0</ele><time>2026-04-07T09:36:23.934Z</time></trkpt><trkpt lat="44.180821" lon="10.2804058"><ele>566.8333333333334</ele><time>2026-04-07T09:36:26.935Z</time></trkpt><trkpt lat="44.1807828" lon="10.2803148"><ele>569.6666666666666</ele><time>2026-04-07T09:36:29.919Z</time></trkpt><trkpt lat="44.180759" lon="10.2802108"><ele>572.5</ele><time>2026-04-07T09:36:32.94Z</time></trkpt><trkpt lat="44.1807405" lon="10.2801064"><ele>575.3333333333333</ele><time>2026-04-07T09:36:35.931Z</time></trkpt><trkpt lat="44.1807175" lon="10.280003"><ele>578.1666666666666</ele><time>2026-04-07T09:36:38.937Z</time></trkpt><trkpt lat="44.1806922" lon="10.2799026"><ele>581.0</ele><time>2026-04-07T09:36:41.927Z</time></trkpt><trkpt lat="44.1806629" lon="10.2798026"><ele>581.0</ele><time>2026-04-07T09:36:44.939Z</time></trkpt><trkpt lat="44.1806217" lon="10.2797131"><ele>581.0</ele><time>2026-04-07T09:36:47.919Z</time></trkpt><trkpt lat="44.1805677" lon="10.2796407"><ele>581.0</ele><time>2026-04-07T09:36:50.92Z</time></trkpt><trkpt lat="44.1805081" lon="10.2795766"><ele>581.0</ele><time>2026-04-07T09:36:53.929Z</time></trkpt><trkpt lat="44.1804433" lon="10.2795227"><ele>581.0</ele><time>2026-04-07T09:36:56.922Z</time></trkpt><trkpt lat="44.1803831" lon="10.2794571"><ele>581.0</ele><time>2026-04-07T09:36:59.942Z</time></trkpt><trkpt lat="44.1803247" lon="10.2793955"><ele>581.0</ele><time>2026-04-07T09:37:02.924Z</time></trkpt><trkpt lat="44.180272" lon="10.2793194"><ele>581.0</ele><time>2026-04-07T09:37:05.931Z</time></trkpt><trkpt lat="44.1802243" lon="10.2792374"><ele>581.0</ele><time>2026-04-07T09:37:08.92Z</time></trkpt><trkpt lat="44.1801744" lon="10.2791545"><ele>581.0</ele><time>2026-04-07T09:37:11.931Z</time></trkpt><trkpt lat="44.1801324" lon="10.279065"><ele>581.0</ele><time>2026-04-07T09:37:14.927Z</time></trkpt><trkpt lat="44.1800871" lon="10.278978"><ele>581.0</ele><time>2026-04-07T09:37:17.938Z</time></trkpt><trkpt lat="44.1800429" lon="10.2788939"><ele>581.6666666666666</ele><time>2026-04-07T09:37:20.922Z</time></trkpt><trkpt lat="44.1799906" lon="10.2788084"><ele>582.3333333333333</ele><time>2026-04-07T09:37:23.916Z</time></trkpt><trkpt lat="44.1799394" lon="10.2787224"><ele>583.0</ele><time>2026-04-07T09:37:26.929Z</time></trkpt><trkpt lat="44.179893" lon="10.2786453"><ele>583.6666666666666</ele><time>2026-04-07T09:37:29.925Z</time></trkpt><trkpt lat="44.1798477" lon="10.2785646"><ele>584.3333333333334</ele><time>2026-04-07T09:37:32.92Z</time></trkpt><trkpt lat="44.1798059" lon="10.2784795"><ele>585.0</ele><time>2026-04-07T09:37:35.939Z</time></trkpt><trkpt lat="44.1797571" lon="10.2783915"><ele>584.3333333333334</ele><time>2026-04-07T09:37:38.928Z</time></trkpt><trkpt lat="44.179708" lon="10.2783001"><ele>583.6666666666666</ele><time>2026-04-07T09:37:41.928Z</time></trkpt><trkpt lat="44.179664" lon="10.2782096"><ele>583.0</ele><time>2026-04-07T09:37:44.917Z</time></trkpt><trkpt lat="44.1796217" lon="10.2781216"><ele>582.3333333333333</ele><time>2026-04-07T09:37:47.913Z</time></trkpt><trkpt lat="44.179575" lon="10.278035"><ele>581.6666666666666</ele><time>2026-04-07T09:37:50.922Z</time></trkpt><trkpt lat="44.1795282" lon="10.277948"><ele>581.0</ele><time>2026-04-07T09:37:53.938Z</time></trkpt><trkpt lat="44.1794761" lon="10.2778665"><ele>581.0</ele><time>2026-04-07T09:37:56.926Z</time></trkpt><trkpt lat="44.1794249" lon="10.2777806"><ele>581.0</ele><time>2026-04-07T09:37:59.925Z</time></trkpt><trkpt lat="44.1793776" lon="10.2776876"><ele>581.0</ele><time>2026-04-07T09:38:02.926Z</time></trkpt><trkpt lat="44.1793278" lon="10.2775987"><ele>581.0</ele><time>2026-04-07T09:38:05.914Z</time></trkpt><trkpt lat="44.1792776" lon="10.2775146"><ele>581.0</ele><time>2026-04-07T09:38:08.933Z</time></trkpt><trkpt lat="44.1792316" lon="10.2774234"><ele>581.0</ele><time>2026-04-07T09:38:11.935Z</time></trkpt><trkpt lat="44.1791846" lon="10.2773316"><ele>581.8333333333333</ele><time>2026-04-07T09:38:14.917Z</time></trkpt><trkpt lat="44.1791358" lon="10.2772373"><ele>582.6666666666666</ele><time>2026-04-07T09:38:17.928Z</time></trkpt><trkpt lat="44.179087" lon="10.2771491"><ele>583.5</ele><time>2026-04-07T09:38:20.922Z</time></trkpt><trkpt lat="44.1790365" lon="10.2770593"><ele>584.3333333333334</ele><time>2026-04-07T09:38:23.926Z</time></trkpt><trkpt lat="44.1789852" lon="10.2769668"><ele>585.1666666666667</ele><time>2026-04-07T09:38:26.931Z</time></trkpt><trkpt lat="44.1789323" lon="10.2768739"><ele>586.0</ele><time>2026-04-07T09:38:29.93Z</time></trkpt><trkpt lat="44.1788774" lon="10.2767837"><ele>583.6666666666667</ele><time>2026-04-07T09:38:32.919Z</time></trkpt><trkpt lat="44.1788303" lon="10.2766898"><ele>581.3333333333334</ele><time>2026-04-07T09:38:35.917Z</time></trkpt><trkpt lat="44.1787853" lon="10.2765948"><ele>579.0</ele><time>2026-04-07T09:38:38.926Z</time></trkpt><trkpt lat="44.1787525" lon="10.2764839"><ele>576.6666666666666</ele><time>2026-04-07T09:38:41.937Z</time></trkpt><trkpt lat="44.1787327" lon="10.2763757"><ele>574.3333333333333</ele><time>2026-04-07T09:38:44.928Z</time></trkpt><trkpt lat="44.1787262" lon="10.2762669"><ele>572.0</ele><time>2026-04-07T09:38:47.921Z</time></trkpt><trkpt lat="44.178728" lon="10.2761531"><ele>571.8333333333333</ele><time>2026-04-07T09:38:50.931Z</time></trkpt><trkpt lat="44.1787271" lon="10.2760311"><ele>571.6666666666666</ele><time>2026-04-07T09:38:53.924Z</time></trkpt><trkpt lat="44.1787225" lon="10.2759269"><ele>571.5</ele><time>2026-04-07T09:38:56.919Z</time></trkpt><trkpt lat="44.178733" lon="10.275813"><ele>571.3333333333334</ele><time>2026-04-07T09:38:59.924Z</time></trkpt><trkpt lat="44.1787366" lon="10.2757176"><ele>571.1666666666667</ele><time>2026-04-07T09:39:02.929Z</time></trkpt><trkpt lat="44.1787377" lon="10.2756005"><ele>571.0</ele><time>2026-04-07T09:39:06.926Z</time></trkpt><trkpt lat="44.1787504" lon="10.2755009"><ele>571.0</ele><time>2026-04-07T09:39:09.924Z</time></trkpt><trkpt lat="44.1787789" lon="10.2753864"><ele>571.0</ele><time>2026-04-07T09:39:12.926Z</time></trkpt><trkpt lat="44.1788152" lon="10.2752763"><ele>571.0</ele><time>2026-04-07T09:39:15.933Z</time></trkpt><trkpt lat="44.1788639" lon="10.2751714"><ele>571.0</ele><time>2026-04-07T09:39:18.933Z</time></trkpt><trkpt lat="44.1789121" lon="10.2750729"><ele>571.0</ele><time>2026-04-07T09:39:21.931Z</time></trkpt><trkpt lat="44.1789612" lon="10.2749702"><ele>571.0</ele><time>2026-04-07T09:39:24.922Z</time></trkpt><trkpt lat="44.1790056" lon="10.2748695"><ele>573.5</ele><time>2026-04-07T09:39:27.915Z</time></trkpt><trkpt lat="44.1790499" lon="10.2747785"><ele>576.0</ele><time>2026-04-07T09:39:30.924Z</time></trkpt><trkpt lat="44.1790977" lon="10.2746862"><ele>578.5</ele><time>2026-04-07T09:39:33.925Z</time></trkpt><trkpt lat="44.1791576" lon="10.2745859"><ele>581.0</ele><time>2026-04-07T09:39:36.917Z</time></trkpt><trkpt lat="44.1792008" lon="10.2744775"><ele>583.5</ele><time>2026-04-07T09:39:39.919Z</time></trkpt><trkpt lat="44.1792519" lon="10.274373"><ele>586.0</ele><time>2026-04-07T09:39:42.929Z</time></trkpt><trkpt lat="44.1792884" lon="10.2742578"><ele>586.0</ele><time>2026-04-07T09:39:45.931Z</time></trkpt><trkpt lat="44.1793131" lon="10.2741424"><ele>586.0</ele><time>2026-04-07T09:39:48.923Z</time></trkpt><trkpt lat="44.1793262" lon="10.2740246"><ele>586.0</ele><time>2026-04-07T09:39:51.921Z</time></trkpt><trkpt lat="44.1793261" lon="10.2739113"><ele>586.0</ele><time>2026-04-07T09:39:54.926Z</time></trkpt><trkpt lat="44.1793188" lon="10.2738049"><ele>586.0</ele><time>2026-04-07T09:39:57.921Z</time></trkpt><trkpt lat="44.1793027" lon="10.2737094"><ele>586.0</ele><time>2026-04-07T09:40:00.923Z</time></trkpt><trkpt lat="44.1792877" lon="10.2736154"><ele>586.1666666666667</ele><time>2026-04-07T09:40:03.931Z</time></trkpt><trkpt lat="44.1792599" lon="10.2735117"><ele>586.3333333333334</ele><time>2026-04-07T09:40:07.915Z</time></trkpt><trkpt lat="44.1792375" lon="10.2734114"><ele>586.5</ele><time>2026-04-07T09:40:11.932Z</time></trkpt><trkpt lat="44.1792097" lon="10.273329"><ele>586.6666666666666</ele><time>2026-04-07T09:40:14.93Z</time></trkpt><trkpt lat="44.1791852" lon="10.2732199"><ele>586.8333333333333</ele><time>2026-04-07T09:40:17.917Z</time></trkpt><trkpt lat="44.1791556" lon="10.2731101"><ele>587.0</ele><time>2026-04-07T09:40:20.917Z</time></trkpt><trkpt lat="44.1791177" lon="10.2730066"><ele>587.0</ele><time>2026-04-07T09:40:23.931Z</time></trkpt><trkpt lat="44.1790818" lon="10.2729008"><ele>587.0</ele><time>2026-04-07T09:40:26.922Z</time></trkpt><trkpt lat="44.1790481" lon="10.2727861"><ele>587.0</ele><time>2026-04-07T09:40:29.926Z</time></trkpt><trkpt lat="44.1790222" lon="10.2726748"><ele>587.0</ele><time>2026-04-07T09:40:32.932Z</time></trkpt><trkpt lat="44.1789961" lon="10.2725602"><ele>587.0</ele><time>2026-04-07T09:40:35.925Z</time></trkpt><trkpt lat="44.178979" lon="10.2724434"><ele>587.0</ele><time>2026-04-07T09:40:38.923Z</time></trkpt><trkpt lat="44.1789658" lon="10.2723242"><ele>586.8333333333333</ele><time>2026-04-07T09:40:41.92Z</time></trkpt><trkpt lat="44.1789718" lon="10.2721991"><ele>586.6666666666666</ele><time>2026-04-07T09:40:44.924Z</time></trkpt><trkpt lat="44.1789883" lon="10.2720885"><ele>586.5</ele><time>2026-04-07T09:40:47.935Z</time></trkpt><trkpt lat="44.1790067" lon="10.2719933"><ele>586.3333333333334</ele><time>2026-04-07T09:40:50.925Z</time></trkpt><trkpt lat="44.1790507" lon="10.2718835"><ele>586.1666666666667</ele><time>2026-04-07T09:40:54.933Z</time></trkpt><trkpt lat="44.1790979" lon="10.2717844"><ele>586.0</ele><time>2026-04-07T09:40:57.927Z</time></trkpt><trkpt lat="44.1791411" lon="10.2716894"><ele>585.9999999999999</ele><time>2026-04-07T09:41:00.93Z</time></trkpt><trkpt lat="44.179179" lon="10.2715823"><ele>586.0</ele><time>2026-04-07T09:41:03.927Z</time></trkpt><trkpt lat="44.1792033" lon="10.2714581"><ele>586.0</ele><time>2026-04-07T09:41:06.925Z</time></trkpt><trkpt lat="44.1792072" lon="10.2713675"><ele>586.0</ele><time>2026-04-07T09:41:08.917Z</time></trkpt><trkpt lat="44.1791987" lon="10.2712771"><ele>586.0</ele><time>2026-04-07T09:41:10.92Z</time></trkpt><trkpt lat="44.1791821" lon="10.2711898"><ele>585.9999999999999</ele><time>2026-04-07T09:41:12.93Z</time></trkpt><trkpt lat="44.1791546" lon="10.2711088"><ele>586.0</ele><time>2026-04-07T09:41:14.92Z</time></trkpt><trkpt lat="44.1791203" lon="10.2710315"><ele>586.7142857142857</ele><time>2026-04-07T09:41:16.926Z</time></trkpt><trkpt lat="44.1790782" lon="10.2709616"><ele>587.4285714285714</ele><time>2026-04-07T09:41:18.924Z</time></trkpt><trkpt lat="44.1790241" lon="10.270912"><ele>588.1428571428571</ele><time>2026-04-07T09:41:20.922Z</time></trkpt><trkpt lat="44.1789615" lon="10.2708846"><ele>588.8571428571429</ele><time>2026-04-07T09:41:22.928Z</time></trkpt><trkpt lat="44.178872" lon="10.2708797"><ele>589.5714285714286</ele><time>2026-04-07T09:41:25.914Z</time></trkpt><trkpt lat="44.1787783" lon="10.2708895"><ele>590.2857142857142</ele><time>2026-04-07T09:41:28.922Z</time></trkpt><trkpt lat="44.1787086" lon="10.2708998"><ele>591.0</ele><time>2026-04-07T09:41:30.919Z</time></trkpt><trkpt lat="44.1786403" lon="10.2709272"><ele>591.0</ele><time>2026-04-07T09:41:32.93Z</time></trkpt><trkpt lat="44.1785754" lon="10.2709524"><ele>591.0</ele><time>2026-04-07T09:41:34.925Z</time></trkpt><trkpt lat="44.1784832" lon="10.2709713"><ele>591.0</ele><time>2026-04-07T09:41:37.924Z</time></trkpt><trkpt lat="44.178417" lon="10.2709729"><ele>591.0</ele><time>2026-04-07T09:41:39.927Z</time></trkpt><trkpt lat="44.1783499" lon="10.2709751"><ele>591.0</ele><time>2026-04-07T09:41:41.927Z</time></trkpt><trkpt lat="44.1782838" lon="10.2709845"><ele>591.0</ele><time>2026-04-07T09:41:43.931Z</time></trkpt><trkpt lat="44.1782188" lon="10.2709808"><ele>591.0</ele><time>2026-04-07T09:41:45.934Z</time></trkpt><trkpt lat="44.1781539" lon="10.2709776"><ele>592.8333333333334</ele><time>2026-04-07T09:41:47.929Z</time></trkpt><trkpt lat="44.1780866" lon="10.2709786"><ele>594.6666666666666</ele><time>2026-04-07T09:41:49.946Z</time></trkpt><trkpt lat="44.1780232" lon="10.2709818"><ele>596.5</ele><time>2026-04-07T09:41:51.93Z</time></trkpt><trkpt lat="44.1779292" lon="10.2709803"><ele>598.3333333333333</ele><time>2026-04-07T09:41:54.924Z</time></trkpt><trkpt lat="44.177837" lon="10.2709959"><ele>600.1666666666666</ele><time>2026-04-07T09:41:57.925Z</time></trkpt><trkpt lat="44.1777483" lon="10.2710098"><ele>602.0</ele><time>2026-04-07T09:42:00.92Z</time></trkpt><trkpt lat="44.177657" lon="10.2710248"><ele>602.0</ele><time>2026-04-07T09:42:03.922Z</time></trkpt><trkpt lat="44.1775658" lon="10.2710369"><ele>602.0</ele><time>2026-04-07T09:42:06.924Z</time></trkpt><trkpt lat="44.1775016" lon="10.2710457"><ele>602.0</ele><time>2026-04-07T09:42:08.928Z</time></trkpt><trkpt lat="44.1774387" lon="10.2710541"><ele>602.0</ele><time>2026-04-07T09:42:10.926Z</time></trkpt><trkpt lat="44.1773756" lon="10.2710658"><ele>602.0</ele><time>2026-04-07T09:42:12.928Z</time></trkpt><trkpt lat="44.1773116" lon="10.2710774"><ele>602.0</ele><time>2026-04-07T09:42:14.918Z</time></trkpt><trkpt lat="44.1772465" lon="10.2710858"><ele>602.0</ele><time>2026-04-07T09:42:16.935Z</time></trkpt><trkpt lat="44.1771815" lon="10.2710956"><ele>603.5</ele><time>2026-04-07T09:42:18.921Z</time></trkpt><trkpt lat="44.1770872" lon="10.2711121"><ele>605.0</ele><time>2026-04-07T09:42:21.934Z</time></trkpt><trkpt lat="44.1770229" lon="10.2711146"><ele>606.5</ele><time>2026-04-07T09:42:23.926Z</time></trkpt><trkpt lat="44.1769388" lon="10.2711272"><ele>608.0</ele><time>2026-04-07T09:42:26.923Z</time></trkpt><trkpt lat="44.1768493" lon="10.2711488"><ele>609.5</ele><time>2026-04-07T09:42:29.924Z</time></trkpt><trkpt lat="44.1767569" lon="10.2711873"><ele>611.0</ele><time>2026-04-07T09:42:32.931Z</time></trkpt><trkpt lat="44.1766918" lon="10.2712129"><ele>611.0</ele><time>2026-04-07T09:42:34.929Z</time></trkpt><trkpt lat="44.1766297" lon="10.2712372"><ele>611.0</ele><time>2026-04-07T09:42:36.943Z</time></trkpt><trkpt lat="44.1765617" lon="10.2712601"><ele>611.0</ele><time>2026-04-07T09:42:38.924Z</time></trkpt><trkpt lat="44.1764968" lon="10.2712766"><ele>611.0</ele><time>2026-04-07T09:42:40.94Z</time></trkpt><trkpt lat="44.1764056" lon="10.2712904"><ele>611.0</ele><time>2026-04-07T09:42:43.933Z</time></trkpt><trkpt lat="44.1763142" lon="10.2712881"><ele>611.0</ele><time>2026-04-07T09:42:46.931Z</time></trkpt><trkpt lat="44.1762224" lon="10.2712752"><ele>611.8333333333333</ele><time>2026-04-07T09:42:49.926Z</time></trkpt><trkpt lat="44.1761292" lon="10.2712676"><ele>612.6666666666666</ele><time>2026-04-07T09:42:52.927Z</time></trkpt><trkpt lat="44.1760389" lon="10.2712559"><ele>613.5</ele><time>2026-04-07T09:42:55.931Z</time></trkpt><trkpt lat="44.1759742" lon="10.271249"><ele>614.3333333333334</ele><time>2026-04-07T09:42:57.921Z</time></trkpt><trkpt lat="44.1759106" lon="10.2712457"><ele>615.1666666666667</ele><time>2026-04-07T09:42:59.93Z</time></trkpt><trkpt lat="44.175818" lon="10.2712321"><ele>616.0</ele><time>2026-04-07T09:43:02.93Z</time></trkpt><trkpt lat="44.1757272" lon="10.2712124"><ele>613.7142857142857</ele><time>2026-04-07T09:43:05.923Z</time></trkpt><trkpt lat="44.1756642" lon="10.2711933"><ele>611.4285714285714</ele><time>2026-04-07T09:43:07.953Z</time></trkpt><trkpt lat="44.1756029" lon="10.2711716"><ele>609.1428571428571</ele><time>2026-04-07T09:43:09.918Z</time></trkpt><trkpt lat="44.1755158" lon="10.2711207"><ele>606.8571428571429</ele><time>2026-04-07T09:43:12.921Z</time></trkpt><trkpt lat="44.1754579" lon="10.271085"><ele>604.5714285714286</ele><time>2026-04-07T09:43:14.925Z</time></trkpt><trkpt lat="44.175373" lon="10.2710362"><ele>602.2857142857142</ele><time>2026-04-07T09:43:17.92Z</time></trkpt><trkpt lat="44.1753114" lon="10.2710084"><ele>600.0</ele><time>2026-04-07T09:43:19.935Z</time></trkpt><trkpt lat="44.175248" lon="10.2709822"><ele>599.9999999999999</ele><time>2026-04-07T09:43:21.93Z</time></trkpt><trkpt lat="44.1751869" lon="10.2709609"><ele>600.0</ele><time>2026-04-07T09:43:23.932Z</time></trkpt><trkpt lat="44.1750954" lon="10.2709256"><ele>600.0</ele><time>2026-04-07T09:43:26.92Z</time></trkpt><trkpt lat="44.1750345" lon="10.2709024"><ele>600.0</ele><time>2026-04-07T09:43:28.934Z</time></trkpt><trkpt lat="44.1749737" lon="10.2708773"><ele>600.0</ele><time>2026-04-07T09:43:30.927Z</time></trkpt><trkpt lat="44.1749113" lon="10.2708504"><ele>599.9999999999999</ele><time>2026-04-07T09:43:32.928Z</time></trkpt><trkpt lat="44.1748525" lon="10.2708161"><ele>600.0</ele><time>2026-04-07T09:43:34.926Z</time></trkpt><trkpt lat="44.1747649" lon="10.2707761"><ele>597.1666666666666</ele><time>2026-04-07T09:43:37.927Z</time></trkpt><trkpt lat="44.1746811" lon="10.2707317"><ele>594.3333333333334</ele><time>2026-04-07T09:43:40.921Z</time></trkpt><trkpt lat="44.1746198" lon="10.2706996"><ele>591.5</ele><time>2026-04-07T09:43:42.921Z</time></trkpt><trkpt lat="44.1745591" lon="10.2706693"><ele>588.6666666666667</ele><time>2026-04-07T09:43:44.928Z</time></trkpt><trkpt lat="44.1744764" lon="10.2706266"><ele>585.8333333333334</ele><time>2026-04-07T09:43:47.922Z</time></trkpt><trkpt lat="44.1743944" lon="10.2705768"><ele>583.0</ele><time>2026-04-07T09:43:50.939Z</time></trkpt><trkpt lat="44.1743379" lon="10.2705375"><ele>586.6666666666667</ele><time>2026-04-07T09:43:52.928Z</time></trkpt><trkpt lat="44.1742559" lon="10.2704837"><ele>590.3333333333334</ele><time>2026-04-07T09:43:55.918Z</time></trkpt><trkpt lat="44.1741742" lon="10.2704262"><ele>594.0</ele><time>2026-04-07T09:43:58.949Z</time></trkpt><trkpt lat="44.1740929" lon="10.2703662"><ele>597.6666666666666</ele><time>2026-04-07T09:44:01.925Z</time></trkpt><trkpt lat="44.1740335" lon="10.2703268"><ele>601.3333333333333</ele><time>2026-04-07T09:44:03.934Z</time></trkpt><trkpt lat="44.173974" lon="10.2702922"><ele>605.0</ele><time>2026-04-07T09:44:05.943Z</time></trkpt><trkpt lat="44.1738905" lon="10.2702373"><ele>605.0</ele><time>2026-04-07T09:44:08.935Z</time></trkpt><trkpt lat="44.1738318" lon="10.2701916"><ele>605.0</ele><time>2026-04-07T09:44:10.916Z</time></trkpt><trkpt lat="44.1737719" lon="10.2701565"><ele>605.0</ele><time>2026-04-07T09:44:12.927Z</time></trkpt><trkpt lat="44.1737106" lon="10.2701348"><ele>605.0</ele><time>2026-04-07T09:44:14.931Z</time></trkpt><trkpt lat="44.1736224" lon="10.2701024"><ele>605.0</ele><time>2026-04-07T09:44:17.925Z</time></trkpt><trkpt lat="44.1735322" lon="10.270084"><ele>605.0</ele><time>2026-04-07T09:44:20.929Z</time></trkpt><trkpt lat="44.1734394" lon="10.2700694"><ele>605.0</ele><time>2026-04-07T09:44:23.925Z</time></trkpt><trkpt lat="44.1733467" lon="10.2700556"><ele>605.0</ele><time>2026-04-07T09:44:26.922Z</time></trkpt><trkpt lat="44.1732533" lon="10.2700321"><ele>605.0</ele><time>2026-04-07T09:44:29.939Z</time></trkpt><trkpt lat="44.1731839" lon="10.270014"><ele>605.0</ele><time>2026-04-07T09:44:31.932Z</time></trkpt><trkpt lat="44.1731208" lon="10.2699952"><ele>605.0</ele><time>2026-04-07T09:44:33.937Z</time></trkpt><trkpt lat="44.1730541" lon="10.2699771"><ele>605.0</ele><time>2026-04-07T09:44:35.931Z</time></trkpt><trkpt lat="44.1729898" lon="10.2699636"><ele>601.8</ele><time>2026-04-07T09:44:37.921Z</time></trkpt><trkpt lat="44.1729035" lon="10.2699411"><ele>598.6</ele><time>2026-04-07T09:44:40.923Z</time></trkpt><trkpt lat="44.172817" lon="10.2699146"><ele>595.4</ele><time>2026-04-07T09:44:43.936Z</time></trkpt><trkpt lat="44.1727243" lon="10.2698951"><ele>592.2</ele><time>2026-04-07T09:44:46.94Z</time></trkpt><trkpt lat="44.1726312" lon="10.2698831"><ele>589.0</ele><time>2026-04-07T09:44:49.941Z</time></trkpt><trkpt lat="44.1725414" lon="10.2698641"><ele>589.0</ele><time>2026-04-07T09:44:52.942Z</time></trkpt><trkpt lat="44.1724571" lon="10.2698448"><ele>589.0</ele><time>2026-04-07T09:44:55.924Z</time></trkpt><trkpt lat="44.1723941" lon="10.2698333"><ele>589.0</ele><time>2026-04-07T09:44:57.924Z</time></trkpt><trkpt lat="44.1723299" lon="10.2698088"><ele>589.0</ele><time>2026-04-07T09:44:59.928Z</time></trkpt><trkpt lat="44.172269" lon="10.2697639"><ele>589.0</ele><time>2026-04-07T09:45:01.932Z</time></trkpt><trkpt lat="44.1722232" lon="10.2696965"><ele>589.0</ele><time>2026-04-07T09:45:03.93Z</time></trkpt><trkpt lat="44.1721916" lon="10.2696156"><ele>589.0</ele><time>2026-04-07T09:45:05.944Z</time></trkpt><trkpt lat="44.1721828" lon="10.2695255"><ele>590.0</ele><time>2026-04-07T09:45:07.941Z</time></trkpt><trkpt lat="44.1721995" lon="10.2694336"><ele>591.0</ele><time>2026-04-07T09:45:09.93Z</time></trkpt><trkpt lat="44.172231" lon="10.2693557"><ele>592.0</ele><time>2026-04-07T09:45:11.929Z</time></trkpt><trkpt lat="44.1722989" lon="10.2692678"><ele>593.0</ele><time>2026-04-07T09:45:14.918Z</time></trkpt><trkpt lat="44.1723536" lon="10.2692152"><ele>594.0</ele><time>2026-04-07T09:45:16.931Z</time></trkpt><trkpt lat="44.1724105" lon="10.2691583"><ele>595.0</ele><time>2026-04-07T09:45:18.923Z</time></trkpt><trkpt lat="44.1724668" lon="10.269097"><ele>596.0</ele><time>2026-04-07T09:45:20.93Z</time></trkpt><trkpt lat="44.1725266" lon="10.2690453"><ele>596.0</ele><time>2026-04-07T09:45:22.928Z</time></trkpt><trkpt lat="44.1725872" lon="10.2689979"><ele>596.0</ele><time>2026-04-07T09:45:24.932Z</time></trkpt><trkpt lat="44.1726495" lon="10.2689436"><ele>596.0</ele><time>2026-04-07T09:45:26.931Z</time></trkpt><trkpt lat="44.1727105" lon="10.2688844"><ele>596.0</ele><time>2026-04-07T09:45:28.928Z</time></trkpt><trkpt lat="44.1727723" lon="10.2688266"><ele>596.0</ele><time>2026-04-07T09:45:30.925Z</time></trkpt><trkpt lat="44.1728309" lon="10.2687685"><ele>596.0</ele><time>2026-04-07T09:45:32.92Z</time></trkpt><trkpt lat="44.1728883" lon="10.2687098"><ele>596.0</ele><time>2026-04-07T09:45:34.922Z</time></trkpt><trkpt lat="44.1729446" lon="10.2686541"><ele>595.0</ele><time>2026-04-07T09:45:36.923Z</time></trkpt><trkpt lat="44.1730055" lon="10.2685696"><ele>594.0</ele><time>2026-04-07T09:45:39.924Z</time></trkpt><trkpt lat="44.1730513" lon="10.2684686"><ele>593.0</ele><time>2026-04-07T09:45:42.932Z</time></trkpt><trkpt lat="44.173068" lon="10.2683834"><ele>592.0</ele><time>2026-04-07T09:45:44.927Z</time></trkpt><trkpt lat="44.1730711" lon="10.2682941"><ele>591.0</ele><time>2026-04-07T09:45:46.913Z</time></trkpt><trkpt lat="44.173049" lon="10.2681658"><ele>590.0</ele><time>2026-04-07T09:45:49.919Z</time></trkpt><trkpt lat="44.173028" lon="10.2680817"><ele>590.0000000000001</ele><time>2026-04-07T09:45:51.919Z</time></trkpt><trkpt lat="44.1729952" lon="10.2679804"><ele>590.0</ele><time>2026-04-07T09:45:54.918Z</time></trkpt><trkpt lat="44.1729685" lon="10.2678911"><ele>590.0</ele><time>2026-04-07T09:45:56.925Z</time></trkpt><trkpt lat="44.1729428" lon="10.2678076"><ele>590.0</ele><time>2026-04-07T09:45:58.916Z</time></trkpt><trkpt lat="44.1729255" lon="10.2677186"><ele>590.0</ele><time>2026-04-07T09:46:00.931Z</time></trkpt><trkpt lat="44.1729106" lon="10.2676322"><ele>590.0000000000001</ele><time>2026-04-07T09:46:02.916Z</time></trkpt><trkpt lat="44.172898" lon="10.2675441"><ele>590.0</ele><time>2026-04-07T09:46:04.927Z</time></trkpt><trkpt lat="44.1728913" lon="10.2674541"><ele>590.0000000000001</ele><time>2026-04-07T09:46:06.922Z</time></trkpt><trkpt lat="44.1728798" lon="10.267366"><ele>590.0</ele><time>2026-04-07T09:46:08.927Z</time></trkpt><trkpt lat="44.1728685" lon="10.2672575"><ele>590.0</ele><time>2026-04-07T09:46:11.926Z</time></trkpt><trkpt lat="44.1728498" lon="10.2671715"><ele>590.0</ele><time>2026-04-07T09:46:13.934Z</time></trkpt><trkpt lat="44.1728313" lon="10.2670847"><ele>590.0</ele><time>2026-04-07T09:46:15.943Z</time></trkpt><trkpt lat="44.1727987" lon="10.266993"><ele>590.0000000000001</ele><time>2026-04-07T09:46:17.93Z</time></trkpt><trkpt lat="44.1727654" lon="10.2669034"><ele>590.0</ele><time>2026-04-07T09:46:19.927Z</time></trkpt><trkpt lat="44.172726" lon="10.2668179"><ele>590.0000000000001</ele><time>2026-04-07T09:46:21.927Z</time></trkpt><trkpt lat="44.1726872" lon="10.2667309"><ele>590.0</ele><time>2026-04-07T09:46:23.927Z</time></trkpt><trkpt lat="44.1726501" lon="10.2666481"><ele>590.0</ele><time>2026-04-07T09:46:25.929Z</time></trkpt><trkpt lat="44.1726165" lon="10.2665576"><ele>590.0</ele><time>2026-04-07T09:46:27.929Z</time></trkpt><trkpt lat="44.1725791" lon="10.2664689"><ele>590.0</ele><time>2026-04-07T09:46:29.927Z</time></trkpt><trkpt lat="44.1725408" lon="10.2663841"><ele>590.0000000000001</ele><time>2026-04-07T09:46:31.926Z</time></trkpt><trkpt lat="44.1724989" lon="10.2662989"><ele>590.0</ele><time>2026-04-07T09:46:33.925Z</time></trkpt><trkpt lat="44.1724568" lon="10.2662222"><ele>591.4285714285714</ele><time>2026-04-07T09:46:35.926Z</time></trkpt><trkpt lat="44.172411" lon="10.2661546"><ele>592.8571428571429</ele><time>2026-04-07T09:46:37.936Z</time></trkpt><trkpt lat="44.1723599" lon="10.2660927"><ele>594.2857142857142</ele><time>2026-04-07T09:46:39.918Z</time></trkpt><trkpt lat="44.1723068" lon="10.2660322"><ele>595.7142857142858</ele><time>2026-04-07T09:46:41.934Z</time></trkpt><trkpt lat="44.1722483" lon="10.2659906"><ele>597.1428571428571</ele><time>2026-04-07T09:46:43.939Z</time></trkpt><trkpt lat="44.1721862" lon="10.2659643"><ele>598.5714285714286</ele><time>2026-04-07T09:46:45.924Z</time></trkpt><trkpt lat="44.1721257" lon="10.265927"><ele>600.0</ele><time>2026-04-07T09:46:47.931Z</time></trkpt><trkpt lat="44.1720625" lon="10.2659091"><ele>599.9999999999999</ele><time>2026-04-07T09:46:49.928Z</time></trkpt><trkpt lat="44.1719839" lon="10.2658841"><ele>600.0</ele><time>2026-04-07T09:46:52.93Z</time></trkpt><trkpt lat="44.1719209" lon="10.2658639"><ele>600.0</ele><time>2026-04-07T09:46:54.936Z</time></trkpt><trkpt lat="44.1718554" lon="10.2658483"><ele>600.0</ele><time>2026-04-07T09:46:56.93Z</time></trkpt><trkpt lat="44.171788" lon="10.2658308"><ele>600.0</ele><time>2026-04-07T09:46:58.932Z</time></trkpt><trkpt lat="44.1716987" lon="10.2658022"><ele>599.9999999999999</ele><time>2026-04-07T09:47:01.928Z</time></trkpt><trkpt lat="44.1716371" lon="10.2657815"><ele>600.0</ele><time>2026-04-07T09:47:03.928Z</time></trkpt><trkpt lat="44.171575" lon="10.2657581"><ele>597.7142857142857</ele><time>2026-04-07T09:47:05.924Z</time></trkpt><trkpt lat="44.1715138" lon="10.2657312"><ele>595.4285714285714</ele><time>2026-04-07T09:47:07.927Z</time></trkpt><trkpt lat="44.1714557" lon="10.2656948"><ele>593.1428571428571</ele><time>2026-04-07T09:47:09.92Z</time></trkpt><trkpt lat="44.1713679" lon="10.2656438"><ele>590.8571428571429</ele><time>2026-04-07T09:47:12.94Z</time></trkpt><trkpt lat="44.1713057" lon="10.2656048"><ele>588.5714285714286</ele><time>2026-04-07T09:47:14.927Z</time></trkpt><trkpt lat="44.1712454" lon="10.2655654"><ele>586.2857142857142</ele><time>2026-04-07T09:47:16.939Z</time></trkpt><trkpt lat="44.1711851" lon="10.2655285"><ele>584.0</ele><time>2026-04-07T09:47:18.919Z</time></trkpt><trkpt lat="44.171124" lon="10.2654911"><ele>584.0</ele><time>2026-04-07T09:47:20.923Z</time></trkpt><trkpt lat="44.1710639" lon="10.2654547"><ele>584.0</ele><time>2026-04-07T09:47:22.93Z</time></trkpt><trkpt lat="44.1710019" lon="10.2654176"><ele>584.0</ele><time>2026-04-07T09:47:24.933Z</time></trkpt><trkpt lat="44.1709466" lon="10.2653687"><ele>584.0</ele><time>2026-04-07T09:47:26.926Z</time></trkpt><trkpt lat="44.1708986" lon="10.2653071"><ele>584.0</ele><time>2026-04-07T09:47:28.934Z</time></trkpt><trkpt lat="44.1708569" lon="10.2652378"><ele>584.0</ele><time>2026-04-07T09:47:30.922Z</time></trkpt><trkpt lat="44.1708335" lon="10.2651541"><ele>584.0</ele><time>2026-04-07T09:47:32.928Z</time></trkpt><trkpt lat="44.1708257" lon="10.2650609"><ele>584.0</ele><time>2026-04-07T09:47:34.924Z</time></trkpt><trkpt lat="44.1708423" lon="10.2649681"><ele>584.0</ele><time>2026-04-07T09:47:36.92Z</time></trkpt><trkpt lat="44.1708806" lon="10.2648843"><ele>584.0</ele><time>2026-04-07T09:47:38.923Z</time></trkpt><trkpt lat="44.170928" lon="10.2648082"><ele>584.0</ele><time>2026-04-07T09:47:40.928Z</time></trkpt><trkpt lat="44.1709818" lon="10.2647397"><ele>584.0</ele><time>2026-04-07T09:47:42.931Z</time></trkpt><trkpt lat="44.1710397" lon="10.2646824"><ele>584.0</ele><time>2026-04-07T09:47:44.926Z</time></trkpt><trkpt lat="44.1710962" lon="10.2646254"><ele>584.0</ele><time>2026-04-07T09:47:46.92Z</time></trkpt><trkpt lat="44.1711512" lon="10.2645695"><ele>582.1428571428571</ele><time>2026-04-07T09:47:48.924Z</time></trkpt><trkpt lat="44.1712046" lon="10.2645148"><ele>580.2857142857143</ele><time>2026-04-07T09:47:50.915Z</time></trkpt><trkpt lat="44.1712698" lon="10.2644279"><ele>578.4285714285714</ele><time>2026-04-07T09:47:53.919Z</time></trkpt><trkpt lat="44.1713178" lon="10.2643546"><ele>576.5714285714286</ele><time>2026-04-07T09:47:56.931Z</time></trkpt><trkpt lat="44.1713798" lon="10.2643038"><ele>574.7142857142857</ele><time>2026-04-07T09:48:00.922Z</time></trkpt><trkpt lat="44.1714385" lon="10.2642323"><ele>572.8571428571429</ele><time>2026-04-07T09:48:04.929Z</time></trkpt><trkpt lat="44.1714996" lon="10.2641918"><ele>571.0</ele><time>2026-04-07T09:48:07.932Z</time></trkpt><trkpt lat="44.1715565" lon="10.264141"><ele>572.5714285714286</ele><time>2026-04-07T09:48:10.913Z</time></trkpt><trkpt lat="44.1716137" lon="10.2640898"><ele>574.1428571428571</ele><time>2026-04-07T09:48:13.934Z</time></trkpt><trkpt lat="44.1716718" lon="10.2640157"><ele>575.7142857142857</ele><time>2026-04-07T09:48:17.936Z</time></trkpt><trkpt lat="44.1717305" lon="10.2639452"><ele>577.2857142857142</ele><time>2026-04-07T09:48:21.94Z</time></trkpt><trkpt lat="44.1717809" lon="10.2638754"><ele>578.8571428571428</ele><time>2026-04-07T09:48:25.938Z</time></trkpt><trkpt lat="44.1718137" lon="10.2637826"><ele>580.4285714285714</ele><time>2026-04-07T09:48:29.923Z</time></trkpt><trkpt lat="44.1718534" lon="10.2636952"><ele>582.0</ele><time>2026-04-07T09:48:33.931Z</time></trkpt><trkpt lat="44.1719012" lon="10.2636032"><ele>582.0</ele><time>2026-04-07T09:48:37.929Z</time></trkpt><trkpt lat="44.1719485" lon="10.263512"><ele>582.0</ele><time>2026-04-07T09:48:41.926Z</time></trkpt><trkpt lat="44.1719978" lon="10.2634264"><ele>582.0</ele><time>2026-04-07T09:48:45.921Z</time></trkpt><trkpt lat="44.1720493" lon="10.2633407"><ele>582.0</ele><time>2026-04-07T09:48:49.918Z</time></trkpt><trkpt lat="44.1720978" lon="10.263267"><ele>582.0</ele><time>2026-04-07T09:48:53.926Z</time></trkpt><trkpt lat="44.1721437" lon="10.2632064"><ele>582.0</ele><time>2026-04-07T09:48:56.917Z</time></trkpt><trkpt lat="44.1721987" lon="10.2631203"><ele>581.8571428571429</ele><time>2026-04-07T09:49:00.915Z</time></trkpt><trkpt lat="44.1722318" lon="10.2630438"><ele>581.7142857142857</ele><time>2026-04-07T09:49:03.919Z</time></trkpt><trkpt lat="44.1722416" lon="10.2629478"><ele>581.5714285714286</ele><time>2026-04-07T09:49:06.917Z</time></trkpt><trkpt lat="44.1722457" lon="10.2628538"><ele>581.4285714285714</ele><time>2026-04-07T09:49:09.914Z</time></trkpt><trkpt lat="44.1722429" lon="10.2627447"><ele>581.2857142857142</ele><time>2026-04-07T09:49:13.918Z</time></trkpt><trkpt lat="44.1722326" lon="10.2626566"><ele>581.1428571428571</ele><time>2026-04-07T09:49:17.912Z</time></trkpt><trkpt lat="44.17222" lon="10.2625615"><ele>581.0</ele><time>2026-04-07T09:49:23.913Z</time></trkpt><trkpt lat="44.1721625" lon="10.2615096"><ele>585.8571428571429</ele><time>2026-04-07T09:49:55.93Z</time></trkpt><trkpt lat="44.1721491" lon="10.2613861"><ele>590.7142857142858</ele><time>2026-04-07T09:49:58.928Z</time></trkpt><trkpt lat="44.172125" lon="10.2612951"><ele>595.5714285714286</ele><time>2026-04-07T09:50:01.917Z</time></trkpt><trkpt lat="44.1720821" lon="10.2612271"><ele>600.4285714285714</ele><time>2026-04-07T09:50:04.913Z</time></trkpt><trkpt lat="44.1720151" lon="10.2611839"><ele>605.2857142857143</ele><time>2026-04-07T09:50:07.925Z</time></trkpt><trkpt lat="44.1719476" lon="10.2611431"><ele>610.1428571428571</ele><time>2026-04-07T09:50:10.924Z</time></trkpt><trkpt lat="44.1718878" lon="10.2611141"><ele>615.0</ele><time>2026-04-07T09:50:13.948Z</time></trkpt><trkpt lat="44.1718254" lon="10.2610883"><ele>615.0</ele><time>2026-04-07T09:50:16.936Z</time></trkpt><trkpt lat="44.1717446" lon="10.2610612"><ele>615.0</ele><time>2026-04-07T09:50:20.927Z</time></trkpt><trkpt lat="44.1716841" lon="10.2610271"><ele>615.0</ele><time>2026-04-07T09:50:23.922Z</time></trkpt><trkpt lat="44.1716301" lon="10.2609804"><ele>615.0</ele><time>2026-04-07T09:50:26.925Z</time></trkpt><trkpt lat="44.1715723" lon="10.2609024"><ele>615.0</ele><time>2026-04-07T09:50:30.915Z</time></trkpt><trkpt lat="44.1715308" lon="10.2608078"><ele>615.0</ele><time>2026-04-07T09:50:34.926Z</time></trkpt><trkpt lat="44.1715024" lon="10.2607285"><ele>615.0</ele><time>2026-04-07T09:50:37.932Z</time></trkpt><trkpt lat="44.171482" lon="10.2606152"><ele>612.4285714285714</ele><time>2026-04-07T09:50:41.928Z</time></trkpt><trkpt lat="44.1714752" lon="10.2605208"><ele>609.8571428571429</ele><time>2026-04-07T09:50:44.939Z</time></trkpt><trkpt lat="44.171473" lon="10.2604279"><ele>607.2857142857143</ele><time>2026-04-07T09:50:47.939Z</time></trkpt><trkpt lat="44.1714667" lon="10.2603372"><ele>604.7142857142858</ele><time>2026-04-07T09:50:50.923Z</time></trkpt><trkpt lat="44.1714637" lon="10.2602442"><ele>602.1428571428571</ele><time>2026-04-07T09:50:53.922Z</time></trkpt><trkpt lat="44.1714609" lon="10.2601519"><ele>599.5714285714287</ele><time>2026-04-07T09:50:56.919Z</time></trkpt><trkpt lat="44.1714611" lon="10.2600402"><ele>597.0</ele><time>2026-04-07T09:51:00.918Z</time></trkpt><trkpt lat="44.1714561" lon="10.2599512"><ele>597.0000000000001</ele><time>2026-04-07T09:51:03.921Z</time></trkpt><trkpt lat="44.1714515" lon="10.2598557"><ele>597.0</ele><time>2026-04-07T09:51:06.93Z</time></trkpt><trkpt lat="44.1714312" lon="10.259767"><ele>597.0</ele><time>2026-04-07T09:51:09.927Z</time></trkpt><trkpt lat="44.1713971" lon="10.2596866"><ele>597.0</ele><time>2026-04-07T09:51:12.917Z</time></trkpt><trkpt lat="44.1713503" lon="10.2596152"><ele>597.0</ele><time>2026-04-07T09:51:15.932Z</time></trkpt><trkpt lat="44.1712995" lon="10.2595532"><ele>597.0000000000001</ele><time>2026-04-07T09:51:18.924Z</time></trkpt><trkpt lat="44.1712525" lon="10.2594946"><ele>597.0</ele><time>2026-04-07T09:51:21.927Z</time></trkpt><trkpt lat="44.171199" lon="10.2594376"><ele>599.8571428571429</ele><time>2026-04-07T09:51:24.93Z</time></trkpt><trkpt lat="44.1711437" lon="10.2593732"><ele>602.7142857142858</ele><time>2026-04-07T09:51:27.937Z</time></trkpt><trkpt lat="44.1710998" lon="10.259298"><ele>605.5714285714287</ele><time>2026-04-07T09:51:30.933Z</time></trkpt><trkpt lat="44.1710571" lon="10.2592177"><ele>608.4285714285714</ele><time>2026-04-07T09:51:33.941Z</time></trkpt><trkpt lat="44.17102" lon="10.2591382"><ele>611.2857142857142</ele><time>2026-04-07T09:51:36.925Z</time></trkpt><trkpt lat="44.1709904" lon="10.2590543"><ele>614.1428571428572</ele><time>2026-04-07T09:51:39.931Z</time></trkpt><trkpt lat="44.1709705" lon="10.2589699"><ele>617.0</ele><time>2026-04-07T09:51:42.93Z</time></trkpt><trkpt lat="44.170945" lon="10.2588884"><ele>614.8571428571429</ele><time>2026-04-07T09:51:45.929Z</time></trkpt><trkpt lat="44.1709098" lon="10.2588084"><ele>612.7142857142857</ele><time>2026-04-07T09:51:48.929Z</time></trkpt><trkpt lat="44.1708611" lon="10.2587427"><ele>610.5714285714286</ele><time>2026-04-07T09:51:51.938Z</time></trkpt><trkpt lat="44.1708036" lon="10.258691"><ele>608.4285714285714</ele><time>2026-04-07T09:51:54.928Z</time></trkpt><trkpt lat="44.1707462" lon="10.2586523"><ele>606.2857142857142</ele><time>2026-04-07T09:51:57.922Z</time></trkpt><trkpt lat="44.170671" lon="10.2586157"><ele>604.1428571428571</ele><time>2026-04-07T09:52:01.925Z</time></trkpt><trkpt lat="44.1706121" lon="10.2585845"><ele>602.0</ele><time>2026-04-07T09:52:04.925Z</time></trkpt><trkpt lat="44.1705559" lon="10.2585418"><ele>602.0</ele><time>2026-04-07T09:52:07.924Z</time></trkpt><trkpt lat="44.1704899" lon="10.2584716"><ele>602.0</ele><time>2026-04-07T09:52:11.92Z</time></trkpt><trkpt lat="44.1704453" lon="10.2584064"><ele>602.0</ele><time>2026-04-07T09:52:14.929Z</time></trkpt><trkpt lat="44.1703991" lon="10.2583436"><ele>602.0</ele><time>2026-04-07T09:52:17.926Z</time></trkpt><trkpt lat="44.1703477" lon="10.2582853"><ele>602.0</ele><time>2026-04-07T09:52:20.946Z</time></trkpt><trkpt lat="44.1703101" lon="10.2582062"><ele>602.0</ele><time>2026-04-07T09:52:23.923Z</time></trkpt><trkpt lat="44.1702853" lon="10.2581229"><ele>602.0</ele><time>2026-04-07T09:52:26.92Z</time></trkpt><trkpt lat="44.1702838" lon="10.2580053"><ele>601.5714285714286</ele><time>2026-04-07T09:52:30.94Z</time></trkpt><trkpt lat="44.1703014" lon="10.2579188"><ele>601.1428571428571</ele><time>2026-04-07T09:52:33.927Z</time></trkpt><trkpt lat="44.1703436" lon="10.2578382"><ele>600.7142857142858</ele><time>2026-04-07T09:52:37.917Z</time></trkpt><trkpt lat="44.1703897" lon="10.2577715"><ele>600.2857142857142</ele><time>2026-04-07T09:52:41.914Z</time></trkpt><trkpt lat="44.1704325" lon="10.2576809"><ele>599.8571428571429</ele><time>2026-04-07T09:52:45.939Z</time></trkpt><trkpt lat="44.1704627" lon="10.2575912"><ele>599.4285714285714</ele><time>2026-04-07T09:52:49.94Z</time></trkpt><trkpt lat="44.1704904" lon="10.2574946"><ele>599.0</ele><time>2026-04-07T09:52:53.928Z</time></trkpt><trkpt lat="44.1704805" lon="10.2574033"><ele>599.0</ele><time>2026-04-07T09:52:57.918Z</time></trkpt><trkpt lat="44.1704883" lon="10.2573129"><ele>599.0</ele><time>2026-04-07T09:53:03.929Z</time></trkpt><trkpt lat="44.1705285" lon="10.2572304"><ele>599.0</ele><time>2026-04-07T09:53:09.922Z</time></trkpt><trkpt lat="44.1705722" lon="10.2571622"><ele>599.0</ele><time>2026-04-07T09:53:13.93Z</time></trkpt><trkpt lat="44.1706316" lon="10.2571294"><ele>599.0</ele><time>2026-04-07T09:53:17.937Z</time></trkpt><trkpt lat="44.1707104" lon="10.2570993"><ele>599.0</ele><time>2026-04-07T09:53:21.928Z</time></trkpt><trkpt lat="44.1707705" lon="10.2570554"><ele>599.0</ele><time>2026-04-07T09:53:25.925Z</time></trkpt><trkpt lat="44.1708363" lon="10.2569995"><ele>603.1428571428571</ele><time>2026-04-07T09:53:29.94Z</time></trkpt><trkpt lat="44.17091" lon="10.2569565"><ele>607.2857142857142</ele><time>2026-04-07T09:53:33.939Z</time></trkpt><trkpt lat="44.1709866" lon="10.2569048"><ele>611.4285714285713</ele><time>2026-04-07T09:53:37.92Z</time></trkpt><trkpt lat="44.171043" lon="10.256857"><ele>615.5714285714286</ele><time>2026-04-07T09:53:40.929Z</time></trkpt><trkpt lat="44.1710953" lon="10.2567995"><ele>619.7142857142857</ele><time>2026-04-07T09:53:43.93Z</time></trkpt><trkpt lat="44.1711544" lon="10.2567166"><ele>623.8571428571428</ele><time>2026-04-07T09:53:47.935Z</time></trkpt><trkpt lat="44.1711894" lon="10.2566407"><ele>628.0</ele><time>2026-04-07T09:53:50.915Z</time></trkpt><trkpt lat="44.1712417" lon="10.2565539"><ele>628.2857142857142</ele><time>2026-04-07T09:53:54.928Z</time></trkpt><trkpt lat="44.1712763" lon="10.2564509"><ele>628.5714285714286</ele><time>2026-04-07T09:53:58.926Z</time></trkpt><trkpt lat="44.1713116" lon="10.2563505"><ele>628.8571428571429</ele><time>2026-04-07T09:54:02.925Z</time></trkpt><trkpt lat="44.1713478" lon="10.2562679"><ele>629.1428571428571</ele><time>2026-04-07T09:54:05.934Z</time></trkpt><trkpt lat="44.1713705" lon="10.2561775"><ele>629.4285714285714</ele><time>2026-04-07T09:54:08.924Z</time></trkpt><trkpt lat="44.1713912" lon="10.2560924"><ele>629.7142857142857</ele><time>2026-04-07T09:54:11.917Z</time></trkpt><trkpt lat="44.1714164" lon="10.2559979"><ele>630.0</ele><time>2026-04-07T09:54:15.924Z</time></trkpt><trkpt lat="44.1714451" lon="10.255918"><ele>630.0</ele><time>2026-04-07T09:54:19.939Z</time></trkpt><trkpt lat="44.1714644" lon="10.2558073"><ele>630.0</ele><time>2026-04-07T09:54:23.926Z</time></trkpt><trkpt lat="44.1714699" lon="10.2557082"><ele>630.0</ele><time>2026-04-07T09:54:26.924Z</time></trkpt><trkpt lat="44.1714968" lon="10.2556161"><ele>630.0</ele><time>2026-04-07T09:54:30.931Z</time></trkpt><trkpt lat="44.1715128" lon="10.2557095"><ele>630.0</ele><time>2026-04-07T09:54:35.924Z</time></trkpt><trkpt lat="44.1714955" lon="10.2558099"><ele>630.0</ele><time>2026-04-07T09:54:39.92Z</time></trkpt><trkpt lat="44.1714767" lon="10.255907"><ele>630.0</ele><time>2026-04-07T09:54:43.92Z</time></trkpt><trkpt lat="44.1714451" lon="10.2560054"><ele>630.0</ele><time>2026-04-07T09:54:47.925Z</time></trkpt><trkpt lat="44.1714181" lon="10.2561122"><ele>630.0</ele><time>2026-04-07T09:54:51.936Z</time></trkpt><trkpt lat="44.1713916" lon="10.2562237"><ele>630.0</ele><time>2026-04-07T09:54:55.919Z</time></trkpt><trkpt lat="44.1713812" lon="10.2563292"><ele>630.0</ele><time>2026-04-07T09:54:59.921Z</time></trkpt><trkpt lat="44.1713801" lon="10.2564286"><ele>630.0</ele><time>2026-04-07T09:55:03.921Z</time></trkpt><trkpt lat="44.1713837" lon="10.2565332"><ele>630.0</ele><time>2026-04-07T09:55:07.925Z</time></trkpt><trkpt lat="44.1713896" lon="10.2566357"><ele>629.7142857142857</ele><time>2026-04-07T09:55:11.926Z</time></trkpt><trkpt lat="44.1713943" lon="10.2567382"><ele>629.4285714285714</ele><time>2026-04-07T09:55:15.919Z</time></trkpt><trkpt lat="44.1713991" lon="10.2568284"><ele>629.1428571428571</ele><time>2026-04-07T09:55:18.93Z</time></trkpt><trkpt lat="44.1713966" lon="10.256939"><ele>628.8571428571429</ele><time>2026-04-07T09:55:22.942Z</time></trkpt><trkpt lat="44.1713839" lon="10.2570277"><ele>628.5714285714286</ele><time>2026-04-07T09:55:25.924Z</time></trkpt><trkpt lat="44.171357" lon="10.2571111"><ele>628.2857142857142</ele><time>2026-04-07T09:55:28.927Z</time></trkpt><trkpt lat="44.1713081" lon="10.2572043"><ele>628.0</ele><time>2026-04-07T09:55:32.931Z</time></trkpt><trkpt lat="44.171261" lon="10.2572634"><ele>629.7142857142857</ele><time>2026-04-07T09:55:35.922Z</time></trkpt><trkpt lat="44.1712117" lon="10.2573235"><ele>631.4285714285714</ele><time>2026-04-07T09:55:39.924Z</time></trkpt><trkpt lat="44.1711566" lon="10.257392"><ele>633.1428571428571</ele><time>2026-04-07T09:55:43.926Z</time></trkpt><trkpt lat="44.1711191" lon="10.2574742"><ele>634.8571428571429</ele><time>2026-04-07T09:55:47.934Z</time></trkpt><trkpt lat="44.1711331" lon="10.2575613"><ele>636.5714285714286</ele><time>2026-04-07T09:55:51.923Z</time></trkpt><trkpt lat="44.1712023" lon="10.2575883"><ele>638.2857142857142</ele><time>2026-04-07T09:55:56.929Z</time></trkpt><trkpt lat="44.1712649" lon="10.257578"><ele>640.0</ele><time>2026-04-07T09:56:00.928Z</time></trkpt><trkpt lat="44.1713308" lon="10.2575693"><ele>640.0</ele><time>2026-04-07T09:56:38.912Z</time></trkpt><trkpt lat="44.1714054" lon="10.257535"><ele>640.0</ele><time>2026-04-07T09:56:44.914Z</time></trkpt><trkpt lat="44.1714594" lon="10.2574748"><ele>640.0</ele><time>2026-04-07T09:56:48.939Z</time></trkpt><trkpt lat="44.1715193" lon="10.2574333"><ele>640.0</ele><time>2026-04-07T09:56:52.936Z</time></trkpt><trkpt lat="44.171577" lon="10.2573785"><ele>640.0</ele><time>2026-04-07T09:56:56.925Z</time></trkpt><trkpt lat="44.1716319" lon="10.2573253"><ele>640.0</ele><time>2026-04-07T09:57:00.938Z</time></trkpt><trkpt lat="44.1717" lon="10.2572882"><ele>640.0</ele><time>2026-04-07T09:57:04.928Z</time></trkpt><trkpt lat="44.1717705" lon="10.2572406"><ele>641.1428571428571</ele><time>2026-04-07T09:57:08.914Z</time></trkpt><trkpt lat="44.1718294" lon="10.2571978"><ele>642.2857142857143</ele><time>2026-04-07T09:57:12.922Z</time></trkpt><trkpt lat="44.1718964" lon="10.2571806"><ele>643.4285714285714</ele><time>2026-04-07T09:57:16.916Z</time></trkpt><trkpt lat="44.1719689" lon="10.2571451"><ele>644.5714285714286</ele><time>2026-04-07T09:57:20.919Z</time></trkpt><trkpt lat="44.1720382" lon="10.2570983"><ele>645.7142857142857</ele><time>2026-04-07T09:57:24.917Z</time></trkpt><trkpt lat="44.1720902" lon="10.2570385"><ele>646.8571428571429</ele><time>2026-04-07T09:57:28.916Z</time></trkpt><trkpt lat="44.1721497" lon="10.2569941"><ele>648.0</ele><time>2026-04-07T09:57:32.927Z</time></trkpt><trkpt lat="44.1722135" lon="10.256956"><ele>648.0</ele><time>2026-04-07T09:57:37.918Z</time></trkpt><trkpt lat="44.1722693" lon="10.256893"><ele>648.0</ele><time>2026-04-07T09:57:42.925Z</time></trkpt><trkpt lat="44.1723419" lon="10.256858"><ele>648.0</ele><time>2026-04-07T09:57:47.925Z</time></trkpt><trkpt lat="44.1724049" lon="10.2568227"><ele>648.0</ele><time>2026-04-07T09:57:51.923Z</time></trkpt><trkpt lat="44.1724614" lon="10.2567696"><ele>648.0</ele><time>2026-04-07T09:57:55.926Z</time></trkpt><trkpt lat="44.1725181" lon="10.2567212"><ele>648.0</ele><time>2026-04-07T09:57:59.922Z</time></trkpt><trkpt lat="44.1725634" lon="10.2566574"><ele>648.0</ele><time>2026-04-07T09:58:03.938Z</time></trkpt><trkpt lat="44.1726074" lon="10.2565875"><ele>650.5714285714286</ele><time>2026-04-07T09:58:07.942Z</time></trkpt><trkpt lat="44.1726302" lon="10.2564995"><ele>653.1428571428571</ele><time>2026-04-07T09:58:11.914Z</time></trkpt><trkpt lat="44.1726389" lon="10.2564111"><ele>655.7142857142858</ele><time>2026-04-07T09:58:15.934Z</time></trkpt><trkpt lat="44.1726443" lon="10.2563191"><ele>658.2857142857142</ele><time>2026-04-07T09:58:20.934Z</time></trkpt><trkpt lat="44.1726475" lon="10.2562303"><ele>660.8571428571428</ele><time>2026-04-07T09:58:24.94Z</time></trkpt><trkpt lat="44.1726748" lon="10.2561456"><ele>663.4285714285714</ele><time>2026-04-07T09:58:28.913Z</time></trkpt><trkpt lat="44.1727096" lon="10.2560707"><ele>666.0</ele><time>2026-04-07T09:58:32.921Z</time></trkpt><trkpt lat="44.1727502" lon="10.2560016"><ele>666.0</ele><time>2026-04-07T09:58:36.933Z</time></trkpt><trkpt lat="44.1727961" lon="10.2559237"><ele>666.0</ele><time>2026-04-07T09:58:41.915Z</time></trkpt><trkpt lat="44.1728398" lon="10.2558517"><ele>666.0</ele><time>2026-04-07T09:58:46.933Z</time></trkpt><trkpt lat="44.1728681" lon="10.2557718"><ele>666.0</ele><time>2026-04-07T09:58:51.921Z</time></trkpt><trkpt lat="44.1729007" lon="10.255695"><ele>666.0</ele><time>2026-04-07T09:58:56.928Z</time></trkpt><trkpt lat="44.172919" lon="10.2555956"><ele>666.0</ele><time>2026-04-07T09:59:01.924Z</time></trkpt><trkpt lat="44.1729417" lon="10.2554917"><ele>666.0</ele><time>2026-04-07T09:59:06.919Z</time></trkpt><trkpt lat="44.1729738" lon="10.255414"><ele>666.0</ele><time>2026-04-07T09:59:10.938Z</time></trkpt><trkpt lat="44.1730237" lon="10.2553362"><ele>666.0</ele><time>2026-04-07T09:59:15.928Z</time></trkpt><trkpt lat="44.1730749" lon="10.2552615"><ele>666.0</ele><time>2026-04-07T09:59:20.933Z</time></trkpt><trkpt lat="44.1731213" lon="10.2551995"><ele>666.0</ele><time>2026-04-07T09:59:24.92Z</time></trkpt><trkpt lat="44.1731744" lon="10.2551202"><ele>666.0</ele><time>2026-04-07T09:59:29.926Z</time></trkpt><trkpt lat="44.1732183" lon="10.255034"><ele>666.0</ele><time>2026-04-07T09:59:34.924Z</time></trkpt><trkpt lat="44.1732598" lon="10.2549431"><ele>666.0</ele><time>2026-04-07T09:59:39.929Z</time></trkpt><trkpt lat="44.1733003" lon="10.25486"><ele>669.8571428571429</ele><time>2026-04-07T09:59:44.924Z</time></trkpt><trkpt lat="44.173346" lon="10.2547869"><ele>673.7142857142857</ele><time>2026-04-07T09:59:49.94Z</time></trkpt><trkpt lat="44.1733843" lon="10.2547072"><ele>677.5714285714286</ele><time>2026-04-07T09:59:53.914Z</time></trkpt><trkpt lat="44.1734118" lon="10.2546212"><ele>681.4285714285714</ele><time>2026-04-07T09:59:57.931Z</time></trkpt><trkpt lat="44.1734376" lon="10.2545287"><ele>685.2857142857142</ele><time>2026-04-07T10:00:01.919Z</time></trkpt><trkpt lat="44.1734403" lon="10.2544268"><ele>689.1428571428571</ele><time>2026-04-07T10:00:05.919Z</time></trkpt><trkpt lat="44.1734505" lon="10.2543258"><ele>693.0</ele><time>2026-04-07T10:00:09.936Z</time></trkpt><trkpt lat="44.1734476" lon="10.2542256"><ele>693.0</ele><time>2026-04-07T10:00:13.922Z</time></trkpt><trkpt lat="44.1734245" lon="10.2541339"><ele>693.0</ele><time>2026-04-07T10:00:17.926Z</time></trkpt><trkpt lat="44.1733823" lon="10.2540589"><ele>693.0</ele><time>2026-04-07T10:00:21.924Z</time></trkpt><trkpt lat="44.1733272" lon="10.2539995"><ele>693.0</ele><time>2026-04-07T10:00:25.914Z</time></trkpt><trkpt lat="44.1732798" lon="10.2539358"><ele>693.0</ele><time>2026-04-07T10:00:29.916Z</time></trkpt><trkpt lat="44.1732198" lon="10.2538869"><ele>693.0</ele><time>2026-04-07T10:00:35.919Z</time></trkpt><trkpt lat="44.1731756" lon="10.2538243"><ele>693.0</ele><time>2026-04-07T10:00:41.92Z</time></trkpt><trkpt lat="44.1731242" lon="10.2537626"><ele>694.5714285714286</ele><time>2026-04-07T10:00:47.923Z</time></trkpt><trkpt lat="44.1730708" lon="10.253686"><ele>696.1428571428571</ele><time>2026-04-07T10:00:53.921Z</time></trkpt><trkpt lat="44.1730361" lon="10.2536115"><ele>697.7142857142858</ele><time>2026-04-07T10:00:58.918Z</time></trkpt><trkpt lat="44.1730465" lon="10.2535078"><ele>699.2857142857142</ele><time>2026-04-07T10:01:04.924Z</time></trkpt><trkpt lat="44.1731088" lon="10.253475"><ele>700.8571428571429</ele><time>2026-04-07T10:01:09.915Z</time></trkpt><trkpt lat="44.1731644" lon="10.2535282"><ele>702.4285714285714</ele><time>2026-04-07T10:01:13.916Z</time></trkpt><trkpt lat="44.1732158" lon="10.2535977"><ele>704.0</ele><time>2026-04-07T10:01:18.912Z</time></trkpt><trkpt lat="44.1732693" lon="10.2536776"><ele>704.0</ele><time>2026-04-07T10:01:23.916Z</time></trkpt><trkpt lat="44.1733256" lon="10.253718"><ele>704.0</ele><time>2026-04-07T10:01:27.929Z</time></trkpt><trkpt lat="44.1734041" lon="10.2537551"><ele>704.0</ele><time>2026-04-07T10:01:32.92Z</time></trkpt><trkpt lat="44.1734783" lon="10.2537638"><ele>704.0</ele><time>2026-04-07T10:01:37.939Z</time></trkpt><trkpt lat="44.1735544" lon="10.2537856"><ele>704.0</ele><time>2026-04-07T10:01:42.926Z</time></trkpt><trkpt lat="44.1736294" lon="10.2538109"><ele>704.0</ele><time>2026-04-07T10:01:47.919Z</time></trkpt><trkpt lat="44.1737107" lon="10.2538306"><ele>704.0</ele><time>2026-04-07T10:01:52.916Z</time></trkpt><trkpt lat="44.1737786" lon="10.2538622"><ele>704.0</ele><time>2026-04-07T10:01:58.918Z</time></trkpt><trkpt lat="44.1738541" lon="10.2538947"><ele>704.0</ele><time>2026-04-07T10:02:03.94Z</time></trkpt><trkpt lat="44.1739255" lon="10.2539276"><ele>704.0</ele><time>2026-04-07T10:02:08.914Z</time></trkpt><trkpt lat="44.1739915" lon="10.2539594"><ele>704.0</ele><time>2026-04-07T10:02:12.918Z</time></trkpt><trkpt lat="44.1740663" lon="10.253985"><ele>704.0</ele><time>2026-04-07T10:02:16.934Z</time></trkpt><trkpt lat="44.1741265" lon="10.2540159"><ele>704.0</ele><time>2026-04-07T10:02:20.928Z</time></trkpt><trkpt lat="44.1741935" lon="10.2540308"><ele>706.1428571428571</ele><time>2026-04-07T10:02:24.914Z</time></trkpt><trkpt lat="44.1742577" lon="10.2540652"><ele>708.2857142857142</ele><time>2026-04-07T10:02:28.917Z</time></trkpt><trkpt lat="44.174321" lon="10.2541023"><ele>710.4285714285713</ele><time>2026-04-07T10:02:33.926Z</time></trkpt><trkpt lat="44.1743827" lon="10.2541463"><ele>712.5714285714286</ele><time>2026-04-07T10:02:37.923Z</time></trkpt><trkpt lat="44.1744462" lon="10.2541916"><ele>714.7142857142857</ele><time>2026-04-07T10:02:41.922Z</time></trkpt><trkpt lat="44.1745053" lon="10.2542518"><ele>716.8571428571428</ele><time>2026-04-07T10:02:45.938Z</time></trkpt><trkpt lat="44.1745522" lon="10.2543144"><ele>719.0</ele><time>2026-04-07T10:02:49.934Z</time></trkpt><trkpt lat="44.1745938" lon="10.2543869"><ele>718.9999999999999</ele><time>2026-04-07T10:02:53.932Z</time></trkpt><trkpt lat="44.1746374" lon="10.2544612"><ele>719.0</ele><time>2026-04-07T10:02:57.921Z</time></trkpt><trkpt lat="44.174669" lon="10.2545435"><ele>719.0</ele><time>2026-04-07T10:03:01.923Z</time></trkpt><trkpt lat="44.1746818" lon="10.2546313"><ele>719.0</ele><time>2026-04-07T10:03:05.926Z</time></trkpt><trkpt lat="44.1746839" lon="10.2547267"><ele>719.0</ele><time>2026-04-07T10:03:09.929Z</time></trkpt><trkpt lat="44.1746887" lon="10.2548242"><ele>718.9999999999999</ele><time>2026-04-07T10:03:14.916Z</time></trkpt><trkpt lat="44.1747001" lon="10.2549142"><ele>719.0</ele><time>2026-04-07T10:03:19.912Z</time></trkpt><trkpt lat="44.1747179" lon="10.2550103"><ele>719.2857142857142</ele><time>2026-04-07T10:03:24.929Z</time></trkpt><trkpt lat="44.1747394" lon="10.2550946"><ele>719.5714285714286</ele><time>2026-04-07T10:03:29.924Z</time></trkpt><trkpt lat="44.1747746" lon="10.2551691"><ele>719.8571428571429</ele><time>2026-04-07T10:03:36.919Z</time></trkpt><trkpt lat="44.1747335" lon="10.255245"><ele>720.1428571428571</ele><time>2026-04-07T10:03:42.926Z</time></trkpt><trkpt lat="44.1746759" lon="10.2553036"><ele>720.4285714285714</ele><time>2026-04-07T10:03:47.927Z</time></trkpt><trkpt lat="44.174626" lon="10.2553598"><ele>720.7142857142857</ele><time>2026-04-07T10:03:51.925Z</time></trkpt><trkpt lat="44.1745699" lon="10.2554013"><ele>721.0</ele><time>2026-04-07T10:03:55.923Z</time></trkpt><trkpt lat="44.1745135" lon="10.2554491"><ele>721.0</ele><time>2026-04-07T10:03:59.912Z</time></trkpt><trkpt lat="44.1744597" lon="10.2554987"><ele>721.0</ele><time>2026-04-07T10:04:03.913Z</time></trkpt><trkpt lat="44.1743919" lon="10.2555396"><ele>721.0</ele><time>2026-04-07T10:04:08.916Z</time></trkpt><trkpt lat="44.1743297" lon="10.2555829"><ele>721.0</ele><time>2026-04-07T10:04:13.916Z</time></trkpt><trkpt lat="44.1742663" lon="10.2555936"><ele>721.0</ele><time>2026-04-07T10:04:17.935Z</time></trkpt><trkpt lat="44.1742048" lon="10.2556136"><ele>721.0</ele><time>2026-04-07T10:04:21.917Z</time></trkpt><trkpt lat="44.1741463" lon="10.2556503"><ele>721.0</ele><time>2026-04-07T10:04:25.928Z</time></trkpt><trkpt lat="44.17408" lon="10.255686"><ele>719.2857142857143</ele><time>2026-04-07T10:04:31.932Z</time></trkpt><trkpt lat="44.1740222" lon="10.2557366"><ele>717.5714285714286</ele><time>2026-04-07T10:04:35.939Z</time></trkpt><trkpt lat="44.1739842" lon="10.2558136"><ele>715.8571428571429</ele><time>2026-04-07T10:04:40.912Z</time></trkpt><trkpt lat="44.1739651" lon="10.2559018"><ele>714.1428571428571</ele><time>2026-04-07T10:06:36.916Z</time></trkpt><trkpt lat="44.1739379" lon="10.2559916"><ele>712.4285714285714</ele><time>2026-04-07T10:06:40.93Z</time></trkpt><trkpt lat="44.1739032" lon="10.2560717"><ele>710.7142857142858</ele><time>2026-04-07T10:06:52.924Z</time></trkpt><trkpt lat="44.1738613" lon="10.2561575"><ele>709.0</ele><time>2026-04-07T10:06:57.925Z</time></trkpt><trkpt lat="44.1738295" lon="10.2562409"><ele>709.0000000000001</ele><time>2026-04-07T10:07:01.932Z</time></trkpt><trkpt lat="44.1737925" lon="10.2563137"><ele>709.0</ele><time>2026-04-07T10:07:05.936Z</time></trkpt><trkpt lat="44.1737526" lon="10.2563873"><ele>709.0</ele><time>2026-04-07T10:07:10.93Z</time></trkpt><trkpt lat="44.1737695" lon="10.2564895"><ele>709.0</ele><time>2026-04-07T10:07:15.918Z</time></trkpt><trkpt lat="44.1738076" lon="10.2565641"><ele>709.0</ele><time>2026-04-07T10:07:19.946Z</time></trkpt><trkpt lat="44.1738561" lon="10.2566274"><ele>709.0000000000001</ele><time>2026-04-07T10:07:26.929Z</time></trkpt><trkpt lat="44.1738058" lon="10.2565687"><ele>709.0</ele><time>2026-04-07T10:07:50.932Z</time></trkpt><trkpt lat="44.173767" lon="10.2564893"><ele>709.0000000000001</ele><time>2026-04-07T10:07:54.917Z</time></trkpt><trkpt lat="44.1737363" lon="10.2564043"><ele>709.0</ele><time>2026-04-07T10:07:57.93Z</time></trkpt><trkpt lat="44.1736634" lon="10.2564028"><ele>709.0</ele><time>2026-04-07T10:08:00.914Z</time></trkpt><trkpt lat="44.1735841" lon="10.2563973"><ele>709.0</ele><time>2026-04-07T10:08:03.925Z</time></trkpt><trkpt lat="44.1735018" lon="10.2564039"><ele>709.0</ele><time>2026-04-07T10:08:06.92Z</time></trkpt><trkpt lat="44.1734363" lon="10.2564399"><ele>709.0000000000001</ele><time>2026-04-07T10:08:10.916Z</time></trkpt><trkpt lat="44.1734079" lon="10.2565354"><ele>709.0</ele><time>2026-04-07T10:08:17.935Z</time></trkpt><trkpt lat="44.1733901" lon="10.2566401"><ele>712.1428571428572</ele><time>2026-04-07T10:08:21.941Z</time></trkpt><trkpt lat="44.1733756" lon="10.2567396"><ele>715.2857142857143</ele><time>2026-04-07T10:08:25.919Z</time></trkpt><trkpt lat="44.1733593" lon="10.2568368"><ele>718.4285714285714</ele><time>2026-04-07T10:08:31.918Z</time></trkpt><trkpt lat="44.1733409" lon="10.2569392"><ele>721.5714285714287</ele><time>2026-04-07T10:08:35.92Z</time></trkpt><trkpt lat="44.1733293" lon="10.2570379"><ele>724.7142857142857</ele><time>2026-04-07T10:08:39.926Z</time></trkpt><trkpt lat="44.1733507" lon="10.2571421"><ele>727.8571428571429</ele><time>2026-04-07T10:08:44.914Z</time></trkpt><trkpt lat="44.173388" lon="10.2572259"><ele>731.0</ele><time>2026-04-07T10:08:49.948Z</time></trkpt><trkpt lat="44.1734417" lon="10.2572862"><ele>731.4285714285714</ele><time>2026-04-07T10:08:54.922Z</time></trkpt><trkpt lat="44.1735003" lon="10.2573297"><ele>731.8571428571429</ele><time>2026-04-07T10:08:59.928Z</time></trkpt><trkpt lat="44.173558" lon="10.2573839"><ele>732.2857142857142</ele><time>2026-04-07T10:09:04.924Z</time></trkpt><trkpt lat="44.173637" lon="10.257406"><ele>732.7142857142858</ele><time>2026-04-07T10:09:08.929Z</time></trkpt><trkpt lat="44.173699" lon="10.257432"><ele>733.1428571428572</ele><time>2026-04-07T10:09:13.92Z</time></trkpt><trkpt lat="44.1736275" lon="10.2574002"><ele>733.5714285714286</ele><time>2026-04-07T10:09:23.921Z</time></trkpt><trkpt lat="44.1735591" lon="10.2573742"><ele>734.0</ele><time>2026-04-07T10:09:26.916Z</time></trkpt><trkpt lat="44.1734991" lon="10.2573183"><ele>733.5714285714286</ele><time>2026-04-07T10:09:31.922Z</time></trkpt><trkpt lat="44.1734297" lon="10.2572579"><ele>733.1428571428572</ele><time>2026-04-07T10:09:36.928Z</time></trkpt><trkpt lat="44.173381" lon="10.2571949"><ele>732.7142857142858</ele><time>2026-04-07T10:09:39.927Z</time></trkpt><trkpt lat="44.1733353" lon="10.2571185"><ele>732.2857142857142</ele><time>2026-04-07T10:09:43.926Z</time></trkpt><trkpt lat="44.1733377" lon="10.2570076"><ele>731.8571428571429</ele><time>2026-04-07T10:13:59.92Z</time></trkpt><trkpt lat="44.1733491" lon="10.2569063"><ele>731.4285714285714</ele><time>2026-04-07T10:14:01.913Z</time></trkpt><trkpt lat="44.17336" lon="10.2568068"><ele>731.0</ele><time>2026-04-07T10:14:03.926Z</time></trkpt><trkpt lat="44.1733888" lon="10.2566817"><ele>731.0</ele><time>2026-04-07T10:14:06.918Z</time></trkpt><trkpt lat="44.1733998" lon="10.2565947"><ele>731.0</ele><time>2026-04-07T10:14:08.925Z</time></trkpt><trkpt lat="44.1734257" lon="10.2564904"><ele>731.0</ele><time>2026-04-07T10:14:11.928Z</time></trkpt><trkpt lat="44.1734774" lon="10.2564278"><ele>731.0</ele><time>2026-04-07T10:14:20.928Z</time></trkpt><trkpt lat="44.1735389" lon="10.2564065"><ele>731.0</ele><time>2026-04-07T10:14:24.911Z</time></trkpt><trkpt lat="44.1736157" lon="10.2564004"><ele>731.0</ele><time>2026-04-07T10:14:28.93Z</time></trkpt><trkpt lat="44.173684" lon="10.2563924"><ele>731.0</ele><time>2026-04-07T10:14:32.931Z</time></trkpt><trkpt lat="44.173748" lon="10.2563859"><ele>727.8571428571429</ele><time>2026-04-07T10:14:36.932Z</time></trkpt><trkpt lat="44.1737931" lon="10.2563236"><ele>724.7142857142857</ele><time>2026-04-07T10:14:39.917Z</time></trkpt><trkpt lat="44.1738369" lon="10.2562473"><ele>721.5714285714287</ele><time>2026-04-07T10:14:42.939Z</time></trkpt><trkpt lat="44.1738803" lon="10.2561523"><ele>718.4285714285714</ele><time>2026-04-07T10:14:46.926Z</time></trkpt><trkpt lat="44.1739057" lon="10.2560712"><ele>715.2857142857143</ele><time>2026-04-07T10:14:49.934Z</time></trkpt><trkpt lat="44.1739461" lon="10.2559731"><ele>712.1428571428572</ele><time>2026-04-07T10:14:53.929Z</time></trkpt><trkpt lat="44.1739741" lon="10.2558935"><ele>709.0</ele><time>2026-04-07T10:14:56.939Z</time></trkpt><trkpt lat="44.17401" lon="10.2557911"><ele>711.0</ele><time>2026-04-07T10:15:00.923Z</time></trkpt><trkpt lat="44.1740555" lon="10.2557086"><ele>713.0</ele><time>2026-04-07T10:15:04.929Z</time></trkpt><trkpt lat="44.1741201" lon="10.2556744"><ele>715.0</ele><time>2026-04-07T10:15:10.933Z</time></trkpt><trkpt lat="44.1741971" lon="10.2556398"><ele>717.0</ele><time>2026-04-07T10:15:15.922Z</time></trkpt><trkpt lat="44.1742745" lon="10.2556141"><ele>719.0</ele><time>2026-04-07T10:15:18.926Z</time></trkpt><trkpt lat="44.1743535" lon="10.255581"><ele>721.0</ele><time>2026-04-07T10:15:20.914Z</time></trkpt><trkpt lat="44.1744522" lon="10.2555133"><ele>721.0</ele><time>2026-04-07T10:15:22.934Z</time></trkpt><trkpt lat="44.1745608" lon="10.255436"><ele>721.0</ele><time>2026-04-07T10:15:24.928Z</time></trkpt><trkpt lat="44.174618" lon="10.2553963"><ele>721.0</ele><time>2026-04-07T10:15:25.924Z</time></trkpt><trkpt lat="44.1746751" lon="10.2553297"><ele>721.0</ele><time>2026-04-07T10:15:26.938Z</time></trkpt><trkpt lat="44.174725" lon="10.2552491"><ele>721.0</ele><time>2026-04-07T10:15:27.914Z</time></trkpt><trkpt lat="44.174772" lon="10.2551621"><ele>721.0</ele><time>2026-04-07T10:15:28.919Z</time></trkpt><trkpt lat="44.1748182" lon="10.2550751"><ele>722.3333333333334</ele><time>2026-04-07T10:15:29.929Z</time></trkpt><trkpt lat="44.1748634" lon="10.2549901"><ele>723.6666666666667</ele><time>2026-04-07T10:15:30.917Z</time></trkpt><trkpt lat="44.1748965" lon="10.2549102"><ele>725.0</ele><time>2026-04-07T10:15:31.919Z</time></trkpt><trkpt lat="44.174948" lon="10.2547893"><ele>726.3333333333334</ele><time>2026-04-07T10:15:33.922Z</time></trkpt><trkpt lat="44.1749904" lon="10.2546897"><ele>727.6666666666666</ele><time>2026-04-07T10:15:35.935Z</time></trkpt><trkpt lat="44.1750287" lon="10.2545869"><ele>729.0</ele><time>2026-04-07T10:15:38.927Z</time></trkpt><trkpt lat="44.1750594" lon="10.2545066"><ele>729.8571428571429</ele><time>2026-04-07T10:15:42.923Z</time></trkpt><trkpt lat="44.1750853" lon="10.2544125"><ele>730.7142857142857</ele><time>2026-04-07T10:15:47.935Z</time></trkpt><trkpt lat="44.1750988" lon="10.2543257"><ele>731.5714285714286</ele><time>2026-04-07T10:15:51.932Z</time></trkpt><trkpt lat="44.1751201" lon="10.2542394"><ele>732.4285714285714</ele><time>2026-04-07T10:15:55.938Z</time></trkpt><trkpt lat="44.1751511" lon="10.2541623"><ele>733.2857142857142</ele><time>2026-04-07T10:15:59.926Z</time></trkpt><trkpt lat="44.175211" lon="10.2541336"><ele>734.1428571428571</ele><time>2026-04-07T10:16:06.933Z</time></trkpt><trkpt lat="44.1752773" lon="10.2541332"><ele>735.0</ele><time>2026-04-07T10:16:11.92Z</time></trkpt><trkpt lat="44.1753477" lon="10.2541261"><ele>735.0</ele><time>2026-04-07T10:16:16.923Z</time></trkpt><trkpt lat="44.1754259" lon="10.254096"><ele>735.0</ele><time>2026-04-07T10:16:21.922Z</time></trkpt><trkpt lat="44.1755232" lon="10.2540687"><ele>735.0</ele><time>2026-04-07T10:16:24.935Z</time></trkpt><trkpt lat="44.1756066" lon="10.2540761"><ele>735.0</ele><time>2026-04-07T10:16:26.937Z</time></trkpt><trkpt lat="44.1756645" lon="10.2541139"><ele>735.0</ele><time>2026-04-07T10:16:27.926Z</time></trkpt><trkpt lat="44.1757687" lon="10.2541944"><ele>735.0</ele><time>2026-04-07T10:16:29.925Z</time></trkpt><trkpt lat="44.1758579" lon="10.2543153"><ele>737.0</ele><time>2026-04-07T10:16:31.933Z</time></trkpt><trkpt lat="44.1759612" lon="10.2544119"><ele>739.0</ele><time>2026-04-07T10:16:33.929Z</time></trkpt><trkpt lat="44.176076" lon="10.2544797"><ele>741.0</ele><time>2026-04-07T10:16:35.933Z</time></trkpt><trkpt lat="44.1761791" lon="10.2545331"><ele>743.0</ele><time>2026-04-07T10:16:37.932Z</time></trkpt><trkpt lat="44.1762628" lon="10.2545802"><ele>745.0</ele><time>2026-04-07T10:16:39.941Z</time></trkpt><trkpt lat="44.1763584" lon="10.2545674"><ele>745.0</ele><time>2026-04-07T10:16:41.921Z</time></trkpt><trkpt lat="44.1764682" lon="10.2545683"><ele>745.0</ele><time>2026-04-07T10:16:44.927Z</time></trkpt><trkpt lat="44.1765475" lon="10.2545964"><ele>745.0</ele><time>2026-04-07T10:16:46.925Z</time></trkpt><trkpt lat="44.1766149" lon="10.2546707"><ele>745.0</ele><time>2026-04-07T10:16:48.928Z</time></trkpt><trkpt lat="44.17662" lon="10.2547677"><ele>745.0</ele><time>2026-04-07T10:16:50.94Z</time></trkpt><trkpt lat="44.176579" lon="10.254843"><ele>745.0</ele><time>2026-04-07T10:16:55.922Z</time></trkpt><trkpt lat="44.1765375" lon="10.2549252"><ele>744.4285714285714</ele><time>2026-04-07T10:17:01.928Z</time></trkpt><trkpt lat="44.1765229" lon="10.2550137"><ele>743.8571428571429</ele><time>2026-04-07T10:17:06.91Z</time></trkpt><trkpt lat="44.1765369" lon="10.2551231"><ele>743.2857142857142</ele><time>2026-04-07T10:17:11.923Z</time></trkpt><trkpt lat="44.1765563" lon="10.2552112"><ele>742.7142857142858</ele><time>2026-04-07T10:17:15.929Z</time></trkpt><trkpt lat="44.1765851" lon="10.2552975"><ele>742.1428571428572</ele><time>2026-04-07T10:17:19.945Z</time></trkpt><trkpt lat="44.1766126" lon="10.2553798"><ele>741.5714285714286</ele><time>2026-04-07T10:17:23.92Z</time></trkpt><trkpt lat="44.176644" lon="10.2554627"><ele>741.0</ele><time>2026-04-07T10:17:27.925Z</time></trkpt><trkpt lat="44.1766826" lon="10.2555394"><ele>740.8571428571428</ele><time>2026-04-07T10:17:31.924Z</time></trkpt><trkpt lat="44.1767235" lon="10.2556286"><ele>740.7142857142858</ele><time>2026-04-07T10:17:36.926Z</time></trkpt><trkpt lat="44.1767597" lon="10.2557063"><ele>740.5714285714286</ele><time>2026-04-07T10:17:41.924Z</time></trkpt><trkpt lat="44.1768157" lon="10.2557618"><ele>740.4285714285713</ele><time>2026-04-07T10:17:46.921Z</time></trkpt><trkpt lat="44.1768598" lon="10.2558339"><ele>740.2857142857142</ele><time>2026-04-07T10:17:51.918Z</time></trkpt><trkpt lat="44.1769073" lon="10.2559148"><ele>740.1428571428571</ele><time>2026-04-07T10:17:57.914Z</time></trkpt><trkpt lat="44.176949" lon="10.2559885"><ele>740.0</ele><time>2026-04-07T10:18:02.923Z</time></trkpt><trkpt lat="44.1769925" lon="10.2560663"><ele>739.9999999999999</ele><time>2026-04-07T10:18:07.923Z</time></trkpt><trkpt lat="44.1770207" lon="10.2561462"><ele>740.0</ele><time>2026-04-07T10:18:11.917Z</time></trkpt><trkpt lat="44.1770489" lon="10.2562297"><ele>740.0</ele><time>2026-04-07T10:18:15.919Z</time></trkpt><trkpt lat="44.1770767" lon="10.2563187"><ele>740.0</ele><time>2026-04-07T10:18:19.911Z</time></trkpt><trkpt lat="44.1770907" lon="10.2564249"><ele>740.0</ele><time>2026-04-07T10:18:24.924Z</time></trkpt><trkpt lat="44.1770997" lon="10.2565222"><ele>739.9999999999999</ele><time>2026-04-07T10:18:28.924Z</time></trkpt><trkpt lat="44.1770895" lon="10.2566504"><ele>740.0</ele><time>2026-04-07T10:18:31.918Z</time></trkpt><trkpt lat="44.1771236" lon="10.2567536"><ele>739.8</ele><time>2026-04-07T10:18:34.927Z</time></trkpt><trkpt lat="44.1771816" lon="10.2568234"><ele>739.6</ele><time>2026-04-07T10:18:36.926Z</time></trkpt><trkpt lat="44.1772641" lon="10.2569052"><ele>739.4000000000001</ele><time>2026-04-07T10:18:38.927Z</time></trkpt><trkpt lat="44.1773502" lon="10.2569682"><ele>739.2</ele><time>2026-04-07T10:18:40.916Z</time></trkpt><trkpt lat="44.1774459" lon="10.2569955"><ele>739.0</ele><time>2026-04-07T10:18:42.932Z</time></trkpt><trkpt lat="44.1775278" lon="10.2570187"><ele>738.7142857142858</ele><time>2026-04-07T10:18:44.918Z</time></trkpt><trkpt lat="44.1776055" lon="10.2570325"><ele>738.4285714285714</ele><time>2026-04-07T10:18:46.922Z</time></trkpt><trkpt lat="44.1776709" lon="10.2570685"><ele>738.1428571428571</ele><time>2026-04-07T10:18:48.926Z</time></trkpt><trkpt lat="44.1777151" lon="10.2571506"><ele>737.8571428571429</ele><time>2026-04-07T10:18:52.923Z</time></trkpt><trkpt lat="44.1777389" lon="10.2572424"><ele>737.5714285714286</ele><time>2026-04-07T10:18:58.915Z</time></trkpt><trkpt lat="44.1777708" lon="10.2573288"><ele>737.2857142857143</ele><time>2026-04-07T10:19:03.92Z</time></trkpt><trkpt lat="44.1778273" lon="10.2573863"><ele>737.0</ele><time>2026-04-07T10:19:09.925Z</time></trkpt><trkpt lat="44.1778943" lon="10.2574135"><ele>737.0</ele><time>2026-04-07T10:19:14.912Z</time></trkpt><trkpt lat="44.1779658" lon="10.2574167"><ele>737.0</ele><time>2026-04-07T10:19:19.923Z</time></trkpt><trkpt lat="44.178034" lon="10.2574268"><ele>737.0</ele><time>2026-04-07T10:19:22.925Z</time></trkpt><trkpt lat="44.1781192" lon="10.2574455"><ele>737.0</ele><time>2026-04-07T10:19:25.921Z</time></trkpt><trkpt lat="44.1781815" lon="10.2574691"><ele>737.0</ele><time>2026-04-07T10:19:28.929Z</time></trkpt><trkpt lat="44.1782496" lon="10.2575083"><ele>737.0</ele><time>2026-04-07T10:19:33.92Z</time></trkpt><trkpt lat="44.1783295" lon="10.2575586"><ele>739.8571428571429</ele><time>2026-04-07T10:19:43.918Z</time></trkpt><trkpt lat="44.1783919" lon="10.2575853"><ele>742.7142857142858</ele><time>2026-04-07T10:19:47.928Z</time></trkpt><trkpt lat="44.1784576" lon="10.2576184"><ele>745.5714285714287</ele><time>2026-04-07T10:19:50.922Z</time></trkpt><trkpt lat="44.1785111" lon="10.2576723"><ele>748.4285714285714</ele><time>2026-04-07T10:19:54.92Z</time></trkpt><trkpt lat="44.1785679" lon="10.2577244"><ele>751.2857142857142</ele><time>2026-04-07T10:19:57.918Z</time></trkpt><trkpt lat="44.1786462" lon="10.2577698"><ele>754.1428571428572</ele><time>2026-04-07T10:19:59.922Z</time></trkpt><trkpt lat="44.1787215" lon="10.2578174"><ele>757.0</ele><time>2026-04-07T10:20:01.93Z</time></trkpt><trkpt lat="44.1787898" lon="10.2578759"><ele>757.0</ele><time>2026-04-07T10:20:03.919Z</time></trkpt><trkpt lat="44.1788273" lon="10.2579596"><ele>757.0</ele><time>2026-04-07T10:20:06.932Z</time></trkpt><trkpt lat="44.1788147" lon="10.2580678"><ele>757.0</ele><time>2026-04-07T10:20:11.91Z</time></trkpt><trkpt lat="44.1787832" lon="10.2581515"><ele>757.0</ele><time>2026-04-07T10:20:15.922Z</time></trkpt><trkpt lat="44.1787618" lon="10.2582425"><ele>757.0</ele><time>2026-04-07T10:20:20.91Z</time></trkpt><trkpt lat="44.1787251" lon="10.258328"><ele>757.0</ele><time>2026-04-07T10:20:24.924Z</time></trkpt><trkpt lat="44.1786995" lon="10.258413"><ele>757.0</ele><time>2026-04-07T10:20:29.91Z</time></trkpt><trkpt lat="44.1786615" lon="10.2584978"><ele>755.8571428571429</ele><time>2026-04-07T10:20:34.915Z</time></trkpt><trkpt lat="44.1786507" lon="10.2585993"><ele>754.7142857142857</ele><time>2026-04-07T10:20:40.921Z</time></trkpt><trkpt lat="44.1786347" lon="10.2587002"><ele>753.5714285714286</ele><time>2026-04-07T10:20:46.915Z</time></trkpt><trkpt lat="44.1786139" lon="10.2588"><ele>752.4285714285714</ele><time>2026-04-07T10:20:51.922Z</time></trkpt><trkpt lat="44.1786089" lon="10.2588895"><ele>751.2857142857142</ele><time>2026-04-07T10:20:55.912Z</time></trkpt><trkpt lat="44.1786189" lon="10.2589929"><ele>750.1428571428571</ele><time>2026-04-07T10:21:00.92Z</time></trkpt><trkpt lat="44.1786471" lon="10.2590887"><ele>749.0</ele><time>2026-04-07T10:21:05.915Z</time></trkpt><trkpt lat="44.1786793" lon="10.2591846"><ele>749.0</ele><time>2026-04-07T10:21:10.914Z</time></trkpt><trkpt lat="44.1787283" lon="10.259255"><ele>749.0</ele><time>2026-04-07T10:21:15.928Z</time></trkpt><trkpt lat="44.1787678" lon="10.2593319"><ele>749.0</ele><time>2026-04-07T10:21:19.925Z</time></trkpt><trkpt lat="44.1788089" lon="10.2594197"><ele>749.0</ele><time>2026-04-07T10:21:24.925Z</time></trkpt><trkpt lat="44.1788712" lon="10.2594572"><ele>749.0</ele><time>2026-04-07T10:21:30.913Z</time></trkpt><trkpt lat="44.178939" lon="10.2594745"><ele>749.0</ele><time>2026-04-07T10:21:36.934Z</time></trkpt><trkpt lat="44.1789988" lon="10.2595065"><ele>749.0</ele><time>2026-04-07T10:21:40.919Z</time></trkpt><trkpt lat="44.1790561" lon="10.2595582"><ele>751.0</ele><time>2026-04-07T10:21:44.921Z</time></trkpt><trkpt lat="44.1791154" lon="10.2596127"><ele>753.0</ele><time>2026-04-07T10:21:49.918Z</time></trkpt><trkpt lat="44.1791828" lon="10.2596604"><ele>755.0</ele><time>2026-04-07T10:21:54.93Z</time></trkpt><trkpt lat="44.1792379" lon="10.2597122"><ele>757.0</ele><time>2026-04-07T10:21:59.928Z</time></trkpt><trkpt lat="44.1793006" lon="10.2597569"><ele>759.0</ele><time>2026-04-07T10:22:03.915Z</time></trkpt><trkpt lat="44.1793566" lon="10.2597975"><ele>761.0</ele><time>2026-04-07T10:22:07.925Z</time></trkpt><trkpt lat="44.1794141" lon="10.2598492"><ele>763.0</ele><time>2026-04-07T10:22:12.92Z</time></trkpt><trkpt lat="44.1794689" lon="10.2599104"><ele>763.0</ele><time>2026-04-07T10:22:17.919Z</time></trkpt><trkpt lat="44.1795228" lon="10.2599591"><ele>763.0</ele><time>2026-04-07T10:22:22.921Z</time></trkpt><trkpt lat="44.1795809" lon="10.2600253"><ele>763.0</ele><time>2026-04-07T10:22:26.929Z</time></trkpt><trkpt lat="44.179632" lon="10.2600772"><ele>763.0</ele><time>2026-04-07T10:22:28.931Z</time></trkpt><trkpt lat="44.1796893" lon="10.2601212"><ele>763.0</ele><time>2026-04-07T10:22:30.926Z</time></trkpt><trkpt lat="44.1797588" lon="10.2601748"><ele>763.0</ele><time>2026-04-07T10:22:33.918Z</time></trkpt><trkpt lat="44.1798311" lon="10.2602102"><ele>763.0</ele><time>2026-04-07T10:22:37.923Z</time></trkpt><trkpt lat="44.1798876" lon="10.2602653"><ele>763.0</ele><time>2026-04-07T10:22:41.927Z</time></trkpt><trkpt lat="44.1799041" lon="10.2603615"><ele>763.0</ele><time>2026-04-07T10:22:45.913Z</time></trkpt><trkpt lat="44.1798477" lon="10.2604087"><ele>763.0</ele><time>2026-04-07T10:22:51.923Z</time></trkpt><trkpt lat="44.179787" lon="10.2604412"><ele>763.0</ele><time>2026-04-07T10:22:56.939Z</time></trkpt><trkpt lat="44.1797599" lon="10.2605358"><ele>763.0</ele><time>2026-04-07T10:23:03.926Z</time></trkpt><trkpt lat="44.179785" lon="10.2606255"><ele>763.0</ele><time>2026-04-07T10:23:08.921Z</time></trkpt><trkpt lat="44.1798254" lon="10.2606976"><ele>763.0</ele><time>2026-04-07T10:23:13.925Z</time></trkpt><trkpt lat="44.1798723" lon="10.2607712"><ele>764.5714285714286</ele><time>2026-04-07T10:23:19.925Z</time></trkpt><trkpt lat="44.1799243" lon="10.2608368"><ele>766.1428571428571</ele><time>2026-04-07T10:23:25.922Z</time></trkpt><trkpt lat="44.1799814" lon="10.260903"><ele>767.7142857142858</ele><time>2026-04-07T10:23:31.911Z</time></trkpt><trkpt lat="44.1800377" lon="10.260943"><ele>769.2857142857142</ele><time>2026-04-07T10:23:36.922Z</time></trkpt><trkpt lat="44.1801013" lon="10.2609941"><ele>770.8571428571429</ele><time>2026-04-07T10:23:42.916Z</time></trkpt><trkpt lat="44.1801518" lon="10.2610698"><ele>772.4285714285714</ele><time>2026-04-07T10:23:48.915Z</time></trkpt><trkpt lat="44.1801869" lon="10.2611499"><ele>774.0</ele><time>2026-04-07T10:23:53.918Z</time></trkpt><trkpt lat="44.1802327" lon="10.2612147"><ele>774.0</ele><time>2026-04-07T10:23:58.918Z</time></trkpt><trkpt lat="44.1802765" lon="10.2612791"><ele>774.0</ele><time>2026-04-07T10:24:03.919Z</time></trkpt><trkpt lat="44.1803486" lon="10.2613077"><ele>774.0</ele><time>2026-04-07T10:24:10.932Z</time></trkpt><trkpt lat="44.1804166" lon="10.2613454"><ele>774.0</ele><time>2026-04-07T10:24:16.918Z</time></trkpt><trkpt lat="44.1804839" lon="10.2613914"><ele>774.0</ele><time>2026-04-07T10:24:22.938Z</time></trkpt><trkpt lat="44.1805364" lon="10.2614512"><ele>774.0</ele><time>2026-04-07T10:24:27.933Z</time></trkpt><trkpt lat="44.1805816" lon="10.2615193"><ele>774.0</ele><time>2026-04-07T10:24:32.911Z</time></trkpt><trkpt lat="44.1806221" lon="10.2615886"><ele>775.7142857142858</ele><time>2026-04-07T10:24:37.933Z</time></trkpt><trkpt lat="44.1806672" lon="10.2616665"><ele>777.4285714285714</ele><time>2026-04-07T10:24:42.919Z</time></trkpt><trkpt lat="44.1807179" lon="10.2617245"><ele>779.1428571428571</ele><time>2026-04-07T10:24:47.924Z</time></trkpt><trkpt lat="44.180774" lon="10.2617783"><ele>780.8571428571429</ele><time>2026-04-07T10:24:52.924Z</time></trkpt><trkpt lat="44.1808172" lon="10.261866"><ele>782.5714285714286</ele><time>2026-04-07T10:24:57.931Z</time></trkpt><trkpt lat="44.1808556" lon="10.2619497"><ele>784.2857142857143</ele><time>2026-04-07T10:25:02.922Z</time></trkpt><trkpt lat="44.1809031" lon="10.2620176"><ele>786.0</ele><time>2026-04-07T10:25:07.939Z</time></trkpt><trkpt lat="44.1809628" lon="10.2620685"><ele>786.7142857142858</ele><time>2026-04-07T10:25:13.93Z</time></trkpt><trkpt lat="44.1810143" lon="10.2621293"><ele>787.4285714285714</ele><time>2026-04-07T10:25:18.91Z</time></trkpt><trkpt lat="44.1810616" lon="10.2621977"><ele>788.1428571428571</ele><time>2026-04-07T10:25:23.935Z</time></trkpt><trkpt lat="44.1811116" lon="10.2622674"><ele>788.8571428571429</ele><time>2026-04-07T10:25:28.926Z</time></trkpt><trkpt lat="44.1811674" lon="10.2623257"><ele>789.5714285714286</ele><time>2026-04-07T10:25:33.924Z</time></trkpt><trkpt lat="44.1812187" lon="10.2623795"><ele>790.2857142857143</ele><time>2026-04-07T10:25:38.929Z</time></trkpt><trkpt lat="44.181266" lon="10.2624409"><ele>791.0</ele><time>2026-04-07T10:25:43.933Z</time></trkpt><trkpt lat="44.1813076" lon="10.2625221"><ele>791.1428571428571</ele><time>2026-04-07T10:25:49.931Z</time></trkpt><trkpt lat="44.1813613" lon="10.2625923"><ele>791.2857142857142</ele><time>2026-04-07T10:25:55.918Z</time></trkpt><trkpt lat="44.1814152" lon="10.2626557"><ele>791.4285714285714</ele><time>2026-04-07T10:26:01.924Z</time></trkpt><trkpt lat="44.1814554" lon="10.2627305"><ele>791.5714285714286</ele><time>2026-04-07T10:26:05.926Z</time></trkpt><trkpt lat="44.1814904" lon="10.2628223"><ele>791.7142857142857</ele><time>2026-04-07T10:26:10.931Z</time></trkpt><trkpt lat="44.1815527" lon="10.2628425"><ele>791.8571428571429</ele><time>2026-04-07T10:26:15.943Z</time></trkpt><trkpt lat="44.181618" lon="10.2628709"><ele>792.0</ele><time>2026-04-07T10:26:21.928Z</time></trkpt><trkpt lat="44.1816816" lon="10.2628959"><ele>793.4285714285714</ele><time>2026-04-07T10:26:27.935Z</time></trkpt><trkpt lat="44.1817485" lon="10.2629363"><ele>794.8571428571428</ele><time>2026-04-07T10:26:33.928Z</time></trkpt><trkpt lat="44.1818166" lon="10.2629644"><ele>796.2857142857142</ele><time>2026-04-07T10:26:39.927Z</time></trkpt><trkpt lat="44.1818909" lon="10.262989"><ele>797.7142857142858</ele><time>2026-04-07T10:26:44.926Z</time></trkpt><trkpt lat="44.1819597" lon="10.2630076"><ele>799.1428571428571</ele><time>2026-04-07T10:26:49.924Z</time></trkpt><trkpt lat="44.1820313" lon="10.2630141"><ele>800.5714285714286</ele><time>2026-04-07T10:26:55.929Z</time></trkpt><trkpt lat="44.1821007" lon="10.2630346"><ele>802.0</ele><time>2026-04-07T10:27:01.922Z</time></trkpt><trkpt lat="44.1821726" lon="10.2630403"><ele>802.0</ele><time>2026-04-07T10:27:07.919Z</time></trkpt><trkpt lat="44.1822387" lon="10.2630348"><ele>802.0</ele><time>2026-04-07T10:27:13.922Z</time></trkpt><trkpt lat="44.1823103" lon="10.2630506"><ele>802.0</ele><time>2026-04-07T10:27:19.929Z</time></trkpt><trkpt lat="44.1823833" lon="10.2630586"><ele>802.0</ele><time>2026-04-07T10:27:25.936Z</time></trkpt><trkpt lat="44.1824518" lon="10.2630567"><ele>802.0</ele><time>2026-04-07T10:27:31.926Z</time></trkpt><trkpt lat="44.1825116" lon="10.2630287"><ele>802.0</ele><time>2026-04-07T10:27:36.922Z</time></trkpt><trkpt lat="44.1825827" lon="10.2630204"><ele>802.0</ele><time>2026-04-07T10:27:42.939Z</time></trkpt><trkpt lat="44.1826489" lon="10.2630114"><ele>803.4285714285714</ele><time>2026-04-07T10:27:48.925Z</time></trkpt><trkpt lat="44.1827122" lon="10.2630147"><ele>804.8571428571429</ele><time>2026-04-07T10:27:53.947Z</time></trkpt><trkpt lat="44.1827727" lon="10.2630633"><ele>806.2857142857142</ele><time>2026-04-07T10:28:00.912Z</time></trkpt><trkpt lat="44.1828354" lon="10.263025"><ele>807.7142857142858</ele><time>2026-04-07T10:28:08.92Z</time></trkpt><trkpt lat="44.1828788" lon="10.2629406"><ele>809.1428571428571</ele><time>2026-04-07T10:28:14.94Z</time></trkpt><trkpt lat="44.1829179" lon="10.2628711"><ele>810.5714285714286</ele><time>2026-04-07T10:28:18.917Z</time></trkpt><trkpt lat="44.1829502" lon="10.2627889"><ele>812.0</ele><time>2026-04-07T10:28:23.935Z</time></trkpt><trkpt lat="44.182985" lon="10.2627001"><ele>812.0</ele><time>2026-04-07T10:28:28.929Z</time></trkpt><trkpt lat="44.1830068" lon="10.2626046"><ele>812.0</ele><time>2026-04-07T10:28:33.919Z</time></trkpt><trkpt lat="44.183015" lon="10.2625139"><ele>812.0</ele><time>2026-04-07T10:28:38.938Z</time></trkpt><trkpt lat="44.1830436" lon="10.2624341"><ele>812.0</ele><time>2026-04-07T10:28:42.942Z</time></trkpt><trkpt lat="44.1830836" lon="10.2623526"><ele>812.0</ele><time>2026-04-07T10:28:47.929Z</time></trkpt><trkpt lat="44.1831315" lon="10.2622799"><ele>812.0</ele><time>2026-04-07T10:28:52.926Z</time></trkpt><trkpt lat="44.183188" lon="10.2622301"><ele>812.0</ele><time>2026-04-07T10:28:58.924Z</time></trkpt><trkpt lat="44.1832536" lon="10.262201"><ele>815.2857142857143</ele><time>2026-04-07T10:29:05.925Z</time></trkpt><trkpt lat="44.1833242" lon="10.2621789"><ele>818.5714285714286</ele><time>2026-04-07T10:29:11.938Z</time></trkpt><trkpt lat="44.1833962" lon="10.2621466"><ele>821.8571428571429</ele><time>2026-04-07T10:29:15.921Z</time></trkpt><trkpt lat="44.1834592" lon="10.2621266"><ele>825.1428571428571</ele><time>2026-04-07T10:29:18.926Z</time></trkpt><trkpt lat="44.1835296" lon="10.2620834"><ele>828.4285714285714</ele><time>2026-04-07T10:29:22.925Z</time></trkpt><trkpt lat="44.1835642" lon="10.261996"><ele>831.7142857142858</ele><time>2026-04-07T10:29:27.936Z</time></trkpt><trkpt lat="44.183591" lon="10.2619078"><ele>835.0</ele><time>2026-04-07T10:29:33.927Z</time></trkpt><trkpt lat="44.1836061" lon="10.2618029"><ele>835.0000000000001</ele><time>2026-04-07T10:29:38.926Z</time></trkpt><trkpt lat="44.1836064" lon="10.2617129"><ele>835.0</ele><time>2026-04-07T10:29:43.929Z</time></trkpt><trkpt lat="44.1836042" lon="10.2615972"><ele>835.0</ele><time>2026-04-07T10:29:47.926Z</time></trkpt><trkpt lat="44.1836004" lon="10.2614956"><ele>835.0</ele><time>2026-04-07T10:29:51.948Z</time></trkpt><trkpt lat="44.1835918" lon="10.2614084"><ele>835.0</ele><time>2026-04-07T10:29:55.917Z</time></trkpt><trkpt lat="44.1836043" lon="10.261318"><ele>835.0000000000001</ele><time>2026-04-07T10:29:59.942Z</time></trkpt><trkpt lat="44.1836362" lon="10.2612381"><ele>835.0</ele><time>2026-04-07T10:30:04.924Z</time></trkpt><trkpt lat="44.1836732" lon="10.2611631"><ele>836.7142857142858</ele><time>2026-04-07T10:30:10.931Z</time></trkpt><trkpt lat="44.1837114" lon="10.2610751"><ele>838.4285714285714</ele><time>2026-04-07T10:30:15.912Z</time></trkpt><trkpt lat="44.1837263" lon="10.2609867"><ele>840.1428571428571</ele><time>2026-04-07T10:30:20.918Z</time></trkpt><trkpt lat="44.1837505" lon="10.2608908"><ele>841.8571428571429</ele><time>2026-04-07T10:30:25.929Z</time></trkpt><trkpt lat="44.1837896" lon="10.2608135"><ele>843.5714285714286</ele><time>2026-04-07T10:30:37.928Z</time></trkpt><trkpt lat="44.1837652" lon="10.260728"><ele>845.2857142857143</ele><time>2026-04-07T10:30:42.941Z</time></trkpt><trkpt lat="44.1837376" lon="10.2606207"><ele>847.0</ele><time>2026-04-07T10:30:45.934Z</time></trkpt><trkpt lat="44.1837191" lon="10.2605117"><ele>847.0</ele><time>2026-04-07T10:30:48.924Z</time></trkpt><trkpt lat="44.1836981" lon="10.2604023"><ele>847.0</ele><time>2026-04-07T10:30:51.93Z</time></trkpt><trkpt lat="44.1836882" lon="10.2602888"><ele>847.0</ele><time>2026-04-07T10:30:54.936Z</time></trkpt><trkpt lat="44.1836574" lon="10.2602112"><ele>847.0</ele><time>2026-04-07T10:30:57.919Z</time></trkpt><trkpt lat="44.1835867" lon="10.2601522"><ele>847.0</ele><time>2026-04-07T10:31:01.944Z</time></trkpt><trkpt lat="44.1835621" lon="10.2600596"><ele>847.0</ele><time>2026-04-07T10:31:04.925Z</time></trkpt><trkpt lat="44.1835383" lon="10.2599743"><ele>847.0</ele><time>2026-04-07T10:31:09.92Z</time></trkpt><trkpt lat="44.1835539" lon="10.2598819"><ele>847.0</ele><time>2026-04-07T10:31:14.918Z</time></trkpt><trkpt lat="44.183575" lon="10.2597965"><ele>847.0</ele><time>2026-04-07T10:31:17.917Z</time></trkpt><trkpt lat="44.1835594" lon="10.2596979"><ele>847.0</ele><time>2026-04-07T10:31:21.932Z</time></trkpt><trkpt lat="44.1835158" lon="10.2596091"><ele>847.0</ele><time>2026-04-07T10:31:26.933Z</time></trkpt><trkpt lat="44.1835042" lon="10.2595187"><ele>847.0</ele><time>2026-04-07T10:31:30.935Z</time></trkpt><trkpt lat="44.1835611" lon="10.2594758"><ele>847.0</ele><time>2026-04-07T10:31:35.92Z</time></trkpt><trkpt lat="44.1836063" lon="10.2595547"><ele>847.0</ele><time>2026-04-07T10:31:39.933Z</time></trkpt><trkpt lat="44.1836608" lon="10.2596248"><ele>847.0</ele><time>2026-04-07T10:31:43.926Z</time></trkpt><trkpt lat="44.1837208" lon="10.2596937"><ele>847.0</ele><time>2026-04-07T10:31:45.924Z</time></trkpt><trkpt lat="44.1837891" lon="10.2597725"><ele>847.0</ele><time>2026-04-07T10:31:47.926Z</time></trkpt><trkpt lat="44.1838504" lon="10.2598595"><ele>847.0</ele><time>2026-04-07T10:31:49.917Z</time></trkpt><trkpt lat="44.1839385" lon="10.2599573"><ele>847.0</ele><time>2026-04-07T10:31:51.929Z</time></trkpt><trkpt lat="44.1840319" lon="10.2600384"><ele>841.0</ele><time>2026-04-07T10:31:53.923Z</time></trkpt><trkpt lat="44.1841112" lon="10.2601154"><ele>835.0</ele><time>2026-04-07T10:31:55.92Z</time></trkpt><trkpt lat="44.1842095" lon="10.2601577"><ele>829.0</ele><time>2026-04-07T10:31:57.933Z</time></trkpt><trkpt lat="44.1843217" lon="10.2601718"><ele>823.0</ele><time>2026-04-07T10:31:59.919Z</time></trkpt><trkpt lat="44.18442" lon="10.2601929"><ele>817.0</ele><time>2026-04-07T10:32:01.926Z</time></trkpt><trkpt lat="44.1845005" lon="10.260223"><ele>816.9999999999999</ele><time>2026-04-07T10:32:03.926Z</time></trkpt><trkpt lat="44.1845736" lon="10.2602518"><ele>817.0</ele><time>2026-04-07T10:32:06.918Z</time></trkpt><trkpt lat="44.1846446" lon="10.260278"><ele>817.0</ele><time>2026-04-07T10:32:11.925Z</time></trkpt><trkpt lat="44.1847095" lon="10.2603225"><ele>817.0</ele><time>2026-04-07T10:32:15.919Z</time></trkpt><trkpt lat="44.1847721" lon="10.2603645"><ele>816.9999999999999</ele><time>2026-04-07T10:32:19.921Z</time></trkpt><trkpt lat="44.1848455" lon="10.2604234"><ele>817.0</ele><time>2026-04-07T10:32:23.931Z</time></trkpt><trkpt lat="44.1849208" lon="10.2604205"><ele>816.6666666666666</ele><time>2026-04-07T10:32:28.912Z</time></trkpt><trkpt lat="44.1850049" lon="10.2604086"><ele>816.3333333333333</ele><time>2026-04-07T10:32:33.927Z</time></trkpt><trkpt lat="44.1850639" lon="10.2604539"><ele>816.0</ele><time>2026-04-07T10:32:36.928Z</time></trkpt><trkpt lat="44.1851112" lon="10.2605315"><ele>815.6666666666667</ele><time>2026-04-07T10:32:39.932Z</time></trkpt><trkpt lat="44.1851769" lon="10.2606179"><ele>815.3333333333334</ele><time>2026-04-07T10:32:42.927Z</time></trkpt><trkpt lat="44.1852306" lon="10.260667"><ele>815.0</ele><time>2026-04-07T10:32:44.935Z</time></trkpt><trkpt lat="44.1852923" lon="10.2607244"><ele>815.0</ele><time>2026-04-07T10:32:47.937Z</time></trkpt><trkpt lat="44.1853406" lon="10.2607908"><ele>815.0</ele><time>2026-04-07T10:32:50.921Z</time></trkpt><trkpt lat="44.1853781" lon="10.2608848"><ele>815.0</ele><time>2026-04-07T10:32:53.923Z</time></trkpt><trkpt lat="44.185402" lon="10.2609755"><ele>815.0</ele><time>2026-04-07T10:32:56.924Z</time></trkpt><trkpt lat="44.1854112" lon="10.2610785"><ele>815.0</ele><time>2026-04-07T10:33:00.934Z</time></trkpt><trkpt lat="44.1854069" lon="10.2611838"><ele>815.0</ele><time>2026-04-07T10:33:03.926Z</time></trkpt><trkpt lat="44.1853987" lon="10.2613008"><ele>815.0</ele><time>2026-04-07T10:33:06.926Z</time></trkpt><trkpt lat="44.1854262" lon="10.2614251"><ele>813.3333333333334</ele><time>2026-04-07T10:33:09.94Z</time></trkpt><trkpt lat="44.1854843" lon="10.2614867"><ele>811.6666666666667</ele><time>2026-04-07T10:33:11.925Z</time></trkpt><trkpt lat="44.1855869" lon="10.2615332"><ele>810.0</ele><time>2026-04-07T10:33:13.92Z</time></trkpt><trkpt lat="44.1856668" lon="10.2615619"><ele>808.3333333333333</ele><time>2026-04-07T10:33:15.95Z</time></trkpt><trkpt lat="44.1857671" lon="10.2616023"><ele>806.6666666666666</ele><time>2026-04-07T10:33:18.923Z</time></trkpt><trkpt lat="44.1858409" lon="10.2616238"><ele>805.0</ele><time>2026-04-07T10:33:25.93Z</time></trkpt><trkpt lat="44.185908" lon="10.2616534"><ele>802.4999999999999</ele><time>2026-04-07T10:33:30.915Z</time></trkpt><trkpt lat="44.1859783" lon="10.2616962"><ele>800.0</ele><time>2026-04-07T10:33:33.925Z</time></trkpt><trkpt lat="44.1860289" lon="10.2617784"><ele>797.5</ele><time>2026-04-07T10:33:36.914Z</time></trkpt><trkpt lat="44.1861162" lon="10.2618308"><ele>795.0</ele><time>2026-04-07T10:33:39.922Z</time></trkpt><trkpt lat="44.1861773" lon="10.2618821"><ele>792.4999999999999</ele><time>2026-04-07T10:33:42.922Z</time></trkpt><trkpt lat="44.186237" lon="10.2619132"><ele>790.0</ele><time>2026-04-07T10:33:46.935Z</time></trkpt><trkpt lat="44.1863022" lon="10.2619377"><ele>789.9999999999999</ele><time>2026-04-07T10:33:49.922Z</time></trkpt><trkpt lat="44.1863872" lon="10.2619289"><ele>790.0</ele><time>2026-04-07T10:34:09.923Z</time></trkpt><trkpt lat="44.1863761" lon="10.2618256"><ele>790.0</ele><time>2026-04-07T10:34:12.93Z</time></trkpt><trkpt lat="44.1863629" lon="10.2617153"><ele>790.0</ele><time>2026-04-07T10:34:14.932Z</time></trkpt><trkpt lat="44.1863376" lon="10.2616181"><ele>789.9999999999999</ele><time>2026-04-07T10:34:17.919Z</time></trkpt><trkpt lat="44.1863264" lon="10.2615047"><ele>790.0</ele><time>2026-04-07T10:34:19.925Z</time></trkpt><trkpt lat="44.1863266" lon="10.261415"><ele>789.8333333333333</ele><time>2026-04-07T10:34:21.922Z</time></trkpt><trkpt lat="44.1863255" lon="10.2613259"><ele>789.6666666666666</ele><time>2026-04-07T10:34:23.922Z</time></trkpt><trkpt lat="44.1863091" lon="10.2612225"><ele>789.5</ele><time>2026-04-07T10:34:25.919Z</time></trkpt><trkpt lat="44.1862619" lon="10.261095"><ele>789.3333333333333</ele><time>2026-04-07T10:34:27.929Z</time></trkpt><trkpt lat="44.1862154" lon="10.2609878"><ele>789.1666666666666</ele><time>2026-04-07T10:34:29.933Z</time></trkpt><trkpt lat="44.1861517" lon="10.2608808"><ele>789.0</ele><time>2026-04-07T10:34:31.927Z</time></trkpt><trkpt lat="44.1860943" lon="10.2607732"><ele>789.0</ele><time>2026-04-07T10:34:33.922Z</time></trkpt><trkpt lat="44.1860672" lon="10.2606756"><ele>789.0</ele><time>2026-04-07T10:34:35.924Z</time></trkpt><trkpt lat="44.1860888" lon="10.260557"><ele>789.0</ele><time>2026-04-07T10:34:38.923Z</time></trkpt><trkpt lat="44.1861069" lon="10.2604555"><ele>789.0</ele><time>2026-04-07T10:34:41.928Z</time></trkpt><trkpt lat="44.186142" lon="10.2603565"><ele>789.0</ele><time>2026-04-07T10:34:45.925Z</time></trkpt><trkpt lat="44.1861793" lon="10.2602739"><ele>789.0</ele><time>2026-04-07T10:34:50.916Z</time></trkpt><trkpt lat="44.1861896" lon="10.2601723"><ele>788.8571428571428</ele><time>2026-04-07T10:34:55.924Z</time></trkpt><trkpt lat="44.1861667" lon="10.2600819"><ele>788.7142857142857</ele><time>2026-04-07T10:34:59.933Z</time></trkpt><trkpt lat="44.1861452" lon="10.2599895"><ele>788.5714285714286</ele><time>2026-04-07T10:35:04.923Z</time></trkpt><trkpt lat="44.1861203" lon="10.2598887"><ele>788.4285714285713</ele><time>2026-04-07T10:35:10.934Z</time></trkpt><trkpt lat="44.1861022" lon="10.259787"><ele>788.2857142857143</ele><time>2026-04-07T10:35:16.918Z</time></trkpt><trkpt lat="44.1860614" lon="10.2596959"><ele>788.1428571428571</ele><time>2026-04-07T10:35:21.931Z</time></trkpt><trkpt lat="44.1860172" lon="10.259619"><ele>788.0</ele><time>2026-04-07T10:35:26.922Z</time></trkpt><trkpt lat="44.1859858" lon="10.2595033"><ele>785.5000000000001</ele><time>2026-04-07T10:35:31.911Z</time></trkpt><trkpt lat="44.1859527" lon="10.2593962"><ele>783.0</ele><time>2026-04-07T10:35:34.925Z</time></trkpt><trkpt lat="44.1859308" lon="10.2592988"><ele>780.5</ele><time>2026-04-07T10:35:36.928Z</time></trkpt><trkpt lat="44.1858844" lon="10.2591897"><ele>778.0</ele><time>2026-04-07T10:35:38.935Z</time></trkpt><trkpt lat="44.1858327" lon="10.2591095"><ele>775.5000000000001</ele><time>2026-04-07T10:35:40.924Z</time></trkpt><trkpt lat="44.1857786" lon="10.2590146"><ele>773.0</ele><time>2026-04-07T10:35:43.919Z</time></trkpt><trkpt lat="44.1857294" lon="10.2589417"><ele>773.1428571428571</ele><time>2026-04-07T10:35:45.925Z</time></trkpt><trkpt lat="44.1856698" lon="10.2588515"><ele>773.2857142857142</ele><time>2026-04-07T10:35:48.926Z</time></trkpt><trkpt lat="44.1856374" lon="10.2587662"><ele>773.4285714285714</ele><time>2026-04-07T10:35:52.925Z</time></trkpt><trkpt lat="44.1856155" lon="10.2586803"><ele>773.5714285714286</ele><time>2026-04-07T10:35:56.93Z</time></trkpt><trkpt lat="44.1855855" lon="10.2585957"><ele>773.7142857142858</ele><time>2026-04-07T10:36:02.927Z</time></trkpt><trkpt lat="44.1856103" lon="10.2585004"><ele>773.8571428571429</ele><time>2026-04-07T10:36:06.917Z</time></trkpt><trkpt lat="44.1855812" lon="10.2583871"><ele>774.0</ele><time>2026-04-07T10:36:09.927Z</time></trkpt><trkpt lat="44.1855776" lon="10.2582976"><ele>774.0</ele><time>2026-04-07T10:36:11.911Z</time></trkpt><trkpt lat="44.1856067" lon="10.2581997"><ele>774.0</ele><time>2026-04-07T10:36:14.918Z</time></trkpt><trkpt lat="44.1856567" lon="10.2581208"><ele>774.0</ele><time>2026-04-07T10:36:17.918Z</time></trkpt><trkpt lat="44.1856949" lon="10.258041"><ele>774.0</ele><time>2026-04-07T10:36:20.911Z</time></trkpt><trkpt lat="44.1857027" lon="10.2579326"><ele>774.0</ele><time>2026-04-07T10:36:24.913Z</time></trkpt><trkpt lat="44.1856702" lon="10.2578397"><ele>774.0</ele><time>2026-04-07T10:36:28.913Z</time></trkpt><trkpt lat="44.1856062" lon="10.2577551"><ele>773.1428571428571</ele><time>2026-04-07T10:36:31.918Z</time></trkpt><trkpt lat="44.1855542" lon="10.2576882"><ele>772.2857142857143</ele><time>2026-04-07T10:36:33.921Z</time></trkpt><trkpt lat="44.1854861" lon="10.2576416"><ele>771.4285714285713</ele><time>2026-04-07T10:36:39.925Z</time></trkpt><trkpt lat="44.1854097" lon="10.2576153"><ele>770.5714285714286</ele><time>2026-04-07T10:36:44.931Z</time></trkpt><trkpt lat="44.185352" lon="10.2575554"><ele>769.7142857142857</ele><time>2026-04-07T10:36:49.915Z</time></trkpt><trkpt lat="44.1853363" lon="10.2574592"><ele>768.8571428571428</ele><time>2026-04-07T10:36:55.918Z</time></trkpt><trkpt lat="44.1853216" lon="10.2573612"><ele>768.0</ele><time>2026-04-07T10:37:01.932Z</time></trkpt><trkpt lat="44.1852914" lon="10.2572762"><ele>766.5714285714286</ele><time>2026-04-07T10:37:06.932Z</time></trkpt><trkpt lat="44.1852436" lon="10.2571895"><ele>765.1428571428571</ele><time>2026-04-07T10:37:10.922Z</time></trkpt><trkpt lat="44.1851903" lon="10.2571109"><ele>763.7142857142858</ele><time>2026-04-07T10:37:15.925Z</time></trkpt><trkpt lat="44.1851432" lon="10.2570392"><ele>762.2857142857142</ele><time>2026-04-07T10:37:20.916Z</time></trkpt><trkpt lat="44.1851109" lon="10.2569566"><ele>760.8571428571429</ele><time>2026-04-07T10:37:25.924Z</time></trkpt><trkpt lat="44.1850723" lon="10.2568654"><ele>759.4285714285714</ele><time>2026-04-07T10:37:29.926Z</time></trkpt><trkpt lat="44.185036" lon="10.2567893"><ele>758.0</ele><time>2026-04-07T10:37:33.923Z</time></trkpt><trkpt lat="44.1850033" lon="10.2567047"><ele>758.0</ele><time>2026-04-07T10:37:38.922Z</time></trkpt><trkpt lat="44.1849442" lon="10.2566337"><ele>758.0</ele><time>2026-04-07T10:37:41.927Z</time></trkpt><trkpt lat="44.1848877" lon="10.2565933"><ele>758.0</ele><time>2026-04-07T10:37:43.921Z</time></trkpt><trkpt lat="44.1848151" lon="10.2565181"><ele>758.0</ele><time>2026-04-07T10:37:46.94Z</time></trkpt><trkpt lat="44.1847598" lon="10.256469"><ele>758.0</ele><time>2026-04-07T10:37:48.932Z</time></trkpt><trkpt lat="44.1846959" lon="10.2564124"><ele>758.0</ele><time>2026-04-07T10:37:51.919Z</time></trkpt><trkpt lat="44.1846365" lon="10.2563426"><ele>757.3333333333333</ele><time>2026-04-07T10:37:54.936Z</time></trkpt><trkpt lat="44.1845911" lon="10.2562233"><ele>756.6666666666666</ele><time>2026-04-07T10:37:57.925Z</time></trkpt><trkpt lat="44.1845623" lon="10.2561365"><ele>756.0</ele><time>2026-04-07T10:37:59.928Z</time></trkpt><trkpt lat="44.184529" lon="10.2560367"><ele>755.3333333333334</ele><time>2026-04-07T10:38:02.932Z</time></trkpt><trkpt lat="44.1844925" lon="10.255941"><ele>754.6666666666667</ele><time>2026-04-07T10:38:05.934Z</time></trkpt><trkpt lat="44.184422" lon="10.2559003"><ele>754.0</ele><time>2026-04-07T10:38:08.917Z</time></trkpt><trkpt lat="44.1843598" lon="10.255858"><ele>754.0</ele><time>2026-04-07T10:38:12.942Z</time></trkpt><trkpt lat="44.18436" lon="10.2557697"><ele>754.0</ele><time>2026-04-07T10:38:17.93Z</time></trkpt><trkpt lat="44.1843537" lon="10.2556555"><ele>754.0</ele><time>2026-04-07T10:38:22.921Z</time></trkpt><trkpt lat="44.1842841" lon="10.2555646"><ele>754.0</ele><time>2026-04-07T10:38:27.931Z</time></trkpt><trkpt lat="44.184221" lon="10.2555044"><ele>754.0</ele><time>2026-04-07T10:38:30.922Z</time></trkpt><trkpt lat="44.1841769" lon="10.2554335"><ele>754.0</ele><time>2026-04-07T10:38:41.924Z</time></trkpt><trkpt lat="44.1841589" lon="10.2553253"><ele>753.9999999999999</ele><time>2026-04-07T10:39:03.931Z</time></trkpt><trkpt lat="44.1841425" lon="10.2552257"><ele>754.0</ele><time>2026-04-07T10:39:09.92Z</time></trkpt><trkpt lat="44.1841307" lon="10.2551232"><ele>754.0</ele><time>2026-04-07T10:39:14.923Z</time></trkpt><trkpt lat="44.1841496" lon="10.2550261"><ele>754.0</ele><time>2026-04-07T10:39:20.928Z</time></trkpt><trkpt lat="44.1842025" lon="10.2549761"><ele>754.0</ele><time>2026-04-07T10:39:26.914Z</time></trkpt><trkpt lat="44.184257" lon="10.2549053"><ele>753.9999999999999</ele><time>2026-04-07T10:39:31.914Z</time></trkpt><trkpt lat="44.1843231" lon="10.2548515"><ele>754.0</ele><time>2026-04-07T10:39:36.919Z</time></trkpt><trkpt lat="44.1843807" lon="10.2548014"><ele>755.9999999999999</ele><time>2026-04-07T10:39:40.929Z</time></trkpt><trkpt lat="44.1844445" lon="10.2547581"><ele>758.0</ele><time>2026-04-07T10:39:45.918Z</time></trkpt><trkpt lat="44.1845085" lon="10.2547085"><ele>760.0</ele><time>2026-04-07T10:39:50.918Z</time></trkpt><trkpt lat="44.1845607" lon="10.254659"><ele>762.0</ele><time>2026-04-07T10:39:54.912Z</time></trkpt><trkpt lat="44.1846194" lon="10.2545949"><ele>764.0</ele><time>2026-04-07T10:39:58.93Z</time></trkpt><trkpt lat="44.1846696" lon="10.2545231"><ele>765.9999999999999</ele><time>2026-04-07T10:40:03.908Z</time></trkpt><trkpt lat="44.1847052" lon="10.2544364"><ele>768.0</ele><time>2026-04-07T10:40:08.92Z</time></trkpt><trkpt lat="44.1847238" lon="10.2543395"><ele>767.9999999999999</ele><time>2026-04-07T10:40:13.934Z</time></trkpt><trkpt lat="44.1846985" lon="10.2542476"><ele>768.0</ele><time>2026-04-07T10:40:19.915Z</time></trkpt><trkpt lat="44.1846704" lon="10.254156"><ele>768.0</ele><time>2026-04-07T10:40:25.919Z</time></trkpt><trkpt lat="44.1846498" lon="10.2540713"><ele>768.0</ele><time>2026-04-07T10:40:31.929Z</time></trkpt><trkpt lat="44.184645" lon="10.2539776"><ele>768.0</ele><time>2026-04-07T10:40:36.911Z</time></trkpt><trkpt lat="44.1846308" lon="10.2538887"><ele>767.9999999999999</ele><time>2026-04-07T10:40:40.93Z</time></trkpt><trkpt lat="44.1846214" lon="10.2537843"><ele>768.0</ele><time>2026-04-07T10:40:45.919Z</time></trkpt><trkpt lat="44.1846267" lon="10.2536936"><ele>770.1428571428571</ele><time>2026-04-07T10:40:49.923Z</time></trkpt><trkpt lat="44.1846356" lon="10.2536046"><ele>772.2857142857142</ele><time>2026-04-07T10:40:53.916Z</time></trkpt><trkpt lat="44.1846373" lon="10.2535109"><ele>774.4285714285713</ele><time>2026-04-07T10:40:57.926Z</time></trkpt><trkpt lat="44.1846339" lon="10.253408"><ele>776.5714285714286</ele><time>2026-04-07T10:41:02.93Z</time></trkpt><trkpt lat="44.1846443" lon="10.2533195"><ele>778.7142857142858</ele><time>2026-04-07T10:41:06.924Z</time></trkpt><trkpt lat="44.1846747" lon="10.2532302"><ele>780.8571428571428</ele><time>2026-04-07T10:41:11.919Z</time></trkpt><trkpt lat="44.1846901" lon="10.2531392"><ele>783.0</ele><time>2026-04-07T10:41:16.922Z</time></trkpt><trkpt lat="44.1846974" lon="10.2530499"><ele>785.1666666666666</ele><time>2026-04-07T10:41:27.929Z</time></trkpt><trkpt lat="44.184716" lon="10.2529656"><ele>787.3333333333333</ele><time>2026-04-07T10:41:45.917Z</time></trkpt><trkpt lat="44.1847556" lon="10.2528588"><ele>789.5</ele><time>2026-04-07T10:43:44.934Z</time></trkpt><trkpt lat="44.184808" lon="10.2528007"><ele>791.6666666666666</ele><time>2026-04-07T10:43:58.913Z</time></trkpt><trkpt lat="44.1848673" lon="10.2527427"><ele>793.8333333333333</ele><time>2026-04-07T10:44:02.927Z</time></trkpt><trkpt lat="44.1849416" lon="10.2526661"><ele>796.0</ele><time>2026-04-07T10:44:05.92Z</time></trkpt><trkpt lat="44.1849946" lon="10.2526049"><ele>789.3333333333333</ele><time>2026-04-07T10:44:07.914Z</time></trkpt><trkpt lat="44.1850397" lon="10.2525301"><ele>782.6666666666666</ele><time>2026-04-07T10:44:09.919Z</time></trkpt><trkpt lat="44.1850844" lon="10.252419"><ele>776.0</ele><time>2026-04-07T10:44:12.931Z</time></trkpt><trkpt lat="44.1851291" lon="10.2523263"><ele>769.3333333333333</ele><time>2026-04-07T10:44:14.931Z</time></trkpt><trkpt lat="44.1851738" lon="10.2522426"><ele>762.6666666666666</ele><time>2026-04-07T10:44:16.926Z</time></trkpt><trkpt lat="44.1851838" lon="10.2521389"><ele>756.0</ele><time>2026-04-07T10:44:18.926Z</time></trkpt><trkpt lat="44.1851577" lon="10.2520562"><ele>755.1428571428571</ele><time>2026-04-07T10:44:20.925Z</time></trkpt><trkpt lat="44.1851373" lon="10.2519725"><ele>754.2857142857142</ele><time>2026-04-07T10:44:22.924Z</time></trkpt><trkpt lat="44.1851347" lon="10.2518829"><ele>753.4285714285714</ele><time>2026-04-07T10:44:24.928Z</time></trkpt><trkpt lat="44.1851674" lon="10.2517842"><ele>752.5714285714286</ele><time>2026-04-07T10:44:26.928Z</time></trkpt><trkpt lat="44.1851945" lon="10.2516817"><ele>751.7142857142857</ele><time>2026-04-07T10:44:28.921Z</time></trkpt><trkpt lat="44.1851759" lon="10.2515895"><ele>750.8571428571429</ele><time>2026-04-07T10:44:30.933Z</time></trkpt><trkpt lat="44.1851453" lon="10.251504"><ele>750.0</ele><time>2026-04-07T10:44:32.919Z</time></trkpt><trkpt lat="44.1850932" lon="10.2514494"><ele>748.3333333333334</ele><time>2026-04-07T10:44:34.937Z</time></trkpt><trkpt lat="44.185003" lon="10.2514028"><ele>746.6666666666666</ele><time>2026-04-07T10:44:37.918Z</time></trkpt><trkpt lat="44.1849466" lon="10.2513589"><ele>745.0</ele><time>2026-04-07T10:44:39.922Z</time></trkpt><trkpt lat="44.1849007" lon="10.2512775"><ele>743.3333333333333</ele><time>2026-04-07T10:44:42.929Z</time></trkpt><trkpt lat="44.1848877" lon="10.2511866"><ele>741.6666666666666</ele><time>2026-04-07T10:44:46.919Z</time></trkpt><trkpt lat="44.1848888" lon="10.251076"><ele>740.0</ele><time>2026-04-07T10:44:50.925Z</time></trkpt><trkpt lat="44.1848881" lon="10.2509532"><ele>740.0</ele><time>2026-04-07T10:44:54.92Z</time></trkpt><trkpt lat="44.1849085" lon="10.2508341"><ele>740.0</ele><time>2026-04-07T10:44:57.923Z</time></trkpt><trkpt lat="44.1849176" lon="10.2507202"><ele>740.0</ele><time>2026-04-07T10:45:01.921Z</time></trkpt><trkpt lat="44.1849031" lon="10.2506115"><ele>740.0</ele><time>2026-04-07T10:45:06.918Z</time></trkpt><trkpt lat="44.1848875" lon="10.2505264"><ele>740.0</ele><time>2026-04-07T10:45:09.925Z</time></trkpt><trkpt lat="44.1848512" lon="10.2504474"><ele>740.0</ele><time>2026-04-07T10:45:13.915Z</time></trkpt><trkpt lat="44.1848012" lon="10.2503733"><ele>738.9999999999999</ele><time>2026-04-07T10:45:17.921Z</time></trkpt><trkpt lat="44.1847635" lon="10.2502729"><ele>738.0</ele><time>2026-04-07T10:45:20.928Z</time></trkpt><trkpt lat="44.1847251" lon="10.2501825"><ele>737.0</ele><time>2026-04-07T10:45:24.924Z</time></trkpt><trkpt lat="44.1847112" lon="10.2500912"><ele>736.0</ele><time>2026-04-07T10:45:27.91Z</time></trkpt><trkpt lat="44.184739" lon="10.2500085"><ele>735.0</ele><time>2026-04-07T10:45:31.928Z</time></trkpt><trkpt lat="44.1848019" lon="10.2499755"><ele>733.9999999999999</ele><time>2026-04-07T10:45:38.923Z</time></trkpt><trkpt lat="44.184878" lon="10.2499876"><ele>733.0</ele><time>2026-04-07T10:45:44.922Z</time></trkpt><trkpt lat="44.1849284" lon="10.2500456"><ele>733.0</ele><time>2026-04-07T10:45:49.921Z</time></trkpt><trkpt lat="44.1849876" lon="10.2501061"><ele>733.0</ele><time>2026-04-07T10:45:54.927Z</time></trkpt><trkpt lat="44.1850871" lon="10.2501447"><ele>733.0</ele><time>2026-04-07T10:46:17.926Z</time></trkpt><trkpt lat="44.1851649" lon="10.2501713"><ele>733.0</ele><time>2026-04-07T10:46:35.91Z</time></trkpt><trkpt lat="44.1852533" lon="10.2502589"><ele>733.0</ele><time>2026-04-07T10:49:25.914Z</time></trkpt><trkpt lat="44.18531" lon="10.250321"><ele>733.0</ele><time>2026-04-07T10:49:32.917Z</time></trkpt><trkpt lat="44.1853505" lon="10.2504058"><ele>732.9999999999999</ele><time>2026-04-07T10:49:39.921Z</time></trkpt><trkpt lat="44.1853928" lon="10.2504892"><ele>733.0</ele><time>2026-04-07T10:49:45.936Z</time></trkpt><trkpt lat="44.1854266" lon="10.2505689"><ele>733.0</ele><time>2026-04-07T10:49:51.909Z</time></trkpt><trkpt lat="44.1854565" lon="10.2506617"><ele>733.0</ele><time>2026-04-07T10:49:58.922Z</time></trkpt><trkpt lat="44.1855024" lon="10.2507244"><ele>733.0</ele><time>2026-04-07T10:50:03.938Z</time></trkpt><trkpt lat="44.1855475" lon="10.2507932"><ele>732.9999999999999</ele><time>2026-04-07T10:50:09.926Z</time></trkpt><trkpt lat="44.1856034" lon="10.2508753"><ele>733.0</ele><time>2026-04-07T10:50:15.912Z</time></trkpt><trkpt lat="44.1856542" lon="10.2509395"><ele>732.8571428571428</ele><time>2026-04-07T10:50:20.92Z</time></trkpt><trkpt lat="44.1857008" lon="10.2509992"><ele>732.7142857142857</ele><time>2026-04-07T10:50:24.917Z</time></trkpt><trkpt lat="44.1857554" lon="10.2510513"><ele>732.5714285714286</ele><time>2026-04-07T10:50:28.92Z</time></trkpt><trkpt lat="44.1858036" lon="10.2511257"><ele>732.4285714285713</ele><time>2026-04-07T10:50:33.917Z</time></trkpt><trkpt lat="44.1858496" lon="10.2512016"><ele>732.2857142857143</ele><time>2026-04-07T10:50:37.92Z</time></trkpt><trkpt lat="44.1859032" lon="10.2512618"><ele>732.1428571428571</ele><time>2026-04-07T10:50:42.92Z</time></trkpt><trkpt lat="44.1859492" lon="10.2513416"><ele>732.0</ele><time>2026-04-07T10:50:48.935Z</time></trkpt><trkpt lat="44.185994" lon="10.2514225"><ele>730.7142857142858</ele><time>2026-04-07T10:50:54.915Z</time></trkpt><trkpt lat="44.186047" lon="10.251485"><ele>729.4285714285714</ele><time>2026-04-07T10:50:59.913Z</time></trkpt><trkpt lat="44.1861006" lon="10.2515464"><ele>728.1428571428571</ele><time>2026-04-07T10:51:05.922Z</time></trkpt><trkpt lat="44.1861561" lon="10.251604"><ele>726.8571428571429</ele><time>2026-04-07T10:51:10.909Z</time></trkpt><trkpt lat="44.1862098" lon="10.2516632"><ele>725.5714285714286</ele><time>2026-04-07T10:51:15.927Z</time></trkpt><trkpt lat="44.1862612" lon="10.2517281"><ele>724.2857142857143</ele><time>2026-04-07T10:51:21.92Z</time></trkpt><trkpt lat="44.1863249" lon="10.2517365"><ele>723.0</ele><time>2026-04-07T10:51:27.915Z</time></trkpt><trkpt lat="44.1863922" lon="10.2517641"><ele>723.0000000000001</ele><time>2026-04-07T10:51:33.944Z</time></trkpt><trkpt lat="44.1864573" lon="10.251802"><ele>723.0</ele><time>2026-04-07T10:51:38.923Z</time></trkpt><trkpt lat="44.1865172" lon="10.2518333"><ele>723.0</ele><time>2026-04-07T10:51:42.918Z</time></trkpt><trkpt lat="44.1865864" lon="10.2518657"><ele>723.0</ele><time>2026-04-07T10:51:48.919Z</time></trkpt><trkpt lat="44.1866525" lon="10.2518734"><ele>723.0</ele><time>2026-04-07T10:51:53.914Z</time></trkpt><trkpt lat="44.1867138" lon="10.2518995"><ele>723.0000000000001</ele><time>2026-04-07T10:51:58.942Z</time></trkpt><trkpt lat="44.1867836" lon="10.2519329"><ele>723.0</ele><time>2026-04-07T10:52:03.924Z</time></trkpt><trkpt lat="44.1868554" lon="10.2519736"><ele>725.1428571428572</ele><time>2026-04-07T10:52:08.927Z</time></trkpt><trkpt lat="44.1869255" lon="10.2520041"><ele>727.2857142857143</ele><time>2026-04-07T10:52:14.928Z</time></trkpt><trkpt lat="44.1869878" lon="10.2520292"><ele>729.4285714285714</ele><time>2026-04-07T10:52:19.921Z</time></trkpt><trkpt lat="44.1870658" lon="10.252065"><ele>731.5714285714287</ele><time>2026-04-07T10:52:24.932Z</time></trkpt><trkpt lat="44.1871269" lon="10.2520868"><ele>733.7142857142857</ele><time>2026-04-07T10:52:28.929Z</time></trkpt><trkpt lat="44.1872039" lon="10.2520788"><ele>735.8571428571429</ele><time>2026-04-07T10:52:32.929Z</time></trkpt><trkpt lat="44.1872793" lon="10.2520955"><ele>738.0</ele><time>2026-04-07T10:52:37.912Z</time></trkpt><trkpt lat="44.1873558" lon="10.2521026"><ele>740.3333333333334</ele><time>2026-04-07T10:52:42.929Z</time></trkpt><trkpt lat="44.187418" lon="10.2521171"><ele>742.6666666666666</ele><time>2026-04-07T10:52:47.935Z</time></trkpt><trkpt lat="44.1875063" lon="10.2521845"><ele>745.0</ele><time>2026-04-07T10:53:15.921Z</time></trkpt><trkpt lat="44.1875782" lon="10.2521774"><ele>747.3333333333333</ele><time>2026-04-07T10:53:19.923Z</time></trkpt><trkpt lat="44.1876418" lon="10.2521704"><ele>749.6666666666666</ele><time>2026-04-07T10:53:23.925Z</time></trkpt><trkpt lat="44.1877077" lon="10.2522047"><ele>752.0</ele><time>2026-04-07T10:53:29.923Z</time></trkpt><trkpt lat="44.1877702" lon="10.2522749"><ele>751.2857142857142</ele><time>2026-04-07T10:53:34.933Z</time></trkpt><trkpt lat="44.1878329" lon="10.252344"><ele>750.5714285714286</ele><time>2026-04-07T10:53:37.916Z</time></trkpt><trkpt lat="44.1878967" lon="10.252416"><ele>749.8571428571429</ele><time>2026-04-07T10:53:40.917Z</time></trkpt><trkpt lat="44.1879581" lon="10.2524643"><ele>749.1428571428571</ele><time>2026-04-07T10:53:43.932Z</time></trkpt><trkpt lat="44.1880256" lon="10.2524655"><ele>748.4285714285714</ele><time>2026-04-07T10:53:47.913Z</time></trkpt><trkpt lat="44.1880999" lon="10.2524868"><ele>747.7142857142857</ele><time>2026-04-07T10:53:55.916Z</time></trkpt><trkpt lat="44.188164" lon="10.2525317"><ele>747.0</ele><time>2026-04-07T10:54:00.919Z</time></trkpt><trkpt lat="44.1882258" lon="10.252598"><ele>746.9999999999999</ele><time>2026-04-07T10:54:05.929Z</time></trkpt><trkpt lat="44.1882714" lon="10.2526823"><ele>747.0</ele><time>2026-04-07T10:54:09.921Z</time></trkpt><trkpt lat="44.1883178" lon="10.2527723"><ele>747.0</ele><time>2026-04-07T10:54:13.936Z</time></trkpt><trkpt lat="44.1883629" lon="10.2528553"><ele>747.0</ele><time>2026-04-07T10:54:16.921Z</time></trkpt><trkpt lat="44.1883936" lon="10.2529424"><ele>747.0</ele><time>2026-04-07T10:54:20.948Z</time></trkpt><trkpt lat="44.1884255" lon="10.2530347"><ele>746.9999999999999</ele><time>2026-04-07T10:54:25.911Z</time></trkpt><trkpt lat="44.1884614" lon="10.2531093"><ele>747.0</ele><time>2026-04-07T10:54:29.929Z</time></trkpt><trkpt lat="44.1884898" lon="10.2532087"><ele>744.3333333333334</ele><time>2026-04-07T10:54:32.92Z</time></trkpt><trkpt lat="44.1885256" lon="10.253318"><ele>741.6666666666666</ele><time>2026-04-07T10:54:35.921Z</time></trkpt><trkpt lat="44.1885739" lon="10.2533852"><ele>739.0</ele><time>2026-04-07T10:54:37.927Z</time></trkpt><trkpt lat="44.1886265" lon="10.2534568"><ele>736.3333333333333</ele><time>2026-04-07T10:54:40.911Z</time></trkpt><trkpt lat="44.1886658" lon="10.2535468"><ele>733.6666666666666</ele><time>2026-04-07T10:54:43.927Z</time></trkpt><trkpt lat="44.1887258" lon="10.2536587"><ele>731.0</ele><time>2026-04-07T10:54:45.924Z</time></trkpt><trkpt lat="44.1887859" lon="10.2537686"><ele>731.0</ele><time>2026-04-07T10:54:47.927Z</time></trkpt><trkpt lat="44.1888207" lon="10.2538881"><ele>731.0</ele><time>2026-04-07T10:54:49.917Z</time></trkpt><trkpt lat="44.1888596" lon="10.2539992"><ele>731.0</ele><time>2026-04-07T10:54:52.926Z</time></trkpt><trkpt lat="44.1889022" lon="10.2540787"><ele>731.0</ele><time>2026-04-07T10:54:56.928Z</time></trkpt><trkpt lat="44.1889637" lon="10.2541707"><ele>731.0</ele><time>2026-04-07T10:55:13.923Z</time></trkpt><trkpt lat="44.1890405" lon="10.2541952"><ele>731.0</ele><time>2026-04-07T10:55:18.917Z</time></trkpt><trkpt lat="44.1891029" lon="10.254213"><ele>730.1666666666666</ele><time>2026-04-07T10:55:21.925Z</time></trkpt><trkpt lat="44.1891773" lon="10.254247"><ele>729.3333333333333</ele><time>2026-04-07T10:55:25.92Z</time></trkpt><trkpt lat="44.1892549" lon="10.2542612"><ele>728.5</ele><time>2026-04-07T10:55:29.921Z</time></trkpt><trkpt lat="44.189322" lon="10.2542943"><ele>727.6666666666666</ele><time>2026-04-07T10:55:34.919Z</time></trkpt><trkpt lat="44.1893997" lon="10.2543447"><ele>726.8333333333334</ele><time>2026-04-07T10:55:38.92Z</time></trkpt><trkpt lat="44.1894738" lon="10.2543703"><ele>726.0</ele><time>2026-04-07T10:55:41.921Z</time></trkpt><trkpt lat="44.1895556" lon="10.2543501"><ele>725.9999999999999</ele><time>2026-04-07T10:55:45.919Z</time></trkpt><trkpt lat="44.1896224" lon="10.2543072"><ele>726.0</ele><time>2026-04-07T10:55:49.923Z</time></trkpt><trkpt lat="44.1896936" lon="10.254279"><ele>726.0</ele><time>2026-04-07T10:55:53.919Z</time></trkpt><trkpt lat="44.1897576" lon="10.2542526"><ele>726.0</ele><time>2026-04-07T10:55:56.915Z</time></trkpt><trkpt lat="44.189854" lon="10.2542366"><ele>726.0</ele><time>2026-04-07T10:56:01.908Z</time></trkpt><trkpt lat="44.1899233" lon="10.2542047"><ele>725.9999999999999</ele><time>2026-04-07T10:56:05.932Z</time></trkpt><trkpt lat="44.1899849" lon="10.2541812"><ele>726.0</ele><time>2026-04-07T10:56:10.92Z</time></trkpt><trkpt lat="44.1900528" lon="10.2541762"><ele>724.4285714285713</ele><time>2026-04-07T10:56:13.922Z</time></trkpt><trkpt lat="44.1901287" lon="10.254151"><ele>722.8571428571429</ele><time>2026-04-07T10:56:17.923Z</time></trkpt><trkpt lat="44.1901959" lon="10.2541186"><ele>721.2857142857142</ele><time>2026-04-07T10:56:20.92Z</time></trkpt><trkpt lat="44.1902763" lon="10.2540897"><ele>719.7142857142857</ele><time>2026-04-07T10:56:23.919Z</time></trkpt><trkpt lat="44.1903512" lon="10.2540747"><ele>718.1428571428571</ele><time>2026-04-07T10:56:26.924Z</time></trkpt><trkpt lat="44.1904168" lon="10.2540827"><ele>716.5714285714286</ele><time>2026-04-07T10:56:29.926Z</time></trkpt><trkpt lat="44.1904811" lon="10.2540836"><ele>715.0</ele><time>2026-04-07T10:56:33.922Z</time></trkpt><trkpt lat="44.1906034" lon="10.2540509"><ele>711.0</ele><time>2026-04-07T10:56:42.929Z</time></trkpt><trkpt lat="44.1906817" lon="10.2540279"><ele>707.0</ele><time>2026-04-07T10:56:46.921Z</time></trkpt><trkpt lat="44.1907548" lon="10.2539827"><ele>703.0</ele><time>2026-04-07T10:56:50.929Z</time></trkpt><trkpt lat="44.1908373" lon="10.2539594"><ele>699.0</ele><time>2026-04-07T10:56:56.919Z</time></trkpt><trkpt lat="44.1909052" lon="10.2539828"><ele>695.0</ele><time>2026-04-07T10:57:00.909Z</time></trkpt><trkpt lat="44.1909787" lon="10.2540033"><ele>691.0</ele><time>2026-04-07T10:57:03.923Z</time></trkpt><trkpt lat="44.1910424" lon="10.2540131"><ele>691.0</ele><time>2026-04-07T10:57:06.921Z</time></trkpt><trkpt lat="44.1911049" lon="10.2539915"><ele>691.0</ele><time>2026-04-07T10:57:10.939Z</time></trkpt><trkpt lat="44.1911725" lon="10.2539361"><ele>691.0</ele><time>2026-04-07T10:57:12.92Z</time></trkpt><trkpt lat="44.1912322" lon="10.2538375"><ele>691.0</ele><time>2026-04-07T10:57:15.923Z</time></trkpt><trkpt lat="44.1913099" lon="10.2537868"><ele>691.0</ele><time>2026-04-07T10:57:18.914Z</time></trkpt><trkpt lat="44.1913762" lon="10.2538257"><ele>691.0</ele><time>2026-04-07T10:57:23.92Z</time></trkpt><trkpt lat="44.1914414" lon="10.2538642"><ele>691.5714285714286</ele><time>2026-04-07T10:57:28.923Z</time></trkpt><trkpt lat="44.1914964" lon="10.2539421"><ele>692.1428571428571</ele><time>2026-04-07T10:57:34.922Z</time></trkpt><trkpt lat="44.1915369" lon="10.2540271"><ele>692.7142857142858</ele><time>2026-04-07T10:57:39.923Z</time></trkpt><trkpt lat="44.1915665" lon="10.2541221"><ele>693.2857142857142</ele><time>2026-04-07T10:57:44.915Z</time></trkpt><trkpt lat="44.1916131" lon="10.2541992"><ele>693.8571428571429</ele><time>2026-04-07T10:57:50.921Z</time></trkpt><trkpt lat="44.19166" lon="10.2542654"><ele>694.4285714285714</ele><time>2026-04-07T10:57:54.927Z</time></trkpt><trkpt lat="44.1917117" lon="10.2543185"><ele>695.0</ele><time>2026-04-07T10:57:58.918Z</time></trkpt><trkpt lat="44.1917698" lon="10.2543682"><ele>695.0000000000001</ele><time>2026-04-07T10:58:02.92Z</time></trkpt><trkpt lat="44.1918233" lon="10.254442"><ele>695.0</ele><time>2026-04-07T10:58:07.919Z</time></trkpt><trkpt lat="44.191877" lon="10.2545036"><ele>695.0</ele><time>2026-04-07T10:58:12.923Z</time></trkpt><trkpt lat="44.1919287" lon="10.2545544"><ele>695.0</ele><time>2026-04-07T10:58:17.921Z</time></trkpt><trkpt lat="44.1919891" lon="10.2545996"><ele>695.0</ele><time>2026-04-07T10:58:22.923Z</time></trkpt><trkpt lat="44.1920533" lon="10.254639"><ele>695.0000000000001</ele><time>2026-04-07T10:58:27.927Z</time></trkpt><trkpt lat="44.1921181" lon="10.2546689"><ele>695.0</ele><time>2026-04-07T10:58:32.933Z</time></trkpt><trkpt lat="44.1921834" lon="10.2546996"><ele>695.0000000000001</ele><time>2026-04-07T10:58:37.919Z</time></trkpt><trkpt lat="44.1922465" lon="10.2547048"><ele>695.0</ele><time>2026-04-07T10:58:41.922Z</time></trkpt><trkpt lat="44.1923219" lon="10.2547168"><ele>695.0</ele><time>2026-04-07T10:58:46.927Z</time></trkpt><trkpt lat="44.1923901" lon="10.2547529"><ele>695.0</ele><time>2026-04-07T10:58:51.928Z</time></trkpt><trkpt lat="44.1924501" lon="10.2547895"><ele>695.0</ele><time>2026-04-07T10:58:55.92Z</time></trkpt><trkpt lat="44.1925163" lon="10.2548187"><ele>695.0000000000001</ele><time>2026-04-07T10:58:59.927Z</time></trkpt><trkpt lat="44.19258" lon="10.2548244"><ele>695.0</ele><time>2026-04-07T10:59:03.916Z</time></trkpt><trkpt lat="44.1926465" lon="10.2548297"><ele>696.0000000000001</ele><time>2026-04-07T10:59:07.922Z</time></trkpt><trkpt lat="44.1927179" lon="10.254858"><ele>697.0</ele><time>2026-04-07T10:59:11.915Z</time></trkpt><trkpt lat="44.192791" lon="10.2548981"><ele>698.0</ele><time>2026-04-07T10:59:15.931Z</time></trkpt><trkpt lat="44.1928614" lon="10.2549218"><ele>699.0</ele><time>2026-04-07T10:59:20.925Z</time></trkpt><trkpt lat="44.1929314" lon="10.2549308"><ele>700.0</ele><time>2026-04-07T10:59:25.928Z</time></trkpt><trkpt lat="44.1930093" lon="10.2549504"><ele>701.0000000000001</ele><time>2026-04-07T10:59:30.921Z</time></trkpt><trkpt lat="44.1930742" lon="10.2549702"><ele>702.0</ele><time>2026-04-07T10:59:34.932Z</time></trkpt><trkpt lat="44.1931439" lon="10.2549644"><ele>704.1428571428572</ele><time>2026-04-07T10:59:58.921Z</time></trkpt><trkpt lat="44.1932063" lon="10.254945"><ele>706.2857142857143</ele><time>2026-04-07T11:00:06.925Z</time></trkpt><trkpt lat="44.1932752" lon="10.2549313"><ele>708.4285714285714</ele><time>2026-04-07T11:00:15.934Z</time></trkpt><trkpt lat="44.1933395" lon="10.2548918"><ele>710.5714285714287</ele><time>2026-04-07T11:00:24.931Z</time></trkpt><trkpt lat="44.1934007" lon="10.2548589"><ele>712.7142857142857</ele><time>2026-04-07T11:00:34.925Z</time></trkpt><trkpt lat="44.1934659" lon="10.2548398"><ele>714.8571428571429</ele><time>2026-04-07T11:00:45.932Z</time></trkpt><trkpt lat="44.1935416" lon="10.2548322"><ele>717.0</ele><time>2026-04-07T11:01:25.912Z</time></trkpt><trkpt lat="44.193604" lon="10.25486"><ele>717.0</ele><time>2026-04-07T11:01:35.919Z</time></trkpt><trkpt lat="44.1936647" lon="10.2548967"><ele>717.0</ele><time>2026-04-07T11:01:47.921Z</time></trkpt><trkpt lat="44.1937268" lon="10.2549146"><ele>717.0</ele><time>2026-04-07T11:02:01.931Z</time></trkpt><trkpt lat="44.1937809" lon="10.2549627"><ele>717.0</ele><time>2026-04-07T11:02:14.91Z</time></trkpt><trkpt lat="44.193877" lon="10.2550172"><ele>717.0</ele><time>2026-04-07T11:02:41.915Z</time></trkpt><trkpt lat="44.1939404" lon="10.2550383"><ele>717.0</ele><time>2026-04-07T11:03:26.913Z</time></trkpt><trkpt lat="44.1940112" lon="10.255045"><ele>717.0</ele><time>2026-04-07T11:03:31.915Z</time></trkpt><trkpt lat="44.1940773" lon="10.2550628"><ele>720.0</ele><time>2026-04-07T11:03:35.908Z</time></trkpt><trkpt lat="44.1941457" lon="10.2550814"><ele>723.0</ele><time>2026-04-07T11:03:39.931Z</time></trkpt><trkpt lat="44.1942128" lon="10.2550928"><ele>726.0</ele><time>2026-04-07T11:03:43.913Z</time></trkpt><trkpt lat="44.1942871" lon="10.2551015"><ele>729.0</ele><time>2026-04-07T11:03:48.908Z</time></trkpt><trkpt lat="44.1943633" lon="10.2550894"><ele>732.0</ele><time>2026-04-07T11:03:53.909Z</time></trkpt><trkpt lat="44.1944404" lon="10.2550843"><ele>735.0</ele><time>2026-04-07T11:03:58.928Z</time></trkpt><trkpt lat="44.1945023" lon="10.2551021"><ele>738.0</ele><time>2026-04-07T11:04:02.917Z</time></trkpt><trkpt lat="44.1945572" lon="10.2551565"><ele>738.0</ele><time>2026-04-07T11:04:06.929Z</time></trkpt><trkpt lat="44.1946233" lon="10.2552109"><ele>738.0</ele><time>2026-04-07T11:04:11.919Z</time></trkpt><trkpt lat="44.1946897" lon="10.2552623"><ele>738.0</ele><time>2026-04-07T11:04:16.918Z</time></trkpt><trkpt lat="44.1947597" lon="10.2552789"><ele>738.0</ele><time>2026-04-07T11:04:20.915Z</time></trkpt><trkpt lat="44.1948226" lon="10.2552913"><ele>738.0</ele><time>2026-04-07T11:04:24.927Z</time></trkpt><trkpt lat="44.1948965" lon="10.2553133"><ele>738.0</ele><time>2026-04-07T11:04:29.921Z</time></trkpt><trkpt lat="44.1949679" lon="10.2553349"><ele>738.0</ele><time>2026-04-07T11:04:34.91Z</time></trkpt><trkpt lat="44.1950283" lon="10.2553866"><ele>740.6666666666666</ele><time>2026-04-07T11:04:39.932Z</time></trkpt><trkpt lat="44.1950863" lon="10.2554426"><ele>743.3333333333334</ele><time>2026-04-07T11:04:44.926Z</time></trkpt><trkpt lat="44.1951603" lon="10.2554683"><ele>746.0</ele><time>2026-04-07T11:04:51.917Z</time></trkpt><trkpt lat="44.195216" lon="10.2553677"><ele>748.6666666666667</ele><time>2026-04-07T11:04:54.92Z</time></trkpt><trkpt lat="44.1952383" lon="10.2552611"><ele>751.3333333333334</ele><time>2026-04-07T11:04:57.914Z</time></trkpt><trkpt lat="44.195248" lon="10.2551722"><ele>754.0</ele><time>2026-04-07T11:05:02.918Z</time></trkpt><trkpt lat="44.1952783" lon="10.25508"><ele>754.0</ele><time>2026-04-07T11:05:08.917Z</time></trkpt><trkpt lat="44.1953783" lon="10.2550411"><ele>754.0</ele><time>2026-04-07T11:05:11.919Z</time></trkpt><trkpt lat="44.1954861" lon="10.2550191"><ele>754.0</ele><time>2026-04-07T11:05:13.928Z</time></trkpt><trkpt lat="44.1955509" lon="10.2550055"><ele>754.0</ele><time>2026-04-07T11:05:14.915Z</time></trkpt><trkpt lat="44.1956212" lon="10.2549804"><ele>754.0</ele><time>2026-04-07T11:05:15.91Z</time></trkpt><trkpt lat="44.1956908" lon="10.2549389"><ele>754.0</ele><time>2026-04-07T11:05:16.923Z</time></trkpt><trkpt lat="44.19576" lon="10.2548821"><ele>754.6666666666667</ele><time>2026-04-07T11:05:17.93Z</time></trkpt><trkpt lat="44.1958229" lon="10.2548126"><ele>755.3333333333334</ele><time>2026-04-07T11:05:18.911Z</time></trkpt><trkpt lat="44.1958806" lon="10.2547323"><ele>756.0</ele><time>2026-04-07T11:05:19.911Z</time></trkpt><trkpt lat="44.1959332" lon="10.254642"><ele>756.6666666666666</ele><time>2026-04-07T11:05:20.925Z</time></trkpt><trkpt lat="44.19598" lon="10.254549"><ele>757.3333333333333</ele><time>2026-04-07T11:05:21.921Z</time></trkpt><trkpt lat="44.1960277" lon="10.2544532"><ele>758.0</ele><time>2026-04-07T11:05:22.921Z</time></trkpt><trkpt lat="44.196076" lon="10.2543591"><ele>758.0</ele><time>2026-04-07T11:05:23.925Z</time></trkpt><trkpt lat="44.196127" lon="10.2542667"><ele>758.0</ele><time>2026-04-07T11:05:24.928Z</time></trkpt><trkpt lat="44.1961805" lon="10.254193"><ele>758.0</ele><time>2026-04-07T11:05:25.915Z</time></trkpt><trkpt lat="44.1962368" lon="10.2541466"><ele>758.0</ele><time>2026-04-07T11:05:26.913Z</time></trkpt><trkpt lat="44.1963551" lon="10.254142"><ele>758.0</ele><time>2026-04-07T11:05:28.915Z</time></trkpt><trkpt lat="44.1964726" lon="10.2541848"><ele>755.4</ele><time>2026-04-07T11:05:30.92Z</time></trkpt><trkpt lat="44.1965907" lon="10.2542084"><ele>752.8</ele><time>2026-04-07T11:05:32.925Z</time></trkpt><trkpt lat="44.19669" lon="10.2542142"><ele>750.2</ele><time>2026-04-07T11:05:34.915Z</time></trkpt><trkpt lat="44.1967792" lon="10.2542081"><ele>747.6</ele><time>2026-04-07T11:05:36.928Z</time></trkpt><trkpt lat="44.1968635" lon="10.254191"><ele>745.0</ele><time>2026-04-07T11:05:38.918Z</time></trkpt><trkpt lat="44.1969463" lon="10.2541659"><ele>745.0</ele><time>2026-04-07T11:05:40.913Z</time></trkpt><trkpt lat="44.1970211" lon="10.2541285"><ele>745.0</ele><time>2026-04-07T11:05:42.908Z</time></trkpt><trkpt lat="44.1970955" lon="10.2540979"><ele>745.0</ele><time>2026-04-07T11:05:44.922Z</time></trkpt><trkpt lat="44.1971661" lon="10.2540563"><ele>745.0</ele><time>2026-04-07T11:05:46.921Z</time></trkpt><trkpt lat="44.1972356" lon="10.254014"><ele>745.0</ele><time>2026-04-07T11:05:48.914Z</time></trkpt><trkpt lat="44.1973093" lon="10.253991"><ele>745.0</ele><time>2026-04-07T11:05:50.92Z</time></trkpt><trkpt lat="44.1973767" lon="10.2539695"><ele>745.8571428571429</ele><time>2026-04-07T11:05:52.922Z</time></trkpt><trkpt lat="44.1974393" lon="10.2539352"><ele>746.7142857142857</ele><time>2026-04-07T11:05:54.916Z</time></trkpt><trkpt lat="44.1975285" lon="10.2539177"><ele>747.5714285714287</ele><time>2026-04-07T11:05:57.925Z</time></trkpt><trkpt lat="44.197598" lon="10.2538746"><ele>748.4285714285714</ele><time>2026-04-07T11:06:00.915Z</time></trkpt><trkpt lat="44.1976609" lon="10.2538435"><ele>749.2857142857143</ele><time>2026-04-07T11:06:03.922Z</time></trkpt><trkpt lat="44.1977261" lon="10.2538423"><ele>750.1428571428572</ele><time>2026-04-07T11:06:06.913Z</time></trkpt><trkpt lat="44.1977922" lon="10.2538388"><ele>751.0</ele><time>2026-04-07T11:06:41.922Z</time></trkpt><trkpt lat="44.1978409" lon="10.2537625"><ele>751.0</ele><time>2026-04-07T11:10:39.926Z</time></trkpt><trkpt lat="44.1979085" lon="10.2536928"><ele>751.0</ele><time>2026-04-07T11:10:43.92Z</time></trkpt><trkpt lat="44.1979412" lon="10.253605"><ele>751.0</ele><time>2026-04-07T11:10:45.922Z</time></trkpt><trkpt lat="44.1979699" lon="10.2534619"><ele>751.0</ele><time>2026-04-07T11:10:47.923Z</time></trkpt><trkpt lat="44.1979821" lon="10.2533002"><ele>751.0</ele><time>2026-04-07T11:10:49.913Z</time></trkpt><trkpt lat="44.197995" lon="10.2532077"><ele>751.0</ele><time>2026-04-07T11:10:50.925Z</time></trkpt><trkpt lat="44.1980108" lon="10.2531125"><ele>753.1666666666667</ele><time>2026-04-07T11:10:51.915Z</time></trkpt><trkpt lat="44.1980372" lon="10.2530187"><ele>755.3333333333334</ele><time>2026-04-07T11:10:52.937Z</time></trkpt><trkpt lat="44.1980721" lon="10.252928"><ele>757.5</ele><time>2026-04-07T11:10:53.936Z</time></trkpt><trkpt lat="44.1981105" lon="10.2528371"><ele>759.6666666666666</ele><time>2026-04-07T11:10:54.942Z</time></trkpt><trkpt lat="44.1981526" lon="10.2527455"><ele>761.8333333333333</ele><time>2026-04-07T11:10:55.923Z</time></trkpt><trkpt lat="44.198196" lon="10.2526578"><ele>764.0</ele><time>2026-04-07T11:10:56.91Z</time></trkpt><trkpt lat="44.1982373" lon="10.2525726"><ele>761.7142857142858</ele><time>2026-04-07T11:10:57.924Z</time></trkpt><trkpt lat="44.1982768" lon="10.2524922"><ele>759.4285714285713</ele><time>2026-04-07T11:10:58.933Z</time></trkpt><trkpt lat="44.1983173" lon="10.2524094"><ele>757.1428571428571</ele><time>2026-04-07T11:10:59.934Z</time></trkpt><trkpt lat="44.198375" lon="10.2523354"><ele>754.8571428571429</ele><time>2026-04-07T11:11:00.915Z</time></trkpt><trkpt lat="44.1984397" lon="10.2522779"><ele>752.5714285714287</ele><time>2026-04-07T11:11:01.923Z</time></trkpt><trkpt lat="44.1985079" lon="10.2522484"><ele>750.2857142857142</ele><time>2026-04-07T11:11:02.943Z</time></trkpt><trkpt lat="44.1985751" lon="10.2522324"><ele>748.0</ele><time>2026-04-07T11:11:03.93Z</time></trkpt><trkpt lat="44.1986941" lon="10.2521876"><ele>748.0</ele><time>2026-04-07T11:11:05.923Z</time></trkpt><trkpt lat="44.1987926" lon="10.2521054"><ele>748.0</ele><time>2026-04-07T11:11:07.926Z</time></trkpt><trkpt lat="44.1988676" lon="10.2520158"><ele>748.0</ele><time>2026-04-07T11:11:09.91Z</time></trkpt><trkpt lat="44.198915" lon="10.2519359"><ele>748.0</ele><time>2026-04-07T11:11:11.917Z</time></trkpt><trkpt lat="44.1989665" lon="10.2518757"><ele>748.0</ele><time>2026-04-07T11:11:14.908Z</time></trkpt><trkpt lat="44.19902" lon="10.2518087"><ele>748.0</ele><time>2026-04-07T11:11:18.944Z</time></trkpt><trkpt lat="44.1990768" lon="10.2517505"><ele>747.8571428571428</ele><time>2026-04-07T11:11:22.919Z</time></trkpt><trkpt lat="44.199141" lon="10.2517071"><ele>747.7142857142858</ele><time>2026-04-07T11:11:26.925Z</time></trkpt><trkpt lat="44.1992077" lon="10.2516735"><ele>747.5714285714286</ele><time>2026-04-07T11:11:30.922Z</time></trkpt><trkpt lat="44.1992696" lon="10.2516414"><ele>747.4285714285713</ele><time>2026-04-07T11:11:34.922Z</time></trkpt><trkpt lat="44.1993292" lon="10.2516122"><ele>747.2857142857142</ele><time>2026-04-07T11:11:38.909Z</time></trkpt><trkpt lat="44.1993893" lon="10.251552"><ele>747.1428571428571</ele><time>2026-04-07T11:11:42.926Z</time></trkpt><trkpt lat="44.1994347" lon="10.2514891"><ele>747.0</ele><time>2026-04-07T11:11:45.928Z</time></trkpt><trkpt lat="44.1994954" lon="10.2514025"><ele>747.0</ele><time>2026-04-07T11:11:48.911Z</time></trkpt><trkpt lat="44.1995372" lon="10.2513196"><ele>747.0</ele><time>2026-04-07T11:11:50.921Z</time></trkpt><trkpt lat="44.1995709" lon="10.2511978"><ele>747.0</ele><time>2026-04-07T11:11:52.946Z</time></trkpt><trkpt lat="44.19962" lon="10.2510655"><ele>747.0</ele><time>2026-04-07T11:11:54.929Z</time></trkpt><trkpt lat="44.1996763" lon="10.2509137"><ele>747.0</ele><time>2026-04-07T11:11:56.935Z</time></trkpt><trkpt lat="44.1997435" lon="10.2507722"><ele>747.0</ele><time>2026-04-07T11:11:58.948Z</time></trkpt><trkpt lat="44.1998112" lon="10.2506273"><ele>747.0</ele><time>2026-04-07T11:12:00.919Z</time></trkpt><trkpt lat="44.1998447" lon="10.250551"><ele>747.0</ele><time>2026-04-07T11:12:01.91Z</time></trkpt><trkpt lat="44.1998749" lon="10.2504729"><ele>747.0</ele><time>2026-04-07T11:12:02.925Z</time></trkpt><trkpt lat="44.1999419" lon="10.2503275"><ele>747.0</ele><time>2026-04-07T11:12:04.93Z</time></trkpt><trkpt lat="44.2000052" lon="10.2501873"><ele>744.2</ele><time>2026-04-07T11:12:06.941Z</time></trkpt><trkpt lat="44.2000551" lon="10.2500408"><ele>741.4000000000001</ele><time>2026-04-07T11:12:08.923Z</time></trkpt><trkpt lat="44.2000765" lon="10.2499008"><ele>738.5999999999999</ele><time>2026-04-07T11:12:10.936Z</time></trkpt><trkpt lat="44.2000807" lon="10.2497733"><ele>735.8</ele><time>2026-04-07T11:12:12.929Z</time></trkpt><trkpt lat="44.2000643" lon="10.2496651"><ele>733.0</ele><time>2026-04-07T11:12:14.917Z</time></trkpt><trkpt lat="44.2000323" lon="10.2495737"><ele>732.8</ele><time>2026-04-07T11:12:16.913Z</time></trkpt><trkpt lat="44.200003" lon="10.2494945"><ele>732.5999999999999</ele><time>2026-04-07T11:12:18.931Z</time></trkpt><trkpt lat="44.1999397" lon="10.249395"><ele>732.4000000000001</ele><time>2026-04-07T11:12:21.926Z</time></trkpt><trkpt lat="44.1998855" lon="10.2493124"><ele>732.2</ele><time>2026-04-07T11:12:23.921Z</time></trkpt><trkpt lat="44.1998325" lon="10.2491928"><ele>732.0</ele><time>2026-04-07T11:12:25.926Z</time></trkpt><trkpt lat="44.1998236" lon="10.249029"><ele>731.4285714285714</ele><time>2026-04-07T11:12:27.939Z</time></trkpt><trkpt lat="44.1998383" lon="10.2489402"><ele>730.8571428571429</ele><time>2026-04-07T11:12:28.916Z</time></trkpt><trkpt lat="44.1998647" lon="10.248857"><ele>730.2857142857142</ele><time>2026-04-07T11:12:29.929Z</time></trkpt><trkpt lat="44.1998853" lon="10.2487699"><ele>729.7142857142858</ele><time>2026-04-07T11:12:30.927Z</time></trkpt><trkpt lat="44.1998992" lon="10.2486802"><ele>729.1428571428571</ele><time>2026-04-07T11:12:31.934Z</time></trkpt><trkpt lat="44.1998998" lon="10.2485878"><ele>728.5714285714286</ele><time>2026-04-07T11:12:32.926Z</time></trkpt><trkpt lat="44.1998871" lon="10.24849"><ele>728.0</ele><time>2026-04-07T11:12:33.927Z</time></trkpt><trkpt lat="44.1998668" lon="10.2483947"><ele>728.0</ele><time>2026-04-07T11:12:34.924Z</time></trkpt><trkpt lat="44.199852" lon="10.2482926"><ele>728.0</ele><time>2026-04-07T11:12:35.941Z</time></trkpt><trkpt lat="44.1998521" lon="10.2481915"><ele>728.0</ele><time>2026-04-07T11:12:36.914Z</time></trkpt><trkpt lat="44.1998602" lon="10.248094"><ele>728.0</ele><time>2026-04-07T11:12:37.924Z</time></trkpt><trkpt lat="44.1998703" lon="10.2479987"><ele>728.0</ele><time>2026-04-07T11:12:38.925Z</time></trkpt><trkpt lat="44.1998847" lon="10.2479061"><ele>728.0</ele><time>2026-04-07T11:12:39.913Z</time></trkpt><trkpt lat="44.1999084" lon="10.2478232"><ele>728.0</ele><time>2026-04-07T11:12:40.933Z</time></trkpt><trkpt lat="44.1999698" lon="10.2476862"><ele>729.1666666666666</ele><time>2026-04-07T11:12:42.926Z</time></trkpt><trkpt lat="44.2000341" lon="10.2475808"><ele>730.3333333333333</ele><time>2026-04-07T11:12:44.918Z</time></trkpt><trkpt lat="44.2000927" lon="10.247493"><ele>731.5</ele><time>2026-04-07T11:12:46.918Z</time></trkpt><trkpt lat="44.2001446" lon="10.2473925"><ele>732.6666666666666</ele><time>2026-04-07T11:12:49.931Z</time></trkpt><trkpt lat="44.2001857" lon="10.2473236"><ele>733.8333333333334</ele><time>2026-04-07T11:12:52.924Z</time></trkpt><trkpt lat="44.2002232" lon="10.2472386"><ele>735.0</ele><time>2026-04-07T11:12:55.917Z</time></trkpt><trkpt lat="44.2002606" lon="10.2471443"><ele>737.7142857142857</ele><time>2026-04-07T11:12:58.914Z</time></trkpt><trkpt lat="44.2002938" lon="10.2470516"><ele>740.4285714285714</ele><time>2026-04-07T11:13:01.909Z</time></trkpt><trkpt lat="44.2003217" lon="10.2469574"><ele>743.1428571428571</ele><time>2026-04-07T11:13:04.921Z</time></trkpt><trkpt lat="44.2003522" lon="10.2468731"><ele>745.8571428571429</ele><time>2026-04-07T11:13:07.938Z</time></trkpt><trkpt lat="44.200391" lon="10.2467875"><ele>748.5714285714286</ele><time>2026-04-07T11:13:10.917Z</time></trkpt><trkpt lat="44.2004382" lon="10.2466981"><ele>751.2857142857142</ele><time>2026-04-07T11:13:13.92Z</time></trkpt><trkpt lat="44.200484" lon="10.2466052"><ele>754.0</ele><time>2026-04-07T11:13:16.937Z</time></trkpt><trkpt lat="44.2005336" lon="10.2465123"><ele>751.6666666666667</ele><time>2026-04-07T11:13:19.91Z</time></trkpt><trkpt lat="44.2005749" lon="10.2464249"><ele>749.3333333333334</ele><time>2026-04-07T11:13:22.927Z</time></trkpt><trkpt lat="44.200637" lon="10.2463501"><ele>747.0</ele><time>2026-04-07T11:13:25.932Z</time></trkpt><trkpt lat="44.200706" lon="10.2462641"><ele>744.6666666666666</ele><time>2026-04-07T11:13:28.911Z</time></trkpt><trkpt lat="44.2007745" lon="10.246186"><ele>742.3333333333333</ele><time>2026-04-07T11:13:31.928Z</time></trkpt><trkpt lat="44.2008474" lon="10.246116"><ele>740.0</ele><time>2026-04-07T11:13:34.927Z</time></trkpt><trkpt lat="44.2009015" lon="10.2460257"><ele>740.0</ele><time>2026-04-07T11:13:37.919Z</time></trkpt><trkpt lat="44.200962" lon="10.2459388"><ele>740.0</ele><time>2026-04-07T11:13:40.911Z</time></trkpt><trkpt lat="44.2010054" lon="10.2458245"><ele>740.0</ele><time>2026-04-07T11:13:43.918Z</time></trkpt><trkpt lat="44.2010086" lon="10.2457097"><ele>740.0</ele><time>2026-04-07T11:13:46.929Z</time></trkpt><trkpt lat="44.2009999" lon="10.2455879"><ele>740.0</ele><time>2026-04-07T11:13:49.917Z</time></trkpt><trkpt lat="44.2009965" lon="10.2454993"><ele>740.0</ele><time>2026-04-07T11:13:51.915Z</time></trkpt><trkpt lat="44.2009763" lon="10.2454035"><ele>739.8333333333333</ele><time>2026-04-07T11:13:53.916Z</time></trkpt><trkpt lat="44.2009537" lon="10.2453089"><ele>739.6666666666666</ele><time>2026-04-07T11:13:55.926Z</time></trkpt><trkpt lat="44.2009347" lon="10.2452073"><ele>739.5</ele><time>2026-04-07T11:13:57.908Z</time></trkpt><trkpt lat="44.2009076" lon="10.2451065"><ele>739.3333333333334</ele><time>2026-04-07T11:13:59.929Z</time></trkpt><trkpt lat="44.2008721" lon="10.2450125"><ele>739.1666666666667</ele><time>2026-04-07T11:14:01.925Z</time></trkpt><trkpt lat="44.2008255" lon="10.2449291"><ele>739.0</ele><time>2026-04-07T11:14:03.928Z</time></trkpt><trkpt lat="44.2007771" lon="10.2448431"><ele>737.8000000000001</ele><time>2026-04-07T11:14:05.917Z</time></trkpt><trkpt lat="44.2007291" lon="10.2447516"><ele>736.6</ele><time>2026-04-07T11:14:07.926Z</time></trkpt><trkpt lat="44.2006761" lon="10.2446348"><ele>735.4</ele><time>2026-04-07T11:14:09.93Z</time></trkpt><trkpt lat="44.2006318" lon="10.2444894"><ele>734.2</ele><time>2026-04-07T11:14:11.929Z</time></trkpt><trkpt lat="44.2006007" lon="10.2443195"><ele>733.0</ele><time>2026-04-07T11:14:13.917Z</time></trkpt><trkpt lat="44.2005876" lon="10.2442238"><ele>734.5</ele><time>2026-04-07T11:14:14.914Z</time></trkpt><trkpt lat="44.2005682" lon="10.2441286"><ele>736.0</ele><time>2026-04-07T11:14:15.909Z</time></trkpt><trkpt lat="44.2005524" lon="10.2440266"><ele>737.5</ele><time>2026-04-07T11:14:16.918Z</time></trkpt><trkpt lat="44.2005332" lon="10.2439222"><ele>739.0</ele><time>2026-04-07T11:14:17.92Z</time></trkpt><trkpt lat="44.2005162" lon="10.2438203"><ele>740.5</ele><time>2026-04-07T11:14:18.918Z</time></trkpt><trkpt lat="44.2005115" lon="10.243723"><ele>742.0</ele><time>2026-04-07T11:14:19.934Z</time></trkpt><trkpt lat="44.2005601" lon="10.2435739"><ele>742.0</ele><time>2026-04-07T11:14:21.917Z</time></trkpt><trkpt lat="44.2006512" lon="10.2435578"><ele>742.0</ele><time>2026-04-07T11:14:23.927Z</time></trkpt><trkpt lat="44.2007201" lon="10.2436173"><ele>742.0</ele><time>2026-04-07T11:14:26.92Z</time></trkpt><trkpt lat="44.2007819" lon="10.2436776"><ele>742.0</ele><time>2026-04-07T11:14:30.934Z</time></trkpt><trkpt lat="44.2008397" lon="10.2437388"><ele>742.0</ele><time>2026-04-07T11:14:34.917Z</time></trkpt><trkpt lat="44.2008941" lon="10.2437932"><ele>742.0</ele><time>2026-04-07T11:14:38.926Z</time></trkpt><trkpt lat="44.2009569" lon="10.2438434"><ele>741.8571428571429</ele><time>2026-04-07T11:14:42.927Z</time></trkpt><trkpt lat="44.2010162" lon="10.2438955"><ele>741.7142857142858</ele><time>2026-04-07T11:14:46.922Z</time></trkpt><trkpt lat="44.2010798" lon="10.2439472"><ele>741.5714285714286</ele><time>2026-04-07T11:14:50.916Z</time></trkpt><trkpt lat="44.2011461" lon="10.2439874"><ele>741.4285714285714</ele><time>2026-04-07T11:14:54.918Z</time></trkpt><trkpt lat="44.2012112" lon="10.2440463"><ele>741.2857142857143</ele><time>2026-04-07T11:14:58.908Z</time></trkpt><trkpt lat="44.2012679" lon="10.2440974"><ele>741.1428571428571</ele><time>2026-04-07T11:15:02.919Z</time></trkpt><trkpt lat="44.2013215" lon="10.244146"><ele>741.0</ele><time>2026-04-07T11:15:06.927Z</time></trkpt><trkpt lat="44.2013858" lon="10.2441845"><ele>741.7142857142857</ele><time>2026-04-07T11:15:10.931Z</time></trkpt><trkpt lat="44.2014442" lon="10.2442338"><ele>742.4285714285714</ele><time>2026-04-07T11:15:15.927Z</time></trkpt><trkpt lat="44.2015018" lon="10.2442729"><ele>743.1428571428571</ele><time>2026-04-07T11:15:19.914Z</time></trkpt><trkpt lat="44.2015663" lon="10.2443037"><ele>743.8571428571429</ele><time>2026-04-07T11:15:23.92Z</time></trkpt><trkpt lat="44.2016393" lon="10.2443485"><ele>744.5714285714287</ele><time>2026-04-07T11:15:27.925Z</time></trkpt><trkpt lat="44.2016986" lon="10.2443815"><ele>745.2857142857143</ele><time>2026-04-07T11:15:30.919Z</time></trkpt><trkpt lat="44.2017529" lon="10.2444398"><ele>746.0</ele><time>2026-04-07T11:15:33.912Z</time></trkpt><trkpt lat="44.2017988" lon="10.2445005"><ele>746.0</ele><time>2026-04-07T11:15:36.934Z</time></trkpt><trkpt lat="44.2018202" lon="10.2446058"><ele>746.0</ele><time>2026-04-07T11:15:40.918Z</time></trkpt><trkpt lat="44.2018209" lon="10.2447039"><ele>746.0</ele><time>2026-04-07T11:15:43.936Z</time></trkpt><trkpt lat="44.2018088" lon="10.244805"><ele>746.0</ele><time>2026-04-07T11:15:46.921Z</time></trkpt><trkpt lat="44.2018051" lon="10.2449044"><ele>746.0</ele><time>2026-04-07T11:15:49.911Z</time></trkpt><trkpt lat="44.2018199" lon="10.2449981"><ele>746.0</ele><time>2026-04-07T11:15:52.915Z</time></trkpt><trkpt lat="44.2018365" lon="10.2451006"><ele>746.0</ele><time>2026-04-07T11:15:56.924Z</time></trkpt><trkpt lat="44.2018587" lon="10.2451894"><ele>744.0</ele><time>2026-04-07T11:16:00.922Z</time></trkpt><trkpt lat="44.201862" lon="10.2452886"><ele>742.0</ele><time>2026-04-07T11:16:03.933Z</time></trkpt><trkpt lat="44.2018672" lon="10.2454014"><ele>740.0</ele><time>2026-04-07T11:16:06.926Z</time></trkpt><trkpt lat="44.2018747" lon="10.2455137"><ele>738.0</ele><time>2026-04-07T11:16:09.928Z</time></trkpt><trkpt lat="44.2018941" lon="10.245626"><ele>736.0</ele><time>2026-04-07T11:16:12.925Z</time></trkpt><trkpt lat="44.2019351" lon="10.2457361"><ele>734.0</ele><time>2026-04-07T11:16:15.921Z</time></trkpt><trkpt lat="44.2019909" lon="10.2458344"><ele>733.1666666666666</ele><time>2026-04-07T11:16:18.925Z</time></trkpt><trkpt lat="44.2020581" lon="10.2459018"><ele>732.3333333333333</ele><time>2026-04-07T11:16:21.911Z</time></trkpt><trkpt lat="44.2021256" lon="10.2459532"><ele>731.5</ele><time>2026-04-07T11:16:24.928Z</time></trkpt><trkpt lat="44.202192" lon="10.2460094"><ele>730.6666666666666</ele><time>2026-04-07T11:16:27.932Z</time></trkpt><trkpt lat="44.2022587" lon="10.2460709"><ele>729.8333333333334</ele><time>2026-04-07T11:16:30.932Z</time></trkpt><trkpt lat="44.2023351" lon="10.2461314"><ele>729.0</ele><time>2026-04-07T11:16:33.92Z</time></trkpt><trkpt lat="44.2024137" lon="10.2461813"><ele>730.6666666666666</ele><time>2026-04-07T11:16:36.916Z</time></trkpt><trkpt lat="44.2024926" lon="10.2462289"><ele>732.3333333333334</ele><time>2026-04-07T11:16:39.971Z</time></trkpt><trkpt lat="44.2025658" lon="10.2462865"><ele>734.0</ele><time>2026-04-07T11:16:42.925Z</time></trkpt><trkpt lat="44.2026338" lon="10.2463376"><ele>735.6666666666667</ele><time>2026-04-07T11:16:45.926Z</time></trkpt><trkpt lat="44.2027041" lon="10.2463874"><ele>737.3333333333334</ele><time>2026-04-07T11:16:48.91Z</time></trkpt><trkpt lat="44.2027762" lon="10.24644"><ele>739.0</ele><time>2026-04-07T11:16:51.915Z</time></trkpt><trkpt lat="44.202844" lon="10.2464812"><ele>739.0</ele><time>2026-04-07T11:16:54.912Z</time></trkpt><trkpt lat="44.2029082" lon="10.2465241"><ele>739.0</ele><time>2026-04-07T11:16:57.919Z</time></trkpt><trkpt lat="44.2029762" lon="10.2465758"><ele>739.0</ele><time>2026-04-07T11:17:01.942Z</time></trkpt><trkpt lat="44.2030502" lon="10.2466123"><ele>739.0</ele><time>2026-04-07T11:17:04.926Z</time></trkpt><trkpt lat="44.2031334" lon="10.2466442"><ele>739.0</ele><time>2026-04-07T11:17:07.933Z</time></trkpt><trkpt lat="44.2032044" lon="10.2466887"><ele>739.0</ele><time>2026-04-07T11:17:10.919Z</time></trkpt><trkpt lat="44.2032762" lon="10.2467253"><ele>740.0</ele><time>2026-04-07T11:17:13.93Z</time></trkpt><trkpt lat="44.2033448" lon="10.2467584"><ele>741.0</ele><time>2026-04-07T11:17:16.919Z</time></trkpt><trkpt lat="44.2034051" lon="10.2468122"><ele>742.0</ele><time>2026-04-07T11:17:19.916Z</time></trkpt><trkpt lat="44.203461" lon="10.2468788"><ele>743.0</ele><time>2026-04-07T11:17:22.925Z</time></trkpt><trkpt lat="44.2035077" lon="10.2469636"><ele>744.0</ele><time>2026-04-07T11:17:25.915Z</time></trkpt><trkpt lat="44.2035538" lon="10.2470482"><ele>745.0</ele><time>2026-04-07T11:17:28.93Z</time></trkpt><trkpt lat="44.2035921" lon="10.2471351"><ele>746.0</ele><time>2026-04-07T11:17:31.927Z</time></trkpt><trkpt lat="44.2036281" lon="10.2472105"><ele>746.0</ele><time>2026-04-07T11:17:34.913Z</time></trkpt><trkpt lat="44.2036683" lon="10.24729"><ele>746.0</ele><time>2026-04-07T11:17:38.941Z</time></trkpt><trkpt lat="44.2037133" lon="10.2473666"><ele>746.0</ele><time>2026-04-07T11:17:42.94Z</time></trkpt><trkpt lat="44.203747" lon="10.2474428"><ele>746.0</ele><time>2026-04-07T11:17:46.928Z</time></trkpt><trkpt lat="44.2037809" lon="10.247533"><ele>746.0</ele><time>2026-04-07T11:17:50.924Z</time></trkpt><trkpt lat="44.203823" lon="10.2476124"><ele>746.0</ele><time>2026-04-07T11:17:54.913Z</time></trkpt><trkpt lat="44.2038652" lon="10.2476952"><ele>746.0</ele><time>2026-04-07T11:17:58.928Z</time></trkpt><trkpt lat="44.2039042" lon="10.2477843"><ele>746.0</ele><time>2026-04-07T11:18:02.919Z</time></trkpt><trkpt lat="44.2039121" lon="10.2478912"><ele>746.0</ele><time>2026-04-07T11:18:06.925Z</time></trkpt><trkpt lat="44.2038969" lon="10.2479918"><ele>746.0</ele><time>2026-04-07T11:18:10.918Z</time></trkpt><trkpt lat="44.2038466" lon="10.2480674"><ele>746.0</ele><time>2026-04-07T11:18:14.923Z</time></trkpt><trkpt lat="44.2037991" lon="10.2481482"><ele>746.0</ele><time>2026-04-07T11:18:18.916Z</time></trkpt><trkpt lat="44.2037433" lon="10.2482289"><ele>746.0</ele><time>2026-04-07T11:18:22.925Z</time></trkpt><trkpt lat="44.2036938" lon="10.2483045"><ele>746.0</ele><time>2026-04-07T11:18:26.927Z</time></trkpt><trkpt lat="44.2036498" lon="10.2483868"><ele>746.0</ele><time>2026-04-07T11:18:30.924Z</time></trkpt><trkpt lat="44.2035968" lon="10.2484584"><ele>746.0</ele><time>2026-04-07T11:18:34.916Z</time></trkpt><trkpt lat="44.2035625" lon="10.2485558"><ele>746.0</ele><time>2026-04-07T11:18:38.923Z</time></trkpt><trkpt lat="44.2035413" lon="10.2486586"><ele>746.0</ele><time>2026-04-07T11:18:42.927Z</time></trkpt><trkpt lat="44.2035425" lon="10.2487544"><ele>746.0</ele><time>2026-04-07T11:18:46.946Z</time></trkpt><trkpt lat="44.2035595" lon="10.2488504"><ele>746.0</ele><time>2026-04-07T11:18:50.915Z</time></trkpt><trkpt lat="44.2035739" lon="10.2489539"><ele>747.7142857142858</ele><time>2026-04-07T11:18:54.929Z</time></trkpt><trkpt lat="44.2035871" lon="10.249046"><ele>749.4285714285714</ele><time>2026-04-07T11:18:58.923Z</time></trkpt><trkpt lat="44.203579" lon="10.2491461"><ele>751.1428571428571</ele><time>2026-04-07T11:19:03.917Z</time></trkpt><trkpt lat="44.2035456" lon="10.2492557"><ele>752.8571428571429</ele><time>2026-04-07T11:19:07.931Z</time></trkpt><trkpt lat="44.2035111" lon="10.2493389"><ele>754.5714285714286</ele><time>2026-04-07T11:19:11.923Z</time></trkpt><trkpt lat="44.2034659" lon="10.2494171"><ele>756.2857142857143</ele><time>2026-04-07T11:19:15.92Z</time></trkpt><trkpt lat="44.203418" lon="10.2495085"><ele>758.0</ele><time>2026-04-07T11:19:19.916Z</time></trkpt><trkpt lat="44.2033761" lon="10.2495896"><ele>758.0</ele><time>2026-04-07T11:19:23.935Z</time></trkpt><trkpt lat="44.2033594" lon="10.2496925"><ele>758.0</ele><time>2026-04-07T11:19:27.922Z</time></trkpt><trkpt lat="44.2033625" lon="10.2497876"><ele>758.0</ele><time>2026-04-07T11:19:31.922Z</time></trkpt><trkpt lat="44.203385" lon="10.249899"><ele>758.0</ele><time>2026-04-07T11:19:35.918Z</time></trkpt><trkpt lat="44.2034222" lon="10.2499998"><ele>758.0</ele><time>2026-04-07T11:19:39.923Z</time></trkpt><trkpt lat="44.203479" lon="10.2500796"><ele>758.0</ele><time>2026-04-07T11:19:43.915Z</time></trkpt><trkpt lat="44.2035366" lon="10.2501582"><ele>758.4285714285714</ele><time>2026-04-07T11:19:47.947Z</time></trkpt><trkpt lat="44.2035995" lon="10.250218"><ele>758.8571428571429</ele><time>2026-04-07T11:19:51.921Z</time></trkpt><trkpt lat="44.2036668" lon="10.2502676"><ele>759.2857142857142</ele><time>2026-04-07T11:19:55.927Z</time></trkpt><trkpt lat="44.203741" lon="10.250312"><ele>759.7142857142858</ele><time>2026-04-07T11:19:59.92Z</time></trkpt><trkpt lat="44.2038017" lon="10.2503467"><ele>760.1428571428571</ele><time>2026-04-07T11:20:02.932Z</time></trkpt><trkpt lat="44.2038717" lon="10.2504084"><ele>760.5714285714286</ele><time>2026-04-07T11:20:06.927Z</time></trkpt><trkpt lat="44.2039294" lon="10.2504529"><ele>761.0</ele><time>2026-04-07T11:20:09.926Z</time></trkpt><trkpt lat="44.2039877" lon="10.2504937"><ele>763.1428571428571</ele><time>2026-04-07T11:20:12.914Z</time></trkpt><trkpt lat="44.2040485" lon="10.2505724"><ele>765.2857142857142</ele><time>2026-04-07T11:20:16.931Z</time></trkpt><trkpt lat="44.2040957" lon="10.2506678"><ele>767.4285714285713</ele><time>2026-04-07T11:20:20.908Z</time></trkpt><trkpt lat="44.2041219" lon="10.2507545"><ele>769.5714285714286</ele><time>2026-04-07T11:20:23.918Z</time></trkpt><trkpt lat="44.2041453" lon="10.250844"><ele>771.7142857142858</ele><time>2026-04-07T11:20:26.941Z</time></trkpt><trkpt lat="44.2041634" lon="10.2509294"><ele>773.8571428571428</ele><time>2026-04-07T11:20:29.926Z</time></trkpt><trkpt lat="44.2041898" lon="10.2510145"><ele>776.0</ele><time>2026-04-07T11:20:32.922Z</time></trkpt><trkpt lat="44.2042304" lon="10.2510952"><ele>776.0</ele><time>2026-04-07T11:20:35.936Z</time></trkpt><trkpt lat="44.2042807" lon="10.2511509"><ele>776.0</ele><time>2026-04-07T11:20:38.931Z</time></trkpt><trkpt lat="44.2043498" lon="10.2512015"><ele>776.0</ele><time>2026-04-07T11:20:42.912Z</time></trkpt><trkpt lat="44.204413" lon="10.251247"><ele>776.0</ele><time>2026-04-07T11:20:45.913Z</time></trkpt><trkpt lat="44.2044754" lon="10.2512972"><ele>776.0</ele><time>2026-04-07T11:20:48.917Z</time></trkpt><trkpt lat="44.2045328" lon="10.2513438"><ele>776.0</ele><time>2026-04-07T11:20:51.924Z</time></trkpt><trkpt lat="44.2045922" lon="10.2514082"><ele>776.0</ele><time>2026-04-07T11:20:55.924Z</time></trkpt><trkpt lat="44.2046552" lon="10.251467"><ele>776.8571428571428</ele><time>2026-04-07T11:21:00.909Z</time></trkpt><trkpt lat="44.2047305" lon="10.2515124"><ele>777.7142857142858</ele><time>2026-04-07T11:21:04.927Z</time></trkpt><trkpt lat="44.2047927" lon="10.2515387"><ele>778.5714285714286</ele><time>2026-04-07T11:21:07.922Z</time></trkpt><trkpt lat="44.2048626" lon="10.2515843"><ele>779.4285714285713</ele><time>2026-04-07T11:21:11.917Z</time></trkpt><trkpt lat="44.2049259" lon="10.2516102"><ele>780.2857142857142</ele><time>2026-04-07T11:21:14.915Z</time></trkpt><trkpt lat="44.2049935" lon="10.2516432"><ele>781.1428571428571</ele><time>2026-04-07T11:21:17.927Z</time></trkpt><trkpt lat="44.2050581" lon="10.2516717"><ele>782.0</ele><time>2026-04-07T11:21:20.931Z</time></trkpt><trkpt lat="44.2051296" lon="10.2517281"><ele>781.9999999999999</ele><time>2026-04-07T11:21:24.922Z</time></trkpt><trkpt lat="44.2051639" lon="10.2518039"><ele>782.0</ele><time>2026-04-07T11:21:27.919Z</time></trkpt><trkpt lat="44.2051656" lon="10.2519166"><ele>782.0</ele><time>2026-04-07T11:21:31.918Z</time></trkpt><trkpt lat="44.2051284" lon="10.2520183"><ele>782.0</ele><time>2026-04-07T11:21:35.929Z</time></trkpt><trkpt lat="44.2051062" lon="10.2521303"><ele>782.0</ele><time>2026-04-07T11:21:39.911Z</time></trkpt><trkpt lat="44.2050979" lon="10.2522266"><ele>781.9999999999999</ele><time>2026-04-07T11:21:42.919Z</time></trkpt><trkpt lat="44.2051066" lon="10.2523225"><ele>782.0</ele><time>2026-04-07T11:21:45.919Z</time></trkpt><trkpt lat="44.2051221" lon="10.2524183"><ele>781.2857142857142</ele><time>2026-04-07T11:21:48.913Z</time></trkpt><trkpt lat="44.2051401" lon="10.2525059"><ele>780.5714285714286</ele><time>2026-04-07T11:21:51.932Z</time></trkpt><trkpt lat="44.2051651" lon="10.2525891"><ele>779.8571428571429</ele><time>2026-04-07T11:21:54.917Z</time></trkpt><trkpt lat="44.2051926" lon="10.252671"><ele>779.1428571428571</ele><time>2026-04-07T11:21:57.909Z</time></trkpt><trkpt lat="44.2052103" lon="10.2527622"><ele>778.4285714285714</ele><time>2026-04-07T11:22:00.91Z</time></trkpt><trkpt lat="44.2052348" lon="10.2528489"><ele>777.7142857142857</ele><time>2026-04-07T11:22:03.911Z</time></trkpt><trkpt lat="44.2052655" lon="10.2529358"><ele>777.0</ele><time>2026-04-07T11:22:06.917Z</time></trkpt><trkpt lat="44.2052933" lon="10.2530231"><ele>777.0</ele><time>2026-04-07T11:22:09.914Z</time></trkpt><trkpt lat="44.205311" lon="10.2531108"><ele>777.0</ele><time>2026-04-07T11:22:12.907Z</time></trkpt><trkpt lat="44.2053321" lon="10.2531973"><ele>777.0</ele><time>2026-04-07T11:22:15.908Z</time></trkpt><trkpt lat="44.20536" lon="10.2532835"><ele>777.0</ele><time>2026-04-07T11:22:18.911Z</time></trkpt><trkpt lat="44.205388" lon="10.2533689"><ele>777.0</ele><time>2026-04-07T11:22:21.912Z</time></trkpt><trkpt lat="44.2054088" lon="10.2534573"><ele>777.0</ele><time>2026-04-07T11:22:24.912Z</time></trkpt><trkpt lat="44.2054398" lon="10.2535384"><ele>777.0</ele><time>2026-04-07T11:22:27.911Z</time></trkpt><trkpt lat="44.2054728" lon="10.2536221"><ele>777.1428571428571</ele><time>2026-04-07T11:22:30.908Z</time></trkpt><trkpt lat="44.2055139" lon="10.2536997"><ele>777.2857142857142</ele><time>2026-04-07T11:22:33.91Z</time></trkpt><trkpt lat="44.2055543" lon="10.2537783"><ele>777.4285714285714</ele><time>2026-04-07T11:22:36.91Z</time></trkpt><trkpt lat="44.2055994" lon="10.2538449"><ele>777.5714285714286</ele><time>2026-04-07T11:22:39.91Z</time></trkpt><trkpt lat="44.2056409" lon="10.2539192"><ele>777.7142857142857</ele><time>2026-04-07T11:22:42.909Z</time></trkpt><trkpt lat="44.2056716" lon="10.2539993"><ele>777.8571428571429</ele><time>2026-04-07T11:22:45.913Z</time></trkpt><trkpt lat="44.2056663" lon="10.2541084"><ele>778.0</ele><time>2026-04-07T11:22:49.908Z</time></trkpt><trkpt lat="44.2056378" lon="10.2541989"><ele>778.0</ele><time>2026-04-07T11:22:52.911Z</time></trkpt><trkpt lat="44.2056012" lon="10.2542806"><ele>778.0</ele><time>2026-04-07T11:22:55.914Z</time></trkpt><trkpt lat="44.2055608" lon="10.2543616"><ele>778.0</ele><time>2026-04-07T11:22:58.908Z</time></trkpt><trkpt lat="44.2055175" lon="10.2544392"><ele>778.0</ele><time>2026-04-07T11:23:01.907Z</time></trkpt><trkpt lat="44.2054791" lon="10.2545414"><ele>778.0</ele><time>2026-04-07T11:23:05.912Z</time></trkpt><trkpt lat="44.2054662" lon="10.2546385"><ele>778.0</ele><time>2026-04-07T11:23:08.908Z</time></trkpt><trkpt lat="44.2054598" lon="10.2547331"><ele>778.0</ele><time>2026-04-07T11:23:11.913Z</time></trkpt><trkpt lat="44.2054871" lon="10.2548234"><ele>779.0</ele><time>2026-04-07T11:23:14.913Z</time></trkpt><trkpt lat="44.2055447" lon="10.2548735"><ele>780.0</ele><time>2026-04-07T11:23:17.918Z</time></trkpt><trkpt lat="44.2056074" lon="10.2548924"><ele>781.0</ele><time>2026-04-07T11:23:20.914Z</time></trkpt><trkpt lat="44.2056755" lon="10.2549011"><ele>782.0</ele><time>2026-04-07T11:23:24.915Z</time></trkpt><trkpt lat="44.2057572" lon="10.2548977"><ele>783.0</ele><time>2026-04-07T11:23:28.916Z</time></trkpt><trkpt lat="44.2058232" lon="10.2548809"><ele>784.0</ele><time>2026-04-07T11:23:33.908Z</time></trkpt><trkpt lat="44.2058875" lon="10.2548821"><ele>785.0</ele><time>2026-04-07T11:23:36.917Z</time></trkpt><trkpt lat="44.2059559" lon="10.2548839"><ele>786.6666666666667</ele><time>2026-04-07T11:23:40.919Z</time></trkpt><trkpt lat="44.2060249" lon="10.254906"><ele>788.3333333333334</ele><time>2026-04-07T11:23:45.909Z</time></trkpt><trkpt lat="44.2060726" lon="10.254973"><ele>790.0</ele><time>2026-04-07T11:23:49.92Z</time></trkpt><trkpt lat="44.206063" lon="10.2551041"><ele>791.6666666666667</ele><time>2026-04-07T11:23:52.913Z</time></trkpt><trkpt lat="44.2060588" lon="10.255216"><ele>793.3333333333334</ele><time>2026-04-07T11:23:54.912Z</time></trkpt><trkpt lat="44.2060504" lon="10.2553052"><ele>795.0</ele><time>2026-04-07T11:23:55.92Z</time></trkpt><trkpt lat="44.2060386" lon="10.2554578"><ele>794.6666666666666</ele><time>2026-04-07T11:23:57.922Z</time></trkpt><trkpt lat="44.2060248" lon="10.2556386"><ele>794.3333333333333</ele><time>2026-04-07T11:23:59.913Z</time></trkpt><trkpt lat="44.2060285" lon="10.2557365"><ele>794.0</ele><time>2026-04-07T11:24:00.914Z</time></trkpt><trkpt lat="44.2060605" lon="10.255831"><ele>793.6666666666666</ele><time>2026-04-07T11:24:01.915Z</time></trkpt><trkpt lat="44.2061107" lon="10.2559173"><ele>793.3333333333333</ele><time>2026-04-07T11:24:02.921Z</time></trkpt><trkpt lat="44.206175" lon="10.2559871"><ele>793.0</ele><time>2026-04-07T11:24:03.926Z</time></trkpt><trkpt lat="44.2062509" lon="10.2560428"><ele>792.9999999999999</ele><time>2026-04-07T11:24:04.94Z</time></trkpt><trkpt lat="44.2063279" lon="10.2560982"><ele>793.0</ele><time>2026-04-07T11:24:05.934Z</time></trkpt><trkpt lat="44.2064124" lon="10.2561444"><ele>793.0</ele><time>2026-04-07T11:24:06.93Z</time></trkpt><trkpt lat="44.2064955" lon="10.256194"><ele>793.0</ele><time>2026-04-07T11:24:07.917Z</time></trkpt><trkpt lat="44.206576" lon="10.2562553"><ele>792.9999999999999</ele><time>2026-04-07T11:24:08.939Z</time></trkpt><trkpt lat="44.2066409" lon="10.256322"><ele>793.0</ele><time>2026-04-07T11:24:09.934Z</time></trkpt><trkpt lat="44.2066842" lon="10.2564025"><ele>791.9999999999999</ele><time>2026-04-07T11:24:10.915Z</time></trkpt><trkpt lat="44.206705" lon="10.256501"><ele>791.0</ele><time>2026-04-07T11:24:11.926Z</time></trkpt><trkpt lat="44.2067036" lon="10.2566136"><ele>790.0</ele><time>2026-04-07T11:24:12.927Z</time></trkpt><trkpt lat="44.206679" lon="10.2567258"><ele>789.0</ele><time>2026-04-07T11:24:13.93Z</time></trkpt><trkpt lat="44.2066372" lon="10.2568334"><ele>787.9999999999999</ele><time>2026-04-07T11:24:14.908Z</time></trkpt><trkpt lat="44.2065855" lon="10.2569358"><ele>787.0</ele><time>2026-04-07T11:24:15.921Z</time></trkpt><trkpt lat="44.2065327" lon="10.2570458"><ele>787.2</ele><time>2026-04-07T11:24:16.924Z</time></trkpt><trkpt lat="44.2064845" lon="10.25716"><ele>787.4000000000001</ele><time>2026-04-07T11:24:17.92Z</time></trkpt><trkpt lat="44.2064355" lon="10.2572778"><ele>787.5999999999999</ele><time>2026-04-07T11:24:18.917Z</time></trkpt><trkpt lat="44.2063861" lon="10.2573978"><ele>787.8</ele><time>2026-04-07T11:24:19.92Z</time></trkpt><trkpt lat="44.2063292" lon="10.2575184"><ele>788.0</ele><time>2026-04-07T11:24:20.915Z</time></trkpt><trkpt lat="44.2062702" lon="10.2576368"><ele>786.0</ele><time>2026-04-07T11:24:21.912Z</time></trkpt><trkpt lat="44.2062096" lon="10.2577573"><ele>784.0</ele><time>2026-04-07T11:24:22.918Z</time></trkpt><trkpt lat="44.2061433" lon="10.2578732"><ele>782.0</ele><time>2026-04-07T11:24:23.914Z</time></trkpt><trkpt lat="44.2060755" lon="10.2579948"><ele>780.0</ele><time>2026-04-07T11:24:24.917Z</time></trkpt><trkpt lat="44.2060109" lon="10.2581188"><ele>778.0</ele><time>2026-04-07T11:24:25.916Z</time></trkpt><trkpt lat="44.205942" lon="10.258242"><ele>776.8</ele><time>2026-04-07T11:24:26.912Z</time></trkpt><trkpt lat="44.2058733" lon="10.2583709"><ele>775.5999999999999</ele><time>2026-04-07T11:24:27.927Z</time></trkpt><trkpt lat="44.2058025" lon="10.2585095"><ele>774.4000000000001</ele><time>2026-04-07T11:24:28.921Z</time></trkpt><trkpt lat="44.2057495" lon="10.2586029"><ele>773.2</ele><time>2026-04-07T11:24:29.909Z</time></trkpt><trkpt lat="44.2057014" lon="10.2587066"><ele>772.0</ele><time>2026-04-07T11:24:30.909Z</time></trkpt><trkpt lat="44.2056695" lon="10.2588255"><ele>770.2</ele><time>2026-04-07T11:24:31.937Z</time></trkpt><trkpt lat="44.2056479" lon="10.2589512"><ele>768.4000000000001</ele><time>2026-04-07T11:24:32.922Z</time></trkpt><trkpt lat="44.2056234" lon="10.2590732"><ele>766.5999999999999</ele><time>2026-04-07T11:24:33.931Z</time></trkpt><trkpt lat="44.205589" lon="10.2591941"><ele>764.8</ele><time>2026-04-07T11:24:34.913Z</time></trkpt><trkpt lat="44.2055327" lon="10.2592996"><ele>763.0</ele><time>2026-04-07T11:24:35.926Z</time></trkpt><trkpt lat="44.2054614" lon="10.2593873"><ele>763.0</ele><time>2026-04-07T11:24:36.92Z</time></trkpt><trkpt lat="44.2053819" lon="10.2594564"><ele>763.0</ele><time>2026-04-07T11:24:37.915Z</time></trkpt><trkpt lat="44.2052926" lon="10.2595163"><ele>763.0</ele><time>2026-04-07T11:24:38.928Z</time></trkpt><trkpt lat="44.2052028" lon="10.2595768"><ele>763.0</ele><time>2026-04-07T11:24:39.92Z</time></trkpt><trkpt lat="44.2051102" lon="10.2596416"><ele>763.0</ele><time>2026-04-07T11:24:40.909Z</time></trkpt><trkpt lat="44.2050188" lon="10.2597019"><ele>763.0</ele><time>2026-04-07T11:24:41.927Z</time></trkpt><trkpt lat="44.2049242" lon="10.2597611"><ele>763.0</ele><time>2026-04-07T11:24:42.932Z</time></trkpt><trkpt lat="44.2048292" lon="10.2598251"><ele>763.0</ele><time>2026-04-07T11:24:43.927Z</time></trkpt><trkpt lat="44.204735" lon="10.2598893"><ele>763.0</ele><time>2026-04-07T11:24:44.912Z</time></trkpt><trkpt lat="44.2046383" lon="10.2599548"><ele>763.0</ele><time>2026-04-07T11:24:45.908Z</time></trkpt><trkpt lat="44.2045511" lon="10.2600437"><ele>762.5999999999999</ele><time>2026-04-07T11:24:46.919Z</time></trkpt><trkpt lat="44.2044788" lon="10.2601581"><ele>762.1999999999999</ele><time>2026-04-07T11:24:47.912Z</time></trkpt><trkpt lat="44.2044237" lon="10.2602905"><ele>761.8</ele><time>2026-04-07T11:24:48.91Z</time></trkpt><trkpt lat="44.2043767" lon="10.2604303"><ele>761.4</ele><time>2026-04-07T11:24:49.924Z</time></trkpt><trkpt lat="44.2043347" lon="10.2605715"><ele>761.0</ele><time>2026-04-07T11:24:50.933Z</time></trkpt><trkpt lat="44.2042869" lon="10.2607075"><ele>761.0</ele><time>2026-04-07T11:24:51.936Z</time></trkpt><trkpt lat="44.2042255" lon="10.2608368"><ele>761.0</ele><time>2026-04-07T11:24:52.912Z</time></trkpt><trkpt lat="44.2041546" lon="10.2609572"><ele>761.0</ele><time>2026-04-07T11:24:53.93Z</time></trkpt><trkpt lat="44.2040762" lon="10.2610697"><ele>761.0</ele><time>2026-04-07T11:24:54.911Z</time></trkpt><trkpt lat="44.2040002" lon="10.261183"><ele>761.0</ele><time>2026-04-07T11:24:55.921Z</time></trkpt><trkpt lat="44.2039298" lon="10.2613062"><ele>755.5</ele><time>2026-04-07T11:24:56.92Z</time></trkpt><trkpt lat="44.2038687" lon="10.2614364"><ele>750.0</ele><time>2026-04-07T11:24:57.921Z</time></trkpt><trkpt lat="44.2038112" lon="10.2615759"><ele>744.5</ele><time>2026-04-07T11:24:58.919Z</time></trkpt><trkpt lat="44.2037568" lon="10.2617176"><ele>739.0</ele><time>2026-04-07T11:24:59.926Z</time></trkpt><trkpt lat="44.2037019" lon="10.2618574"><ele>739.0</ele><time>2026-04-07T11:25:00.918Z</time></trkpt><trkpt lat="44.2036481" lon="10.262003"><ele>739.0</ele><time>2026-04-07T11:25:01.913Z</time></trkpt><trkpt lat="44.2035982" lon="10.2621478"><ele>739.0</ele><time>2026-04-07T11:25:02.919Z</time></trkpt><trkpt lat="44.2035512" lon="10.2622902"><ele>739.0</ele><time>2026-04-07T11:25:03.912Z</time></trkpt><trkpt lat="44.2034996" lon="10.2624368"><ele>741.0</ele><time>2026-04-07T11:25:04.911Z</time></trkpt><trkpt lat="44.2034523" lon="10.2625815"><ele>743.0</ele><time>2026-04-07T11:25:05.922Z</time></trkpt><trkpt lat="44.2034026" lon="10.2627145"><ele>745.0</ele><time>2026-04-07T11:25:06.925Z</time></trkpt><trkpt lat="44.2033447" lon="10.2628172"><ele>747.0</ele><time>2026-04-07T11:25:07.911Z</time></trkpt><trkpt lat="44.203271" lon="10.2628917"><ele>749.0</ele><time>2026-04-07T11:25:08.931Z</time></trkpt><trkpt lat="44.2031856" lon="10.2629325"><ele>745.8333333333333</ele><time>2026-04-07T11:25:09.913Z</time></trkpt><trkpt lat="44.2030984" lon="10.2629302"><ele>742.6666666666666</ele><time>2026-04-07T11:25:10.915Z</time></trkpt><trkpt lat="44.2030127" lon="10.2628964"><ele>739.5</ele><time>2026-04-07T11:25:11.933Z</time></trkpt><trkpt lat="44.2029263" lon="10.2628748"><ele>736.3333333333334</ele><time>2026-04-07T11:25:12.934Z</time></trkpt><trkpt lat="44.2028499" lon="10.2628974"><ele>733.1666666666667</ele><time>2026-04-07T11:25:13.908Z</time></trkpt><trkpt lat="44.2027881" lon="10.2629502"><ele>730.0</ele><time>2026-04-07T11:25:14.913Z</time></trkpt><trkpt lat="44.2027407" lon="10.263031"><ele>733.1666666666667</ele><time>2026-04-07T11:25:15.924Z</time></trkpt><trkpt lat="44.2026977" lon="10.2631253"><ele>736.3333333333334</ele><time>2026-04-07T11:25:16.91Z</time></trkpt><trkpt lat="44.2026503" lon="10.2632208"><ele>739.5</ele><time>2026-04-07T11:25:17.919Z</time></trkpt><trkpt lat="44.2026018" lon="10.2633137"><ele>742.6666666666666</ele><time>2026-04-07T11:25:18.915Z</time></trkpt><trkpt lat="44.2025542" lon="10.2633871"><ele>745.8333333333333</ele><time>2026-04-07T11:25:19.909Z</time></trkpt><trkpt lat="44.2024958" lon="10.2634284"><ele>749.0</ele><time>2026-04-07T11:25:20.908Z</time></trkpt><trkpt lat="44.2023695" lon="10.2634288"><ele>749.7142857142857</ele><time>2026-04-07T11:25:22.914Z</time></trkpt><trkpt lat="44.2023159" lon="10.263367"><ele>750.4285714285714</ele><time>2026-04-07T11:25:23.922Z</time></trkpt><trkpt lat="44.2022783" lon="10.2632868"><ele>751.1428571428571</ele><time>2026-04-07T11:25:24.917Z</time></trkpt><trkpt lat="44.2022483" lon="10.2631943"><ele>751.8571428571429</ele><time>2026-04-07T11:25:25.935Z</time></trkpt><trkpt lat="44.2022239" lon="10.2630999"><ele>752.5714285714286</ele><time>2026-04-07T11:25:26.922Z</time></trkpt><trkpt lat="44.2021953" lon="10.2630073"><ele>753.2857142857142</ele><time>2026-04-07T11:25:27.93Z</time></trkpt><trkpt lat="44.2021622" lon="10.2629106"><ele>754.0</ele><time>2026-04-07T11:25:28.912Z</time></trkpt><trkpt lat="44.2021052" lon="10.2628282"><ele>750.3333333333334</ele><time>2026-04-07T11:25:29.914Z</time></trkpt><trkpt lat="44.2020281" lon="10.2627862"><ele>746.6666666666667</ele><time>2026-04-07T11:25:30.912Z</time></trkpt><trkpt lat="44.2019437" lon="10.2627834"><ele>743.0</ele><time>2026-04-07T11:25:31.914Z</time></trkpt><trkpt lat="44.2018579" lon="10.2628044"><ele>739.3333333333334</ele><time>2026-04-07T11:25:32.92Z</time></trkpt><trkpt lat="44.2017675" lon="10.2628187"><ele>735.6666666666666</ele><time>2026-04-07T11:25:33.924Z</time></trkpt><trkpt lat="44.2016805" lon="10.2628318"><ele>732.0</ele><time>2026-04-07T11:25:34.915Z</time></trkpt><trkpt lat="44.2015821" lon="10.2628079"><ele>734.4000000000001</ele><time>2026-04-07T11:25:35.911Z</time></trkpt><trkpt lat="44.2014931" lon="10.2627547"><ele>736.8000000000001</ele><time>2026-04-07T11:25:36.924Z</time></trkpt><trkpt lat="44.2014164" lon="10.2626701"><ele>739.2</ele><time>2026-04-07T11:25:37.931Z</time></trkpt><trkpt lat="44.2013581" lon="10.2625561"><ele>741.6</ele><time>2026-04-07T11:25:38.924Z</time></trkpt><trkpt lat="44.2013226" lon="10.2624272"><ele>744.0</ele><time>2026-04-07T11:25:39.922Z</time></trkpt><trkpt lat="44.2013158" lon="10.2622848"><ele>741.0</ele><time>2026-04-07T11:25:40.925Z</time></trkpt><trkpt lat="44.2013325" lon="10.2621378"><ele>738.0</ele><time>2026-04-07T11:25:41.921Z</time></trkpt><trkpt lat="44.2013688" lon="10.2620033"><ele>735.0</ele><time>2026-04-07T11:25:42.922Z</time></trkpt><trkpt lat="44.2013874" lon="10.2618756"><ele>732.0</ele><time>2026-04-07T11:25:43.914Z</time></trkpt><trkpt lat="44.2013782" lon="10.261761"><ele>729.0</ele><time>2026-04-07T11:25:44.917Z</time></trkpt><trkpt lat="44.201365" lon="10.2616408"><ele>729.0</ele><time>2026-04-07T11:25:45.91Z</time></trkpt><trkpt lat="44.2012924" lon="10.2615814"><ele>729.0</ele><time>2026-04-07T11:25:46.921Z</time></trkpt><trkpt lat="44.2012229" lon="10.2615349"><ele>729.0</ele><time>2026-04-07T11:25:47.912Z</time></trkpt><trkpt lat="44.2011443" lon="10.2615135"><ele>729.0</ele><time>2026-04-07T11:25:48.928Z</time></trkpt><trkpt lat="44.2010552" lon="10.2615168"><ele>729.0</ele><time>2026-04-07T11:25:49.917Z</time></trkpt><trkpt lat="44.2009726" lon="10.2615089"><ele>729.0</ele><time>2026-04-07T11:25:50.912Z</time></trkpt><trkpt lat="44.2008862" lon="10.2615105"><ele>729.0</ele><time>2026-04-07T11:25:51.936Z</time></trkpt><trkpt lat="44.2007993" lon="10.2615078"><ele>729.0</ele><time>2026-04-07T11:25:52.924Z</time></trkpt><trkpt lat="44.200714" lon="10.2614929"><ele>729.0</ele><time>2026-04-07T11:25:53.914Z</time></trkpt><trkpt lat="44.200625" lon="10.2614753"><ele>729.0</ele><time>2026-04-07T11:25:54.914Z</time></trkpt><trkpt lat="44.200541" lon="10.2614442"><ele>729.0</ele><time>2026-04-07T11:25:55.927Z</time></trkpt><trkpt lat="44.2004599" lon="10.2614073"><ele>729.0</ele><time>2026-04-07T11:25:56.916Z</time></trkpt><trkpt lat="44.2003759" lon="10.2613564"><ele>726.4000000000001</ele><time>2026-04-07T11:25:57.91Z</time></trkpt><trkpt lat="44.2002878" lon="10.2613439"><ele>723.8</ele><time>2026-04-07T11:25:58.93Z</time></trkpt><trkpt lat="44.2001953" lon="10.2613542"><ele>721.2</ele><time>2026-04-07T11:25:59.909Z</time></trkpt><trkpt lat="44.2001136" lon="10.2614357"><ele>718.5999999999999</ele><time>2026-04-07T11:26:00.917Z</time></trkpt><trkpt lat="44.2000388" lon="10.2615223"><ele>716.0</ele><time>2026-04-07T11:26:01.921Z</time></trkpt><trkpt lat="44.1999879" lon="10.2616429"><ele>716.0</ele><time>2026-04-07T11:26:02.914Z</time></trkpt><trkpt lat="44.1999634" lon="10.2617821"><ele>716.0</ele><time>2026-04-07T11:26:03.921Z</time></trkpt><trkpt lat="44.1999593" lon="10.2619202"><ele>716.0</ele><time>2026-04-07T11:26:04.926Z</time></trkpt><trkpt lat="44.1999692" lon="10.2620679"><ele>716.0</ele><time>2026-04-07T11:26:05.928Z</time></trkpt><trkpt lat="44.1999773" lon="10.2622098"><ele>716.0</ele><time>2026-04-07T11:26:06.915Z</time></trkpt><trkpt lat="44.1999643" lon="10.2623604"><ele>717.0</ele><time>2026-04-07T11:26:07.925Z</time></trkpt><trkpt lat="44.1999496" lon="10.2625053"><ele>718.0</ele><time>2026-04-07T11:26:08.922Z</time></trkpt><trkpt lat="44.1999257" lon="10.2626477"><ele>719.0</ele><time>2026-04-07T11:26:09.922Z</time></trkpt><trkpt lat="44.1999" lon="10.2627956"><ele>720.0</ele><time>2026-04-07T11:26:10.934Z</time></trkpt><trkpt lat="44.1998747" lon="10.2629407"><ele>721.0</ele><time>2026-04-07T11:26:11.923Z</time></trkpt><trkpt lat="44.1998524" lon="10.2630858"><ele>715.5999999999999</ele><time>2026-04-07T11:26:12.922Z</time></trkpt><trkpt lat="44.1998178" lon="10.2632273"><ele>710.2</ele><time>2026-04-07T11:26:13.917Z</time></trkpt><trkpt lat="44.1997711" lon="10.2633616"><ele>704.8</ele><time>2026-04-07T11:26:14.917Z</time></trkpt><trkpt lat="44.1997127" lon="10.2634874"><ele>699.4000000000001</ele><time>2026-04-07T11:26:15.913Z</time></trkpt><trkpt lat="44.19966" lon="10.2636181"><ele>694.0</ele><time>2026-04-07T11:26:16.92Z</time></trkpt><trkpt lat="44.19963" lon="10.2637591"><ele>694.0</ele><time>2026-04-07T11:26:17.914Z</time></trkpt><trkpt lat="44.1996091" lon="10.2639038"><ele>694.0</ele><time>2026-04-07T11:26:18.925Z</time></trkpt><trkpt lat="44.1996189" lon="10.2640628"><ele>694.0</ele><time>2026-04-07T11:26:19.916Z</time></trkpt><trkpt lat="44.1996206" lon="10.2642192"><ele>694.0</ele><time>2026-04-07T11:26:20.916Z</time></trkpt><trkpt lat="44.1996087" lon="10.2643683"><ele>694.0</ele><time>2026-04-07T11:26:21.912Z</time></trkpt><trkpt lat="44.1995845" lon="10.2645213"><ele>695.2</ele><time>2026-04-07T11:26:22.913Z</time></trkpt><trkpt lat="44.1995546" lon="10.2646674"><ele>696.4000000000001</ele><time>2026-04-07T11:26:23.912Z</time></trkpt><trkpt lat="44.1995237" lon="10.2648136"><ele>697.6</ele><time>2026-04-07T11:26:24.914Z</time></trkpt><trkpt lat="44.1994903" lon="10.2649571"><ele>698.8</ele><time>2026-04-07T11:26:25.908Z</time></trkpt><trkpt lat="44.1994607" lon="10.2650963"><ele>700.0</ele><time>2026-04-07T11:26:26.925Z</time></trkpt><trkpt lat="44.1994257" lon="10.2652216"><ele>700.6</ele><time>2026-04-07T11:26:27.928Z</time></trkpt><trkpt lat="44.1993808" lon="10.2653266"><ele>701.2</ele><time>2026-04-07T11:26:28.909Z</time></trkpt><trkpt lat="44.1993194" lon="10.2654103"><ele>701.8</ele><time>2026-04-07T11:26:29.924Z</time></trkpt><trkpt lat="44.1992359" lon="10.2654673"><ele>702.4</ele><time>2026-04-07T11:26:30.915Z</time></trkpt><trkpt lat="44.1991425" lon="10.2654914"><ele>703.0</ele><time>2026-04-07T11:26:31.911Z</time></trkpt><trkpt lat="44.1990476" lon="10.2655004"><ele>701.8</ele><time>2026-04-07T11:26:32.921Z</time></trkpt><trkpt lat="44.1989502" lon="10.2655059"><ele>700.5999999999999</ele><time>2026-04-07T11:26:33.91Z</time></trkpt><trkpt lat="44.1988527" lon="10.2655106"><ele>699.4000000000001</ele><time>2026-04-07T11:26:34.93Z</time></trkpt><trkpt lat="44.1987556" lon="10.2655177"><ele>698.2</ele><time>2026-04-07T11:26:35.911Z</time></trkpt><trkpt lat="44.1986569" lon="10.2655257"><ele>697.0</ele><time>2026-04-07T11:26:36.928Z</time></trkpt><trkpt lat="44.1985579" lon="10.2655276"><ele>697.0</ele><time>2026-04-07T11:26:37.928Z</time></trkpt><trkpt lat="44.198453" lon="10.2655331"><ele>697.0</ele><time>2026-04-07T11:26:38.916Z</time></trkpt><trkpt lat="44.1983455" lon="10.2655495"><ele>697.0</ele><time>2026-04-07T11:26:39.934Z</time></trkpt><trkpt lat="44.1982396" lon="10.2655638"><ele>697.0</ele><time>2026-04-07T11:26:40.925Z</time></trkpt><trkpt lat="44.1981467" lon="10.2655738"><ele>697.0</ele><time>2026-04-07T11:26:41.911Z</time></trkpt><trkpt lat="44.1980655" lon="10.2655703"><ele>695.8333333333334</ele><time>2026-04-07T11:26:42.937Z</time></trkpt><trkpt lat="44.1979909" lon="10.265535"><ele>694.6666666666667</ele><time>2026-04-07T11:26:43.919Z</time></trkpt><trkpt lat="44.1979288" lon="10.2654677"><ele>693.5</ele><time>2026-04-07T11:26:44.925Z</time></trkpt><trkpt lat="44.1978762" lon="10.2653802"><ele>692.3333333333334</ele><time>2026-04-07T11:26:45.923Z</time></trkpt><trkpt lat="44.1978305" lon="10.2652795"><ele>691.1666666666666</ele><time>2026-04-07T11:26:46.915Z</time></trkpt><trkpt lat="44.1977859" lon="10.2651758"><ele>690.0</ele><time>2026-04-07T11:26:47.917Z</time></trkpt><trkpt lat="44.1977456" lon="10.2650688"><ele>690.0</ele><time>2026-04-07T11:26:48.914Z</time></trkpt><trkpt lat="44.1977074" lon="10.2649603"><ele>690.0</ele><time>2026-04-07T11:26:49.911Z</time></trkpt><trkpt lat="44.1976677" lon="10.2648494"><ele>690.0</ele><time>2026-04-07T11:26:50.91Z</time></trkpt><trkpt lat="44.1976415" lon="10.2647327"><ele>690.0</ele><time>2026-04-07T11:26:51.927Z</time></trkpt><trkpt lat="44.1976345" lon="10.2646193"><ele>690.0</ele><time>2026-04-07T11:26:52.913Z</time></trkpt><trkpt lat="44.1976731" lon="10.2645238"><ele>690.0</ele><time>2026-04-07T11:26:53.934Z</time></trkpt><trkpt lat="44.1977319" lon="10.2644467"><ele>689.0</ele><time>2026-04-07T11:26:54.921Z</time></trkpt><trkpt lat="44.1977955" lon="10.2643859"><ele>688.0</ele><time>2026-04-07T11:26:55.926Z</time></trkpt><trkpt lat="44.1978683" lon="10.2643393"><ele>687.0</ele><time>2026-04-07T11:26:56.922Z</time></trkpt><trkpt lat="44.1979472" lon="10.2642919"><ele>686.0</ele><time>2026-04-07T11:26:57.914Z</time></trkpt><trkpt lat="44.1980261" lon="10.2642467"><ele>685.0</ele><time>2026-04-07T11:26:58.912Z</time></trkpt><trkpt lat="44.1981008" lon="10.2642058"><ele>684.0</ele><time>2026-04-07T11:26:59.926Z</time></trkpt><trkpt lat="44.1981671" lon="10.2641657"><ele>683.6</ele><time>2026-04-07T11:27:00.911Z</time></trkpt><trkpt lat="44.198272" lon="10.2640837"><ele>683.2</ele><time>2026-04-07T11:27:02.926Z</time></trkpt><trkpt lat="44.1983263" lon="10.2639599"><ele>682.8000000000001</ele><time>2026-04-07T11:27:04.914Z</time></trkpt><trkpt lat="44.1983203" lon="10.2638297"><ele>682.4000000000001</ele><time>2026-04-07T11:27:06.924Z</time></trkpt><trkpt lat="44.1982801" lon="10.2637288"><ele>682.0</ele><time>2026-04-07T11:27:08.919Z</time></trkpt><trkpt lat="44.1982056" lon="10.2636668"><ele>682.0</ele><time>2026-04-07T11:27:10.919Z</time></trkpt><trkpt lat="44.1981067" lon="10.2636459"><ele>682.0</ele><time>2026-04-07T11:27:12.929Z</time></trkpt><trkpt lat="44.1980013" lon="10.263624"><ele>682.0</ele><time>2026-04-07T11:27:14.914Z</time></trkpt><trkpt lat="44.1978875" lon="10.2636006"><ele>682.0</ele><time>2026-04-07T11:27:16.908Z</time></trkpt><trkpt lat="44.1977606" lon="10.2635899"><ele>682.0</ele><time>2026-04-07T11:27:18.917Z</time></trkpt><trkpt lat="44.1976967" lon="10.2635851"><ele>682.0</ele><time>2026-04-07T11:27:19.917Z</time></trkpt><trkpt lat="44.1976297" lon="10.2635781"><ele>682.0</ele><time>2026-04-07T11:27:20.908Z</time></trkpt><trkpt lat="44.1975587" lon="10.2635737"><ele>682.0</ele><time>2026-04-07T11:27:21.924Z</time></trkpt><trkpt lat="44.1974898" lon="10.2635822"><ele>682.0</ele><time>2026-04-07T11:27:22.932Z</time></trkpt><trkpt lat="44.1974183" lon="10.2636112"><ele>682.0</ele><time>2026-04-07T11:27:23.921Z</time></trkpt><trkpt lat="44.1973484" lon="10.2636572"><ele>682.0</ele><time>2026-04-07T11:27:24.92Z</time></trkpt><trkpt lat="44.1972797" lon="10.2637115"><ele>682.0</ele><time>2026-04-07T11:27:25.921Z</time></trkpt><trkpt lat="44.1972069" lon="10.2637688"><ele>681.0</ele><time>2026-04-07T11:27:26.931Z</time></trkpt><trkpt lat="44.1971318" lon="10.2638274"><ele>680.0</ele><time>2026-04-07T11:27:27.922Z</time></trkpt><trkpt lat="44.1970554" lon="10.2638828"><ele>679.0</ele><time>2026-04-07T11:27:28.916Z</time></trkpt><trkpt lat="44.1969743" lon="10.2639387"><ele>678.0</ele><time>2026-04-07T11:27:29.925Z</time></trkpt><trkpt lat="44.1968943" lon="10.2639997"><ele>677.0</ele><time>2026-04-07T11:27:30.924Z</time></trkpt><trkpt lat="44.1968101" lon="10.2640602"><ele>676.0</ele><time>2026-04-07T11:27:31.916Z</time></trkpt><trkpt lat="44.1967247" lon="10.2641198"><ele>676.0</ele><time>2026-04-07T11:27:32.911Z</time></trkpt><trkpt lat="44.196638" lon="10.2641836"><ele>676.0</ele><time>2026-04-07T11:27:33.914Z</time></trkpt><trkpt lat="44.1965535" lon="10.2642506"><ele>676.0</ele><time>2026-04-07T11:27:34.911Z</time></trkpt><trkpt lat="44.1964659" lon="10.2643203"><ele>676.0</ele><time>2026-04-07T11:27:35.928Z</time></trkpt><trkpt lat="44.1963734" lon="10.2643808"><ele>676.0</ele><time>2026-04-07T11:27:36.918Z</time></trkpt><trkpt lat="44.1962792" lon="10.2644382"><ele>674.0</ele><time>2026-04-07T11:27:37.92Z</time></trkpt><trkpt lat="44.1961855" lon="10.2644957"><ele>672.0</ele><time>2026-04-07T11:27:38.925Z</time></trkpt><trkpt lat="44.196096" lon="10.2645641"><ele>670.0</ele><time>2026-04-07T11:27:39.914Z</time></trkpt><trkpt lat="44.1960226" lon="10.2646757"><ele>668.0</ele><time>2026-04-07T11:27:40.923Z</time></trkpt><trkpt lat="44.1959685" lon="10.2647996"><ele>666.0</ele><time>2026-04-07T11:27:41.921Z</time></trkpt><trkpt lat="44.1959419" lon="10.2649399"><ele>666.0</ele><time>2026-04-07T11:27:42.912Z</time></trkpt><trkpt lat="44.1959143" lon="10.2650838"><ele>666.0</ele><time>2026-04-07T11:27:43.909Z</time></trkpt><trkpt lat="44.1958794" lon="10.2652271"><ele>666.0</ele><time>2026-04-07T11:27:44.922Z</time></trkpt><trkpt lat="44.195825" lon="10.265358"><ele>666.0</ele><time>2026-04-07T11:27:45.913Z</time></trkpt><trkpt lat="44.1957587" lon="10.2654732"><ele>666.0</ele><time>2026-04-07T11:27:46.915Z</time></trkpt><trkpt lat="44.1956886" lon="10.2655882"><ele>662.4</ele><time>2026-04-07T11:27:47.922Z</time></trkpt><trkpt lat="44.1956224" lon="10.2657017"><ele>658.8</ele><time>2026-04-07T11:27:48.909Z</time></trkpt><trkpt lat="44.1955788" lon="10.2658329"><ele>655.1999999999999</ele><time>2026-04-07T11:27:49.921Z</time></trkpt><trkpt lat="44.1955718" lon="10.2659833"><ele>651.5999999999999</ele><time>2026-04-07T11:27:50.916Z</time></trkpt><trkpt lat="44.1955975" lon="10.2661324"><ele>648.0</ele><time>2026-04-07T11:27:51.921Z</time></trkpt><trkpt lat="44.1956378" lon="10.2662726"><ele>648.0</ele><time>2026-04-07T11:27:52.917Z</time></trkpt><trkpt lat="44.1956573" lon="10.2664276"><ele>648.0</ele><time>2026-04-07T11:27:53.926Z</time></trkpt><trkpt lat="44.1956448" lon="10.2665824"><ele>648.0</ele><time>2026-04-07T11:27:54.923Z</time></trkpt><trkpt lat="44.1956145" lon="10.2667324"><ele>648.0</ele><time>2026-04-07T11:27:55.914Z</time></trkpt><trkpt lat="44.1955722" lon="10.2668756"><ele>648.0</ele><time>2026-04-07T11:27:56.915Z</time></trkpt><trkpt lat="44.1955416" lon="10.2670271"><ele>647.5</ele><time>2026-04-07T11:27:57.916Z</time></trkpt><trkpt lat="44.1955336" lon="10.2671859"><ele>647.0</ele><time>2026-04-07T11:27:58.929Z</time></trkpt><trkpt lat="44.1955496" lon="10.267343"><ele>646.5</ele><time>2026-04-07T11:27:59.932Z</time></trkpt><trkpt lat="44.1955827" lon="10.2674984"><ele>646.0</ele><time>2026-04-07T11:28:00.907Z</time></trkpt><trkpt lat="44.1956162" lon="10.267662"><ele>644.75</ele><time>2026-04-07T11:28:01.921Z</time></trkpt><trkpt lat="44.1956421" lon="10.2678241"><ele>643.5</ele><time>2026-04-07T11:28:02.924Z</time></trkpt><trkpt lat="44.1956508" lon="10.2680003"><ele>642.25</ele><time>2026-04-07T11:28:03.923Z</time></trkpt><trkpt lat="44.1956545" lon="10.2681716"><ele>641.0</ele><time>2026-04-07T11:28:04.912Z</time></trkpt><trkpt lat="44.195653" lon="10.2683275"><ele>640.0</ele><time>2026-04-07T11:28:05.919Z</time></trkpt><trkpt lat="44.1956308" lon="10.268484"><ele>639.0</ele><time>2026-04-07T11:28:06.917Z</time></trkpt><trkpt lat="44.1955825" lon="10.2686304"><ele>638.0</ele><time>2026-04-07T11:28:07.941Z</time></trkpt><trkpt lat="44.1955151" lon="10.2687643"><ele>637.0</ele><time>2026-04-07T11:28:08.912Z</time></trkpt><trkpt lat="44.195439" lon="10.2688862"><ele>637.6</ele><time>2026-04-07T11:28:09.918Z</time></trkpt><trkpt lat="44.1953612" lon="10.2690113"><ele>638.2</ele><time>2026-04-07T11:28:10.916Z</time></trkpt><trkpt lat="44.1952873" lon="10.2691333"><ele>638.8</ele><time>2026-04-07T11:28:11.922Z</time></trkpt><trkpt lat="44.195218" lon="10.2692437"><ele>639.4</ele><time>2026-04-07T11:28:12.927Z</time></trkpt><trkpt lat="44.1951556" lon="10.2693387"><ele>640.0</ele><time>2026-04-07T11:28:13.923Z</time></trkpt><trkpt lat="44.1951064" lon="10.2694281"><ele>640.0</ele><time>2026-04-07T11:28:14.913Z</time></trkpt><trkpt lat="44.1950821" lon="10.2695305"><ele>640.0</ele><time>2026-04-07T11:28:15.91Z</time></trkpt><trkpt lat="44.1950811" lon="10.2696402"><ele>640.0</ele><time>2026-04-07T11:28:16.911Z</time></trkpt><trkpt lat="44.1950965" lon="10.2697519"><ele>640.0</ele><time>2026-04-07T11:28:17.911Z</time></trkpt><trkpt lat="44.1951263" lon="10.2698703"><ele>640.0</ele><time>2026-04-07T11:28:18.927Z</time></trkpt><trkpt lat="44.1951625" lon="10.2699907"><ele>640.0</ele><time>2026-04-07T11:28:19.909Z</time></trkpt><trkpt lat="44.1952079" lon="10.2701091"><ele>639.8</ele><time>2026-04-07T11:28:20.927Z</time></trkpt><trkpt lat="44.1952593" lon="10.2702199"><ele>639.6</ele><time>2026-04-07T11:28:21.926Z</time></trkpt><trkpt lat="44.1953154" lon="10.2703325"><ele>639.4</ele><time>2026-04-07T11:28:22.916Z</time></trkpt><trkpt lat="44.1953759" lon="10.2704443"><ele>639.2</ele><time>2026-04-07T11:28:23.929Z</time></trkpt><trkpt lat="44.1954344" lon="10.2705594"><ele>639.0</ele><time>2026-04-07T11:28:24.922Z</time></trkpt><trkpt lat="44.1954849" lon="10.2706841"><ele>637.4</ele><time>2026-04-07T11:28:25.922Z</time></trkpt><trkpt lat="44.1955146" lon="10.2708248"><ele>635.8</ele><time>2026-04-07T11:28:26.909Z</time></trkpt><trkpt lat="44.1955162" lon="10.2709737"><ele>634.2</ele><time>2026-04-07T11:28:27.92Z</time></trkpt><trkpt lat="44.1954911" lon="10.2711136"><ele>632.6</ele><time>2026-04-07T11:28:28.921Z</time></trkpt><trkpt lat="44.1954563" lon="10.2712517"><ele>631.0</ele><time>2026-04-07T11:28:29.914Z</time></trkpt><trkpt lat="44.1954134" lon="10.2713899"><ele>631.3333333333334</ele><time>2026-04-07T11:28:30.91Z</time></trkpt><trkpt lat="44.1953725" lon="10.2715174"><ele>631.6666666666667</ele><time>2026-04-07T11:28:31.926Z</time></trkpt><trkpt lat="44.1953337" lon="10.271641"><ele>632.0</ele><time>2026-04-07T11:28:32.916Z</time></trkpt><trkpt lat="44.1952985" lon="10.2717524"><ele>632.3333333333334</ele><time>2026-04-07T11:28:33.922Z</time></trkpt><trkpt lat="44.1952648" lon="10.2718516"><ele>632.6666666666666</ele><time>2026-04-07T11:28:34.926Z</time></trkpt><trkpt lat="44.1952428" lon="10.271947"><ele>633.0</ele><time>2026-04-07T11:28:35.909Z</time></trkpt><trkpt lat="44.1952314" lon="10.272041"><ele>633.0</ele><time>2026-04-07T11:28:36.914Z</time></trkpt><trkpt lat="44.1952429" lon="10.2721376"><ele>633.0</ele><time>2026-04-07T11:28:37.92Z</time></trkpt><trkpt lat="44.1952754" lon="10.2722281"><ele>633.0</ele><time>2026-04-07T11:28:38.919Z</time></trkpt><trkpt lat="44.1953235" lon="10.2723148"><ele>633.0</ele><time>2026-04-07T11:28:39.929Z</time></trkpt><trkpt lat="44.1953757" lon="10.2724044"><ele>633.0</ele><time>2026-04-07T11:28:40.917Z</time></trkpt><trkpt lat="44.1954338" lon="10.2724989"><ele>633.0</ele><time>2026-04-07T11:28:41.936Z</time></trkpt><trkpt lat="44.1954891" lon="10.2726048"><ele>632.6666666666666</ele><time>2026-04-07T11:28:42.909Z</time></trkpt><trkpt lat="44.1955428" lon="10.2727215"><ele>632.3333333333334</ele><time>2026-04-07T11:28:43.917Z</time></trkpt><trkpt lat="44.1955856" lon="10.2728459"><ele>632.0</ele><time>2026-04-07T11:28:44.928Z</time></trkpt><trkpt lat="44.1956216" lon="10.2729581"><ele>631.6666666666667</ele><time>2026-04-07T11:28:45.913Z</time></trkpt><trkpt lat="44.1956532" lon="10.2730539"><ele>631.3333333333334</ele><time>2026-04-07T11:28:46.907Z</time></trkpt><trkpt lat="44.1956781" lon="10.2731401"><ele>631.0</ele><time>2026-04-07T11:28:47.916Z</time></trkpt><trkpt lat="44.1956551" lon="10.2732848"><ele>629.6666666666667</ele><time>2026-04-07T11:28:49.915Z</time></trkpt><trkpt lat="44.1955929" lon="10.273305"><ele>628.3333333333334</ele><time>2026-04-07T11:28:50.913Z</time></trkpt><trkpt lat="44.1954751" lon="10.2732792"><ele>627.0</ele><time>2026-04-07T11:28:52.934Z</time></trkpt><trkpt lat="44.1953544" lon="10.2732435"><ele>625.6666666666666</ele><time>2026-04-07T11:28:54.911Z</time></trkpt><trkpt lat="44.1952905" lon="10.273226"><ele>624.3333333333333</ele><time>2026-04-07T11:28:55.912Z</time></trkpt><trkpt lat="44.1952223" lon="10.2732039"><ele>623.0</ele><time>2026-04-07T11:28:56.937Z</time></trkpt><trkpt lat="44.19515" lon="10.2731902"><ele>623.0</ele><time>2026-04-07T11:28:57.917Z</time></trkpt><trkpt lat="44.195075" lon="10.2731862"><ele>623.0</ele><time>2026-04-07T11:28:58.938Z</time></trkpt><trkpt lat="44.1949993" lon="10.2732129"><ele>623.0</ele><time>2026-04-07T11:28:59.919Z</time></trkpt><trkpt lat="44.1949209" lon="10.2732492"><ele>623.0</ele><time>2026-04-07T11:29:00.912Z</time></trkpt><trkpt lat="44.1948493" lon="10.27331"><ele>623.0</ele><time>2026-04-07T11:29:01.908Z</time></trkpt><trkpt lat="44.1947892" lon="10.2734058"><ele>623.0</ele><time>2026-04-07T11:29:02.91Z</time></trkpt><trkpt lat="44.1947481" lon="10.2735166"><ele>622.1999999999999</ele><time>2026-04-07T11:29:03.921Z</time></trkpt><trkpt lat="44.1947135" lon="10.2736431"><ele>621.4</ele><time>2026-04-07T11:29:04.923Z</time></trkpt><trkpt lat="44.1946784" lon="10.2737734"><ele>620.5999999999999</ele><time>2026-04-07T11:29:05.922Z</time></trkpt><trkpt lat="44.1946464" lon="10.273909"><ele>619.8</ele><time>2026-04-07T11:29:06.929Z</time></trkpt><trkpt lat="44.1946219" lon="10.2740527"><ele>619.0</ele><time>2026-04-07T11:29:07.927Z</time></trkpt><trkpt lat="44.1946089" lon="10.2742066"><ele>617.8</ele><time>2026-04-07T11:29:08.912Z</time></trkpt><trkpt lat="44.1945995" lon="10.2743664"><ele>616.5999999999999</ele><time>2026-04-07T11:29:09.921Z</time></trkpt><trkpt lat="44.1945912" lon="10.2745326"><ele>615.4</ele><time>2026-04-07T11:29:10.922Z</time></trkpt><trkpt lat="44.1945866" lon="10.2746924"><ele>614.1999999999999</ele><time>2026-04-07T11:29:11.92Z</time></trkpt><trkpt lat="44.1945827" lon="10.27483"><ele>613.0</ele><time>2026-04-07T11:29:12.92Z</time></trkpt><trkpt lat="44.1945807" lon="10.2749496"><ele>613.0</ele><time>2026-04-07T11:29:13.925Z</time></trkpt><trkpt lat="44.1945881" lon="10.2750547"><ele>613.0</ele><time>2026-04-07T11:29:14.93Z</time></trkpt><trkpt lat="44.1946197" lon="10.2751437"><ele>613.0</ele><time>2026-04-07T11:29:15.932Z</time></trkpt><trkpt lat="44.1946615" lon="10.2752194"><ele>613.0</ele><time>2026-04-07T11:29:16.926Z</time></trkpt><trkpt lat="44.1947452" lon="10.2752487"><ele>613.0</ele><time>2026-04-07T11:29:17.912Z</time></trkpt><trkpt lat="44.194825" lon="10.2752795"><ele>613.0</ele><time>2026-04-07T11:29:18.936Z</time></trkpt><trkpt lat="44.1949138" lon="10.2753015"><ele>612.0</ele><time>2026-04-07T11:29:19.914Z</time></trkpt><trkpt lat="44.1950053" lon="10.2753228"><ele>611.0</ele><time>2026-04-07T11:29:20.912Z</time></trkpt><trkpt lat="44.1950946" lon="10.2753472"><ele>610.0</ele><time>2026-04-07T11:29:21.923Z</time></trkpt><trkpt lat="44.1951883" lon="10.2753718"><ele>609.0</ele><time>2026-04-07T11:29:22.92Z</time></trkpt><trkpt lat="44.1952797" lon="10.2754046"><ele>608.0</ele><time>2026-04-07T11:29:23.921Z</time></trkpt><trkpt lat="44.1953689" lon="10.2754306"><ele>608.0</ele><time>2026-04-07T11:29:24.934Z</time></trkpt><trkpt lat="44.1954639" lon="10.2754504"><ele>608.0</ele><time>2026-04-07T11:29:25.915Z</time></trkpt><trkpt lat="44.1955564" lon="10.2754875"><ele>608.0</ele><time>2026-04-07T11:29:26.927Z</time></trkpt><trkpt lat="44.1956563" lon="10.2755296"><ele>608.0</ele><time>2026-04-07T11:29:27.913Z</time></trkpt><trkpt lat="44.1957515" lon="10.2755858"><ele>608.0</ele><time>2026-04-07T11:29:28.915Z</time></trkpt><trkpt lat="44.1958445" lon="10.2756576"><ele>605.25</ele><time>2026-04-07T11:29:29.911Z</time></trkpt><trkpt lat="44.1959344" lon="10.2757456"><ele>602.5</ele><time>2026-04-07T11:29:30.921Z</time></trkpt><trkpt lat="44.1960206" lon="10.2758501"><ele>599.75</ele><time>2026-04-07T11:29:31.918Z</time></trkpt><trkpt lat="44.1961014" lon="10.2759671"><ele>597.0</ele><time>2026-04-07T11:29:32.913Z</time></trkpt><trkpt lat="44.1961733" lon="10.2760964"><ele>597.0</ele><time>2026-04-07T11:29:33.912Z</time></trkpt><trkpt lat="44.1962415" lon="10.2762301"><ele>597.0</ele><time>2026-04-07T11:29:34.909Z</time></trkpt><trkpt lat="44.1963116" lon="10.2763606"><ele>597.0</ele><time>2026-04-07T11:29:35.922Z</time></trkpt><trkpt lat="44.1963819" lon="10.2764935"><ele>597.0</ele><time>2026-04-07T11:29:36.924Z</time></trkpt><trkpt lat="44.1964478" lon="10.2766261"><ele>596.0</ele><time>2026-04-07T11:29:37.926Z</time></trkpt><trkpt lat="44.1965148" lon="10.2767509"><ele>595.0</ele><time>2026-04-07T11:29:38.918Z</time></trkpt><trkpt lat="44.1965824" lon="10.27685"><ele>594.0</ele><time>2026-04-07T11:29:39.921Z</time></trkpt><trkpt lat="44.1966554" lon="10.2769155"><ele>593.0</ele><time>2026-04-07T11:29:40.917Z</time></trkpt><trkpt lat="44.1967304" lon="10.2769431"><ele>592.0</ele><time>2026-04-07T11:29:41.924Z</time></trkpt><trkpt lat="44.1968172" lon="10.2769157"><ele>592.0</ele><time>2026-04-07T11:29:42.912Z</time></trkpt><trkpt lat="44.1969022" lon="10.2768695"><ele>592.0</ele><time>2026-04-07T11:29:43.913Z</time></trkpt><trkpt lat="44.1969831" lon="10.2768279"><ele>592.0</ele><time>2026-04-07T11:29:44.919Z</time></trkpt><trkpt lat="44.1970689" lon="10.2767869"><ele>592.0</ele><time>2026-04-07T11:29:45.92Z</time></trkpt><trkpt lat="44.1971576" lon="10.2767484"><ele>592.0</ele><time>2026-04-07T11:29:46.917Z</time></trkpt><trkpt lat="44.1972494" lon="10.2767107"><ele>591.2</ele><time>2026-04-07T11:29:47.911Z</time></trkpt><trkpt lat="44.1973398" lon="10.2766787"><ele>590.4000000000001</ele><time>2026-04-07T11:29:48.923Z</time></trkpt><trkpt lat="44.1974348" lon="10.2766416"><ele>589.5999999999999</ele><time>2026-04-07T11:29:49.916Z</time></trkpt><trkpt lat="44.1975322" lon="10.2766033"><ele>588.8</ele><time>2026-04-07T11:29:50.927Z</time></trkpt><trkpt lat="44.1976306" lon="10.2765725"><ele>588.0</ele><time>2026-04-07T11:29:51.913Z</time></trkpt><trkpt lat="44.1977321" lon="10.2765458"><ele>588.0</ele><time>2026-04-07T11:29:52.933Z</time></trkpt><trkpt lat="44.1978353" lon="10.2765381"><ele>588.0</ele><time>2026-04-07T11:29:53.918Z</time></trkpt><trkpt lat="44.1979414" lon="10.2765582"><ele>588.0</ele><time>2026-04-07T11:29:54.921Z</time></trkpt><trkpt lat="44.19804" lon="10.2765865"><ele>588.0</ele><time>2026-04-07T11:29:55.915Z</time></trkpt><trkpt lat="44.1981278" lon="10.2766059"><ele>588.0</ele><time>2026-04-07T11:29:56.912Z</time></trkpt><trkpt lat="44.1982127" lon="10.2765947"><ele>587.6666666666666</ele><time>2026-04-07T11:29:57.919Z</time></trkpt><trkpt lat="44.1982883" lon="10.2765529"><ele>587.3333333333334</ele><time>2026-04-07T11:29:58.913Z</time></trkpt><trkpt lat="44.1983547" lon="10.2764726"><ele>587.0</ele><time>2026-04-07T11:29:59.919Z</time></trkpt><trkpt lat="44.1984106" lon="10.2763761"><ele>586.6666666666667</ele><time>2026-04-07T11:30:00.919Z</time></trkpt><trkpt lat="44.1984657" lon="10.2762749"><ele>586.3333333333334</ele><time>2026-04-07T11:30:01.909Z</time></trkpt><trkpt lat="44.1985266" lon="10.2761874"><ele>586.0</ele><time>2026-04-07T11:30:02.92Z</time></trkpt><trkpt lat="44.1985865" lon="10.2761208"><ele>586.0</ele><time>2026-04-07T11:30:03.923Z</time></trkpt><trkpt lat="44.1986591" lon="10.2760779"><ele>586.0</ele><time>2026-04-07T11:30:04.912Z</time></trkpt><trkpt lat="44.1987372" lon="10.2760557"><ele>586.0</ele><time>2026-04-07T11:30:05.92Z</time></trkpt><trkpt lat="44.198798" lon="10.276085"><ele>586.0</ele><time>2026-04-07T11:30:06.913Z</time></trkpt><trkpt lat="44.1988509" lon="10.276137"><ele>586.0</ele><time>2026-04-07T11:30:07.929Z</time></trkpt><trkpt lat="44.1988903" lon="10.2762914"><ele>586.0</ele><time>2026-04-07T11:30:09.914Z</time></trkpt><trkpt lat="44.1988575" lon="10.2764368"><ele>586.0</ele><time>2026-04-07T11:30:11.918Z</time></trkpt><trkpt lat="44.1988154" lon="10.2765523"><ele>586.0</ele><time>2026-04-07T11:30:13.93Z</time></trkpt><trkpt lat="44.1987752" lon="10.276646"><ele>586.0</ele><time>2026-04-07T11:30:15.909Z</time></trkpt><trkpt lat="44.1987339" lon="10.2767307"><ele>586.0</ele><time>2026-04-07T11:30:18.912Z</time></trkpt><trkpt lat="44.1986999" lon="10.2768107"><ele>586.0</ele><time>2026-04-07T11:30:21.912Z</time></trkpt><trkpt lat="44.1986503" lon="10.2769022"><ele>586.0</ele><time>2026-04-07T11:30:25.913Z</time></trkpt><trkpt lat="44.1986073" lon="10.2770033"><ele>585.9999999999999</ele><time>2026-04-07T11:30:29.918Z</time></trkpt><trkpt lat="44.1985708" lon="10.2770794"><ele>586.0</ele><time>2026-04-07T11:30:32.91Z</time></trkpt><trkpt lat="44.198524" lon="10.2771784"><ele>586.0</ele><time>2026-04-07T11:30:36.912Z</time></trkpt><trkpt lat="44.1984794" lon="10.2772458"><ele>586.0</ele><time>2026-04-07T11:30:39.911Z</time></trkpt><trkpt lat="44.1984107" lon="10.277316"><ele>586.0</ele><time>2026-04-07T11:30:43.917Z</time></trkpt><trkpt lat="44.1983458" lon="10.2773533"><ele>585.9999999999999</ele><time>2026-04-07T11:30:46.916Z</time></trkpt><trkpt lat="44.19828" lon="10.2773686"><ele>586.0</ele><time>2026-04-07T11:30:49.911Z</time></trkpt><trkpt lat="44.1981962" lon="10.2773767"><ele>585.9999999999999</ele><time>2026-04-07T11:30:53.927Z</time></trkpt><trkpt lat="44.1981305" lon="10.2773945"><ele>586.0</ele><time>2026-04-07T11:30:56.912Z</time></trkpt><trkpt lat="44.1980638" lon="10.2773954"><ele>586.0</ele><time>2026-04-07T11:30:59.915Z</time></trkpt><trkpt lat="44.1979986" lon="10.2774092"><ele>586.0</ele><time>2026-04-07T11:31:02.91Z</time></trkpt><trkpt lat="44.1979333" lon="10.277433"><ele>586.0</ele><time>2026-04-07T11:31:05.923Z</time></trkpt><trkpt lat="44.1978665" lon="10.2774445"><ele>585.9999999999999</ele><time>2026-04-07T11:31:08.938Z</time></trkpt><trkpt lat="44.1978024" lon="10.277465"><ele>586.0</ele><time>2026-04-07T11:31:11.914Z</time></trkpt><trkpt lat="44.1977366" lon="10.2774889"><ele>585.9999999999999</ele><time>2026-04-07T11:31:14.917Z</time></trkpt><trkpt lat="44.1976711" lon="10.2774968"><ele>586.0</ele><time>2026-04-07T11:31:17.909Z</time></trkpt><trkpt lat="44.1976032" lon="10.2775105"><ele>586.0</ele><time>2026-04-07T11:31:20.915Z</time></trkpt><trkpt lat="44.1975351" lon="10.2775129"><ele>586.0</ele><time>2026-04-07T11:31:23.921Z</time></trkpt><trkpt lat="44.1974675" lon="10.2775225"><ele>586.0</ele><time>2026-04-07T11:31:26.919Z</time></trkpt><trkpt lat="44.1973959" lon="10.2775332"><ele>585.9999999999999</ele><time>2026-04-07T11:31:29.91Z</time></trkpt><trkpt lat="44.1973291" lon="10.2775535"><ele>586.0</ele><time>2026-04-07T11:31:32.922Z</time></trkpt><trkpt lat="44.1972629" lon="10.277585"><ele>584.4285714285713</ele><time>2026-04-07T11:31:35.921Z</time></trkpt><trkpt lat="44.1971973" lon="10.2776206"><ele>582.8571428571429</ele><time>2026-04-07T11:31:38.909Z</time></trkpt><trkpt lat="44.1971266" lon="10.2776573"><ele>581.2857142857142</ele><time>2026-04-07T11:31:41.927Z</time></trkpt><trkpt lat="44.1970594" lon="10.2776984"><ele>579.7142857142857</ele><time>2026-04-07T11:31:44.908Z</time></trkpt><trkpt lat="44.1970074" lon="10.2777551"><ele>578.1428571428571</ele><time>2026-04-07T11:31:47.908Z</time></trkpt><trkpt lat="44.1969549" lon="10.2778237"><ele>576.5714285714286</ele><time>2026-04-07T11:31:50.914Z</time></trkpt><trkpt lat="44.1969226" lon="10.277911"><ele>575.0</ele><time>2026-04-07T11:31:53.92Z</time></trkpt><trkpt lat="44.1968978" lon="10.2780092"><ele>576.6666666666666</ele><time>2026-04-07T11:31:56.914Z</time></trkpt><trkpt lat="44.1968845" lon="10.2781119"><ele>578.3333333333333</ele><time>2026-04-07T11:31:59.924Z</time></trkpt><trkpt lat="44.1968775" lon="10.2782362"><ele>580.0</ele><time>2026-04-07T11:32:02.906Z</time></trkpt><trkpt lat="44.1968696" lon="10.2783595"><ele>581.6666666666666</ele><time>2026-04-07T11:32:05.915Z</time></trkpt><trkpt lat="44.1968617" lon="10.2784909"><ele>583.3333333333334</ele><time>2026-04-07T11:32:08.922Z</time></trkpt><trkpt lat="44.1968448" lon="10.2785859"><ele>585.0</ele><time>2026-04-07T11:32:10.921Z</time></trkpt><trkpt lat="44.1968226" lon="10.2786838"><ele>585.0</ele><time>2026-04-07T11:32:12.912Z</time></trkpt><trkpt lat="44.1967815" lon="10.2787804"><ele>585.0</ele><time>2026-04-07T11:32:14.909Z</time></trkpt><trkpt lat="44.1967431" lon="10.2788512"><ele>585.0</ele><time>2026-04-07T11:32:16.924Z</time></trkpt><trkpt lat="44.196699" lon="10.2789169"><ele>585.0</ele><time>2026-04-07T11:32:19.911Z</time></trkpt><trkpt lat="44.1966464" lon="10.2789743"><ele>585.0</ele><time>2026-04-07T11:32:23.909Z</time></trkpt><trkpt lat="44.196591" lon="10.2790368"><ele>585.0</ele><time>2026-04-07T11:32:28.921Z</time></trkpt><trkpt lat="44.1965305" lon="10.279114"><ele>585.0</ele><time>2026-04-07T11:32:32.908Z</time></trkpt><trkpt lat="44.1964737" lon="10.2791933"><ele>584.5</ele><time>2026-04-07T11:32:35.915Z</time></trkpt><trkpt lat="44.1964159" lon="10.2792777"><ele>584.0</ele><time>2026-04-07T11:32:38.909Z</time></trkpt><trkpt lat="44.1963574" lon="10.2793679"><ele>583.5</ele><time>2026-04-07T11:32:41.915Z</time></trkpt><trkpt lat="44.1963044" lon="10.279461"><ele>583.0</ele><time>2026-04-07T11:32:44.919Z</time></trkpt><trkpt lat="44.1962445" lon="10.2795495"><ele>582.5</ele><time>2026-04-07T11:32:47.922Z</time></trkpt><trkpt lat="44.1961638" lon="10.2796007"><ele>582.0</ele><time>2026-04-07T11:32:50.912Z</time></trkpt><trkpt lat="44.1960992" lon="10.2796051"><ele>582.0</ele><time>2026-04-07T11:32:52.919Z</time></trkpt><trkpt lat="44.1960366" lon="10.2795896"><ele>582.0</ele><time>2026-04-07T11:32:54.915Z</time></trkpt><trkpt lat="44.195955" lon="10.2795494"><ele>582.0</ele><time>2026-04-07T11:32:57.917Z</time></trkpt><trkpt lat="44.1958727" lon="10.2795139"><ele>582.0</ele><time>2026-04-07T11:33:00.918Z</time></trkpt><trkpt lat="44.1957822" lon="10.2795303"><ele>582.0</ele><time>2026-04-07T11:33:03.911Z</time></trkpt><trkpt lat="44.1957189" lon="10.2795621"><ele>582.0</ele><time>2026-04-07T11:33:05.914Z</time></trkpt><trkpt lat="44.1956504" lon="10.2795924"><ele>581.3333333333334</ele><time>2026-04-07T11:33:07.918Z</time></trkpt><trkpt lat="44.1955801" lon="10.2796263"><ele>580.6666666666666</ele><time>2026-04-07T11:33:09.921Z</time></trkpt><trkpt lat="44.1955072" lon="10.2796626"><ele>580.0</ele><time>2026-04-07T11:33:11.921Z</time></trkpt><trkpt lat="44.1954327" lon="10.2797067"><ele>579.3333333333333</ele><time>2026-04-07T11:33:13.921Z</time></trkpt><trkpt lat="44.1953645" lon="10.2797649"><ele>578.6666666666666</ele><time>2026-04-07T11:33:15.918Z</time></trkpt><trkpt lat="44.195301" lon="10.2798429"><ele>578.0</ele><time>2026-04-07T11:33:17.917Z</time></trkpt><trkpt lat="44.1952626" lon="10.2799474"><ele>578.0</ele><time>2026-04-07T11:33:19.927Z</time></trkpt><trkpt lat="44.1952455" lon="10.2800639"><ele>578.0</ele><time>2026-04-07T11:33:21.91Z</time></trkpt><trkpt lat="44.1952454" lon="10.2801941"><ele>578.0</ele><time>2026-04-07T11:33:23.909Z</time></trkpt><trkpt lat="44.1952435" lon="10.2803265"><ele>578.0</ele><time>2026-04-07T11:33:25.918Z</time></trkpt><trkpt lat="44.1952506" lon="10.2804596"><ele>578.0</ele><time>2026-04-07T11:33:27.917Z</time></trkpt><trkpt lat="44.1952602" lon="10.2805823"><ele>579.1666666666666</ele><time>2026-04-07T11:33:29.923Z</time></trkpt><trkpt lat="44.1952453" lon="10.2806956"><ele>580.3333333333333</ele><time>2026-04-07T11:33:31.915Z</time></trkpt><trkpt lat="44.1952332" lon="10.2808033"><ele>581.5</ele><time>2026-04-07T11:33:33.913Z</time></trkpt><trkpt lat="44.195218" lon="10.2809103"><ele>582.6666666666666</ele><time>2026-04-07T11:33:35.918Z</time></trkpt><trkpt lat="44.1951941" lon="10.2810134"><ele>583.8333333333334</ele><time>2026-04-07T11:33:37.906Z</time></trkpt><trkpt lat="44.1951507" lon="10.2811147"><ele>585.0</ele><time>2026-04-07T11:33:39.92Z</time></trkpt><trkpt lat="44.1950929" lon="10.2812111"><ele>585.0</ele><time>2026-04-07T11:33:41.92Z</time></trkpt><trkpt lat="44.1950319" lon="10.2812981"><ele>585.0</ele><time>2026-04-07T11:33:43.924Z</time></trkpt><trkpt lat="44.1949706" lon="10.2813657"><ele>585.0</ele><time>2026-04-07T11:33:45.925Z</time></trkpt><trkpt lat="44.1949035" lon="10.2814107"><ele>585.0</ele><time>2026-04-07T11:33:47.922Z</time></trkpt><trkpt lat="44.1948354" lon="10.2814487"><ele>585.0</ele><time>2026-04-07T11:33:49.911Z</time></trkpt><trkpt lat="44.1947686" lon="10.2814847"><ele>585.0</ele><time>2026-04-07T11:33:51.925Z</time></trkpt><trkpt lat="44.1947032" lon="10.281516"><ele>584.0</ele><time>2026-04-07T11:33:53.921Z</time></trkpt><trkpt lat="44.1946377" lon="10.2815496"><ele>583.0</ele><time>2026-04-07T11:33:55.931Z</time></trkpt><trkpt lat="44.1945759" lon="10.2816092"><ele>582.0</ele><time>2026-04-07T11:33:57.91Z</time></trkpt><trkpt lat="44.1945278" lon="10.2816986"><ele>581.0</ele><time>2026-04-07T11:33:59.918Z</time></trkpt><trkpt lat="44.1944918" lon="10.2818096"><ele>580.0</ele><time>2026-04-07T11:34:01.922Z</time></trkpt><trkpt lat="44.1944805" lon="10.28193"><ele>579.0</ele><time>2026-04-07T11:34:03.913Z</time></trkpt><trkpt lat="44.1944837" lon="10.2820543"><ele>579.0</ele><time>2026-04-07T11:34:05.916Z</time></trkpt><trkpt lat="44.1944776" lon="10.2821843"><ele>579.0</ele><time>2026-04-07T11:34:07.914Z</time></trkpt><trkpt lat="44.1944389" lon="10.2822895"><ele>579.0</ele><time>2026-04-07T11:34:09.91Z</time></trkpt><trkpt lat="44.1943756" lon="10.282363"><ele>579.0</ele><time>2026-04-07T11:34:11.916Z</time></trkpt><trkpt lat="44.1942989" lon="10.2823981"><ele>579.0</ele><time>2026-04-07T11:34:13.916Z</time></trkpt><trkpt lat="44.1942216" lon="10.2823869"><ele>579.0</ele><time>2026-04-07T11:34:15.921Z</time></trkpt><trkpt lat="44.1941518" lon="10.2823313"><ele>579.0</ele><time>2026-04-07T11:34:17.91Z</time></trkpt><trkpt lat="44.1940853" lon="10.2822563"><ele>579.0</ele><time>2026-04-07T11:34:19.913Z</time></trkpt><trkpt lat="44.1940158" lon="10.2821819"><ele>579.0</ele><time>2026-04-07T11:34:21.922Z</time></trkpt><trkpt lat="44.1939474" lon="10.282106"><ele>579.0</ele><time>2026-04-07T11:34:23.926Z</time></trkpt><trkpt lat="44.1938833" lon="10.2820323"><ele>579.0</ele><time>2026-04-07T11:34:25.937Z</time></trkpt><trkpt lat="44.193833" lon="10.2819452"><ele>579.0</ele><time>2026-04-07T11:34:27.914Z</time></trkpt><trkpt lat="44.193784" lon="10.2818493"><ele>580.0</ele><time>2026-04-07T11:34:29.927Z</time></trkpt><trkpt lat="44.1937311" lon="10.2817519"><ele>581.0</ele><time>2026-04-07T11:34:31.929Z</time></trkpt><trkpt lat="44.1936824" lon="10.2816503"><ele>582.0</ele><time>2026-04-07T11:34:33.918Z</time></trkpt><trkpt lat="44.1936299" lon="10.2815506"><ele>583.0</ele><time>2026-04-07T11:34:35.917Z</time></trkpt><trkpt lat="44.193576" lon="10.2814473"><ele>584.0</ele><time>2026-04-07T11:34:37.91Z</time></trkpt><trkpt lat="44.1935186" lon="10.2813471"><ele>585.0</ele><time>2026-04-07T11:34:39.923Z</time></trkpt><trkpt lat="44.1934503" lon="10.2812593"><ele>581.0</ele><time>2026-04-07T11:34:41.914Z</time></trkpt><trkpt lat="44.1933735" lon="10.2812013"><ele>577.0</ele><time>2026-04-07T11:34:43.917Z</time></trkpt><trkpt lat="44.1932881" lon="10.2811753"><ele>573.0</ele><time>2026-04-07T11:34:45.91Z</time></trkpt><trkpt lat="44.1931939" lon="10.2811526"><ele>569.0</ele><time>2026-04-07T11:34:47.915Z</time></trkpt><trkpt lat="44.1930913" lon="10.2811447"><ele>565.0</ele><time>2026-04-07T11:34:49.921Z</time></trkpt><trkpt lat="44.1929869" lon="10.2811476"><ele>564.2</ele><time>2026-04-07T11:34:51.92Z</time></trkpt><trkpt lat="44.192877" lon="10.2811705"><ele>563.4</ele><time>2026-04-07T11:34:53.918Z</time></trkpt><trkpt lat="44.1927544" lon="10.2811924"><ele>562.6</ele><time>2026-04-07T11:34:55.93Z</time></trkpt><trkpt lat="44.1926327" lon="10.2812238"><ele>561.8</ele><time>2026-04-07T11:34:57.922Z</time></trkpt><trkpt lat="44.1925692" lon="10.2812418"><ele>561.0</ele><time>2026-04-07T11:34:58.928Z</time></trkpt><trkpt lat="44.192503" lon="10.2812501"><ele>561.0</ele><time>2026-04-07T11:34:59.927Z</time></trkpt><trkpt lat="44.1924357" lon="10.2812602"><ele>561.0</ele><time>2026-04-07T11:35:00.926Z</time></trkpt><trkpt lat="44.1923709" lon="10.2812676"><ele>561.0</ele><time>2026-04-07T11:35:01.92Z</time></trkpt><trkpt lat="44.1923044" lon="10.2812766"><ele>561.0</ele><time>2026-04-07T11:35:02.924Z</time></trkpt><trkpt lat="44.1922374" lon="10.2812889"><ele>561.0</ele><time>2026-04-07T11:35:03.934Z</time></trkpt><trkpt lat="44.1921692" lon="10.2812974"><ele>561.0</ele><time>2026-04-07T11:35:04.929Z</time></trkpt><trkpt lat="44.1920442" lon="10.2813503"><ele>560.2857142857142</ele><time>2026-04-07T11:35:06.921Z</time></trkpt><trkpt lat="44.1919872" lon="10.2813951"><ele>559.5714285714286</ele><time>2026-04-07T11:35:07.911Z</time></trkpt><trkpt lat="44.191931" lon="10.2814471"><ele>558.8571428571429</ele><time>2026-04-07T11:35:08.919Z</time></trkpt><trkpt lat="44.1918756" lon="10.2815069"><ele>558.1428571428571</ele><time>2026-04-07T11:35:09.921Z</time></trkpt><trkpt lat="44.1918291" lon="10.2815732"><ele>557.4285714285714</ele><time>2026-04-07T11:35:10.929Z</time></trkpt><trkpt lat="44.1917839" lon="10.2816459"><ele>556.7142857142857</ele><time>2026-04-07T11:35:11.936Z</time></trkpt><trkpt lat="44.1917355" lon="10.2817202"><ele>556.0</ele><time>2026-04-07T11:35:12.926Z</time></trkpt><trkpt lat="44.1916834" lon="10.2817951"><ele>557.3333333333334</ele><time>2026-04-07T11:35:13.929Z</time></trkpt><trkpt lat="44.191631" lon="10.2818727"><ele>558.6666666666667</ele><time>2026-04-07T11:35:14.924Z</time></trkpt><trkpt lat="44.1915792" lon="10.2819478"><ele>560.0</ele><time>2026-04-07T11:35:15.917Z</time></trkpt><trkpt lat="44.191536" lon="10.2820168"><ele>561.3333333333334</ele><time>2026-04-07T11:35:16.919Z</time></trkpt><trkpt lat="44.1914564" lon="10.2821382"><ele>562.6666666666666</ele><time>2026-04-07T11:35:18.923Z</time></trkpt><trkpt lat="44.191394" lon="10.2822556"><ele>564.0</ele><time>2026-04-07T11:35:20.909Z</time></trkpt><trkpt lat="44.1913178" lon="10.2823582"><ele>566.0</ele><time>2026-04-07T11:35:22.924Z</time></trkpt><trkpt lat="44.1912402" lon="10.2824658"><ele>568.0</ele><time>2026-04-07T11:35:24.93Z</time></trkpt><trkpt lat="44.1911659" lon="10.2825805"><ele>570.0</ele><time>2026-04-07T11:35:26.926Z</time></trkpt><trkpt lat="44.191093" lon="10.2827082"><ele>572.0</ele><time>2026-04-07T11:35:28.926Z</time></trkpt><trkpt lat="44.1910083" lon="10.2828387"><ele>571.9999999999999</ele><time>2026-04-07T11:35:30.922Z</time></trkpt><trkpt lat="44.1909624" lon="10.2829127"><ele>572.0</ele><time>2026-04-07T11:35:31.924Z</time></trkpt><trkpt lat="44.1909188" lon="10.2829904"><ele>572.0</ele><time>2026-04-07T11:35:32.92Z</time></trkpt><trkpt lat="44.1908665" lon="10.2830633"><ele>572.0</ele><time>2026-04-07T11:35:33.922Z</time></trkpt><trkpt lat="44.1908101" lon="10.2831284"><ele>572.0</ele><time>2026-04-07T11:35:34.916Z</time></trkpt><trkpt lat="44.1907397" lon="10.2831749"><ele>571.9999999999999</ele><time>2026-04-07T11:35:35.935Z</time></trkpt><trkpt lat="44.1906635" lon="10.2832074"><ele>572.0</ele><time>2026-04-07T11:35:36.924Z</time></trkpt><trkpt lat="44.1905859" lon="10.2832193"><ele>571.9999999999999</ele><time>2026-04-07T11:35:37.919Z</time></trkpt><trkpt lat="44.1905139" lon="10.2832246"><ele>572.0</ele><time>2026-04-07T11:35:38.921Z</time></trkpt><trkpt lat="44.1904417" lon="10.2832241"><ele>572.0</ele><time>2026-04-07T11:35:39.926Z</time></trkpt><trkpt lat="44.1903735" lon="10.2832245"><ele>572.0</ele><time>2026-04-07T11:35:40.928Z</time></trkpt><trkpt lat="44.1903039" lon="10.2832248"><ele>572.0</ele><time>2026-04-07T11:35:41.92Z</time></trkpt><trkpt lat="44.1902333" lon="10.2832257"><ele>571.9999999999999</ele><time>2026-04-07T11:35:42.914Z</time></trkpt><trkpt lat="44.1901671" lon="10.2832258"><ele>572.0</ele><time>2026-04-07T11:35:43.921Z</time></trkpt><trkpt lat="44.1900969" lon="10.2832282"><ele>571.9999999999999</ele><time>2026-04-07T11:35:44.917Z</time></trkpt><trkpt lat="44.1900256" lon="10.2832305"><ele>572.0</ele><time>2026-04-07T11:35:45.914Z</time></trkpt><trkpt lat="44.1899538" lon="10.2832312"><ele>572.0</ele><time>2026-04-07T11:35:46.92Z</time></trkpt><trkpt lat="44.1898842" lon="10.2832371"><ele>572.0</ele><time>2026-04-07T11:35:47.918Z</time></trkpt><trkpt lat="44.1898124" lon="10.2832373"><ele>572.0</ele><time>2026-04-07T11:35:48.919Z</time></trkpt><trkpt lat="44.1897408" lon="10.2832366"><ele>571.9999999999999</ele><time>2026-04-07T11:35:49.921Z</time></trkpt><trkpt lat="44.189669" lon="10.2832337"><ele>572.0</ele><time>2026-04-07T11:35:50.924Z</time></trkpt><trkpt lat="44.1895958" lon="10.283229"><ele>571.8333333333333</ele><time>2026-04-07T11:35:51.923Z</time></trkpt><trkpt lat="44.1895218" lon="10.2832121"><ele>571.6666666666666</ele><time>2026-04-07T11:35:52.913Z</time></trkpt><trkpt lat="44.1894476" lon="10.2831843"><ele>571.5</ele><time>2026-04-07T11:35:53.926Z</time></trkpt><trkpt lat="44.1893742" lon="10.2831492"><ele>571.3333333333334</ele><time>2026-04-07T11:35:54.923Z</time></trkpt><trkpt lat="44.189304" lon="10.2831117"><ele>571.1666666666667</ele><time>2026-04-07T11:35:55.924Z</time></trkpt><trkpt lat="44.1892321" lon="10.2830735"><ele>571.0</ele><time>2026-04-07T11:35:56.928Z</time></trkpt><trkpt lat="44.1891613" lon="10.2830353"><ele>569.2857142857143</ele><time>2026-04-07T11:35:57.936Z</time></trkpt><trkpt lat="44.1890888" lon="10.2829974"><ele>567.5714285714286</ele><time>2026-04-07T11:35:58.935Z</time></trkpt><trkpt lat="44.1890205" lon="10.2829626"><ele>565.8571428571429</ele><time>2026-04-07T11:35:59.924Z</time></trkpt><trkpt lat="44.188953" lon="10.2829251"><ele>564.1428571428571</ele><time>2026-04-07T11:36:00.925Z</time></trkpt><trkpt lat="44.1888854" lon="10.2828882"><ele>562.4285714285714</ele><time>2026-04-07T11:36:01.917Z</time></trkpt><trkpt lat="44.1888188" lon="10.2828508"><ele>560.7142857142858</ele><time>2026-04-07T11:36:02.911Z</time></trkpt><trkpt lat="44.1887526" lon="10.2828158"><ele>559.0</ele><time>2026-04-07T11:36:03.92Z</time></trkpt><trkpt lat="44.1886841" lon="10.2827807"><ele>559.0</ele><time>2026-04-07T11:36:04.918Z</time></trkpt><trkpt lat="44.1886157" lon="10.2827598"><ele>559.0</ele><time>2026-04-07T11:36:05.913Z</time></trkpt><trkpt lat="44.1885474" lon="10.2827561"><ele>559.0</ele><time>2026-04-07T11:36:06.92Z</time></trkpt><trkpt lat="44.1884778" lon="10.2827682"><ele>559.0</ele><time>2026-04-07T11:36:07.921Z</time></trkpt><trkpt lat="44.1884115" lon="10.2827986"><ele>559.0</ele><time>2026-04-07T11:36:08.938Z</time></trkpt><trkpt lat="44.1883487" lon="10.2828448"><ele>559.0</ele><time>2026-04-07T11:36:09.92Z</time></trkpt><trkpt lat="44.1882861" lon="10.2828962"><ele>559.0</ele><time>2026-04-07T11:36:10.914Z</time></trkpt><trkpt lat="44.188224" lon="10.2829567"><ele>558.5</ele><time>2026-04-07T11:36:11.929Z</time></trkpt><trkpt lat="44.1881625" lon="10.2830154"><ele>558.0</ele><time>2026-04-07T11:36:12.915Z</time></trkpt><trkpt lat="44.1881016" lon="10.2830741"><ele>557.5</ele><time>2026-04-07T11:36:13.922Z</time></trkpt><trkpt lat="44.1880427" lon="10.2831347"><ele>557.0</ele><time>2026-04-07T11:36:14.915Z</time></trkpt><trkpt lat="44.187981" lon="10.2831959"><ele>556.5</ele><time>2026-04-07T11:36:15.921Z</time></trkpt><trkpt lat="44.1879176" lon="10.2832576"><ele>556.0</ele><time>2026-04-07T11:36:16.914Z</time></trkpt><trkpt lat="44.1878535" lon="10.2833189"><ele>556.0</ele><time>2026-04-07T11:36:17.917Z</time></trkpt><trkpt lat="44.1877914" lon="10.2833818"><ele>556.0</ele><time>2026-04-07T11:36:18.919Z</time></trkpt><trkpt lat="44.1877323" lon="10.2834453"><ele>556.0</ele><time>2026-04-07T11:36:19.916Z</time></trkpt><trkpt lat="44.1876769" lon="10.2835139"><ele>556.0</ele><time>2026-04-07T11:36:20.918Z</time></trkpt><trkpt lat="44.187626" lon="10.2835902"><ele>556.0</ele><time>2026-04-07T11:36:21.926Z</time></trkpt><trkpt lat="44.1875804" lon="10.283668"><ele>556.0</ele><time>2026-04-07T11:36:22.917Z</time></trkpt><trkpt lat="44.1875417" lon="10.2837506"><ele>556.0</ele><time>2026-04-07T11:36:23.92Z</time></trkpt><trkpt lat="44.1875044" lon="10.283843"><ele>557.0</ele><time>2026-04-07T11:36:24.92Z</time></trkpt><trkpt lat="44.1874713" lon="10.2839334"><ele>558.0</ele><time>2026-04-07T11:36:25.911Z</time></trkpt><trkpt lat="44.1874329" lon="10.2840258"><ele>559.0</ele><time>2026-04-07T11:36:26.932Z</time></trkpt><trkpt lat="44.1873979" lon="10.2841161"><ele>560.0</ele><time>2026-04-07T11:36:27.923Z</time></trkpt><trkpt lat="44.187364" lon="10.2842069"><ele>561.0</ele><time>2026-04-07T11:36:28.92Z</time></trkpt><trkpt lat="44.1873353" lon="10.2842931"><ele>562.0</ele><time>2026-04-07T11:36:29.914Z</time></trkpt><trkpt lat="44.1872959" lon="10.2843926"><ele>563.0</ele><time>2026-04-07T11:36:30.92Z</time></trkpt><trkpt lat="44.1872594" lon="10.2844947"><ele>560.6666666666666</ele><time>2026-04-07T11:36:31.929Z</time></trkpt><trkpt lat="44.1872231" lon="10.2845878"><ele>558.3333333333333</ele><time>2026-04-07T11:36:32.927Z</time></trkpt><trkpt lat="44.1871893" lon="10.2846815"><ele>556.0</ele><time>2026-04-07T11:36:33.924Z</time></trkpt><trkpt lat="44.1871549" lon="10.2847785"><ele>553.6666666666666</ele><time>2026-04-07T11:36:34.928Z</time></trkpt><trkpt lat="44.1871166" lon="10.2848761"><ele>551.3333333333334</ele><time>2026-04-07T11:36:35.926Z</time></trkpt><trkpt lat="44.187077" lon="10.2849741"><ele>549.0</ele><time>2026-04-07T11:36:36.922Z</time></trkpt><trkpt lat="44.1870361" lon="10.285077"><ele>549.0</ele><time>2026-04-07T11:36:37.921Z</time></trkpt><trkpt lat="44.1869958" lon="10.2851757"><ele>549.0</ele><time>2026-04-07T11:36:38.937Z</time></trkpt><trkpt lat="44.1869553" lon="10.2852728"><ele>549.0</ele><time>2026-04-07T11:36:39.929Z</time></trkpt><trkpt lat="44.1869172" lon="10.2853712"><ele>549.0</ele><time>2026-04-07T11:36:40.928Z</time></trkpt><trkpt lat="44.1868829" lon="10.2854811"><ele>549.0</ele><time>2026-04-07T11:36:41.918Z</time></trkpt><trkpt lat="44.1868441" lon="10.2855853"><ele>549.0</ele><time>2026-04-07T11:36:42.93Z</time></trkpt><trkpt lat="44.1868052" lon="10.2856817"><ele>548.0</ele><time>2026-04-07T11:36:43.928Z</time></trkpt><trkpt lat="44.1867483" lon="10.2857606"><ele>547.0</ele><time>2026-04-07T11:36:44.913Z</time></trkpt><trkpt lat="44.1866787" lon="10.2858324"><ele>546.0</ele><time>2026-04-07T11:36:45.918Z</time></trkpt><trkpt lat="44.1865987" lon="10.2858824"><ele>545.0</ele><time>2026-04-07T11:36:46.924Z</time></trkpt><trkpt lat="44.1865178" lon="10.2858989"><ele>544.0</ele><time>2026-04-07T11:36:47.922Z</time></trkpt><trkpt lat="44.1864367" lon="10.2859049"><ele>543.0</ele><time>2026-04-07T11:36:48.913Z</time></trkpt><trkpt lat="44.1863594" lon="10.2859154"><ele>543.0</ele><time>2026-04-07T11:36:49.923Z</time></trkpt><trkpt lat="44.1862843" lon="10.2859385"><ele>543.0</ele><time>2026-04-07T11:36:50.93Z</time></trkpt><trkpt lat="44.1862168" lon="10.2859852"><ele>543.0</ele><time>2026-04-07T11:36:51.934Z</time></trkpt><trkpt lat="44.1861613" lon="10.2860512"><ele>543.0</ele><time>2026-04-07T11:36:52.92Z</time></trkpt><trkpt lat="44.1861078" lon="10.2861331"><ele>543.0</ele><time>2026-04-07T11:36:53.934Z</time></trkpt><trkpt lat="44.1860608" lon="10.2862205"><ele>543.0</ele><time>2026-04-07T11:36:54.92Z</time></trkpt><trkpt lat="44.186018" lon="10.2863119"><ele>543.0</ele><time>2026-04-07T11:36:55.923Z</time></trkpt><trkpt lat="44.1859662" lon="10.2864005"><ele>543.0</ele><time>2026-04-07T11:36:56.93Z</time></trkpt><trkpt lat="44.1859155" lon="10.2864917"><ele>543.0</ele><time>2026-04-07T11:36:57.931Z</time></trkpt><trkpt lat="44.1858562" lon="10.2865737"><ele>543.0</ele><time>2026-04-07T11:36:58.929Z</time></trkpt><trkpt lat="44.18579" lon="10.2866477"><ele>543.0</ele><time>2026-04-07T11:36:59.922Z</time></trkpt><trkpt lat="44.185723" lon="10.2867146"><ele>543.0</ele><time>2026-04-07T11:37:00.923Z</time></trkpt><trkpt lat="44.1856601" lon="10.2867843"><ele>543.0</ele><time>2026-04-07T11:37:01.917Z</time></trkpt><trkpt lat="44.1855962" lon="10.2868505"><ele>543.0</ele><time>2026-04-07T11:37:02.924Z</time></trkpt><trkpt lat="44.1855342" lon="10.2869198"><ele>543.0</ele><time>2026-04-07T11:37:03.927Z</time></trkpt><trkpt lat="44.1854787" lon="10.2869985"><ele>543.0</ele><time>2026-04-07T11:37:04.923Z</time></trkpt><trkpt lat="44.1854251" lon="10.2870844"><ele>543.0</ele><time>2026-04-07T11:37:05.934Z</time></trkpt><trkpt lat="44.1853768" lon="10.2871819"><ele>543.0</ele><time>2026-04-07T11:37:06.925Z</time></trkpt><trkpt lat="44.1853381" lon="10.2872805"><ele>543.0</ele><time>2026-04-07T11:37:07.926Z</time></trkpt><trkpt lat="44.1852999" lon="10.287381"><ele>543.0</ele><time>2026-04-07T11:37:08.933Z</time></trkpt><trkpt lat="44.1852615" lon="10.2874796"><ele>543.0</ele><time>2026-04-07T11:37:09.911Z</time></trkpt><trkpt lat="44.1852233" lon="10.2875807"><ele>543.0</ele><time>2026-04-07T11:37:10.938Z</time></trkpt><trkpt lat="44.1851831" lon="10.2876855"><ele>543.0</ele><time>2026-04-07T11:37:11.922Z</time></trkpt><trkpt lat="44.1851471" lon="10.2877894"><ele>543.0</ele><time>2026-04-07T11:37:12.929Z</time></trkpt><trkpt lat="44.1851101" lon="10.2878946"><ele>543.0</ele><time>2026-04-07T11:37:13.92Z</time></trkpt><trkpt lat="44.1850722" lon="10.2880006"><ele>543.0</ele><time>2026-04-07T11:37:14.931Z</time></trkpt><trkpt lat="44.1850328" lon="10.2881054"><ele>543.0</ele><time>2026-04-07T11:37:15.913Z</time></trkpt><trkpt lat="44.1849862" lon="10.2882121"><ele>543.0</ele><time>2026-04-07T11:37:16.919Z</time></trkpt><trkpt lat="44.1849426" lon="10.2883169"><ele>543.0</ele><time>2026-04-07T11:37:17.931Z</time></trkpt><trkpt lat="44.1849" lon="10.2884228"><ele>543.0</ele><time>2026-04-07T11:37:18.919Z</time></trkpt><trkpt lat="44.1848584" lon="10.2885307"><ele>541.0</ele><time>2026-04-07T11:37:19.923Z</time></trkpt><trkpt lat="44.1848171" lon="10.2886386"><ele>539.0</ele><time>2026-04-07T11:37:20.919Z</time></trkpt><trkpt lat="44.1847748" lon="10.2887513"><ele>537.0</ele><time>2026-04-07T11:37:21.92Z</time></trkpt><trkpt lat="44.1847318" lon="10.2888555"><ele>535.0</ele><time>2026-04-07T11:37:22.931Z</time></trkpt><trkpt lat="44.1846929" lon="10.2889561"><ele>533.0</ele><time>2026-04-07T11:37:23.923Z</time></trkpt><trkpt lat="44.1846548" lon="10.2890517"><ele>531.0</ele><time>2026-04-07T11:37:24.938Z</time></trkpt><trkpt lat="44.1846955" lon="10.2892153"><ele>531.0</ele><time>2026-04-07T11:37:26.922Z</time></trkpt><trkpt lat="44.1847465" lon="10.2892691"><ele>531.0</ele><time>2026-04-07T11:37:27.922Z</time></trkpt><trkpt lat="44.1848621" lon="10.2893318"><ele>531.0</ele><time>2026-04-07T11:37:29.927Z</time></trkpt><trkpt lat="44.184978" lon="10.2893728"><ele>531.0</ele><time>2026-04-07T11:37:31.911Z</time></trkpt><trkpt lat="44.1850974" lon="10.2894096"><ele>531.0</ele><time>2026-04-07T11:37:33.923Z</time></trkpt><trkpt lat="44.185157" lon="10.2894397"><ele>532.6</ele><time>2026-04-07T11:37:34.924Z</time></trkpt><trkpt lat="44.185261" lon="10.2895092"><ele>534.2</ele><time>2026-04-07T11:37:36.913Z</time></trkpt><trkpt lat="44.1853345" lon="10.2896188"><ele>535.8</ele><time>2026-04-07T11:37:38.911Z</time></trkpt><trkpt lat="44.1853889" lon="10.2897444"><ele>537.4</ele><time>2026-04-07T11:37:40.912Z</time></trkpt><trkpt lat="44.1854302" lon="10.2898712"><ele>539.0</ele><time>2026-04-07T11:37:42.93Z</time></trkpt><trkpt lat="44.1854589" lon="10.2899952"><ele>539.0</ele><time>2026-04-07T11:37:44.921Z</time></trkpt><trkpt lat="44.1854928" lon="10.2900965"><ele>539.0</ele><time>2026-04-07T11:37:46.908Z</time></trkpt><trkpt lat="44.1855198" lon="10.2901937"><ele>539.0</ele><time>2026-04-07T11:37:48.926Z</time></trkpt><trkpt lat="44.1855493" lon="10.2902738"><ele>539.0</ele><time>2026-04-07T11:37:50.917Z</time></trkpt><trkpt lat="44.185588" lon="10.2903956"><ele>539.0</ele><time>2026-04-07T11:37:53.915Z</time></trkpt><trkpt lat="44.1856116" lon="10.2904841"><ele>539.0</ele><time>2026-04-07T11:37:55.907Z</time></trkpt><trkpt lat="44.185638" lon="10.2905766"><ele>539.5714285714286</ele><time>2026-04-07T11:37:57.921Z</time></trkpt><trkpt lat="44.1856651" lon="10.2906729"><ele>540.1428571428571</ele><time>2026-04-07T11:37:59.923Z</time></trkpt><trkpt lat="44.1857038" lon="10.2907556"><ele>540.7142857142858</ele><time>2026-04-07T11:38:01.922Z</time></trkpt><trkpt lat="44.1857618" lon="10.2908126"><ele>541.2857142857142</ele><time>2026-04-07T11:38:03.913Z</time></trkpt><trkpt lat="44.185829" lon="10.2908559"><ele>541.8571428571429</ele><time>2026-04-07T11:38:05.914Z</time></trkpt><trkpt lat="44.1858997" lon="10.2908905"><ele>542.4285714285714</ele><time>2026-04-07T11:38:07.926Z</time></trkpt><trkpt lat="44.1859751" lon="10.2909166"><ele>543.0</ele><time>2026-04-07T11:38:09.909Z</time></trkpt><trkpt lat="44.1860516" lon="10.2909468"><ele>543.0</ele><time>2026-04-07T11:38:11.932Z</time></trkpt><trkpt lat="44.1861279" lon="10.2909918"><ele>543.0</ele><time>2026-04-07T11:38:13.919Z</time></trkpt><trkpt lat="44.1861996" lon="10.2910488"><ele>543.0</ele><time>2026-04-07T11:38:15.915Z</time></trkpt><trkpt lat="44.186269" lon="10.2911118"><ele>543.0</ele><time>2026-04-07T11:38:17.912Z</time></trkpt><trkpt lat="44.1863387" lon="10.2911782"><ele>543.0</ele><time>2026-04-07T11:38:19.916Z</time></trkpt><trkpt lat="44.1864103" lon="10.2912408"><ele>543.0</ele><time>2026-04-07T11:38:21.917Z</time></trkpt><trkpt lat="44.1864794" lon="10.2913045"><ele>543.1428571428571</ele><time>2026-04-07T11:38:23.914Z</time></trkpt><trkpt lat="44.1865458" lon="10.2913623"><ele>543.2857142857142</ele><time>2026-04-07T11:38:25.911Z</time></trkpt><trkpt lat="44.1866077" lon="10.291426"><ele>543.4285714285713</ele><time>2026-04-07T11:38:27.917Z</time></trkpt><trkpt lat="44.1866655" lon="10.2914851"><ele>543.5714285714286</ele><time>2026-04-07T11:38:29.927Z</time></trkpt><trkpt lat="44.1867229" lon="10.2915276"><ele>543.7142857142857</ele><time>2026-04-07T11:38:31.926Z</time></trkpt><trkpt lat="44.1867829" lon="10.291574"><ele>543.8571428571428</ele><time>2026-04-07T11:38:33.917Z</time></trkpt><trkpt lat="44.1868485" lon="10.2916212"><ele>544.0</ele><time>2026-04-07T11:38:35.922Z</time></trkpt><trkpt lat="44.1869123" lon="10.2916885"><ele>544.0</ele><time>2026-04-07T11:38:37.939Z</time></trkpt><trkpt lat="44.186964" lon="10.2917747"><ele>544.0</ele><time>2026-04-07T11:38:39.911Z</time></trkpt><trkpt lat="44.1869853" lon="10.2918846"><ele>544.0</ele><time>2026-04-07T11:38:41.918Z</time></trkpt><trkpt lat="44.186966" lon="10.2919945"><ele>544.0</ele><time>2026-04-07T11:38:43.909Z</time></trkpt><trkpt lat="44.1869304" lon="10.292099"><ele>544.0</ele><time>2026-04-07T11:38:45.906Z</time></trkpt><trkpt lat="44.1868946" lon="10.2922081"><ele>544.0</ele><time>2026-04-07T11:38:47.917Z</time></trkpt><trkpt lat="44.1868556" lon="10.2923165"><ele>543.8333333333334</ele><time>2026-04-07T11:38:49.917Z</time></trkpt><trkpt lat="44.1868186" lon="10.2924288"><ele>543.6666666666667</ele><time>2026-04-07T11:38:51.919Z</time></trkpt><trkpt lat="44.1867834" lon="10.292543"><ele>543.5</ele><time>2026-04-07T11:38:53.925Z</time></trkpt><trkpt lat="44.18675" lon="10.2926534"><ele>543.3333333333334</ele><time>2026-04-07T11:38:55.911Z</time></trkpt><trkpt lat="44.1867168" lon="10.292763"><ele>543.1666666666666</ele><time>2026-04-07T11:38:57.91Z</time></trkpt><trkpt lat="44.1866836" lon="10.2928753"><ele>543.0</ele><time>2026-04-07T11:38:59.919Z</time></trkpt><trkpt lat="44.1866506" lon="10.2929894"><ele>544.0</ele><time>2026-04-07T11:39:01.91Z</time></trkpt><trkpt lat="44.1866163" lon="10.2931028"><ele>545.0</ele><time>2026-04-07T11:39:03.929Z</time></trkpt><trkpt lat="44.1865817" lon="10.2932166"><ele>546.0</ele><time>2026-04-07T11:39:05.91Z</time></trkpt><trkpt lat="44.1865349" lon="10.293381"><ele>547.0</ele><time>2026-04-07T11:39:08.918Z</time></trkpt><trkpt lat="44.1865083" lon="10.2934847"><ele>548.0</ele><time>2026-04-07T11:39:10.909Z</time></trkpt><trkpt lat="44.1864793" lon="10.293586"><ele>545.1666666666666</ele><time>2026-04-07T11:39:12.915Z</time></trkpt><trkpt lat="44.1864532" lon="10.2936891"><ele>542.3333333333333</ele><time>2026-04-07T11:39:14.912Z</time></trkpt><trkpt lat="44.1864274" lon="10.2937956"><ele>539.5</ele><time>2026-04-07T11:39:16.921Z</time></trkpt><trkpt lat="44.1863966" lon="10.2939028"><ele>536.6666666666666</ele><time>2026-04-07T11:39:18.912Z</time></trkpt><trkpt lat="44.1863681" lon="10.2940149"><ele>533.8333333333334</ele><time>2026-04-07T11:39:20.921Z</time></trkpt><trkpt lat="44.1863339" lon="10.2941375"><ele>531.0</ele><time>2026-04-07T11:39:22.909Z</time></trkpt><trkpt lat="44.1862934" lon="10.2942625"><ele>531.0</ele><time>2026-04-07T11:39:24.935Z</time></trkpt><trkpt lat="44.1862582" lon="10.2944013"><ele>531.0</ele><time>2026-04-07T11:39:26.924Z</time></trkpt><trkpt lat="44.1862182" lon="10.2945429"><ele>531.0</ele><time>2026-04-07T11:39:28.923Z</time></trkpt><trkpt lat="44.1861814" lon="10.2946981"><ele>531.0</ele><time>2026-04-07T11:39:30.924Z</time></trkpt><trkpt lat="44.186138" lon="10.2948562"><ele>532.0</ele><time>2026-04-07T11:39:32.912Z</time></trkpt><trkpt lat="44.1860867" lon="10.2950097"><ele>533.0</ele><time>2026-04-07T11:39:34.912Z</time></trkpt><trkpt lat="44.186009" lon="10.2951371"><ele>534.0</ele><time>2026-04-07T11:39:36.926Z</time></trkpt><trkpt lat="44.1859266" lon="10.2952665"><ele>535.0</ele><time>2026-04-07T11:39:38.917Z</time></trkpt><trkpt lat="44.1858458" lon="10.2953966"><ele>535.0</ele><time>2026-04-07T11:39:40.913Z</time></trkpt><trkpt lat="44.1857831" lon="10.2955484"><ele>535.0</ele><time>2026-04-07T11:39:42.927Z</time></trkpt><trkpt lat="44.1857339" lon="10.295702"><ele>535.0</ele><time>2026-04-07T11:39:44.918Z</time></trkpt><trkpt lat="44.1857082" lon="10.2957843"><ele>535.0</ele><time>2026-04-07T11:39:45.912Z</time></trkpt><trkpt lat="44.1856565" lon="10.2959445"><ele>535.0</ele><time>2026-04-07T11:39:47.926Z</time></trkpt><trkpt lat="44.1856273" lon="10.2960256"><ele>533.0</ele><time>2026-04-07T11:39:48.91Z</time></trkpt><trkpt lat="44.1855681" lon="10.2961853"><ele>531.0</ele><time>2026-04-07T11:39:50.919Z</time></trkpt><trkpt lat="44.1855226" lon="10.296254"><ele>529.0</ele><time>2026-04-07T11:39:51.917Z</time></trkpt><trkpt lat="44.1854682" lon="10.2963121"><ele>527.0</ele><time>2026-04-07T11:39:52.91Z</time></trkpt><trkpt lat="44.1854045" lon="10.2963465"><ele>525.0</ele><time>2026-04-07T11:39:53.918Z</time></trkpt><trkpt lat="44.1853381" lon="10.2963656"><ele>523.0</ele><time>2026-04-07T11:39:54.933Z</time></trkpt><trkpt lat="44.1852731" lon="10.2963821"><ele>523.0</ele><time>2026-04-07T11:39:55.913Z</time></trkpt><trkpt lat="44.1852103" lon="10.2964123"><ele>523.0</ele><time>2026-04-07T11:39:56.943Z</time></trkpt><trkpt lat="44.1851129" lon="10.296521"><ele>523.0</ele><time>2026-04-07T11:39:58.917Z</time></trkpt><trkpt lat="44.185078" lon="10.2965986"><ele>523.0</ele><time>2026-04-07T11:39:59.928Z</time></trkpt><trkpt lat="44.1850583" lon="10.2966903"><ele>523.0</ele><time>2026-04-07T11:40:00.929Z</time></trkpt><trkpt lat="44.1850433" lon="10.2967811"><ele>523.0</ele><time>2026-04-07T11:40:01.909Z</time></trkpt><trkpt lat="44.1850374" lon="10.2968764"><ele>523.9999999999999</ele><time>2026-04-07T11:40:02.92Z</time></trkpt><trkpt lat="44.1850351" lon="10.2969747"><ele>525.0</ele><time>2026-04-07T11:40:03.919Z</time></trkpt><trkpt lat="44.1850349" lon="10.2970767"><ele>526.0</ele><time>2026-04-07T11:40:04.913Z</time></trkpt><trkpt lat="44.1850276" lon="10.2971751"><ele>527.0</ele><time>2026-04-07T11:40:05.935Z</time></trkpt><trkpt lat="44.1850216" lon="10.2972721"><ele>528.0</ele><time>2026-04-07T11:40:06.917Z</time></trkpt><trkpt lat="44.1850166" lon="10.2973693"><ele>528.9999999999999</ele><time>2026-04-07T11:40:07.919Z</time></trkpt><trkpt lat="44.1850089" lon="10.2974641"><ele>530.0</ele><time>2026-04-07T11:40:08.922Z</time></trkpt><trkpt lat="44.185003" lon="10.2975623"><ele>530.9999999999999</ele><time>2026-04-07T11:40:09.915Z</time></trkpt><trkpt lat="44.1850068" lon="10.2976552"><ele>532.0</ele><time>2026-04-07T11:40:10.923Z</time></trkpt><trkpt lat="44.1850006" lon="10.2977489"><ele>533.0</ele><time>2026-04-07T11:40:11.905Z</time></trkpt><trkpt lat="44.184989" lon="10.2978424"><ele>534.0</ele><time>2026-04-07T11:40:12.915Z</time></trkpt><trkpt lat="44.1849761" lon="10.2979346"><ele>535.0</ele><time>2026-04-07T11:40:13.933Z</time></trkpt><trkpt lat="44.1849545" lon="10.2980278"><ele>535.9999999999999</ele><time>2026-04-07T11:40:14.911Z</time></trkpt><trkpt lat="44.1849153" lon="10.2981163"><ele>537.0</ele><time>2026-04-07T11:40:15.923Z</time></trkpt><trkpt lat="44.1848663" lon="10.298202"><ele>535.5</ele><time>2026-04-07T11:40:16.918Z</time></trkpt><trkpt lat="44.1848046" lon="10.2982795"><ele>534.0</ele><time>2026-04-07T11:40:17.915Z</time></trkpt><trkpt lat="44.1847397" lon="10.2983483"><ele>532.5</ele><time>2026-04-07T11:40:18.916Z</time></trkpt><trkpt lat="44.1846686" lon="10.2984184"><ele>531.0</ele><time>2026-04-07T11:40:19.912Z</time></trkpt><trkpt lat="44.184601" lon="10.2984863"><ele>529.5</ele><time>2026-04-07T11:40:20.915Z</time></trkpt><trkpt lat="44.184531" lon="10.298548"><ele>528.0</ele><time>2026-04-07T11:40:21.93Z</time></trkpt><trkpt lat="44.1844597" lon="10.2986095"><ele>528.0</ele><time>2026-04-07T11:40:22.921Z</time></trkpt><trkpt lat="44.1843904" lon="10.298666"><ele>528.0</ele><time>2026-04-07T11:40:23.92Z</time></trkpt><trkpt lat="44.1843224" lon="10.298727"><ele>528.0</ele><time>2026-04-07T11:40:24.914Z</time></trkpt><trkpt lat="44.1842592" lon="10.2987976"><ele>528.0</ele><time>2026-04-07T11:40:25.931Z</time></trkpt><trkpt lat="44.1842074" lon="10.2988787"><ele>528.0</ele><time>2026-04-07T11:40:26.933Z</time></trkpt><trkpt lat="44.184161" lon="10.2989735"><ele>528.0</ele><time>2026-04-07T11:40:27.922Z</time></trkpt><trkpt lat="44.1841312" lon="10.2990894"><ele>529.0</ele><time>2026-04-07T11:40:28.916Z</time></trkpt><trkpt lat="44.1841017" lon="10.2992036"><ele>530.0</ele><time>2026-04-07T11:40:29.916Z</time></trkpt><trkpt lat="44.1840727" lon="10.2993188"><ele>531.0</ele><time>2026-04-07T11:40:30.92Z</time></trkpt><trkpt lat="44.1840445" lon="10.299438"><ele>532.0</ele><time>2026-04-07T11:40:31.924Z</time></trkpt><trkpt lat="44.1840178" lon="10.2995585"><ele>533.0</ele><time>2026-04-07T11:40:32.913Z</time></trkpt><trkpt lat="44.1839896" lon="10.299673"><ele>534.0</ele><time>2026-04-07T11:40:33.916Z</time></trkpt><trkpt lat="44.183965" lon="10.2997914"><ele>531.2</ele><time>2026-04-07T11:40:34.925Z</time></trkpt><trkpt lat="44.1839333" lon="10.2999061"><ele>528.4</ele><time>2026-04-07T11:40:35.92Z</time></trkpt><trkpt lat="44.1839012" lon="10.3000176"><ele>525.6</ele><time>2026-04-07T11:40:36.909Z</time></trkpt><trkpt lat="44.1838636" lon="10.3001348"><ele>522.8</ele><time>2026-04-07T11:40:37.927Z</time></trkpt><trkpt lat="44.1838225" lon="10.3002515"><ele>520.0</ele><time>2026-04-07T11:40:38.916Z</time></trkpt><trkpt lat="44.1837784" lon="10.3003667"><ele>520.0</ele><time>2026-04-07T11:40:39.91Z</time></trkpt><trkpt lat="44.1837345" lon="10.3004859"><ele>520.0</ele><time>2026-04-07T11:40:40.918Z</time></trkpt><trkpt lat="44.1836889" lon="10.3005981"><ele>520.0</ele><time>2026-04-07T11:40:41.927Z</time></trkpt><trkpt lat="44.1836443" lon="10.3007148"><ele>520.0</ele><time>2026-04-07T11:40:42.918Z</time></trkpt><trkpt lat="44.1835989" lon="10.3008279"><ele>520.0</ele><time>2026-04-07T11:40:43.922Z</time></trkpt><trkpt lat="44.1835513" lon="10.300935"><ele>520.4</ele><time>2026-04-07T11:40:44.937Z</time></trkpt><trkpt lat="44.1835054" lon="10.3010443"><ele>520.8</ele><time>2026-04-07T11:40:45.914Z</time></trkpt><trkpt lat="44.1834611" lon="10.3011553"><ele>521.2</ele><time>2026-04-07T11:40:46.919Z</time></trkpt><trkpt lat="44.183412" lon="10.3012664"><ele>521.6</ele><time>2026-04-07T11:40:47.921Z</time></trkpt><trkpt lat="44.1833662" lon="10.3013794"><ele>522.0</ele><time>2026-04-07T11:40:48.922Z</time></trkpt><trkpt lat="44.183321" lon="10.3014923"><ele>522.2</ele><time>2026-04-07T11:40:49.91Z</time></trkpt><trkpt lat="44.1832788" lon="10.3016098"><ele>522.4000000000001</ele><time>2026-04-07T11:40:50.912Z</time></trkpt><trkpt lat="44.1832583" lon="10.3017365"><ele>522.5999999999999</ele><time>2026-04-07T11:40:51.912Z</time></trkpt><trkpt lat="44.1832523" lon="10.301868"><ele>522.8</ele><time>2026-04-07T11:40:52.917Z</time></trkpt><trkpt lat="44.1832583" lon="10.3020008"><ele>523.0</ele><time>2026-04-07T11:40:53.919Z</time></trkpt><trkpt lat="44.183273" lon="10.3021295"><ele>522.3333333333334</ele><time>2026-04-07T11:40:54.91Z</time></trkpt><trkpt lat="44.183294" lon="10.3022543"><ele>521.6666666666667</ele><time>2026-04-07T11:40:55.921Z</time></trkpt><trkpt lat="44.183314" lon="10.3023781"><ele>521.0</ele><time>2026-04-07T11:40:56.912Z</time></trkpt><trkpt lat="44.1833385" lon="10.3024942"><ele>520.3333333333334</ele><time>2026-04-07T11:40:57.926Z</time></trkpt><trkpt lat="44.1833618" lon="10.3026126"><ele>519.6666666666666</ele><time>2026-04-07T11:40:58.918Z</time></trkpt><trkpt lat="44.1833853" lon="10.3027237"><ele>519.0</ele><time>2026-04-07T11:40:59.915Z</time></trkpt><trkpt lat="44.1834121" lon="10.302833"><ele>519.0</ele><time>2026-04-07T11:41:00.916Z</time></trkpt><trkpt lat="44.1834387" lon="10.3029328"><ele>519.0</ele><time>2026-04-07T11:41:01.913Z</time></trkpt><trkpt lat="44.1834703" lon="10.3030252"><ele>519.0</ele><time>2026-04-07T11:41:02.91Z</time></trkpt><trkpt lat="44.1835021" lon="10.3031116"><ele>519.0</ele><time>2026-04-07T11:41:03.928Z</time></trkpt><trkpt lat="44.1835385" lon="10.303189"><ele>519.0</ele><time>2026-04-07T11:41:04.915Z</time></trkpt><trkpt lat="44.1835773" lon="10.3032587"><ele>519.0</ele><time>2026-04-07T11:41:05.914Z</time></trkpt><trkpt lat="44.1836143" lon="10.3033301"><ele>519.0</ele><time>2026-04-07T11:41:06.913Z</time></trkpt><trkpt lat="44.1836829" lon="10.3034669"><ele>518.2</ele><time>2026-04-07T11:41:08.92Z</time></trkpt><trkpt lat="44.183739" lon="10.3035912"><ele>517.4</ele><time>2026-04-07T11:41:10.92Z</time></trkpt><trkpt lat="44.1837975" lon="10.3037034"><ele>516.6</ele><time>2026-04-07T11:41:12.917Z</time></trkpt><trkpt lat="44.1838499" lon="10.3038034"><ele>515.8</ele><time>2026-04-07T11:41:14.911Z</time></trkpt><trkpt lat="44.1839004" lon="10.3038962"><ele>515.0</ele><time>2026-04-07T11:41:16.906Z</time></trkpt><trkpt lat="44.1839483" lon="10.3039858"><ele>515.5</ele><time>2026-04-07T11:41:18.919Z</time></trkpt><trkpt lat="44.1839961" lon="10.3040755"><ele>516.0</ele><time>2026-04-07T11:41:20.908Z</time></trkpt><trkpt lat="44.184042" lon="10.3041598"><ele>516.5</ele><time>2026-04-07T11:41:22.913Z</time></trkpt><trkpt lat="44.1840891" lon="10.3042463"><ele>517.0</ele><time>2026-04-07T11:41:24.911Z</time></trkpt><trkpt lat="44.1841348" lon="10.3043336"><ele>517.5</ele><time>2026-04-07T11:41:26.919Z</time></trkpt><trkpt lat="44.184165" lon="10.3044297"><ele>518.0</ele><time>2026-04-07T11:41:28.921Z</time></trkpt><trkpt lat="44.1841641" lon="10.3045275"><ele>518.0</ele><time>2026-04-07T11:41:30.919Z</time></trkpt><trkpt lat="44.1841398" lon="10.3046201"><ele>518.0</ele><time>2026-04-07T11:41:32.913Z</time></trkpt><trkpt lat="44.1841049" lon="10.3047037"><ele>518.0</ele><time>2026-04-07T11:41:34.916Z</time></trkpt><trkpt lat="44.184071" lon="10.3047867"><ele>518.0</ele><time>2026-04-07T11:41:36.921Z</time></trkpt><trkpt lat="44.1840432" lon="10.3048707"><ele>518.0</ele><time>2026-04-07T11:41:38.914Z</time></trkpt><trkpt lat="44.1840179" lon="10.3049903"><ele>518.0</ele><time>2026-04-07T11:41:41.919Z</time></trkpt><trkpt lat="44.184021" lon="10.3051185"><ele>517.6</ele><time>2026-04-07T11:41:44.925Z</time></trkpt><trkpt lat="44.184022" lon="10.3052371"><ele>517.1999999999999</ele><time>2026-04-07T11:41:46.923Z</time></trkpt><trkpt lat="44.1840144" lon="10.3053615"><ele>516.8</ele><time>2026-04-07T11:41:48.914Z</time></trkpt><trkpt lat="44.1840028" lon="10.3054918"><ele>516.4</ele><time>2026-04-07T11:41:50.918Z</time></trkpt><trkpt lat="44.1839899" lon="10.3056273"><ele>516.0</ele><time>2026-04-07T11:41:52.911Z</time></trkpt><trkpt lat="44.1839911" lon="10.3057506"><ele>513.2</ele><time>2026-04-07T11:41:54.92Z</time></trkpt><trkpt lat="44.1839911" lon="10.3058875"><ele>510.40000000000003</ele><time>2026-04-07T11:41:56.914Z</time></trkpt><trkpt lat="44.1839846" lon="10.3060223"><ele>507.6</ele><time>2026-04-07T11:41:58.913Z</time></trkpt><trkpt lat="44.1839822" lon="10.3061567"><ele>504.8</ele><time>2026-04-07T11:42:00.911Z</time></trkpt><trkpt lat="44.1839754" lon="10.3062852"><ele>502.0</ele><time>2026-04-07T11:42:02.923Z</time></trkpt><trkpt lat="44.1839579" lon="10.3064098"><ele>500.33333333333337</ele><time>2026-04-07T11:42:04.912Z</time></trkpt><trkpt lat="44.1839435" lon="10.3065247"><ele>498.6666666666667</ele><time>2026-04-07T11:42:06.908Z</time></trkpt><trkpt lat="44.1839238" lon="10.306639"><ele>497.0</ele><time>2026-04-07T11:42:08.921Z</time></trkpt><trkpt lat="44.1839049" lon="10.3067481"><ele>495.33333333333337</ele><time>2026-04-07T11:42:10.921Z</time></trkpt><trkpt lat="44.1838852" lon="10.3068571"><ele>493.6666666666667</ele><time>2026-04-07T11:42:12.908Z</time></trkpt><trkpt lat="44.1838699" lon="10.3069652"><ele>492.0</ele><time>2026-04-07T11:42:14.907Z</time></trkpt><trkpt lat="44.1838494" lon="10.3070629"><ele>492.00000000000006</ele><time>2026-04-07T11:42:16.935Z</time></trkpt><trkpt lat="44.183829" lon="10.3071548"><ele>492.0</ele><time>2026-04-07T11:42:18.905Z</time></trkpt><trkpt lat="44.183804" lon="10.3072474"><ele>492.00000000000006</ele><time>2026-04-07T11:42:20.907Z</time></trkpt><trkpt lat="44.1837739" lon="10.3073391"><ele>492.00000000000006</ele><time>2026-04-07T11:42:22.908Z</time></trkpt><trkpt lat="44.1837416" lon="10.3074268"><ele>492.0</ele><time>2026-04-07T11:42:24.913Z</time></trkpt><trkpt lat="44.1837095" lon="10.3075141"><ele>492.00000000000006</ele><time>2026-04-07T11:42:26.929Z</time></trkpt><trkpt lat="44.1836748" lon="10.3076073"><ele>492.00000000000006</ele><time>2026-04-07T11:42:28.915Z</time></trkpt><trkpt lat="44.1836402" lon="10.307699"><ele>495.0</ele><time>2026-04-07T11:42:30.927Z</time></trkpt><trkpt lat="44.1836035" lon="10.3077897"><ele>498.0</ele><time>2026-04-07T11:42:32.918Z</time></trkpt><trkpt lat="44.183563" lon="10.3078738"><ele>501.0</ele><time>2026-04-07T11:42:34.92Z</time></trkpt><trkpt lat="44.1835145" lon="10.3079594"><ele>504.0</ele><time>2026-04-07T11:42:36.914Z</time></trkpt><trkpt lat="44.1834634" lon="10.3080336"><ele>507.0</ele><time>2026-04-07T11:42:38.921Z</time></trkpt><trkpt lat="44.1834051" lon="10.3081065"><ele>510.0</ele><time>2026-04-07T11:42:40.936Z</time></trkpt><trkpt lat="44.1833411" lon="10.308175"><ele>509.0</ele><time>2026-04-07T11:42:42.926Z</time></trkpt><trkpt lat="44.183277" lon="10.3082441"><ele>508.00000000000006</ele><time>2026-04-07T11:42:44.915Z</time></trkpt><trkpt lat="44.1832164" lon="10.3083111"><ele>507.0</ele><time>2026-04-07T11:42:46.915Z</time></trkpt><trkpt lat="44.1831564" lon="10.3083677"><ele>506.0</ele><time>2026-04-07T11:42:48.921Z</time></trkpt><trkpt lat="44.1830932" lon="10.308412"><ele>505.00000000000006</ele><time>2026-04-07T11:42:50.913Z</time></trkpt><trkpt lat="44.1830288" lon="10.3084475"><ele>504.0</ele><time>2026-04-07T11:42:52.909Z</time></trkpt><trkpt lat="44.1829579" lon="10.3084803"><ele>503.0</ele><time>2026-04-07T11:42:54.918Z</time></trkpt><trkpt lat="44.1828832" lon="10.3085157"><ele>502.99999999999994</ele><time>2026-04-07T11:42:56.919Z</time></trkpt><trkpt lat="44.1828094" lon="10.3085361"><ele>503.0</ele><time>2026-04-07T11:42:58.916Z</time></trkpt><trkpt lat="44.1827315" lon="10.3085424"><ele>503.0</ele><time>2026-04-07T11:43:00.916Z</time></trkpt><trkpt lat="44.1826532" lon="10.3085504"><ele>503.0</ele><time>2026-04-07T11:43:02.919Z</time></trkpt><trkpt lat="44.1825684" lon="10.3085601"><ele>502.99999999999994</ele><time>2026-04-07T11:43:04.925Z</time></trkpt><trkpt lat="44.1824796" lon="10.308573"><ele>503.0</ele><time>2026-04-07T11:43:06.908Z</time></trkpt><trkpt lat="44.1823879" lon="10.308596"><ele>506.0</ele><time>2026-04-07T11:43:08.924Z</time></trkpt><trkpt lat="44.1822891" lon="10.3086128"><ele>508.99999999999994</ele><time>2026-04-07T11:43:10.927Z</time></trkpt><trkpt lat="44.1821858" lon="10.308628"><ele>511.99999999999994</ele><time>2026-04-07T11:43:12.914Z</time></trkpt><trkpt lat="44.1820782" lon="10.3086483"><ele>515.0</ele><time>2026-04-07T11:43:14.915Z</time></trkpt><trkpt lat="44.1819608" lon="10.3086696"><ele>518.0</ele><time>2026-04-07T11:43:16.921Z</time></trkpt><trkpt lat="44.1818388" lon="10.3086877"><ele>518.0</ele><time>2026-04-07T11:43:18.918Z</time></trkpt><trkpt lat="44.1817748" lon="10.3086969"><ele>518.0</ele><time>2026-04-07T11:43:19.914Z</time></trkpt><trkpt lat="44.1817108" lon="10.3087074"><ele>518.0</ele><time>2026-04-07T11:43:20.923Z</time></trkpt><trkpt lat="44.1816463" lon="10.3087134"><ele>518.0</ele><time>2026-04-07T11:43:21.92Z</time></trkpt><trkpt lat="44.1815781" lon="10.3087217"><ele>518.0</ele><time>2026-04-07T11:43:22.919Z</time></trkpt><trkpt lat="44.1815113" lon="10.3087275"><ele>518.0</ele><time>2026-04-07T11:43:23.915Z</time></trkpt><trkpt lat="44.1814107" lon="10.3087426"><ele>518.0</ele><time>2026-04-07T11:43:25.918Z</time></trkpt><trkpt lat="44.1813026" lon="10.3087856"><ele>518.75</ele><time>2026-04-07T11:43:27.932Z</time></trkpt><trkpt lat="44.1811198" lon="10.3088808"><ele>519.5</ele><time>2026-04-07T11:43:29.919Z</time></trkpt><trkpt lat="44.1810484" lon="10.3089389"><ele>520.25</ele><time>2026-04-07T11:43:30.93Z</time></trkpt><trkpt lat="44.1809667" lon="10.309004"><ele>521.0</ele><time>2026-04-07T11:43:31.915Z</time></trkpt><trkpt lat="44.1808719" lon="10.3091012"><ele>521.0</ele><time>2026-04-07T11:43:32.915Z</time></trkpt><trkpt lat="44.1807429" lon="10.3092352"><ele>521.0</ele><time>2026-04-07T11:43:33.916Z</time></trkpt><trkpt lat="44.1806152" lon="10.3093447"><ele>521.0</ele><time>2026-04-07T11:43:34.916Z</time></trkpt><trkpt lat="44.1805354" lon="10.3094239"><ele>521.0</ele><time>2026-04-07T11:43:35.924Z</time></trkpt><trkpt lat="44.1804491" lon="10.3095189"><ele>519.0</ele><time>2026-04-07T11:43:36.919Z</time></trkpt><trkpt lat="44.1803624" lon="10.3096097"><ele>517.0</ele><time>2026-04-07T11:43:37.919Z</time></trkpt><trkpt lat="44.1802717" lon="10.3096943"><ele>515.0</ele><time>2026-04-07T11:43:38.92Z</time></trkpt><trkpt lat="44.1801762" lon="10.3097712"><ele>513.0</ele><time>2026-04-07T11:43:39.928Z</time></trkpt><trkpt lat="44.180074" lon="10.3098408"><ele>511.0</ele><time>2026-04-07T11:43:40.923Z</time></trkpt><trkpt lat="44.1799685" lon="10.3098886"><ele>511.0</ele><time>2026-04-07T11:43:41.919Z</time></trkpt><trkpt lat="44.179859" lon="10.3099327"><ele>511.0</ele><time>2026-04-07T11:43:42.918Z</time></trkpt><trkpt lat="44.1797455" lon="10.3099594"><ele>511.0</ele><time>2026-04-07T11:43:43.933Z</time></trkpt><trkpt lat="44.1796273" lon="10.3099818"><ele>511.0</ele><time>2026-04-07T11:43:44.914Z</time></trkpt><trkpt lat="44.1795114" lon="10.309981"><ele>508.6</ele><time>2026-04-07T11:43:45.925Z</time></trkpt><trkpt lat="44.1793941" lon="10.3099759"><ele>506.20000000000005</ele><time>2026-04-07T11:43:46.933Z</time></trkpt><trkpt lat="44.1792824" lon="10.3099721"><ele>503.79999999999995</ele><time>2026-04-07T11:43:47.923Z</time></trkpt><trkpt lat="44.1791763" lon="10.3099708"><ele>501.4</ele><time>2026-04-07T11:43:48.921Z</time></trkpt><trkpt lat="44.1790735" lon="10.3099738"><ele>499.0</ele><time>2026-04-07T11:43:49.919Z</time></trkpt><trkpt lat="44.1789637" lon="10.3099732"><ele>496.4</ele><time>2026-04-07T11:43:50.918Z</time></trkpt><trkpt lat="44.1788649" lon="10.3099758"><ele>493.79999999999995</ele><time>2026-04-07T11:43:51.924Z</time></trkpt><trkpt lat="44.1787685" lon="10.3099745"><ele>491.20000000000005</ele><time>2026-04-07T11:43:52.916Z</time></trkpt><trkpt lat="44.1786664" lon="10.3099744"><ele>488.6</ele><time>2026-04-07T11:43:53.921Z</time></trkpt><trkpt lat="44.1785654" lon="10.3099768"><ele>486.0</ele><time>2026-04-07T11:43:54.915Z</time></trkpt><trkpt lat="44.1784682" lon="10.3099781"><ele>486.0</ele><time>2026-04-07T11:43:55.91Z</time></trkpt><trkpt lat="44.1783754" lon="10.3099808"><ele>486.0</ele><time>2026-04-07T11:43:56.923Z</time></trkpt><trkpt lat="44.1782883" lon="10.3099856"><ele>486.0</ele><time>2026-04-07T11:43:57.927Z</time></trkpt><trkpt lat="44.1782086" lon="10.3100014"><ele>486.0</ele><time>2026-04-07T11:43:58.924Z</time></trkpt><trkpt lat="44.1781402" lon="10.3100373"><ele>486.0</ele><time>2026-04-07T11:43:59.918Z</time></trkpt><trkpt lat="44.1780837" lon="10.3100972"><ele>486.0</ele><time>2026-04-07T11:44:00.925Z</time></trkpt><trkpt lat="44.1780427" lon="10.3101827"><ele>485.0</ele><time>2026-04-07T11:44:01.912Z</time></trkpt><trkpt lat="44.1780271" lon="10.3102865"><ele>484.0</ele><time>2026-04-07T11:44:02.911Z</time></trkpt><trkpt lat="44.1780313" lon="10.3103977"><ele>483.0</ele><time>2026-04-07T11:44:03.909Z</time></trkpt><trkpt lat="44.1780415" lon="10.3104972"><ele>482.0</ele><time>2026-04-07T11:44:04.916Z</time></trkpt><trkpt lat="44.1780494" lon="10.3105863"><ele>481.0</ele><time>2026-04-07T11:44:05.931Z</time></trkpt><trkpt lat="44.1780304" lon="10.31073"><ele>480.0</ele><time>2026-04-07T11:44:07.916Z</time></trkpt><trkpt lat="44.1780009" lon="10.3108238"><ele>480.0</ele><time>2026-04-07T11:44:09.909Z</time></trkpt><trkpt lat="44.1779714" lon="10.3109113"><ele>480.0</ele><time>2026-04-07T11:44:11.911Z</time></trkpt><trkpt lat="44.1779237" lon="10.3110119"><ele>480.0</ele><time>2026-04-07T11:44:14.915Z</time></trkpt><trkpt lat="44.177885" lon="10.3111079"><ele>480.0</ele><time>2026-04-07T11:44:17.907Z</time></trkpt><trkpt lat="44.1778486" lon="10.3112144"><ele>480.0</ele><time>2026-04-07T11:44:20.913Z</time></trkpt><trkpt lat="44.1778047" lon="10.3113214"><ele>480.0</ele><time>2026-04-07T11:44:23.916Z</time></trkpt><trkpt lat="44.1777647" lon="10.3114343"><ele>481.8333333333333</ele><time>2026-04-07T11:44:26.912Z</time></trkpt><trkpt lat="44.1777256" lon="10.3115479"><ele>483.66666666666663</ele><time>2026-04-07T11:44:29.919Z</time></trkpt><trkpt lat="44.1776972" lon="10.3116621"><ele>485.5</ele><time>2026-04-07T11:44:32.915Z</time></trkpt><trkpt lat="44.1776796" lon="10.311788"><ele>487.3333333333333</ele><time>2026-04-07T11:44:35.908Z</time></trkpt><trkpt lat="44.177658" lon="10.311908"><ele>489.16666666666663</ele><time>2026-04-07T11:44:38.921Z</time></trkpt><trkpt lat="44.177639" lon="10.3120215"><ele>491.0</ele><time>2026-04-07T11:44:41.924Z</time></trkpt><trkpt lat="44.1776204" lon="10.3121375"><ele>492.49999999999994</ele><time>2026-04-07T11:44:44.917Z</time></trkpt><trkpt lat="44.1775866" lon="10.3122492"><ele>494.0</ele><time>2026-04-07T11:44:47.922Z</time></trkpt><trkpt lat="44.1775396" lon="10.3123619"><ele>495.5</ele><time>2026-04-07T11:44:50.925Z</time></trkpt><trkpt lat="44.1774885" lon="10.3124683"><ele>497.0</ele><time>2026-04-07T11:44:53.91Z</time></trkpt><trkpt lat="44.1774338" lon="10.3125668"><ele>498.49999999999994</ele><time>2026-04-07T11:44:56.912Z</time></trkpt><trkpt lat="44.1773832" lon="10.3126561"><ele>500.0</ele><time>2026-04-07T11:44:59.926Z</time></trkpt><trkpt lat="44.1773334" lon="10.3127491"><ele>498.49999999999994</ele><time>2026-04-07T11:45:02.907Z</time></trkpt><trkpt lat="44.1772782" lon="10.3128375"><ele>497.0</ele><time>2026-04-07T11:45:05.91Z</time></trkpt><trkpt lat="44.1772463" lon="10.3129411"><ele>495.5</ele><time>2026-04-07T11:45:09.923Z</time></trkpt><trkpt lat="44.1772165" lon="10.313026"><ele>494.0</ele><time>2026-04-07T11:45:12.926Z</time></trkpt><trkpt lat="44.1771906" lon="10.3131479"><ele>492.49999999999994</ele><time>2026-04-07T11:45:15.909Z</time></trkpt><trkpt lat="44.1771721" lon="10.3132693"><ele>491.0</ele><time>2026-04-07T11:45:18.917Z</time></trkpt><trkpt lat="44.1771659" lon="10.3133851"><ele>490.99999999999994</ele><time>2026-04-07T11:45:21.911Z</time></trkpt><trkpt lat="44.1771714" lon="10.3135083"><ele>491.0</ele><time>2026-04-07T11:45:24.92Z</time></trkpt><trkpt lat="44.1771637" lon="10.3135977"><ele>491.0</ele><time>2026-04-07T11:45:26.916Z</time></trkpt><trkpt lat="44.1771544" lon="10.313696"><ele>491.0</ele><time>2026-04-07T11:45:28.918Z</time></trkpt><trkpt lat="44.1771233" lon="10.3138183"><ele>490.99999999999994</ele><time>2026-04-07T11:45:30.926Z</time></trkpt><trkpt lat="44.1770587" lon="10.3139348"><ele>491.0</ele><time>2026-04-07T11:45:32.92Z</time></trkpt><trkpt lat="44.1769691" lon="10.3140096"><ele>491.0</ele><time>2026-04-07T11:45:34.913Z</time></trkpt><trkpt lat="44.1768455" lon="10.3140142"><ele>491.0</ele><time>2026-04-07T11:45:36.927Z</time></trkpt><trkpt lat="44.1767315" lon="10.3139383"><ele>491.0</ele><time>2026-04-07T11:45:38.919Z</time></trkpt><trkpt lat="44.176681" lon="10.3138706"><ele>491.0</ele><time>2026-04-07T11:45:39.925Z</time></trkpt><trkpt lat="44.176639" lon="10.3137865"><ele>491.0</ele><time>2026-04-07T11:45:40.921Z</time></trkpt><trkpt lat="44.1766006" lon="10.3136945"><ele>490.99999999999994</ele><time>2026-04-07T11:45:41.927Z</time></trkpt><trkpt lat="44.1765458" lon="10.3136103"><ele>491.0</ele><time>2026-04-07T11:45:42.928Z</time></trkpt><trkpt lat="44.1764802" lon="10.3135431"><ele>491.0</ele><time>2026-04-07T11:45:43.926Z</time></trkpt><trkpt lat="44.1764035" lon="10.3134902"><ele>491.0</ele><time>2026-04-07T11:45:44.916Z</time></trkpt><trkpt lat="44.1763165" lon="10.3134632"><ele>490.99999999999994</ele><time>2026-04-07T11:45:45.915Z</time></trkpt><trkpt lat="44.1762224" lon="10.3134591"><ele>491.0</ele><time>2026-04-07T11:45:46.938Z</time></trkpt><trkpt lat="44.1761288" lon="10.3134853"><ele>489.20000000000005</ele><time>2026-04-07T11:45:47.928Z</time></trkpt><trkpt lat="44.1760373" lon="10.3135311"><ele>487.40000000000003</ele><time>2026-04-07T11:45:48.925Z</time></trkpt><trkpt lat="44.1759523" lon="10.3135993"><ele>485.6</ele><time>2026-04-07T11:45:49.914Z</time></trkpt><trkpt lat="44.1758683" lon="10.3136782"><ele>483.8</ele><time>2026-04-07T11:45:50.919Z</time></trkpt><trkpt lat="44.1757862" lon="10.3137652"><ele>482.0</ele><time>2026-04-07T11:45:51.918Z</time></trkpt><trkpt lat="44.175707" lon="10.3138453"><ele>478.8</ele><time>2026-04-07T11:45:52.918Z</time></trkpt><trkpt lat="44.1756409" lon="10.3139517"><ele>475.6</ele><time>2026-04-07T11:45:53.924Z</time></trkpt><trkpt lat="44.1755923" lon="10.3140817"><ele>472.40000000000003</ele><time>2026-04-07T11:45:54.91Z</time></trkpt><trkpt lat="44.1755619" lon="10.3142244"><ele>469.20000000000005</ele><time>2026-04-07T11:45:55.92Z</time></trkpt><trkpt lat="44.1755383" lon="10.3143678"><ele>466.0</ele><time>2026-04-07T11:45:56.918Z</time></trkpt><trkpt lat="44.175517" lon="10.3145139"><ele>466.0</ele><time>2026-04-07T11:45:57.927Z</time></trkpt><trkpt lat="44.1754957" lon="10.3146636"><ele>466.0</ele><time>2026-04-07T11:45:58.933Z</time></trkpt><trkpt lat="44.175475" lon="10.3148129"><ele>466.0</ele><time>2026-04-07T11:45:59.919Z</time></trkpt><trkpt lat="44.1754552" lon="10.314961"><ele>466.0</ele><time>2026-04-07T11:46:00.923Z</time></trkpt><trkpt lat="44.1754435" lon="10.3151125"><ele>466.0</ele><time>2026-04-07T11:46:01.911Z</time></trkpt><trkpt lat="44.175433" lon="10.3152635"><ele>465.8</ele><time>2026-04-07T11:46:02.911Z</time></trkpt><trkpt lat="44.1754262" lon="10.3154163"><ele>465.6</ele><time>2026-04-07T11:46:03.921Z</time></trkpt><trkpt lat="44.1754224" lon="10.3155607"><ele>465.4</ele><time>2026-04-07T11:46:04.921Z</time></trkpt><trkpt lat="44.1754171" lon="10.3157143"><ele>465.2</ele><time>2026-04-07T11:46:05.924Z</time></trkpt><trkpt lat="44.1754038" lon="10.3158655"><ele>465.0</ele><time>2026-04-07T11:46:06.908Z</time></trkpt><trkpt lat="44.175379" lon="10.3160126"><ele>465.0</ele><time>2026-04-07T11:46:07.919Z</time></trkpt><trkpt lat="44.1753495" lon="10.316161"><ele>465.0</ele><time>2026-04-07T11:46:08.922Z</time></trkpt><trkpt lat="44.1753191" lon="10.316297"><ele>465.0</ele><time>2026-04-07T11:46:09.92Z</time></trkpt><trkpt lat="44.1752825" lon="10.3164288"><ele>465.0</ele><time>2026-04-07T11:46:10.924Z</time></trkpt><trkpt lat="44.1752413" lon="10.3165486"><ele>465.0</ele><time>2026-04-07T11:46:11.925Z</time></trkpt><trkpt lat="44.1752001" lon="10.3166652"><ele>467.0</ele><time>2026-04-07T11:46:12.922Z</time></trkpt><trkpt lat="44.1751609" lon="10.3167766"><ele>469.0</ele><time>2026-04-07T11:46:13.923Z</time></trkpt><trkpt lat="44.1751227" lon="10.3168931"><ele>471.0</ele><time>2026-04-07T11:46:14.926Z</time></trkpt><trkpt lat="44.1750775" lon="10.3170004"><ele>473.0</ele><time>2026-04-07T11:46:15.93Z</time></trkpt><trkpt lat="44.1750218" lon="10.3170979"><ele>475.0</ele><time>2026-04-07T11:46:16.93Z</time></trkpt><trkpt lat="44.1749519" lon="10.3171819"><ele>475.00000000000006</ele><time>2026-04-07T11:46:17.922Z</time></trkpt><trkpt lat="44.17487" lon="10.3172466"><ele>475.0</ele><time>2026-04-07T11:46:18.922Z</time></trkpt><trkpt lat="44.1747845" lon="10.3172872"><ele>475.0</ele><time>2026-04-07T11:46:19.923Z</time></trkpt><trkpt lat="44.1747018" lon="10.317315"><ele>475.0</ele><time>2026-04-07T11:46:20.923Z</time></trkpt><trkpt lat="44.1746177" lon="10.3173395"><ele>475.00000000000006</ele><time>2026-04-07T11:46:21.921Z</time></trkpt><trkpt lat="44.1745339" lon="10.3173654"><ele>475.0</ele><time>2026-04-07T11:46:22.915Z</time></trkpt><trkpt lat="44.174452" lon="10.3173884"><ele>475.00000000000006</ele><time>2026-04-07T11:46:23.923Z</time></trkpt><trkpt lat="44.1743663" lon="10.3174063"><ele>475.0</ele><time>2026-04-07T11:46:24.923Z</time></trkpt><trkpt lat="44.1742807" lon="10.317429"><ele>475.0</ele><time>2026-04-07T11:46:25.927Z</time></trkpt><trkpt lat="44.1741981" lon="10.317456"><ele>475.0</ele><time>2026-04-07T11:46:26.909Z</time></trkpt><trkpt lat="44.1741154" lon="10.3174751"><ele>475.00000000000006</ele><time>2026-04-07T11:46:27.92Z</time></trkpt><trkpt lat="44.1740339" lon="10.3175017"><ele>475.0</ele><time>2026-04-07T11:46:28.921Z</time></trkpt><trkpt lat="44.1739571" lon="10.3175399"><ele>472.00000000000006</ele><time>2026-04-07T11:46:29.924Z</time></trkpt><trkpt lat="44.1738823" lon="10.3175792"><ele>469.0</ele><time>2026-04-07T11:46:30.92Z</time></trkpt><trkpt lat="44.1738057" lon="10.3176157"><ele>466.0</ele><time>2026-04-07T11:46:31.922Z</time></trkpt><trkpt lat="44.1737297" lon="10.3176546"><ele>463.0</ele><time>2026-04-07T11:46:32.915Z</time></trkpt><trkpt lat="44.1736541" lon="10.3176935"><ele>460.00000000000006</ele><time>2026-04-07T11:46:33.926Z</time></trkpt><trkpt lat="44.173576" lon="10.31773"><ele>457.0</ele><time>2026-04-07T11:46:34.925Z</time></trkpt><trkpt lat="44.1735063" lon="10.31777"><ele>457.00000000000006</ele><time>2026-04-07T11:46:35.922Z</time></trkpt><trkpt lat="44.1734339" lon="10.3177969"><ele>457.0</ele><time>2026-04-07T11:46:36.922Z</time></trkpt><trkpt lat="44.1733575" lon="10.3178233"><ele>457.00000000000006</ele><time>2026-04-07T11:46:37.926Z</time></trkpt><trkpt lat="44.1732822" lon="10.3178416"><ele>457.00000000000006</ele><time>2026-04-07T11:46:38.929Z</time></trkpt><trkpt lat="44.1732112" lon="10.3178465"><ele>457.0</ele><time>2026-04-07T11:46:39.918Z</time></trkpt><trkpt lat="44.1731429" lon="10.3178536"><ele>457.00000000000006</ele><time>2026-04-07T11:46:40.917Z</time></trkpt><trkpt lat="44.1730778" lon="10.3178605"><ele>457.00000000000006</ele><time>2026-04-07T11:46:41.923Z</time></trkpt><trkpt lat="44.1730117" lon="10.3178673"><ele>456.1666666666667</ele><time>2026-04-07T11:46:42.923Z</time></trkpt><trkpt lat="44.1729449" lon="10.3178704"><ele>455.33333333333337</ele><time>2026-04-07T11:46:43.928Z</time></trkpt><trkpt lat="44.1728807" lon="10.317886"><ele>454.5</ele><time>2026-04-07T11:46:44.923Z</time></trkpt><trkpt lat="44.1728192" lon="10.317913"><ele>453.66666666666663</ele><time>2026-04-07T11:46:45.933Z</time></trkpt><trkpt lat="44.1727657" lon="10.31796"><ele>452.8333333333333</ele><time>2026-04-07T11:46:46.916Z</time></trkpt><trkpt lat="44.172683" lon="10.3180745"><ele>452.0</ele><time>2026-04-07T11:46:48.926Z</time></trkpt><trkpt lat="44.1726306" lon="10.3182276"><ele>454.66666666666663</ele><time>2026-04-07T11:46:50.93Z</time></trkpt><trkpt lat="44.1725922" lon="10.3183905"><ele>457.3333333333333</ele><time>2026-04-07T11:46:52.92Z</time></trkpt><trkpt lat="44.172569" lon="10.3185608"><ele>460.0</ele><time>2026-04-07T11:46:54.922Z</time></trkpt><trkpt lat="44.1725581" lon="10.3186518"><ele>462.66666666666663</ele><time>2026-04-07T11:46:55.919Z</time></trkpt><trkpt lat="44.1725436" lon="10.3187401"><ele>465.3333333333333</ele><time>2026-04-07T11:46:56.917Z</time></trkpt><trkpt lat="44.1725359" lon="10.3188316"><ele>468.0</ele><time>2026-04-07T11:46:57.925Z</time></trkpt><trkpt lat="44.1725209" lon="10.3189288"><ele>468.0</ele><time>2026-04-07T11:46:58.923Z</time></trkpt><trkpt lat="44.172509" lon="10.3190184"><ele>468.0</ele><time>2026-04-07T11:46:59.928Z</time></trkpt><trkpt lat="44.1724948" lon="10.319109"><ele>468.0</ele><time>2026-04-07T11:47:00.926Z</time></trkpt><trkpt lat="44.1724827" lon="10.3192003"><ele>468.0</ele><time>2026-04-07T11:47:01.921Z</time></trkpt><trkpt lat="44.1724807" lon="10.3192884"><ele>468.0</ele><time>2026-04-07T11:47:02.925Z</time></trkpt><trkpt lat="44.1724737" lon="10.3193785"><ele>468.0</ele><time>2026-04-07T11:47:03.923Z</time></trkpt><trkpt lat="44.1724912" lon="10.3195518"><ele>468.0</ele><time>2026-04-07T11:47:05.922Z</time></trkpt><trkpt lat="44.1725182" lon="10.3196328"><ele>468.00000000000006</ele><time>2026-04-07T11:47:06.915Z</time></trkpt><trkpt lat="44.1725537" lon="10.3197079"><ele>468.0</ele><time>2026-04-07T11:47:07.906Z</time></trkpt><trkpt lat="44.1726014" lon="10.319771"><ele>468.0</ele><time>2026-04-07T11:47:08.923Z</time></trkpt><trkpt lat="44.1726482" lon="10.3198299"><ele>468.00000000000006</ele><time>2026-04-07T11:47:09.92Z</time></trkpt><trkpt lat="44.1727032" lon="10.319884"><ele>468.0</ele><time>2026-04-07T11:47:10.917Z</time></trkpt><trkpt lat="44.1727583" lon="10.3199376"><ele>468.0</ele><time>2026-04-07T11:47:11.922Z</time></trkpt><trkpt lat="44.1728143" lon="10.3199923"><ele>467.14285714285717</ele><time>2026-04-07T11:47:12.915Z</time></trkpt><trkpt lat="44.1728692" lon="10.3200571"><ele>466.28571428571433</ele><time>2026-04-07T11:47:13.932Z</time></trkpt><trkpt lat="44.1729176" lon="10.3201275"><ele>465.42857142857144</ele><time>2026-04-07T11:47:14.929Z</time></trkpt><trkpt lat="44.1729555" lon="10.320211"><ele>464.57142857142856</ele><time>2026-04-07T11:47:15.933Z</time></trkpt><trkpt lat="44.172982" lon="10.320304"><ele>463.7142857142857</ele><time>2026-04-07T11:47:16.924Z</time></trkpt><trkpt lat="44.1729999" lon="10.3204084"><ele>462.8571428571429</ele><time>2026-04-07T11:47:17.923Z</time></trkpt><trkpt lat="44.1730026" lon="10.320509"><ele>462.0</ele><time>2026-04-07T11:47:18.934Z</time></trkpt><trkpt lat="44.1729919" lon="10.32061"><ele>461.7142857142857</ele><time>2026-04-07T11:47:19.919Z</time></trkpt><trkpt lat="44.1729812" lon="10.320707"><ele>461.42857142857144</ele><time>2026-04-07T11:47:20.913Z</time></trkpt><trkpt lat="44.1729646" lon="10.3208018"><ele>461.1428571428571</ele><time>2026-04-07T11:47:21.911Z</time></trkpt><trkpt lat="44.1729463" lon="10.3208952"><ele>460.85714285714283</ele><time>2026-04-07T11:47:22.917Z</time></trkpt><trkpt lat="44.1729303" lon="10.3209875"><ele>460.57142857142856</ele><time>2026-04-07T11:47:23.915Z</time></trkpt><trkpt lat="44.1729136" lon="10.3210813"><ele>460.2857142857142</ele><time>2026-04-07T11:47:24.918Z</time></trkpt><trkpt lat="44.1728941" lon="10.3211759"><ele>459.99999999999994</ele><time>2026-04-07T11:47:25.914Z</time></trkpt><trkpt lat="44.1728752" lon="10.3212722"><ele>459.99999999999994</ele><time>2026-04-07T11:47:26.929Z</time></trkpt><trkpt lat="44.1728553" lon="10.3213682"><ele>460.0</ele><time>2026-04-07T11:47:27.923Z</time></trkpt><trkpt lat="44.1728322" lon="10.3214599"><ele>459.99999999999994</ele><time>2026-04-07T11:47:28.921Z</time></trkpt><trkpt lat="44.1728237" lon="10.3215533"><ele>459.99999999999994</ele><time>2026-04-07T11:47:29.914Z</time></trkpt><trkpt lat="44.1728125" lon="10.3216485"><ele>460.0</ele><time>2026-04-07T11:47:30.908Z</time></trkpt><trkpt lat="44.1728053" lon="10.321741"><ele>459.99999999999994</ele><time>2026-04-07T11:47:31.933Z</time></trkpt><trkpt lat="44.1727839" lon="10.321836"><ele>459.99999999999994</ele><time>2026-04-07T11:47:32.904Z</time></trkpt><trkpt lat="44.1727633" lon="10.3219275"><ele>459.99999999999994</ele><time>2026-04-07T11:47:33.926Z</time></trkpt><trkpt lat="44.172745" lon="10.3220162"><ele>460.0</ele><time>2026-04-07T11:47:34.923Z</time></trkpt><trkpt lat="44.1727264" lon="10.3221092"><ele>459.99999999999994</ele><time>2026-04-07T11:47:35.918Z</time></trkpt><trkpt lat="44.1727097" lon="10.3221945"><ele>459.99999999999994</ele><time>2026-04-07T11:47:36.919Z</time></trkpt><trkpt lat="44.1726924" lon="10.3222859"><ele>460.0</ele><time>2026-04-07T11:47:37.921Z</time></trkpt><trkpt lat="44.172677" lon="10.322374"><ele>459.99999999999994</ele><time>2026-04-07T11:47:38.922Z</time></trkpt><trkpt lat="44.1726619" lon="10.3224634"><ele>459.99999999999994</ele><time>2026-04-07T11:47:39.918Z</time></trkpt><trkpt lat="44.1726472" lon="10.3225573"><ele>460.0</ele><time>2026-04-07T11:47:40.91Z</time></trkpt><trkpt lat="44.1726282" lon="10.32272"><ele>460.0</ele><time>2026-04-07T11:47:42.921Z</time></trkpt><trkpt lat="44.172618" lon="10.3228977"><ele>460.0</ele><time>2026-04-07T11:47:44.921Z</time></trkpt><trkpt lat="44.1726152" lon="10.3229878"><ele>460.0</ele><time>2026-04-07T11:47:45.928Z</time></trkpt><trkpt lat="44.1726183" lon="10.3230765"><ele>460.0</ele><time>2026-04-07T11:47:46.932Z</time></trkpt><trkpt lat="44.1726301" lon="10.3232445"><ele>460.0</ele><time>2026-04-07T11:47:48.937Z</time></trkpt><trkpt lat="44.1726545" lon="10.323414"><ele>460.0</ele><time>2026-04-07T11:47:50.927Z</time></trkpt><trkpt lat="44.1726883" lon="10.3235766"><ele>460.0</ele><time>2026-04-07T11:47:52.913Z</time></trkpt><trkpt lat="44.1727279" lon="10.3237312"><ele>460.0</ele><time>2026-04-07T11:47:54.909Z</time></trkpt><trkpt lat="44.1727685" lon="10.3238827"><ele>457.25</ele><time>2026-04-07T11:47:56.919Z</time></trkpt><trkpt lat="44.1728245" lon="10.324024"><ele>454.5</ele><time>2026-04-07T11:47:58.926Z</time></trkpt><trkpt lat="44.1728831" lon="10.3241634"><ele>451.75</ele><time>2026-04-07T11:48:00.922Z</time></trkpt><trkpt lat="44.1729502" lon="10.3242946"><ele>449.0</ele><time>2026-04-07T11:48:02.932Z</time></trkpt><trkpt lat="44.1730158" lon="10.3244144"><ele>449.0</ele><time>2026-04-07T11:48:04.917Z</time></trkpt><trkpt lat="44.1730825" lon="10.3245225"><ele>449.0</ele><time>2026-04-07T11:48:06.911Z</time></trkpt><trkpt lat="44.1731582" lon="10.324621"><ele>449.0</ele><time>2026-04-07T11:48:08.918Z</time></trkpt><trkpt lat="44.1732331" lon="10.3247191"><ele>449.0</ele><time>2026-04-07T11:48:10.921Z</time></trkpt><trkpt lat="44.1733069" lon="10.3248225"><ele>449.0</ele><time>2026-04-07T11:48:12.908Z</time></trkpt><trkpt lat="44.1733713" lon="10.3249497"><ele>452.16666666666663</ele><time>2026-04-07T11:48:14.922Z</time></trkpt><trkpt lat="44.1734156" lon="10.3250748"><ele>455.3333333333333</ele><time>2026-04-07T11:48:16.938Z</time></trkpt><trkpt lat="44.1734337" lon="10.3251955"><ele>458.5</ele><time>2026-04-07T11:48:18.916Z</time></trkpt><trkpt lat="44.1734141" lon="10.325316"><ele>461.66666666666663</ele><time>2026-04-07T11:48:20.907Z</time></trkpt><trkpt lat="44.1733876" lon="10.3254164"><ele>464.8333333333333</ele><time>2026-04-07T11:48:22.919Z</time></trkpt><trkpt lat="44.1733371" lon="10.32552"><ele>468.0</ele><time>2026-04-07T11:48:25.92Z</time></trkpt><trkpt lat="44.1732889" lon="10.3255827"><ele>468.0</ele><time>2026-04-07T11:48:27.906Z</time></trkpt><trkpt lat="44.1732218" lon="10.3256621"><ele>468.0</ele><time>2026-04-07T11:48:30.919Z</time></trkpt><trkpt lat="44.1731543" lon="10.3257332"><ele>468.0</ele><time>2026-04-07T11:48:33.918Z</time></trkpt><trkpt lat="44.1730908" lon="10.3257972"><ele>468.0</ele><time>2026-04-07T11:48:36.914Z</time></trkpt><trkpt lat="44.1730256" lon="10.3258728"><ele>468.0</ele><time>2026-04-07T11:48:39.913Z</time></trkpt><trkpt lat="44.1729558" lon="10.3259334"><ele>468.0</ele><time>2026-04-07T11:48:42.914Z</time></trkpt><trkpt lat="44.1728827" lon="10.3260008"><ele>468.0</ele><time>2026-04-07T11:48:45.913Z</time></trkpt><trkpt lat="44.1728094" lon="10.3260608"><ele>468.0</ele><time>2026-04-07T11:48:48.917Z</time></trkpt><trkpt lat="44.1727419" lon="10.3261146"><ele>468.0</ele><time>2026-04-07T11:48:51.921Z</time></trkpt><trkpt lat="44.1726689" lon="10.3261632"><ele>468.0</ele><time>2026-04-07T11:48:54.915Z</time></trkpt><trkpt lat="44.1726034" lon="10.3261892"><ele>468.0</ele><time>2026-04-07T11:48:57.926Z</time></trkpt><trkpt lat="44.1725265" lon="10.3261891"><ele>468.0</ele><time>2026-04-07T11:49:00.924Z</time></trkpt><trkpt lat="44.1724521" lon="10.3261648"><ele>468.0</ele><time>2026-04-07T11:49:03.914Z</time></trkpt><trkpt lat="44.1723851" lon="10.3261185"><ele>468.0</ele><time>2026-04-07T11:49:06.914Z</time></trkpt><trkpt lat="44.1723187" lon="10.3260643"><ele>468.0</ele><time>2026-04-07T11:49:09.914Z</time></trkpt><trkpt lat="44.1722516" lon="10.3260139"><ele>468.0</ele><time>2026-04-07T11:49:12.92Z</time></trkpt><trkpt lat="44.1721807" lon="10.3259706"><ele>468.0</ele><time>2026-04-07T11:49:15.922Z</time></trkpt><trkpt lat="44.1721064" lon="10.3259372"><ele>468.0</ele><time>2026-04-07T11:49:18.937Z</time></trkpt><trkpt lat="44.1720322" lon="10.3259273"><ele>467.6666666666667</ele><time>2026-04-07T11:49:21.918Z</time></trkpt><trkpt lat="44.1719561" lon="10.3259233"><ele>467.33333333333337</ele><time>2026-04-07T11:49:24.919Z</time></trkpt><trkpt lat="44.1718799" lon="10.3259386"><ele>467.0</ele><time>2026-04-07T11:49:27.913Z</time></trkpt><trkpt lat="44.1718144" lon="10.3260017"><ele>466.6666666666667</ele><time>2026-04-07T11:49:30.922Z</time></trkpt><trkpt lat="44.1717687" lon="10.3260797"><ele>466.33333333333337</ele><time>2026-04-07T11:49:33.921Z</time></trkpt><trkpt lat="44.1717374" lon="10.3261826"><ele>466.0</ele><time>2026-04-07T11:49:36.917Z</time></trkpt><trkpt lat="44.1717282" lon="10.3262877"><ele>466.00000000000006</ele><time>2026-04-07T11:49:39.919Z</time></trkpt><trkpt lat="44.1717334" lon="10.3263908"><ele>466.0</ele><time>2026-04-07T11:49:42.917Z</time></trkpt><trkpt lat="44.1717439" lon="10.3265057"><ele>466.0</ele><time>2026-04-07T11:49:45.916Z</time></trkpt><trkpt lat="44.1717548" lon="10.3266146"><ele>466.0</ele><time>2026-04-07T11:49:48.92Z</time></trkpt><trkpt lat="44.1717657" lon="10.3267291"><ele>466.00000000000006</ele><time>2026-04-07T11:49:51.92Z</time></trkpt><trkpt lat="44.17177" lon="10.3268443"><ele>466.0</ele><time>2026-04-07T11:49:54.916Z</time></trkpt><trkpt lat="44.1717747" lon="10.3269536"><ele>467.33333333333337</ele><time>2026-04-07T11:49:57.92Z</time></trkpt><trkpt lat="44.171782" lon="10.3270599"><ele>468.6666666666667</ele><time>2026-04-07T11:50:00.922Z</time></trkpt><trkpt lat="44.1717913" lon="10.3271654"><ele>470.0</ele><time>2026-04-07T11:50:03.929Z</time></trkpt><trkpt lat="44.1718114" lon="10.3272733"><ele>471.33333333333337</ele><time>2026-04-07T11:50:06.913Z</time></trkpt><trkpt lat="44.1718381" lon="10.3273812"><ele>472.6666666666667</ele><time>2026-04-07T11:50:09.921Z</time></trkpt><trkpt lat="44.1718826" lon="10.3274871"><ele>474.0</ele><time>2026-04-07T11:50:12.907Z</time></trkpt><trkpt lat="44.1719335" lon="10.3275724"><ele>474.8333333333333</ele><time>2026-04-07T11:50:15.926Z</time></trkpt><trkpt lat="44.1719855" lon="10.3276439"><ele>475.66666666666663</ele><time>2026-04-07T11:50:18.921Z</time></trkpt><trkpt lat="44.1720431" lon="10.3277154"><ele>476.5</ele><time>2026-04-07T11:50:21.916Z</time></trkpt><trkpt lat="44.1721037" lon="10.3277906"><ele>477.3333333333333</ele><time>2026-04-07T11:50:24.916Z</time></trkpt><trkpt lat="44.172161" lon="10.327868"><ele>478.16666666666663</ele><time>2026-04-07T11:50:27.921Z</time></trkpt><trkpt lat="44.1722184" lon="10.327942"><ele>479.0</ele><time>2026-04-07T11:50:30.92Z</time></trkpt><trkpt lat="44.1722725" lon="10.3280217"><ele>478.16666666666663</ele><time>2026-04-07T11:50:33.924Z</time></trkpt><trkpt lat="44.1723204" lon="10.3281034"><ele>477.3333333333333</ele><time>2026-04-07T11:50:36.917Z</time></trkpt><trkpt lat="44.1723573" lon="10.3282046"><ele>476.5</ele><time>2026-04-07T11:50:39.916Z</time></trkpt><trkpt lat="44.1723861" lon="10.3283017"><ele>475.66666666666663</ele><time>2026-04-07T11:50:42.917Z</time></trkpt><trkpt lat="44.1724042" lon="10.328408"><ele>474.8333333333333</ele><time>2026-04-07T11:50:45.931Z</time></trkpt><trkpt lat="44.1724232" lon="10.32852"><ele>474.0</ele><time>2026-04-07T11:50:48.914Z</time></trkpt><trkpt lat="44.1724423" lon="10.3286147"><ele>478.0</ele><time>2026-04-07T11:50:51.922Z</time></trkpt><trkpt lat="44.1724593" lon="10.3287221"><ele>482.0</ele><time>2026-04-07T11:50:54.918Z</time></trkpt><trkpt lat="44.1724656" lon="10.3288354"><ele>486.0</ele><time>2026-04-07T11:50:57.928Z</time></trkpt><trkpt lat="44.1724641" lon="10.3289446"><ele>490.0</ele><time>2026-04-07T11:51:00.917Z</time></trkpt><trkpt lat="44.1724526" lon="10.3290478"><ele>494.0</ele><time>2026-04-07T11:51:03.927Z</time></trkpt><trkpt lat="44.1724379" lon="10.3291472"><ele>498.0</ele><time>2026-04-07T11:51:06.909Z</time></trkpt><trkpt lat="44.1724246" lon="10.3292448"><ele>498.0</ele><time>2026-04-07T11:51:09.921Z</time></trkpt><trkpt lat="44.1723971" lon="10.3293608"><ele>498.0</ele><time>2026-04-07T11:51:12.912Z</time></trkpt><trkpt lat="44.1723752" lon="10.3294819"><ele>498.0</ele><time>2026-04-07T11:51:15.914Z</time></trkpt><trkpt lat="44.1723628" lon="10.329589"><ele>498.0</ele><time>2026-04-07T11:51:18.926Z</time></trkpt><trkpt lat="44.1723766" lon="10.3297011"><ele>498.0</ele><time>2026-04-07T11:51:21.916Z</time></trkpt><trkpt lat="44.1724202" lon="10.3297928"><ele>498.0</ele><time>2026-04-07T11:51:24.925Z</time></trkpt><trkpt lat="44.1724878" lon="10.3298486"><ele>497.3333333333333</ele><time>2026-04-07T11:51:27.923Z</time></trkpt><trkpt lat="44.1725582" lon="10.3298917"><ele>496.66666666666663</ele><time>2026-04-07T11:51:30.926Z</time></trkpt><trkpt lat="44.1726335" lon="10.3299271"><ele>496.0</ele><time>2026-04-07T11:51:33.922Z</time></trkpt><trkpt lat="44.1727043" lon="10.3299719"><ele>495.3333333333333</ele><time>2026-04-07T11:51:36.917Z</time></trkpt><trkpt lat="44.1727701" lon="10.3300381"><ele>494.66666666666663</ele><time>2026-04-07T11:51:39.918Z</time></trkpt><trkpt lat="44.1728142" lon="10.3301405"><ele>494.0</ele><time>2026-04-07T11:51:42.923Z</time></trkpt><trkpt lat="44.1728439" lon="10.3302463"><ele>493.99999999999994</ele><time>2026-04-07T11:51:45.942Z</time></trkpt><trkpt lat="44.1728666" lon="10.3303522"><ele>494.0</ele><time>2026-04-07T11:51:48.922Z</time></trkpt><trkpt lat="44.1728849" lon="10.3304647"><ele>494.0</ele><time>2026-04-07T11:51:51.927Z</time></trkpt><trkpt lat="44.1729095" lon="10.3305761"><ele>494.0</ele><time>2026-04-07T11:51:54.922Z</time></trkpt><trkpt lat="44.172932" lon="10.3306907"><ele>493.99999999999994</ele><time>2026-04-07T11:51:57.923Z</time></trkpt><trkpt lat="44.1729539" lon="10.3308139"><ele>494.0</ele><time>2026-04-07T11:52:00.919Z</time></trkpt><trkpt lat="44.1729693" lon="10.3309371"><ele>492.3333333333333</ele><time>2026-04-07T11:52:03.93Z</time></trkpt><trkpt lat="44.1729882" lon="10.3310569"><ele>490.66666666666663</ele><time>2026-04-07T11:52:06.924Z</time></trkpt><trkpt lat="44.1730112" lon="10.3311831"><ele>489.0</ele><time>2026-04-07T11:52:09.924Z</time></trkpt><trkpt lat="44.1730247" lon="10.3312709"><ele>487.33333333333337</ele><time>2026-04-07T11:52:11.923Z</time></trkpt><trkpt lat="44.1730469" lon="10.3313971"><ele>485.6666666666667</ele><time>2026-04-07T11:52:14.916Z</time></trkpt><trkpt lat="44.1730677" lon="10.331482"><ele>484.0</ele><time>2026-04-07T11:52:16.924Z</time></trkpt><trkpt lat="44.1730833" lon="10.3315691"><ele>483.83333333333337</ele><time>2026-04-07T11:52:18.922Z</time></trkpt><trkpt lat="44.1730997" lon="10.3316562"><ele>483.6666666666667</ele><time>2026-04-07T11:52:20.916Z</time></trkpt><trkpt lat="44.1731163" lon="10.3317424"><ele>483.5</ele><time>2026-04-07T11:52:22.919Z</time></trkpt><trkpt lat="44.1731456" lon="10.3318651"><ele>483.33333333333337</ele><time>2026-04-07T11:52:25.909Z</time></trkpt><trkpt lat="44.1731646" lon="10.33195"><ele>483.1666666666667</ele><time>2026-04-07T11:52:27.916Z</time></trkpt><trkpt lat="44.1731914" lon="10.3320757"><ele>483.0</ele><time>2026-04-07T11:52:30.909Z</time></trkpt><trkpt lat="44.173215" lon="10.3322021"><ele>487.1666666666667</ele><time>2026-04-07T11:52:33.92Z</time></trkpt><trkpt lat="44.1732273" lon="10.3322895"><ele>491.33333333333337</ele><time>2026-04-07T11:52:35.921Z</time></trkpt><trkpt lat="44.1732419" lon="10.3323779"><ele>495.5</ele><time>2026-04-07T11:52:37.924Z</time></trkpt><trkpt lat="44.1732735" lon="10.3325939"><ele>499.6666666666667</ele><time>2026-04-07T11:52:42.919Z</time></trkpt><trkpt lat="44.1732815" lon="10.332686"><ele>503.83333333333337</ele><time>2026-04-07T11:52:44.91Z</time></trkpt><trkpt lat="44.173287" lon="10.332782"><ele>508.0</ele><time>2026-04-07T11:52:46.916Z</time></trkpt><trkpt lat="44.1732973" lon="10.3328709"><ele>508.00000000000006</ele><time>2026-04-07T11:52:48.908Z</time></trkpt><trkpt lat="44.1733107" lon="10.3329972"><ele>508.0</ele><time>2026-04-07T11:52:51.907Z</time></trkpt><trkpt lat="44.1733229" lon="10.3331207"><ele>508.0</ele><time>2026-04-07T11:52:54.92Z</time></trkpt><trkpt lat="44.1733346" lon="10.3332513"><ele>508.0</ele><time>2026-04-07T11:52:57.926Z</time></trkpt><trkpt lat="44.1733458" lon="10.3333457"><ele>508.00000000000006</ele><time>2026-04-07T11:52:59.918Z</time></trkpt><trkpt lat="44.1733556" lon="10.333443"><ele>508.0</ele><time>2026-04-07T11:53:01.921Z</time></trkpt><trkpt lat="44.1733676" lon="10.3335368"><ele>507.42857142857144</ele><time>2026-04-07T11:53:03.925Z</time></trkpt><trkpt lat="44.1733847" lon="10.3336329"><ele>506.85714285714283</ele><time>2026-04-07T11:53:05.919Z</time></trkpt><trkpt lat="44.173409" lon="10.333721"><ele>506.2857142857143</ele><time>2026-04-07T11:53:07.923Z</time></trkpt><trkpt lat="44.1734384" lon="10.3338047"><ele>505.7142857142857</ele><time>2026-04-07T11:53:09.942Z</time></trkpt><trkpt lat="44.1734742" lon="10.3338839"><ele>505.1428571428571</ele><time>2026-04-07T11:53:11.924Z</time></trkpt><trkpt lat="44.1735182" lon="10.3339598"><ele>504.57142857142856</ele><time>2026-04-07T11:53:13.908Z</time></trkpt><trkpt lat="44.1735707" lon="10.3340314"><ele>504.0</ele><time>2026-04-07T11:53:15.907Z</time></trkpt><trkpt lat="44.173626" lon="10.334095"><ele>502.57142857142856</ele><time>2026-04-07T11:53:17.917Z</time></trkpt><trkpt lat="44.1736787" lon="10.3341601"><ele>501.1428571428571</ele><time>2026-04-07T11:53:19.922Z</time></trkpt><trkpt lat="44.1737308" lon="10.3342201"><ele>499.7142857142857</ele><time>2026-04-07T11:53:21.922Z</time></trkpt><trkpt lat="44.1737877" lon="10.3342845"><ele>498.2857142857143</ele><time>2026-04-07T11:53:23.924Z</time></trkpt><trkpt lat="44.1738384" lon="10.3343423"><ele>496.85714285714283</ele><time>2026-04-07T11:53:25.927Z</time></trkpt><trkpt lat="44.1738824" lon="10.3344177"><ele>495.42857142857144</ele><time>2026-04-07T11:53:27.914Z</time></trkpt><trkpt lat="44.1739159" lon="10.3345"><ele>494.0</ele><time>2026-04-07T11:53:29.919Z</time></trkpt><trkpt lat="44.1739411" lon="10.3345904"><ele>494.0</ele><time>2026-04-07T11:53:31.914Z</time></trkpt><trkpt lat="44.1739585" lon="10.3346836"><ele>494.0</ele><time>2026-04-07T11:53:33.922Z</time></trkpt><trkpt lat="44.1739715" lon="10.3347763"><ele>494.0</ele><time>2026-04-07T11:53:35.914Z</time></trkpt><trkpt lat="44.1739837" lon="10.3348744"><ele>494.0</ele><time>2026-04-07T11:53:37.918Z</time></trkpt><trkpt lat="44.1739934" lon="10.3349733"><ele>494.0</ele><time>2026-04-07T11:53:39.937Z</time></trkpt><trkpt lat="44.1740093" lon="10.3350684"><ele>494.0</ele><time>2026-04-07T11:53:41.91Z</time></trkpt><trkpt lat="44.174028" lon="10.3351628"><ele>494.0</ele><time>2026-04-07T11:53:43.92Z</time></trkpt><trkpt lat="44.1740527" lon="10.3352546"><ele>496.28571428571433</ele><time>2026-04-07T11:53:45.921Z</time></trkpt><trkpt lat="44.1740872" lon="10.3353411"><ele>498.57142857142856</ele><time>2026-04-07T11:53:47.919Z</time></trkpt><trkpt lat="44.1741239" lon="10.3354275"><ele>500.8571428571429</ele><time>2026-04-07T11:53:49.918Z</time></trkpt><trkpt lat="44.1741621" lon="10.3355145"><ele>503.14285714285717</ele><time>2026-04-07T11:53:51.922Z</time></trkpt><trkpt lat="44.1741897" lon="10.3356093"><ele>505.42857142857144</ele><time>2026-04-07T11:53:53.914Z</time></trkpt><trkpt lat="44.1742063" lon="10.3357131"><ele>507.7142857142857</ele><time>2026-04-07T11:53:55.91Z</time></trkpt><trkpt lat="44.1742067" lon="10.3358196"><ele>510.0</ele><time>2026-04-07T11:53:57.911Z</time></trkpt><trkpt lat="44.1742007" lon="10.3359229"><ele>510.0</ele><time>2026-04-07T11:53:59.931Z</time></trkpt><trkpt lat="44.17418" lon="10.3360279"><ele>510.0</ele><time>2026-04-07T11:54:01.915Z</time></trkpt><trkpt lat="44.1741466" lon="10.3361264"><ele>510.0</ele><time>2026-04-07T11:54:03.915Z</time></trkpt><trkpt lat="44.1740994" lon="10.3362162"><ele>510.0</ele><time>2026-04-07T11:54:05.921Z</time></trkpt><trkpt lat="44.1740411" lon="10.336291"><ele>510.0</ele><time>2026-04-07T11:54:07.923Z</time></trkpt><trkpt lat="44.1739742" lon="10.3363485"><ele>510.0</ele><time>2026-04-07T11:54:09.923Z</time></trkpt><trkpt lat="44.1739019" lon="10.3363909"><ele>508.5</ele><time>2026-04-07T11:54:11.926Z</time></trkpt><trkpt lat="44.1738289" lon="10.3364311"><ele>507.0</ele><time>2026-04-07T11:54:13.91Z</time></trkpt><trkpt lat="44.173762" lon="10.3364782"><ele>505.5</ele><time>2026-04-07T11:54:15.911Z</time></trkpt><trkpt lat="44.1737011" lon="10.3365273"><ele>504.0</ele><time>2026-04-07T11:54:17.907Z</time></trkpt><trkpt lat="44.1736469" lon="10.3365754"><ele>502.5</ele><time>2026-04-07T11:54:19.911Z</time></trkpt><trkpt lat="44.1735665" lon="10.3366486"><ele>501.0</ele><time>2026-04-07T11:54:22.907Z</time></trkpt><trkpt lat="44.1735091" lon="10.3367053"><ele>501.0</ele><time>2026-04-07T11:54:24.914Z</time></trkpt><trkpt lat="44.1734514" lon="10.3367673"><ele>501.0</ele><time>2026-04-07T11:54:26.913Z</time></trkpt><trkpt lat="44.1733926" lon="10.3368312"><ele>501.0</ele><time>2026-04-07T11:54:28.913Z</time></trkpt><trkpt lat="44.1733344" lon="10.336897"><ele>501.0</ele><time>2026-04-07T11:54:30.919Z</time></trkpt><trkpt lat="44.1732763" lon="10.336963"><ele>501.0</ele><time>2026-04-07T11:54:32.917Z</time></trkpt><trkpt lat="44.1732114" lon="10.3370188"><ele>501.0</ele><time>2026-04-07T11:54:34.916Z</time></trkpt><trkpt lat="44.1731463" lon="10.3370692"><ele>501.0</ele><time>2026-04-07T11:54:36.921Z</time></trkpt><trkpt lat="44.1730765" lon="10.3371097"><ele>501.8571428571429</ele><time>2026-04-07T11:54:38.925Z</time></trkpt><trkpt lat="44.1730055" lon="10.3371425"><ele>502.71428571428567</ele><time>2026-04-07T11:54:40.92Z</time></trkpt><trkpt lat="44.1729341" lon="10.3371777"><ele>503.57142857142856</ele><time>2026-04-07T11:54:42.92Z</time></trkpt><trkpt lat="44.1728624" lon="10.3372074"><ele>504.42857142857144</ele><time>2026-04-07T11:54:44.915Z</time></trkpt><trkpt lat="44.1727914" lon="10.3372394"><ele>505.28571428571433</ele><time>2026-04-07T11:54:46.924Z</time></trkpt><trkpt lat="44.1727225" lon="10.3372731"><ele>506.1428571428571</ele><time>2026-04-07T11:54:48.915Z</time></trkpt><trkpt lat="44.1726509" lon="10.3373079"><ele>507.0</ele><time>2026-04-07T11:54:50.911Z</time></trkpt><trkpt lat="44.1725763" lon="10.3373383"><ele>507.0</ele><time>2026-04-07T11:54:52.916Z</time></trkpt><trkpt lat="44.1725025" lon="10.3373672"><ele>507.0</ele><time>2026-04-07T11:54:54.913Z</time></trkpt><trkpt lat="44.1724311" lon="10.337398"><ele>507.0</ele><time>2026-04-07T11:54:56.94Z</time></trkpt><trkpt lat="44.1723652" lon="10.3374262"><ele>507.0</ele><time>2026-04-07T11:54:58.918Z</time></trkpt><trkpt lat="44.1723039" lon="10.3374515"><ele>507.0</ele><time>2026-04-07T11:55:00.917Z</time></trkpt><trkpt lat="44.1722252" lon="10.3374814"><ele>507.0</ele><time>2026-04-07T11:55:02.92Z</time></trkpt><trkpt lat="44.1721537" lon="10.3375074"><ele>507.0</ele><time>2026-04-07T11:55:04.917Z</time></trkpt><trkpt lat="44.1720744" lon="10.3375358"><ele>505.5</ele><time>2026-04-07T11:55:06.913Z</time></trkpt><trkpt lat="44.1719923" lon="10.3375579"><ele>504.0</ele><time>2026-04-07T11:55:08.913Z</time></trkpt><trkpt lat="44.1719145" lon="10.3375785"><ele>502.5</ele><time>2026-04-07T11:55:10.918Z</time></trkpt><trkpt lat="44.1718388" lon="10.3376052"><ele>501.0</ele><time>2026-04-07T11:55:12.923Z</time></trkpt><trkpt lat="44.1717618" lon="10.3376361"><ele>499.5</ele><time>2026-04-07T11:55:14.92Z</time></trkpt><trkpt lat="44.1716907" lon="10.3376763"><ele>498.0</ele><time>2026-04-07T11:55:16.916Z</time></trkpt><trkpt lat="44.1716192" lon="10.3377214"><ele>498.0</ele><time>2026-04-07T11:55:18.922Z</time></trkpt><trkpt lat="44.1715522" lon="10.3377737"><ele>498.0</ele><time>2026-04-07T11:55:20.918Z</time></trkpt><trkpt lat="44.1714937" lon="10.3378461"><ele>498.0</ele><time>2026-04-07T11:55:22.918Z</time></trkpt><trkpt lat="44.1714433" lon="10.3379351"><ele>498.0</ele><time>2026-04-07T11:55:24.926Z</time></trkpt><trkpt lat="44.1714245" lon="10.3380421"><ele>498.0</ele><time>2026-04-07T11:55:26.916Z</time></trkpt><trkpt lat="44.1714341" lon="10.3381523"><ele>498.0</ele><time>2026-04-07T11:55:28.921Z</time></trkpt><trkpt lat="44.1714601" lon="10.3382556"><ele>497.1666666666667</ele><time>2026-04-07T11:55:30.917Z</time></trkpt><trkpt lat="44.1714968" lon="10.3383546"><ele>496.33333333333337</ele><time>2026-04-07T11:55:32.925Z</time></trkpt><trkpt lat="44.1715373" lon="10.3384482"><ele>495.5</ele><time>2026-04-07T11:55:34.918Z</time></trkpt><trkpt lat="44.1715766" lon="10.3385404"><ele>494.6666666666667</ele><time>2026-04-07T11:55:36.91Z</time></trkpt><trkpt lat="44.1716158" lon="10.3386281"><ele>493.83333333333337</ele><time>2026-04-07T11:55:38.912Z</time></trkpt><trkpt lat="44.1716512" lon="10.3387206"><ele>493.0</ele><time>2026-04-07T11:55:40.918Z</time></trkpt><trkpt lat="44.1716914" lon="10.3388135"><ele>496.33333333333337</ele><time>2026-04-07T11:55:42.925Z</time></trkpt><trkpt lat="44.1717292" lon="10.3389061"><ele>499.6666666666667</ele><time>2026-04-07T11:55:44.919Z</time></trkpt><trkpt lat="44.1717667" lon="10.3389984"><ele>503.0</ele><time>2026-04-07T11:55:46.923Z</time></trkpt><trkpt lat="44.1717964" lon="10.3390938"><ele>506.33333333333337</ele><time>2026-04-07T11:55:48.911Z</time></trkpt><trkpt lat="44.1718061" lon="10.3391993"><ele>509.6666666666667</ele><time>2026-04-07T11:55:50.921Z</time></trkpt><trkpt lat="44.1718004" lon="10.339306"><ele>513.0</ele><time>2026-04-07T11:55:52.917Z</time></trkpt><trkpt lat="44.1717744" lon="10.3394081"><ele>513.0</ele><time>2026-04-07T11:55:54.914Z</time></trkpt><trkpt lat="44.1717376" lon="10.3395003"><ele>513.0</ele><time>2026-04-07T11:55:56.91Z</time></trkpt><trkpt lat="44.1717007" lon="10.3395955"><ele>513.0</ele><time>2026-04-07T11:55:58.923Z</time></trkpt><trkpt lat="44.1716701" lon="10.3396954"><ele>513.0</ele><time>2026-04-07T11:56:00.921Z</time></trkpt><trkpt lat="44.1716406" lon="10.3398007"><ele>513.0</ele><time>2026-04-07T11:56:02.933Z</time></trkpt><trkpt lat="44.1716187" lon="10.339907"><ele>513.0</ele><time>2026-04-07T11:56:04.92Z</time></trkpt><trkpt lat="44.1716068" lon="10.3400083"><ele>514.0000000000001</ele><time>2026-04-07T11:56:06.91Z</time></trkpt><trkpt lat="44.1716021" lon="10.3401103"><ele>515.0</ele><time>2026-04-07T11:56:08.919Z</time></trkpt><trkpt lat="44.1716015" lon="10.3402115"><ele>516.0</ele><time>2026-04-07T11:56:10.907Z</time></trkpt><trkpt lat="44.1716042" lon="10.340318"><ele>517.0</ele><time>2026-04-07T11:56:12.917Z</time></trkpt><trkpt lat="44.1716096" lon="10.3404132"><ele>518.0</ele><time>2026-04-07T11:56:14.924Z</time></trkpt><trkpt lat="44.1716073" lon="10.3405147"><ele>519.0000000000001</ele><time>2026-04-07T11:56:16.916Z</time></trkpt><trkpt lat="44.1716226" lon="10.3406243"><ele>520.0</ele><time>2026-04-07T11:56:18.918Z</time></trkpt><trkpt lat="44.1716425" lon="10.340715"><ele>520.4285714285714</ele><time>2026-04-07T11:56:20.922Z</time></trkpt><trkpt lat="44.171675" lon="10.3407999"><ele>520.8571428571429</ele><time>2026-04-07T11:56:22.919Z</time></trkpt><trkpt lat="44.1717125" lon="10.3408808"><ele>521.2857142857142</ele><time>2026-04-07T11:56:24.92Z</time></trkpt><trkpt lat="44.1717543" lon="10.3409701"><ele>521.7142857142858</ele><time>2026-04-07T11:56:26.907Z</time></trkpt><trkpt lat="44.171794" lon="10.3410614"><ele>522.1428571428571</ele><time>2026-04-07T11:56:28.928Z</time></trkpt><trkpt lat="44.1718298" lon="10.3411548"><ele>522.5714285714286</ele><time>2026-04-07T11:56:30.927Z</time></trkpt><trkpt lat="44.1718602" lon="10.3412498"><ele>523.0</ele><time>2026-04-07T11:56:32.921Z</time></trkpt><trkpt lat="44.1718802" lon="10.3413496"><ele>522.3333333333334</ele><time>2026-04-07T11:56:34.917Z</time></trkpt><trkpt lat="44.1718875" lon="10.3414502"><ele>521.6666666666667</ele><time>2026-04-07T11:56:36.919Z</time></trkpt><trkpt lat="44.1718858" lon="10.341585"><ele>521.0</ele><time>2026-04-07T11:56:39.921Z</time></trkpt><trkpt lat="44.1718838" lon="10.3416857"><ele>520.3333333333334</ele><time>2026-04-07T11:56:41.91Z</time></trkpt><trkpt lat="44.171877" lon="10.3417816"><ele>519.6666666666666</ele><time>2026-04-07T11:56:43.922Z</time></trkpt><trkpt lat="44.1718602" lon="10.3418752"><ele>519.0</ele><time>2026-04-07T11:56:45.933Z</time></trkpt><trkpt lat="44.1718327" lon="10.3419779"><ele>519.0</ele><time>2026-04-07T11:56:47.918Z</time></trkpt><trkpt lat="44.1717977" lon="10.3420723"><ele>519.0</ele><time>2026-04-07T11:56:49.917Z</time></trkpt><trkpt lat="44.1717622" lon="10.3421644"><ele>519.0</ele><time>2026-04-07T11:56:51.92Z</time></trkpt><trkpt lat="44.1717204" lon="10.3422607"><ele>519.0</ele><time>2026-04-07T11:56:53.92Z</time></trkpt><trkpt lat="44.1716748" lon="10.3423543"><ele>519.0</ele><time>2026-04-07T11:56:55.925Z</time></trkpt><trkpt lat="44.1716311" lon="10.3424383"><ele>519.0</ele><time>2026-04-07T11:56:57.926Z</time></trkpt><trkpt lat="44.1715881" lon="10.3425262"><ele>519.5</ele><time>2026-04-07T11:56:59.924Z</time></trkpt><trkpt lat="44.1715465" lon="10.3426187"><ele>520.0</ele><time>2026-04-07T11:57:01.92Z</time></trkpt><trkpt lat="44.1715036" lon="10.3426996"><ele>520.5</ele><time>2026-04-07T11:57:03.917Z</time></trkpt><trkpt lat="44.1714492" lon="10.3428054"><ele>521.0</ele><time>2026-04-07T11:57:06.913Z</time></trkpt><trkpt lat="44.1714029" lon="10.3428889"><ele>521.5</ele><time>2026-04-07T11:57:08.912Z</time></trkpt><trkpt lat="44.171369" lon="10.3429679"><ele>522.0</ele><time>2026-04-07T11:57:10.918Z</time></trkpt><trkpt lat="44.1713318" lon="10.3430409"><ele>521.2857142857143</ele><time>2026-04-07T11:57:12.925Z</time></trkpt><trkpt lat="44.1712917" lon="10.343116"><ele>520.5714285714286</ele><time>2026-04-07T11:57:14.906Z</time></trkpt><trkpt lat="44.1712481" lon="10.3431939"><ele>519.8571428571429</ele><time>2026-04-07T11:57:16.911Z</time></trkpt><trkpt lat="44.1712039" lon="10.34328"><ele>519.1428571428571</ele><time>2026-04-07T11:57:18.911Z</time></trkpt><trkpt lat="44.17116" lon="10.3433666"><ele>518.4285714285714</ele><time>2026-04-07T11:57:20.915Z</time></trkpt><trkpt lat="44.1711158" lon="10.3434446"><ele>517.7142857142858</ele><time>2026-04-07T11:57:22.918Z</time></trkpt><trkpt lat="44.1710598" lon="10.3435087"><ele>517.0</ele><time>2026-04-07T11:57:24.921Z</time></trkpt><trkpt lat="44.171001" lon="10.3435773"><ele>517.0</ele><time>2026-04-07T11:57:26.908Z</time></trkpt><trkpt lat="44.1709431" lon="10.3436405"><ele>517.0</ele><time>2026-04-07T11:57:28.919Z</time></trkpt><trkpt lat="44.1708797" lon="10.3436986"><ele>517.0</ele><time>2026-04-07T11:57:30.909Z</time></trkpt><trkpt lat="44.1708165" lon="10.3437564"><ele>517.0</ele><time>2026-04-07T11:57:32.917Z</time></trkpt><trkpt lat="44.1707602" lon="10.3438247"><ele>517.0</ele><time>2026-04-07T11:57:34.916Z</time></trkpt><trkpt lat="44.1707068" lon="10.343897"><ele>517.0</ele><time>2026-04-07T11:57:36.908Z</time></trkpt><trkpt lat="44.1706634" lon="10.3439821"><ele>517.0</ele><time>2026-04-07T11:57:38.917Z</time></trkpt><trkpt lat="44.1706341" lon="10.3440728"><ele>516.7142857142858</ele><time>2026-04-07T11:57:40.919Z</time></trkpt><trkpt lat="44.1706097" lon="10.3441692"><ele>516.4285714285714</ele><time>2026-04-07T11:57:42.913Z</time></trkpt><trkpt lat="44.1705913" lon="10.3442679"><ele>516.1428571428571</ele><time>2026-04-07T11:57:44.926Z</time></trkpt><trkpt lat="44.1705776" lon="10.3443579"><ele>515.8571428571429</ele><time>2026-04-07T11:57:46.908Z</time></trkpt><trkpt lat="44.1705709" lon="10.3444477"><ele>515.5714285714286</ele><time>2026-04-07T11:57:48.917Z</time></trkpt><trkpt lat="44.1705638" lon="10.344553"><ele>515.2857142857143</ele><time>2026-04-07T11:57:50.917Z</time></trkpt><trkpt lat="44.1705579" lon="10.3446598"><ele>515.0</ele><time>2026-04-07T11:57:52.921Z</time></trkpt><trkpt lat="44.1705509" lon="10.3447673"><ele>517.1666666666666</ele><time>2026-04-07T11:57:54.922Z</time></trkpt><trkpt lat="44.1705407" lon="10.3448722"><ele>519.3333333333333</ele><time>2026-04-07T11:57:56.921Z</time></trkpt><trkpt lat="44.1705329" lon="10.3449776"><ele>521.5</ele><time>2026-04-07T11:57:58.921Z</time></trkpt><trkpt lat="44.1705232" lon="10.3450842"><ele>523.6666666666666</ele><time>2026-04-07T11:58:00.907Z</time></trkpt><trkpt lat="44.1705111" lon="10.3451919"><ele>525.8333333333334</ele><time>2026-04-07T11:58:02.911Z</time></trkpt><trkpt lat="44.1704992" lon="10.3452965"><ele>528.0</ele><time>2026-04-07T11:58:04.916Z</time></trkpt><trkpt lat="44.1704915" lon="10.3453957"><ele>528.0</ele><time>2026-04-07T11:58:06.915Z</time></trkpt><trkpt lat="44.1704738" lon="10.345492"><ele>528.0</ele><time>2026-04-07T11:58:08.924Z</time></trkpt><trkpt lat="44.1704412" lon="10.3455823"><ele>528.0</ele><time>2026-04-07T11:58:10.932Z</time></trkpt><trkpt lat="44.1703979" lon="10.3456634"><ele>528.0</ele><time>2026-04-07T11:58:12.926Z</time></trkpt><trkpt lat="44.1703462" lon="10.3457391"><ele>528.0</ele><time>2026-04-07T11:58:14.911Z</time></trkpt><trkpt lat="44.170283" lon="10.3457998"><ele>528.0</ele><time>2026-04-07T11:58:16.913Z</time></trkpt><trkpt lat="44.1702141" lon="10.345858"><ele>528.0</ele><time>2026-04-07T11:58:18.909Z</time></trkpt><trkpt lat="44.1701403" lon="10.3458932"><ele>529.6666666666666</ele><time>2026-04-07T11:58:20.914Z</time></trkpt><trkpt lat="44.1700651" lon="10.3459236"><ele>531.3333333333334</ele><time>2026-04-07T11:58:22.91Z</time></trkpt><trkpt lat="44.169988" lon="10.3459365"><ele>533.0</ele><time>2026-04-07T11:58:24.91Z</time></trkpt><trkpt lat="44.1699146" lon="10.3459286"><ele>534.6666666666667</ele><time>2026-04-07T11:58:26.909Z</time></trkpt><trkpt lat="44.1698435" lon="10.3459041"><ele>536.3333333333334</ele><time>2026-04-07T11:58:28.906Z</time></trkpt><trkpt lat="44.1697755" lon="10.3458615"><ele>538.0</ele><time>2026-04-07T11:58:30.907Z</time></trkpt><trkpt lat="44.1697068" lon="10.3458159"><ele>538.4285714285714</ele><time>2026-04-07T11:58:32.905Z</time></trkpt><trkpt lat="44.1696372" lon="10.3457716"><ele>538.8571428571429</ele><time>2026-04-07T11:58:34.908Z</time></trkpt><trkpt lat="44.1695673" lon="10.3457359"><ele>539.2857142857143</ele><time>2026-04-07T11:58:36.92Z</time></trkpt><trkpt lat="44.1695007" lon="10.3456962"><ele>539.7142857142858</ele><time>2026-04-07T11:58:38.911Z</time></trkpt><trkpt lat="44.1694349" lon="10.3456496"><ele>540.1428571428571</ele><time>2026-04-07T11:58:40.91Z</time></trkpt><trkpt lat="44.1693686" lon="10.3456067"><ele>540.5714285714287</ele><time>2026-04-07T11:58:42.913Z</time></trkpt><trkpt lat="44.1693032" lon="10.3455645"><ele>541.0</ele><time>2026-04-07T11:58:44.913Z</time></trkpt><trkpt lat="44.1692327" lon="10.3455384"><ele>538.8333333333334</ele><time>2026-04-07T11:58:46.912Z</time></trkpt><trkpt lat="44.1691628" lon="10.3455269"><ele>536.6666666666667</ele><time>2026-04-07T11:58:48.918Z</time></trkpt><trkpt lat="44.169098" lon="10.3455256"><ele>534.5</ele><time>2026-04-07T11:58:50.911Z</time></trkpt><trkpt lat="44.1690111" lon="10.3455348"><ele>532.3333333333334</ele><time>2026-04-07T11:58:53.919Z</time></trkpt><trkpt lat="44.1689302" lon="10.3455645"><ele>530.1666666666666</ele><time>2026-04-07T11:58:56.918Z</time></trkpt><trkpt lat="44.168864" lon="10.3456252"><ele>528.0</ele><time>2026-04-07T11:58:59.93Z</time></trkpt><trkpt lat="44.1688015" lon="10.3457237"><ele>528.0</ele><time>2026-04-07T11:59:02.935Z</time></trkpt><trkpt lat="44.1687646" lon="10.3458207"><ele>528.0</ele><time>2026-04-07T11:59:04.922Z</time></trkpt><trkpt lat="44.1687498" lon="10.3459529"><ele>528.0</ele><time>2026-04-07T11:59:06.922Z</time></trkpt><trkpt lat="44.1687769" lon="10.3461098"><ele>528.0</ele><time>2026-04-07T11:59:08.925Z</time></trkpt><trkpt lat="44.1688194" lon="10.3462696"><ele>528.0</ele><time>2026-04-07T11:59:10.92Z</time></trkpt><trkpt lat="44.1688373" lon="10.3463576"><ele>527.8571428571429</ele><time>2026-04-07T11:59:11.92Z</time></trkpt><trkpt lat="44.1688477" lon="10.3464511"><ele>527.7142857142858</ele><time>2026-04-07T11:59:12.921Z</time></trkpt><trkpt lat="44.1688399" lon="10.3465464"><ele>527.5714285714287</ele><time>2026-04-07T11:59:13.921Z</time></trkpt><trkpt lat="44.1688192" lon="10.346644"><ele>527.4285714285714</ele><time>2026-04-07T11:59:14.906Z</time></trkpt><trkpt lat="44.1687817" lon="10.3467315"><ele>527.2857142857143</ele><time>2026-04-07T11:59:15.917Z</time></trkpt><trkpt lat="44.1687311" lon="10.3468117"><ele>527.1428571428572</ele><time>2026-04-07T11:59:16.919Z</time></trkpt><trkpt lat="44.1686786" lon="10.3468926"><ele>527.0</ele><time>2026-04-07T11:59:17.923Z</time></trkpt><trkpt lat="44.1686231" lon="10.3469761"><ele>527.0</ele><time>2026-04-07T11:59:18.916Z</time></trkpt><trkpt lat="44.1685688" lon="10.347064"><ele>527.0</ele><time>2026-04-07T11:59:19.922Z</time></trkpt><trkpt lat="44.1685119" lon="10.3471618"><ele>527.0</ele><time>2026-04-07T11:59:20.921Z</time></trkpt><trkpt lat="44.1684601" lon="10.3472523"><ele>527.0</ele><time>2026-04-07T11:59:21.92Z</time></trkpt><trkpt lat="44.1684051" lon="10.3473434"><ele>527.0</ele><time>2026-04-07T11:59:22.92Z</time></trkpt><trkpt lat="44.1683891" lon="10.3474288"><ele>527.0</ele><time>2026-04-07T11:59:23.918Z</time></trkpt><trkpt lat="44.1683981" lon="10.3475297"><ele>527.0</ele><time>2026-04-07T11:59:24.923Z</time></trkpt><trkpt lat="44.16843" lon="10.3476121"><ele>527.0</ele><time>2026-04-07T11:59:25.91Z</time></trkpt><trkpt lat="44.168473" lon="10.3476839"><ele>527.0</ele><time>2026-04-07T11:59:26.918Z</time></trkpt><trkpt lat="44.1685528" lon="10.3477126"><ele>527.0</ele><time>2026-04-07T11:59:27.92Z</time></trkpt><trkpt lat="44.1686332" lon="10.3477187"><ele>527.0</ele><time>2026-04-07T11:59:28.913Z</time></trkpt><trkpt lat="44.168716" lon="10.347723"><ele>527.0</ele><time>2026-04-07T11:59:29.922Z</time></trkpt><trkpt lat="44.1688022" lon="10.3477443"><ele>527.0</ele><time>2026-04-07T11:59:30.921Z</time></trkpt><trkpt lat="44.1688866" lon="10.3478076"><ele>527.0</ele><time>2026-04-07T11:59:31.92Z</time></trkpt><trkpt lat="44.1689557" lon="10.3478868"><ele>527.0</ele><time>2026-04-07T11:59:32.933Z</time></trkpt><trkpt lat="44.1689946" lon="10.3479935"><ele>527.0</ele><time>2026-04-07T11:59:33.917Z</time></trkpt><trkpt lat="44.1690028" lon="10.3481061"><ele>527.0</ele><time>2026-04-07T11:59:34.917Z</time></trkpt><trkpt lat="44.1689833" lon="10.3482211"><ele>527.0</ele><time>2026-04-07T11:59:35.918Z</time></trkpt><trkpt lat="44.1689433" lon="10.3483247"><ele>524.0</ele><time>2026-04-07T11:59:36.915Z</time></trkpt><trkpt lat="44.1689035" lon="10.3484336"><ele>521.0</ele><time>2026-04-07T11:59:37.921Z</time></trkpt><trkpt lat="44.1688677" lon="10.3485528"><ele>518.0</ele><time>2026-04-07T11:59:38.933Z</time></trkpt><trkpt lat="44.168832" lon="10.3486758"><ele>515.0</ele><time>2026-04-07T11:59:39.926Z</time></trkpt><trkpt lat="44.1687941" lon="10.3488038"><ele>512.0</ele><time>2026-04-07T11:59:40.929Z</time></trkpt><trkpt lat="44.1687527" lon="10.3489332"><ele>511.40000000000003</ele><time>2026-04-07T11:59:41.917Z</time></trkpt><trkpt lat="44.168709" lon="10.3490648"><ele>510.80000000000007</ele><time>2026-04-07T11:59:42.926Z</time></trkpt><trkpt lat="44.1686654" lon="10.3492016"><ele>510.2</ele><time>2026-04-07T11:59:43.921Z</time></trkpt><trkpt lat="44.1686208" lon="10.3493423"><ele>509.6</ele><time>2026-04-07T11:59:44.931Z</time></trkpt><trkpt lat="44.1685783" lon="10.3494815"><ele>509.0</ele><time>2026-04-07T11:59:45.923Z</time></trkpt><trkpt lat="44.1685345" lon="10.3496272"><ele>508.79999999999995</ele><time>2026-04-07T11:59:46.925Z</time></trkpt><trkpt lat="44.1684953" lon="10.3497738"><ele>508.59999999999997</ele><time>2026-04-07T11:59:47.922Z</time></trkpt><trkpt lat="44.1684724" lon="10.3499164"><ele>508.4</ele><time>2026-04-07T11:59:48.923Z</time></trkpt><trkpt lat="44.1684745" lon="10.3500588"><ele>508.2</ele><time>2026-04-07T11:59:49.916Z</time></trkpt><trkpt lat="44.168496" lon="10.3502031"><ele>508.0</ele><time>2026-04-07T11:59:50.923Z</time></trkpt><trkpt lat="44.1685382" lon="10.350337"><ele>508.0</ele><time>2026-04-07T11:59:51.914Z</time></trkpt><trkpt lat="44.1685976" lon="10.3504615"><ele>507.99999999999994</ele><time>2026-04-07T11:59:52.915Z</time></trkpt><trkpt lat="44.1686505" lon="10.350597"><ele>507.99999999999994</ele><time>2026-04-07T11:59:53.922Z</time></trkpt><trkpt lat="44.1686784" lon="10.3507494"><ele>508.0</ele><time>2026-04-07T11:59:54.919Z</time></trkpt><trkpt lat="44.168687" lon="10.3509071"><ele>508.0</ele><time>2026-04-07T11:59:55.915Z</time></trkpt><trkpt lat="44.1686745" lon="10.351057"><ele>506.59999999999997</ele><time>2026-04-07T11:59:56.921Z</time></trkpt><trkpt lat="44.1686504" lon="10.3511998"><ele>505.19999999999993</ele><time>2026-04-07T11:59:57.937Z</time></trkpt><trkpt lat="44.1686301" lon="10.3513406"><ele>503.8</ele><time>2026-04-07T11:59:58.92Z</time></trkpt><trkpt lat="44.1685999" lon="10.3514747"><ele>502.4</ele><time>2026-04-07T11:59:59.917Z</time></trkpt><trkpt lat="44.1685484" lon="10.3515864"><ele>501.0</ele><time>2026-04-07T12:00:00.914Z</time></trkpt><trkpt lat="44.1684784" lon="10.3516693"><ele>503.0</ele><time>2026-04-07T12:00:01.919Z</time></trkpt><trkpt lat="44.1683965" lon="10.3517313"><ele>505.0</ele><time>2026-04-07T12:00:02.923Z</time></trkpt><trkpt lat="44.1683019" lon="10.3517416"><ele>507.0</ele><time>2026-04-07T12:00:03.92Z</time></trkpt><trkpt lat="44.1682126" lon="10.351725"><ele>509.0</ele><time>2026-04-07T12:00:04.924Z</time></trkpt><trkpt lat="44.1681295" lon="10.3516903"><ele>511.0</ele><time>2026-04-07T12:00:05.927Z</time></trkpt><trkpt lat="44.1680449" lon="10.3516519"><ele>511.00000000000006</ele><time>2026-04-07T12:00:06.922Z</time></trkpt><trkpt lat="44.167963" lon="10.3516183"><ele>511.0</ele><time>2026-04-07T12:00:07.922Z</time></trkpt><trkpt lat="44.1678741" lon="10.3515905"><ele>511.0</ele><time>2026-04-07T12:00:08.92Z</time></trkpt><trkpt lat="44.1677849" lon="10.3515841"><ele>511.0</ele><time>2026-04-07T12:00:09.918Z</time></trkpt><trkpt lat="44.1676979" lon="10.3515816"><ele>511.00000000000006</ele><time>2026-04-07T12:00:10.916Z</time></trkpt><trkpt lat="44.1676109" lon="10.3515825"><ele>511.0</ele><time>2026-04-07T12:00:11.921Z</time></trkpt><trkpt lat="44.1675252" lon="10.3515853"><ele>511.00000000000006</ele><time>2026-04-07T12:00:12.917Z</time></trkpt><trkpt lat="44.1674412" lon="10.3516165"><ele>511.0</ele><time>2026-04-07T12:00:13.927Z</time></trkpt><trkpt lat="44.167364" lon="10.3516622"><ele>511.0</ele><time>2026-04-07T12:00:14.92Z</time></trkpt><trkpt lat="44.167295" lon="10.3517201"><ele>511.0</ele><time>2026-04-07T12:00:15.911Z</time></trkpt><trkpt lat="44.1672309" lon="10.3517917"><ele>511.00000000000006</ele><time>2026-04-07T12:00:16.934Z</time></trkpt><trkpt lat="44.1671716" lon="10.3518674"><ele>511.0</ele><time>2026-04-07T12:00:17.917Z</time></trkpt><trkpt lat="44.1671107" lon="10.3519456"><ele>511.00000000000006</ele><time>2026-04-07T12:00:18.923Z</time></trkpt><trkpt lat="44.1670506" lon="10.3520189"><ele>511.0</ele><time>2026-04-07T12:00:19.914Z</time></trkpt><trkpt lat="44.1669906" lon="10.3520954"><ele>511.0</ele><time>2026-04-07T12:00:20.917Z</time></trkpt><trkpt lat="44.1669335" lon="10.3521668"><ele>511.0</ele><time>2026-04-07T12:00:21.915Z</time></trkpt><trkpt lat="44.1668782" lon="10.3522375"><ele>511.00000000000006</ele><time>2026-04-07T12:00:22.925Z</time></trkpt><trkpt lat="44.1668183" lon="10.3523011"><ele>511.0</ele><time>2026-04-07T12:00:23.92Z</time></trkpt><trkpt lat="44.1667566" lon="10.3523554"><ele>511.0</ele><time>2026-04-07T12:00:24.91Z</time></trkpt><trkpt lat="44.1666892" lon="10.3523969"><ele>511.0</ele><time>2026-04-07T12:00:25.922Z</time></trkpt><trkpt lat="44.1666255" lon="10.352439"><ele>511.0</ele><time>2026-04-07T12:00:26.92Z</time></trkpt><trkpt lat="44.1665578" lon="10.3524628"><ele>511.0</ele><time>2026-04-07T12:00:27.929Z</time></trkpt><trkpt lat="44.1664899" lon="10.3524903"><ele>511.0</ele><time>2026-04-07T12:00:28.927Z</time></trkpt><trkpt lat="44.1664241" lon="10.3525157"><ele>511.0</ele><time>2026-04-07T12:00:29.925Z</time></trkpt><trkpt lat="44.1663575" lon="10.3525368"><ele>511.0</ele><time>2026-04-07T12:00:30.921Z</time></trkpt><trkpt lat="44.1662886" lon="10.352558"><ele>507.0</ele><time>2026-04-07T12:00:31.917Z</time></trkpt><trkpt lat="44.1661691" lon="10.3526107"><ele>503.0</ele><time>2026-04-07T12:00:33.923Z</time></trkpt><trkpt lat="44.1660504" lon="10.3526593"><ele>499.0</ele><time>2026-04-07T12:00:35.92Z</time></trkpt><trkpt lat="44.1659371" lon="10.3526993"><ele>495.0</ele><time>2026-04-07T12:00:37.913Z</time></trkpt><trkpt lat="44.1658338" lon="10.3527343"><ele>495.0</ele><time>2026-04-07T12:00:39.921Z</time></trkpt><trkpt lat="44.165733" lon="10.3527795"><ele>495.0</ele><time>2026-04-07T12:00:41.924Z</time></trkpt><trkpt lat="44.1656384" lon="10.3528199"><ele>495.0</ele><time>2026-04-07T12:00:43.921Z</time></trkpt><trkpt lat="44.1655509" lon="10.3528604"><ele>495.0</ele><time>2026-04-07T12:00:45.934Z</time></trkpt><trkpt lat="44.1654632" lon="10.3528954"><ele>495.0</ele><time>2026-04-07T12:00:47.925Z</time></trkpt><trkpt lat="44.165377" lon="10.352926"><ele>494.0</ele><time>2026-04-07T12:00:49.922Z</time></trkpt><trkpt lat="44.1652966" lon="10.352956"><ele>493.0</ele><time>2026-04-07T12:00:51.918Z</time></trkpt><trkpt lat="44.1652142" lon="10.3529849"><ele>492.0</ele><time>2026-04-07T12:00:53.921Z</time></trkpt><trkpt lat="44.1651371" lon="10.3530136"><ele>491.0</ele><time>2026-04-07T12:00:55.909Z</time></trkpt><trkpt lat="44.1650707" lon="10.3530449"><ele>490.0</ele><time>2026-04-07T12:00:57.915Z</time></trkpt><trkpt lat="44.1650053" lon="10.3530909"><ele>489.0</ele><time>2026-04-07T12:00:59.922Z</time></trkpt><trkpt lat="44.1649415" lon="10.3531453"><ele>488.42857142857144</ele><time>2026-04-07T12:01:01.914Z</time></trkpt><trkpt lat="44.164887" lon="10.3532019"><ele>487.8571428571429</ele><time>2026-04-07T12:01:03.916Z</time></trkpt><trkpt lat="44.1648363" lon="10.3532574"><ele>487.28571428571433</ele><time>2026-04-07T12:01:05.92Z</time></trkpt><trkpt lat="44.1647894" lon="10.3533204"><ele>486.7142857142858</ele><time>2026-04-07T12:01:07.922Z</time></trkpt><trkpt lat="44.1647438" lon="10.353381"><ele>486.14285714285717</ele><time>2026-04-07T12:01:09.922Z</time></trkpt><trkpt lat="44.1646988" lon="10.3534441"><ele>485.57142857142867</ele><time>2026-04-07T12:01:11.914Z</time></trkpt><trkpt lat="44.164653" lon="10.3535125"><ele>485.00000000000006</ele><time>2026-04-07T12:01:13.916Z</time></trkpt><trkpt lat="44.1646067" lon="10.3535868"><ele>484.99999999999994</ele><time>2026-04-07T12:01:15.913Z</time></trkpt><trkpt lat="44.1645568" lon="10.3536616"><ele>485.0</ele><time>2026-04-07T12:01:17.922Z</time></trkpt><trkpt lat="44.1645042" lon="10.3537356"><ele>485.0</ele><time>2026-04-07T12:01:19.922Z</time></trkpt><trkpt lat="44.1644547" lon="10.3538162"><ele>485.0</ele><time>2026-04-07T12:01:21.914Z</time></trkpt><trkpt lat="44.1644038" lon="10.3538971"><ele>484.99999999999994</ele><time>2026-04-07T12:01:23.917Z</time></trkpt><trkpt lat="44.1643564" lon="10.3539667"><ele>485.0</ele><time>2026-04-07T12:01:25.928Z</time></trkpt><trkpt lat="44.1642983" lon="10.3540486"><ele>486.8333333333333</ele><time>2026-04-07T12:01:27.926Z</time></trkpt><trkpt lat="44.1642322" lon="10.3541246"><ele>488.66666666666663</ele><time>2026-04-07T12:01:29.92Z</time></trkpt><trkpt lat="44.1641619" lon="10.3541946"><ele>490.5</ele><time>2026-04-07T12:01:31.913Z</time></trkpt><trkpt lat="44.1640856" lon="10.3542542"><ele>492.33333333333337</ele><time>2026-04-07T12:01:33.919Z</time></trkpt><trkpt lat="44.163998" lon="10.3542895"><ele>494.1666666666667</ele><time>2026-04-07T12:01:35.912Z</time></trkpt><trkpt lat="44.163912" lon="10.3543057"><ele>496.0</ele><time>2026-04-07T12:01:37.91Z</time></trkpt><trkpt lat="44.1638324" lon="10.3543088"><ele>496.00000000000006</ele><time>2026-04-07T12:01:39.917Z</time></trkpt><trkpt lat="44.1637604" lon="10.3543262"><ele>496.0</ele><time>2026-04-07T12:01:41.921Z</time></trkpt><trkpt lat="44.1636956" lon="10.3543368"><ele>496.0</ele><time>2026-04-07T12:01:43.914Z</time></trkpt><trkpt lat="44.1636047" lon="10.354355"><ele>496.0</ele><time>2026-04-07T12:01:46.933Z</time></trkpt><trkpt lat="44.163508" lon="10.35437"><ele>496.00000000000006</ele><time>2026-04-07T12:01:49.921Z</time></trkpt><trkpt lat="44.1634436" lon="10.3543808"><ele>496.0</ele><time>2026-04-07T12:01:51.916Z</time></trkpt><trkpt lat="44.1633734" lon="10.3543971"><ele>496.0</ele><time>2026-04-07T12:01:53.921Z</time></trkpt><trkpt lat="44.1633068" lon="10.3544129"><ele>496.00000000000006</ele><time>2026-04-07T12:01:55.927Z</time></trkpt><trkpt lat="44.1632358" lon="10.3544262"><ele>496.0</ele><time>2026-04-07T12:01:57.921Z</time></trkpt><trkpt lat="44.1631654" lon="10.3544418"><ele>496.0</ele><time>2026-04-07T12:01:59.919Z</time></trkpt><trkpt lat="44.1630935" lon="10.3544576"><ele>496.00000000000006</ele><time>2026-04-07T12:02:01.929Z</time></trkpt><trkpt lat="44.1630284" lon="10.3544758"><ele>496.0</ele><time>2026-04-07T12:02:03.918Z</time></trkpt><trkpt lat="44.162955" lon="10.3544925"><ele>496.0</ele><time>2026-04-07T12:02:05.929Z</time></trkpt><trkpt lat="44.1628819" lon="10.3545043"><ele>495.83333333333337</ele><time>2026-04-07T12:02:07.918Z</time></trkpt><trkpt lat="44.1628104" lon="10.3545147"><ele>495.6666666666667</ele><time>2026-04-07T12:02:09.929Z</time></trkpt><trkpt lat="44.1627342" lon="10.354518"><ele>495.5</ele><time>2026-04-07T12:02:11.932Z</time></trkpt><trkpt lat="44.1626558" lon="10.3545245"><ele>495.33333333333337</ele><time>2026-04-07T12:02:13.927Z</time></trkpt><trkpt lat="44.1625779" lon="10.3545309"><ele>495.1666666666667</ele><time>2026-04-07T12:02:15.911Z</time></trkpt><trkpt lat="44.1625" lon="10.3545301"><ele>495.0</ele><time>2026-04-07T12:02:17.913Z</time></trkpt><trkpt lat="44.1624244" lon="10.3545327"><ele>496.3333333333333</ele><time>2026-04-07T12:02:19.916Z</time></trkpt><trkpt lat="44.1623535" lon="10.3545182"><ele>497.66666666666663</ele><time>2026-04-07T12:02:21.922Z</time></trkpt><trkpt lat="44.1622873" lon="10.3544911"><ele>499.0</ele><time>2026-04-07T12:02:23.919Z</time></trkpt><trkpt lat="44.1622014" lon="10.3544406"><ele>500.3333333333333</ele><time>2026-04-07T12:02:26.92Z</time></trkpt><trkpt lat="44.162144" lon="10.354388"><ele>501.66666666666663</ele><time>2026-04-07T12:02:28.92Z</time></trkpt><trkpt lat="44.1620802" lon="10.3543397"><ele>503.0</ele><time>2026-04-07T12:02:30.919Z</time></trkpt><trkpt lat="44.1620159" lon="10.354285"><ele>502.99999999999994</ele><time>2026-04-07T12:02:32.914Z</time></trkpt><trkpt lat="44.1619517" lon="10.3542227"><ele>503.0</ele><time>2026-04-07T12:02:34.912Z</time></trkpt><trkpt lat="44.1618882" lon="10.3541537"><ele>503.0</ele><time>2026-04-07T12:02:36.915Z</time></trkpt><trkpt lat="44.161821" lon="10.3540836"><ele>503.0</ele><time>2026-04-07T12:02:38.925Z</time></trkpt><trkpt lat="44.1617532" lon="10.3540044"><ele>502.99999999999994</ele><time>2026-04-07T12:02:40.926Z</time></trkpt><trkpt lat="44.1616851" lon="10.3539261"><ele>503.0</ele><time>2026-04-07T12:02:42.91Z</time></trkpt><trkpt lat="44.1616195" lon="10.3538545"><ele>500.49999999999994</ele><time>2026-04-07T12:02:44.92Z</time></trkpt><trkpt lat="44.1615596" lon="10.3537837"><ele>498.0</ele><time>2026-04-07T12:02:46.911Z</time></trkpt><trkpt lat="44.1614984" lon="10.3537184"><ele>495.5</ele><time>2026-04-07T12:02:48.934Z</time></trkpt><trkpt lat="44.1614353" lon="10.353658"><ele>493.0</ele><time>2026-04-07T12:02:50.922Z</time></trkpt><trkpt lat="44.1613726" lon="10.3535991"><ele>490.49999999999994</ele><time>2026-04-07T12:02:52.924Z</time></trkpt><trkpt lat="44.1613002" lon="10.3535674"><ele>488.0</ele><time>2026-04-07T12:02:54.907Z</time></trkpt><trkpt lat="44.161225" lon="10.3535471"><ele>487.99999999999994</ele><time>2026-04-07T12:02:56.92Z</time></trkpt><trkpt lat="44.1611478" lon="10.3535454"><ele>488.0</ele><time>2026-04-07T12:02:58.927Z</time></trkpt><trkpt lat="44.1610749" lon="10.3535692"><ele>488.0</ele><time>2026-04-07T12:03:00.925Z</time></trkpt><trkpt lat="44.161011" lon="10.3536253"><ele>488.0</ele><time>2026-04-07T12:03:02.929Z</time></trkpt><trkpt lat="44.1609555" lon="10.353702"><ele>487.99999999999994</ele><time>2026-04-07T12:03:04.917Z</time></trkpt><trkpt lat="44.1609035" lon="10.3537846"><ele>488.0</ele><time>2026-04-07T12:03:06.928Z</time></trkpt><trkpt lat="44.1608499" lon="10.3538802"><ele>486.59999999999997</ele><time>2026-04-07T12:03:08.919Z</time></trkpt><trkpt lat="44.1608006" lon="10.3539989"><ele>485.19999999999993</ele><time>2026-04-07T12:03:10.924Z</time></trkpt><trkpt lat="44.1607372" lon="10.354121"><ele>483.8</ele><time>2026-04-07T12:03:12.926Z</time></trkpt><trkpt lat="44.1606717" lon="10.3542615"><ele>482.4</ele><time>2026-04-07T12:03:14.91Z</time></trkpt><trkpt lat="44.1606446" lon="10.3543425"><ele>481.0</ele><time>2026-04-07T12:03:15.915Z</time></trkpt><trkpt lat="44.1606272" lon="10.3544317"><ele>480.99999999999994</ele><time>2026-04-07T12:03:16.92Z</time></trkpt><trkpt lat="44.1606225" lon="10.3545273"><ele>481.0</ele><time>2026-04-07T12:03:17.927Z</time></trkpt><trkpt lat="44.1606324" lon="10.3546218"><ele>480.99999999999994</ele><time>2026-04-07T12:03:18.92Z</time></trkpt><trkpt lat="44.1606525" lon="10.3547137"><ele>480.99999999999994</ele><time>2026-04-07T12:03:19.919Z</time></trkpt><trkpt lat="44.1606832" lon="10.3548055"><ele>481.0</ele><time>2026-04-07T12:03:20.918Z</time></trkpt><trkpt lat="44.1607283" lon="10.3548874"><ele>480.99999999999994</ele><time>2026-04-07T12:03:21.926Z</time></trkpt><trkpt lat="44.1607805" lon="10.3549589"><ele>480.99999999999994</ele><time>2026-04-07T12:03:22.919Z</time></trkpt><trkpt lat="44.1608321" lon="10.3550271"><ele>482.5714285714285</ele><time>2026-04-07T12:03:23.916Z</time></trkpt><trkpt lat="44.1608824" lon="10.3550914"><ele>484.1428571428571</ele><time>2026-04-07T12:03:24.931Z</time></trkpt><trkpt lat="44.1609355" lon="10.3551571"><ele>485.7142857142857</ele><time>2026-04-07T12:03:25.917Z</time></trkpt><trkpt lat="44.1609864" lon="10.355223"><ele>487.2857142857143</ele><time>2026-04-07T12:03:26.931Z</time></trkpt><trkpt lat="44.161037" lon="10.3552838"><ele>488.8571428571429</ele><time>2026-04-07T12:03:27.925Z</time></trkpt><trkpt lat="44.1610876" lon="10.3553517"><ele>490.4285714285715</ele><time>2026-04-07T12:03:28.926Z</time></trkpt><trkpt lat="44.161139" lon="10.3554213"><ele>492.00000000000006</ele><time>2026-04-07T12:03:29.918Z</time></trkpt><trkpt lat="44.1611906" lon="10.355486"><ele>490.7142857142858</ele><time>2026-04-07T12:03:30.911Z</time></trkpt><trkpt lat="44.1612463" lon="10.3555509"><ele>489.42857142857144</ele><time>2026-04-07T12:03:31.942Z</time></trkpt><trkpt lat="44.1613001" lon="10.3556183"><ele>488.14285714285717</ele><time>2026-04-07T12:03:32.939Z</time></trkpt><trkpt lat="44.1613525" lon="10.3556915"><ele>486.8571428571429</ele><time>2026-04-07T12:03:33.916Z</time></trkpt><trkpt lat="44.1613977" lon="10.3557725"><ele>485.57142857142856</ele><time>2026-04-07T12:03:34.914Z</time></trkpt><trkpt lat="44.1614296" lon="10.3558659"><ele>484.2857142857143</ele><time>2026-04-07T12:03:35.915Z</time></trkpt><trkpt lat="44.1614429" lon="10.3559665"><ele>483.0</ele><time>2026-04-07T12:03:36.935Z</time></trkpt><trkpt lat="44.1614349" lon="10.3560693"><ele>483.0</ele><time>2026-04-07T12:03:37.915Z</time></trkpt><trkpt lat="44.1614123" lon="10.3561665"><ele>483.0</ele><time>2026-04-07T12:03:38.935Z</time></trkpt><trkpt lat="44.1613852" lon="10.3562588"><ele>483.0</ele><time>2026-04-07T12:03:39.916Z</time></trkpt><trkpt lat="44.1613606" lon="10.3563482"><ele>483.0</ele><time>2026-04-07T12:03:40.915Z</time></trkpt><trkpt lat="44.1613336" lon="10.3564364"><ele>483.0</ele><time>2026-04-07T12:03:41.921Z</time></trkpt><trkpt lat="44.1613031" lon="10.3565251"><ele>483.0</ele><time>2026-04-07T12:03:42.927Z</time></trkpt><trkpt lat="44.1612773" lon="10.3566138"><ele>483.0</ele><time>2026-04-07T12:03:43.928Z</time></trkpt><trkpt lat="44.1612531" lon="10.3567079"><ele>483.0</ele><time>2026-04-07T12:03:44.922Z</time></trkpt><trkpt lat="44.1612265" lon="10.3567954"><ele>483.0</ele><time>2026-04-07T12:03:45.935Z</time></trkpt><trkpt lat="44.1611997" lon="10.3568904"><ele>483.0</ele><time>2026-04-07T12:03:46.923Z</time></trkpt><trkpt lat="44.1611749" lon="10.3569779"><ele>483.0</ele><time>2026-04-07T12:03:47.925Z</time></trkpt><trkpt lat="44.1611495" lon="10.3570698"><ele>483.0</ele><time>2026-04-07T12:03:48.916Z</time></trkpt><trkpt lat="44.161125" lon="10.3571629"><ele>483.0</ele><time>2026-04-07T12:03:49.915Z</time></trkpt><trkpt lat="44.1611034" lon="10.3572547"><ele>483.0</ele><time>2026-04-07T12:03:50.916Z</time></trkpt><trkpt lat="44.1610786" lon="10.3573439"><ele>483.0</ele><time>2026-04-07T12:03:51.924Z</time></trkpt><trkpt lat="44.161049" lon="10.3574307"><ele>483.0</ele><time>2026-04-07T12:03:52.923Z</time></trkpt><trkpt lat="44.1610244" lon="10.3575202"><ele>483.0</ele><time>2026-04-07T12:03:53.921Z</time></trkpt><trkpt lat="44.1609951" lon="10.3576074"><ele>483.0</ele><time>2026-04-07T12:03:54.919Z</time></trkpt><trkpt lat="44.1609647" lon="10.3576966"><ele>483.0</ele><time>2026-04-07T12:03:55.918Z</time></trkpt><trkpt lat="44.160929" lon="10.3577827"><ele>483.0</ele><time>2026-04-07T12:03:56.918Z</time></trkpt><trkpt lat="44.1608919" lon="10.3578704"><ele>483.0</ele><time>2026-04-07T12:03:57.921Z</time></trkpt><trkpt lat="44.1608453" lon="10.3579553"><ele>483.0</ele><time>2026-04-07T12:03:58.93Z</time></trkpt><trkpt lat="44.1607985" lon="10.358035"><ele>483.0</ele><time>2026-04-07T12:03:59.916Z</time></trkpt><trkpt lat="44.1607475" lon="10.3581152"><ele>483.0</ele><time>2026-04-07T12:04:00.911Z</time></trkpt><trkpt lat="44.1606975" lon="10.3581973"><ele>483.0</ele><time>2026-04-07T12:04:01.917Z</time></trkpt><trkpt lat="44.1606455" lon="10.3582793"><ele>483.0</ele><time>2026-04-07T12:04:02.924Z</time></trkpt><trkpt lat="44.1605955" lon="10.3583539"><ele>483.0</ele><time>2026-04-07T12:04:03.916Z</time></trkpt><trkpt lat="44.1605468" lon="10.3584366"><ele>481.8333333333333</ele><time>2026-04-07T12:04:04.909Z</time></trkpt><trkpt lat="44.1604957" lon="10.3585122"><ele>480.66666666666663</ele><time>2026-04-07T12:04:05.902Z</time></trkpt><trkpt lat="44.1604465" lon="10.3585933"><ele>479.5</ele><time>2026-04-07T12:04:06.911Z</time></trkpt><trkpt lat="44.1603944" lon="10.3586765"><ele>478.3333333333333</ele><time>2026-04-07T12:04:07.922Z</time></trkpt><trkpt lat="44.1603483" lon="10.3587523"><ele>477.16666666666663</ele><time>2026-04-07T12:04:08.915Z</time></trkpt><trkpt lat="44.1602962" lon="10.3588337"><ele>476.0</ele><time>2026-04-07T12:04:09.927Z</time></trkpt><trkpt lat="44.1602469" lon="10.3589132"><ele>475.99999999999994</ele><time>2026-04-07T12:04:10.919Z</time></trkpt><trkpt lat="44.1601955" lon="10.3589971"><ele>476.0</ele><time>2026-04-07T12:04:11.943Z</time></trkpt><trkpt lat="44.160144" lon="10.3590752"><ele>476.0</ele><time>2026-04-07T12:04:12.913Z</time></trkpt><trkpt lat="44.1600863" lon="10.3591509"><ele>476.0</ele><time>2026-04-07T12:04:13.924Z</time></trkpt><trkpt lat="44.1600271" lon="10.3592242"><ele>475.99999999999994</ele><time>2026-04-07T12:04:14.915Z</time></trkpt><trkpt lat="44.159961" lon="10.3592939"><ele>476.0</ele><time>2026-04-07T12:04:15.923Z</time></trkpt><trkpt lat="44.1598891" lon="10.3593541"><ele>473.3333333333333</ele><time>2026-04-07T12:04:16.92Z</time></trkpt><trkpt lat="44.1598126" lon="10.3594076"><ele>470.66666666666663</ele><time>2026-04-07T12:04:17.934Z</time></trkpt><trkpt lat="44.1597331" lon="10.3594422"><ele>468.0</ele><time>2026-04-07T12:04:18.917Z</time></trkpt><trkpt lat="44.1596506" lon="10.3594757"><ele>465.33333333333337</ele><time>2026-04-07T12:04:19.918Z</time></trkpt><trkpt lat="44.1595685" lon="10.3595113"><ele>462.6666666666667</ele><time>2026-04-07T12:04:20.922Z</time></trkpt><trkpt lat="44.1594883" lon="10.3595464"><ele>460.0</ele><time>2026-04-07T12:04:21.941Z</time></trkpt><trkpt lat="44.1594075" lon="10.359584"><ele>460.00000000000006</ele><time>2026-04-07T12:04:22.924Z</time></trkpt><trkpt lat="44.1593245" lon="10.3596231"><ele>460.0</ele><time>2026-04-07T12:04:23.907Z</time></trkpt><trkpt lat="44.1592378" lon="10.3596599"><ele>460.0</ele><time>2026-04-07T12:04:24.926Z</time></trkpt><trkpt lat="44.1591524" lon="10.3596918"><ele>460.0</ele><time>2026-04-07T12:04:25.905Z</time></trkpt><trkpt lat="44.1590645" lon="10.3597222"><ele>460.00000000000006</ele><time>2026-04-07T12:04:26.924Z</time></trkpt><trkpt lat="44.1589811" lon="10.3597556"><ele>460.0</ele><time>2026-04-07T12:04:27.922Z</time></trkpt><trkpt lat="44.1588947" lon="10.3597869"><ele>460.33333333333337</ele><time>2026-04-07T12:04:28.925Z</time></trkpt><trkpt lat="44.1588109" lon="10.3598196"><ele>460.6666666666667</ele><time>2026-04-07T12:04:29.914Z</time></trkpt><trkpt lat="44.1587262" lon="10.3598514"><ele>461.0</ele><time>2026-04-07T12:04:30.923Z</time></trkpt><trkpt lat="44.1586404" lon="10.3598812"><ele>461.33333333333337</ele><time>2026-04-07T12:04:31.924Z</time></trkpt><trkpt lat="44.1585503" lon="10.3599159"><ele>461.6666666666667</ele><time>2026-04-07T12:04:32.924Z</time></trkpt><trkpt lat="44.1584613" lon="10.3599483"><ele>462.0</ele><time>2026-04-07T12:04:33.917Z</time></trkpt><trkpt lat="44.1583773" lon="10.3600099"><ele>462.0</ele><time>2026-04-07T12:04:34.922Z</time></trkpt><trkpt lat="44.1583111" lon="10.3600942"><ele>462.00000000000006</ele><time>2026-04-07T12:04:35.92Z</time></trkpt><trkpt lat="44.1582626" lon="10.3602012"><ele>462.00000000000006</ele><time>2026-04-07T12:04:36.923Z</time></trkpt><trkpt lat="44.1582274" lon="10.3603227"><ele>462.0</ele><time>2026-04-07T12:04:37.921Z</time></trkpt><trkpt lat="44.1582023" lon="10.3604484"><ele>462.0</ele><time>2026-04-07T12:04:38.92Z</time></trkpt><trkpt lat="44.1581732" lon="10.3605781"><ele>459.40000000000003</ele><time>2026-04-07T12:04:39.91Z</time></trkpt><trkpt lat="44.1581441" lon="10.3607098"><ele>456.80000000000007</ele><time>2026-04-07T12:04:40.917Z</time></trkpt><trkpt lat="44.1581192" lon="10.3608395"><ele>454.2</ele><time>2026-04-07T12:04:41.914Z</time></trkpt><trkpt lat="44.158102" lon="10.3609729"><ele>451.6</ele><time>2026-04-07T12:04:42.938Z</time></trkpt><trkpt lat="44.1580777" lon="10.3611048"><ele>449.0</ele><time>2026-04-07T12:04:43.917Z</time></trkpt><trkpt lat="44.1580407" lon="10.3612323"><ele>449.0</ele><time>2026-04-07T12:04:44.921Z</time></trkpt><trkpt lat="44.1579913" lon="10.3613526"><ele>449.0</ele><time>2026-04-07T12:04:45.917Z</time></trkpt><trkpt lat="44.1579286" lon="10.361458"><ele>449.0</ele><time>2026-04-07T12:04:46.924Z</time></trkpt><trkpt lat="44.1578573" lon="10.3615576"><ele>449.0</ele><time>2026-04-07T12:04:47.92Z</time></trkpt><trkpt lat="44.1577851" lon="10.3616518"><ele>449.0</ele><time>2026-04-07T12:04:48.937Z</time></trkpt><trkpt lat="44.1577085" lon="10.361753"><ele>449.6</ele><time>2026-04-07T12:04:49.925Z</time></trkpt><trkpt lat="44.1576362" lon="10.3618546"><ele>450.2</ele><time>2026-04-07T12:04:50.914Z</time></trkpt><trkpt lat="44.1575608" lon="10.3619521"><ele>450.80000000000007</ele><time>2026-04-07T12:04:51.937Z</time></trkpt><trkpt lat="44.1574861" lon="10.362051"><ele>451.40000000000003</ele><time>2026-04-07T12:04:52.918Z</time></trkpt><trkpt lat="44.1574072" lon="10.3621451"><ele>452.0</ele><time>2026-04-07T12:04:53.918Z</time></trkpt><trkpt lat="44.1573214" lon="10.3622228"><ele>452.0</ele><time>2026-04-07T12:04:54.931Z</time></trkpt><trkpt lat="44.1572264" lon="10.3622688"><ele>452.00000000000006</ele><time>2026-04-07T12:04:55.913Z</time></trkpt><trkpt lat="44.1571259" lon="10.362287"><ele>452.00000000000006</ele><time>2026-04-07T12:04:56.925Z</time></trkpt><trkpt lat="44.1570255" lon="10.3622803"><ele>452.0</ele><time>2026-04-07T12:04:57.919Z</time></trkpt><trkpt lat="44.1569237" lon="10.3622694"><ele>452.0</ele><time>2026-04-07T12:04:58.922Z</time></trkpt><trkpt lat="44.1568206" lon="10.3622792"><ele>452.0</ele><time>2026-04-07T12:04:59.923Z</time></trkpt><trkpt lat="44.1567242" lon="10.3623204"><ele>452.00000000000006</ele><time>2026-04-07T12:05:00.922Z</time></trkpt><trkpt lat="44.1566454" lon="10.3624118"><ele>452.00000000000006</ele><time>2026-04-07T12:05:01.934Z</time></trkpt><trkpt lat="44.1565849" lon="10.3625269"><ele>452.0</ele><time>2026-04-07T12:05:02.921Z</time></trkpt><trkpt lat="44.1565425" lon="10.3626562"><ele>452.0</ele><time>2026-04-07T12:05:03.918Z</time></trkpt><trkpt lat="44.1565104" lon="10.3628034"><ele>448.25</ele><time>2026-04-07T12:05:04.914Z</time></trkpt><trkpt lat="44.1564724" lon="10.3629579"><ele>444.5</ele><time>2026-04-07T12:05:05.934Z</time></trkpt><trkpt lat="44.156435" lon="10.3631132"><ele>440.75</ele><time>2026-04-07T12:05:06.917Z</time></trkpt><trkpt lat="44.1564029" lon="10.3632754"><ele>437.0</ele><time>2026-04-07T12:05:07.912Z</time></trkpt><trkpt lat="44.1563693" lon="10.3634311"><ele>437.0</ele><time>2026-04-07T12:05:08.919Z</time></trkpt><trkpt lat="44.1563365" lon="10.3635911"><ele>437.0</ele><time>2026-04-07T12:05:09.91Z</time></trkpt><trkpt lat="44.1563021" lon="10.3637464"><ele>437.0</ele><time>2026-04-07T12:05:10.918Z</time></trkpt><trkpt lat="44.1562736" lon="10.3638965"><ele>437.0</ele><time>2026-04-07T12:05:11.916Z</time></trkpt><trkpt lat="44.1562494" lon="10.3640462"><ele>436.6</ele><time>2026-04-07T12:05:12.915Z</time></trkpt><trkpt lat="44.1562262" lon="10.3641876"><ele>436.20000000000005</ele><time>2026-04-07T12:05:13.908Z</time></trkpt><trkpt lat="44.1562031" lon="10.3643287"><ele>435.8</ele><time>2026-04-07T12:05:14.92Z</time></trkpt><trkpt lat="44.1561925" lon="10.3644651"><ele>435.4</ele><time>2026-04-07T12:05:15.92Z</time></trkpt><trkpt lat="44.1561995" lon="10.3646033"><ele>435.0</ele><time>2026-04-07T12:05:16.921Z</time></trkpt><trkpt lat="44.1562354" lon="10.3647366"><ele>435.0</ele><time>2026-04-07T12:05:17.922Z</time></trkpt><trkpt lat="44.1562888" lon="10.3648572"><ele>435.0</ele><time>2026-04-07T12:05:18.924Z</time></trkpt><trkpt lat="44.1563527" lon="10.3649632"><ele>435.0</ele><time>2026-04-07T12:05:19.923Z</time></trkpt><trkpt lat="44.156414" lon="10.3650781"><ele>435.0</ele><time>2026-04-07T12:05:20.914Z</time></trkpt><trkpt lat="44.156451" lon="10.3652144"><ele>435.0</ele><time>2026-04-07T12:05:21.921Z</time></trkpt><trkpt lat="44.1564566" lon="10.3653611"><ele>435.0</ele><time>2026-04-07T12:05:22.911Z</time></trkpt><trkpt lat="44.1564245" lon="10.3654866"><ele>435.0</ele><time>2026-04-07T12:05:23.913Z</time></trkpt><trkpt lat="44.1563736" lon="10.3656053"><ele>435.0</ele><time>2026-04-07T12:05:24.925Z</time></trkpt><trkpt lat="44.1563252" lon="10.365712"><ele>435.0</ele><time>2026-04-07T12:05:25.918Z</time></trkpt><trkpt lat="44.1562792" lon="10.365814"><ele>435.0</ele><time>2026-04-07T12:05:26.921Z</time></trkpt><trkpt lat="44.1562239" lon="10.3659022"><ele>435.5</ele><time>2026-04-07T12:05:27.926Z</time></trkpt><trkpt lat="44.1561567" lon="10.3659661"><ele>436.0</ele><time>2026-04-07T12:05:28.919Z</time></trkpt><trkpt lat="44.1560819" lon="10.3660107"><ele>436.5</ele><time>2026-04-07T12:05:29.937Z</time></trkpt><trkpt lat="44.1560011" lon="10.3660205"><ele>437.0</ele><time>2026-04-07T12:05:30.916Z</time></trkpt><trkpt lat="44.1559174" lon="10.3660109"><ele>437.5</ele><time>2026-04-07T12:05:31.909Z</time></trkpt><trkpt lat="44.1558317" lon="10.366008"><ele>438.0</ele><time>2026-04-07T12:05:32.92Z</time></trkpt><trkpt lat="44.1557474" lon="10.3659954"><ele>435.0</ele><time>2026-04-07T12:05:33.926Z</time></trkpt><trkpt lat="44.1556578" lon="10.3660037"><ele>431.99999999999994</ele><time>2026-04-07T12:05:34.917Z</time></trkpt><trkpt lat="44.1555703" lon="10.3660465"><ele>429.0</ele><time>2026-04-07T12:05:35.925Z</time></trkpt><trkpt lat="44.1554876" lon="10.3661082"><ele>426.0</ele><time>2026-04-07T12:05:36.911Z</time></trkpt><trkpt lat="44.1554119" lon="10.3661937"><ele>423.0</ele><time>2026-04-07T12:05:37.916Z</time></trkpt><trkpt lat="44.1553458" lon="10.36629"><ele>426.4</ele><time>2026-04-07T12:05:38.909Z</time></trkpt><trkpt lat="44.1552807" lon="10.3663862"><ele>429.79999999999995</ele><time>2026-04-07T12:05:39.919Z</time></trkpt><trkpt lat="44.1552149" lon="10.3664843"><ele>433.2</ele><time>2026-04-07T12:05:40.926Z</time></trkpt><trkpt lat="44.1551495" lon="10.3665798"><ele>436.6</ele><time>2026-04-07T12:05:41.924Z</time></trkpt><trkpt lat="44.1550756" lon="10.366663"><ele>440.0</ele><time>2026-04-07T12:05:42.922Z</time></trkpt><trkpt lat="44.1549903" lon="10.3667253"><ele>440.0</ele><time>2026-04-07T12:05:43.927Z</time></trkpt><trkpt lat="44.154895" lon="10.3667535"><ele>440.0</ele><time>2026-04-07T12:05:44.925Z</time></trkpt><trkpt lat="44.1547997" lon="10.3667445"><ele>440.0</ele><time>2026-04-07T12:05:45.919Z</time></trkpt><trkpt lat="44.1547091" lon="10.3667173"><ele>440.0</ele><time>2026-04-07T12:05:46.911Z</time></trkpt><trkpt lat="44.1546228" lon="10.3666767"><ele>440.0</ele><time>2026-04-07T12:05:47.92Z</time></trkpt><trkpt lat="44.1545375" lon="10.3666256"><ele>440.6</ele><time>2026-04-07T12:05:48.91Z</time></trkpt><trkpt lat="44.1544516" lon="10.3665811"><ele>441.2</ele><time>2026-04-07T12:05:49.915Z</time></trkpt><trkpt lat="44.1543658" lon="10.3665283"><ele>441.79999999999995</ele><time>2026-04-07T12:05:50.924Z</time></trkpt><trkpt lat="44.1542776" lon="10.3664812"><ele>442.4</ele><time>2026-04-07T12:05:51.919Z</time></trkpt><trkpt lat="44.1541915" lon="10.3664484"><ele>443.0</ele><time>2026-04-07T12:05:52.914Z</time></trkpt><trkpt lat="44.1541015" lon="10.3664219"><ele>443.3333333333333</ele><time>2026-04-07T12:05:53.909Z</time></trkpt><trkpt lat="44.1540132" lon="10.3663993"><ele>443.66666666666663</ele><time>2026-04-07T12:05:54.916Z</time></trkpt><trkpt lat="44.1539248" lon="10.3663843"><ele>444.0</ele><time>2026-04-07T12:05:55.914Z</time></trkpt><trkpt lat="44.1538385" lon="10.36637"><ele>444.33333333333337</ele><time>2026-04-07T12:05:56.919Z</time></trkpt><trkpt lat="44.1537521" lon="10.3663601"><ele>444.6666666666667</ele><time>2026-04-07T12:05:57.934Z</time></trkpt><trkpt lat="44.1536672" lon="10.3663534"><ele>445.0</ele><time>2026-04-07T12:05:58.917Z</time></trkpt><trkpt lat="44.1535821" lon="10.3663462"><ele>440.1666666666667</ele><time>2026-04-07T12:05:59.922Z</time></trkpt><trkpt lat="44.1534994" lon="10.3663425"><ele>435.33333333333337</ele><time>2026-04-07T12:06:00.919Z</time></trkpt><trkpt lat="44.1534163" lon="10.3663374"><ele>430.5</ele><time>2026-04-07T12:06:01.932Z</time></trkpt><trkpt lat="44.1533341" lon="10.3663366"><ele>425.66666666666663</ele><time>2026-04-07T12:06:02.921Z</time></trkpt><trkpt lat="44.1532546" lon="10.366331"><ele>420.8333333333333</ele><time>2026-04-07T12:06:03.911Z</time></trkpt><trkpt lat="44.1531751" lon="10.3663259"><ele>416.0</ele><time>2026-04-07T12:06:04.918Z</time></trkpt><trkpt lat="44.153099" lon="10.3663217"><ele>415.85714285714283</ele><time>2026-04-07T12:06:05.903Z</time></trkpt><trkpt lat="44.1530218" lon="10.366318"><ele>415.7142857142857</ele><time>2026-04-07T12:06:06.911Z</time></trkpt><trkpt lat="44.152943" lon="10.3663138"><ele>415.57142857142856</ele><time>2026-04-07T12:06:07.923Z</time></trkpt><trkpt lat="44.1528676" lon="10.3663096"><ele>415.42857142857144</ele><time>2026-04-07T12:06:08.923Z</time></trkpt><trkpt lat="44.1527936" lon="10.3663079"><ele>415.28571428571433</ele><time>2026-04-07T12:06:09.917Z</time></trkpt><trkpt lat="44.1527236" lon="10.3663055"><ele>415.14285714285717</ele><time>2026-04-07T12:06:10.921Z</time></trkpt><trkpt lat="44.1526515" lon="10.3662938"><ele>415.0</ele><time>2026-04-07T12:06:11.919Z</time></trkpt><trkpt lat="44.1525811" lon="10.3662847"><ele>415.0</ele><time>2026-04-07T12:06:12.923Z</time></trkpt><trkpt lat="44.1525124" lon="10.3662895"><ele>415.0</ele><time>2026-04-07T12:06:13.922Z</time></trkpt><trkpt lat="44.1524471" lon="10.3663119"><ele>415.0</ele><time>2026-04-07T12:06:14.92Z</time></trkpt><trkpt lat="44.1523855" lon="10.3663417"><ele>415.0</ele><time>2026-04-07T12:06:15.917Z</time></trkpt><trkpt lat="44.1523272" lon="10.3663794"><ele>415.0</ele><time>2026-04-07T12:06:16.92Z</time></trkpt><trkpt lat="44.1522718" lon="10.3664264"><ele>415.0</ele><time>2026-04-07T12:06:17.936Z</time></trkpt><trkpt lat="44.1522248" lon="10.3664853"><ele>415.0</ele><time>2026-04-07T12:06:18.922Z</time></trkpt><trkpt lat="44.1521731" lon="10.3665471"><ele>417.42857142857144</ele><time>2026-04-07T12:06:19.922Z</time></trkpt><trkpt lat="44.1521261" lon="10.3666109"><ele>419.8571428571429</ele><time>2026-04-07T12:06:20.919Z</time></trkpt><trkpt lat="44.1520791" lon="10.3666712"><ele>422.2857142857143</ele><time>2026-04-07T12:06:21.922Z</time></trkpt><trkpt lat="44.1520224" lon="10.3667194"><ele>424.7142857142857</ele><time>2026-04-07T12:06:22.915Z</time></trkpt><trkpt lat="44.1519537" lon="10.3667518"><ele>427.1428571428571</ele><time>2026-04-07T12:06:23.925Z</time></trkpt><trkpt lat="44.1518813" lon="10.3667777"><ele>429.57142857142856</ele><time>2026-04-07T12:06:24.916Z</time></trkpt><trkpt lat="44.1518122" lon="10.3667743"><ele>432.0</ele><time>2026-04-07T12:06:25.921Z</time></trkpt><trkpt lat="44.1517445" lon="10.3667806"><ele>432.0</ele><time>2026-04-07T12:06:26.919Z</time></trkpt><trkpt lat="44.1516776" lon="10.3667879"><ele>432.0</ele><time>2026-04-07T12:06:27.918Z</time></trkpt><trkpt lat="44.1516145" lon="10.3667945"><ele>432.0</ele><time>2026-04-07T12:06:28.928Z</time></trkpt><trkpt lat="44.1515458" lon="10.3668059"><ele>432.0</ele><time>2026-04-07T12:06:29.922Z</time></trkpt><trkpt lat="44.1514752" lon="10.3668143"><ele>432.0</ele><time>2026-04-07T12:06:30.934Z</time></trkpt><trkpt lat="44.1514097" lon="10.3668236"><ele>432.0</ele><time>2026-04-07T12:06:31.918Z</time></trkpt><trkpt lat="44.1513401" lon="10.3668482"><ele>432.0</ele><time>2026-04-07T12:06:32.924Z</time></trkpt><trkpt lat="44.1512738" lon="10.3668701"><ele>430.1428571428571</ele><time>2026-04-07T12:06:33.927Z</time></trkpt><trkpt lat="44.1512131" lon="10.3669082"><ele>428.2857142857143</ele><time>2026-04-07T12:06:34.915Z</time></trkpt><trkpt lat="44.1511519" lon="10.3669509"><ele>426.42857142857144</ele><time>2026-04-07T12:06:35.918Z</time></trkpt><trkpt lat="44.1510885" lon="10.3669903"><ele>424.57142857142856</ele><time>2026-04-07T12:06:36.922Z</time></trkpt><trkpt lat="44.151027" lon="10.3670384"><ele>422.7142857142857</ele><time>2026-04-07T12:06:37.916Z</time></trkpt><trkpt lat="44.1509654" lon="10.3670873"><ele>420.85714285714283</ele><time>2026-04-07T12:06:38.914Z</time></trkpt><trkpt lat="44.1509061" lon="10.3671354"><ele>419.0</ele><time>2026-04-07T12:06:39.91Z</time></trkpt><trkpt lat="44.150846" lon="10.3671773"><ele>418.1428571428571</ele><time>2026-04-07T12:06:40.923Z</time></trkpt><trkpt lat="44.1507754" lon="10.3671971"><ele>417.2857142857143</ele><time>2026-04-07T12:06:41.921Z</time></trkpt><trkpt lat="44.150709" lon="10.3672032"><ele>416.42857142857144</ele><time>2026-04-07T12:06:42.921Z</time></trkpt><trkpt lat="44.1506378" lon="10.3672006"><ele>415.57142857142856</ele><time>2026-04-07T12:06:43.933Z</time></trkpt><trkpt lat="44.1505607" lon="10.3671867"><ele>414.7142857142857</ele><time>2026-04-07T12:06:44.925Z</time></trkpt><trkpt lat="44.1504855" lon="10.3671599"><ele>413.85714285714283</ele><time>2026-04-07T12:06:45.913Z</time></trkpt><trkpt lat="44.1504131" lon="10.3671476"><ele>413.0</ele><time>2026-04-07T12:06:46.919Z</time></trkpt><trkpt lat="44.1503445" lon="10.3671493"><ele>413.0</ele><time>2026-04-07T12:06:47.926Z</time></trkpt><trkpt lat="44.1502779" lon="10.3671621"><ele>413.0</ele><time>2026-04-07T12:06:48.937Z</time></trkpt><trkpt lat="44.1502155" lon="10.3671817"><ele>413.0</ele><time>2026-04-07T12:06:49.914Z</time></trkpt><trkpt lat="44.1501012" lon="10.3672416"><ele>413.0</ele><time>2026-04-07T12:06:51.93Z</time></trkpt><trkpt lat="44.1499891" lon="10.3672923"><ele>413.0</ele><time>2026-04-07T12:06:53.92Z</time></trkpt><trkpt lat="44.1498923" lon="10.3673451"><ele>414.3333333333333</ele><time>2026-04-07T12:06:55.914Z</time></trkpt><trkpt lat="44.1498013" lon="10.3673952"><ele>415.66666666666663</ele><time>2026-04-07T12:06:57.923Z</time></trkpt><trkpt lat="44.1497138" lon="10.36744"><ele>417.0</ele><time>2026-04-07T12:06:59.917Z</time></trkpt><trkpt lat="44.1496372" lon="10.3674822"><ele>418.33333333333337</ele><time>2026-04-07T12:07:01.91Z</time></trkpt><trkpt lat="44.1495576" lon="10.3675148"><ele>419.6666666666667</ele><time>2026-04-07T12:07:03.921Z</time></trkpt><trkpt lat="44.1494861" lon="10.3675452"><ele>421.0</ele><time>2026-04-07T12:07:05.917Z</time></trkpt><trkpt lat="44.1494182" lon="10.3675739"><ele>421.00000000000006</ele><time>2026-04-07T12:07:07.911Z</time></trkpt><trkpt lat="44.149346" lon="10.3676055"><ele>421.0</ele><time>2026-04-07T12:07:09.911Z</time></trkpt><trkpt lat="44.149276" lon="10.3676438"><ele>421.0</ele><time>2026-04-07T12:07:11.928Z</time></trkpt><trkpt lat="44.1492081" lon="10.3676769"><ele>421.0</ele><time>2026-04-07T12:07:13.931Z</time></trkpt><trkpt lat="44.1491437" lon="10.3677053"><ele>421.0</ele><time>2026-04-07T12:07:15.907Z</time></trkpt><trkpt lat="44.1490719" lon="10.3677412"><ele>421.00000000000006</ele><time>2026-04-07T12:07:17.912Z</time></trkpt><trkpt lat="44.1489991" lon="10.3677742"><ele>421.0</ele><time>2026-04-07T12:07:19.914Z</time></trkpt><trkpt lat="44.148927" lon="10.3678144"><ele>419.7142857142857</ele><time>2026-04-07T12:07:21.913Z</time></trkpt><trkpt lat="44.1488643" lon="10.3678644"><ele>418.42857142857144</ele><time>2026-04-07T12:07:23.911Z</time></trkpt><trkpt lat="44.1488115" lon="10.3679367"><ele>417.1428571428571</ele><time>2026-04-07T12:07:25.929Z</time></trkpt><trkpt lat="44.1487759" lon="10.3680196"><ele>415.8571428571429</ele><time>2026-04-07T12:07:27.914Z</time></trkpt><trkpt lat="44.1487569" lon="10.3681061"><ele>414.57142857142856</ele><time>2026-04-07T12:07:29.919Z</time></trkpt><trkpt lat="44.148747" lon="10.3681928"><ele>413.2857142857143</ele><time>2026-04-07T12:07:31.918Z</time></trkpt><trkpt lat="44.148747" lon="10.3682924"><ele>412.0</ele><time>2026-04-07T12:07:33.911Z</time></trkpt><trkpt lat="44.1487525" lon="10.3683926"><ele>411.99999999999994</ele><time>2026-04-07T12:07:35.92Z</time></trkpt><trkpt lat="44.1487544" lon="10.368494"><ele>412.0</ele><time>2026-04-07T12:07:37.907Z</time></trkpt><trkpt lat="44.1487563" lon="10.3685958"><ele>412.0</ele><time>2026-04-07T12:07:39.91Z</time></trkpt><trkpt lat="44.1487586" lon="10.3686985"><ele>412.0</ele><time>2026-04-07T12:07:41.915Z</time></trkpt><trkpt lat="44.1487559" lon="10.3688014"><ele>412.0</ele><time>2026-04-07T12:07:43.918Z</time></trkpt><trkpt lat="44.1487582" lon="10.3689059"><ele>411.99999999999994</ele><time>2026-04-07T12:07:45.917Z</time></trkpt><trkpt lat="44.1487564" lon="10.369011"><ele>412.0</ele><time>2026-04-07T12:07:47.911Z</time></trkpt><trkpt lat="44.1487565" lon="10.3691191"><ele>412.99999999999994</ele><time>2026-04-07T12:07:49.922Z</time></trkpt><trkpt lat="44.1487404" lon="10.3692202"><ele>414.0</ele><time>2026-04-07T12:07:51.913Z</time></trkpt><trkpt lat="44.1487201" lon="10.3693153"><ele>415.0</ele><time>2026-04-07T12:07:53.915Z</time></trkpt><trkpt lat="44.1486947" lon="10.3694115"><ele>416.0</ele><time>2026-04-07T12:07:55.924Z</time></trkpt><trkpt lat="44.1486576" lon="10.3695044"><ele>417.0</ele><time>2026-04-07T12:07:57.919Z</time></trkpt><trkpt lat="44.1486133" lon="10.3695939"><ele>417.99999999999994</ele><time>2026-04-07T12:07:59.924Z</time></trkpt><trkpt lat="44.148564" lon="10.3696728"><ele>419.0</ele><time>2026-04-07T12:08:01.911Z</time></trkpt><trkpt lat="44.1485104" lon="10.3697359"><ele>418.99999999999994</ele><time>2026-04-07T12:08:03.907Z</time></trkpt><trkpt lat="44.1484508" lon="10.3697841"><ele>419.0</ele><time>2026-04-07T12:08:05.905Z</time></trkpt><trkpt lat="44.1483883" lon="10.3698329"><ele>419.0</ele><time>2026-04-07T12:08:07.904Z</time></trkpt><trkpt lat="44.1483156" lon="10.3698782"><ele>419.0</ele><time>2026-04-07T12:08:09.909Z</time></trkpt><trkpt lat="44.1482341" lon="10.3699156"><ele>418.99999999999994</ele><time>2026-04-07T12:08:11.915Z</time></trkpt><trkpt lat="44.1481506" lon="10.3699446"><ele>419.0</ele><time>2026-04-07T12:08:13.926Z</time></trkpt><trkpt lat="44.148069" lon="10.3699743"><ele>418.99999999999994</ele><time>2026-04-07T12:08:15.918Z</time></trkpt><trkpt lat="44.1479922" lon="10.3700035"><ele>419.0</ele><time>2026-04-07T12:08:17.924Z</time></trkpt><trkpt lat="44.1479184" lon="10.3700354"><ele>419.0</ele><time>2026-04-07T12:08:19.927Z</time></trkpt><trkpt lat="44.1478431" lon="10.37006"><ele>419.0</ele><time>2026-04-07T12:08:21.916Z</time></trkpt><trkpt lat="44.1477662" lon="10.370089"><ele>418.99999999999994</ele><time>2026-04-07T12:08:23.911Z</time></trkpt><trkpt lat="44.1476943" lon="10.3701199"><ele>419.0</ele><time>2026-04-07T12:08:25.907Z</time></trkpt><trkpt lat="44.1476274" lon="10.370167"><ele>418.99999999999994</ele><time>2026-04-07T12:08:27.905Z</time></trkpt><trkpt lat="44.1475628" lon="10.3702219"><ele>419.0</ele><time>2026-04-07T12:08:29.917Z</time></trkpt><trkpt lat="44.1474929" lon="10.3702782"><ele>419.0</ele><time>2026-04-07T12:08:31.93Z</time></trkpt><trkpt lat="44.1474229" lon="10.3703414"><ele>419.0</ele><time>2026-04-07T12:08:33.915Z</time></trkpt><trkpt lat="44.1473555" lon="10.3704122"><ele>418.99999999999994</ele><time>2026-04-07T12:08:35.912Z</time></trkpt><trkpt lat="44.1472882" lon="10.3704819"><ele>419.0</ele><time>2026-04-07T12:08:37.917Z</time></trkpt><trkpt lat="44.1472221" lon="10.3705611"><ele>418.0</ele><time>2026-04-07T12:08:39.923Z</time></trkpt><trkpt lat="44.1471532" lon="10.3706438"><ele>417.0</ele><time>2026-04-07T12:08:41.914Z</time></trkpt><trkpt lat="44.1470899" lon="10.3707369"><ele>416.0</ele><time>2026-04-07T12:08:43.914Z</time></trkpt><trkpt lat="44.1470299" lon="10.3708373"><ele>415.0</ele><time>2026-04-07T12:08:45.924Z</time></trkpt><trkpt lat="44.1469805" lon="10.3709463"><ele>414.0</ele><time>2026-04-07T12:08:47.914Z</time></trkpt><trkpt lat="44.1469395" lon="10.3710557"><ele>414.0</ele><time>2026-04-07T12:08:49.914Z</time></trkpt><trkpt lat="44.1469065" lon="10.3711755"><ele>414.0</ele><time>2026-04-07T12:08:51.917Z</time></trkpt><trkpt lat="44.1468741" lon="10.3712864"><ele>414.0</ele><time>2026-04-07T12:08:53.91Z</time></trkpt><trkpt lat="44.1468554" lon="10.3713987"><ele>414.0</ele><time>2026-04-07T12:08:55.915Z</time></trkpt><trkpt lat="44.1468392" lon="10.3715159"><ele>414.0</ele><time>2026-04-07T12:08:57.911Z</time></trkpt><trkpt lat="44.1468229" lon="10.3716379"><ele>414.0</ele><time>2026-04-07T12:08:59.934Z</time></trkpt><trkpt lat="44.1468121" lon="10.3717687"><ele>414.79999999999995</ele><time>2026-04-07T12:09:01.918Z</time></trkpt><trkpt lat="44.1468103" lon="10.3719"><ele>415.59999999999997</ele><time>2026-04-07T12:09:03.922Z</time></trkpt><trkpt lat="44.1468122" lon="10.372037"><ele>416.4</ele><time>2026-04-07T12:09:05.919Z</time></trkpt><trkpt lat="44.1468285" lon="10.3721793"><ele>417.2</ele><time>2026-04-07T12:09:07.932Z</time></trkpt><trkpt lat="44.1468433" lon="10.3723283"><ele>418.0</ele><time>2026-04-07T12:09:09.918Z</time></trkpt><trkpt lat="44.1468568" lon="10.3724792"><ele>418.0</ele><time>2026-04-07T12:09:11.926Z</time></trkpt><trkpt lat="44.1468596" lon="10.372617"><ele>418.0</ele><time>2026-04-07T12:09:13.927Z</time></trkpt><trkpt lat="44.1468255" lon="10.3727339"><ele>418.0</ele><time>2026-04-07T12:09:15.94Z</time></trkpt><trkpt lat="44.1467555" lon="10.3728336"><ele>418.0</ele><time>2026-04-07T12:09:17.926Z</time></trkpt><trkpt lat="44.1466562" lon="10.3728935"><ele>418.0</ele><time>2026-04-07T12:09:19.916Z</time></trkpt><trkpt lat="44.1465474" lon="10.3729125"><ele>417.0</ele><time>2026-04-07T12:09:21.923Z</time></trkpt><trkpt lat="44.1464425" lon="10.3728955"><ele>416.0</ele><time>2026-04-07T12:09:23.933Z</time></trkpt><trkpt lat="44.1463398" lon="10.3728626"><ele>415.0</ele><time>2026-04-07T12:09:25.919Z</time></trkpt><trkpt lat="44.1462346" lon="10.3728143"><ele>414.0</ele><time>2026-04-07T12:09:27.917Z</time></trkpt><trkpt lat="44.1461316" lon="10.3727782"><ele>413.0</ele><time>2026-04-07T12:09:29.923Z</time></trkpt><trkpt lat="44.1460361" lon="10.372726"><ele>413.0</ele><time>2026-04-07T12:09:31.925Z</time></trkpt><trkpt lat="44.1459385" lon="10.3726832"><ele>413.0</ele><time>2026-04-07T12:09:33.917Z</time></trkpt><trkpt lat="44.1458466" lon="10.3726504"><ele>413.0</ele><time>2026-04-07T12:09:35.93Z</time></trkpt><trkpt lat="44.1457597" lon="10.3726442"><ele>413.0</ele><time>2026-04-07T12:09:37.913Z</time></trkpt><trkpt lat="44.1456816" lon="10.3726738"><ele>413.0</ele><time>2026-04-07T12:09:39.909Z</time></trkpt><trkpt lat="44.1456081" lon="10.3727491"><ele>413.3333333333333</ele><time>2026-04-07T12:09:41.905Z</time></trkpt><trkpt lat="44.1455342" lon="10.3728195"><ele>413.66666666666663</ele><time>2026-04-07T12:09:43.905Z</time></trkpt><trkpt lat="44.1454631" lon="10.3728916"><ele>414.0</ele><time>2026-04-07T12:09:45.918Z</time></trkpt><trkpt lat="44.1453941" lon="10.3729567"><ele>414.33333333333337</ele><time>2026-04-07T12:09:47.907Z</time></trkpt><trkpt lat="44.1453248" lon="10.3730183"><ele>414.6666666666667</ele><time>2026-04-07T12:09:49.912Z</time></trkpt><trkpt lat="44.1452593" lon="10.3730817"><ele>415.0</ele><time>2026-04-07T12:09:51.917Z</time></trkpt><trkpt lat="44.1451986" lon="10.3731407"><ele>415.0</ele><time>2026-04-07T12:09:53.919Z</time></trkpt><trkpt lat="44.1451334" lon="10.3731978"><ele>415.0</ele><time>2026-04-07T12:09:55.917Z</time></trkpt><trkpt lat="44.145067" lon="10.3732499"><ele>415.0</ele><time>2026-04-07T12:09:57.906Z</time></trkpt><trkpt lat="44.1450087" lon="10.3733129"><ele>415.0</ele><time>2026-04-07T12:09:59.921Z</time></trkpt><trkpt lat="44.1449474" lon="10.373362"><ele>415.0</ele><time>2026-04-07T12:10:01.909Z</time></trkpt><trkpt lat="44.1448907" lon="10.3734198"><ele>415.0</ele><time>2026-04-07T12:10:03.922Z</time></trkpt><trkpt lat="44.1448381" lon="10.3734695"><ele>415.0</ele><time>2026-04-07T12:10:05.91Z</time></trkpt><trkpt lat="44.1447773" lon="10.3735173"><ele>415.57142857142856</ele><time>2026-04-07T12:10:07.918Z</time></trkpt><trkpt lat="44.1447166" lon="10.3735606"><ele>416.14285714285717</ele><time>2026-04-07T12:10:09.915Z</time></trkpt><trkpt lat="44.1446609" lon="10.3736044"><ele>416.71428571428567</ele><time>2026-04-07T12:10:11.941Z</time></trkpt><trkpt lat="44.1445852" lon="10.3736605"><ele>417.2857142857143</ele><time>2026-04-07T12:10:14.924Z</time></trkpt><trkpt lat="44.1445078" lon="10.3737337"><ele>417.85714285714283</ele><time>2026-04-07T12:10:17.913Z</time></trkpt><trkpt lat="44.14445" lon="10.3737812"><ele>418.4285714285714</ele><time>2026-04-07T12:10:19.92Z</time></trkpt><trkpt lat="44.1443895" lon="10.3738308"><ele>419.0</ele><time>2026-04-07T12:10:21.918Z</time></trkpt><trkpt lat="44.1443257" lon="10.3738869"><ele>419.0</ele><time>2026-04-07T12:10:23.913Z</time></trkpt><trkpt lat="44.1442473" lon="10.3739325"><ele>419.0</ele><time>2026-04-07T12:10:25.919Z</time></trkpt><trkpt lat="44.1441511" lon="10.3739726"><ele>419.0</ele><time>2026-04-07T12:10:27.943Z</time></trkpt><trkpt lat="44.144042" lon="10.3740099"><ele>419.0</ele><time>2026-04-07T12:10:29.918Z</time></trkpt><trkpt lat="44.1439283" lon="10.3740221"><ele>419.0</ele><time>2026-04-07T12:10:31.919Z</time></trkpt><trkpt lat="44.1438125" lon="10.3740227"><ele>418.2</ele><time>2026-04-07T12:10:33.931Z</time></trkpt><trkpt lat="44.1436941" lon="10.3739854"><ele>417.4</ele><time>2026-04-07T12:10:35.917Z</time></trkpt><trkpt lat="44.1435809" lon="10.3739355"><ele>416.6</ele><time>2026-04-07T12:10:37.921Z</time></trkpt><trkpt lat="44.1435227" lon="10.3739008"><ele>415.8</ele><time>2026-04-07T12:10:38.917Z</time></trkpt><trkpt lat="44.1434122" lon="10.3738272"><ele>415.0</ele><time>2026-04-07T12:10:40.924Z</time></trkpt><trkpt lat="44.1433046" lon="10.3737583"><ele>414.4</ele><time>2026-04-07T12:10:42.927Z</time></trkpt><trkpt lat="44.1432095" lon="10.3736886"><ele>413.8</ele><time>2026-04-07T12:10:44.923Z</time></trkpt><trkpt lat="44.1431181" lon="10.3736243"><ele>413.20000000000005</ele><time>2026-04-07T12:10:46.922Z</time></trkpt><trkpt lat="44.1430333" lon="10.3735795"><ele>412.6</ele><time>2026-04-07T12:10:48.925Z</time></trkpt><trkpt lat="44.1429507" lon="10.3735703"><ele>412.0</ele><time>2026-04-07T12:10:50.921Z</time></trkpt><trkpt lat="44.1428715" lon="10.3735926"><ele>412.00000000000006</ele><time>2026-04-07T12:10:52.922Z</time></trkpt><trkpt lat="44.1428098" lon="10.3736363"><ele>412.0</ele><time>2026-04-07T12:10:54.92Z</time></trkpt><trkpt lat="44.1427597" lon="10.3737007"><ele>412.0</ele><time>2026-04-07T12:10:56.919Z</time></trkpt><trkpt lat="44.1427155" lon="10.3737811"><ele>412.0</ele><time>2026-04-07T12:10:58.911Z</time></trkpt><trkpt lat="44.1426805" lon="10.3738804"><ele>412.00000000000006</ele><time>2026-04-07T12:11:00.917Z</time></trkpt><trkpt lat="44.1426482" lon="10.3739896"><ele>412.0</ele><time>2026-04-07T12:11:02.918Z</time></trkpt><trkpt lat="44.1426062" lon="10.3741131"><ele>411.6</ele><time>2026-04-07T12:11:04.916Z</time></trkpt><trkpt lat="44.1425669" lon="10.374241"><ele>411.20000000000005</ele><time>2026-04-07T12:11:06.922Z</time></trkpt><trkpt lat="44.1425313" lon="10.3743656"><ele>410.8</ele><time>2026-04-07T12:11:08.918Z</time></trkpt><trkpt lat="44.1424928" lon="10.3744927"><ele>410.4</ele><time>2026-04-07T12:11:10.916Z</time></trkpt><trkpt lat="44.1424474" lon="10.3746057"><ele>410.0</ele><time>2026-04-07T12:11:12.919Z</time></trkpt><trkpt lat="44.1424068" lon="10.3747345"><ele>406.8</ele><time>2026-04-07T12:11:14.92Z</time></trkpt><trkpt lat="44.1423655" lon="10.3748644"><ele>403.6</ele><time>2026-04-07T12:11:16.929Z</time></trkpt><trkpt lat="44.1423247" lon="10.3749892"><ele>400.4</ele><time>2026-04-07T12:11:18.926Z</time></trkpt><trkpt lat="44.1422913" lon="10.3751181"><ele>397.2</ele><time>2026-04-07T12:11:20.918Z</time></trkpt><trkpt lat="44.1422667" lon="10.3752563"><ele>394.0</ele><time>2026-04-07T12:11:22.919Z</time></trkpt><trkpt lat="44.1422528" lon="10.3754041"><ele>394.25</ele><time>2026-04-07T12:11:24.907Z</time></trkpt><trkpt lat="44.1422433" lon="10.3755592"><ele>394.5</ele><time>2026-04-07T12:11:26.916Z</time></trkpt><trkpt lat="44.1422465" lon="10.3757281"><ele>394.75</ele><time>2026-04-07T12:11:28.926Z</time></trkpt><trkpt lat="44.1422417" lon="10.375896"><ele>395.0</ele><time>2026-04-07T12:11:30.926Z</time></trkpt><trkpt lat="44.142226" lon="10.3760607"><ele>394.99999999999994</ele><time>2026-04-07T12:11:32.924Z</time></trkpt><trkpt lat="44.1422063" lon="10.3762237"><ele>395.0</ele><time>2026-04-07T12:11:34.923Z</time></trkpt><trkpt lat="44.1421721" lon="10.3763912"><ele>395.0</ele><time>2026-04-07T12:11:36.91Z</time></trkpt><trkpt lat="44.1421465" lon="10.3764746"><ele>395.0</ele><time>2026-04-07T12:11:37.919Z</time></trkpt><trkpt lat="44.1421223" lon="10.3765584"><ele>394.99999999999994</ele><time>2026-04-07T12:11:38.91Z</time></trkpt><trkpt lat="44.1420927" lon="10.3766432"><ele>395.0</ele><time>2026-04-07T12:11:39.917Z</time></trkpt><trkpt lat="44.1420539" lon="10.3767208"><ele>395.66666666666663</ele><time>2026-04-07T12:11:40.92Z</time></trkpt><trkpt lat="44.1420181" lon="10.3767992"><ele>396.3333333333333</ele><time>2026-04-07T12:11:41.914Z</time></trkpt><trkpt lat="44.1419463" lon="10.3769487"><ele>397.0</ele><time>2026-04-07T12:11:43.904Z</time></trkpt><trkpt lat="44.1419169" lon="10.3770284"><ele>397.66666666666663</ele><time>2026-04-07T12:11:44.92Z</time></trkpt><trkpt lat="44.1418826" lon="10.377102"><ele>398.3333333333333</ele><time>2026-04-07T12:11:45.907Z</time></trkpt><trkpt lat="44.1418424" lon="10.377173"><ele>399.0</ele><time>2026-04-07T12:11:46.908Z</time></trkpt><trkpt lat="44.1417966" lon="10.3772352"><ele>399.0</ele><time>2026-04-07T12:11:47.919Z</time></trkpt><trkpt lat="44.1417484" lon="10.3772952"><ele>399.0</ele><time>2026-04-07T12:11:48.922Z</time></trkpt><trkpt lat="44.1416466" lon="10.377393"><ele>399.0</ele><time>2026-04-07T12:11:50.917Z</time></trkpt><trkpt lat="44.1415401" lon="10.3774649"><ele>399.0</ele><time>2026-04-07T12:11:52.924Z</time></trkpt><trkpt lat="44.1414419" lon="10.3775653"><ele>399.0</ele><time>2026-04-07T12:11:54.921Z</time></trkpt><trkpt lat="44.1413448" lon="10.3776667"><ele>399.0</ele><time>2026-04-07T12:11:56.908Z</time></trkpt><trkpt lat="44.1412452" lon="10.3777706"><ele>399.0</ele><time>2026-04-07T12:11:58.917Z</time></trkpt><trkpt lat="44.1411901" lon="10.3778179"><ele>399.0</ele><time>2026-04-07T12:11:59.914Z</time></trkpt><trkpt lat="44.1411336" lon="10.3778645"><ele>399.0</ele><time>2026-04-07T12:12:00.918Z</time></trkpt><trkpt lat="44.1410727" lon="10.3779015"><ele>399.0</ele><time>2026-04-07T12:12:01.906Z</time></trkpt><trkpt lat="44.1410082" lon="10.3779245"><ele>399.0</ele><time>2026-04-07T12:12:02.922Z</time></trkpt><trkpt lat="44.1408891" lon="10.3779419"><ele>399.0</ele><time>2026-04-07T12:12:04.909Z</time></trkpt><trkpt lat="44.1407842" lon="10.3779497"><ele>399.0</ele><time>2026-04-07T12:12:06.918Z</time></trkpt><trkpt lat="44.1406957" lon="10.377963"><ele>399.0</ele><time>2026-04-07T12:12:08.911Z</time></trkpt><trkpt lat="44.1406051" lon="10.3779746"><ele>399.0</ele><time>2026-04-07T12:12:10.905Z</time></trkpt><trkpt lat="44.1405207" lon="10.3779979"><ele>399.0</ele><time>2026-04-07T12:12:12.905Z</time></trkpt><trkpt lat="44.1404335" lon="10.378039"><ele>398.6</ele><time>2026-04-07T12:12:14.924Z</time></trkpt><trkpt lat="44.1403444" lon="10.3781097"><ele>398.2</ele><time>2026-04-07T12:12:16.917Z</time></trkpt><trkpt lat="44.1402676" lon="10.3781989"><ele>397.8</ele><time>2026-04-07T12:12:18.917Z</time></trkpt><trkpt lat="44.1402054" lon="10.3782999"><ele>397.40000000000003</ele><time>2026-04-07T12:12:20.921Z</time></trkpt><trkpt lat="44.140151" lon="10.3784152"><ele>397.0</ele><time>2026-04-07T12:12:22.913Z</time></trkpt><trkpt lat="44.1400982" lon="10.37854"><ele>397.00000000000006</ele><time>2026-04-07T12:12:24.917Z</time></trkpt><trkpt lat="44.1400415" lon="10.3786762"><ele>397.0</ele><time>2026-04-07T12:12:26.922Z</time></trkpt><trkpt lat="44.139988" lon="10.3788301"><ele>397.0</ele><time>2026-04-07T12:12:28.915Z</time></trkpt><trkpt lat="44.1399588" lon="10.3789085"><ele>397.0</ele><time>2026-04-07T12:12:29.924Z</time></trkpt><trkpt lat="44.1399265" lon="10.3789887"><ele>397.00000000000006</ele><time>2026-04-07T12:12:30.922Z</time></trkpt><trkpt lat="44.1398866" lon="10.3790646"><ele>397.0</ele><time>2026-04-07T12:12:31.907Z</time></trkpt><trkpt lat="44.1398409" lon="10.3791353"><ele>395.0</ele><time>2026-04-07T12:12:32.914Z</time></trkpt><trkpt lat="44.139791" lon="10.3792024"><ele>393.0</ele><time>2026-04-07T12:12:33.909Z</time></trkpt><trkpt lat="44.1397377" lon="10.3792687"><ele>391.0</ele><time>2026-04-07T12:12:34.917Z</time></trkpt><trkpt lat="44.1396843" lon="10.3793274"><ele>389.0</ele><time>2026-04-07T12:12:35.906Z</time></trkpt><trkpt lat="44.1396281" lon="10.3793891"><ele>387.0</ele><time>2026-04-07T12:12:36.912Z</time></trkpt><trkpt lat="44.1395706" lon="10.3794541"><ele>385.0</ele><time>2026-04-07T12:12:37.919Z</time></trkpt><trkpt lat="44.1395172" lon="10.3795253"><ele>383.0</ele><time>2026-04-07T12:12:38.919Z</time></trkpt><trkpt lat="44.1394695" lon="10.3795958"><ele>383.0</ele><time>2026-04-07T12:12:39.919Z</time></trkpt><trkpt lat="44.1394211" lon="10.3796684"><ele>383.0</ele><time>2026-04-07T12:12:40.921Z</time></trkpt><trkpt lat="44.1393809" lon="10.3797535"><ele>383.0</ele><time>2026-04-07T12:12:41.92Z</time></trkpt><trkpt lat="44.1393406" lon="10.3798405"><ele>383.0</ele><time>2026-04-07T12:12:42.921Z</time></trkpt><trkpt lat="44.1392998" lon="10.3799327"><ele>383.0</ele><time>2026-04-07T12:12:43.914Z</time></trkpt><trkpt lat="44.1392594" lon="10.3800251"><ele>383.0</ele><time>2026-04-07T12:12:44.912Z</time></trkpt><trkpt lat="44.1392183" lon="10.3801228"><ele>382.33333333333337</ele><time>2026-04-07T12:12:45.921Z</time></trkpt><trkpt lat="44.1391779" lon="10.3802223"><ele>381.6666666666667</ele><time>2026-04-07T12:12:46.911Z</time></trkpt><trkpt lat="44.1391349" lon="10.3803281"><ele>381.0</ele><time>2026-04-07T12:12:47.923Z</time></trkpt><trkpt lat="44.139089" lon="10.3804309"><ele>380.3333333333333</ele><time>2026-04-07T12:12:48.929Z</time></trkpt><trkpt lat="44.1390343" lon="10.3805202"><ele>379.66666666666663</ele><time>2026-04-07T12:12:49.917Z</time></trkpt><trkpt lat="44.1389704" lon="10.3806042"><ele>379.0</ele><time>2026-04-07T12:12:50.913Z</time></trkpt><trkpt lat="44.1389007" lon="10.3806779"><ele>379.0</ele><time>2026-04-07T12:12:51.916Z</time></trkpt><trkpt lat="44.1388296" lon="10.3807446"><ele>379.0</ele><time>2026-04-07T12:12:52.905Z</time></trkpt><trkpt lat="44.1387543" lon="10.3808099"><ele>379.0</ele><time>2026-04-07T12:12:53.914Z</time></trkpt><trkpt lat="44.1386818" lon="10.380878"><ele>379.0</ele><time>2026-04-07T12:12:54.909Z</time></trkpt><trkpt lat="44.1386093" lon="10.3809515"><ele>379.0</ele><time>2026-04-07T12:12:55.917Z</time></trkpt><trkpt lat="44.1385381" lon="10.3810236"><ele>379.0</ele><time>2026-04-07T12:12:56.914Z</time></trkpt><trkpt lat="44.1384681" lon="10.3810933"><ele>379.0</ele><time>2026-04-07T12:12:57.908Z</time></trkpt><trkpt lat="44.138402" lon="10.3811747"><ele>379.0</ele><time>2026-04-07T12:12:58.927Z</time></trkpt><trkpt lat="44.1383412" lon="10.3812649"><ele>379.0</ele><time>2026-04-07T12:12:59.917Z</time></trkpt><trkpt lat="44.1382827" lon="10.3813614"><ele>379.0</ele><time>2026-04-07T12:13:00.919Z</time></trkpt><trkpt lat="44.1382225" lon="10.3814524"><ele>379.0</ele><time>2026-04-07T12:13:01.918Z</time></trkpt><trkpt lat="44.1381535" lon="10.3815425"><ele>377.2</ele><time>2026-04-07T12:13:02.91Z</time></trkpt><trkpt lat="44.1380761" lon="10.3816116"><ele>375.4</ele><time>2026-04-07T12:13:03.915Z</time></trkpt><trkpt lat="44.137991" lon="10.3816681"><ele>373.6</ele><time>2026-04-07T12:13:04.916Z</time></trkpt><trkpt lat="44.1379116" lon="10.3817324"><ele>371.8</ele><time>2026-04-07T12:13:05.903Z</time></trkpt><trkpt lat="44.1378514" lon="10.381815"><ele>370.0</ele><time>2026-04-07T12:13:06.906Z</time></trkpt><trkpt lat="44.1378018" lon="10.3819177"><ele>370.0</ele><time>2026-04-07T12:13:07.921Z</time></trkpt><trkpt lat="44.1377587" lon="10.3820332"><ele>370.0</ele><time>2026-04-07T12:13:08.914Z</time></trkpt><trkpt lat="44.1377097" lon="10.3821478"><ele>370.0</ele><time>2026-04-07T12:13:09.918Z</time></trkpt><trkpt lat="44.1376518" lon="10.3822591"><ele>370.0</ele><time>2026-04-07T12:13:10.916Z</time></trkpt><trkpt lat="44.1375877" lon="10.3823614"><ele>370.0</ele><time>2026-04-07T12:13:11.919Z</time></trkpt><trkpt lat="44.1375138" lon="10.3824539"><ele>369.4</ele><time>2026-04-07T12:13:12.917Z</time></trkpt><trkpt lat="44.1374373" lon="10.3825309"><ele>368.8</ele><time>2026-04-07T12:13:13.918Z</time></trkpt><trkpt lat="44.1373577" lon="10.3825952"><ele>368.20000000000005</ele><time>2026-04-07T12:13:14.922Z</time></trkpt><trkpt lat="44.137276" lon="10.382644"><ele>367.6</ele><time>2026-04-07T12:13:15.909Z</time></trkpt><trkpt lat="44.1371855" lon="10.3826901"><ele>367.0</ele><time>2026-04-07T12:13:16.921Z</time></trkpt><trkpt lat="44.1371033" lon="10.3827323"><ele>367.0</ele><time>2026-04-07T12:13:17.921Z</time></trkpt><trkpt lat="44.1370227" lon="10.3827709"><ele>367.0</ele><time>2026-04-07T12:13:18.915Z</time></trkpt><trkpt lat="44.1369436" lon="10.3828118"><ele>367.0</ele><time>2026-04-07T12:13:19.922Z</time></trkpt><trkpt lat="44.1368674" lon="10.3828549"><ele>367.0</ele><time>2026-04-07T12:13:20.907Z</time></trkpt><trkpt lat="44.1368047" lon="10.3829158"><ele>367.0</ele><time>2026-04-07T12:13:21.912Z</time></trkpt><trkpt lat="44.1367468" lon="10.3829884"><ele>367.0</ele><time>2026-04-07T12:13:22.916Z</time></trkpt><trkpt lat="44.1366928" lon="10.3830638"><ele>368.16666666666663</ele><time>2026-04-07T12:13:23.915Z</time></trkpt><trkpt lat="44.1366432" lon="10.3831461"><ele>369.3333333333333</ele><time>2026-04-07T12:13:24.919Z</time></trkpt><trkpt lat="44.1366063" lon="10.3832355"><ele>370.5</ele><time>2026-04-07T12:13:25.911Z</time></trkpt><trkpt lat="44.1365818" lon="10.3833327"><ele>371.6666666666667</ele><time>2026-04-07T12:13:26.911Z</time></trkpt><trkpt lat="44.1365645" lon="10.3834335"><ele>372.83333333333337</ele><time>2026-04-07T12:13:27.921Z</time></trkpt><trkpt lat="44.1365532" lon="10.3835441"><ele>374.0</ele><time>2026-04-07T12:13:28.905Z</time></trkpt><trkpt lat="44.136555" lon="10.3836488"><ele>374.0</ele><time>2026-04-07T12:13:29.923Z</time></trkpt><trkpt lat="44.136567" lon="10.3837562"><ele>374.0</ele><time>2026-04-07T12:13:30.91Z</time></trkpt><trkpt lat="44.1365802" lon="10.3838612"><ele>374.0</ele><time>2026-04-07T12:13:31.916Z</time></trkpt><trkpt lat="44.1365943" lon="10.3839709"><ele>374.0</ele><time>2026-04-07T12:13:32.923Z</time></trkpt><trkpt lat="44.1366112" lon="10.3840806"><ele>374.0</ele><time>2026-04-07T12:13:33.917Z</time></trkpt><trkpt lat="44.1366269" lon="10.384187"><ele>374.0</ele><time>2026-04-07T12:13:34.913Z</time></trkpt><trkpt lat="44.1366395" lon="10.3842959"><ele>374.0</ele><time>2026-04-07T12:13:35.922Z</time></trkpt><trkpt lat="44.1366543" lon="10.3844018"><ele>374.0</ele><time>2026-04-07T12:13:36.92Z</time></trkpt><trkpt lat="44.1366676" lon="10.3845094"><ele>374.0</ele><time>2026-04-07T12:13:37.909Z</time></trkpt><trkpt lat="44.1366815" lon="10.384619"><ele>374.0</ele><time>2026-04-07T12:13:38.905Z</time></trkpt><trkpt lat="44.1366944" lon="10.384728"><ele>374.0</ele><time>2026-04-07T12:13:39.915Z</time></trkpt><trkpt lat="44.1367091" lon="10.3848311"><ele>374.0</ele><time>2026-04-07T12:13:40.912Z</time></trkpt><trkpt lat="44.1367238" lon="10.3849358"><ele>373.0</ele><time>2026-04-07T12:13:41.905Z</time></trkpt><trkpt lat="44.1367377" lon="10.3850411"><ele>372.0</ele><time>2026-04-07T12:13:42.906Z</time></trkpt><trkpt lat="44.1367497" lon="10.3851438"><ele>371.0</ele><time>2026-04-07T12:13:43.913Z</time></trkpt><trkpt lat="44.1367648" lon="10.3852497"><ele>370.0</ele><time>2026-04-07T12:13:44.921Z</time></trkpt><trkpt lat="44.1367758" lon="10.3853549"><ele>369.0</ele><time>2026-04-07T12:13:45.914Z</time></trkpt><trkpt lat="44.1367921" lon="10.3854562"><ele>368.0</ele><time>2026-04-07T12:13:46.915Z</time></trkpt><trkpt lat="44.1368081" lon="10.3855574"><ele>367.33333333333337</ele><time>2026-04-07T12:13:47.931Z</time></trkpt><trkpt lat="44.136826" lon="10.3856616"><ele>366.6666666666667</ele><time>2026-04-07T12:13:48.909Z</time></trkpt><trkpt lat="44.1368398" lon="10.3857676"><ele>366.0</ele><time>2026-04-07T12:13:49.908Z</time></trkpt><trkpt lat="44.1368546" lon="10.3858744"><ele>365.3333333333333</ele><time>2026-04-07T12:13:50.914Z</time></trkpt><trkpt lat="44.1368665" lon="10.3859846"><ele>364.66666666666663</ele><time>2026-04-07T12:13:51.907Z</time></trkpt><trkpt lat="44.1368743" lon="10.3860902"><ele>364.0</ele><time>2026-04-07T12:13:52.907Z</time></trkpt><trkpt lat="44.1368546" lon="10.3862025"><ele>364.0</ele><time>2026-04-07T12:13:53.919Z</time></trkpt><trkpt lat="44.1368066" lon="10.3862983"><ele>364.0</ele><time>2026-04-07T12:13:54.914Z</time></trkpt><trkpt lat="44.1367335" lon="10.3863677"><ele>364.0</ele><time>2026-04-07T12:13:55.913Z</time></trkpt><trkpt lat="44.1366574" lon="10.3864106"><ele>364.0</ele><time>2026-04-07T12:13:56.918Z</time></trkpt><trkpt lat="44.1365795" lon="10.3864415"><ele>364.0</ele><time>2026-04-07T12:13:57.907Z</time></trkpt><trkpt lat="44.1365015" lon="10.3864696"><ele>364.0</ele><time>2026-04-07T12:13:58.912Z</time></trkpt><trkpt lat="44.1364196" lon="10.3865029"><ele>363.16666666666663</ele><time>2026-04-07T12:13:59.93Z</time></trkpt><trkpt lat="44.1363364" lon="10.3865365"><ele>362.3333333333333</ele><time>2026-04-07T12:14:00.914Z</time></trkpt><trkpt lat="44.1362526" lon="10.3865723"><ele>361.5</ele><time>2026-04-07T12:14:01.92Z</time></trkpt><trkpt lat="44.1361687" lon="10.3866078"><ele>360.6666666666667</ele><time>2026-04-07T12:14:02.907Z</time></trkpt><trkpt lat="44.1360876" lon="10.3866425"><ele>359.83333333333337</ele><time>2026-04-07T12:14:03.914Z</time></trkpt><trkpt lat="44.1360047" lon="10.386674"><ele>359.0</ele><time>2026-04-07T12:14:04.909Z</time></trkpt><trkpt lat="44.1359206" lon="10.3867138"><ele>359.0</ele><time>2026-04-07T12:14:05.911Z</time></trkpt><trkpt lat="44.1358374" lon="10.3867492"><ele>359.0</ele><time>2026-04-07T12:14:06.916Z</time></trkpt><trkpt lat="44.1357483" lon="10.3867849"><ele>359.0</ele><time>2026-04-07T12:14:07.922Z</time></trkpt><trkpt lat="44.1356659" lon="10.3868167"><ele>359.0</ele><time>2026-04-07T12:14:08.915Z</time></trkpt><trkpt lat="44.1355866" lon="10.3868511"><ele>359.0</ele><time>2026-04-07T12:14:09.909Z</time></trkpt><trkpt lat="44.1355117" lon="10.3868832"><ele>359.0</ele><time>2026-04-07T12:14:10.916Z</time></trkpt><trkpt lat="44.1354401" lon="10.3869259"><ele>358.33333333333337</ele><time>2026-04-07T12:14:11.914Z</time></trkpt><trkpt lat="44.1353744" lon="10.3869853"><ele>357.6666666666667</ele><time>2026-04-07T12:14:12.916Z</time></trkpt><trkpt lat="44.1353143" lon="10.3870609"><ele>357.0</ele><time>2026-04-07T12:14:13.931Z</time></trkpt><trkpt lat="44.1352699" lon="10.3871513"><ele>356.3333333333333</ele><time>2026-04-07T12:14:14.908Z</time></trkpt><trkpt lat="44.1352334" lon="10.3872492"><ele>355.66666666666663</ele><time>2026-04-07T12:14:15.928Z</time></trkpt><trkpt lat="44.1351962" lon="10.3873541"><ele>355.0</ele><time>2026-04-07T12:14:16.911Z</time></trkpt><trkpt lat="44.1351635" lon="10.3874654"><ele>355.0</ele><time>2026-04-07T12:14:17.905Z</time></trkpt><trkpt lat="44.1351297" lon="10.387574"><ele>355.0</ele><time>2026-04-07T12:14:18.92Z</time></trkpt><trkpt lat="44.1350961" lon="10.3876793"><ele>355.0</ele><time>2026-04-07T12:14:19.91Z</time></trkpt><trkpt lat="44.1350592" lon="10.3877891"><ele>355.0</ele><time>2026-04-07T12:14:20.907Z</time></trkpt><trkpt lat="44.1350231" lon="10.3879007"><ele>355.0</ele><time>2026-04-07T12:14:21.911Z</time></trkpt><trkpt lat="44.1349868" lon="10.3880048"><ele>355.0</ele><time>2026-04-07T12:14:22.908Z</time></trkpt><trkpt lat="44.1349509" lon="10.3881168"><ele>355.3333333333333</ele><time>2026-04-07T12:14:23.918Z</time></trkpt><trkpt lat="44.1349135" lon="10.3882285"><ele>355.66666666666663</ele><time>2026-04-07T12:14:24.921Z</time></trkpt><trkpt lat="44.1348796" lon="10.3883438"><ele>356.0</ele><time>2026-04-07T12:14:25.907Z</time></trkpt><trkpt lat="44.134846" lon="10.3884593"><ele>356.3333333333333</ele><time>2026-04-07T12:14:26.914Z</time></trkpt><trkpt lat="44.1348206" lon="10.3885785"><ele>356.6666666666667</ele><time>2026-04-07T12:14:27.933Z</time></trkpt><trkpt lat="44.1348057" lon="10.3887021"><ele>357.0</ele><time>2026-04-07T12:14:28.915Z</time></trkpt><trkpt lat="44.1347953" lon="10.3888284"><ele>353.8</ele><time>2026-04-07T12:14:29.919Z</time></trkpt><trkpt lat="44.1347883" lon="10.3889541"><ele>350.6</ele><time>2026-04-07T12:14:30.915Z</time></trkpt><trkpt lat="44.1347716" lon="10.3890795"><ele>347.40000000000003</ele><time>2026-04-07T12:14:31.91Z</time></trkpt><trkpt lat="44.1347473" lon="10.3892093"><ele>344.20000000000005</ele><time>2026-04-07T12:14:32.914Z</time></trkpt><trkpt lat="44.1347121" lon="10.3893347"><ele>341.0</ele><time>2026-04-07T12:14:33.917Z</time></trkpt><trkpt lat="44.1346743" lon="10.3894569"><ele>341.0</ele><time>2026-04-07T12:14:34.926Z</time></trkpt><trkpt lat="44.1346386" lon="10.3895772"><ele>341.0</ele><time>2026-04-07T12:14:35.934Z</time></trkpt><trkpt lat="44.1345963" lon="10.3897016"><ele>341.0</ele><time>2026-04-07T12:14:36.909Z</time></trkpt><trkpt lat="44.1345777" lon="10.3898329"><ele>341.0</ele><time>2026-04-07T12:14:37.909Z</time></trkpt><trkpt lat="44.1345851" lon="10.3899656"><ele>341.0</ele><time>2026-04-07T12:14:38.92Z</time></trkpt><trkpt lat="44.1346188" lon="10.3900944"><ele>338.8</ele><time>2026-04-07T12:14:39.924Z</time></trkpt><trkpt lat="44.1346628" lon="10.3902219"><ele>336.6</ele><time>2026-04-07T12:14:40.911Z</time></trkpt><trkpt lat="44.134707" lon="10.3903465"><ele>334.4</ele><time>2026-04-07T12:14:41.915Z</time></trkpt><trkpt lat="44.1347559" lon="10.3904737"><ele>332.2</ele><time>2026-04-07T12:14:42.925Z</time></trkpt><trkpt lat="44.1348054" lon="10.3906017"><ele>330.0</ele><time>2026-04-07T12:14:43.924Z</time></trkpt><trkpt lat="44.1348558" lon="10.3907369"><ele>330.6</ele><time>2026-04-07T12:14:44.928Z</time></trkpt><trkpt lat="44.1349109" lon="10.3908692"><ele>331.2</ele><time>2026-04-07T12:14:45.918Z</time></trkpt><trkpt lat="44.1349689" lon="10.390997"><ele>331.79999999999995</ele><time>2026-04-07T12:14:46.933Z</time></trkpt><trkpt lat="44.1350308" lon="10.39113"><ele>332.4</ele><time>2026-04-07T12:14:47.937Z</time></trkpt><trkpt lat="44.1350979" lon="10.3912635"><ele>333.0</ele><time>2026-04-07T12:14:48.92Z</time></trkpt><trkpt lat="44.1351675" lon="10.3913996"><ele>333.0</ele><time>2026-04-07T12:14:49.929Z</time></trkpt><trkpt lat="44.1352349" lon="10.3915283"><ele>333.0</ele><time>2026-04-07T12:14:50.921Z</time></trkpt><trkpt lat="44.1353011" lon="10.3916481"><ele>333.0</ele><time>2026-04-07T12:14:51.905Z</time></trkpt><trkpt lat="44.1353601" lon="10.3917574"><ele>333.0</ele><time>2026-04-07T12:14:52.935Z</time></trkpt><trkpt lat="44.1354178" lon="10.3918596"><ele>333.0</ele><time>2026-04-07T12:14:53.907Z</time></trkpt><trkpt lat="44.1354665" lon="10.3919678"><ele>333.0</ele><time>2026-04-07T12:14:54.912Z</time></trkpt><trkpt lat="44.1354867" lon="10.3920905"><ele>333.0</ele><time>2026-04-07T12:14:55.924Z</time></trkpt><trkpt lat="44.1354798" lon="10.3922214"><ele>333.0</ele><time>2026-04-07T12:14:56.918Z</time></trkpt><trkpt lat="44.1354376" lon="10.3923389"><ele>333.0</ele><time>2026-04-07T12:14:57.928Z</time></trkpt><trkpt lat="44.1353694" lon="10.3924335"><ele>333.0</ele><time>2026-04-07T12:14:58.917Z</time></trkpt><trkpt lat="44.1352893" lon="10.3925106"><ele>333.1666666666667</ele><time>2026-04-07T12:14:59.911Z</time></trkpt><trkpt lat="44.1352123" lon="10.3925904"><ele>333.3333333333333</ele><time>2026-04-07T12:15:00.928Z</time></trkpt><trkpt lat="44.1351342" lon="10.3926618"><ele>333.5</ele><time>2026-04-07T12:15:01.936Z</time></trkpt><trkpt lat="44.1350534" lon="10.3927188"><ele>333.66666666666663</ele><time>2026-04-07T12:15:02.905Z</time></trkpt><trkpt lat="44.1349718" lon="10.3927467"><ele>333.8333333333333</ele><time>2026-04-07T12:15:03.919Z</time></trkpt><trkpt lat="44.1348931" lon="10.392763"><ele>334.0</ele><time>2026-04-07T12:15:04.925Z</time></trkpt><trkpt lat="44.1348258" lon="10.3927696"><ele>334.5</ele><time>2026-04-07T12:15:05.916Z</time></trkpt><trkpt lat="44.1347072" lon="10.3927675"><ele>335.0</ele><time>2026-04-07T12:15:07.908Z</time></trkpt><trkpt lat="44.1346135" lon="10.3927715"><ele>335.5</ele><time>2026-04-07T12:15:09.905Z</time></trkpt><trkpt lat="44.1345326" lon="10.3927953"><ele>336.0</ele><time>2026-04-07T12:15:11.911Z</time></trkpt><trkpt lat="44.1344586" lon="10.3928201"><ele>336.5</ele><time>2026-04-07T12:15:13.906Z</time></trkpt><trkpt lat="44.1343979" lon="10.3928602"><ele>337.0</ele><time>2026-04-07T12:15:15.909Z</time></trkpt><trkpt lat="44.1343388" lon="10.3929024"><ele>337.00000000000006</ele><time>2026-04-07T12:15:17.915Z</time></trkpt><trkpt lat="44.1342777" lon="10.3929531"><ele>337.0</ele><time>2026-04-07T12:15:19.916Z</time></trkpt><trkpt lat="44.134213" lon="10.392997"><ele>337.0</ele><time>2026-04-07T12:15:21.914Z</time></trkpt><trkpt lat="44.1341456" lon="10.3930273"><ele>337.0</ele><time>2026-04-07T12:15:23.916Z</time></trkpt><trkpt lat="44.1340755" lon="10.39304"><ele>337.0</ele><time>2026-04-07T12:15:25.908Z</time></trkpt><trkpt lat="44.1340062" lon="10.3930415"><ele>337.00000000000006</ele><time>2026-04-07T12:15:27.924Z</time></trkpt><trkpt lat="44.1339354" lon="10.3930326"><ele>337.0</ele><time>2026-04-07T12:15:29.917Z</time></trkpt><trkpt lat="44.1338665" lon="10.3930241"><ele>337.8571428571429</ele><time>2026-04-07T12:15:31.931Z</time></trkpt><trkpt lat="44.1337992" lon="10.3930138"><ele>338.7142857142857</ele><time>2026-04-07T12:15:33.915Z</time></trkpt><trkpt lat="44.133735" lon="10.392999"><ele>339.57142857142856</ele><time>2026-04-07T12:15:35.919Z</time></trkpt><trkpt lat="44.133644" lon="10.3929689"><ele>340.42857142857144</ele><time>2026-04-07T12:15:38.912Z</time></trkpt><trkpt lat="44.1335789" lon="10.3929361"><ele>341.2857142857143</ele><time>2026-04-07T12:15:40.915Z</time></trkpt><trkpt lat="44.1335151" lon="10.3928975"><ele>342.14285714285717</ele><time>2026-04-07T12:15:42.917Z</time></trkpt><trkpt lat="44.1334438" lon="10.3928559"><ele>343.0</ele><time>2026-04-07T12:15:44.932Z</time></trkpt><trkpt lat="44.1333748" lon="10.3928181"><ele>343.0</ele><time>2026-04-07T12:15:46.921Z</time></trkpt><trkpt lat="44.1333053" lon="10.392783"><ele>343.0</ele><time>2026-04-07T12:15:48.919Z</time></trkpt><trkpt lat="44.1332345" lon="10.3927416"><ele>343.0</ele><time>2026-04-07T12:15:50.916Z</time></trkpt><trkpt lat="44.1331656" lon="10.3927093"><ele>343.0</ele><time>2026-04-07T12:15:52.917Z</time></trkpt><trkpt lat="44.1330974" lon="10.3926753"><ele>343.0</ele><time>2026-04-07T12:15:54.907Z</time></trkpt><trkpt lat="44.1330301" lon="10.3926346"><ele>343.0</ele><time>2026-04-07T12:15:56.917Z</time></trkpt><trkpt lat="44.1329643" lon="10.3926014"><ele>343.0</ele><time>2026-04-07T12:15:58.916Z</time></trkpt><trkpt lat="44.1328728" lon="10.3925739"><ele>343.7142857142857</ele><time>2026-04-07T12:16:01.902Z</time></trkpt><trkpt lat="44.1328075" lon="10.3925754"><ele>344.42857142857144</ele><time>2026-04-07T12:16:03.91Z</time></trkpt><trkpt lat="44.1327146" lon="10.3925916"><ele>345.1428571428571</ele><time>2026-04-07T12:16:06.907Z</time></trkpt><trkpt lat="44.1326497" lon="10.3926065"><ele>345.8571428571429</ele><time>2026-04-07T12:16:08.915Z</time></trkpt><trkpt lat="44.1325826" lon="10.3926228"><ele>346.57142857142856</ele><time>2026-04-07T12:16:10.913Z</time></trkpt><trkpt lat="44.132515" lon="10.3926413"><ele>347.2857142857143</ele><time>2026-04-07T12:16:12.912Z</time></trkpt><trkpt lat="44.1324478" lon="10.3926556"><ele>348.0</ele><time>2026-04-07T12:16:14.907Z</time></trkpt><trkpt lat="44.1323798" lon="10.3926689"><ele>349.2857142857143</ele><time>2026-04-07T12:16:16.922Z</time></trkpt><trkpt lat="44.1323104" lon="10.3926811"><ele>350.57142857142856</ele><time>2026-04-07T12:16:18.914Z</time></trkpt><trkpt lat="44.1322406" lon="10.3926793"><ele>351.8571428571429</ele><time>2026-04-07T12:16:20.92Z</time></trkpt><trkpt lat="44.1321707" lon="10.3926627"><ele>353.1428571428571</ele><time>2026-04-07T12:16:22.911Z</time></trkpt><trkpt lat="44.1321003" lon="10.3926399"><ele>354.42857142857144</ele><time>2026-04-07T12:16:24.913Z</time></trkpt><trkpt lat="44.1320281" lon="10.3925995"><ele>355.7142857142857</ele><time>2026-04-07T12:16:26.911Z</time></trkpt><trkpt lat="44.1319601" lon="10.3925505"><ele>357.0</ele><time>2026-04-07T12:16:28.906Z</time></trkpt><trkpt lat="44.1318921" lon="10.3924952"><ele>357.0</ele><time>2026-04-07T12:16:30.915Z</time></trkpt><trkpt lat="44.1318238" lon="10.3924407"><ele>357.0</ele><time>2026-04-07T12:16:32.918Z</time></trkpt><trkpt lat="44.1317547" lon="10.3923876"><ele>357.0</ele><time>2026-04-07T12:16:34.922Z</time></trkpt><trkpt lat="44.1316864" lon="10.3923371"><ele>357.0</ele><time>2026-04-07T12:16:36.923Z</time></trkpt><trkpt lat="44.1316247" lon="10.392284"><ele>357.0</ele><time>2026-04-07T12:16:38.918Z</time></trkpt><trkpt lat="44.131547" lon="10.3922192"><ele>357.0</ele><time>2026-04-07T12:16:41.919Z</time></trkpt><trkpt lat="44.1314907" lon="10.3921793"><ele>354.85714285714283</ele><time>2026-04-07T12:16:43.913Z</time></trkpt><trkpt lat="44.1314266" lon="10.3921455"><ele>352.7142857142857</ele><time>2026-04-07T12:16:45.919Z</time></trkpt><trkpt lat="44.1313562" lon="10.3921225"><ele>350.57142857142856</ele><time>2026-04-07T12:16:47.922Z</time></trkpt><trkpt lat="44.1312843" lon="10.3920977"><ele>348.42857142857144</ele><time>2026-04-07T12:16:49.92Z</time></trkpt><trkpt lat="44.1312145" lon="10.3920803"><ele>346.2857142857143</ele><time>2026-04-07T12:16:51.908Z</time></trkpt><trkpt lat="44.1311437" lon="10.3920669"><ele>344.1428571428571</ele><time>2026-04-07T12:16:53.915Z</time></trkpt><trkpt lat="44.1310674" lon="10.3920467"><ele>342.0</ele><time>2026-04-07T12:16:55.912Z</time></trkpt><trkpt lat="44.1309913" lon="10.392029"><ele>342.0</ele><time>2026-04-07T12:16:57.921Z</time></trkpt><trkpt lat="44.1309168" lon="10.3920051"><ele>342.0</ele><time>2026-04-07T12:16:59.913Z</time></trkpt><trkpt lat="44.1308389" lon="10.3919825"><ele>342.0</ele><time>2026-04-07T12:17:01.921Z</time></trkpt><trkpt lat="44.1307653" lon="10.3919675"><ele>342.0</ele><time>2026-04-07T12:17:03.908Z</time></trkpt><trkpt lat="44.130682" lon="10.3919684"><ele>342.0</ele><time>2026-04-07T12:17:05.914Z</time></trkpt><trkpt lat="44.1305851" lon="10.3919839"><ele>342.0</ele><time>2026-04-07T12:17:07.918Z</time></trkpt><trkpt lat="44.1304836" lon="10.3920023"><ele>341.20000000000005</ele><time>2026-04-07T12:17:09.93Z</time></trkpt><trkpt lat="44.1303751" lon="10.3920236"><ele>340.4</ele><time>2026-04-07T12:17:11.909Z</time></trkpt><trkpt lat="44.1302604" lon="10.3920595"><ele>339.6</ele><time>2026-04-07T12:17:13.915Z</time></trkpt><trkpt lat="44.1301983" lon="10.3920766"><ele>338.79999999999995</ele><time>2026-04-07T12:17:14.932Z</time></trkpt><trkpt lat="44.1300793" lon="10.3921057"><ele>338.0</ele><time>2026-04-07T12:17:16.919Z</time></trkpt><trkpt lat="44.1300151" lon="10.3921248"><ele>338.0</ele><time>2026-04-07T12:17:17.937Z</time></trkpt><trkpt lat="44.1299469" lon="10.3921427"><ele>338.0</ele><time>2026-04-07T12:17:18.922Z</time></trkpt><trkpt lat="44.1298241" lon="10.3921875"><ele>338.0</ele><time>2026-04-07T12:17:20.915Z</time></trkpt><trkpt lat="44.1297617" lon="10.3922217"><ele>338.0</ele><time>2026-04-07T12:17:21.92Z</time></trkpt><trkpt lat="44.1297041" lon="10.3922633"><ele>338.0</ele><time>2026-04-07T12:17:22.922Z</time></trkpt><trkpt lat="44.1296016" lon="10.3923665"><ele>337.5</ele><time>2026-04-07T12:17:24.933Z</time></trkpt><trkpt lat="44.1295161" lon="10.3925028"><ele>337.0</ele><time>2026-04-07T12:17:26.915Z</time></trkpt><trkpt lat="44.1294724" lon="10.3925665"><ele>336.5</ele><time>2026-04-07T12:17:27.921Z</time></trkpt><trkpt lat="44.1294277" lon="10.3926293"><ele>336.0</ele><time>2026-04-07T12:17:28.931Z</time></trkpt><trkpt lat="44.1293837" lon="10.3927058"><ele>335.5</ele><time>2026-04-07T12:17:29.916Z</time></trkpt><trkpt lat="44.1293369" lon="10.3927826"><ele>335.0</ele><time>2026-04-07T12:17:30.918Z</time></trkpt><trkpt lat="44.129295" lon="10.3928558"><ele>334.99999999999994</ele><time>2026-04-07T12:17:31.909Z</time></trkpt><trkpt lat="44.129247" lon="10.392925"><ele>335.0</ele><time>2026-04-07T12:17:32.909Z</time></trkpt><trkpt lat="44.1291991" lon="10.3929901"><ele>335.0</ele><time>2026-04-07T12:17:33.919Z</time></trkpt><trkpt lat="44.1291475" lon="10.3930664"><ele>335.0</ele><time>2026-04-07T12:17:34.923Z</time></trkpt><trkpt lat="44.1290941" lon="10.3931306"><ele>335.0</ele><time>2026-04-07T12:17:35.918Z</time></trkpt><trkpt lat="44.129039" lon="10.3931876"><ele>334.99999999999994</ele><time>2026-04-07T12:17:36.921Z</time></trkpt><trkpt lat="44.128978" lon="10.3932483"><ele>335.0</ele><time>2026-04-07T12:17:37.922Z</time></trkpt><trkpt lat="44.1289194" lon="10.3933019"><ele>334.71428571428567</ele><time>2026-04-07T12:17:38.921Z</time></trkpt><trkpt lat="44.1288576" lon="10.3933496"><ele>334.42857142857144</ele><time>2026-04-07T12:17:39.914Z</time></trkpt><trkpt lat="44.1287961" lon="10.3933953"><ele>334.1428571428571</ele><time>2026-04-07T12:17:40.924Z</time></trkpt><trkpt lat="44.1287313" lon="10.3934368"><ele>333.85714285714283</ele><time>2026-04-07T12:17:41.921Z</time></trkpt><trkpt lat="44.1286614" lon="10.39347"><ele>333.57142857142856</ele><time>2026-04-07T12:17:42.922Z</time></trkpt><trkpt lat="44.1285946" lon="10.3934967"><ele>333.2857142857143</ele><time>2026-04-07T12:17:43.919Z</time></trkpt><trkpt lat="44.1285221" lon="10.3935274"><ele>333.0</ele><time>2026-04-07T12:17:44.918Z</time></trkpt><trkpt lat="44.1284516" lon="10.393553"><ele>333.0</ele><time>2026-04-07T12:17:45.931Z</time></trkpt><trkpt lat="44.1283779" lon="10.3935786"><ele>333.0</ele><time>2026-04-07T12:17:46.921Z</time></trkpt><trkpt lat="44.1283073" lon="10.3936065"><ele>333.0</ele><time>2026-04-07T12:17:47.928Z</time></trkpt><trkpt lat="44.1282305" lon="10.3936334"><ele>333.0</ele><time>2026-04-07T12:17:48.929Z</time></trkpt><trkpt lat="44.1281572" lon="10.3936561"><ele>333.0</ele><time>2026-04-07T12:17:49.924Z</time></trkpt><trkpt lat="44.1280862" lon="10.3936864"><ele>333.0</ele><time>2026-04-07T12:17:50.922Z</time></trkpt><trkpt lat="44.1280109" lon="10.3937185"><ele>331.5</ele><time>2026-04-07T12:17:51.918Z</time></trkpt><trkpt lat="44.1279405" lon="10.3937528"><ele>330.0</ele><time>2026-04-07T12:17:52.922Z</time></trkpt><trkpt lat="44.1278683" lon="10.3938004"><ele>328.5</ele><time>2026-04-07T12:17:53.917Z</time></trkpt><trkpt lat="44.1278067" lon="10.3938587"><ele>327.0</ele><time>2026-04-07T12:17:54.915Z</time></trkpt><trkpt lat="44.1277549" lon="10.3939327"><ele>325.5</ele><time>2026-04-07T12:17:55.92Z</time></trkpt><trkpt lat="44.1277152" lon="10.3940198"><ele>324.0</ele><time>2026-04-07T12:17:56.919Z</time></trkpt><trkpt lat="44.1276896" lon="10.3941171"><ele>324.0</ele><time>2026-04-07T12:17:57.915Z</time></trkpt><trkpt lat="44.1276723" lon="10.3942197"><ele>324.0</ele><time>2026-04-07T12:17:58.919Z</time></trkpt><trkpt lat="44.1276636" lon="10.3943203"><ele>324.0</ele><time>2026-04-07T12:17:59.917Z</time></trkpt><trkpt lat="44.1276538" lon="10.394425"><ele>324.0</ele><time>2026-04-07T12:18:00.92Z</time></trkpt><trkpt lat="44.1276435" lon="10.3945302"><ele>324.0</ele><time>2026-04-07T12:18:01.925Z</time></trkpt><trkpt lat="44.1276333" lon="10.3946337"><ele>324.0</ele><time>2026-04-07T12:18:02.907Z</time></trkpt><trkpt lat="44.1276188" lon="10.3947402"><ele>324.1666666666667</ele><time>2026-04-07T12:18:03.912Z</time></trkpt><trkpt lat="44.1276034" lon="10.3948466"><ele>324.3333333333333</ele><time>2026-04-07T12:18:04.925Z</time></trkpt><trkpt lat="44.1275884" lon="10.3949572"><ele>324.5</ele><time>2026-04-07T12:18:05.918Z</time></trkpt><trkpt lat="44.1275781" lon="10.3950627"><ele>324.66666666666663</ele><time>2026-04-07T12:18:06.918Z</time></trkpt><trkpt lat="44.127569" lon="10.3951681"><ele>324.8333333333333</ele><time>2026-04-07T12:18:07.922Z</time></trkpt><trkpt lat="44.1275537" lon="10.395277"><ele>325.0</ele><time>2026-04-07T12:18:08.923Z</time></trkpt><trkpt lat="44.1275419" lon="10.395388"><ele>325.0</ele><time>2026-04-07T12:18:09.919Z</time></trkpt><trkpt lat="44.1275282" lon="10.3954949"><ele>325.0</ele><time>2026-04-07T12:18:10.929Z</time></trkpt><trkpt lat="44.1275149" lon="10.3956018"><ele>325.0</ele><time>2026-04-07T12:18:11.925Z</time></trkpt><trkpt lat="44.1274946" lon="10.3957104"><ele>325.0</ele><time>2026-04-07T12:18:12.914Z</time></trkpt><trkpt lat="44.1274697" lon="10.3958124"><ele>325.0</ele><time>2026-04-07T12:18:13.915Z</time></trkpt><trkpt lat="44.1274392" lon="10.3959078"><ele>325.0</ele><time>2026-04-07T12:18:14.919Z</time></trkpt><trkpt lat="44.1274052" lon="10.3959995"><ele>324.0</ele><time>2026-04-07T12:18:15.92Z</time></trkpt><trkpt lat="44.127362" lon="10.3960851"><ele>323.0</ele><time>2026-04-07T12:18:16.923Z</time></trkpt><trkpt lat="44.1273224" lon="10.3961688"><ele>322.0</ele><time>2026-04-07T12:18:17.921Z</time></trkpt><trkpt lat="44.1272817" lon="10.3962499"><ele>321.0</ele><time>2026-04-07T12:18:18.928Z</time></trkpt><trkpt lat="44.1272415" lon="10.3963229"><ele>320.0</ele><time>2026-04-07T12:18:19.917Z</time></trkpt><trkpt lat="44.1272008" lon="10.3964031"><ele>319.0</ele><time>2026-04-07T12:18:20.922Z</time></trkpt><trkpt lat="44.1271587" lon="10.3964806"><ele>318.0</ele><time>2026-04-07T12:18:21.916Z</time></trkpt><trkpt lat="44.12712" lon="10.3965569"><ele>318.0</ele><time>2026-04-07T12:18:22.92Z</time></trkpt><trkpt lat="44.1270782" lon="10.396637"><ele>318.0</ele><time>2026-04-07T12:18:23.923Z</time></trkpt><trkpt lat="44.1270352" lon="10.3967166"><ele>318.0</ele><time>2026-04-07T12:18:24.923Z</time></trkpt><trkpt lat="44.1269946" lon="10.3967944"><ele>318.0</ele><time>2026-04-07T12:18:25.925Z</time></trkpt><trkpt lat="44.1269547" lon="10.3968716"><ele>318.0</ele><time>2026-04-07T12:18:26.917Z</time></trkpt><trkpt lat="44.1268785" lon="10.3970327"><ele>318.0</ele><time>2026-04-07T12:18:28.921Z</time></trkpt><trkpt lat="44.1268373" lon="10.3971184"><ele>319.1666666666667</ele><time>2026-04-07T12:18:29.931Z</time></trkpt><trkpt lat="44.1267968" lon="10.3972"><ele>320.3333333333333</ele><time>2026-04-07T12:18:30.918Z</time></trkpt><trkpt lat="44.1267564" lon="10.3972809"><ele>321.5</ele><time>2026-04-07T12:18:31.916Z</time></trkpt><trkpt lat="44.1267139" lon="10.3973561"><ele>322.66666666666663</ele><time>2026-04-07T12:18:32.909Z</time></trkpt><trkpt lat="44.1266699" lon="10.3974216"><ele>323.8333333333333</ele><time>2026-04-07T12:18:33.92Z</time></trkpt><trkpt lat="44.1265926" lon="10.3975397"><ele>325.0</ele><time>2026-04-07T12:18:35.917Z</time></trkpt><trkpt lat="44.1265364" lon="10.3976348"><ele>324.57142857142856</ele><time>2026-04-07T12:18:37.922Z</time></trkpt><trkpt lat="44.1264789" lon="10.3977222"><ele>324.14285714285717</ele><time>2026-04-07T12:18:40.918Z</time></trkpt><trkpt lat="44.1264527" lon="10.3978035"><ele>323.7142857142857</ele><time>2026-04-07T12:18:42.921Z</time></trkpt><trkpt lat="44.1264719" lon="10.3978919"><ele>323.2857142857143</ele><time>2026-04-07T12:18:44.911Z</time></trkpt><trkpt lat="44.1265074" lon="10.3979781"><ele>322.8571428571429</ele><time>2026-04-07T12:18:46.909Z</time></trkpt><trkpt lat="44.1265501" lon="10.3980514"><ele>322.42857142857144</ele><time>2026-04-07T12:18:48.911Z</time></trkpt><trkpt lat="44.1265962" lon="10.3981322"><ele>322.0</ele><time>2026-04-07T12:18:50.934Z</time></trkpt><trkpt lat="44.1266404" lon="10.398236"><ele>322.0</ele><time>2026-04-07T12:18:52.906Z</time></trkpt><trkpt lat="44.1266837" lon="10.3983568"><ele>322.0</ele><time>2026-04-07T12:18:54.907Z</time></trkpt><trkpt lat="44.1267323" lon="10.3984794"><ele>322.0</ele><time>2026-04-07T12:18:56.914Z</time></trkpt><trkpt lat="44.1267882" lon="10.3986067"><ele>322.0</ele><time>2026-04-07T12:18:58.91Z</time></trkpt><trkpt lat="44.1268419" lon="10.3987572"><ele>322.0</ele><time>2026-04-07T12:19:00.945Z</time></trkpt><trkpt lat="44.1268779" lon="10.3988325"><ele>320.85714285714283</ele><time>2026-04-07T12:19:01.907Z</time></trkpt><trkpt lat="44.1269132" lon="10.3989118"><ele>319.7142857142857</ele><time>2026-04-07T12:19:02.914Z</time></trkpt><trkpt lat="44.1269493" lon="10.3989907"><ele>318.57142857142856</ele><time>2026-04-07T12:19:03.911Z</time></trkpt><trkpt lat="44.1269844" lon="10.399073"><ele>317.42857142857144</ele><time>2026-04-07T12:19:04.927Z</time></trkpt><trkpt lat="44.127011" lon="10.3991626"><ele>316.2857142857143</ele><time>2026-04-07T12:19:05.908Z</time></trkpt><trkpt lat="44.1270335" lon="10.3992591"><ele>315.1428571428571</ele><time>2026-04-07T12:19:06.916Z</time></trkpt><trkpt lat="44.1270246" lon="10.3993627"><ele>314.0</ele><time>2026-04-07T12:19:07.91Z</time></trkpt><trkpt lat="44.126987" lon="10.3994517"><ele>314.0</ele><time>2026-04-07T12:19:08.909Z</time></trkpt><trkpt lat="44.1269312" lon="10.3995132"><ele>314.0</ele><time>2026-04-07T12:19:09.907Z</time></trkpt><trkpt lat="44.1268697" lon="10.3995576"><ele>314.0</ele><time>2026-04-07T12:19:10.93Z</time></trkpt><trkpt lat="44.1268085" lon="10.3995865"><ele>314.0</ele><time>2026-04-07T12:19:11.91Z</time></trkpt><trkpt lat="44.1266989" lon="10.399634"><ele>314.0</ele><time>2026-04-07T12:19:13.916Z</time></trkpt><trkpt lat="44.1265988" lon="10.399667"><ele>314.0</ele><time>2026-04-07T12:19:15.914Z</time></trkpt><trkpt lat="44.1265184" lon="10.3997017"><ele>315.0</ele><time>2026-04-07T12:19:17.908Z</time></trkpt><trkpt lat="44.1264564" lon="10.3997251"><ele>316.0</ele><time>2026-04-07T12:19:19.908Z</time></trkpt><trkpt lat="44.1263949" lon="10.3997477"><ele>317.0</ele><time>2026-04-07T12:19:21.912Z</time></trkpt><trkpt lat="44.1263178" lon="10.3997808"><ele>318.0</ele><time>2026-04-07T12:19:24.916Z</time></trkpt><trkpt lat="44.1262374" lon="10.3998112"><ele>319.0</ele><time>2026-04-07T12:19:27.927Z</time></trkpt><trkpt lat="44.1261581" lon="10.3998555"><ele>320.0</ele><time>2026-04-07T12:19:30.922Z</time></trkpt><trkpt lat="44.1260795" lon="10.3998825"><ele>320.0</ele><time>2026-04-07T12:19:33.921Z</time></trkpt><trkpt lat="44.126002" lon="10.3999407"><ele>320.0</ele><time>2026-04-07T12:19:36.919Z</time></trkpt><trkpt lat="44.125936" lon="10.4000153"><ele>320.0</ele><time>2026-04-07T12:19:39.913Z</time></trkpt><trkpt lat="44.1258792" lon="10.4000895"><ele>320.0</ele><time>2026-04-07T12:19:42.922Z</time></trkpt><trkpt lat="44.1258556" lon="10.4001786"><ele>320.0</ele><time>2026-04-07T12:19:45.92Z</time></trkpt><trkpt lat="44.1258843" lon="10.4002672"><ele>320.0</ele><time>2026-04-07T12:19:48.91Z</time></trkpt><trkpt lat="44.125926" lon="10.4003512"><ele>320.0</ele><time>2026-04-07T12:19:52.906Z</time></trkpt><trkpt lat="44.1259597" lon="10.4004315"><ele>320.0</ele><time>2026-04-07T12:19:56.926Z</time></trkpt><trkpt lat="44.1260296" lon="10.4004852"><ele>320.0</ele><time>2026-04-07T12:20:00.929Z</time></trkpt><trkpt lat="44.125962" lon="10.4004395"><ele>320.0</ele><time>2026-04-07T12:20:07.922Z</time></trkpt><trkpt lat="44.1258892" lon="10.4004492"><ele>320.0</ele><time>2026-04-07T12:20:10.924Z</time></trkpt><trkpt lat="44.125825" lon="10.4004314"><ele>320.0</ele><time>2026-04-07T12:20:14.919Z</time></trkpt><trkpt lat="44.1258146" lon="10.4003274"><ele>320.0</ele><time>2026-04-07T12:20:17.922Z</time></trkpt><trkpt lat="44.1258007" lon="10.4002211"><ele>320.0</ele><time>2026-04-07T12:20:20.917Z</time></trkpt><trkpt lat="44.1257846" lon="10.4001232"><ele>320.0</ele><time>2026-04-07T12:20:23.915Z</time></trkpt><trkpt lat="44.1257607" lon="10.4000371"><ele>320.0</ele><time>2026-04-07T12:20:27.904Z</time></trkpt><trkpt lat="44.1257493" lon="10.4001237"><ele>320.0</ele><time>2026-04-07T12:20:31.906Z</time></trkpt><trkpt lat="44.1257688" lon="10.4002239"><ele>320.0</ele><time>2026-04-07T12:20:35.911Z</time></trkpt><trkpt lat="44.1257763" lon="10.4003156"><ele>320.0</ele><time>2026-04-07T12:20:39.914Z</time></trkpt><trkpt lat="44.1257175" lon="10.40036"><ele>320.0</ele><time>2026-04-07T12:20:44.915Z</time></trkpt><trkpt lat="44.125654" lon="10.4003768"><ele>320.0</ele><time>2026-04-07T12:20:48.937Z</time></trkpt><trkpt lat="44.125639" lon="10.4004786"><ele>320.0</ele><time>2026-04-07T12:20:53.921Z</time></trkpt><trkpt lat="44.1256262" lon="10.4005949"><ele>320.0</ele><time>2026-04-07T12:20:56.916Z</time></trkpt><trkpt lat="44.1255771" lon="10.4006739"><ele>320.0</ele><time>2026-04-07T12:20:58.92Z</time></trkpt><trkpt lat="44.1255109" lon="10.4007767"><ele>320.0</ele><time>2026-04-07T12:21:00.918Z</time></trkpt><trkpt lat="44.1254475" lon="10.4008785"><ele>320.0</ele><time>2026-04-07T12:21:02.911Z</time></trkpt><trkpt lat="44.1254008" lon="10.4009638"><ele>320.0</ele><time>2026-04-07T12:21:05.913Z</time></trkpt><trkpt lat="44.1253373" lon="10.4009949"><ele>320.0</ele><time>2026-04-07T12:21:10.914Z</time></trkpt><trkpt lat="44.1252634" lon="10.4010486"><ele>320.0</ele><time>2026-04-07T12:21:14.912Z</time></trkpt><trkpt lat="44.1252033" lon="10.4011532"><ele>320.0</ele><time>2026-04-07T12:21:17.918Z</time></trkpt><trkpt lat="44.125142" lon="10.4012523"><ele>320.0</ele><time>2026-04-07T12:21:20.914Z</time></trkpt><trkpt lat="44.1251043" lon="10.4013257"><ele>320.0</ele><time>2026-04-07T12:21:22.936Z</time></trkpt><trkpt lat="44.1250672" lon="10.4013999"><ele>319.85714285714283</ele><time>2026-04-07T12:21:24.919Z</time></trkpt><trkpt lat="44.125025" lon="10.4014691"><ele>319.7142857142857</ele><time>2026-04-07T12:21:26.905Z</time></trkpt><trkpt lat="44.1249776" lon="10.4015325"><ele>319.57142857142856</ele><time>2026-04-07T12:21:28.918Z</time></trkpt><trkpt lat="44.1249136" lon="10.401627"><ele>319.42857142857144</ele><time>2026-04-07T12:21:31.912Z</time></trkpt><trkpt lat="44.124876" lon="10.4016981"><ele>319.2857142857143</ele><time>2026-04-07T12:21:33.916Z</time></trkpt><trkpt lat="44.1248332" lon="10.4017677"><ele>319.14285714285717</ele><time>2026-04-07T12:21:35.918Z</time></trkpt><trkpt lat="44.1247914" lon="10.4018375"><ele>319.0</ele><time>2026-04-07T12:21:37.913Z</time></trkpt><trkpt lat="44.124749" lon="10.4019084"><ele>319.0</ele><time>2026-04-07T12:21:39.913Z</time></trkpt><trkpt lat="44.1247064" lon="10.4019765"><ele>319.0</ele><time>2026-04-07T12:21:41.913Z</time></trkpt><trkpt lat="44.124645" lon="10.4020757"><ele>319.0</ele><time>2026-04-07T12:21:44.916Z</time></trkpt><trkpt lat="44.1245993" lon="10.4021454"><ele>319.0</ele><time>2026-04-07T12:21:46.92Z</time></trkpt><trkpt lat="44.1245533" lon="10.4022176"><ele>319.0</ele><time>2026-04-07T12:21:48.92Z</time></trkpt><trkpt lat="44.1245086" lon="10.402287"><ele>319.0</ele><time>2026-04-07T12:21:50.909Z</time></trkpt><trkpt lat="44.1244677" lon="10.4023597"><ele>319.0</ele><time>2026-04-07T12:21:52.908Z</time></trkpt><trkpt lat="44.1244249" lon="10.4024295"><ele>319.42857142857144</ele><time>2026-04-07T12:21:54.923Z</time></trkpt><trkpt lat="44.124378" lon="10.4025045"><ele>319.85714285714283</ele><time>2026-04-07T12:21:56.917Z</time></trkpt><trkpt lat="44.1243336" lon="10.4025819"><ele>320.2857142857143</ele><time>2026-04-07T12:21:58.918Z</time></trkpt><trkpt lat="44.1242921" lon="10.4026545"><ele>320.7142857142857</ele><time>2026-04-07T12:22:00.92Z</time></trkpt><trkpt lat="44.1242466" lon="10.40272"><ele>321.1428571428571</ele><time>2026-04-07T12:22:02.909Z</time></trkpt><trkpt lat="44.1242014" lon="10.4027885"><ele>321.57142857142856</ele><time>2026-04-07T12:22:04.925Z</time></trkpt><trkpt lat="44.1241599" lon="10.4028618"><ele>322.0</ele><time>2026-04-07T12:22:06.917Z</time></trkpt><trkpt lat="44.1241163" lon="10.4029315"><ele>321.85714285714283</ele><time>2026-04-07T12:22:08.913Z</time></trkpt><trkpt lat="44.1240684" lon="10.4029997"><ele>321.7142857142857</ele><time>2026-04-07T12:22:10.916Z</time></trkpt><trkpt lat="44.1240235" lon="10.4030717"><ele>321.57142857142856</ele><time>2026-04-07T12:22:12.919Z</time></trkpt><trkpt lat="44.123981" lon="10.4031444"><ele>321.42857142857144</ele><time>2026-04-07T12:22:14.92Z</time></trkpt><trkpt lat="44.1239378" lon="10.4032179"><ele>321.2857142857143</ele><time>2026-04-07T12:22:16.93Z</time></trkpt><trkpt lat="44.1238961" lon="10.4032921"><ele>321.1428571428571</ele><time>2026-04-07T12:22:18.92Z</time></trkpt><trkpt lat="44.1238495" lon="10.4033652"><ele>321.0</ele><time>2026-04-07T12:22:20.918Z</time></trkpt><trkpt lat="44.1238024" lon="10.4034399"><ele>320.99999999999994</ele><time>2026-04-07T12:22:22.908Z</time></trkpt><trkpt lat="44.1237595" lon="10.4035176"><ele>321.0</ele><time>2026-04-07T12:22:24.912Z</time></trkpt><trkpt lat="44.1237131" lon="10.4035923"><ele>321.0</ele><time>2026-04-07T12:22:26.914Z</time></trkpt><trkpt lat="44.1236634" lon="10.4036629"><ele>321.0</ele><time>2026-04-07T12:22:28.922Z</time></trkpt><trkpt lat="44.1236177" lon="10.4037367"><ele>321.0</ele><time>2026-04-07T12:22:30.913Z</time></trkpt><trkpt lat="44.123569" lon="10.4038076"><ele>320.99999999999994</ele><time>2026-04-07T12:22:32.91Z</time></trkpt><trkpt lat="44.1235233" lon="10.4038848"><ele>321.0</ele><time>2026-04-07T12:22:34.904Z</time></trkpt><trkpt lat="44.1234779" lon="10.4039595"><ele>320.99999999999994</ele><time>2026-04-07T12:22:36.913Z</time></trkpt><trkpt lat="44.1234355" lon="10.4040305"><ele>321.0</ele><time>2026-04-07T12:22:38.913Z</time></trkpt><trkpt lat="44.1233898" lon="10.4041055"><ele>321.0</ele><time>2026-04-07T12:22:40.916Z</time></trkpt><trkpt lat="44.1233421" lon="10.4041805"><ele>321.0</ele><time>2026-04-07T12:22:42.914Z</time></trkpt><trkpt lat="44.123298" lon="10.404249"><ele>321.0</ele><time>2026-04-07T12:22:44.913Z</time></trkpt><trkpt lat="44.123258" lon="10.404325"><ele>320.99999999999994</ele><time>2026-04-07T12:22:46.909Z</time></trkpt><trkpt lat="44.1232165" lon="10.4044016"><ele>321.0</ele><time>2026-04-07T12:22:48.928Z</time></trkpt><trkpt lat="44.1231722" lon="10.4044828"><ele>320.99999999999994</ele><time>2026-04-07T12:22:50.912Z</time></trkpt><trkpt lat="44.1231252" lon="10.4045641"><ele>321.0</ele><time>2026-04-07T12:22:52.919Z</time></trkpt><trkpt lat="44.1230779" lon="10.4046459"><ele>321.0</ele><time>2026-04-07T12:22:54.918Z</time></trkpt><trkpt lat="44.1230282" lon="10.4047286"><ele>321.0</ele><time>2026-04-07T12:22:56.911Z</time></trkpt><trkpt lat="44.1229779" lon="10.4048057"><ele>321.0</ele><time>2026-04-07T12:22:58.915Z</time></trkpt><trkpt lat="44.1229297" lon="10.4048763"><ele>320.99999999999994</ele><time>2026-04-07T12:23:00.917Z</time></trkpt><trkpt lat="44.1228829" lon="10.4049515"><ele>321.0</ele><time>2026-04-07T12:23:02.919Z</time></trkpt><trkpt lat="44.1228373" lon="10.4050281"><ele>321.3333333333333</ele><time>2026-04-07T12:23:04.921Z</time></trkpt><trkpt lat="44.1227846" lon="10.405097"><ele>321.6666666666667</ele><time>2026-04-07T12:23:06.918Z</time></trkpt><trkpt lat="44.1227157" lon="10.4051963"><ele>322.0</ele><time>2026-04-07T12:23:08.877Z</time></trkpt><trkpt lat="44.1226785" lon="10.4052887"><ele>322.33333333333337</ele><time>2026-04-07T12:23:10.916Z</time></trkpt><trkpt lat="44.1226297" lon="10.4053649"><ele>322.6666666666667</ele><time>2026-04-07T12:23:12.914Z</time></trkpt><trkpt lat="44.1225788" lon="10.4054354"><ele>323.0</ele><time>2026-04-07T12:23:14.917Z</time></trkpt><trkpt lat="44.1225288" lon="10.4055208"><ele>323.1666666666667</ele><time>2026-04-07T12:23:16.917Z</time></trkpt><trkpt lat="44.1224784" lon="10.4056098"><ele>323.33333333333337</ele><time>2026-04-07T12:23:18.927Z</time></trkpt><trkpt lat="44.1224259" lon="10.4056922"><ele>323.5</ele><time>2026-04-07T12:23:20.92Z</time></trkpt><trkpt lat="44.1223805" lon="10.4057686"><ele>323.6666666666667</ele><time>2026-04-07T12:23:22.91Z</time></trkpt><trkpt lat="44.1223388" lon="10.4058387"><ele>323.8333333333333</ele><time>2026-04-07T12:23:24.916Z</time></trkpt><trkpt lat="44.1222895" lon="10.405939"><ele>324.0</ele><time>2026-04-07T12:23:27.882Z</time></trkpt><trkpt lat="44.1222447" lon="10.4060158"><ele>323.57142857142856</ele><time>2026-04-07T12:23:29.915Z</time></trkpt><trkpt lat="44.1221969" lon="10.4060839"><ele>323.1428571428571</ele><time>2026-04-07T12:23:31.916Z</time></trkpt><trkpt lat="44.1221587" lon="10.4061541"><ele>322.71428571428567</ele><time>2026-04-07T12:23:33.919Z</time></trkpt><trkpt lat="44.1221107" lon="10.4062374"><ele>322.2857142857143</ele><time>2026-04-07T12:23:36.915Z</time></trkpt><trkpt lat="44.1220692" lon="10.4063074"><ele>321.85714285714283</ele><time>2026-04-07T12:23:38.924Z</time></trkpt><trkpt lat="44.1220201" lon="10.4063765"><ele>321.4285714285714</ele><time>2026-04-07T12:23:40.916Z</time></trkpt><trkpt lat="44.1219738" lon="10.4064543"><ele>321.0</ele><time>2026-04-07T12:23:42.916Z</time></trkpt><trkpt lat="44.1219312" lon="10.406534"><ele>320.99999999999994</ele><time>2026-04-07T12:23:44.92Z</time></trkpt><trkpt lat="44.1218827" lon="10.4066087"><ele>321.0</ele><time>2026-04-07T12:23:46.928Z</time></trkpt><trkpt lat="44.1218341" lon="10.4066829"><ele>321.0</ele><time>2026-04-07T12:23:48.924Z</time></trkpt><trkpt lat="44.1217845" lon="10.4067627"><ele>321.0</ele><time>2026-04-07T12:23:50.927Z</time></trkpt><trkpt lat="44.1217357" lon="10.406839"><ele>321.0</ele><time>2026-04-07T12:23:52.917Z</time></trkpt><trkpt lat="44.1216909" lon="10.4069159"><ele>320.99999999999994</ele><time>2026-04-07T12:23:54.92Z</time></trkpt><trkpt lat="44.1216454" lon="10.4069843"><ele>321.0</ele><time>2026-04-07T12:23:56.91Z</time></trkpt><trkpt lat="44.1215937" lon="10.4070853"><ele>320.1666666666667</ele><time>2026-04-07T12:23:59.915Z</time></trkpt><trkpt lat="44.1215418" lon="10.4071683"><ele>319.3333333333333</ele><time>2026-04-07T12:24:02.921Z</time></trkpt><trkpt lat="44.121481" lon="10.4072714"><ele>318.5</ele><time>2026-04-07T12:24:05.917Z</time></trkpt><trkpt lat="44.1214411" lon="10.4073519"><ele>317.66666666666663</ele><time>2026-04-07T12:24:07.916Z</time></trkpt><trkpt lat="44.1213992" lon="10.4074317"><ele>316.8333333333333</ele><time>2026-04-07T12:24:09.915Z</time></trkpt><trkpt lat="44.1213503" lon="10.4075032"><ele>316.0</ele><time>2026-04-07T12:24:11.908Z</time></trkpt><trkpt lat="44.1213025" lon="10.4075744"><ele>316.00000000000006</ele><time>2026-04-07T12:24:13.915Z</time></trkpt><trkpt lat="44.1212531" lon="10.4076449"><ele>316.0</ele><time>2026-04-07T12:24:15.91Z</time></trkpt><trkpt lat="44.1212103" lon="10.4077106"><ele>316.0</ele><time>2026-04-07T12:24:17.912Z</time></trkpt><trkpt lat="44.121161" lon="10.4077763"><ele>316.0</ele><time>2026-04-07T12:24:19.921Z</time></trkpt><trkpt lat="44.1211197" lon="10.4078484"><ele>316.0</ele><time>2026-04-07T12:24:21.919Z</time></trkpt><trkpt lat="44.1210738" lon="10.407921"><ele>316.00000000000006</ele><time>2026-04-07T12:24:23.925Z</time></trkpt><trkpt lat="44.1210277" lon="10.4079973"><ele>316.0</ele><time>2026-04-07T12:24:25.915Z</time></trkpt><trkpt lat="44.1209821" lon="10.4080784"><ele>314.8333333333333</ele><time>2026-04-07T12:24:27.91Z</time></trkpt><trkpt lat="44.1209341" lon="10.4081602"><ele>313.66666666666663</ele><time>2026-04-07T12:24:29.912Z</time></trkpt><trkpt lat="44.1208861" lon="10.4082433"><ele>312.5</ele><time>2026-04-07T12:24:31.904Z</time></trkpt><trkpt lat="44.1208393" lon="10.4083192"><ele>311.3333333333333</ele><time>2026-04-07T12:24:33.925Z</time></trkpt><trkpt lat="44.120802" lon="10.4083924"><ele>310.1666666666667</ele><time>2026-04-07T12:24:35.92Z</time></trkpt><trkpt lat="44.1207373" lon="10.4084848"><ele>309.0</ele><time>2026-04-07T12:24:38.914Z</time></trkpt><trkpt lat="44.1206769" lon="10.4085817"><ele>309.0</ele><time>2026-04-07T12:24:41.905Z</time></trkpt><trkpt lat="44.1206234" lon="10.4086741"><ele>309.0</ele><time>2026-04-07T12:24:44.913Z</time></trkpt><trkpt lat="44.1205759" lon="10.4087606"><ele>309.0</ele><time>2026-04-07T12:24:47.918Z</time></trkpt><trkpt lat="44.1205366" lon="10.4088404"><ele>309.0</ele><time>2026-04-07T12:24:50.917Z</time></trkpt><trkpt lat="44.1205007" lon="10.4089345"><ele>309.0</ele><time>2026-04-07T12:24:54.909Z</time></trkpt><trkpt lat="44.1205284" lon="10.4090222"><ele>309.0</ele><time>2026-04-07T12:24:58.922Z</time></trkpt><trkpt lat="44.1206122" lon="10.4090587"><ele>310.28571428571433</ele><time>2026-04-07T12:25:01.909Z</time></trkpt><trkpt lat="44.1206783" lon="10.4090722"><ele>311.57142857142856</ele><time>2026-04-07T12:25:03.906Z</time></trkpt><trkpt lat="44.1207456" lon="10.4090738"><ele>312.8571428571429</ele><time>2026-04-07T12:25:05.913Z</time></trkpt><trkpt lat="44.1208134" lon="10.4090769"><ele>314.14285714285717</ele><time>2026-04-07T12:25:07.908Z</time></trkpt><trkpt lat="44.1209076" lon="10.4090845"><ele>315.42857142857144</ele><time>2026-04-07T12:25:10.916Z</time></trkpt><trkpt lat="44.1209717" lon="10.4090914"><ele>316.7142857142857</ele><time>2026-04-07T12:25:12.913Z</time></trkpt><trkpt lat="44.1210378" lon="10.4091012"><ele>318.0</ele><time>2026-04-07T12:25:14.921Z</time></trkpt><trkpt lat="44.1211013" lon="10.4091099"><ele>319.2857142857143</ele><time>2026-04-07T12:25:16.912Z</time></trkpt><trkpt lat="44.1211652" lon="10.4091215"><ele>320.5714285714286</ele><time>2026-04-07T12:25:18.924Z</time></trkpt><trkpt lat="44.1212285" lon="10.4091299"><ele>321.8571428571429</ele><time>2026-04-07T12:25:20.917Z</time></trkpt><trkpt lat="44.1213234" lon="10.4091432"><ele>323.1428571428571</ele><time>2026-04-07T12:25:23.913Z</time></trkpt><trkpt lat="44.1213895" lon="10.4091526"><ele>324.42857142857144</ele><time>2026-04-07T12:25:25.931Z</time></trkpt><trkpt lat="44.1214587" lon="10.4091607"><ele>325.7142857142857</ele><time>2026-04-07T12:25:27.919Z</time></trkpt><trkpt lat="44.1215277" lon="10.4091729"><ele>327.0</ele><time>2026-04-07T12:25:29.915Z</time></trkpt><trkpt lat="44.1216157" lon="10.4091829"><ele>327.42857142857144</ele><time>2026-04-07T12:25:31.906Z</time></trkpt><trkpt lat="44.1216857" lon="10.4091834"><ele>327.8571428571429</ele><time>2026-04-07T12:25:33.923Z</time></trkpt><trkpt lat="44.1217557" lon="10.4091852"><ele>328.28571428571433</ele><time>2026-04-07T12:25:35.935Z</time></trkpt><trkpt lat="44.1218196" lon="10.4091889"><ele>328.7142857142857</ele><time>2026-04-07T12:25:37.911Z</time></trkpt><trkpt lat="44.121886" lon="10.4092022"><ele>329.14285714285717</ele><time>2026-04-07T12:25:39.903Z</time></trkpt><trkpt lat="44.1219522" lon="10.4092134"><ele>329.5714285714286</ele><time>2026-04-07T12:25:41.909Z</time></trkpt><trkpt lat="44.122021" lon="10.4092229"><ele>330.0</ele><time>2026-04-07T12:25:43.917Z</time></trkpt><trkpt lat="44.12209" lon="10.4092316"><ele>330.00000000000006</ele><time>2026-04-07T12:25:45.937Z</time></trkpt><trkpt lat="44.1221553" lon="10.4092447"><ele>330.0</ele><time>2026-04-07T12:25:47.88Z</time></trkpt><trkpt lat="44.1222236" lon="10.4092567"><ele>330.0</ele><time>2026-04-07T12:25:49.919Z</time></trkpt><trkpt lat="44.1222938" lon="10.4092685"><ele>330.0</ele><time>2026-04-07T12:25:51.917Z</time></trkpt><trkpt lat="44.1223659" lon="10.4092821"><ele>330.0</ele><time>2026-04-07T12:25:53.907Z</time></trkpt><trkpt lat="44.1224399" lon="10.4092896"><ele>330.00000000000006</ele><time>2026-04-07T12:25:55.917Z</time></trkpt><trkpt lat="44.1225131" lon="10.4092919"><ele>330.0</ele><time>2026-04-07T12:25:57.907Z</time></trkpt><trkpt lat="44.1225852" lon="10.4093044"><ele>330.42857142857144</ele><time>2026-04-07T12:25:59.912Z</time></trkpt><trkpt lat="44.1226574" lon="10.4093249"><ele>330.8571428571429</ele><time>2026-04-07T12:26:01.911Z</time></trkpt><trkpt lat="44.1227284" lon="10.4093446"><ele>331.28571428571433</ele><time>2026-04-07T12:26:03.904Z</time></trkpt><trkpt lat="44.1228014" lon="10.4093572"><ele>331.7142857142857</ele><time>2026-04-07T12:26:05.91Z</time></trkpt><trkpt lat="44.1228764" lon="10.4093709"><ele>332.1428571428571</ele><time>2026-04-07T12:26:07.909Z</time></trkpt><trkpt lat="44.1229504" lon="10.4093751"><ele>332.5714285714286</ele><time>2026-04-07T12:26:09.909Z</time></trkpt><trkpt lat="44.1230243" lon="10.4093898"><ele>333.0</ele><time>2026-04-07T12:26:11.922Z</time></trkpt><trkpt lat="44.1230956" lon="10.4094239"><ele>333.0</ele><time>2026-04-07T12:26:13.91Z</time></trkpt><trkpt lat="44.1231619" lon="10.4094488"><ele>333.0</ele><time>2026-04-07T12:26:15.912Z</time></trkpt><trkpt lat="44.1232372" lon="10.4094766"><ele>333.0</ele><time>2026-04-07T12:26:17.918Z</time></trkpt><trkpt lat="44.1233127" lon="10.4095044"><ele>333.0</ele><time>2026-04-07T12:26:19.904Z</time></trkpt><trkpt lat="44.1233909" lon="10.409534"><ele>333.0</ele><time>2026-04-07T12:26:21.919Z</time></trkpt><trkpt lat="44.1234681" lon="10.4095567"><ele>333.0</ele><time>2026-04-07T12:26:23.918Z</time></trkpt><trkpt lat="44.1235454" lon="10.4095816"><ele>333.3333333333333</ele><time>2026-04-07T12:26:25.915Z</time></trkpt><trkpt lat="44.1236203" lon="10.4096074"><ele>333.6666666666667</ele><time>2026-04-07T12:26:27.92Z</time></trkpt><trkpt lat="44.1236979" lon="10.4096283"><ele>334.0</ele><time>2026-04-07T12:26:29.915Z</time></trkpt><trkpt lat="44.1237766" lon="10.4096519"><ele>334.33333333333337</ele><time>2026-04-07T12:26:31.916Z</time></trkpt><trkpt lat="44.1238519" lon="10.4096817"><ele>334.6666666666667</ele><time>2026-04-07T12:26:33.915Z</time></trkpt><trkpt lat="44.1239268" lon="10.4097043"><ele>335.0</ele><time>2026-04-07T12:26:35.918Z</time></trkpt><trkpt lat="44.1240026" lon="10.4097325"><ele>335.71428571428567</ele><time>2026-04-07T12:26:37.919Z</time></trkpt><trkpt lat="44.1240746" lon="10.4097664"><ele>336.42857142857144</ele><time>2026-04-07T12:26:39.912Z</time></trkpt><trkpt lat="44.1241406" lon="10.4098002"><ele>337.1428571428571</ele><time>2026-04-07T12:26:41.913Z</time></trkpt><trkpt lat="44.1242101" lon="10.4098341"><ele>337.85714285714283</ele><time>2026-04-07T12:26:43.912Z</time></trkpt><trkpt lat="44.1242744" lon="10.4098705"><ele>338.57142857142856</ele><time>2026-04-07T12:26:45.907Z</time></trkpt><trkpt lat="44.1243356" lon="10.4099041"><ele>339.2857142857143</ele><time>2026-04-07T12:26:47.929Z</time></trkpt><trkpt lat="44.1244221" lon="10.4099547"><ele>340.0</ele><time>2026-04-07T12:26:50.93Z</time></trkpt><trkpt lat="44.1244826" lon="10.4099883"><ele>340.0</ele><time>2026-04-07T12:26:52.913Z</time></trkpt><trkpt lat="44.1245459" lon="10.4100185"><ele>340.0</ele><time>2026-04-07T12:26:54.914Z</time></trkpt><trkpt lat="44.1246028" lon="10.4100607"><ele>340.0</ele><time>2026-04-07T12:26:56.924Z</time></trkpt><trkpt lat="44.1246504" lon="10.4101216"><ele>340.0</ele><time>2026-04-07T12:26:58.912Z</time></trkpt><trkpt lat="44.1246928" lon="10.4102063"><ele>340.0</ele><time>2026-04-07T12:27:00.914Z</time></trkpt><trkpt lat="44.1247302" lon="10.410301"><ele>340.0</ele><time>2026-04-07T12:27:02.915Z</time></trkpt><trkpt lat="44.1247822" lon="10.4103773"><ele>340.0</ele><time>2026-04-07T12:27:04.922Z</time></trkpt><trkpt lat="44.1248428" lon="10.4104346"><ele>340.66666666666663</ele><time>2026-04-07T12:27:06.919Z</time></trkpt><trkpt lat="44.1249153" lon="10.4104572"><ele>341.3333333333333</ele><time>2026-04-07T12:27:08.923Z</time></trkpt><trkpt lat="44.1249908" lon="10.4104431"><ele>342.0</ele><time>2026-04-07T12:27:10.921Z</time></trkpt><trkpt lat="44.1250652" lon="10.4104196"><ele>342.6666666666667</ele><time>2026-04-07T12:27:12.915Z</time></trkpt><trkpt lat="44.1251456" lon="10.4103937"><ele>343.33333333333337</ele><time>2026-04-07T12:27:14.913Z</time></trkpt><trkpt lat="44.1252219" lon="10.4103827"><ele>344.0</ele><time>2026-04-07T12:27:16.907Z</time></trkpt><trkpt lat="44.1252974" lon="10.4103924"><ele>344.00000000000006</ele><time>2026-04-07T12:27:18.912Z</time></trkpt><trkpt lat="44.1253708" lon="10.4104247"><ele>344.0</ele><time>2026-04-07T12:27:20.915Z</time></trkpt><trkpt lat="44.1254416" lon="10.4104699"><ele>344.0</ele><time>2026-04-07T12:27:22.925Z</time></trkpt><trkpt lat="44.1255053" lon="10.4105014"><ele>344.0</ele><time>2026-04-07T12:27:24.907Z</time></trkpt><trkpt lat="44.125578" lon="10.4105342"><ele>344.0</ele><time>2026-04-07T12:27:26.915Z</time></trkpt><trkpt lat="44.125649" lon="10.410565"><ele>344.00000000000006</ele><time>2026-04-07T12:27:28.909Z</time></trkpt><trkpt lat="44.1257206" lon="10.4105973"><ele>344.0</ele><time>2026-04-07T12:27:30.908Z</time></trkpt><trkpt lat="44.1257917" lon="10.4106293"><ele>344.5714285714286</ele><time>2026-04-07T12:27:32.916Z</time></trkpt><trkpt lat="44.1258631" lon="10.4106541"><ele>345.14285714285717</ele><time>2026-04-07T12:27:34.926Z</time></trkpt><trkpt lat="44.125933" lon="10.4106799"><ele>345.7142857142857</ele><time>2026-04-07T12:27:36.922Z</time></trkpt><trkpt lat="44.1260023" lon="10.4107022"><ele>346.28571428571433</ele><time>2026-04-07T12:27:38.921Z</time></trkpt><trkpt lat="44.1260746" lon="10.4107214"><ele>346.8571428571429</ele><time>2026-04-07T12:27:40.913Z</time></trkpt><trkpt lat="44.1261489" lon="10.4107413"><ele>347.42857142857144</ele><time>2026-04-07T12:27:42.909Z</time></trkpt><trkpt lat="44.1262208" lon="10.4107585"><ele>348.0</ele><time>2026-04-07T12:27:44.915Z</time></trkpt><trkpt lat="44.1262909" lon="10.4107786"><ele>348.0</ele><time>2026-04-07T12:27:46.916Z</time></trkpt><trkpt lat="44.1263613" lon="10.4107991"><ele>348.0</ele><time>2026-04-07T12:27:48.922Z</time></trkpt><trkpt lat="44.1264312" lon="10.4108201"><ele>348.0</ele><time>2026-04-07T12:27:50.915Z</time></trkpt><trkpt lat="44.1264994" lon="10.4108373"><ele>348.0</ele><time>2026-04-07T12:27:52.917Z</time></trkpt><trkpt lat="44.1265708" lon="10.410856"><ele>348.0</ele><time>2026-04-07T12:27:54.904Z</time></trkpt><trkpt lat="44.1266429" lon="10.4108766"><ele>348.0</ele><time>2026-04-07T12:27:56.91Z</time></trkpt><trkpt lat="44.1267147" lon="10.4108955"><ele>348.0</ele><time>2026-04-07T12:27:58.916Z</time></trkpt><trkpt lat="44.126786" lon="10.410914"><ele>348.1428571428571</ele><time>2026-04-07T12:28:00.9Z</time></trkpt><trkpt lat="44.1268556" lon="10.410934"><ele>348.2857142857143</ele><time>2026-04-07T12:28:02.918Z</time></trkpt><trkpt lat="44.126926" lon="10.4109495"><ele>348.42857142857144</ele><time>2026-04-07T12:28:04.922Z</time></trkpt><trkpt lat="44.1269974" lon="10.4109691"><ele>348.57142857142856</ele><time>2026-04-07T12:28:06.923Z</time></trkpt><trkpt lat="44.1270713" lon="10.4109885"><ele>348.7142857142857</ele><time>2026-04-07T12:28:08.916Z</time></trkpt><trkpt lat="44.1271448" lon="10.4110096"><ele>348.85714285714283</ele><time>2026-04-07T12:28:10.917Z</time></trkpt><trkpt lat="44.1272168" lon="10.4110324"><ele>349.0</ele><time>2026-04-07T12:28:12.916Z</time></trkpt><trkpt lat="44.1272851" lon="10.4110554"><ele>349.0</ele><time>2026-04-07T12:28:14.916Z</time></trkpt><trkpt lat="44.1273548" lon="10.4110806"><ele>349.0</ele><time>2026-04-07T12:28:16.911Z</time></trkpt><trkpt lat="44.1274264" lon="10.4111056"><ele>349.0</ele><time>2026-04-07T12:28:18.924Z</time></trkpt><trkpt lat="44.1275001" lon="10.4111338"><ele>349.0</ele><time>2026-04-07T12:28:20.921Z</time></trkpt><trkpt lat="44.1275724" lon="10.4111599"><ele>349.0</ele><time>2026-04-07T12:28:22.921Z</time></trkpt><trkpt lat="44.1276465" lon="10.4111852"><ele>349.0</ele><time>2026-04-07T12:28:24.917Z</time></trkpt><trkpt lat="44.1277247" lon="10.4112116"><ele>349.16666666666663</ele><time>2026-04-07T12:28:26.906Z</time></trkpt><trkpt lat="44.1278031" lon="10.411237"><ele>349.3333333333333</ele><time>2026-04-07T12:28:28.922Z</time></trkpt><trkpt lat="44.1278765" lon="10.4112629"><ele>349.5</ele><time>2026-04-07T12:28:30.915Z</time></trkpt><trkpt lat="44.1279488" lon="10.4112893"><ele>349.6666666666667</ele><time>2026-04-07T12:28:32.911Z</time></trkpt><trkpt lat="44.1280236" lon="10.4113151"><ele>349.83333333333337</ele><time>2026-04-07T12:28:34.92Z</time></trkpt><trkpt lat="44.1280978" lon="10.4113394"><ele>350.0</ele><time>2026-04-07T12:28:36.921Z</time></trkpt><trkpt lat="44.1281711" lon="10.4113627"><ele>350.5</ele><time>2026-04-07T12:28:38.915Z</time></trkpt><trkpt lat="44.1282428" lon="10.4113928"><ele>351.0</ele><time>2026-04-07T12:28:40.909Z</time></trkpt><trkpt lat="44.1283155" lon="10.4114216"><ele>351.5</ele><time>2026-04-07T12:28:42.912Z</time></trkpt><trkpt lat="44.1283905" lon="10.4114451"><ele>352.0</ele><time>2026-04-07T12:28:44.911Z</time></trkpt><trkpt lat="44.1284683" lon="10.4114496"><ele>352.5</ele><time>2026-04-07T12:28:46.908Z</time></trkpt><trkpt lat="44.1285437" lon="10.4114483"><ele>353.0</ele><time>2026-04-07T12:28:48.91Z</time></trkpt><trkpt lat="44.1286183" lon="10.4114498"><ele>353.0</ele><time>2026-04-07T12:28:50.914Z</time></trkpt><trkpt lat="44.1286918" lon="10.4114606"><ele>353.0</ele><time>2026-04-07T12:28:52.925Z</time></trkpt><trkpt lat="44.1287677" lon="10.4114826"><ele>353.0</ele><time>2026-04-07T12:28:54.914Z</time></trkpt><trkpt lat="44.1288321" lon="10.4115412"><ele>353.0</ele><time>2026-04-07T12:28:56.92Z</time></trkpt><trkpt lat="44.1288961" lon="10.4116031"><ele>353.0</ele><time>2026-04-07T12:28:58.912Z</time></trkpt><trkpt lat="44.1289631" lon="10.4116438"><ele>353.0</ele><time>2026-04-07T12:29:00.908Z</time></trkpt><trkpt lat="44.1290348" lon="10.4116743"><ele>353.33333333333337</ele><time>2026-04-07T12:29:02.923Z</time></trkpt><trkpt lat="44.1291083" lon="10.4117002"><ele>353.6666666666667</ele><time>2026-04-07T12:29:04.927Z</time></trkpt><trkpt lat="44.1291898" lon="10.4117345"><ele>354.0</ele><time>2026-04-07T12:29:06.918Z</time></trkpt><trkpt lat="44.129265" lon="10.4117485"><ele>354.3333333333333</ele><time>2026-04-07T12:29:08.929Z</time></trkpt><trkpt lat="44.1293402" lon="10.4117647"><ele>354.66666666666663</ele><time>2026-04-07T12:29:10.919Z</time></trkpt><trkpt lat="44.1294133" lon="10.4117941"><ele>355.0</ele><time>2026-04-07T12:29:12.913Z</time></trkpt><trkpt lat="44.1294889" lon="10.4118202"><ele>355.0</ele><time>2026-04-07T12:29:14.902Z</time></trkpt><trkpt lat="44.1295631" lon="10.4118447"><ele>355.0</ele><time>2026-04-07T12:29:16.912Z</time></trkpt><trkpt lat="44.1296352" lon="10.4118742"><ele>355.0</ele><time>2026-04-07T12:29:18.906Z</time></trkpt><trkpt lat="44.1297112" lon="10.4119007"><ele>355.0</ele><time>2026-04-07T12:29:20.907Z</time></trkpt><trkpt lat="44.1297764" lon="10.4119408"><ele>355.0</ele><time>2026-04-07T12:29:22.914Z</time></trkpt><trkpt lat="44.1298418" lon="10.4119795"><ele>355.0</ele><time>2026-04-07T12:29:24.912Z</time></trkpt><trkpt lat="44.12991" lon="10.4120161"><ele>355.0</ele><time>2026-04-07T12:29:26.92Z</time></trkpt><trkpt lat="44.1299736" lon="10.4120617"><ele>355.85714285714283</ele><time>2026-04-07T12:29:28.923Z</time></trkpt><trkpt lat="44.1300393" lon="10.4121067"><ele>356.7142857142857</ele><time>2026-04-07T12:29:30.907Z</time></trkpt><trkpt lat="44.1301084" lon="10.4121405"><ele>357.57142857142856</ele><time>2026-04-07T12:29:32.92Z</time></trkpt><trkpt lat="44.1301703" lon="10.4121839"><ele>358.42857142857144</ele><time>2026-04-07T12:29:34.916Z</time></trkpt><trkpt lat="44.1302369" lon="10.4122316"><ele>359.2857142857143</ele><time>2026-04-07T12:29:36.921Z</time></trkpt><trkpt lat="44.1303051" lon="10.4122812"><ele>360.14285714285717</ele><time>2026-04-07T12:29:38.914Z</time></trkpt><trkpt lat="44.1303758" lon="10.4123209"><ele>361.0</ele><time>2026-04-07T12:29:40.904Z</time></trkpt><trkpt lat="44.1304558" lon="10.4123708"><ele>361.2857142857143</ele><time>2026-04-07T12:29:43.908Z</time></trkpt><trkpt lat="44.1305199" lon="10.412413"><ele>361.57142857142856</ele><time>2026-04-07T12:29:45.918Z</time></trkpt><trkpt lat="44.1305808" lon="10.412455"><ele>361.85714285714283</ele><time>2026-04-07T12:29:47.91Z</time></trkpt><trkpt lat="44.1306437" lon="10.4124995"><ele>362.1428571428571</ele><time>2026-04-07T12:29:49.942Z</time></trkpt><trkpt lat="44.1307046" lon="10.4125405"><ele>362.42857142857144</ele><time>2026-04-07T12:29:51.916Z</time></trkpt><trkpt lat="44.1307606" lon="10.4125843"><ele>362.71428571428567</ele><time>2026-04-07T12:29:53.906Z</time></trkpt><trkpt lat="44.1308315" lon="10.412634"><ele>363.0</ele><time>2026-04-07T12:29:55.913Z</time></trkpt><trkpt lat="44.1308925" lon="10.4126849"><ele>363.1666666666667</ele><time>2026-04-07T12:29:57.918Z</time></trkpt><trkpt lat="44.1309522" lon="10.4127277"><ele>363.3333333333333</ele><time>2026-04-07T12:29:59.916Z</time></trkpt><trkpt lat="44.131011" lon="10.4127736"><ele>363.5</ele><time>2026-04-07T12:30:01.906Z</time></trkpt><trkpt lat="44.1310962" lon="10.4128338"><ele>363.66666666666663</ele><time>2026-04-07T12:30:04.915Z</time></trkpt><trkpt lat="44.1311792" lon="10.4129026"><ele>363.8333333333333</ele><time>2026-04-07T12:30:07.924Z</time></trkpt><trkpt lat="44.1312412" lon="10.4129507"><ele>364.0</ele><time>2026-04-07T12:30:09.914Z</time></trkpt><trkpt lat="44.1313022" lon="10.4129933"><ele>364.2857142857143</ele><time>2026-04-07T12:30:11.918Z</time></trkpt><trkpt lat="44.1313663" lon="10.4130406"><ele>364.57142857142856</ele><time>2026-04-07T12:30:13.917Z</time></trkpt><trkpt lat="44.1314295" lon="10.4130833"><ele>364.8571428571429</ele><time>2026-04-07T12:30:15.908Z</time></trkpt><trkpt lat="44.1314883" lon="10.4131261"><ele>365.1428571428571</ele><time>2026-04-07T12:30:17.903Z</time></trkpt><trkpt lat="44.1315483" lon="10.413165"><ele>365.42857142857144</ele><time>2026-04-07T12:30:19.935Z</time></trkpt><trkpt lat="44.1316062" lon="10.4132029"><ele>365.7142857142857</ele><time>2026-04-07T12:30:21.918Z</time></trkpt><trkpt lat="44.1316691" lon="10.4132386"><ele>366.0</ele><time>2026-04-07T12:30:23.904Z</time></trkpt><trkpt lat="44.1317364" lon="10.4132689"><ele>366.2857142857143</ele><time>2026-04-07T12:30:25.912Z</time></trkpt><trkpt lat="44.1318054" lon="10.4132981"><ele>366.57142857142856</ele><time>2026-04-07T12:30:27.91Z</time></trkpt><trkpt lat="44.1318734" lon="10.4133303"><ele>366.8571428571429</ele><time>2026-04-07T12:30:29.907Z</time></trkpt><trkpt lat="44.1319409" lon="10.413356"><ele>367.1428571428571</ele><time>2026-04-07T12:30:31.915Z</time></trkpt><trkpt lat="44.132009" lon="10.4133715"><ele>367.4285714285714</ele><time>2026-04-07T12:30:33.91Z</time></trkpt><trkpt lat="44.1320757" lon="10.4133985"><ele>367.7142857142857</ele><time>2026-04-07T12:30:35.914Z</time></trkpt><trkpt lat="44.1321433" lon="10.4134238"><ele>368.0</ele><time>2026-04-07T12:30:37.922Z</time></trkpt><trkpt lat="44.1322119" lon="10.4134546"><ele>368.0</ele><time>2026-04-07T12:30:39.917Z</time></trkpt><trkpt lat="44.1322828" lon="10.4134821"><ele>368.0</ele><time>2026-04-07T12:30:41.909Z</time></trkpt><trkpt lat="44.1323543" lon="10.4135084"><ele>368.0</ele><time>2026-04-07T12:30:43.909Z</time></trkpt><trkpt lat="44.1324257" lon="10.4135372"><ele>368.0</ele><time>2026-04-07T12:30:45.915Z</time></trkpt><trkpt lat="44.1324956" lon="10.4135662"><ele>368.0</ele><time>2026-04-07T12:30:47.906Z</time></trkpt><trkpt lat="44.1325654" lon="10.4135947"><ele>368.0</ele><time>2026-04-07T12:30:49.915Z</time></trkpt><trkpt lat="44.1326363" lon="10.4136212"><ele>368.0</ele><time>2026-04-07T12:30:51.917Z</time></trkpt><trkpt lat="44.1327046" lon="10.4136518"><ele>368.5714285714286</ele><time>2026-04-07T12:30:53.914Z</time></trkpt><trkpt lat="44.1327746" lon="10.4136806"><ele>369.1428571428571</ele><time>2026-04-07T12:30:55.918Z</time></trkpt><trkpt lat="44.1328425" lon="10.4137093"><ele>369.7142857142857</ele><time>2026-04-07T12:30:57.918Z</time></trkpt><trkpt lat="44.132909" lon="10.413734"><ele>370.28571428571433</ele><time>2026-04-07T12:30:59.912Z</time></trkpt><trkpt lat="44.1329766" lon="10.413764"><ele>370.8571428571429</ele><time>2026-04-07T12:31:01.916Z</time></trkpt><trkpt lat="44.133044" lon="10.4137944"><ele>371.42857142857144</ele><time>2026-04-07T12:31:03.928Z</time></trkpt><trkpt lat="44.1331138" lon="10.4138206"><ele>372.0</ele><time>2026-04-07T12:31:05.901Z</time></trkpt><trkpt lat="44.1331807" lon="10.4138482"><ele>372.8571428571429</ele><time>2026-04-07T12:31:07.911Z</time></trkpt><trkpt lat="44.1332454" lon="10.4138755"><ele>373.7142857142857</ele><time>2026-04-07T12:31:09.923Z</time></trkpt><trkpt lat="44.1333084" lon="10.4139071"><ele>374.57142857142856</ele><time>2026-04-07T12:31:11.904Z</time></trkpt><trkpt lat="44.1333663" lon="10.4139446"><ele>375.42857142857144</ele><time>2026-04-07T12:31:13.905Z</time></trkpt><trkpt lat="44.1334228" lon="10.4139838"><ele>376.2857142857143</ele><time>2026-04-07T12:31:15.91Z</time></trkpt><trkpt lat="44.1334825" lon="10.4140337"><ele>377.14285714285717</ele><time>2026-04-07T12:31:17.909Z</time></trkpt><trkpt lat="44.133544" lon="10.4140869"><ele>378.0</ele><time>2026-04-07T12:31:19.904Z</time></trkpt><trkpt lat="44.1336034" lon="10.4141367"><ele>378.0</ele><time>2026-04-07T12:31:21.928Z</time></trkpt><trkpt lat="44.133658" lon="10.414186"><ele>378.0</ele><time>2026-04-07T12:31:23.921Z</time></trkpt><trkpt lat="44.133716" lon="10.4142387"><ele>378.0</ele><time>2026-04-07T12:31:25.913Z</time></trkpt><trkpt lat="44.1337747" lon="10.4142882"><ele>378.0</ele><time>2026-04-07T12:31:27.91Z</time></trkpt><trkpt lat="44.1338255" lon="10.414353"><ele>378.0</ele><time>2026-04-07T12:31:29.906Z</time></trkpt><trkpt lat="44.1338718" lon="10.4144184"><ele>378.0</ele><time>2026-04-07T12:31:31.918Z</time></trkpt><trkpt lat="44.1339184" lon="10.4144851"><ele>378.0</ele><time>2026-04-07T12:31:33.91Z</time></trkpt><trkpt lat="44.1339689" lon="10.4145512"><ele>378.0</ele><time>2026-04-07T12:31:35.912Z</time></trkpt><trkpt lat="44.1340237" lon="10.4146155"><ele>378.0</ele><time>2026-04-07T12:31:37.922Z</time></trkpt><trkpt lat="44.1340741" lon="10.4146771"><ele>378.0</ele><time>2026-04-07T12:31:39.908Z</time></trkpt><trkpt lat="44.1341237" lon="10.4147411"><ele>378.0</ele><time>2026-04-07T12:31:41.907Z</time></trkpt><trkpt lat="44.1341786" lon="10.4148014"><ele>378.0</ele><time>2026-04-07T12:31:43.914Z</time></trkpt><trkpt lat="44.1342356" lon="10.4148618"><ele>378.0</ele><time>2026-04-07T12:31:45.912Z</time></trkpt><trkpt lat="44.1342916" lon="10.4149231"><ele>378.0</ele><time>2026-04-07T12:31:47.912Z</time></trkpt><trkpt lat="44.1343421" lon="10.4149884"><ele>378.57142857142856</ele><time>2026-04-07T12:31:49.918Z</time></trkpt><trkpt lat="44.1343954" lon="10.4150519"><ele>379.1428571428571</ele><time>2026-04-07T12:31:51.923Z</time></trkpt><trkpt lat="44.134451" lon="10.4151085"><ele>379.7142857142857</ele><time>2026-04-07T12:31:53.93Z</time></trkpt><trkpt lat="44.1345059" lon="10.4151681"><ele>380.2857142857143</ele><time>2026-04-07T12:31:55.911Z</time></trkpt><trkpt lat="44.1345629" lon="10.415223"><ele>380.85714285714283</ele><time>2026-04-07T12:31:57.921Z</time></trkpt><trkpt lat="44.1346195" lon="10.415285"><ele>381.42857142857144</ele><time>2026-04-07T12:31:59.907Z</time></trkpt><trkpt lat="44.1346765" lon="10.4153497"><ele>382.0</ele><time>2026-04-07T12:32:01.922Z</time></trkpt><trkpt lat="44.134733" lon="10.4154109"><ele>382.0</ele><time>2026-04-07T12:32:03.915Z</time></trkpt><trkpt lat="44.1347906" lon="10.415466"><ele>382.0</ele><time>2026-04-07T12:32:05.907Z</time></trkpt><trkpt lat="44.1348483" lon="10.4155215"><ele>382.0</ele><time>2026-04-07T12:32:07.924Z</time></trkpt><trkpt lat="44.1349132" lon="10.4155598"><ele>382.0</ele><time>2026-04-07T12:32:09.914Z</time></trkpt><trkpt lat="44.1349782" lon="10.4155948"><ele>382.0</ele><time>2026-04-07T12:32:11.916Z</time></trkpt><trkpt lat="44.1350462" lon="10.4156294"><ele>382.0</ele><time>2026-04-07T12:32:13.908Z</time></trkpt><trkpt lat="44.135113" lon="10.4156646"><ele>382.0</ele><time>2026-04-07T12:32:15.912Z</time></trkpt><trkpt lat="44.1351803" lon="10.4156956"><ele>382.2857142857143</ele><time>2026-04-07T12:32:17.911Z</time></trkpt><trkpt lat="44.1352465" lon="10.4157294"><ele>382.57142857142856</ele><time>2026-04-07T12:32:19.914Z</time></trkpt><trkpt lat="44.1353121" lon="10.4157585"><ele>382.85714285714283</ele><time>2026-04-07T12:32:21.907Z</time></trkpt><trkpt lat="44.1353803" lon="10.4157854"><ele>383.1428571428571</ele><time>2026-04-07T12:32:23.905Z</time></trkpt><trkpt lat="44.135447" lon="10.4158145"><ele>383.42857142857144</ele><time>2026-04-07T12:32:25.914Z</time></trkpt><trkpt lat="44.1355145" lon="10.4158449"><ele>383.71428571428567</ele><time>2026-04-07T12:32:27.914Z</time></trkpt><trkpt lat="44.1355834" lon="10.4158805"><ele>384.0</ele><time>2026-04-07T12:32:29.907Z</time></trkpt><trkpt lat="44.1356538" lon="10.4159115"><ele>384.57142857142856</ele><time>2026-04-07T12:32:31.908Z</time></trkpt><trkpt lat="44.1357233" lon="10.4159393"><ele>385.1428571428571</ele><time>2026-04-07T12:32:33.922Z</time></trkpt><trkpt lat="44.1357938" lon="10.4159692"><ele>385.71428571428567</ele><time>2026-04-07T12:32:35.913Z</time></trkpt><trkpt lat="44.1358635" lon="10.4160009"><ele>386.2857142857143</ele><time>2026-04-07T12:32:37.91Z</time></trkpt><trkpt lat="44.1359339" lon="10.4160268"><ele>386.8571428571429</ele><time>2026-04-07T12:32:39.937Z</time></trkpt><trkpt lat="44.1360007" lon="10.4160525"><ele>387.4285714285714</ele><time>2026-04-07T12:32:41.91Z</time></trkpt><trkpt lat="44.1360801" lon="10.4160935"><ele>388.0</ele><time>2026-04-07T12:32:44.914Z</time></trkpt><trkpt lat="44.1361602" lon="10.4161325"><ele>388.00000000000006</ele><time>2026-04-07T12:32:47.914Z</time></trkpt><trkpt lat="44.1362229" lon="10.4161737"><ele>388.0</ele><time>2026-04-07T12:32:50.922Z</time></trkpt><trkpt lat="44.136298" lon="10.4162301"><ele>388.0</ele><time>2026-04-07T12:32:53.907Z</time></trkpt><trkpt lat="44.1363621" lon="10.4162831"><ele>388.0</ele><time>2026-04-07T12:32:56.903Z</time></trkpt><trkpt lat="44.136428" lon="10.4163462"><ele>388.00000000000006</ele><time>2026-04-07T12:32:59.907Z</time></trkpt><trkpt lat="44.1364982" lon="10.4164057"><ele>388.0</ele><time>2026-04-07T12:33:02.913Z</time></trkpt><trkpt lat="44.1365712" lon="10.416471"><ele>389.00000000000006</ele><time>2026-04-07T12:33:05.91Z</time></trkpt><trkpt lat="44.1366433" lon="10.4165387"><ele>390.0</ele><time>2026-04-07T12:33:08.929Z</time></trkpt><trkpt lat="44.1367142" lon="10.4166083"><ele>391.0</ele><time>2026-04-07T12:33:11.919Z</time></trkpt><trkpt lat="44.1367836" lon="10.4166886"><ele>392.0</ele><time>2026-04-07T12:33:14.905Z</time></trkpt><trkpt lat="44.1368551" lon="10.4167673"><ele>393.00000000000006</ele><time>2026-04-07T12:33:17.923Z</time></trkpt><trkpt lat="44.1369285" lon="10.416848"><ele>394.0</ele><time>2026-04-07T12:33:20.908Z</time></trkpt><trkpt lat="44.1369794" lon="10.4169061"><ele>394.0</ele><time>2026-04-07T12:33:22.914Z</time></trkpt><trkpt lat="44.1370328" lon="10.4169637"><ele>394.0</ele><time>2026-04-07T12:33:24.914Z</time></trkpt><trkpt lat="44.1370862" lon="10.4170183"><ele>394.0</ele><time>2026-04-07T12:33:26.908Z</time></trkpt><trkpt lat="44.1371378" lon="10.4170781"><ele>394.0</ele><time>2026-04-07T12:33:28.921Z</time></trkpt><trkpt lat="44.1371921" lon="10.417134"><ele>394.0</ele><time>2026-04-07T12:33:30.903Z</time></trkpt><trkpt lat="44.1372424" lon="10.4171933"><ele>394.0</ele><time>2026-04-07T12:33:32.912Z</time></trkpt><trkpt lat="44.1372963" lon="10.4172457"><ele>394.0</ele><time>2026-04-07T12:33:34.915Z</time></trkpt><trkpt lat="44.1373694" lon="10.4173246"><ele>395.00000000000006</ele><time>2026-04-07T12:33:37.922Z</time></trkpt><trkpt lat="44.1374338" lon="10.4173965"><ele>396.0</ele><time>2026-04-07T12:33:40.903Z</time></trkpt><trkpt lat="44.1375047" lon="10.4174742"><ele>397.0</ele><time>2026-04-07T12:33:43.91Z</time></trkpt><trkpt lat="44.1375835" lon="10.4175462"><ele>398.0</ele><time>2026-04-07T12:33:46.913Z</time></trkpt><trkpt lat="44.1376527" lon="10.4176261"><ele>399.00000000000006</ele><time>2026-04-07T12:33:49.916Z</time></trkpt><trkpt lat="44.13772" lon="10.4177024"><ele>400.0</ele><time>2026-04-07T12:33:52.91Z</time></trkpt><trkpt lat="44.1377888" lon="10.4177752"><ele>400.00000000000006</ele><time>2026-04-07T12:33:55.908Z</time></trkpt><trkpt lat="44.1378593" lon="10.4178423"><ele>400.0</ele><time>2026-04-07T12:33:58.914Z</time></trkpt><trkpt lat="44.1379317" lon="10.417913"><ele>400.0</ele><time>2026-04-07T12:34:01.905Z</time></trkpt><trkpt lat="44.1379835" lon="10.4179637"><ele>400.0</ele><time>2026-04-07T12:34:03.907Z</time></trkpt><trkpt lat="44.1380624" lon="10.418035"><ele>400.00000000000006</ele><time>2026-04-07T12:34:06.907Z</time></trkpt><trkpt lat="44.1381211" lon="10.418082"><ele>400.0</ele><time>2026-04-07T12:34:08.912Z</time></trkpt><trkpt lat="44.1381948" lon="10.4181249"><ele>400.6</ele><time>2026-04-07T12:34:10.906Z</time></trkpt><trkpt lat="44.1382782" lon="10.4181802"><ele>401.2</ele><time>2026-04-07T12:34:12.91Z</time></trkpt><trkpt lat="44.1383675" lon="10.4182169"><ele>401.79999999999995</ele><time>2026-04-07T12:34:14.915Z</time></trkpt><trkpt lat="44.1384663" lon="10.4182445"><ele>402.4</ele><time>2026-04-07T12:34:16.921Z</time></trkpt><trkpt lat="44.1385805" lon="10.4182465"><ele>403.0</ele><time>2026-04-07T12:34:18.903Z</time></trkpt><trkpt lat="44.1386989" lon="10.4182368"><ele>403.00000000000006</ele><time>2026-04-07T12:34:20.909Z</time></trkpt><trkpt lat="44.1388243" lon="10.4182309"><ele>403.0</ele><time>2026-04-07T12:34:22.927Z</time></trkpt><trkpt lat="44.1388897" lon="10.4182281"><ele>403.0</ele><time>2026-04-07T12:34:23.906Z</time></trkpt><trkpt lat="44.1389547" lon="10.4182252"><ele>403.0</ele><time>2026-04-07T12:34:24.919Z</time></trkpt><trkpt lat="44.1390208" lon="10.4182295"><ele>403.00000000000006</ele><time>2026-04-07T12:34:25.916Z</time></trkpt><trkpt lat="44.1390934" lon="10.4182334"><ele>403.0</ele><time>2026-04-07T12:34:26.923Z</time></trkpt><trkpt lat="44.1391656" lon="10.4182418"><ele>401.83333333333337</ele><time>2026-04-07T12:34:27.933Z</time></trkpt><trkpt lat="44.1392409" lon="10.4182559"><ele>400.6666666666667</ele><time>2026-04-07T12:34:28.916Z</time></trkpt><trkpt lat="44.1393154" lon="10.4182696"><ele>399.5</ele><time>2026-04-07T12:34:29.917Z</time></trkpt><trkpt lat="44.139392" lon="10.418269"><ele>398.33333333333337</ele><time>2026-04-07T12:34:30.909Z</time></trkpt><trkpt lat="44.1394684" lon="10.4182646"><ele>397.1666666666667</ele><time>2026-04-07T12:34:31.91Z</time></trkpt><trkpt lat="44.139545" lon="10.4182629"><ele>396.0</ele><time>2026-04-07T12:34:32.911Z</time></trkpt><trkpt lat="44.1396202" lon="10.4182525"><ele>396.0</ele><time>2026-04-07T12:34:33.921Z</time></trkpt><trkpt lat="44.1396944" lon="10.4182394"><ele>396.0</ele><time>2026-04-07T12:34:34.907Z</time></trkpt><trkpt lat="44.1397711" lon="10.4182311"><ele>396.0</ele><time>2026-04-07T12:34:35.914Z</time></trkpt><trkpt lat="44.1398486" lon="10.4182223"><ele>396.0</ele><time>2026-04-07T12:34:36.911Z</time></trkpt><trkpt lat="44.1399246" lon="10.4182139"><ele>396.0</ele><time>2026-04-07T12:34:37.924Z</time></trkpt><trkpt lat="44.1400022" lon="10.4182065"><ele>396.0</ele><time>2026-04-07T12:34:38.93Z</time></trkpt><trkpt lat="44.1400755" lon="10.4181997"><ele>396.0</ele><time>2026-04-07T12:34:39.915Z</time></trkpt><trkpt lat="44.1401489" lon="10.4181852"><ele>396.0</ele><time>2026-04-07T12:34:40.916Z</time></trkpt><trkpt lat="44.1402155" lon="10.4181473"><ele>396.0</ele><time>2026-04-07T12:34:41.924Z</time></trkpt><trkpt lat="44.140279" lon="10.4180946"><ele>396.0</ele><time>2026-04-07T12:34:42.917Z</time></trkpt><trkpt lat="44.1403318" lon="10.4180366"><ele>396.0</ele><time>2026-04-07T12:34:43.912Z</time></trkpt><trkpt lat="44.1403728" lon="10.4179478"><ele>396.0</ele><time>2026-04-07T12:34:44.913Z</time></trkpt><trkpt lat="44.1404017" lon="10.4178477"><ele>396.0</ele><time>2026-04-07T12:34:45.914Z</time></trkpt><trkpt lat="44.1404241" lon="10.4177489"><ele>393.8333333333333</ele><time>2026-04-07T12:34:46.933Z</time></trkpt><trkpt lat="44.1404444" lon="10.4176454"><ele>391.6666666666667</ele><time>2026-04-07T12:34:47.9Z</time></trkpt><trkpt lat="44.1404629" lon="10.417547"><ele>389.5</ele><time>2026-04-07T12:34:48.918Z</time></trkpt><trkpt lat="44.1404773" lon="10.4174523"><ele>387.33333333333337</ele><time>2026-04-07T12:34:49.922Z</time></trkpt><trkpt lat="44.1404922" lon="10.4173577"><ele>385.1666666666667</ele><time>2026-04-07T12:34:50.917Z</time></trkpt><trkpt lat="44.1405084" lon="10.4172664"><ele>383.0</ele><time>2026-04-07T12:34:51.94Z</time></trkpt><trkpt lat="44.1405308" lon="10.4170991"><ele>382.0</ele><time>2026-04-07T12:34:53.923Z</time></trkpt><trkpt lat="44.1405556" lon="10.4169366"><ele>381.0</ele><time>2026-04-07T12:34:55.914Z</time></trkpt><trkpt lat="44.1405754" lon="10.4167785"><ele>380.0</ele><time>2026-04-07T12:34:57.922Z</time></trkpt><trkpt lat="44.1405945" lon="10.4166335"><ele>379.0</ele><time>2026-04-07T12:34:59.904Z</time></trkpt><trkpt lat="44.1406146" lon="10.4164885"><ele>378.0</ele><time>2026-04-07T12:35:01.905Z</time></trkpt><trkpt lat="44.1406361" lon="10.4163483"><ele>377.8333333333333</ele><time>2026-04-07T12:35:03.921Z</time></trkpt><trkpt lat="44.1406558" lon="10.416229"><ele>377.6666666666667</ele><time>2026-04-07T12:35:05.935Z</time></trkpt><trkpt lat="44.1406706" lon="10.4161152"><ele>377.5</ele><time>2026-04-07T12:35:07.91Z</time></trkpt><trkpt lat="44.1406897" lon="10.4159996"><ele>377.33333333333337</ele><time>2026-04-07T12:35:09.918Z</time></trkpt><trkpt lat="44.1407038" lon="10.4158955"><ele>377.1666666666667</ele><time>2026-04-07T12:35:11.919Z</time></trkpt><trkpt lat="44.1407143" lon="10.4158004"><ele>377.0</ele><time>2026-04-07T12:35:13.902Z</time></trkpt><trkpt lat="44.1407176" lon="10.4157105"><ele>378.1666666666667</ele><time>2026-04-07T12:35:15.916Z</time></trkpt><trkpt lat="44.1407354" lon="10.4155944"><ele>379.33333333333337</ele><time>2026-04-07T12:35:18.922Z</time></trkpt><trkpt lat="44.1407429" lon="10.4154799"><ele>380.5</ele><time>2026-04-07T12:35:21.911Z</time></trkpt><trkpt lat="44.1407439" lon="10.4153616"><ele>381.6666666666667</ele><time>2026-04-07T12:35:24.921Z</time></trkpt><trkpt lat="44.1407348" lon="10.4152434"><ele>382.8333333333333</ele><time>2026-04-07T12:35:27.916Z</time></trkpt><trkpt lat="44.1407334" lon="10.4151299"><ele>384.0</ele><time>2026-04-07T12:35:30.913Z</time></trkpt><trkpt lat="44.1407294" lon="10.4150216"><ele>384.5</ele><time>2026-04-07T12:35:33.915Z</time></trkpt><trkpt lat="44.1407221" lon="10.4149172"><ele>385.0</ele><time>2026-04-07T12:35:36.928Z</time></trkpt><trkpt lat="44.1407149" lon="10.4148136"><ele>385.5</ele><time>2026-04-07T12:35:39.925Z</time></trkpt><trkpt lat="44.1407099" lon="10.4147138"><ele>386.0</ele><time>2026-04-07T12:35:42.91Z</time></trkpt><trkpt lat="44.1407031" lon="10.4146102"><ele>386.5</ele><time>2026-04-07T12:35:45.921Z</time></trkpt><trkpt lat="44.140704" lon="10.4145021"><ele>387.0</ele><time>2026-04-07T12:35:48.906Z</time></trkpt><trkpt lat="44.1407105" lon="10.4143911"><ele>388.0</ele><time>2026-04-07T12:35:51.909Z</time></trkpt><trkpt lat="44.1407457" lon="10.4142981"><ele>389.0</ele><time>2026-04-07T12:35:54.916Z</time></trkpt><trkpt lat="44.140796" lon="10.4142242"><ele>390.0</ele><time>2026-04-07T12:35:57.916Z</time></trkpt><trkpt lat="44.1408656" lon="10.4141931"><ele>391.0</ele><time>2026-04-07T12:36:00.905Z</time></trkpt><trkpt lat="44.1409416" lon="10.4141989"><ele>392.0</ele><time>2026-04-07T12:36:03.922Z</time></trkpt><trkpt lat="44.1410086" lon="10.4142549"><ele>393.0</ele><time>2026-04-07T12:36:06.919Z</time></trkpt><trkpt lat="44.1410528" lon="10.4143445"><ele>393.0</ele><time>2026-04-07T12:36:09.912Z</time></trkpt><trkpt lat="44.1410723" lon="10.4144481"><ele>393.0</ele><time>2026-04-07T12:36:12.912Z</time></trkpt><trkpt lat="44.1410798" lon="10.4145533"><ele>393.0</ele><time>2026-04-07T12:36:15.916Z</time></trkpt><trkpt lat="44.1411011" lon="10.4146605"><ele>393.0</ele><time>2026-04-07T12:36:18.916Z</time></trkpt><trkpt lat="44.141117" lon="10.4147584"><ele>393.0</ele><time>2026-04-07T12:36:21.918Z</time></trkpt><trkpt lat="44.1411566" lon="10.4148487"><ele>393.0</ele><time>2026-04-07T12:36:24.93Z</time></trkpt><trkpt lat="44.141214" lon="10.4149058"><ele>393.6666666666667</ele><time>2026-04-07T12:36:27.915Z</time></trkpt><trkpt lat="44.1412822" lon="10.4149447"><ele>394.33333333333337</ele><time>2026-04-07T12:36:30.915Z</time></trkpt><trkpt lat="44.1413535" lon="10.4149673"><ele>395.0</ele><time>2026-04-07T12:36:33.911Z</time></trkpt><trkpt lat="44.1414298" lon="10.4149622"><ele>395.6666666666667</ele><time>2026-04-07T12:36:36.925Z</time></trkpt><trkpt lat="44.1415055" lon="10.4149448"><ele>396.33333333333337</ele><time>2026-04-07T12:36:39.918Z</time></trkpt><trkpt lat="44.1415817" lon="10.4149193"><ele>397.0</ele><time>2026-04-07T12:36:42.907Z</time></trkpt><trkpt lat="44.1416565" lon="10.4149009"><ele>397.0</ele><time>2026-04-07T12:36:45.917Z</time></trkpt><trkpt lat="44.1417245" lon="10.4148895"><ele>397.0</ele><time>2026-04-07T12:36:48.909Z</time></trkpt><trkpt lat="44.1418006" lon="10.4148773"><ele>397.0</ele><time>2026-04-07T12:36:51.915Z</time></trkpt><trkpt lat="44.1418716" lon="10.4148649"><ele>397.0</ele><time>2026-04-07T12:36:54.922Z</time></trkpt><trkpt lat="44.1419446" lon="10.4148615"><ele>397.0</ele><time>2026-04-07T12:36:57.913Z</time></trkpt><trkpt lat="44.1420189" lon="10.4148746"><ele>397.0</ele><time>2026-04-07T12:37:00.911Z</time></trkpt><trkpt lat="44.1420889" lon="10.4148871"><ele>397.0</ele><time>2026-04-07T12:37:03.913Z</time></trkpt><trkpt lat="44.142168" lon="10.4148996"><ele>397.00000000000006</ele><time>2026-04-07T12:37:06.919Z</time></trkpt><trkpt lat="44.1422434" lon="10.4149038"><ele>397.0</ele><time>2026-04-07T12:37:09.918Z</time></trkpt><trkpt lat="44.1423279" lon="10.4149173"><ele>397.0</ele><time>2026-04-07T12:37:12.914Z</time></trkpt><trkpt lat="44.142415" lon="10.4149429"><ele>397.0</ele><time>2026-04-07T12:37:15.902Z</time></trkpt><trkpt lat="44.1424879" lon="10.4149586"><ele>397.00000000000006</ele><time>2026-04-07T12:37:18.914Z</time></trkpt><trkpt lat="44.1425805" lon="10.4149699"><ele>397.0</ele><time>2026-04-07T12:37:21.908Z</time></trkpt><trkpt lat="44.1426451" lon="10.4149769"><ele>397.85714285714283</ele><time>2026-04-07T12:37:23.922Z</time></trkpt><trkpt lat="44.1427097" lon="10.414981"><ele>398.71428571428567</ele><time>2026-04-07T12:37:25.914Z</time></trkpt><trkpt lat="44.1427975" lon="10.4149625"><ele>399.57142857142856</ele><time>2026-04-07T12:37:28.913Z</time></trkpt><trkpt lat="44.1428875" lon="10.4149684"><ele>400.42857142857144</ele><time>2026-04-07T12:37:31.919Z</time></trkpt><trkpt lat="44.1429503" lon="10.4149459"><ele>401.2857142857143</ele><time>2026-04-07T12:37:33.917Z</time></trkpt><trkpt lat="44.1430163" lon="10.4149284"><ele>402.14285714285717</ele><time>2026-04-07T12:37:35.908Z</time></trkpt><trkpt lat="44.1430816" lon="10.4149099"><ele>403.0</ele><time>2026-04-07T12:37:37.922Z</time></trkpt><trkpt lat="44.1431479" lon="10.414897"><ele>404.7142857142857</ele><time>2026-04-07T12:37:39.917Z</time></trkpt><trkpt lat="44.1432153" lon="10.4149003"><ele>406.4285714285714</ele><time>2026-04-07T12:37:41.921Z</time></trkpt><trkpt lat="44.1432859" lon="10.4149083"><ele>408.1428571428571</ele><time>2026-04-07T12:37:43.905Z</time></trkpt><trkpt lat="44.1433608" lon="10.4149195"><ele>409.8571428571429</ele><time>2026-04-07T12:37:45.906Z</time></trkpt><trkpt lat="44.1434317" lon="10.4149458"><ele>411.57142857142856</ele><time>2026-04-07T12:37:47.916Z</time></trkpt><trkpt lat="44.1435029" lon="10.4149739"><ele>413.2857142857143</ele><time>2026-04-07T12:37:49.903Z</time></trkpt><trkpt lat="44.1435734" lon="10.4149969"><ele>415.0</ele><time>2026-04-07T12:37:51.903Z</time></trkpt><trkpt lat="44.1436475" lon="10.4150201"><ele>415.0</ele><time>2026-04-07T12:37:53.918Z</time></trkpt><trkpt lat="44.1437224" lon="10.4150348"><ele>415.0</ele><time>2026-04-07T12:37:55.914Z</time></trkpt><trkpt lat="44.14379" lon="10.415063"><ele>415.0</ele><time>2026-04-07T12:37:57.908Z</time></trkpt><trkpt lat="44.1438555" lon="10.4150885"><ele>415.0</ele><time>2026-04-07T12:37:59.914Z</time></trkpt><trkpt lat="44.1439225" lon="10.4151195"><ele>415.0</ele><time>2026-04-07T12:38:01.913Z</time></trkpt><trkpt lat="44.1439915" lon="10.4151457"><ele>415.0</ele><time>2026-04-07T12:38:03.916Z</time></trkpt><trkpt lat="44.1440617" lon="10.4151495"><ele>415.0</ele><time>2026-04-07T12:38:05.912Z</time></trkpt><trkpt lat="44.1441254" lon="10.4151036"><ele>415.0</ele><time>2026-04-07T12:38:07.906Z</time></trkpt><trkpt lat="44.1441514" lon="10.4150122"><ele>415.0</ele><time>2026-04-07T12:38:09.921Z</time></trkpt><trkpt lat="44.1441354" lon="10.414917"><ele>415.0</ele><time>2026-04-07T12:38:11.911Z</time></trkpt><trkpt lat="44.1440858" lon="10.4148427"><ele>415.0</ele><time>2026-04-07T12:38:13.918Z</time></trkpt><trkpt lat="44.1440217" lon="10.4147992"><ele>415.0</ele><time>2026-04-07T12:38:15.91Z</time></trkpt><trkpt lat="44.1439506" lon="10.4147632"><ele>415.0</ele><time>2026-04-07T12:38:17.914Z</time></trkpt><trkpt lat="44.1438789" lon="10.4147327"><ele>415.0</ele><time>2026-04-07T12:38:19.931Z</time></trkpt><trkpt lat="44.1438068" lon="10.4147131"><ele>415.0</ele><time>2026-04-07T12:38:21.901Z</time></trkpt><trkpt lat="44.1437356" lon="10.4146967"><ele>415.0</ele><time>2026-04-07T12:38:23.917Z</time></trkpt><trkpt lat="44.1436665" lon="10.4146863"><ele>415.0</ele><time>2026-04-07T12:38:25.92Z</time></trkpt><trkpt lat="44.1435975" lon="10.414671"><ele>415.0</ele><time>2026-04-07T12:38:27.917Z</time></trkpt><trkpt lat="44.1435322" lon="10.4146428"><ele>415.0</ele><time>2026-04-07T12:38:29.914Z</time></trkpt><trkpt lat="44.1434718" lon="10.4145892"><ele>415.0</ele><time>2026-04-07T12:38:31.907Z</time></trkpt><trkpt lat="44.1434286" lon="10.4145055"><ele>415.0</ele><time>2026-04-07T12:38:33.915Z</time></trkpt><trkpt lat="44.1434085" lon="10.4144115"><ele>416.42857142857144</ele><time>2026-04-07T12:38:35.909Z</time></trkpt><trkpt lat="44.1434055" lon="10.4143158"><ele>417.8571428571429</ele><time>2026-04-07T12:38:37.92Z</time></trkpt><trkpt lat="44.1434046" lon="10.414221"><ele>419.2857142857143</ele><time>2026-04-07T12:38:39.908Z</time></trkpt><trkpt lat="44.1434075" lon="10.4141209"><ele>420.7142857142857</ele><time>2026-04-07T12:38:41.905Z</time></trkpt><trkpt lat="44.1434203" lon="10.4140198"><ele>422.1428571428571</ele><time>2026-04-07T12:38:43.914Z</time></trkpt><trkpt lat="44.1434321" lon="10.4139248"><ele>423.57142857142856</ele><time>2026-04-07T12:38:45.914Z</time></trkpt><trkpt lat="44.1434301" lon="10.413797"><ele>425.0</ele><time>2026-04-07T12:38:48.911Z</time></trkpt><trkpt lat="44.1434226" lon="10.4137057"><ele>425.85714285714283</ele><time>2026-04-07T12:38:50.916Z</time></trkpt><trkpt lat="44.1434028" lon="10.4136188"><ele>426.71428571428567</ele><time>2026-04-07T12:38:52.91Z</time></trkpt><trkpt lat="44.1433846" lon="10.4135278"><ele>427.57142857142856</ele><time>2026-04-07T12:38:54.915Z</time></trkpt><trkpt lat="44.1433641" lon="10.4134364"><ele>428.42857142857144</ele><time>2026-04-07T12:38:56.907Z</time></trkpt><trkpt lat="44.1433472" lon="10.4133476"><ele>429.2857142857143</ele><time>2026-04-07T12:38:58.914Z</time></trkpt><trkpt lat="44.1433282" lon="10.4132611"><ele>430.14285714285717</ele><time>2026-04-07T12:39:00.921Z</time></trkpt><trkpt lat="44.1433056" lon="10.413178"><ele>431.0</ele><time>2026-04-07T12:39:02.92Z</time></trkpt><trkpt lat="44.1432846" lon="10.4130944"><ele>431.0</ele><time>2026-04-07T12:39:04.92Z</time></trkpt><trkpt lat="44.143254" lon="10.4130166"><ele>431.0</ele><time>2026-04-07T12:39:06.913Z</time></trkpt><trkpt lat="44.1432083" lon="10.4129494"><ele>431.0</ele><time>2026-04-07T12:39:08.919Z</time></trkpt><trkpt lat="44.1431517" lon="10.4129061"><ele>431.0</ele><time>2026-04-07T12:39:10.923Z</time></trkpt><trkpt lat="44.14309" lon="10.4128727"><ele>431.0</ele><time>2026-04-07T12:39:12.926Z</time></trkpt><trkpt lat="44.1430258" lon="10.4128569"><ele>431.0</ele><time>2026-04-07T12:39:14.93Z</time></trkpt><trkpt lat="44.1429634" lon="10.412845"><ele>431.0</ele><time>2026-04-07T12:39:16.917Z</time></trkpt><trkpt lat="44.1428719" lon="10.4128292"><ele>430.66666666666663</ele><time>2026-04-07T12:39:19.903Z</time></trkpt><trkpt lat="44.1427967" lon="10.4127891"><ele>430.3333333333333</ele><time>2026-04-07T12:39:22.913Z</time></trkpt><trkpt lat="44.142749" lon="10.4127199"><ele>430.0</ele><time>2026-04-07T12:39:25.919Z</time></trkpt><trkpt lat="44.1427336" lon="10.4126165"><ele>429.66666666666663</ele><time>2026-04-07T12:39:28.902Z</time></trkpt><trkpt lat="44.1427441" lon="10.4125064"><ele>429.3333333333333</ele><time>2026-04-07T12:39:31.917Z</time></trkpt><trkpt lat="44.1427956" lon="10.4124221"><ele>429.0</ele><time>2026-04-07T12:39:34.916Z</time></trkpt><trkpt lat="44.1428639" lon="10.4123721"><ele>429.0</ele><time>2026-04-07T12:39:37.916Z</time></trkpt><trkpt lat="44.1429336" lon="10.4123339"><ele>429.0</ele><time>2026-04-07T12:39:40.917Z</time></trkpt><trkpt lat="44.1430125" lon="10.4123067"><ele>429.0</ele><time>2026-04-07T12:39:43.918Z</time></trkpt><trkpt lat="44.1430903" lon="10.4122665"><ele>429.0</ele><time>2026-04-07T12:39:46.91Z</time></trkpt><trkpt lat="44.1431609" lon="10.4122309"><ele>429.0</ele><time>2026-04-07T12:39:49.904Z</time></trkpt><trkpt lat="44.1432267" lon="10.4122031"><ele>429.0</ele><time>2026-04-07T12:39:51.92Z</time></trkpt><trkpt lat="44.1432914" lon="10.4121765"><ele>430.5</ele><time>2026-04-07T12:39:54.919Z</time></trkpt><trkpt lat="44.1433533" lon="10.4121584"><ele>432.0</ele><time>2026-04-07T12:39:57.921Z</time></trkpt><trkpt lat="44.143427" lon="10.4121365"><ele>433.5</ele><time>2026-04-07T12:40:00.91Z</time></trkpt><trkpt lat="44.1435103" lon="10.4121264"><ele>435.0</ele><time>2026-04-07T12:40:03.902Z</time></trkpt><trkpt lat="44.1436223" lon="10.4120957"><ele>436.5</ele><time>2026-04-07T12:40:07.905Z</time></trkpt><trkpt lat="44.1437057" lon="10.4120711"><ele>438.0</ele><time>2026-04-07T12:40:10.907Z</time></trkpt><trkpt lat="44.1437815" lon="10.4120087"><ele>438.3333333333333</ele><time>2026-04-07T12:40:13.905Z</time></trkpt><trkpt lat="44.1438497" lon="10.4119236"><ele>438.66666666666663</ele><time>2026-04-07T12:40:16.914Z</time></trkpt><trkpt lat="44.143915" lon="10.4118358"><ele>439.0</ele><time>2026-04-07T12:40:19.906Z</time></trkpt><trkpt lat="44.1439752" lon="10.4117432"><ele>439.3333333333333</ele><time>2026-04-07T12:40:22.906Z</time></trkpt><trkpt lat="44.1440268" lon="10.4116461"><ele>439.66666666666663</ele><time>2026-04-07T12:40:25.906Z</time></trkpt><trkpt lat="44.1440584" lon="10.4115388"><ele>440.0</ele><time>2026-04-07T12:40:28.903Z</time></trkpt><trkpt lat="44.1440609" lon="10.4114204"><ele>439.99999999999994</ele><time>2026-04-07T12:40:31.9Z</time></trkpt><trkpt lat="44.1440414" lon="10.4113243"><ele>440.0</ele><time>2026-04-07T12:40:34.907Z</time></trkpt><trkpt lat="44.1440037" lon="10.4112114"><ele>440.0</ele><time>2026-04-07T12:40:37.905Z</time></trkpt><trkpt lat="44.1439382" lon="10.4111227"><ele>440.0</ele><time>2026-04-07T12:40:40.913Z</time></trkpt><trkpt lat="44.1438887" lon="10.4110684"><ele>439.99999999999994</ele><time>2026-04-07T12:40:42.905Z</time></trkpt><trkpt lat="44.1438148" lon="10.4109896"><ele>440.0</ele><time>2026-04-07T12:40:45.902Z</time></trkpt><trkpt lat="44.1437614" lon="10.4109409"><ele>441.16666666666663</ele><time>2026-04-07T12:40:47.907Z</time></trkpt><trkpt lat="44.1437071" lon="10.410891"><ele>442.3333333333333</ele><time>2026-04-07T12:40:49.911Z</time></trkpt><trkpt lat="44.1436312" lon="10.4108136"><ele>443.5</ele><time>2026-04-07T12:40:52.905Z</time></trkpt><trkpt lat="44.1435587" lon="10.4107333"><ele>444.66666666666663</ele><time>2026-04-07T12:40:55.921Z</time></trkpt><trkpt lat="44.1434827" lon="10.4106622"><ele>445.8333333333333</ele><time>2026-04-07T12:40:58.918Z</time></trkpt><trkpt lat="44.1434237" lon="10.410566"><ele>447.0</ele><time>2026-04-07T12:41:01.912Z</time></trkpt><trkpt lat="44.1434251" lon="10.410474"><ele>447.4285714285714</ele><time>2026-04-07T12:41:03.915Z</time></trkpt><trkpt lat="44.1434555" lon="10.4103882"><ele>447.8571428571429</ele><time>2026-04-07T12:41:05.915Z</time></trkpt><trkpt lat="44.1435142" lon="10.4103311"><ele>448.28571428571433</ele><time>2026-04-07T12:41:07.929Z</time></trkpt><trkpt lat="44.1435798" lon="10.4103026"><ele>448.7142857142857</ele><time>2026-04-07T12:41:09.932Z</time></trkpt><trkpt lat="44.1436431" lon="10.4102666"><ele>449.14285714285717</ele><time>2026-04-07T12:41:11.906Z</time></trkpt><trkpt lat="44.1437062" lon="10.4102318"><ele>449.5714285714286</ele><time>2026-04-07T12:41:13.918Z</time></trkpt><trkpt lat="44.1437716" lon="10.4102014"><ele>450.00000000000006</ele><time>2026-04-07T12:41:15.916Z</time></trkpt><trkpt lat="44.1438353" lon="10.4101653"><ele>450.0</ele><time>2026-04-07T12:41:17.906Z</time></trkpt><trkpt lat="44.1438989" lon="10.4101393"><ele>450.0</ele><time>2026-04-07T12:41:19.907Z</time></trkpt><trkpt lat="44.1439625" lon="10.4101133"><ele>450.0</ele><time>2026-04-07T12:41:21.912Z</time></trkpt><trkpt lat="44.1440255" lon="10.4101004"><ele>450.0</ele><time>2026-04-07T12:41:23.914Z</time></trkpt><trkpt lat="44.1441179" lon="10.4101184"><ele>450.0</ele><time>2026-04-07T12:41:26.924Z</time></trkpt><trkpt lat="44.1442064" lon="10.4101404"><ele>450.0</ele><time>2026-04-07T12:41:29.916Z</time></trkpt><trkpt lat="44.1442947" lon="10.4101727"><ele>452.3333333333333</ele><time>2026-04-07T12:41:32.916Z</time></trkpt><trkpt lat="44.1443811" lon="10.4102044"><ele>454.66666666666663</ele><time>2026-04-07T12:41:35.909Z</time></trkpt><trkpt lat="44.1444691" lon="10.4102325"><ele>457.0</ele><time>2026-04-07T12:41:38.92Z</time></trkpt><trkpt lat="44.1445303" lon="10.4102561"><ele>459.3333333333333</ele><time>2026-04-07T12:41:40.922Z</time></trkpt><trkpt lat="44.1446004" lon="10.4102733"><ele>461.66666666666663</ele><time>2026-04-07T12:41:42.942Z</time></trkpt><trkpt lat="44.1446876" lon="10.4103073"><ele>464.0</ele><time>2026-04-07T12:41:45.933Z</time></trkpt><trkpt lat="44.1447752" lon="10.4103368"><ele>464.00000000000006</ele><time>2026-04-07T12:41:48.916Z</time></trkpt><trkpt lat="44.1448369" lon="10.4103565"><ele>464.0</ele><time>2026-04-07T12:41:50.903Z</time></trkpt><trkpt lat="44.1448993" lon="10.4103829"><ele>464.00000000000006</ele><time>2026-04-07T12:41:52.914Z</time></trkpt><trkpt lat="44.1449616" lon="10.4104047"><ele>464.00000000000006</ele><time>2026-04-07T12:41:54.934Z</time></trkpt><trkpt lat="44.1450258" lon="10.4104235"><ele>464.0</ele><time>2026-04-07T12:41:56.913Z</time></trkpt><trkpt lat="44.1450893" lon="10.4104383"><ele>464.00000000000006</ele><time>2026-04-07T12:41:58.921Z</time></trkpt><trkpt lat="44.1451551" lon="10.410461"><ele>464.00000000000006</ele><time>2026-04-07T12:42:00.926Z</time></trkpt><trkpt lat="44.1452176" lon="10.4104839"><ele>465.28571428571433</ele><time>2026-04-07T12:42:02.902Z</time></trkpt><trkpt lat="44.1452821" lon="10.4105114"><ele>466.57142857142856</ele><time>2026-04-07T12:42:04.868Z</time></trkpt><trkpt lat="44.1453475" lon="10.4105347"><ele>467.8571428571429</ele><time>2026-04-07T12:42:06.914Z</time></trkpt><trkpt lat="44.1454106" lon="10.4105508"><ele>469.14285714285717</ele><time>2026-04-07T12:42:08.908Z</time></trkpt><trkpt lat="44.1454745" lon="10.41057"><ele>470.42857142857144</ele><time>2026-04-07T12:42:10.929Z</time></trkpt><trkpt lat="44.1455531" lon="10.4106092"><ele>471.7142857142857</ele><time>2026-04-07T12:42:13.913Z</time></trkpt><trkpt lat="44.1456329" lon="10.4106308"><ele>473.0</ele><time>2026-04-07T12:42:17.915Z</time></trkpt><trkpt lat="44.1457133" lon="10.410655"><ele>473.3333333333333</ele><time>2026-04-07T12:42:20.914Z</time></trkpt><trkpt lat="44.1457946" lon="10.4106838"><ele>473.66666666666663</ele><time>2026-04-07T12:42:23.911Z</time></trkpt><trkpt lat="44.1458669" lon="10.4107089"><ele>474.0</ele><time>2026-04-07T12:42:26.915Z</time></trkpt><trkpt lat="44.1459381" lon="10.4107397"><ele>474.33333333333337</ele><time>2026-04-07T12:42:29.9Z</time></trkpt><trkpt lat="44.1460099" lon="10.4107663"><ele>474.6666666666667</ele><time>2026-04-07T12:42:32.906Z</time></trkpt><trkpt lat="44.1460803" lon="10.4107851"><ele>475.0</ele><time>2026-04-07T12:42:35.925Z</time></trkpt><trkpt lat="44.1461502" lon="10.4108169"><ele>475.00000000000006</ele><time>2026-04-07T12:42:38.916Z</time></trkpt><trkpt lat="44.1462233" lon="10.4108448"><ele>475.0</ele><time>2026-04-07T12:42:41.915Z</time></trkpt><trkpt lat="44.146299" lon="10.410868"><ele>475.0</ele><time>2026-04-07T12:42:44.904Z</time></trkpt><trkpt lat="44.1463791" lon="10.4108937"><ele>475.0</ele><time>2026-04-07T12:42:47.924Z</time></trkpt><trkpt lat="44.1464569" lon="10.4109345"><ele>475.00000000000006</ele><time>2026-04-07T12:42:50.904Z</time></trkpt><trkpt lat="44.1465273" lon="10.4109822"><ele>475.0</ele><time>2026-04-07T12:42:53.919Z</time></trkpt><trkpt lat="44.1465964" lon="10.4110416"><ele>475.83333333333337</ele><time>2026-04-07T12:42:56.903Z</time></trkpt><trkpt lat="44.1466588" lon="10.4111162"><ele>476.6666666666667</ele><time>2026-04-07T12:42:59.908Z</time></trkpt><trkpt lat="44.146719" lon="10.4112007"><ele>477.5</ele><time>2026-04-07T12:43:02.915Z</time></trkpt><trkpt lat="44.1467824" lon="10.4112865"><ele>478.33333333333337</ele><time>2026-04-07T12:43:05.913Z</time></trkpt><trkpt lat="44.146848" lon="10.4113726"><ele>479.1666666666667</ele><time>2026-04-07T12:43:08.923Z</time></trkpt><trkpt lat="44.1469089" lon="10.4114696"><ele>480.0</ele><time>2026-04-07T12:43:11.92Z</time></trkpt><trkpt lat="44.1469559" lon="10.4115297"><ele>481.0</ele><time>2026-04-07T12:43:13.916Z</time></trkpt><trkpt lat="44.1469992" lon="10.4115934"><ele>482.0</ele><time>2026-04-07T12:43:15.907Z</time></trkpt><trkpt lat="44.1470366" lon="10.4116642"><ele>483.0</ele><time>2026-04-07T12:43:17.917Z</time></trkpt><trkpt lat="44.1471005" lon="10.4117612"><ele>484.0</ele><time>2026-04-07T12:43:20.903Z</time></trkpt><trkpt lat="44.1471426" lon="10.4118272"><ele>485.0</ele><time>2026-04-07T12:43:22.907Z</time></trkpt><trkpt lat="44.1471864" lon="10.4118914"><ele>486.0</ele><time>2026-04-07T12:43:24.909Z</time></trkpt><trkpt lat="44.1472328" lon="10.4119553"><ele>487.0</ele><time>2026-04-07T12:43:26.915Z</time></trkpt><trkpt lat="44.1472798" lon="10.4120203"><ele>487.0</ele><time>2026-04-07T12:43:28.913Z</time></trkpt><trkpt lat="44.147328" lon="10.4120888"><ele>487.0</ele><time>2026-04-07T12:43:30.916Z</time></trkpt><trkpt lat="44.1473786" lon="10.4121543"><ele>487.0</ele><time>2026-04-07T12:43:32.917Z</time></trkpt><trkpt lat="44.1474297" lon="10.4122192"><ele>487.0</ele><time>2026-04-07T12:43:34.913Z</time></trkpt><trkpt lat="44.1474797" lon="10.4122909"><ele>487.0</ele><time>2026-04-07T12:43:36.924Z</time></trkpt><trkpt lat="44.1475283" lon="10.4123614"><ele>487.0</ele><time>2026-04-07T12:43:38.919Z</time></trkpt><trkpt lat="44.1475781" lon="10.4124262"><ele>487.0</ele><time>2026-04-07T12:43:40.917Z</time></trkpt><trkpt lat="44.1476262" lon="10.4124949"><ele>487.57142857142856</ele><time>2026-04-07T12:43:42.931Z</time></trkpt><trkpt lat="44.1476731" lon="10.4125643"><ele>488.1428571428571</ele><time>2026-04-07T12:43:44.916Z</time></trkpt><trkpt lat="44.1477206" lon="10.4126314"><ele>488.71428571428567</ele><time>2026-04-07T12:43:46.912Z</time></trkpt><trkpt lat="44.1477669" lon="10.4126983"><ele>489.2857142857143</ele><time>2026-04-07T12:43:48.915Z</time></trkpt><trkpt lat="44.1478141" lon="10.4127628"><ele>489.8571428571428</ele><time>2026-04-07T12:43:50.905Z</time></trkpt><trkpt lat="44.147861" lon="10.4128257"><ele>490.4285714285714</ele><time>2026-04-07T12:43:52.919Z</time></trkpt><trkpt lat="44.1479071" lon="10.4128913"><ele>491.0</ele><time>2026-04-07T12:43:54.917Z</time></trkpt><trkpt lat="44.1479537" lon="10.4129515"><ele>491.0</ele><time>2026-04-07T12:43:56.935Z</time></trkpt><trkpt lat="44.1479963" lon="10.4130189"><ele>490.99999999999994</ele><time>2026-04-07T12:43:58.919Z</time></trkpt><trkpt lat="44.148052" lon="10.4131145"><ele>491.0</ele><time>2026-04-07T12:44:01.908Z</time></trkpt><trkpt lat="44.1481186" lon="10.4131785"><ele>491.0</ele><time>2026-04-07T12:44:04.916Z</time></trkpt><trkpt lat="44.1481938" lon="10.4131341"><ele>490.99999999999994</ele><time>2026-04-07T12:44:07.921Z</time></trkpt><trkpt lat="44.1482087" lon="10.4130423"><ele>491.0</ele><time>2026-04-07T12:44:09.916Z</time></trkpt><trkpt lat="44.148202" lon="10.4129537"><ele>491.0</ele><time>2026-04-07T12:44:11.915Z</time></trkpt><trkpt lat="44.1481981" lon="10.4128547"><ele>490.99999999999994</ele><time>2026-04-07T12:44:14.912Z</time></trkpt><trkpt lat="44.1481891" lon="10.4127668"><ele>491.0</ele><time>2026-04-07T12:44:17.911Z</time></trkpt><trkpt lat="44.1481768" lon="10.4126616"><ele>491.0</ele><time>2026-04-07T12:44:20.903Z</time></trkpt><trkpt lat="44.1481508" lon="10.412543"><ele>491.0</ele><time>2026-04-07T12:44:23.932Z</time></trkpt><trkpt lat="44.1481312" lon="10.4124285"><ele>490.99999999999994</ele><time>2026-04-07T12:44:26.911Z</time></trkpt><trkpt lat="44.1481083" lon="10.4123085"><ele>491.0</ele><time>2026-04-07T12:44:29.918Z</time></trkpt><trkpt lat="44.1480813" lon="10.4121911"><ele>490.8333333333333</ele><time>2026-04-07T12:44:32.916Z</time></trkpt><trkpt lat="44.1480524" lon="10.4120943"><ele>490.66666666666663</ele><time>2026-04-07T12:44:35.918Z</time></trkpt><trkpt lat="44.1480418" lon="10.4119657"><ele>490.5</ele><time>2026-04-07T12:44:38.915Z</time></trkpt><trkpt lat="44.1480234" lon="10.4118394"><ele>490.33333333333337</ele><time>2026-04-07T12:44:41.922Z</time></trkpt><trkpt lat="44.1479986" lon="10.4117165"><ele>490.1666666666667</ele><time>2026-04-07T12:44:44.915Z</time></trkpt><trkpt lat="44.1479728" lon="10.4115943"><ele>490.0</ele><time>2026-04-07T12:44:47.907Z</time></trkpt><trkpt lat="44.1479562" lon="10.4114715"><ele>490.00000000000006</ele><time>2026-04-07T12:44:50.914Z</time></trkpt><trkpt lat="44.1479273" lon="10.411353"><ele>490.0</ele><time>2026-04-07T12:44:53.914Z</time></trkpt><trkpt lat="44.1479098" lon="10.4112573"><ele>490.0</ele><time>2026-04-07T12:44:56.91Z</time></trkpt><trkpt lat="44.1478878" lon="10.4111292"><ele>490.0</ele><time>2026-04-07T12:44:59.912Z</time></trkpt><trkpt lat="44.1478734" lon="10.4110329"><ele>490.00000000000006</ele><time>2026-04-07T12:45:01.922Z</time></trkpt><trkpt lat="44.1478606" lon="10.4109436"><ele>490.0</ele><time>2026-04-07T12:45:03.915Z</time></trkpt><trkpt lat="44.1478478" lon="10.4108559"><ele>490.57142857142856</ele><time>2026-04-07T12:45:05.921Z</time></trkpt><trkpt lat="44.1478281" lon="10.4107292"><ele>491.1428571428571</ele><time>2026-04-07T12:45:08.914Z</time></trkpt><trkpt lat="44.1478112" lon="10.4106438"><ele>491.7142857142857</ele><time>2026-04-07T12:45:10.92Z</time></trkpt><trkpt lat="44.1477996" lon="10.4105555"><ele>492.2857142857143</ele><time>2026-04-07T12:45:12.915Z</time></trkpt><trkpt lat="44.1477761" lon="10.4104284"><ele>492.85714285714283</ele><time>2026-04-07T12:45:15.907Z</time></trkpt><trkpt lat="44.1477669" lon="10.4103416"><ele>493.42857142857144</ele><time>2026-04-07T12:45:17.914Z</time></trkpt><trkpt lat="44.1477577" lon="10.4102519"><ele>494.0</ele><time>2026-04-07T12:45:19.911Z</time></trkpt><trkpt lat="44.1477426" lon="10.4101643"><ele>494.7142857142857</ele><time>2026-04-07T12:45:21.91Z</time></trkpt><trkpt lat="44.1477319" lon="10.4100731"><ele>495.42857142857144</ele><time>2026-04-07T12:45:23.908Z</time></trkpt><trkpt lat="44.1477167" lon="10.4099866"><ele>496.14285714285717</ele><time>2026-04-07T12:45:25.912Z</time></trkpt><trkpt lat="44.1477059" lon="10.4098989"><ele>496.8571428571429</ele><time>2026-04-07T12:45:27.914Z</time></trkpt><trkpt lat="44.1476938" lon="10.4097839"><ele>497.57142857142856</ele><time>2026-04-07T12:45:30.909Z</time></trkpt><trkpt lat="44.1476724" lon="10.409664"><ele>498.28571428571433</ele><time>2026-04-07T12:45:33.917Z</time></trkpt><trkpt lat="44.1476594" lon="10.4095719"><ele>499.00000000000006</ele><time>2026-04-07T12:45:35.901Z</time></trkpt><trkpt lat="44.1476484" lon="10.4094449"><ele>500.6666666666667</ele><time>2026-04-07T12:45:38.916Z</time></trkpt><trkpt lat="44.147631" lon="10.4093579"><ele>502.33333333333337</ele><time>2026-04-07T12:45:40.915Z</time></trkpt><trkpt lat="44.1476144" lon="10.4092241"><ele>504.0</ele><time>2026-04-07T12:45:43.929Z</time></trkpt><trkpt lat="44.1475993" lon="10.4091326"><ele>505.66666666666663</ele><time>2026-04-07T12:45:45.923Z</time></trkpt><trkpt lat="44.147583" lon="10.4090441"><ele>507.3333333333333</ele><time>2026-04-07T12:45:47.921Z</time></trkpt><trkpt lat="44.1475714" lon="10.4089563"><ele>509.0</ele><time>2026-04-07T12:45:49.91Z</time></trkpt><trkpt lat="44.1475635" lon="10.4088306"><ele>510.16666666666663</ele><time>2026-04-07T12:45:52.915Z</time></trkpt><trkpt lat="44.1475358" lon="10.4087125"><ele>511.3333333333333</ele><time>2026-04-07T12:45:55.911Z</time></trkpt><trkpt lat="44.1475219" lon="10.4085833"><ele>512.5</ele><time>2026-04-07T12:45:58.93Z</time></trkpt><trkpt lat="44.1474981" lon="10.4084614"><ele>513.6666666666666</ele><time>2026-04-07T12:46:01.913Z</time></trkpt><trkpt lat="44.1474646" lon="10.4083597"><ele>514.8333333333334</ele><time>2026-04-07T12:46:04.911Z</time></trkpt><trkpt lat="44.1474068" lon="10.408286"><ele>516.0</ele><time>2026-04-07T12:46:07.917Z</time></trkpt><trkpt lat="44.147353" lon="10.4081992"><ele>514.6666666666666</ele><time>2026-04-07T12:46:10.919Z</time></trkpt><trkpt lat="44.1472912" lon="10.4081191"><ele>513.3333333333334</ele><time>2026-04-07T12:46:14.91Z</time></trkpt><trkpt lat="44.1472423" lon="10.4080352"><ele>512.0</ele><time>2026-04-07T12:46:17.914Z</time></trkpt><trkpt lat="44.1472356" lon="10.4079429"><ele>510.6666666666667</ele><time>2026-04-07T12:46:20.913Z</time></trkpt><trkpt lat="44.147308" lon="10.4078711"><ele>509.33333333333337</ele><time>2026-04-07T12:46:23.91Z</time></trkpt><trkpt lat="44.1473854" lon="10.4078019"><ele>508.0</ele><time>2026-04-07T12:46:26.929Z</time></trkpt><trkpt lat="44.1474779" lon="10.4077685"><ele>508.00000000000006</ele><time>2026-04-07T12:46:29.921Z</time></trkpt><trkpt lat="44.1475449" lon="10.4077701"><ele>508.0</ele><time>2026-04-07T12:46:31.925Z</time></trkpt><trkpt lat="44.147616" lon="10.4077868"><ele>508.0</ele><time>2026-04-07T12:46:33.914Z</time></trkpt><trkpt lat="44.1476896" lon="10.4078109"><ele>508.0</ele><time>2026-04-07T12:46:35.916Z</time></trkpt><trkpt lat="44.1477759" lon="10.4078283"><ele>508.00000000000006</ele><time>2026-04-07T12:46:37.918Z</time></trkpt><trkpt lat="44.1478657" lon="10.4078551"><ele>508.0</ele><time>2026-04-07T12:46:39.917Z</time></trkpt><trkpt lat="44.1479387" lon="10.4079156"><ele>509.14285714285717</ele><time>2026-04-07T12:46:41.92Z</time></trkpt><trkpt lat="44.1479817" lon="10.4079966"><ele>510.2857142857142</ele><time>2026-04-07T12:46:43.915Z</time></trkpt><trkpt lat="44.148006" lon="10.4080964"><ele>511.4285714285714</ele><time>2026-04-07T12:46:46.911Z</time></trkpt><trkpt lat="44.1480039" lon="10.4082042"><ele>512.5714285714286</ele><time>2026-04-07T12:46:49.908Z</time></trkpt><trkpt lat="44.1480058" lon="10.4082958"><ele>513.7142857142857</ele><time>2026-04-07T12:46:51.905Z</time></trkpt><trkpt lat="44.148013" lon="10.4083862"><ele>514.8571428571428</ele><time>2026-04-07T12:46:53.906Z</time></trkpt><trkpt lat="44.1480202" lon="10.4084767"><ele>516.0</ele><time>2026-04-07T12:46:55.918Z</time></trkpt><trkpt lat="44.1480216" lon="10.4085672"><ele>515.9999999999999</ele><time>2026-04-07T12:46:57.906Z</time></trkpt><trkpt lat="44.1480311" lon="10.4086579"><ele>516.0</ele><time>2026-04-07T12:46:59.911Z</time></trkpt><trkpt lat="44.1480379" lon="10.4087458"><ele>516.0</ele><time>2026-04-07T12:47:01.911Z</time></trkpt><trkpt lat="44.14806" lon="10.408867"><ele>516.0</ele><time>2026-04-07T12:47:04.918Z</time></trkpt><trkpt lat="44.1480678" lon="10.4089555"><ele>516.0</ele><time>2026-04-07T12:47:06.907Z</time></trkpt><trkpt lat="44.1480745" lon="10.4090433"><ele>515.9999999999999</ele><time>2026-04-07T12:47:08.904Z</time></trkpt><trkpt lat="44.1480861" lon="10.4091298"><ele>516.0</ele><time>2026-04-07T12:47:10.919Z</time></trkpt><trkpt lat="44.1480983" lon="10.4092187"><ele>514.9999999999999</ele><time>2026-04-07T12:47:12.921Z</time></trkpt><trkpt lat="44.1481015" lon="10.4093084"><ele>514.0</ele><time>2026-04-07T12:47:14.913Z</time></trkpt><trkpt lat="44.1481105" lon="10.4093995"><ele>513.0</ele><time>2026-04-07T12:47:16.92Z</time></trkpt><trkpt lat="44.148121" lon="10.40949"><ele>511.99999999999994</ele><time>2026-04-07T12:47:18.916Z</time></trkpt><trkpt lat="44.1481314" lon="10.4095833"><ele>511.0</ele><time>2026-04-07T12:47:20.913Z</time></trkpt><trkpt lat="44.1481448" lon="10.4096772"><ele>509.99999999999994</ele><time>2026-04-07T12:47:22.91Z</time></trkpt><trkpt lat="44.1481615" lon="10.4097686"><ele>508.99999999999994</ele><time>2026-04-07T12:47:24.912Z</time></trkpt><trkpt lat="44.1481792" lon="10.4098537"><ele>507.3333333333333</ele><time>2026-04-07T12:47:26.919Z</time></trkpt><trkpt lat="44.1482068" lon="10.4099735"><ele>505.66666666666663</ele><time>2026-04-07T12:47:29.909Z</time></trkpt><trkpt lat="44.1482392" lon="10.4100955"><ele>504.0</ele><time>2026-04-07T12:47:32.904Z</time></trkpt><trkpt lat="44.1482666" lon="10.4101747"><ele>502.33333333333337</ele><time>2026-04-07T12:47:34.91Z</time></trkpt><trkpt lat="44.1482955" lon="10.410295"><ele>500.6666666666667</ele><time>2026-04-07T12:47:37.912Z</time></trkpt><trkpt lat="44.1483098" lon="10.4103843"><ele>499.0</ele><time>2026-04-07T12:47:39.913Z</time></trkpt><trkpt lat="44.1483285" lon="10.4104714"><ele>502.7142857142858</ele><time>2026-04-07T12:47:41.915Z</time></trkpt><trkpt lat="44.148352" lon="10.4105584"><ele>506.42857142857144</ele><time>2026-04-07T12:47:43.92Z</time></trkpt><trkpt lat="44.1483825" lon="10.4106468"><ele>510.14285714285717</ele><time>2026-04-07T12:47:45.92Z</time></trkpt><trkpt lat="44.1484083" lon="10.4107344"><ele>513.8571428571429</ele><time>2026-04-07T12:47:47.921Z</time></trkpt><trkpt lat="44.1484378" lon="10.4108228"><ele>517.5714285714286</ele><time>2026-04-07T12:47:49.913Z</time></trkpt><trkpt lat="44.1484669" lon="10.4109112"><ele>521.2857142857143</ele><time>2026-04-07T12:47:51.913Z</time></trkpt><trkpt lat="44.1484984" lon="10.411"><ele>525.0</ele><time>2026-04-07T12:47:53.918Z</time></trkpt><trkpt lat="44.1485302" lon="10.4110885"><ele>525.0</ele><time>2026-04-07T12:47:55.926Z</time></trkpt><trkpt lat="44.148573" lon="10.4111766"><ele>525.0</ele><time>2026-04-07T12:47:57.914Z</time></trkpt><trkpt lat="44.148619" lon="10.4112621"><ele>525.0</ele><time>2026-04-07T12:47:59.911Z</time></trkpt><trkpt lat="44.1486604" lon="10.4113422"><ele>525.0</ele><time>2026-04-07T12:48:01.915Z</time></trkpt><trkpt lat="44.14871" lon="10.4113998"><ele>525.0</ele><time>2026-04-07T12:48:03.912Z</time></trkpt><trkpt lat="44.1487719" lon="10.4114308"><ele>525.0</ele><time>2026-04-07T12:48:05.917Z</time></trkpt><trkpt lat="44.1488404" lon="10.4114416"><ele>525.0</ele><time>2026-04-07T12:48:07.903Z</time></trkpt><trkpt lat="44.1489077" lon="10.4114257"><ele>525.0</ele><time>2026-04-07T12:48:09.914Z</time></trkpt><trkpt lat="44.1489633" lon="10.4113734"><ele>525.0</ele><time>2026-04-07T12:48:11.917Z</time></trkpt><trkpt lat="44.1490136" lon="10.411305"><ele>525.0</ele><time>2026-04-07T12:48:13.915Z</time></trkpt><trkpt lat="44.1490693" lon="10.4112375"><ele>525.0</ele><time>2026-04-07T12:48:15.912Z</time></trkpt><trkpt lat="44.1491301" lon="10.4111833"><ele>525.0</ele><time>2026-04-07T12:48:17.905Z</time></trkpt><trkpt lat="44.1492202" lon="10.4111556"><ele>525.0</ele><time>2026-04-07T12:48:20.905Z</time></trkpt><trkpt lat="44.1492995" lon="10.4111826"><ele>524.8333333333334</ele><time>2026-04-07T12:48:22.922Z</time></trkpt><trkpt lat="44.1493677" lon="10.4112164"><ele>524.6666666666666</ele><time>2026-04-07T12:48:24.911Z</time></trkpt><trkpt lat="44.1494375" lon="10.4112587"><ele>524.5</ele><time>2026-04-07T12:48:27.906Z</time></trkpt><trkpt lat="44.1495133" lon="10.4113079"><ele>524.3333333333333</ele><time>2026-04-07T12:48:30.926Z</time></trkpt><trkpt lat="44.1495954" lon="10.4113569"><ele>524.1666666666666</ele><time>2026-04-07T12:48:33.918Z</time></trkpt><trkpt lat="44.1496602" lon="10.4113872"><ele>524.0</ele><time>2026-04-07T12:48:35.903Z</time></trkpt><trkpt lat="44.1497512" lon="10.4114284"><ele>524.0</ele><time>2026-04-07T12:48:38.909Z</time></trkpt><trkpt lat="44.1498235" lon="10.4114718"><ele>524.0</ele><time>2026-04-07T12:48:41.911Z</time></trkpt><trkpt lat="44.1498842" lon="10.4114998"><ele>524.0</ele><time>2026-04-07T12:48:43.905Z</time></trkpt><trkpt lat="44.1499724" lon="10.4115428"><ele>524.0</ele><time>2026-04-07T12:48:46.908Z</time></trkpt><trkpt lat="44.150037" lon="10.411579"><ele>524.0</ele><time>2026-04-07T12:48:48.903Z</time></trkpt><trkpt lat="44.1501031" lon="10.4116192"><ele>524.0</ele><time>2026-04-07T12:48:50.903Z</time></trkpt><trkpt lat="44.1501699" lon="10.4116526"><ele>524.0</ele><time>2026-04-07T12:48:52.913Z</time></trkpt><trkpt lat="44.1502345" lon="10.4116954"><ele>524.8571428571429</ele><time>2026-04-07T12:48:54.914Z</time></trkpt><trkpt lat="44.1503019" lon="10.4117303"><ele>525.7142857142858</ele><time>2026-04-07T12:48:56.92Z</time></trkpt><trkpt lat="44.1503694" lon="10.4117613"><ele>526.5714285714286</ele><time>2026-04-07T12:48:58.912Z</time></trkpt><trkpt lat="44.1504346" lon="10.4117884"><ele>527.4285714285714</ele><time>2026-04-07T12:49:00.918Z</time></trkpt><trkpt lat="44.1505005" lon="10.4118133"><ele>528.2857142857142</ele><time>2026-04-07T12:49:02.919Z</time></trkpt><trkpt lat="44.1505624" lon="10.4118418"><ele>529.1428571428571</ele><time>2026-04-07T12:49:04.914Z</time></trkpt><trkpt lat="44.150625" lon="10.4118559"><ele>530.0</ele><time>2026-04-07T12:49:06.912Z</time></trkpt><trkpt lat="44.1507181" lon="10.4118434"><ele>530.1666666666666</ele><time>2026-04-07T12:49:09.925Z</time></trkpt><trkpt lat="44.1508059" lon="10.4118092"><ele>530.3333333333333</ele><time>2026-04-07T12:49:12.909Z</time></trkpt><trkpt lat="44.1508893" lon="10.4118478"><ele>530.5</ele><time>2026-04-07T12:49:15.918Z</time></trkpt><trkpt lat="44.1509685" lon="10.4119023"><ele>530.6666666666666</ele><time>2026-04-07T12:49:18.91Z</time></trkpt><trkpt lat="44.1510409" lon="10.4119345"><ele>530.8333333333334</ele><time>2026-04-07T12:49:21.907Z</time></trkpt><trkpt lat="44.1510938" lon="10.4119898"><ele>531.0</ele><time>2026-04-07T12:49:24.927Z</time></trkpt><trkpt lat="44.1510738" lon="10.4120846"><ele>531.0</ele><time>2026-04-07T12:49:27.917Z</time></trkpt><trkpt lat="44.1509974" lon="10.4121253"><ele>531.0</ele><time>2026-04-07T12:49:31.915Z</time></trkpt><trkpt lat="44.1509214" lon="10.4121328"><ele>531.0</ele><time>2026-04-07T12:49:35.915Z</time></trkpt><trkpt lat="44.1508497" lon="10.4121495"><ele>531.0</ele><time>2026-04-07T12:49:39.932Z</time></trkpt><trkpt lat="44.1508335" lon="10.4122589"><ele>531.0</ele><time>2026-04-07T12:49:43.92Z</time></trkpt><trkpt lat="44.1508149" lon="10.4123675"><ele>531.0</ele><time>2026-04-07T12:49:47.915Z</time></trkpt><trkpt lat="44.1507983" lon="10.412481"><ele>546.0</ele><time>2026-04-07T12:49:50.909Z</time></trkpt><trkpt lat="44.1507802" lon="10.4125849"><ele>546.0</ele><time>2026-04-07T12:49:54.916Z</time></trkpt></trkseg></trk></gpx>